<?xml version="1.0" encoding="UTF-8" standalone="no" ?>
<gpx xmlns="http://www.topografix.com/GPX/1/1" xmlns:xsi="http://www.w3.org/2001/XMLSchema-instance" xsi:schemaLocation="http://www.topografix.com/GPX/1/1 http://www.topografix.com/GPX/1/1/gpx.xsd" version="1.1" creator="VisuGPX - https://www.visugpx.com">
  <metadata>
    <name>ULTRA CANFRANC- COLLARADA</name>
    <desc><![CDATA[ULTRA CANFRANC- COLLARDA 2019------]]></desc>
  </metadata>
  <trk>
    <name><![CDATA[ULTRA CANFRANC -COLLARADA on GPSies.com]]></name>
    <trkseg>
      <trkpt lat="42.75143" lon="-0.51514">
        <ele>1198</ele>
        <time>2010-01-01T00:00:00Z</time>
      </trkpt>
      <trkpt lat="42.75139" lon="-0.51522">
        <ele>1199</ele>
        <time>2010-01-01T00:00:03Z</time>
      </trkpt>
      <trkpt lat="42.75132" lon="-0.51528">
        <ele>1200</ele>
        <time>2010-01-01T00:00:06Z</time>
      </trkpt>
      <trkpt lat="42.75111" lon="-0.51542">
        <ele>1203</ele>
        <time>2010-01-01T00:00:15Z</time>
      </trkpt>
      <trkpt lat="42.75095" lon="-0.51549">
        <ele>1204</ele>
        <time>2010-01-01T00:00:22Z</time>
      </trkpt>
      <trkpt lat="42.7508" lon="-0.51552">
        <ele>1204</ele>
        <time>2010-01-01T00:00:28Z</time>
      </trkpt>
      <trkpt lat="42.7504" lon="-0.51552">
        <ele>1201</ele>
        <time>2010-01-01T00:00:44Z</time>
      </trkpt>
      <trkpt lat="42.75018" lon="-0.51558">
        <ele>1201</ele>
        <time>2010-01-01T00:00:53Z</time>
      </trkpt>
      <trkpt lat="42.75003" lon="-0.51565">
        <ele>1201</ele>
        <time>2010-01-01T00:00:59Z</time>
      </trkpt>
      <trkpt lat="42.7498" lon="-0.51568">
        <ele>1203</ele>
        <time>2010-01-01T00:01:09Z</time>
      </trkpt>
      <trkpt lat="42.74974" lon="-0.51575">
        <ele>1204</ele>
        <time>2010-01-01T00:01:12Z</time>
      </trkpt>
      <trkpt lat="42.74973" lon="-0.51585">
        <ele>1206</ele>
        <time>2010-01-01T00:01:15Z</time>
      </trkpt>
      <trkpt lat="42.74968" lon="-0.51593">
        <ele>1207</ele>
        <time>2010-01-01T00:01:18Z</time>
      </trkpt>
      <trkpt lat="42.74961" lon="-0.51597">
        <ele>1207</ele>
        <time>2010-01-01T00:01:21Z</time>
      </trkpt>
      <trkpt lat="42.74937" lon="-0.51599">
        <ele>1207</ele>
        <time>2010-01-01T00:01:30Z</time>
      </trkpt>
      <trkpt lat="42.7493" lon="-0.51601">
        <ele>1206</ele>
        <time>2010-01-01T00:01:33Z</time>
      </trkpt>
      <trkpt lat="42.74893" lon="-0.51619">
        <ele>1204</ele>
        <time>2010-01-01T00:01:49Z</time>
      </trkpt>
      <trkpt lat="42.74886" lon="-0.51624">
        <ele>1204</ele>
        <time>2010-01-01T00:01:52Z</time>
      </trkpt>
      <trkpt lat="42.74885" lon="-0.51633">
        <ele>1205</ele>
        <time>2010-01-01T00:01:55Z</time>
      </trkpt>
      <trkpt lat="42.74901" lon="-0.51635">
        <ele>1209</ele>
        <time>2010-01-01T00:02:01Z</time>
      </trkpt>
      <trkpt lat="42.74923" lon="-0.5165">
        <ele>1218</ele>
        <time>2010-01-01T00:02:11Z</time>
      </trkpt>
      <trkpt lat="42.74931" lon="-0.51652">
        <ele>1220</ele>
        <time>2010-01-01T00:02:14Z</time>
      </trkpt>
      <trkpt lat="42.74948" lon="-0.51652">
        <ele>1222</ele>
        <time>2010-01-01T00:02:21Z</time>
      </trkpt>
      <trkpt lat="42.74979" lon="-0.51639">
        <ele>1219</ele>
        <time>2010-01-01T00:02:34Z</time>
      </trkpt>
      <trkpt lat="42.75012" lon="-0.51638">
        <ele>1222</ele>
        <time>2010-01-01T00:02:47Z</time>
      </trkpt>
      <trkpt lat="42.75018" lon="-0.5164">
        <ele>1223</ele>
        <time>2010-01-01T00:02:50Z</time>
      </trkpt>
      <trkpt lat="42.75025" lon="-0.51646">
        <ele>1225</ele>
        <time>2010-01-01T00:02:53Z</time>
      </trkpt>
      <trkpt lat="42.75041" lon="-0.5165">
        <ele>1225</ele>
        <time>2010-01-01T00:02:59Z</time>
      </trkpt>
      <trkpt lat="42.75048" lon="-0.51655">
        <ele>1226</ele>
        <time>2010-01-01T00:03:03Z</time>
      </trkpt>
      <trkpt lat="42.75034" lon="-0.51658">
        <ele>1229</ele>
        <time>2010-01-01T00:03:08Z</time>
      </trkpt>
      <trkpt lat="42.75021" lon="-0.51663">
        <ele>1232</ele>
        <time>2010-01-01T00:03:14Z</time>
      </trkpt>
      <trkpt lat="42.75011" lon="-0.51656">
        <ele>1229</ele>
        <time>2010-01-01T00:03:18Z</time>
      </trkpt>
      <trkpt lat="42.74998" lon="-0.51656">
        <ele>1229</ele>
        <time>2010-01-01T00:03:23Z</time>
      </trkpt>
      <trkpt lat="42.7498" lon="-0.51664">
        <ele>1230</ele>
        <time>2010-01-01T00:03:31Z</time>
      </trkpt>
      <trkpt lat="42.74964" lon="-0.51672">
        <ele>1231</ele>
        <time>2010-01-01T00:03:38Z</time>
      </trkpt>
      <trkpt lat="42.7497" lon="-0.51681">
        <ele>1235</ele>
        <time>2010-01-01T00:03:41Z</time>
      </trkpt>
      <trkpt lat="42.74962" lon="-0.51686">
        <ele>1236</ele>
        <time>2010-01-01T00:03:45Z</time>
      </trkpt>
      <trkpt lat="42.74971" lon="-0.51692">
        <ele>1238</ele>
        <time>2010-01-01T00:03:49Z</time>
      </trkpt>
      <trkpt lat="42.74973" lon="-0.51706">
        <ele>1241</ele>
        <time>2010-01-01T00:03:53Z</time>
      </trkpt>
      <trkpt lat="42.74988" lon="-0.51726">
        <ele>1246</ele>
        <time>2010-01-01T00:04:01Z</time>
      </trkpt>
      <trkpt lat="42.75003" lon="-0.51749">
        <ele>1248</ele>
        <time>2010-01-01T00:04:10Z</time>
      </trkpt>
      <trkpt lat="42.75031" lon="-0.51766">
        <ele>1252</ele>
        <time>2010-01-01T00:04:23Z</time>
      </trkpt>
      <trkpt lat="42.75014" lon="-0.5177">
        <ele>1254</ele>
        <time>2010-01-01T00:04:30Z</time>
      </trkpt>
      <trkpt lat="42.75003" lon="-0.51765">
        <ele>1252</ele>
        <time>2010-01-01T00:04:35Z</time>
      </trkpt>
      <trkpt lat="42.74976" lon="-0.51749">
        <ele>1247</ele>
        <time>2010-01-01T00:04:46Z</time>
      </trkpt>
      <trkpt lat="42.74965" lon="-0.51748">
        <ele>1247</ele>
        <time>2010-01-01T00:04:51Z</time>
      </trkpt>
      <trkpt lat="42.74959" lon="-0.51756">
        <ele>1248</ele>
        <time>2010-01-01T00:04:54Z</time>
      </trkpt>
      <trkpt lat="42.74964" lon="-0.51759">
        <ele>1249</ele>
        <time>2010-01-01T00:04:56Z</time>
      </trkpt>
      <trkpt lat="42.74989" lon="-0.51782">
        <ele>1257</ele>
        <time>2010-01-01T00:05:08Z</time>
      </trkpt>
      <trkpt lat="42.74964" lon="-0.5178">
        <ele>1254</ele>
        <time>2010-01-01T00:05:18Z</time>
      </trkpt>
      <trkpt lat="42.74945" lon="-0.51803">
        <ele>1262</ele>
        <time>2010-01-01T00:05:29Z</time>
      </trkpt>
      <trkpt lat="42.74924" lon="-0.51816">
        <ele>1266</ele>
        <time>2010-01-01T00:05:38Z</time>
      </trkpt>
      <trkpt lat="42.74898" lon="-0.5184">
        <ele>1273</ele>
        <time>2010-01-01T00:05:50Z</time>
      </trkpt>
      <trkpt lat="42.74929" lon="-0.51828">
        <ele>1272</ele>
        <time>2010-01-01T00:06:03Z</time>
      </trkpt>
      <trkpt lat="42.74968" lon="-0.51821">
        <ele>1276</ele>
        <time>2010-01-01T00:06:19Z</time>
      </trkpt>
      <trkpt lat="42.74965" lon="-0.51829">
        <ele>1279</ele>
        <time>2010-01-01T00:06:21Z</time>
      </trkpt>
      <trkpt lat="42.74959" lon="-0.51832">
        <ele>1279</ele>
        <time>2010-01-01T00:06:24Z</time>
      </trkpt>
      <trkpt lat="42.74908" lon="-0.51874">
        <ele>1289</ele>
        <time>2010-01-01T00:06:48Z</time>
      </trkpt>
      <trkpt lat="42.74898" lon="-0.51907">
        <ele>1299</ele>
        <time>2010-01-01T00:06:58Z</time>
      </trkpt>
      <trkpt lat="42.74876" lon="-0.51919">
        <ele>1300</ele>
        <time>2010-01-01T00:07:08Z</time>
      </trkpt>
      <trkpt lat="42.74875" lon="-0.51926">
        <ele>1301</ele>
        <time>2010-01-01T00:07:10Z</time>
      </trkpt>
      <trkpt lat="42.74885" lon="-0.51928">
        <ele>1301</ele>
        <time>2010-01-01T00:07:14Z</time>
      </trkpt>
      <trkpt lat="42.74895" lon="-0.51918">
        <ele>1301</ele>
        <time>2010-01-01T00:07:19Z</time>
      </trkpt>
      <trkpt lat="42.74926" lon="-0.51904">
        <ele>1302</ele>
        <time>2010-01-01T00:07:32Z</time>
      </trkpt>
      <trkpt lat="42.74965" lon="-0.5191">
        <ele>1303</ele>
        <time>2010-01-01T00:07:48Z</time>
      </trkpt>
      <trkpt lat="42.74991" lon="-0.51919">
        <ele>1305</ele>
        <time>2010-01-01T00:07:58Z</time>
      </trkpt>
      <trkpt lat="42.7499" lon="-0.51937">
        <ele>1310</ele>
        <time>2010-01-01T00:08:04Z</time>
      </trkpt>
      <trkpt lat="42.74975" lon="-0.51931">
        <ele>1307</ele>
        <time>2010-01-01T00:08:10Z</time>
      </trkpt>
      <trkpt lat="42.74944" lon="-0.51939">
        <ele>1310</ele>
        <time>2010-01-01T00:08:23Z</time>
      </trkpt>
      <trkpt lat="42.74894" lon="-0.51966">
        <ele>1313</ele>
        <time>2010-01-01T00:08:44Z</time>
      </trkpt>
      <trkpt lat="42.74892" lon="-0.51971">
        <ele>1316</ele>
        <time>2010-01-01T00:08:46Z</time>
      </trkpt>
      <trkpt lat="42.74909" lon="-0.51964">
        <ele>1314</ele>
        <time>2010-01-01T00:08:53Z</time>
      </trkpt>
      <trkpt lat="42.74933" lon="-0.51966">
        <ele>1318</ele>
        <time>2010-01-01T00:09:03Z</time>
      </trkpt>
      <trkpt lat="42.74949" lon="-0.51966">
        <ele>1319</ele>
        <time>2010-01-01T00:09:10Z</time>
      </trkpt>
      <trkpt lat="42.7495" lon="-0.51974">
        <ele>1323</ele>
        <time>2010-01-01T00:09:12Z</time>
      </trkpt>
      <trkpt lat="42.74945" lon="-0.51974">
        <ele>1323</ele>
        <time>2010-01-01T00:09:14Z</time>
      </trkpt>
      <trkpt lat="42.74922" lon="-0.51987">
        <ele>1325</ele>
        <time>2010-01-01T00:09:24Z</time>
      </trkpt>
      <trkpt lat="42.7491" lon="-0.51998">
        <ele>1328</ele>
        <time>2010-01-01T00:09:29Z</time>
      </trkpt>
      <trkpt lat="42.74935" lon="-0.5199">
        <ele>1329</ele>
        <time>2010-01-01T00:09:40Z</time>
      </trkpt>
      <trkpt lat="42.74887" lon="-0.5204">
        <ele>1353</ele>
        <time>2010-01-01T00:10:04Z</time>
      </trkpt>
      <trkpt lat="42.74862" lon="-0.5205">
        <ele>1354</ele>
        <time>2010-01-01T00:10:14Z</time>
      </trkpt>
      <trkpt lat="42.74832" lon="-0.52067">
        <ele>1361</ele>
        <time>2010-01-01T00:10:27Z</time>
      </trkpt>
      <trkpt lat="42.74802" lon="-0.52072">
        <ele>1367</ele>
        <time>2010-01-01T00:10:40Z</time>
      </trkpt>
      <trkpt lat="42.74776" lon="-0.5206">
        <ele>1366</ele>
        <time>2010-01-01T00:10:50Z</time>
      </trkpt>
      <trkpt lat="42.74734" lon="-0.52048">
        <ele>1365</ele>
        <time>2010-01-01T00:11:08Z</time>
      </trkpt>
      <trkpt lat="42.74686" lon="-0.52047">
        <ele>1353</ele>
        <time>2010-01-01T00:11:27Z</time>
      </trkpt>
      <trkpt lat="42.74678" lon="-0.52041">
        <ele>1351</ele>
        <time>2010-01-01T00:11:30Z</time>
      </trkpt>
      <trkpt lat="42.74655" lon="-0.5201">
        <ele>1355</ele>
        <time>2010-01-01T00:11:43Z</time>
      </trkpt>
      <trkpt lat="42.74632" lon="-0.51989">
        <ele>1359</ele>
        <time>2010-01-01T00:11:55Z</time>
      </trkpt>
      <trkpt lat="42.74618" lon="-0.51974">
        <ele>1359</ele>
        <time>2010-01-01T00:12:01Z</time>
      </trkpt>
      <trkpt lat="42.74623" lon="-0.51987">
        <ele>1363</ele>
        <time>2010-01-01T00:12:06Z</time>
      </trkpt>
      <trkpt lat="42.74601" lon="-0.51976">
        <ele>1368</ele>
        <time>2010-01-01T00:12:15Z</time>
      </trkpt>
      <trkpt lat="42.74571" lon="-0.51965">
        <ele>1361</ele>
        <time>2010-01-01T00:12:27Z</time>
      </trkpt>
      <trkpt lat="42.74574" lon="-0.51975">
        <ele>1369</ele>
        <time>2010-01-01T00:12:30Z</time>
      </trkpt>
      <trkpt lat="42.74597" lon="-0.51985">
        <ele>1376</ele>
        <time>2010-01-01T00:12:40Z</time>
      </trkpt>
      <trkpt lat="42.74619" lon="-0.52005">
        <ele>1376</ele>
        <time>2010-01-01T00:12:50Z</time>
      </trkpt>
      <trkpt lat="42.74639" lon="-0.5203">
        <ele>1373</ele>
        <time>2010-01-01T00:13:01Z</time>
      </trkpt>
      <trkpt lat="42.74607" lon="-0.52009">
        <ele>1386</ele>
        <time>2010-01-01T00:13:16Z</time>
      </trkpt>
      <trkpt lat="42.74587" lon="-0.52004">
        <ele>1395</ele>
        <time>2010-01-01T00:13:24Z</time>
      </trkpt>
      <trkpt lat="42.74605" lon="-0.52022">
        <ele>1394</ele>
        <time>2010-01-01T00:13:33Z</time>
      </trkpt>
      <trkpt lat="42.74622" lon="-0.52041">
        <ele>1395</ele>
        <time>2010-01-01T00:13:41Z</time>
      </trkpt>
      <trkpt lat="42.74615" lon="-0.52045">
        <ele>1403</ele>
        <time>2010-01-01T00:13:44Z</time>
      </trkpt>
      <trkpt lat="42.74601" lon="-0.52024">
        <ele>1397</ele>
        <time>2010-01-01T00:13:53Z</time>
      </trkpt>
      <trkpt lat="42.74607" lon="-0.52039">
        <ele>1403</ele>
        <time>2010-01-01T00:13:58Z</time>
      </trkpt>
      <trkpt lat="42.74583" lon="-0.52024">
        <ele>1404</ele>
        <time>2010-01-01T00:14:08Z</time>
      </trkpt>
      <trkpt lat="42.74587" lon="-0.52034">
        <ele>1407</ele>
        <time>2010-01-01T00:14:12Z</time>
      </trkpt>
      <trkpt lat="42.74573" lon="-0.5202">
        <ele>1399</ele>
        <time>2010-01-01T00:14:19Z</time>
      </trkpt>
      <trkpt lat="42.7456" lon="-0.5201">
        <ele>1388</ele>
        <time>2010-01-01T00:14:25Z</time>
      </trkpt>
      <trkpt lat="42.74567" lon="-0.52024">
        <ele>1400</ele>
        <time>2010-01-01T00:14:30Z</time>
      </trkpt>
      <trkpt lat="42.74551" lon="-0.52018">
        <ele>1389</ele>
        <time>2010-01-01T00:14:36Z</time>
      </trkpt>
      <trkpt lat="42.74546" lon="-0.52023">
        <ele>1388</ele>
        <time>2010-01-01T00:14:39Z</time>
      </trkpt>
      <trkpt lat="42.74557" lon="-0.52028">
        <ele>1400</ele>
        <time>2010-01-01T00:14:43Z</time>
      </trkpt>
      <trkpt lat="42.74579" lon="-0.5205">
        <ele>1416</ele>
        <time>2010-01-01T00:14:55Z</time>
      </trkpt>
      <trkpt lat="42.74596" lon="-0.52059">
        <ele>1418</ele>
        <time>2010-01-01T00:15:02Z</time>
      </trkpt>
      <trkpt lat="42.74627" lon="-0.52066">
        <ele>1418</ele>
        <time>2010-01-01T00:15:14Z</time>
      </trkpt>
      <trkpt lat="42.74613" lon="-0.52068">
        <ele>1423</ele>
        <time>2010-01-01T00:15:20Z</time>
      </trkpt>
      <trkpt lat="42.74619" lon="-0.52076">
        <ele>1433</ele>
        <time>2010-01-01T00:15:23Z</time>
      </trkpt>
      <trkpt lat="42.74598" lon="-0.52079">
        <ele>1435</ele>
        <time>2010-01-01T00:15:31Z</time>
      </trkpt>
      <trkpt lat="42.74589" lon="-0.52078">
        <ele>1435</ele>
        <time>2010-01-01T00:15:35Z</time>
      </trkpt>
      <trkpt lat="42.74561" lon="-0.52071">
        <ele>1426</ele>
        <time>2010-01-01T00:15:47Z</time>
      </trkpt>
      <trkpt lat="42.74551" lon="-0.52094">
        <ele>1433</ele>
        <time>2010-01-01T00:15:54Z</time>
      </trkpt>
      <trkpt lat="42.74596" lon="-0.52101">
        <ele>1450</ele>
        <time>2010-01-01T00:16:12Z</time>
      </trkpt>
      <trkpt lat="42.74574" lon="-0.5211">
        <ele>1450</ele>
        <time>2010-01-01T00:16:22Z</time>
      </trkpt>
      <trkpt lat="42.74609" lon="-0.52117">
        <ele>1462</ele>
        <time>2010-01-01T00:16:36Z</time>
      </trkpt>
      <trkpt lat="42.74647" lon="-0.52131">
        <ele>1470</ele>
        <time>2010-01-01T00:16:52Z</time>
      </trkpt>
      <trkpt lat="42.7467" lon="-0.52155">
        <ele>1481</ele>
        <time>2010-01-01T00:17:03Z</time>
      </trkpt>
      <trkpt lat="42.74629" lon="-0.52141">
        <ele>1472</ele>
        <time>2010-01-01T00:17:20Z</time>
      </trkpt>
      <trkpt lat="42.74612" lon="-0.52143">
        <ele>1472</ele>
        <time>2010-01-01T00:17:27Z</time>
      </trkpt>
      <trkpt lat="42.74644" lon="-0.52154">
        <ele>1477</ele>
        <time>2010-01-01T00:17:40Z</time>
      </trkpt>
      <trkpt lat="42.74664" lon="-0.52175">
        <ele>1486</ele>
        <time>2010-01-01T00:17:50Z</time>
      </trkpt>
      <trkpt lat="42.7468" lon="-0.522">
        <ele>1501</ele>
        <time>2010-01-01T00:18:00Z</time>
      </trkpt>
      <trkpt lat="42.74698" lon="-0.52215">
        <ele>1517</ele>
        <time>2010-01-01T00:18:08Z</time>
      </trkpt>
      <trkpt lat="42.7472" lon="-0.52223">
        <ele>1506</ele>
        <time>2010-01-01T00:18:17Z</time>
      </trkpt>
      <trkpt lat="42.74743" lon="-0.52223">
        <ele>1498</ele>
        <time>2010-01-01T00:18:26Z</time>
      </trkpt>
      <trkpt lat="42.7477" lon="-0.52241">
        <ele>1511</ele>
        <time>2010-01-01T00:18:38Z</time>
      </trkpt>
      <trkpt lat="42.7475" lon="-0.52252">
        <ele>1516</ele>
        <time>2010-01-01T00:18:47Z</time>
      </trkpt>
      <trkpt lat="42.74771" lon="-0.52251">
        <ele>1518</ele>
        <time>2010-01-01T00:18:56Z</time>
      </trkpt>
      <trkpt lat="42.74765" lon="-0.5226">
        <ele>1527</ele>
        <time>2010-01-01T00:19:00Z</time>
      </trkpt>
      <trkpt lat="42.74746" lon="-0.52264">
        <ele>1528</ele>
        <time>2010-01-01T00:19:07Z</time>
      </trkpt>
      <trkpt lat="42.74769" lon="-0.5227">
        <ele>1538</ele>
        <time>2010-01-01T00:19:17Z</time>
      </trkpt>
      <trkpt lat="42.74787" lon="-0.52265">
        <ele>1536</ele>
        <time>2010-01-01T00:19:24Z</time>
      </trkpt>
      <trkpt lat="42.74791" lon="-0.52276">
        <ele>1546</ele>
        <time>2010-01-01T00:19:28Z</time>
      </trkpt>
      <trkpt lat="42.74767" lon="-0.52286">
        <ele>1551</ele>
        <time>2010-01-01T00:19:38Z</time>
      </trkpt>
      <trkpt lat="42.74758" lon="-0.52293">
        <ele>1555</ele>
        <time>2010-01-01T00:19:42Z</time>
      </trkpt>
      <trkpt lat="42.74784" lon="-0.52289">
        <ele>1554</ele>
        <time>2010-01-01T00:19:53Z</time>
      </trkpt>
      <trkpt lat="42.74809" lon="-0.52279">
        <ele>1549</ele>
        <time>2010-01-01T00:20:03Z</time>
      </trkpt>
      <trkpt lat="42.748" lon="-0.52289">
        <ele>1556</ele>
        <time>2010-01-01T00:20:08Z</time>
      </trkpt>
      <trkpt lat="42.74772" lon="-0.52302">
        <ele>1562</ele>
        <time>2010-01-01T00:20:20Z</time>
      </trkpt>
      <trkpt lat="42.74792" lon="-0.52304">
        <ele>1565</ele>
        <time>2010-01-01T00:20:27Z</time>
      </trkpt>
      <trkpt lat="42.74807" lon="-0.52298">
        <ele>1562</ele>
        <time>2010-01-01T00:20:34Z</time>
      </trkpt>
      <trkpt lat="42.74832" lon="-0.52295">
        <ele>1558</ele>
        <time>2010-01-01T00:20:44Z</time>
      </trkpt>
      <trkpt lat="42.74813" lon="-0.52312">
        <ele>1569</ele>
        <time>2010-01-01T00:20:52Z</time>
      </trkpt>
      <trkpt lat="42.74797" lon="-0.52334">
        <ele>1580</ele>
        <time>2010-01-01T00:21:02Z</time>
      </trkpt>
      <trkpt lat="42.74808" lon="-0.52329">
        <ele>1578</ele>
        <time>2010-01-01T00:21:06Z</time>
      </trkpt>
      <trkpt lat="42.74828" lon="-0.52316">
        <ele>1570</ele>
        <time>2010-01-01T00:21:16Z</time>
      </trkpt>
      <trkpt lat="42.74837" lon="-0.52315">
        <ele>1569</ele>
        <time>2010-01-01T00:21:19Z</time>
      </trkpt>
      <trkpt lat="42.74836" lon="-0.52322">
        <ele>1572</ele>
        <time>2010-01-01T00:21:21Z</time>
      </trkpt>
      <trkpt lat="42.74787" lon="-0.52356">
        <ele>1586</ele>
        <time>2010-01-01T00:21:43Z</time>
      </trkpt>
      <trkpt lat="42.74761" lon="-0.52357">
        <ele>1582</ele>
        <time>2010-01-01T00:21:53Z</time>
      </trkpt>
      <trkpt lat="42.74708" lon="-0.52332">
        <ele>1574</ele>
        <time>2010-01-01T00:22:16Z</time>
      </trkpt>
      <trkpt lat="42.74714" lon="-0.52346">
        <ele>1575</ele>
        <time>2010-01-01T00:22:20Z</time>
      </trkpt>
      <trkpt lat="42.74738" lon="-0.52371">
        <ele>1583</ele>
        <time>2010-01-01T00:22:32Z</time>
      </trkpt>
      <trkpt lat="42.74761" lon="-0.52371">
        <ele>1587</ele>
        <time>2010-01-01T00:22:41Z</time>
      </trkpt>
      <trkpt lat="42.74755" lon="-0.52383">
        <ele>1591</ele>
        <time>2010-01-01T00:22:45Z</time>
      </trkpt>
      <trkpt lat="42.74731" lon="-0.52386">
        <ele>1586</ele>
        <time>2010-01-01T00:22:55Z</time>
      </trkpt>
      <trkpt lat="42.74722" lon="-0.52383">
        <ele>1583</ele>
        <time>2010-01-01T00:22:59Z</time>
      </trkpt>
      <trkpt lat="42.74714" lon="-0.52391">
        <ele>1584</ele>
        <time>2010-01-01T00:23:03Z</time>
      </trkpt>
      <trkpt lat="42.74704" lon="-0.52417">
        <ele>1591</ele>
        <time>2010-01-01T00:23:12Z</time>
      </trkpt>
      <trkpt lat="42.74703" lon="-0.5244">
        <ele>1597</ele>
        <time>2010-01-01T00:23:18Z</time>
      </trkpt>
      <trkpt lat="42.74705" lon="-0.52452">
        <ele>1602</ele>
        <time>2010-01-01T00:23:22Z</time>
      </trkpt>
      <trkpt lat="42.74701" lon="-0.52479">
        <ele>1609</ele>
        <time>2010-01-01T00:23:30Z</time>
      </trkpt>
      <trkpt lat="42.74686" lon="-0.525">
        <ele>1607</ele>
        <time>2010-01-01T00:23:39Z</time>
      </trkpt>
      <trkpt lat="42.74681" lon="-0.52518">
        <ele>1610</ele>
        <time>2010-01-01T00:23:44Z</time>
      </trkpt>
      <trkpt lat="42.74665" lon="-0.52557">
        <ele>1611</ele>
        <time>2010-01-01T00:23:57Z</time>
      </trkpt>
      <trkpt lat="42.74665" lon="-0.52569">
        <ele>1614</ele>
        <time>2010-01-01T00:24:01Z</time>
      </trkpt>
      <trkpt lat="42.74684" lon="-0.52541">
        <ele>1617</ele>
        <time>2010-01-01T00:24:12Z</time>
      </trkpt>
      <trkpt lat="42.74712" lon="-0.52504">
        <ele>1625</ele>
        <time>2010-01-01T00:24:28Z</time>
      </trkpt>
      <trkpt lat="42.74736" lon="-0.52461">
        <ele>1625</ele>
        <time>2010-01-01T00:24:44Z</time>
      </trkpt>
      <trkpt lat="42.74764" lon="-0.52468">
        <ele>1637</ele>
        <time>2010-01-01T00:24:55Z</time>
      </trkpt>
      <trkpt lat="42.74768" lon="-0.52481">
        <ele>1642</ele>
        <time>2010-01-01T00:24:59Z</time>
      </trkpt>
      <trkpt lat="42.74754" lon="-0.52501">
        <ele>1643</ele>
        <time>2010-01-01T00:25:07Z</time>
      </trkpt>
      <trkpt lat="42.74746" lon="-0.52539">
        <ele>1648</ele>
        <time>2010-01-01T00:25:19Z</time>
      </trkpt>
      <trkpt lat="42.74727" lon="-0.5257">
        <ele>1646</ele>
        <time>2010-01-01T00:25:31Z</time>
      </trkpt>
      <trkpt lat="42.74714" lon="-0.52597">
        <ele>1648</ele>
        <time>2010-01-01T00:25:40Z</time>
      </trkpt>
      <trkpt lat="42.74724" lon="-0.52588">
        <ele>1650</ele>
        <time>2010-01-01T00:25:45Z</time>
      </trkpt>
      <trkpt lat="42.74738" lon="-0.52566">
        <ele>1650</ele>
        <time>2010-01-01T00:25:53Z</time>
      </trkpt>
      <trkpt lat="42.74751" lon="-0.52553">
        <ele>1653</ele>
        <time>2010-01-01T00:26:00Z</time>
      </trkpt>
      <trkpt lat="42.74754" lon="-0.52547">
        <ele>1653</ele>
        <time>2010-01-01T00:26:02Z</time>
      </trkpt>
      <trkpt lat="42.74776" lon="-0.5253">
        <ele>1656</ele>
        <time>2010-01-01T00:26:12Z</time>
      </trkpt>
      <trkpt lat="42.74797" lon="-0.52519">
        <ele>1658</ele>
        <time>2010-01-01T00:26:21Z</time>
      </trkpt>
      <trkpt lat="42.74815" lon="-0.52497">
        <ele>1657</ele>
        <time>2010-01-01T00:26:31Z</time>
      </trkpt>
      <trkpt lat="42.74831" lon="-0.52483">
        <ele>1658</ele>
        <time>2010-01-01T00:26:38Z</time>
      </trkpt>
      <trkpt lat="42.74825" lon="-0.52513">
        <ele>1664</ele>
        <time>2010-01-01T00:26:48Z</time>
      </trkpt>
      <trkpt lat="42.7481" lon="-0.52545">
        <ele>1670</ele>
        <time>2010-01-01T00:26:59Z</time>
      </trkpt>
      <trkpt lat="42.74796" lon="-0.5256">
        <ele>1671</ele>
        <time>2010-01-01T00:27:06Z</time>
      </trkpt>
      <trkpt lat="42.7479" lon="-0.52574">
        <ele>1674</ele>
        <time>2010-01-01T00:27:11Z</time>
      </trkpt>
      <trkpt lat="42.74853" lon="-0.52534">
        <ele>1679</ele>
        <time>2010-01-01T00:27:39Z</time>
      </trkpt>
      <trkpt lat="42.74878" lon="-0.52541">
        <ele>1687</ele>
        <time>2010-01-01T00:27:49Z</time>
      </trkpt>
      <trkpt lat="42.749" lon="-0.52534">
        <ele>1689</ele>
        <time>2010-01-01T00:27:58Z</time>
      </trkpt>
      <trkpt lat="42.74925" lon="-0.52537">
        <ele>1692</ele>
        <time>2010-01-01T00:28:08Z</time>
      </trkpt>
      <trkpt lat="42.74943" lon="-0.52548">
        <ele>1697</ele>
        <time>2010-01-01T00:28:16Z</time>
      </trkpt>
      <trkpt lat="42.74954" lon="-0.5257">
        <ele>1702</ele>
        <time>2010-01-01T00:28:24Z</time>
      </trkpt>
      <trkpt lat="42.74925" lon="-0.52565">
        <ele>1701</ele>
        <time>2010-01-01T00:28:35Z</time>
      </trkpt>
      <trkpt lat="42.74941" lon="-0.52574">
        <ele>1705</ele>
        <time>2010-01-01T00:28:42Z</time>
      </trkpt>
      <trkpt lat="42.74966" lon="-0.52611">
        <ele>1708</ele>
        <time>2010-01-01T00:28:57Z</time>
      </trkpt>
      <trkpt lat="42.74989" lon="-0.52615">
        <ele>1703</ele>
        <time>2010-01-01T00:29:06Z</time>
      </trkpt>
      <trkpt lat="42.74999" lon="-0.52626">
        <ele>1704</ele>
        <time>2010-01-01T00:29:11Z</time>
      </trkpt>
      <trkpt lat="42.75011" lon="-0.52659">
        <ele>1710</ele>
        <time>2010-01-01T00:29:22Z</time>
      </trkpt>
      <trkpt lat="42.75022" lon="-0.52668">
        <ele>1712</ele>
        <time>2010-01-01T00:29:27Z</time>
      </trkpt>
      <trkpt lat="42.75042" lon="-0.52668">
        <ele>1710</ele>
        <time>2010-01-01T00:29:35Z</time>
      </trkpt>
      <trkpt lat="42.75057" lon="-0.52675">
        <ele>1715</ele>
        <time>2010-01-01T00:29:41Z</time>
      </trkpt>
      <trkpt lat="42.75062" lon="-0.52679">
        <ele>1718</ele>
        <time>2010-01-01T00:29:44Z</time>
      </trkpt>
      <trkpt lat="42.75083" lon="-0.52687">
        <ele>1724</ele>
        <time>2010-01-01T00:29:53Z</time>
      </trkpt>
      <trkpt lat="42.75099" lon="-0.52685">
        <ele>1718</ele>
        <time>2010-01-01T00:29:59Z</time>
      </trkpt>
      <trkpt lat="42.75109" lon="-0.52686">
        <ele>1715</ele>
        <time>2010-01-01T00:30:03Z</time>
      </trkpt>
      <trkpt lat="42.75144" lon="-0.527">
        <ele>1710</ele>
        <time>2010-01-01T00:30:18Z</time>
      </trkpt>
      <trkpt lat="42.75158" lon="-0.52729">
        <ele>1712</ele>
        <time>2010-01-01T00:30:28Z</time>
      </trkpt>
      <trkpt lat="42.75159" lon="-0.52746">
        <ele>1715</ele>
        <time>2010-01-01T00:30:33Z</time>
      </trkpt>
      <trkpt lat="42.75175" lon="-0.52795">
        <ele>1713</ele>
        <time>2010-01-01T00:30:49Z</time>
      </trkpt>
      <trkpt lat="42.75197" lon="-0.52828">
        <ele>1702</ele>
        <time>2010-01-01T00:31:02Z</time>
      </trkpt>
      <trkpt lat="42.75203" lon="-0.52868">
        <ele>1707</ele>
        <time>2010-01-01T00:31:14Z</time>
      </trkpt>
      <trkpt lat="42.75226" lon="-0.52885">
        <ele>1703</ele>
        <time>2010-01-01T00:31:24Z</time>
      </trkpt>
      <trkpt lat="42.75242" lon="-0.52893">
        <ele>1709</ele>
        <time>2010-01-01T00:31:31Z</time>
      </trkpt>
      <trkpt lat="42.75264" lon="-0.52893">
        <ele>1714</ele>
        <time>2010-01-01T00:31:40Z</time>
      </trkpt>
      <trkpt lat="42.75278" lon="-0.52888">
        <ele>1716</ele>
        <time>2010-01-01T00:31:46Z</time>
      </trkpt>
      <trkpt lat="42.75285" lon="-0.52888">
        <ele>1717</ele>
        <time>2010-01-01T00:31:48Z</time>
      </trkpt>
      <trkpt lat="42.75299" lon="-0.52894">
        <ele>1720</ele>
        <time>2010-01-01T00:31:54Z</time>
      </trkpt>
      <trkpt lat="42.75311" lon="-0.52904">
        <ele>1723</ele>
        <time>2010-01-01T00:32:00Z</time>
      </trkpt>
      <trkpt lat="42.75324" lon="-0.52927">
        <ele>1723</ele>
        <time>2010-01-01T00:32:08Z</time>
      </trkpt>
      <trkpt lat="42.75332" lon="-0.52944">
        <ele>1721</ele>
        <time>2010-01-01T00:32:14Z</time>
      </trkpt>
      <trkpt lat="42.7534" lon="-0.52953">
        <ele>1721</ele>
        <time>2010-01-01T00:32:19Z</time>
      </trkpt>
      <trkpt lat="42.75346" lon="-0.52962">
        <ele>1723</ele>
        <time>2010-01-01T00:32:22Z</time>
      </trkpt>
      <trkpt lat="42.75339" lon="-0.52968">
        <ele>1724</ele>
        <time>2010-01-01T00:32:26Z</time>
      </trkpt>
      <trkpt lat="42.75323" lon="-0.52947">
        <ele>1725</ele>
        <time>2010-01-01T00:32:35Z</time>
      </trkpt>
      <trkpt lat="42.75298" lon="-0.52929">
        <ele>1730</ele>
        <time>2010-01-01T00:32:46Z</time>
      </trkpt>
      <trkpt lat="42.75333" lon="-0.52997">
        <ele>1734</ele>
        <time>2010-01-01T00:33:10Z</time>
      </trkpt>
      <trkpt lat="42.75332" lon="-0.53004">
        <ele>1738</ele>
        <time>2010-01-01T00:33:12Z</time>
      </trkpt>
      <trkpt lat="42.75319" lon="-0.52979">
        <ele>1735</ele>
        <time>2010-01-01T00:33:21Z</time>
      </trkpt>
      <trkpt lat="42.75299" lon="-0.52954">
        <ele>1736</ele>
        <time>2010-01-01T00:33:32Z</time>
      </trkpt>
      <trkpt lat="42.75297" lon="-0.52962">
        <ele>1740</ele>
        <time>2010-01-01T00:33:35Z</time>
      </trkpt>
      <trkpt lat="42.75305" lon="-0.52994">
        <ele>1750</ele>
        <time>2010-01-01T00:33:45Z</time>
      </trkpt>
      <trkpt lat="42.75315" lon="-0.53019">
        <ele>1753</ele>
        <time>2010-01-01T00:33:53Z</time>
      </trkpt>
      <trkpt lat="42.753" lon="-0.52997">
        <ele>1755</ele>
        <time>2010-01-01T00:34:02Z</time>
      </trkpt>
      <trkpt lat="42.75287" lon="-0.52972">
        <ele>1750</ele>
        <time>2010-01-01T00:34:11Z</time>
      </trkpt>
      <trkpt lat="42.75293" lon="-0.53008">
        <ele>1763</ele>
        <time>2010-01-01T00:34:22Z</time>
      </trkpt>
      <trkpt lat="42.75314" lon="-0.53059">
        <ele>1758</ele>
        <time>2010-01-01T00:34:39Z</time>
      </trkpt>
      <trkpt lat="42.75304" lon="-0.53043">
        <ele>1759</ele>
        <time>2010-01-01T00:34:45Z</time>
      </trkpt>
      <trkpt lat="42.7529" lon="-0.53008">
        <ele>1764</ele>
        <time>2010-01-01T00:34:57Z</time>
      </trkpt>
      <trkpt lat="42.75277" lon="-0.52986">
        <ele>1764</ele>
        <time>2010-01-01T00:35:05Z</time>
      </trkpt>
      <trkpt lat="42.75299" lon="-0.53063">
        <ele>1764</ele>
        <time>2010-01-01T00:35:29Z</time>
      </trkpt>
      <trkpt lat="42.75288" lon="-0.53038">
        <ele>1768</ele>
        <time>2010-01-01T00:35:38Z</time>
      </trkpt>
      <trkpt lat="42.75276" lon="-0.53004">
        <ele>1771</ele>
        <time>2010-01-01T00:35:49Z</time>
      </trkpt>
      <trkpt lat="42.75278" lon="-0.53038">
        <ele>1774</ele>
        <time>2010-01-01T00:35:59Z</time>
      </trkpt>
      <trkpt lat="42.75284" lon="-0.53071">
        <ele>1775</ele>
        <time>2010-01-01T00:36:09Z</time>
      </trkpt>
      <trkpt lat="42.75291" lon="-0.53084">
        <ele>1776</ele>
        <time>2010-01-01T00:36:14Z</time>
      </trkpt>
      <trkpt lat="42.75304" lon="-0.53101">
        <ele>1778</ele>
        <time>2010-01-01T00:36:21Z</time>
      </trkpt>
      <trkpt lat="42.75298" lon="-0.53107">
        <ele>1782</ele>
        <time>2010-01-01T00:36:24Z</time>
      </trkpt>
      <trkpt lat="42.75279" lon="-0.53079">
        <ele>1778</ele>
        <time>2010-01-01T00:36:35Z</time>
      </trkpt>
      <trkpt lat="42.75273" lon="-0.53077">
        <ele>1781</ele>
        <time>2010-01-01T00:36:38Z</time>
      </trkpt>
      <trkpt lat="42.75266" lon="-0.53078">
        <ele>1785</ele>
        <time>2010-01-01T00:36:40Z</time>
      </trkpt>
      <trkpt lat="42.75253" lon="-0.53071">
        <ele>1791</ele>
        <time>2010-01-01T00:36:46Z</time>
      </trkpt>
      <trkpt lat="42.75258" lon="-0.53091">
        <ele>1794</ele>
        <time>2010-01-01T00:36:52Z</time>
      </trkpt>
      <trkpt lat="42.75262" lon="-0.53098">
        <ele>1795</ele>
        <time>2010-01-01T00:36:55Z</time>
      </trkpt>
      <trkpt lat="42.75275" lon="-0.53113">
        <ele>1794</ele>
        <time>2010-01-01T00:37:02Z</time>
      </trkpt>
      <trkpt lat="42.75278" lon="-0.5312">
        <ele>1795</ele>
        <time>2010-01-01T00:37:04Z</time>
      </trkpt>
      <trkpt lat="42.75295" lon="-0.53136">
        <ele>1796</ele>
        <time>2010-01-01T00:37:12Z</time>
      </trkpt>
      <trkpt lat="42.75309" lon="-0.53163">
        <ele>1804</ele>
        <time>2010-01-01T00:37:22Z</time>
      </trkpt>
      <trkpt lat="42.75308" lon="-0.53172">
        <ele>1808</ele>
        <time>2010-01-01T00:37:25Z</time>
      </trkpt>
      <trkpt lat="42.75303" lon="-0.53174">
        <ele>1810</ele>
        <time>2010-01-01T00:37:27Z</time>
      </trkpt>
      <trkpt lat="42.75296" lon="-0.53167">
        <ele>1809</ele>
        <time>2010-01-01T00:37:30Z</time>
      </trkpt>
      <trkpt lat="42.75289" lon="-0.53167">
        <ele>1811</ele>
        <time>2010-01-01T00:37:33Z</time>
      </trkpt>
      <trkpt lat="42.75282" lon="-0.53183">
        <ele>1819</ele>
        <time>2010-01-01T00:37:39Z</time>
      </trkpt>
      <trkpt lat="42.75276" lon="-0.53187">
        <ele>1823</ele>
        <time>2010-01-01T00:37:41Z</time>
      </trkpt>
      <trkpt lat="42.75273" lon="-0.53192">
        <ele>1826</ele>
        <time>2010-01-01T00:37:43Z</time>
      </trkpt>
      <trkpt lat="42.75261" lon="-0.532">
        <ele>1833</ele>
        <time>2010-01-01T00:37:49Z</time>
      </trkpt>
      <trkpt lat="42.75254" lon="-0.53228">
        <ele>1846</ele>
        <time>2010-01-01T00:37:57Z</time>
      </trkpt>
      <trkpt lat="42.75248" lon="-0.53219">
        <ele>1845</ele>
        <time>2010-01-01T00:38:01Z</time>
      </trkpt>
      <trkpt lat="42.75237" lon="-0.53235">
        <ele>1854</ele>
        <time>2010-01-01T00:38:07Z</time>
      </trkpt>
      <trkpt lat="42.75227" lon="-0.53234">
        <ele>1855</ele>
        <time>2010-01-01T00:38:11Z</time>
      </trkpt>
      <trkpt lat="42.75222" lon="-0.53237">
        <ele>1857</ele>
        <time>2010-01-01T00:38:14Z</time>
      </trkpt>
      <trkpt lat="42.75205" lon="-0.53248">
        <ele>1868</ele>
        <time>2010-01-01T00:38:21Z</time>
      </trkpt>
      <trkpt lat="42.75203" lon="-0.53256">
        <ele>1874</ele>
        <time>2010-01-01T00:38:24Z</time>
      </trkpt>
      <trkpt lat="42.75196" lon="-0.53255">
        <ele>1876</ele>
        <time>2010-01-01T00:38:26Z</time>
      </trkpt>
      <trkpt lat="42.75195" lon="-0.53267">
        <ele>1883</ele>
        <time>2010-01-01T00:38:30Z</time>
      </trkpt>
      <trkpt lat="42.75183" lon="-0.53263">
        <ele>1887</ele>
        <time>2010-01-01T00:38:35Z</time>
      </trkpt>
      <trkpt lat="42.75173" lon="-0.53268">
        <ele>1894</ele>
        <time>2010-01-01T00:38:39Z</time>
      </trkpt>
      <trkpt lat="42.75166" lon="-0.53278">
        <ele>1901</ele>
        <time>2010-01-01T00:38:43Z</time>
      </trkpt>
      <trkpt lat="42.75165" lon="-0.53287">
        <ele>1907</ele>
        <time>2010-01-01T00:38:46Z</time>
      </trkpt>
      <trkpt lat="42.75161" lon="-0.53283">
        <ele>1908</ele>
        <time>2010-01-01T00:38:48Z</time>
      </trkpt>
      <trkpt lat="42.75154" lon="-0.53281">
        <ele>1912</ele>
        <time>2010-01-01T00:38:51Z</time>
      </trkpt>
      <trkpt lat="42.75145" lon="-0.53288">
        <ele>1921</ele>
        <time>2010-01-01T00:38:55Z</time>
      </trkpt>
      <trkpt lat="42.75143" lon="-0.53298">
        <ele>1924</ele>
        <time>2010-01-01T00:38:58Z</time>
      </trkpt>
      <trkpt lat="42.75134" lon="-0.53306">
        <ele>1929</ele>
        <time>2010-01-01T00:39:02Z</time>
      </trkpt>
      <trkpt lat="42.75128" lon="-0.53317">
        <ele>1941</ele>
        <time>2010-01-01T00:39:06Z</time>
      </trkpt>
      <trkpt lat="42.7512" lon="-0.53318">
        <ele>1946</ele>
        <time>2010-01-01T00:39:09Z</time>
      </trkpt>
      <trkpt lat="42.75113" lon="-0.53316">
        <ele>1948</ele>
        <time>2010-01-01T00:39:12Z</time>
      </trkpt>
      <trkpt lat="42.75111" lon="-0.53322">
        <ele>1953</ele>
        <time>2010-01-01T00:39:14Z</time>
      </trkpt>
      <trkpt lat="42.75111" lon="-0.53338">
        <ele>1961</ele>
        <time>2010-01-01T00:39:18Z</time>
      </trkpt>
      <trkpt lat="42.75106" lon="-0.53351">
        <ele>1965</ele>
        <time>2010-01-01T00:39:23Z</time>
      </trkpt>
      <trkpt lat="42.75096" lon="-0.53354">
        <ele>1969</ele>
        <time>2010-01-01T00:39:27Z</time>
      </trkpt>
      <trkpt lat="42.75094" lon="-0.53362">
        <ele>1973</ele>
        <time>2010-01-01T00:39:29Z</time>
      </trkpt>
      <trkpt lat="42.7509" lon="-0.53368">
        <ele>1978</ele>
        <time>2010-01-01T00:39:32Z</time>
      </trkpt>
      <trkpt lat="42.75082" lon="-0.5337">
        <ele>1983</ele>
        <time>2010-01-01T00:39:35Z</time>
      </trkpt>
      <trkpt lat="42.75074" lon="-0.53364">
        <ele>1985</ele>
        <time>2010-01-01T00:39:39Z</time>
      </trkpt>
      <trkpt lat="42.75069" lon="-0.53363">
        <ele>1988</ele>
        <time>2010-01-01T00:39:41Z</time>
      </trkpt>
      <trkpt lat="42.75064" lon="-0.53369">
        <ele>1994</ele>
        <time>2010-01-01T00:39:43Z</time>
      </trkpt>
      <trkpt lat="42.75058" lon="-0.53372">
        <ele>1998</ele>
        <time>2010-01-01T00:39:46Z</time>
      </trkpt>
      <trkpt lat="42.7505" lon="-0.53373">
        <ele>2005</ele>
        <time>2010-01-01T00:39:49Z</time>
      </trkpt>
      <trkpt lat="42.75044" lon="-0.53375">
        <ele>2010</ele>
        <time>2010-01-01T00:39:52Z</time>
      </trkpt>
      <trkpt lat="42.75041" lon="-0.53392">
        <ele>2015</ele>
        <time>2010-01-01T00:39:57Z</time>
      </trkpt>
      <trkpt lat="42.75044" lon="-0.5341">
        <ele>2021</ele>
        <time>2010-01-01T00:40:02Z</time>
      </trkpt>
      <trkpt lat="42.75037" lon="-0.53411">
        <ele>2025</ele>
        <time>2010-01-01T00:40:05Z</time>
      </trkpt>
      <trkpt lat="42.75036" lon="-0.53421">
        <ele>2030</ele>
        <time>2010-01-01T00:40:08Z</time>
      </trkpt>
      <trkpt lat="42.75037" lon="-0.5344">
        <ele>2034</ele>
        <time>2010-01-01T00:40:13Z</time>
      </trkpt>
      <trkpt lat="42.75027" lon="-0.53436">
        <ele>2044</ele>
        <time>2010-01-01T00:40:18Z</time>
      </trkpt>
      <trkpt lat="42.75021" lon="-0.53442">
        <ele>2051</ele>
        <time>2010-01-01T00:40:21Z</time>
      </trkpt>
      <trkpt lat="42.75014" lon="-0.53439">
        <ele>2053</ele>
        <time>2010-01-01T00:40:24Z</time>
      </trkpt>
      <trkpt lat="42.75008" lon="-0.53443">
        <ele>2059</ele>
        <time>2010-01-01T00:40:27Z</time>
      </trkpt>
      <trkpt lat="42.75003" lon="-0.53442">
        <ele>2062</ele>
        <time>2010-01-01T00:40:28Z</time>
      </trkpt>
      <trkpt lat="42.74994" lon="-0.53438">
        <ele>2064</ele>
        <time>2010-01-01T00:40:32Z</time>
      </trkpt>
      <trkpt lat="42.7499" lon="-0.53442">
        <ele>2067</ele>
        <time>2010-01-01T00:40:34Z</time>
      </trkpt>
      <trkpt lat="42.74979" lon="-0.53449">
        <ele>2074</ele>
        <time>2010-01-01T00:40:39Z</time>
      </trkpt>
      <trkpt lat="42.74971" lon="-0.53452">
        <ele>2077</ele>
        <time>2010-01-01T00:40:42Z</time>
      </trkpt>
      <trkpt lat="42.74965" lon="-0.53453">
        <ele>2078</ele>
        <time>2010-01-01T00:40:45Z</time>
      </trkpt>
      <trkpt lat="42.7496" lon="-0.53452">
        <ele>2079</ele>
        <time>2010-01-01T00:40:47Z</time>
      </trkpt>
      <trkpt lat="42.74955" lon="-0.53457">
        <ele>2081</ele>
        <time>2010-01-01T00:40:49Z</time>
      </trkpt>
      <trkpt lat="42.74941" lon="-0.53468">
        <ele>2087</ele>
        <time>2010-01-01T00:40:56Z</time>
      </trkpt>
      <trkpt lat="42.74936" lon="-0.53458">
        <ele>2084</ele>
        <time>2010-01-01T00:40:59Z</time>
      </trkpt>
      <trkpt lat="42.74937" lon="-0.53437">
        <ele>2075</ele>
        <time>2010-01-01T00:41:06Z</time>
      </trkpt>
      <trkpt lat="42.74931" lon="-0.53441">
        <ele>2078</ele>
        <time>2010-01-01T00:41:08Z</time>
      </trkpt>
      <trkpt lat="42.74928" lon="-0.53449">
        <ele>2081</ele>
        <time>2010-01-01T00:41:11Z</time>
      </trkpt>
      <trkpt lat="42.74919" lon="-0.53463">
        <ele>2085</ele>
        <time>2010-01-01T00:41:16Z</time>
      </trkpt>
      <trkpt lat="42.7492" lon="-0.5347">
        <ele>2087</ele>
        <time>2010-01-01T00:41:18Z</time>
      </trkpt>
      <trkpt lat="42.74897" lon="-0.53499">
        <ele>2088</ele>
        <time>2010-01-01T00:41:31Z</time>
      </trkpt>
      <trkpt lat="42.74888" lon="-0.53499">
        <ele>2084</ele>
        <time>2010-01-01T00:41:35Z</time>
      </trkpt>
      <trkpt lat="42.74865" lon="-0.53514">
        <ele>2080</ele>
        <time>2010-01-01T00:41:45Z</time>
      </trkpt>
      <trkpt lat="42.74871" lon="-0.53527">
        <ele>2084</ele>
        <time>2010-01-01T00:41:49Z</time>
      </trkpt>
      <trkpt lat="42.74871" lon="-0.53537">
        <ele>2093</ele>
        <time>2010-01-01T00:41:52Z</time>
      </trkpt>
      <trkpt lat="42.74857" lon="-0.53523">
        <ele>2078</ele>
        <time>2010-01-01T00:41:59Z</time>
      </trkpt>
      <trkpt lat="42.74849" lon="-0.5352">
        <ele>2074</ele>
        <time>2010-01-01T00:42:03Z</time>
      </trkpt>
      <trkpt lat="42.74845" lon="-0.53524">
        <ele>2074</ele>
        <time>2010-01-01T00:42:04Z</time>
      </trkpt>
      <trkpt lat="42.74832" lon="-0.53528">
        <ele>2072</ele>
        <time>2010-01-01T00:42:10Z</time>
      </trkpt>
      <trkpt lat="42.74818" lon="-0.53543">
        <ele>2085</ele>
        <time>2010-01-01T00:42:17Z</time>
      </trkpt>
      <trkpt lat="42.74808" lon="-0.53545">
        <ele>2086</ele>
        <time>2010-01-01T00:42:21Z</time>
      </trkpt>
      <trkpt lat="42.74804" lon="-0.53557">
        <ele>2099</ele>
        <time>2010-01-01T00:42:25Z</time>
      </trkpt>
      <trkpt lat="42.74803" lon="-0.53564">
        <ele>2107</ele>
        <time>2010-01-01T00:42:27Z</time>
      </trkpt>
      <trkpt lat="42.74789" lon="-0.53567">
        <ele>2103</ele>
        <time>2010-01-01T00:42:33Z</time>
      </trkpt>
      <trkpt lat="42.74786" lon="-0.53576">
        <ele>2110</ele>
        <time>2010-01-01T00:42:35Z</time>
      </trkpt>
      <trkpt lat="42.74781" lon="-0.53584">
        <ele>2114</ele>
        <time>2010-01-01T00:42:39Z</time>
      </trkpt>
      <trkpt lat="42.74772" lon="-0.53594">
        <ele>2121</ele>
        <time>2010-01-01T00:42:43Z</time>
      </trkpt>
      <trkpt lat="42.74758" lon="-0.5359">
        <ele>2103</ele>
        <time>2010-01-01T00:42:49Z</time>
      </trkpt>
      <trkpt lat="42.74747" lon="-0.53591">
        <ele>2100</ele>
        <time>2010-01-01T00:42:53Z</time>
      </trkpt>
      <trkpt lat="42.74743" lon="-0.53596">
        <ele>2109</ele>
        <time>2010-01-01T00:42:55Z</time>
      </trkpt>
      <trkpt lat="42.74736" lon="-0.53594">
        <ele>2107</ele>
        <time>2010-01-01T00:42:58Z</time>
      </trkpt>
      <trkpt lat="42.74734" lon="-0.536">
        <ele>2116</ele>
        <time>2010-01-01T00:43:00Z</time>
      </trkpt>
      <trkpt lat="42.74728" lon="-0.53598">
        <ele>2114</ele>
        <time>2010-01-01T00:43:03Z</time>
      </trkpt>
      <trkpt lat="42.74716" lon="-0.53598">
        <ele>2116</ele>
        <time>2010-01-01T00:43:08Z</time>
      </trkpt>
      <trkpt lat="42.74703" lon="-0.53615">
        <ele>2134</ele>
        <time>2010-01-01T00:43:15Z</time>
      </trkpt>
      <trkpt lat="42.74693" lon="-0.53624">
        <ele>2140</ele>
        <time>2010-01-01T00:43:20Z</time>
      </trkpt>
      <trkpt lat="42.74682" lon="-0.53619">
        <ele>2142</ele>
        <time>2010-01-01T00:43:25Z</time>
      </trkpt>
      <trkpt lat="42.74676" lon="-0.53626">
        <ele>2149</ele>
        <time>2010-01-01T00:43:27Z</time>
      </trkpt>
      <trkpt lat="42.74673" lon="-0.5362">
        <ele>2147</ele>
        <time>2010-01-01T00:43:30Z</time>
      </trkpt>
      <trkpt lat="42.74663" lon="-0.53617">
        <ele>2147</ele>
        <time>2010-01-01T00:43:33Z</time>
      </trkpt>
      <trkpt lat="42.74654" lon="-0.53618">
        <ele>2146</ele>
        <time>2010-01-01T00:43:37Z</time>
      </trkpt>
      <trkpt lat="42.74623" lon="-0.53646">
        <ele>2153</ele>
        <time>2010-01-01T00:43:52Z</time>
      </trkpt>
      <trkpt lat="42.74607" lon="-0.53654">
        <ele>2150</ele>
        <time>2010-01-01T00:43:59Z</time>
      </trkpt>
      <trkpt lat="42.74605" lon="-0.53659">
        <ele>2150</ele>
        <time>2010-01-01T00:44:01Z</time>
      </trkpt>
      <trkpt lat="42.74611" lon="-0.53663">
        <ele>2151</ele>
        <time>2010-01-01T00:44:03Z</time>
      </trkpt>
      <trkpt lat="42.74604" lon="-0.53666">
        <ele>2151</ele>
        <time>2010-01-01T00:44:06Z</time>
      </trkpt>
      <trkpt lat="42.746" lon="-0.53677">
        <ele>2151</ele>
        <time>2010-01-01T00:44:10Z</time>
      </trkpt>
      <trkpt lat="42.74595" lon="-0.53677">
        <ele>2149</ele>
        <time>2010-01-01T00:44:12Z</time>
      </trkpt>
      <trkpt lat="42.74591" lon="-0.53683">
        <ele>2148</ele>
        <time>2010-01-01T00:44:14Z</time>
      </trkpt>
      <trkpt lat="42.74593" lon="-0.53689">
        <ele>2147</ele>
        <time>2010-01-01T00:44:16Z</time>
      </trkpt>
      <trkpt lat="42.74586" lon="-0.53695">
        <ele>2144</ele>
        <time>2010-01-01T00:44:19Z</time>
      </trkpt>
      <trkpt lat="42.74578" lon="-0.53692">
        <ele>2142</ele>
        <time>2010-01-01T00:44:23Z</time>
      </trkpt>
      <trkpt lat="42.74569" lon="-0.53696">
        <ele>2138</ele>
        <time>2010-01-01T00:44:27Z</time>
      </trkpt>
      <trkpt lat="42.7456" lon="-0.53704">
        <ele>2135</ele>
        <time>2010-01-01T00:44:31Z</time>
      </trkpt>
      <trkpt lat="42.74552" lon="-0.53704">
        <ele>2133</ele>
        <time>2010-01-01T00:44:34Z</time>
      </trkpt>
      <trkpt lat="42.74548" lon="-0.53714">
        <ele>2132</ele>
        <time>2010-01-01T00:44:37Z</time>
      </trkpt>
      <trkpt lat="42.74531" lon="-0.53744">
        <ele>2116</ele>
        <time>2010-01-01T00:44:49Z</time>
      </trkpt>
      <trkpt lat="42.74506" lon="-0.53771">
        <ele>2100</ele>
        <time>2010-01-01T00:45:01Z</time>
      </trkpt>
      <trkpt lat="42.74494" lon="-0.53772">
        <ele>2098</ele>
        <time>2010-01-01T00:45:06Z</time>
      </trkpt>
      <trkpt lat="42.74484" lon="-0.53794">
        <ele>2086</ele>
        <time>2010-01-01T00:45:14Z</time>
      </trkpt>
      <trkpt lat="42.74484" lon="-0.53802">
        <ele>2081</ele>
        <time>2010-01-01T00:45:16Z</time>
      </trkpt>
      <trkpt lat="42.74476" lon="-0.5382">
        <ele>2074</ele>
        <time>2010-01-01T00:45:22Z</time>
      </trkpt>
      <trkpt lat="42.74472" lon="-0.53824">
        <ele>2073</ele>
        <time>2010-01-01T00:45:24Z</time>
      </trkpt>
      <trkpt lat="42.74471" lon="-0.53831">
        <ele>2071</ele>
        <time>2010-01-01T00:45:26Z</time>
      </trkpt>
      <trkpt lat="42.74467" lon="-0.53836">
        <ele>2070</ele>
        <time>2010-01-01T00:45:29Z</time>
      </trkpt>
      <trkpt lat="42.7447" lon="-0.53848">
        <ele>2068</ele>
        <time>2010-01-01T00:45:33Z</time>
      </trkpt>
      <trkpt lat="42.74471" lon="-0.53859">
        <ele>2067</ele>
        <time>2010-01-01T00:45:36Z</time>
      </trkpt>
      <trkpt lat="42.74466" lon="-0.53865">
        <ele>2065</ele>
        <time>2010-01-01T00:45:38Z</time>
      </trkpt>
      <trkpt lat="42.74466" lon="-0.53877">
        <ele>2061</ele>
        <time>2010-01-01T00:45:42Z</time>
      </trkpt>
      <trkpt lat="42.74471" lon="-0.53893">
        <ele>2058</ele>
        <time>2010-01-01T00:45:47Z</time>
      </trkpt>
      <trkpt lat="42.74483" lon="-0.53898">
        <ele>2061</ele>
        <time>2010-01-01T00:45:52Z</time>
      </trkpt>
      <trkpt lat="42.74496" lon="-0.53908">
        <ele>2062</ele>
        <time>2010-01-01T00:45:58Z</time>
      </trkpt>
      <trkpt lat="42.74539" lon="-0.53902">
        <ele>2069</ele>
        <time>2010-01-01T00:46:15Z</time>
      </trkpt>
      <trkpt lat="42.7455" lon="-0.53903">
        <ele>2071</ele>
        <time>2010-01-01T00:46:20Z</time>
      </trkpt>
      <trkpt lat="42.74564" lon="-0.53907">
        <ele>2073</ele>
        <time>2010-01-01T00:46:26Z</time>
      </trkpt>
      <trkpt lat="42.74571" lon="-0.53902">
        <ele>2075</ele>
        <time>2010-01-01T00:46:29Z</time>
      </trkpt>
      <trkpt lat="42.74582" lon="-0.53911">
        <ele>2075</ele>
        <time>2010-01-01T00:46:34Z</time>
      </trkpt>
      <trkpt lat="42.74592" lon="-0.53914">
        <ele>2077</ele>
        <time>2010-01-01T00:46:38Z</time>
      </trkpt>
      <trkpt lat="42.74598" lon="-0.53922">
        <ele>2078</ele>
        <time>2010-01-01T00:46:42Z</time>
      </trkpt>
      <trkpt lat="42.74615" lon="-0.53932">
        <ele>2083</ele>
        <time>2010-01-01T00:46:49Z</time>
      </trkpt>
      <trkpt lat="42.74619" lon="-0.53941">
        <ele>2083</ele>
        <time>2010-01-01T00:46:52Z</time>
      </trkpt>
      <trkpt lat="42.74641" lon="-0.53972">
        <ele>2086</ele>
        <time>2010-01-01T00:47:05Z</time>
      </trkpt>
      <trkpt lat="42.74651" lon="-0.53971">
        <ele>2086</ele>
        <time>2010-01-01T00:47:08Z</time>
      </trkpt>
      <trkpt lat="42.74678" lon="-0.53985">
        <ele>2093</ele>
        <time>2010-01-01T00:47:20Z</time>
      </trkpt>
      <trkpt lat="42.74698" lon="-0.53985">
        <ele>2094</ele>
        <time>2010-01-01T00:47:28Z</time>
      </trkpt>
      <trkpt lat="42.74714" lon="-0.53976">
        <ele>2095</ele>
        <time>2010-01-01T00:47:35Z</time>
      </trkpt>
      <trkpt lat="42.74721" lon="-0.53969">
        <ele>2097</ele>
        <time>2010-01-01T00:47:39Z</time>
      </trkpt>
      <trkpt lat="42.7473" lon="-0.53975">
        <ele>2100</ele>
        <time>2010-01-01T00:47:43Z</time>
      </trkpt>
      <trkpt lat="42.74748" lon="-0.53977">
        <ele>2107</ele>
        <time>2010-01-01T00:47:50Z</time>
      </trkpt>
      <trkpt lat="42.74756" lon="-0.53994">
        <ele>2111</ele>
        <time>2010-01-01T00:47:56Z</time>
      </trkpt>
      <trkpt lat="42.74765" lon="-0.53998">
        <ele>2116</ele>
        <time>2010-01-01T00:48:00Z</time>
      </trkpt>
      <trkpt lat="42.74779" lon="-0.54009">
        <ele>2123</ele>
        <time>2010-01-01T00:48:06Z</time>
      </trkpt>
      <trkpt lat="42.74787" lon="-0.54009">
        <ele>2126</ele>
        <time>2010-01-01T00:48:10Z</time>
      </trkpt>
      <trkpt lat="42.74796" lon="-0.54019">
        <ele>2129</ele>
        <time>2010-01-01T00:48:14Z</time>
      </trkpt>
      <trkpt lat="42.74808" lon="-0.54022">
        <ele>2133</ele>
        <time>2010-01-01T00:48:19Z</time>
      </trkpt>
      <trkpt lat="42.74817" lon="-0.54021">
        <ele>2135</ele>
        <time>2010-01-01T00:48:23Z</time>
      </trkpt>
      <trkpt lat="42.74829" lon="-0.54027">
        <ele>2139</ele>
        <time>2010-01-01T00:48:28Z</time>
      </trkpt>
      <trkpt lat="42.74853" lon="-0.54015">
        <ele>2145</ele>
        <time>2010-01-01T00:48:38Z</time>
      </trkpt>
      <trkpt lat="42.74858" lon="-0.54014">
        <ele>2147</ele>
        <time>2010-01-01T00:48:40Z</time>
      </trkpt>
      <trkpt lat="42.74875" lon="-0.5402">
        <ele>2158</ele>
        <time>2010-01-01T00:48:47Z</time>
      </trkpt>
      <trkpt lat="42.74888" lon="-0.54013">
        <ele>2169</ele>
        <time>2010-01-01T00:48:53Z</time>
      </trkpt>
      <trkpt lat="42.74918" lon="-0.54016">
        <ele>2181</ele>
        <time>2010-01-01T00:49:04Z</time>
      </trkpt>
      <trkpt lat="42.7493" lon="-0.54026">
        <ele>2180</ele>
        <time>2010-01-01T00:49:10Z</time>
      </trkpt>
      <trkpt lat="42.74943" lon="-0.54049">
        <ele>2183</ele>
        <time>2010-01-01T00:49:19Z</time>
      </trkpt>
      <trkpt lat="42.74946" lon="-0.54058">
        <ele>2185</ele>
        <time>2010-01-01T00:49:22Z</time>
      </trkpt>
      <trkpt lat="42.7496" lon="-0.54079">
        <ele>2200</ele>
        <time>2010-01-01T00:49:30Z</time>
      </trkpt>
      <trkpt lat="42.7497" lon="-0.54082">
        <ele>2204</ele>
        <time>2010-01-01T00:49:34Z</time>
      </trkpt>
      <trkpt lat="42.74977" lon="-0.54081">
        <ele>2207</ele>
        <time>2010-01-01T00:49:37Z</time>
      </trkpt>
      <trkpt lat="42.74975" lon="-0.54093">
        <ele>2208</ele>
        <time>2010-01-01T00:49:41Z</time>
      </trkpt>
      <trkpt lat="42.74982" lon="-0.54119">
        <ele>2212</ele>
        <time>2010-01-01T00:49:49Z</time>
      </trkpt>
      <trkpt lat="42.74984" lon="-0.54129">
        <ele>2210</ele>
        <time>2010-01-01T00:49:52Z</time>
      </trkpt>
      <trkpt lat="42.74983" lon="-0.54143">
        <ele>2207</ele>
        <time>2010-01-01T00:49:56Z</time>
      </trkpt>
      <trkpt lat="42.74979" lon="-0.54161">
        <ele>2199</ele>
        <time>2010-01-01T00:50:01Z</time>
      </trkpt>
      <trkpt lat="42.74966" lon="-0.54204">
        <ele>2180</ele>
        <time>2010-01-01T00:50:15Z</time>
      </trkpt>
      <trkpt lat="42.74968" lon="-0.54214">
        <ele>2174</ele>
        <time>2010-01-01T00:50:18Z</time>
      </trkpt>
      <trkpt lat="42.74972" lon="-0.54222">
        <ele>2170</ele>
        <time>2010-01-01T00:50:21Z</time>
      </trkpt>
      <trkpt lat="42.74971" lon="-0.5423">
        <ele>2167</ele>
        <time>2010-01-01T00:50:23Z</time>
      </trkpt>
      <trkpt lat="42.74958" lon="-0.54257">
        <ele>2156</ele>
        <time>2010-01-01T00:50:33Z</time>
      </trkpt>
      <trkpt lat="42.74958" lon="-0.54268">
        <ele>2152</ele>
        <time>2010-01-01T00:50:36Z</time>
      </trkpt>
      <trkpt lat="42.74955" lon="-0.54274">
        <ele>2149</ele>
        <time>2010-01-01T00:50:38Z</time>
      </trkpt>
      <trkpt lat="42.7495" lon="-0.54301">
        <ele>2136</ele>
        <time>2010-01-01T00:50:46Z</time>
      </trkpt>
      <trkpt lat="42.74946" lon="-0.54305">
        <ele>2133</ele>
        <time>2010-01-01T00:50:48Z</time>
      </trkpt>
      <trkpt lat="42.7494" lon="-0.54322">
        <ele>2122</ele>
        <time>2010-01-01T00:50:54Z</time>
      </trkpt>
      <trkpt lat="42.74938" lon="-0.54348">
        <ele>2109</ele>
        <time>2010-01-01T00:51:01Z</time>
      </trkpt>
      <trkpt lat="42.74939" lon="-0.54357">
        <ele>2104</ele>
        <time>2010-01-01T00:51:04Z</time>
      </trkpt>
      <trkpt lat="42.74932" lon="-0.54379">
        <ele>2096</ele>
        <time>2010-01-01T00:51:11Z</time>
      </trkpt>
      <trkpt lat="42.7493" lon="-0.54396">
        <ele>2091</ele>
        <time>2010-01-01T00:51:16Z</time>
      </trkpt>
      <trkpt lat="42.74927" lon="-0.544">
        <ele>2089</ele>
        <time>2010-01-01T00:51:18Z</time>
      </trkpt>
      <trkpt lat="42.74927" lon="-0.54414">
        <ele>2085</ele>
        <time>2010-01-01T00:51:22Z</time>
      </trkpt>
      <trkpt lat="42.74925" lon="-0.54426">
        <ele>2082</ele>
        <time>2010-01-01T00:51:26Z</time>
      </trkpt>
      <trkpt lat="42.74919" lon="-0.5445">
        <ele>2074</ele>
        <time>2010-01-01T00:51:33Z</time>
      </trkpt>
      <trkpt lat="42.74913" lon="-0.54504">
        <ele>2070</ele>
        <time>2010-01-01T00:51:49Z</time>
      </trkpt>
      <trkpt lat="42.74908" lon="-0.54507">
        <ele>2067</ele>
        <time>2010-01-01T00:51:51Z</time>
      </trkpt>
      <trkpt lat="42.74903" lon="-0.54508">
        <ele>2062</ele>
        <time>2010-01-01T00:51:54Z</time>
      </trkpt>
      <trkpt lat="42.74898" lon="-0.54506">
        <ele>2058</ele>
        <time>2010-01-01T00:51:56Z</time>
      </trkpt>
      <trkpt lat="42.74893" lon="-0.545">
        <ele>2054</ele>
        <time>2010-01-01T00:51:59Z</time>
      </trkpt>
      <trkpt lat="42.74887" lon="-0.54495">
        <ele>2050</ele>
        <time>2010-01-01T00:52:01Z</time>
      </trkpt>
      <trkpt lat="42.74875" lon="-0.54498">
        <ele>2040</ele>
        <time>2010-01-01T00:52:06Z</time>
      </trkpt>
      <trkpt lat="42.74867" lon="-0.54498">
        <ele>2033</ele>
        <time>2010-01-01T00:52:09Z</time>
      </trkpt>
      <trkpt lat="42.7486" lon="-0.54503">
        <ele>2027</ele>
        <time>2010-01-01T00:52:12Z</time>
      </trkpt>
      <trkpt lat="42.74856" lon="-0.54504">
        <ele>2026</ele>
        <time>2010-01-01T00:52:14Z</time>
      </trkpt>
      <trkpt lat="42.74842" lon="-0.54512">
        <ele>2021</ele>
        <time>2010-01-01T00:52:20Z</time>
      </trkpt>
      <trkpt lat="42.74835" lon="-0.54514">
        <ele>2018</ele>
        <time>2010-01-01T00:52:23Z</time>
      </trkpt>
      <trkpt lat="42.7483" lon="-0.54518">
        <ele>2017</ele>
        <time>2010-01-01T00:52:25Z</time>
      </trkpt>
      <trkpt lat="42.74816" lon="-0.54509">
        <ele>2016</ele>
        <time>2010-01-01T00:52:31Z</time>
      </trkpt>
      <trkpt lat="42.74811" lon="-0.54512">
        <ele>2016</ele>
        <time>2010-01-01T00:52:34Z</time>
      </trkpt>
      <trkpt lat="42.748" lon="-0.54513">
        <ele>2015</ele>
        <time>2010-01-01T00:52:38Z</time>
      </trkpt>
      <trkpt lat="42.74789" lon="-0.54526">
        <ele>2008</ele>
        <time>2010-01-01T00:52:44Z</time>
      </trkpt>
      <trkpt lat="42.74783" lon="-0.54526">
        <ele>2006</ele>
        <time>2010-01-01T00:52:46Z</time>
      </trkpt>
      <trkpt lat="42.74778" lon="-0.54534">
        <ele>2001</ele>
        <time>2010-01-01T00:52:50Z</time>
      </trkpt>
      <trkpt lat="42.74778" lon="-0.54542">
        <ele>2000</ele>
        <time>2010-01-01T00:52:52Z</time>
      </trkpt>
      <trkpt lat="42.74771" lon="-0.54545">
        <ele>2000</ele>
        <time>2010-01-01T00:52:55Z</time>
      </trkpt>
      <trkpt lat="42.74764" lon="-0.54552">
        <ele>1998</ele>
        <time>2010-01-01T00:52:58Z</time>
      </trkpt>
      <trkpt lat="42.74756" lon="-0.54569">
        <ele>1992</ele>
        <time>2010-01-01T00:53:04Z</time>
      </trkpt>
      <trkpt lat="42.74752" lon="-0.54572">
        <ele>1991</ele>
        <time>2010-01-01T00:53:06Z</time>
      </trkpt>
      <trkpt lat="42.74746" lon="-0.54592">
        <ele>1987</ele>
        <time>2010-01-01T00:53:13Z</time>
      </trkpt>
      <trkpt lat="42.74739" lon="-0.54604">
        <ele>1983</ele>
        <time>2010-01-01T00:53:17Z</time>
      </trkpt>
      <trkpt lat="42.7473" lon="-0.54609">
        <ele>1976</ele>
        <time>2010-01-01T00:53:21Z</time>
      </trkpt>
      <trkpt lat="42.74717" lon="-0.54611">
        <ele>1967</ele>
        <time>2010-01-01T00:53:27Z</time>
      </trkpt>
      <trkpt lat="42.74688" lon="-0.54626">
        <ele>1957</ele>
        <time>2010-01-01T00:53:39Z</time>
      </trkpt>
      <trkpt lat="42.74646" lon="-0.54639">
        <ele>1937</ele>
        <time>2010-01-01T00:53:56Z</time>
      </trkpt>
      <trkpt lat="42.74631" lon="-0.54645">
        <ele>1934</ele>
        <time>2010-01-01T00:54:02Z</time>
      </trkpt>
      <trkpt lat="42.7461" lon="-0.54648">
        <ele>1929</ele>
        <time>2010-01-01T00:54:11Z</time>
      </trkpt>
      <trkpt lat="42.74601" lon="-0.54654">
        <ele>1930</ele>
        <time>2010-01-01T00:54:15Z</time>
      </trkpt>
      <trkpt lat="42.74568" lon="-0.54659">
        <ele>1934</ele>
        <time>2010-01-01T00:54:28Z</time>
      </trkpt>
      <trkpt lat="42.74552" lon="-0.54666">
        <ele>1933</ele>
        <time>2010-01-01T00:54:35Z</time>
      </trkpt>
      <trkpt lat="42.74544" lon="-0.54667">
        <ele>1933</ele>
        <time>2010-01-01T00:54:38Z</time>
      </trkpt>
      <trkpt lat="42.74536" lon="-0.54673">
        <ele>1933</ele>
        <time>2010-01-01T00:54:42Z</time>
      </trkpt>
      <trkpt lat="42.74534" lon="-0.5469">
        <ele>1936</ele>
        <time>2010-01-01T00:54:47Z</time>
      </trkpt>
      <trkpt lat="42.74534" lon="-0.547">
        <ele>1940</ele>
        <time>2010-01-01T00:54:49Z</time>
      </trkpt>
      <trkpt lat="42.74549" lon="-0.54701">
        <ele>1946</ele>
        <time>2010-01-01T00:54:56Z</time>
      </trkpt>
      <trkpt lat="42.74546" lon="-0.54709">
        <ele>1951</ele>
        <time>2010-01-01T00:54:58Z</time>
      </trkpt>
      <trkpt lat="42.7454" lon="-0.54712">
        <ele>1951</ele>
        <time>2010-01-01T00:55:01Z</time>
      </trkpt>
      <trkpt lat="42.74533" lon="-0.54719">
        <ele>1952</ele>
        <time>2010-01-01T00:55:04Z</time>
      </trkpt>
      <trkpt lat="42.74532" lon="-0.54731">
        <ele>1957</ele>
        <time>2010-01-01T00:55:08Z</time>
      </trkpt>
      <trkpt lat="42.7452" lon="-0.54743">
        <ele>1956</ele>
        <time>2010-01-01T00:55:14Z</time>
      </trkpt>
      <trkpt lat="42.74513" lon="-0.54755">
        <ele>1956</ele>
        <time>2010-01-01T00:55:18Z</time>
      </trkpt>
      <trkpt lat="42.74509" lon="-0.54761">
        <ele>1955</ele>
        <time>2010-01-01T00:55:20Z</time>
      </trkpt>
      <trkpt lat="42.74503" lon="-0.54783">
        <ele>1953</ele>
        <time>2010-01-01T00:55:27Z</time>
      </trkpt>
      <trkpt lat="42.74501" lon="-0.54796">
        <ele>1952</ele>
        <time>2010-01-01T00:55:31Z</time>
      </trkpt>
      <trkpt lat="42.74493" lon="-0.54822">
        <ele>1950</ele>
        <time>2010-01-01T00:55:40Z</time>
      </trkpt>
      <trkpt lat="42.74493" lon="-0.54831">
        <ele>1951</ele>
        <time>2010-01-01T00:55:42Z</time>
      </trkpt>
      <trkpt lat="42.74488" lon="-0.54852">
        <ele>1950</ele>
        <time>2010-01-01T00:55:49Z</time>
      </trkpt>
      <trkpt lat="42.7448" lon="-0.54873">
        <ele>1946</ele>
        <time>2010-01-01T00:55:56Z</time>
      </trkpt>
      <trkpt lat="42.74475" lon="-0.54895">
        <ele>1942</ele>
        <time>2010-01-01T00:56:02Z</time>
      </trkpt>
      <trkpt lat="42.74476" lon="-0.54928">
        <ele>1936</ele>
        <time>2010-01-01T00:56:12Z</time>
      </trkpt>
      <trkpt lat="42.74483" lon="-0.54947">
        <ele>1938</ele>
        <time>2010-01-01T00:56:19Z</time>
      </trkpt>
      <trkpt lat="42.74475" lon="-0.54983">
        <ele>1933</ele>
        <time>2010-01-01T00:56:29Z</time>
      </trkpt>
      <trkpt lat="42.74468" lon="-0.55006">
        <ele>1928</ele>
        <time>2010-01-01T00:56:37Z</time>
      </trkpt>
      <trkpt lat="42.74458" lon="-0.55016">
        <ele>1925</ele>
        <time>2010-01-01T00:56:42Z</time>
      </trkpt>
      <trkpt lat="42.7445" lon="-0.55021">
        <ele>1924</ele>
        <time>2010-01-01T00:56:46Z</time>
      </trkpt>
      <trkpt lat="42.74431" lon="-0.55042">
        <ele>1922</ele>
        <time>2010-01-01T00:56:55Z</time>
      </trkpt>
      <trkpt lat="42.74418" lon="-0.55078">
        <ele>1914</ele>
        <time>2010-01-01T00:57:07Z</time>
      </trkpt>
      <trkpt lat="42.7442" lon="-0.55086">
        <ele>1912</ele>
        <time>2010-01-01T00:57:09Z</time>
      </trkpt>
      <trkpt lat="42.74423" lon="-0.55116">
        <ele>1907</ele>
        <time>2010-01-01T00:57:18Z</time>
      </trkpt>
      <trkpt lat="42.7442" lon="-0.55124">
        <ele>1906</ele>
        <time>2010-01-01T00:57:21Z</time>
      </trkpt>
      <trkpt lat="42.74419" lon="-0.55136">
        <ele>1904</ele>
        <time>2010-01-01T00:57:24Z</time>
      </trkpt>
      <trkpt lat="42.74426" lon="-0.55161">
        <ele>1905</ele>
        <time>2010-01-01T00:57:32Z</time>
      </trkpt>
      <trkpt lat="42.74427" lon="-0.55171">
        <ele>1905</ele>
        <time>2010-01-01T00:57:35Z</time>
      </trkpt>
      <trkpt lat="42.74421" lon="-0.55183">
        <ele>1905</ele>
        <time>2010-01-01T00:57:40Z</time>
      </trkpt>
      <trkpt lat="42.74411" lon="-0.55198">
        <ele>1906</ele>
        <time>2010-01-01T00:57:46Z</time>
      </trkpt>
      <trkpt lat="42.7441" lon="-0.55215">
        <ele>1908</ele>
        <time>2010-01-01T00:57:51Z</time>
      </trkpt>
      <trkpt lat="42.74413" lon="-0.55224">
        <ele>1909</ele>
        <time>2010-01-01T00:57:54Z</time>
      </trkpt>
      <trkpt lat="42.74422" lon="-0.55233">
        <ele>1911</ele>
        <time>2010-01-01T00:57:58Z</time>
      </trkpt>
      <trkpt lat="42.74449" lon="-0.55236">
        <ele>1916</ele>
        <time>2010-01-01T00:58:09Z</time>
      </trkpt>
      <trkpt lat="42.7446" lon="-0.5524">
        <ele>1919</ele>
        <time>2010-01-01T00:58:13Z</time>
      </trkpt>
      <trkpt lat="42.74478" lon="-0.55252">
        <ele>1926</ele>
        <time>2010-01-01T00:58:22Z</time>
      </trkpt>
      <trkpt lat="42.74497" lon="-0.55259">
        <ele>1931</ele>
        <time>2010-01-01T00:58:29Z</time>
      </trkpt>
      <trkpt lat="42.74507" lon="-0.55265">
        <ele>1934</ele>
        <time>2010-01-01T00:58:34Z</time>
      </trkpt>
      <trkpt lat="42.74516" lon="-0.55274">
        <ele>1937</ele>
        <time>2010-01-01T00:58:38Z</time>
      </trkpt>
      <trkpt lat="42.74519" lon="-0.5528">
        <ele>1938</ele>
        <time>2010-01-01T00:58:40Z</time>
      </trkpt>
      <trkpt lat="42.74528" lon="-0.55285">
        <ele>1939</ele>
        <time>2010-01-01T00:58:44Z</time>
      </trkpt>
      <trkpt lat="42.74537" lon="-0.55309">
        <ele>1943</ele>
        <time>2010-01-01T00:58:52Z</time>
      </trkpt>
      <trkpt lat="42.74557" lon="-0.55337">
        <ele>1948</ele>
        <time>2010-01-01T00:59:04Z</time>
      </trkpt>
      <trkpt lat="42.74564" lon="-0.55356">
        <ele>1949</ele>
        <time>2010-01-01T00:59:10Z</time>
      </trkpt>
      <trkpt lat="42.74571" lon="-0.55391">
        <ele>1955</ele>
        <time>2010-01-01T00:59:21Z</time>
      </trkpt>
      <trkpt lat="42.74571" lon="-0.55398">
        <ele>1957</ele>
        <time>2010-01-01T00:59:23Z</time>
      </trkpt>
      <trkpt lat="42.74574" lon="-0.55408">
        <ele>1960</ele>
        <time>2010-01-01T00:59:26Z</time>
      </trkpt>
      <trkpt lat="42.74574" lon="-0.55428">
        <ele>1966</ele>
        <time>2010-01-01T00:59:32Z</time>
      </trkpt>
      <trkpt lat="42.74569" lon="-0.55453">
        <ele>1971</ele>
        <time>2010-01-01T00:59:39Z</time>
      </trkpt>
      <trkpt lat="42.74573" lon="-0.55468">
        <ele>1975</ele>
        <time>2010-01-01T00:59:44Z</time>
      </trkpt>
      <trkpt lat="42.74572" lon="-0.55488">
        <ele>1975</ele>
        <time>2010-01-01T00:59:50Z</time>
      </trkpt>
      <trkpt lat="42.74576" lon="-0.55499">
        <ele>1976</ele>
        <time>2010-01-01T00:59:54Z</time>
      </trkpt>
      <trkpt lat="42.74578" lon="-0.55512">
        <ele>1978</ele>
        <time>2010-01-01T00:59:57Z</time>
      </trkpt>
      <trkpt lat="42.74575" lon="-0.55531">
        <ele>1979</ele>
        <time>2010-01-01T01:00:03Z</time>
      </trkpt>
      <trkpt lat="42.74581" lon="-0.55534">
        <ele>1981</ele>
        <time>2010-01-01T01:00:06Z</time>
      </trkpt>
      <trkpt lat="42.7459" lon="-0.55547">
        <ele>1986</ele>
        <time>2010-01-01T01:00:11Z</time>
      </trkpt>
      <trkpt lat="42.74592" lon="-0.55572">
        <ele>1990</ele>
        <time>2010-01-01T01:00:18Z</time>
      </trkpt>
      <trkpt lat="42.7459" lon="-0.5559">
        <ele>1990</ele>
        <time>2010-01-01T01:00:24Z</time>
      </trkpt>
      <trkpt lat="42.74587" lon="-0.55604">
        <ele>1989</ele>
        <time>2010-01-01T01:00:28Z</time>
      </trkpt>
      <trkpt lat="42.74587" lon="-0.55618">
        <ele>1990</ele>
        <time>2010-01-01T01:00:32Z</time>
      </trkpt>
      <trkpt lat="42.74589" lon="-0.55633">
        <ele>1993</ele>
        <time>2010-01-01T01:00:36Z</time>
      </trkpt>
      <trkpt lat="42.74587" lon="-0.55644">
        <ele>1996</ele>
        <time>2010-01-01T01:00:40Z</time>
      </trkpt>
      <trkpt lat="42.74583" lon="-0.55656">
        <ele>1998</ele>
        <time>2010-01-01T01:00:44Z</time>
      </trkpt>
      <trkpt lat="42.74578" lon="-0.55661">
        <ele>1998</ele>
        <time>2010-01-01T01:00:46Z</time>
      </trkpt>
      <trkpt lat="42.74572" lon="-0.55688">
        <ele>2002</ele>
        <time>2010-01-01T01:00:54Z</time>
      </trkpt>
      <trkpt lat="42.7457" lon="-0.55735">
        <ele>2009</ele>
        <time>2010-01-01T01:01:08Z</time>
      </trkpt>
      <trkpt lat="42.74571" lon="-0.55765">
        <ele>2014</ele>
        <time>2010-01-01T01:01:17Z</time>
      </trkpt>
      <trkpt lat="42.74569" lon="-0.55776">
        <ele>2015</ele>
        <time>2010-01-01T01:01:21Z</time>
      </trkpt>
      <trkpt lat="42.74594" lon="-0.55808">
        <ele>2032</ele>
        <time>2010-01-01T01:01:35Z</time>
      </trkpt>
      <trkpt lat="42.74599" lon="-0.55794">
        <ele>2034</ele>
        <time>2010-01-01T01:01:39Z</time>
      </trkpt>
      <trkpt lat="42.74602" lon="-0.55787">
        <ele>2036</ele>
        <time>2010-01-01T01:01:42Z</time>
      </trkpt>
      <trkpt lat="42.74609" lon="-0.5576">
        <ele>2035</ele>
        <time>2010-01-01T01:01:50Z</time>
      </trkpt>
      <trkpt lat="42.74609" lon="-0.55722">
        <ele>2027</ele>
        <time>2010-01-01T01:02:01Z</time>
      </trkpt>
      <trkpt lat="42.74614" lon="-0.55725">
        <ele>2030</ele>
        <time>2010-01-01T01:02:03Z</time>
      </trkpt>
      <trkpt lat="42.74622" lon="-0.5572">
        <ele>2033</ele>
        <time>2010-01-01T01:02:07Z</time>
      </trkpt>
      <trkpt lat="42.74627" lon="-0.5572">
        <ele>2035</ele>
        <time>2010-01-01T01:02:09Z</time>
      </trkpt>
      <trkpt lat="42.74635" lon="-0.55711">
        <ele>2038</ele>
        <time>2010-01-01T01:02:13Z</time>
      </trkpt>
      <trkpt lat="42.74646" lon="-0.55706">
        <ele>2043</ele>
        <time>2010-01-01T01:02:18Z</time>
      </trkpt>
      <trkpt lat="42.7465" lon="-0.55703">
        <ele>2045</ele>
        <time>2010-01-01T01:02:20Z</time>
      </trkpt>
      <trkpt lat="42.74666" lon="-0.55685">
        <ele>2050</ele>
        <time>2010-01-01T01:02:28Z</time>
      </trkpt>
      <trkpt lat="42.7467" lon="-0.55675">
        <ele>2048</ele>
        <time>2010-01-01T01:02:31Z</time>
      </trkpt>
      <trkpt lat="42.74684" lon="-0.55653">
        <ele>2050</ele>
        <time>2010-01-01T01:02:40Z</time>
      </trkpt>
      <trkpt lat="42.74685" lon="-0.55634">
        <ele>2048</ele>
        <time>2010-01-01T01:02:45Z</time>
      </trkpt>
      <trkpt lat="42.74689" lon="-0.55625">
        <ele>2047</ele>
        <time>2010-01-01T01:02:48Z</time>
      </trkpt>
      <trkpt lat="42.74701" lon="-0.55605">
        <ele>2047</ele>
        <time>2010-01-01T01:02:56Z</time>
      </trkpt>
      <trkpt lat="42.74711" lon="-0.55584">
        <ele>2044</ele>
        <time>2010-01-01T01:03:03Z</time>
      </trkpt>
      <trkpt lat="42.74716" lon="-0.55576">
        <ele>2047</ele>
        <time>2010-01-01T01:03:06Z</time>
      </trkpt>
      <trkpt lat="42.74728" lon="-0.55564">
        <ele>2052</ele>
        <time>2010-01-01T01:03:13Z</time>
      </trkpt>
      <trkpt lat="42.74754" lon="-0.55519">
        <ele>2049</ele>
        <time>2010-01-01T01:03:29Z</time>
      </trkpt>
      <trkpt lat="42.74759" lon="-0.55513">
        <ele>2049</ele>
        <time>2010-01-01T01:03:32Z</time>
      </trkpt>
      <trkpt lat="42.7477" lon="-0.55504">
        <ele>2053</ele>
        <time>2010-01-01T01:03:37Z</time>
      </trkpt>
      <trkpt lat="42.74775" lon="-0.55497">
        <ele>2054</ele>
        <time>2010-01-01T01:03:40Z</time>
      </trkpt>
      <trkpt lat="42.74776" lon="-0.5549">
        <ele>2054</ele>
        <time>2010-01-01T01:03:42Z</time>
      </trkpt>
      <trkpt lat="42.74783" lon="-0.55485">
        <ele>2057</ele>
        <time>2010-01-01T01:03:45Z</time>
      </trkpt>
      <trkpt lat="42.74787" lon="-0.55475">
        <ele>2057</ele>
        <time>2010-01-01T01:03:49Z</time>
      </trkpt>
      <trkpt lat="42.748" lon="-0.55452">
        <ele>2059</ele>
        <time>2010-01-01T01:03:57Z</time>
      </trkpt>
      <trkpt lat="42.74819" lon="-0.55434">
        <ele>2064</ele>
        <time>2010-01-01T01:04:06Z</time>
      </trkpt>
      <trkpt lat="42.74826" lon="-0.55422">
        <ele>2066</ele>
        <time>2010-01-01T01:04:11Z</time>
      </trkpt>
      <trkpt lat="42.74835" lon="-0.55412">
        <ele>2068</ele>
        <time>2010-01-01T01:04:15Z</time>
      </trkpt>
      <trkpt lat="42.74843" lon="-0.55397">
        <ele>2072</ele>
        <time>2010-01-01T01:04:21Z</time>
      </trkpt>
      <trkpt lat="42.74845" lon="-0.55392">
        <ele>2073</ele>
        <time>2010-01-01T01:04:23Z</time>
      </trkpt>
      <trkpt lat="42.74846" lon="-0.55374">
        <ele>2072</ele>
        <time>2010-01-01T01:04:28Z</time>
      </trkpt>
      <trkpt lat="42.74847" lon="-0.55372">
        <ele>2073</ele>
        <time>2010-01-01T01:04:29Z</time>
      </trkpt>
      <trkpt lat="42.74852" lon="-0.55375">
        <ele>2075</ele>
        <time>2010-01-01T01:04:31Z</time>
      </trkpt>
      <trkpt lat="42.74858" lon="-0.55372">
        <ele>2077</ele>
        <time>2010-01-01T01:04:33Z</time>
      </trkpt>
      <trkpt lat="42.74861" lon="-0.55375">
        <ele>2078</ele>
        <time>2010-01-01T01:04:35Z</time>
      </trkpt>
      <trkpt lat="42.74864" lon="-0.55372">
        <ele>2079</ele>
        <time>2010-01-01T01:04:37Z</time>
      </trkpt>
      <trkpt lat="42.74887" lon="-0.55362">
        <ele>2091</ele>
        <time>2010-01-01T01:04:46Z</time>
      </trkpt>
      <trkpt lat="42.7489" lon="-0.55369">
        <ele>2093</ele>
        <time>2010-01-01T01:04:48Z</time>
      </trkpt>
      <trkpt lat="42.74892" lon="-0.5537">
        <ele>2094</ele>
        <time>2010-01-01T01:04:49Z</time>
      </trkpt>
      <trkpt lat="42.74896" lon="-0.55368">
        <ele>2096</ele>
        <time>2010-01-01T01:04:51Z</time>
      </trkpt>
      <trkpt lat="42.74897" lon="-0.55371">
        <ele>2098</ele>
        <time>2010-01-01T01:04:52Z</time>
      </trkpt>
      <trkpt lat="42.74909" lon="-0.55361">
        <ele>2105</ele>
        <time>2010-01-01T01:04:57Z</time>
      </trkpt>
      <trkpt lat="42.74913" lon="-0.55361">
        <ele>2107</ele>
        <time>2010-01-01T01:04:59Z</time>
      </trkpt>
      <trkpt lat="42.74917" lon="-0.55359">
        <ele>2110</ele>
        <time>2010-01-01T01:05:01Z</time>
      </trkpt>
      <trkpt lat="42.74919" lon="-0.55361">
        <ele>2112</ele>
        <time>2010-01-01T01:05:02Z</time>
      </trkpt>
      <trkpt lat="42.74923" lon="-0.55358">
        <ele>2116</ele>
        <time>2010-01-01T01:05:04Z</time>
      </trkpt>
      <trkpt lat="42.74929" lon="-0.55375">
        <ele>2126</ele>
        <time>2010-01-01T01:05:09Z</time>
      </trkpt>
      <trkpt lat="42.74931" lon="-0.55375">
        <ele>2128</ele>
        <time>2010-01-01T01:05:10Z</time>
      </trkpt>
      <trkpt lat="42.74935" lon="-0.55371">
        <ele>2131</ele>
        <time>2010-01-01T01:05:12Z</time>
      </trkpt>
      <trkpt lat="42.7494" lon="-0.55359">
        <ele>2133</ele>
        <time>2010-01-01T01:05:16Z</time>
      </trkpt>
      <trkpt lat="42.74943" lon="-0.55356">
        <ele>2135</ele>
        <time>2010-01-01T01:05:18Z</time>
      </trkpt>
      <trkpt lat="42.74947" lon="-0.55342">
        <ele>2137</ele>
        <time>2010-01-01T01:05:22Z</time>
      </trkpt>
      <trkpt lat="42.74955" lon="-0.55327">
        <ele>2141</ele>
        <time>2010-01-01T01:05:27Z</time>
      </trkpt>
      <trkpt lat="42.74955" lon="-0.55323">
        <ele>2141</ele>
        <time>2010-01-01T01:05:29Z</time>
      </trkpt>
      <trkpt lat="42.74956" lon="-0.55321">
        <ele>2142</ele>
        <time>2010-01-01T01:05:29Z</time>
      </trkpt>
      <trkpt lat="42.74959" lon="-0.55322">
        <ele>2144</ele>
        <time>2010-01-01T01:05:30Z</time>
      </trkpt>
      <trkpt lat="42.7496" lon="-0.55314">
        <ele>2144</ele>
        <time>2010-01-01T01:05:33Z</time>
      </trkpt>
      <trkpt lat="42.74963" lon="-0.55306">
        <ele>2146</ele>
        <time>2010-01-01T01:05:35Z</time>
      </trkpt>
      <trkpt lat="42.74968" lon="-0.55307">
        <ele>2150</ele>
        <time>2010-01-01T01:05:37Z</time>
      </trkpt>
      <trkpt lat="42.7497" lon="-0.55306">
        <ele>2151</ele>
        <time>2010-01-01T01:05:38Z</time>
      </trkpt>
      <trkpt lat="42.74975" lon="-0.55277">
        <ele>2152</ele>
        <time>2010-01-01T01:05:47Z</time>
      </trkpt>
      <trkpt lat="42.74977" lon="-0.55278">
        <ele>2154</ele>
        <time>2010-01-01T01:05:48Z</time>
      </trkpt>
      <trkpt lat="42.74983" lon="-0.55288">
        <ele>2159</ele>
        <time>2010-01-01T01:05:51Z</time>
      </trkpt>
      <trkpt lat="42.74988" lon="-0.55285">
        <ele>2161</ele>
        <time>2010-01-01T01:05:54Z</time>
      </trkpt>
      <trkpt lat="42.74989" lon="-0.55287">
        <ele>2163</ele>
        <time>2010-01-01T01:05:55Z</time>
      </trkpt>
      <trkpt lat="42.74992" lon="-0.55286">
        <ele>2164</ele>
        <time>2010-01-01T01:05:55Z</time>
      </trkpt>
      <trkpt lat="42.74993" lon="-0.55287">
        <ele>2165</ele>
        <time>2010-01-01T01:05:56Z</time>
      </trkpt>
      <trkpt lat="42.74997" lon="-0.55284">
        <ele>2167</ele>
        <time>2010-01-01T01:05:58Z</time>
      </trkpt>
      <trkpt lat="42.74999" lon="-0.55287">
        <ele>2169</ele>
        <time>2010-01-01T01:05:59Z</time>
      </trkpt>
      <trkpt lat="42.75013" lon="-0.55287">
        <ele>2177</ele>
        <time>2010-01-01T01:06:04Z</time>
      </trkpt>
      <trkpt lat="42.75019" lon="-0.55289">
        <ele>2181</ele>
        <time>2010-01-01T01:06:07Z</time>
      </trkpt>
      <trkpt lat="42.75021" lon="-0.55288">
        <ele>2182</ele>
        <time>2010-01-01T01:06:08Z</time>
      </trkpt>
      <trkpt lat="42.75025" lon="-0.5529">
        <ele>2184</ele>
        <time>2010-01-01T01:06:10Z</time>
      </trkpt>
      <trkpt lat="42.75027" lon="-0.5529">
        <ele>2185</ele>
        <time>2010-01-01T01:06:11Z</time>
      </trkpt>
      <trkpt lat="42.75029" lon="-0.55286">
        <ele>2185</ele>
        <time>2010-01-01T01:06:12Z</time>
      </trkpt>
      <trkpt lat="42.75033" lon="-0.55287">
        <ele>2187</ele>
        <time>2010-01-01T01:06:14Z</time>
      </trkpt>
      <trkpt lat="42.75035" lon="-0.55284">
        <ele>2188</ele>
        <time>2010-01-01T01:06:15Z</time>
      </trkpt>
      <trkpt lat="42.75039" lon="-0.55286">
        <ele>2190</ele>
        <time>2010-01-01T01:06:16Z</time>
      </trkpt>
      <trkpt lat="42.75041" lon="-0.55285">
        <ele>2191</ele>
        <time>2010-01-01T01:06:17Z</time>
      </trkpt>
      <trkpt lat="42.75042" lon="-0.55283">
        <ele>2191</ele>
        <time>2010-01-01T01:06:18Z</time>
      </trkpt>
      <trkpt lat="42.75054" lon="-0.55287">
        <ele>2197</ele>
        <time>2010-01-01T01:06:23Z</time>
      </trkpt>
      <trkpt lat="42.75055" lon="-0.55285">
        <ele>2197</ele>
        <time>2010-01-01T01:06:24Z</time>
      </trkpt>
      <trkpt lat="42.75059" lon="-0.55283">
        <ele>2199</ele>
        <time>2010-01-01T01:06:26Z</time>
      </trkpt>
      <trkpt lat="42.75065" lon="-0.55276">
        <ele>2201</ele>
        <time>2010-01-01T01:06:29Z</time>
      </trkpt>
      <trkpt lat="42.75068" lon="-0.55268">
        <ele>2201</ele>
        <time>2010-01-01T01:06:31Z</time>
      </trkpt>
      <trkpt lat="42.75073" lon="-0.55265">
        <ele>2204</ele>
        <time>2010-01-01T01:06:34Z</time>
      </trkpt>
      <trkpt lat="42.75079" lon="-0.55272">
        <ele>2208</ele>
        <time>2010-01-01T01:06:37Z</time>
      </trkpt>
      <trkpt lat="42.75081" lon="-0.5527">
        <ele>2209</ele>
        <time>2010-01-01T01:06:38Z</time>
      </trkpt>
      <trkpt lat="42.75082" lon="-0.55271">
        <ele>2210</ele>
        <time>2010-01-01T01:06:38Z</time>
      </trkpt>
      <trkpt lat="42.75089" lon="-0.55279">
        <ele>2215</ele>
        <time>2010-01-01T01:06:42Z</time>
      </trkpt>
      <trkpt lat="42.75094" lon="-0.55281">
        <ele>2218</ele>
        <time>2010-01-01T01:06:44Z</time>
      </trkpt>
      <trkpt lat="42.75106" lon="-0.55282">
        <ele>2224</ele>
        <time>2010-01-01T01:06:49Z</time>
      </trkpt>
      <trkpt lat="42.7511" lon="-0.5528">
        <ele>2226</ele>
        <time>2010-01-01T01:06:50Z</time>
      </trkpt>
      <trkpt lat="42.75113" lon="-0.55275">
        <ele>2227</ele>
        <time>2010-01-01T01:06:52Z</time>
      </trkpt>
      <trkpt lat="42.75119" lon="-0.55272">
        <ele>2229</ele>
        <time>2010-01-01T01:06:55Z</time>
      </trkpt>
      <trkpt lat="42.7512" lon="-0.55273">
        <ele>2229</ele>
        <time>2010-01-01T01:06:55Z</time>
      </trkpt>
      <trkpt lat="42.75121" lon="-0.55277">
        <ele>2230</ele>
        <time>2010-01-01T01:06:57Z</time>
      </trkpt>
      <trkpt lat="42.75128" lon="-0.55273">
        <ele>2232</ele>
        <time>2010-01-01T01:07:00Z</time>
      </trkpt>
      <trkpt lat="42.7513" lon="-0.55274">
        <ele>2233</ele>
        <time>2010-01-01T01:07:00Z</time>
      </trkpt>
      <trkpt lat="42.75136" lon="-0.55287">
        <ele>2237</ele>
        <time>2010-01-01T01:07:05Z</time>
      </trkpt>
      <trkpt lat="42.75139" lon="-0.55288">
        <ele>2238</ele>
        <time>2010-01-01T01:07:06Z</time>
      </trkpt>
      <trkpt lat="42.75143" lon="-0.55285">
        <ele>2240</ele>
        <time>2010-01-01T01:07:08Z</time>
      </trkpt>
      <trkpt lat="42.75149" lon="-0.55299">
        <ele>2247</ele>
        <time>2010-01-01T01:07:13Z</time>
      </trkpt>
      <trkpt lat="42.75152" lon="-0.55299">
        <ele>2248</ele>
        <time>2010-01-01T01:07:14Z</time>
      </trkpt>
      <trkpt lat="42.75154" lon="-0.55307">
        <ele>2251</ele>
        <time>2010-01-01T01:07:16Z</time>
      </trkpt>
      <trkpt lat="42.75159" lon="-0.55309">
        <ele>2254</ele>
        <time>2010-01-01T01:07:18Z</time>
      </trkpt>
      <trkpt lat="42.75163" lon="-0.55305">
        <ele>2256</ele>
        <time>2010-01-01T01:07:20Z</time>
      </trkpt>
      <trkpt lat="42.75167" lon="-0.55304">
        <ele>2258</ele>
        <time>2010-01-01T01:07:22Z</time>
      </trkpt>
      <trkpt lat="42.7517" lon="-0.55298">
        <ele>2259</ele>
        <time>2010-01-01T01:07:24Z</time>
      </trkpt>
      <trkpt lat="42.75172" lon="-0.55301">
        <ele>2260</ele>
        <time>2010-01-01T01:07:25Z</time>
      </trkpt>
      <trkpt lat="42.75174" lon="-0.55301">
        <ele>2261</ele>
        <time>2010-01-01T01:07:26Z</time>
      </trkpt>
      <trkpt lat="42.75177" lon="-0.553">
        <ele>2262</ele>
        <time>2010-01-01T01:07:27Z</time>
      </trkpt>
      <trkpt lat="42.75179" lon="-0.55303">
        <ele>2263</ele>
        <time>2010-01-01T01:07:28Z</time>
      </trkpt>
      <trkpt lat="42.75187" lon="-0.55305">
        <ele>2267</ele>
        <time>2010-01-01T01:07:31Z</time>
      </trkpt>
      <trkpt lat="42.75192" lon="-0.5531">
        <ele>2271</ele>
        <time>2010-01-01T01:07:34Z</time>
      </trkpt>
      <trkpt lat="42.75196" lon="-0.55317">
        <ele>2275</ele>
        <time>2010-01-01T01:07:37Z</time>
      </trkpt>
      <trkpt lat="42.752" lon="-0.55319">
        <ele>2278</ele>
        <time>2010-01-01T01:07:38Z</time>
      </trkpt>
      <trkpt lat="42.75201" lon="-0.55326">
        <ele>2280</ele>
        <time>2010-01-01T01:07:40Z</time>
      </trkpt>
      <trkpt lat="42.75204" lon="-0.55326">
        <ele>2282</ele>
        <time>2010-01-01T01:07:42Z</time>
      </trkpt>
      <trkpt lat="42.75205" lon="-0.5533">
        <ele>2284</ele>
        <time>2010-01-01T01:07:43Z</time>
      </trkpt>
      <trkpt lat="42.75202" lon="-0.55344">
        <ele>2286</ele>
        <time>2010-01-01T01:07:47Z</time>
      </trkpt>
      <trkpt lat="42.75205" lon="-0.55347">
        <ele>2288</ele>
        <time>2010-01-01T01:07:49Z</time>
      </trkpt>
      <trkpt lat="42.75212" lon="-0.55349">
        <ele>2292</ele>
        <time>2010-01-01T01:07:51Z</time>
      </trkpt>
      <trkpt lat="42.75236" lon="-0.55347">
        <ele>2301</ele>
        <time>2010-01-01T01:08:01Z</time>
      </trkpt>
      <trkpt lat="42.7524" lon="-0.55349">
        <ele>2303</ele>
        <time>2010-01-01T01:08:03Z</time>
      </trkpt>
      <trkpt lat="42.7525" lon="-0.55349">
        <ele>2306</ele>
        <time>2010-01-01T01:08:07Z</time>
      </trkpt>
      <trkpt lat="42.75252" lon="-0.5535">
        <ele>2306</ele>
        <time>2010-01-01T01:08:08Z</time>
      </trkpt>
      <trkpt lat="42.75252" lon="-0.55358">
        <ele>2308</ele>
        <time>2010-01-01T01:08:10Z</time>
      </trkpt>
      <trkpt lat="42.75254" lon="-0.55361">
        <ele>2309</ele>
        <time>2010-01-01T01:08:11Z</time>
      </trkpt>
      <trkpt lat="42.75259" lon="-0.5536">
        <ele>2311</ele>
        <time>2010-01-01T01:08:13Z</time>
      </trkpt>
      <trkpt lat="42.75267" lon="-0.55364">
        <ele>2313</ele>
        <time>2010-01-01T01:08:17Z</time>
      </trkpt>
      <trkpt lat="42.7527" lon="-0.55362">
        <ele>2314</ele>
        <time>2010-01-01T01:08:18Z</time>
      </trkpt>
      <trkpt lat="42.75275" lon="-0.55363">
        <ele>2315</ele>
        <time>2010-01-01T01:08:20Z</time>
      </trkpt>
      <trkpt lat="42.75278" lon="-0.55359">
        <ele>2315</ele>
        <time>2010-01-01T01:08:22Z</time>
      </trkpt>
      <trkpt lat="42.75288" lon="-0.55362">
        <ele>2321</ele>
        <time>2010-01-01T01:08:26Z</time>
      </trkpt>
      <trkpt lat="42.75289" lon="-0.55369">
        <ele>2323</ele>
        <time>2010-01-01T01:08:28Z</time>
      </trkpt>
      <trkpt lat="42.75292" lon="-0.55372">
        <ele>2325</ele>
        <time>2010-01-01T01:08:29Z</time>
      </trkpt>
      <trkpt lat="42.75301" lon="-0.55371">
        <ele>2329</ele>
        <time>2010-01-01T01:08:33Z</time>
      </trkpt>
      <trkpt lat="42.75316" lon="-0.55379">
        <ele>2338</ele>
        <time>2010-01-01T01:08:40Z</time>
      </trkpt>
      <trkpt lat="42.75318" lon="-0.55379">
        <ele>2339</ele>
        <time>2010-01-01T01:08:40Z</time>
      </trkpt>
      <trkpt lat="42.75323" lon="-0.55384">
        <ele>2342</ele>
        <time>2010-01-01T01:08:43Z</time>
      </trkpt>
      <trkpt lat="42.75325" lon="-0.5539">
        <ele>2344</ele>
        <time>2010-01-01T01:08:45Z</time>
      </trkpt>
      <trkpt lat="42.75331" lon="-0.55393">
        <ele>2347</ele>
        <time>2010-01-01T01:08:47Z</time>
      </trkpt>
      <trkpt lat="42.75333" lon="-0.55397">
        <ele>2349</ele>
        <time>2010-01-01T01:08:48Z</time>
      </trkpt>
      <trkpt lat="42.75335" lon="-0.55397">
        <ele>2351</ele>
        <time>2010-01-01T01:08:49Z</time>
      </trkpt>
      <trkpt lat="42.75337" lon="-0.55396">
        <ele>2352</ele>
        <time>2010-01-01T01:08:50Z</time>
      </trkpt>
      <trkpt lat="42.7534" lon="-0.554">
        <ele>2354</ele>
        <time>2010-01-01T01:08:52Z</time>
      </trkpt>
      <trkpt lat="42.75345" lon="-0.55403">
        <ele>2358</ele>
        <time>2010-01-01T01:08:54Z</time>
      </trkpt>
      <trkpt lat="42.7535" lon="-0.55404">
        <ele>2360</ele>
        <time>2010-01-01T01:08:56Z</time>
      </trkpt>
      <trkpt lat="42.75358" lon="-0.55401">
        <ele>2365</ele>
        <time>2010-01-01T01:08:59Z</time>
      </trkpt>
      <trkpt lat="42.75361" lon="-0.55404">
        <ele>2367</ele>
        <time>2010-01-01T01:09:01Z</time>
      </trkpt>
      <trkpt lat="42.75365" lon="-0.55404">
        <ele>2369</ele>
        <time>2010-01-01T01:09:02Z</time>
      </trkpt>
      <trkpt lat="42.75363" lon="-0.55412">
        <ele>2370</ele>
        <time>2010-01-01T01:09:05Z</time>
      </trkpt>
      <trkpt lat="42.75364" lon="-0.55417">
        <ele>2371</ele>
        <time>2010-01-01T01:09:06Z</time>
      </trkpt>
      <trkpt lat="42.75369" lon="-0.55416">
        <ele>2373</ele>
        <time>2010-01-01T01:09:08Z</time>
      </trkpt>
      <trkpt lat="42.7537" lon="-0.55417">
        <ele>2374</ele>
        <time>2010-01-01T01:09:09Z</time>
      </trkpt>
      <trkpt lat="42.75372" lon="-0.55415">
        <ele>2374</ele>
        <time>2010-01-01T01:09:10Z</time>
      </trkpt>
      <trkpt lat="42.75377" lon="-0.55418">
        <ele>2377</ele>
        <time>2010-01-01T01:09:12Z</time>
      </trkpt>
      <trkpt lat="42.75379" lon="-0.55417">
        <ele>2378</ele>
        <time>2010-01-01T01:09:13Z</time>
      </trkpt>
      <trkpt lat="42.75381" lon="-0.55423">
        <ele>2379</ele>
        <time>2010-01-01T01:09:14Z</time>
      </trkpt>
      <trkpt lat="42.75385" lon="-0.5542">
        <ele>2381</ele>
        <time>2010-01-01T01:09:16Z</time>
      </trkpt>
      <trkpt lat="42.75388" lon="-0.55426">
        <ele>2382</ele>
        <time>2010-01-01T01:09:18Z</time>
      </trkpt>
      <trkpt lat="42.75391" lon="-0.55427">
        <ele>2383</ele>
        <time>2010-01-01T01:09:20Z</time>
      </trkpt>
      <trkpt lat="42.75394" lon="-0.55424">
        <ele>2385</ele>
        <time>2010-01-01T01:09:21Z</time>
      </trkpt>
      <trkpt lat="42.75396" lon="-0.55427">
        <ele>2385</ele>
        <time>2010-01-01T01:09:22Z</time>
      </trkpt>
      <trkpt lat="42.75398" lon="-0.55426">
        <ele>2386</ele>
        <time>2010-01-01T01:09:23Z</time>
      </trkpt>
      <trkpt lat="42.75399" lon="-0.55427">
        <ele>2386</ele>
        <time>2010-01-01T01:09:23Z</time>
      </trkpt>
      <trkpt lat="42.75402" lon="-0.55425">
        <ele>2388</ele>
        <time>2010-01-01T01:09:25Z</time>
      </trkpt>
      <trkpt lat="42.75405" lon="-0.5543">
        <ele>2389</ele>
        <time>2010-01-01T01:09:27Z</time>
      </trkpt>
      <trkpt lat="42.75406" lon="-0.55438">
        <ele>2389</ele>
        <time>2010-01-01T01:09:29Z</time>
      </trkpt>
      <trkpt lat="42.75408" lon="-0.55437">
        <ele>2390</ele>
        <time>2010-01-01T01:09:30Z</time>
      </trkpt>
      <trkpt lat="42.75412" lon="-0.55442">
        <ele>2391</ele>
        <time>2010-01-01T01:09:32Z</time>
      </trkpt>
      <trkpt lat="42.75416" lon="-0.55444">
        <ele>2392</ele>
        <time>2010-01-01T01:09:34Z</time>
      </trkpt>
      <trkpt lat="42.75418" lon="-0.5545">
        <ele>2389</ele>
        <time>2010-01-01T01:09:36Z</time>
      </trkpt>
      <trkpt lat="42.75417" lon="-0.55448">
        <ele>2390</ele>
        <time>2010-01-01T01:09:36Z</time>
      </trkpt>
      <trkpt lat="42.75419" lon="-0.55449">
        <ele>2390</ele>
        <time>2010-01-01T01:09:37Z</time>
      </trkpt>
      <trkpt lat="42.75426" lon="-0.55445">
        <ele>2395</ele>
        <time>2010-01-01T01:09:40Z</time>
      </trkpt>
      <trkpt lat="42.75425" lon="-0.55464">
        <ele>2383</ele>
        <time>2010-01-01T01:09:45Z</time>
      </trkpt>
      <trkpt lat="42.75423" lon="-0.5547">
        <ele>2379</ele>
        <time>2010-01-01T01:09:47Z</time>
      </trkpt>
      <trkpt lat="42.75414" lon="-0.55485">
        <ele>2370</ele>
        <time>2010-01-01T01:09:53Z</time>
      </trkpt>
      <trkpt lat="42.75404" lon="-0.55494">
        <ele>2367</ele>
        <time>2010-01-01T01:09:58Z</time>
      </trkpt>
      <trkpt lat="42.75395" lon="-0.55498">
        <ele>2366</ele>
        <time>2010-01-01T01:10:02Z</time>
      </trkpt>
      <trkpt lat="42.75386" lon="-0.55505">
        <ele>2364</ele>
        <time>2010-01-01T01:10:06Z</time>
      </trkpt>
      <trkpt lat="42.75382" lon="-0.55512">
        <ele>2362</ele>
        <time>2010-01-01T01:10:08Z</time>
      </trkpt>
      <trkpt lat="42.75383" lon="-0.55514">
        <ele>2360</ele>
        <time>2010-01-01T01:10:09Z</time>
      </trkpt>
      <trkpt lat="42.75383" lon="-0.55516">
        <ele>2360</ele>
        <time>2010-01-01T01:10:10Z</time>
      </trkpt>
      <trkpt lat="42.75376" lon="-0.55525">
        <ele>2357</ele>
        <time>2010-01-01T01:10:14Z</time>
      </trkpt>
      <trkpt lat="42.75371" lon="-0.55536">
        <ele>2353</ele>
        <time>2010-01-01T01:10:18Z</time>
      </trkpt>
      <trkpt lat="42.75372" lon="-0.55537">
        <ele>2353</ele>
        <time>2010-01-01T01:10:18Z</time>
      </trkpt>
      <trkpt lat="42.75369" lon="-0.55546">
        <ele>2349</ele>
        <time>2010-01-01T01:10:21Z</time>
      </trkpt>
      <trkpt lat="42.7537" lon="-0.55556">
        <ele>2345</ele>
        <time>2010-01-01T01:10:24Z</time>
      </trkpt>
      <trkpt lat="42.75369" lon="-0.55559">
        <ele>2343</ele>
        <time>2010-01-01T01:10:25Z</time>
      </trkpt>
      <trkpt lat="42.7537" lon="-0.5557">
        <ele>2338</ele>
        <time>2010-01-01T01:10:28Z</time>
      </trkpt>
      <trkpt lat="42.75374" lon="-0.55577">
        <ele>2334</ele>
        <time>2010-01-01T01:10:31Z</time>
      </trkpt>
      <trkpt lat="42.75382" lon="-0.55579">
        <ele>2331</ele>
        <time>2010-01-01T01:10:34Z</time>
      </trkpt>
      <trkpt lat="42.75383" lon="-0.55588">
        <ele>2327</ele>
        <time>2010-01-01T01:10:37Z</time>
      </trkpt>
      <trkpt lat="42.75388" lon="-0.5559">
        <ele>2325</ele>
        <time>2010-01-01T01:10:39Z</time>
      </trkpt>
      <trkpt lat="42.75397" lon="-0.55601">
        <ele>2319</ele>
        <time>2010-01-01T01:10:44Z</time>
      </trkpt>
      <trkpt lat="42.75405" lon="-0.55605">
        <ele>2316</ele>
        <time>2010-01-01T01:10:47Z</time>
      </trkpt>
      <trkpt lat="42.75411" lon="-0.55616">
        <ele>2310</ele>
        <time>2010-01-01T01:10:51Z</time>
      </trkpt>
      <trkpt lat="42.75408" lon="-0.55619">
        <ele>2310</ele>
        <time>2010-01-01T01:10:52Z</time>
      </trkpt>
      <trkpt lat="42.75412" lon="-0.55622">
        <ele>2308</ele>
        <time>2010-01-01T01:10:54Z</time>
      </trkpt>
      <trkpt lat="42.75409" lon="-0.5563">
        <ele>2306</ele>
        <time>2010-01-01T01:10:57Z</time>
      </trkpt>
      <trkpt lat="42.75414" lon="-0.55637">
        <ele>2303</ele>
        <time>2010-01-01T01:10:59Z</time>
      </trkpt>
      <trkpt lat="42.75414" lon="-0.55646">
        <ele>2300</ele>
        <time>2010-01-01T01:11:02Z</time>
      </trkpt>
      <trkpt lat="42.75418" lon="-0.55653">
        <ele>2297</ele>
        <time>2010-01-01T01:11:05Z</time>
      </trkpt>
      <trkpt lat="42.75421" lon="-0.55663">
        <ele>2294</ele>
        <time>2010-01-01T01:11:08Z</time>
      </trkpt>
      <trkpt lat="42.75413" lon="-0.55693">
        <ele>2283</ele>
        <time>2010-01-01T01:11:17Z</time>
      </trkpt>
      <trkpt lat="42.75418" lon="-0.557">
        <ele>2281</ele>
        <time>2010-01-01T01:11:20Z</time>
      </trkpt>
      <trkpt lat="42.7542" lon="-0.55709">
        <ele>2278</ele>
        <time>2010-01-01T01:11:23Z</time>
      </trkpt>
      <trkpt lat="42.75413" lon="-0.55715">
        <ele>2276</ele>
        <time>2010-01-01T01:11:26Z</time>
      </trkpt>
      <trkpt lat="42.7541" lon="-0.55722">
        <ele>2274</ele>
        <time>2010-01-01T01:11:28Z</time>
      </trkpt>
      <trkpt lat="42.7541" lon="-0.5573">
        <ele>2272</ele>
        <time>2010-01-01T01:11:31Z</time>
      </trkpt>
      <trkpt lat="42.75408" lon="-0.5573">
        <ele>2272</ele>
        <time>2010-01-01T01:11:31Z</time>
      </trkpt>
      <trkpt lat="42.75409" lon="-0.55737">
        <ele>2271</ele>
        <time>2010-01-01T01:11:33Z</time>
      </trkpt>
      <trkpt lat="42.75404" lon="-0.55754">
        <ele>2267</ele>
        <time>2010-01-01T01:11:39Z</time>
      </trkpt>
      <trkpt lat="42.75406" lon="-0.55761">
        <ele>2266</ele>
        <time>2010-01-01T01:11:41Z</time>
      </trkpt>
      <trkpt lat="42.75417" lon="-0.55773">
        <ele>2262</ele>
        <time>2010-01-01T01:11:46Z</time>
      </trkpt>
      <trkpt lat="42.75413" lon="-0.55786">
        <ele>2260</ele>
        <time>2010-01-01T01:11:50Z</time>
      </trkpt>
      <trkpt lat="42.75428" lon="-0.55812">
        <ele>2254</ele>
        <time>2010-01-01T01:12:00Z</time>
      </trkpt>
      <trkpt lat="42.7543" lon="-0.55819">
        <ele>2253</ele>
        <time>2010-01-01T01:12:02Z</time>
      </trkpt>
      <trkpt lat="42.75429" lon="-0.55828">
        <ele>2252</ele>
        <time>2010-01-01T01:12:05Z</time>
      </trkpt>
      <trkpt lat="42.75425" lon="-0.55835">
        <ele>2251</ele>
        <time>2010-01-01T01:12:07Z</time>
      </trkpt>
      <trkpt lat="42.75421" lon="-0.55837">
        <ele>2251</ele>
        <time>2010-01-01T01:12:09Z</time>
      </trkpt>
      <trkpt lat="42.75418" lon="-0.55844">
        <ele>2250</ele>
        <time>2010-01-01T01:12:12Z</time>
      </trkpt>
      <trkpt lat="42.75417" lon="-0.55855">
        <ele>2248</ele>
        <time>2010-01-01T01:12:15Z</time>
      </trkpt>
      <trkpt lat="42.75419" lon="-0.55862">
        <ele>2247</ele>
        <time>2010-01-01T01:12:17Z</time>
      </trkpt>
      <trkpt lat="42.75417" lon="-0.55859">
        <ele>2248</ele>
        <time>2010-01-01T01:12:18Z</time>
      </trkpt>
      <trkpt lat="42.75413" lon="-0.55869">
        <ele>2246</ele>
        <time>2010-01-01T01:12:21Z</time>
      </trkpt>
      <trkpt lat="42.75415" lon="-0.55882">
        <ele>2244</ele>
        <time>2010-01-01T01:12:25Z</time>
      </trkpt>
      <trkpt lat="42.75411" lon="-0.55899">
        <ele>2241</ele>
        <time>2010-01-01T01:12:30Z</time>
      </trkpt>
      <trkpt lat="42.75409" lon="-0.559">
        <ele>2240</ele>
        <time>2010-01-01T01:12:31Z</time>
      </trkpt>
      <trkpt lat="42.75408" lon="-0.55905">
        <ele>2239</ele>
        <time>2010-01-01T01:12:33Z</time>
      </trkpt>
      <trkpt lat="42.75414" lon="-0.55918">
        <ele>2237</ele>
        <time>2010-01-01T01:12:37Z</time>
      </trkpt>
      <trkpt lat="42.75411" lon="-0.55927">
        <ele>2235</ele>
        <time>2010-01-01T01:12:40Z</time>
      </trkpt>
      <trkpt lat="42.7541" lon="-0.55944">
        <ele>2232</ele>
        <time>2010-01-01T01:12:45Z</time>
      </trkpt>
      <trkpt lat="42.75409" lon="-0.55947">
        <ele>2231</ele>
        <time>2010-01-01T01:12:46Z</time>
      </trkpt>
      <trkpt lat="42.75414" lon="-0.55957">
        <ele>2229</ele>
        <time>2010-01-01T01:12:50Z</time>
      </trkpt>
      <trkpt lat="42.7541" lon="-0.55964">
        <ele>2228</ele>
        <time>2010-01-01T01:12:52Z</time>
      </trkpt>
      <trkpt lat="42.75404" lon="-0.55969">
        <ele>2226</ele>
        <time>2010-01-01T01:12:55Z</time>
      </trkpt>
      <trkpt lat="42.75402" lon="-0.55974">
        <ele>2224</ele>
        <time>2010-01-01T01:12:57Z</time>
      </trkpt>
      <trkpt lat="42.75401" lon="-0.55983">
        <ele>2221</ele>
        <time>2010-01-01T01:12:59Z</time>
      </trkpt>
      <trkpt lat="42.75384" lon="-0.56011">
        <ele>2211</ele>
        <time>2010-01-01T01:13:10Z</time>
      </trkpt>
      <trkpt lat="42.7538" lon="-0.56036">
        <ele>2202</ele>
        <time>2010-01-01T01:13:18Z</time>
      </trkpt>
      <trkpt lat="42.75374" lon="-0.56042">
        <ele>2201</ele>
        <time>2010-01-01T01:13:21Z</time>
      </trkpt>
      <trkpt lat="42.7537" lon="-0.56049">
        <ele>2199</ele>
        <time>2010-01-01T01:13:23Z</time>
      </trkpt>
      <trkpt lat="42.75356" lon="-0.56087">
        <ele>2189</ele>
        <time>2010-01-01T01:13:36Z</time>
      </trkpt>
      <trkpt lat="42.75348" lon="-0.56119">
        <ele>2177</ele>
        <time>2010-01-01T01:13:46Z</time>
      </trkpt>
      <trkpt lat="42.75348" lon="-0.56127">
        <ele>2174</ele>
        <time>2010-01-01T01:13:48Z</time>
      </trkpt>
      <trkpt lat="42.75339" lon="-0.56136">
        <ele>2169</ele>
        <time>2010-01-01T01:13:53Z</time>
      </trkpt>
      <trkpt lat="42.75338" lon="-0.56146">
        <ele>2165</ele>
        <time>2010-01-01T01:13:56Z</time>
      </trkpt>
      <trkpt lat="42.75321" lon="-0.56155">
        <ele>2160</ele>
        <time>2010-01-01T01:14:03Z</time>
      </trkpt>
      <trkpt lat="42.75311" lon="-0.56163">
        <ele>2155</ele>
        <time>2010-01-01T01:14:07Z</time>
      </trkpt>
      <trkpt lat="42.75306" lon="-0.56163">
        <ele>2154</ele>
        <time>2010-01-01T01:14:09Z</time>
      </trkpt>
      <trkpt lat="42.75302" lon="-0.56166">
        <ele>2153</ele>
        <time>2010-01-01T01:14:11Z</time>
      </trkpt>
      <trkpt lat="42.75298" lon="-0.56171">
        <ele>2150</ele>
        <time>2010-01-01T01:14:13Z</time>
      </trkpt>
      <trkpt lat="42.75284" lon="-0.56175">
        <ele>2147</ele>
        <time>2010-01-01T01:14:19Z</time>
      </trkpt>
      <trkpt lat="42.75277" lon="-0.56177">
        <ele>2146</ele>
        <time>2010-01-01T01:14:22Z</time>
      </trkpt>
      <trkpt lat="42.75271" lon="-0.56176">
        <ele>2146</ele>
        <time>2010-01-01T01:14:24Z</time>
      </trkpt>
      <trkpt lat="42.75264" lon="-0.56181">
        <ele>2142</ele>
        <time>2010-01-01T01:14:28Z</time>
      </trkpt>
      <trkpt lat="42.75265" lon="-0.56189">
        <ele>2138</ele>
        <time>2010-01-01T01:14:30Z</time>
      </trkpt>
      <trkpt lat="42.75263" lon="-0.56196">
        <ele>2134</ele>
        <time>2010-01-01T01:14:32Z</time>
      </trkpt>
      <trkpt lat="42.75258" lon="-0.56195">
        <ele>2134</ele>
        <time>2010-01-01T01:14:34Z</time>
      </trkpt>
      <trkpt lat="42.75256" lon="-0.56206">
        <ele>2131</ele>
        <time>2010-01-01T01:14:37Z</time>
      </trkpt>
      <trkpt lat="42.75251" lon="-0.56204">
        <ele>2131</ele>
        <time>2010-01-01T01:14:39Z</time>
      </trkpt>
      <trkpt lat="42.7525" lon="-0.56216">
        <ele>2129</ele>
        <time>2010-01-01T01:14:42Z</time>
      </trkpt>
      <trkpt lat="42.75243" lon="-0.56226">
        <ele>2124</ele>
        <time>2010-01-01T01:14:47Z</time>
      </trkpt>
      <trkpt lat="42.75236" lon="-0.5623">
        <ele>2120</ele>
        <time>2010-01-01T01:14:50Z</time>
      </trkpt>
      <trkpt lat="42.75227" lon="-0.56239">
        <ele>2113</ele>
        <time>2010-01-01T01:14:54Z</time>
      </trkpt>
      <trkpt lat="42.75227" lon="-0.56252">
        <ele>2106</ele>
        <time>2010-01-01T01:14:58Z</time>
      </trkpt>
      <trkpt lat="42.75216" lon="-0.56259">
        <ele>2098</ele>
        <time>2010-01-01T01:15:02Z</time>
      </trkpt>
      <trkpt lat="42.75209" lon="-0.56309">
        <ele>2076</ele>
        <time>2010-01-01T01:15:18Z</time>
      </trkpt>
      <trkpt lat="42.75211" lon="-0.56322">
        <ele>2070</ele>
        <time>2010-01-01T01:15:22Z</time>
      </trkpt>
      <trkpt lat="42.75209" lon="-0.56324">
        <ele>2068</ele>
        <time>2010-01-01T01:15:23Z</time>
      </trkpt>
      <trkpt lat="42.75208" lon="-0.56328">
        <ele>2066</ele>
        <time>2010-01-01T01:15:24Z</time>
      </trkpt>
      <trkpt lat="42.75204" lon="-0.56335">
        <ele>2061</ele>
        <time>2010-01-01T01:15:26Z</time>
      </trkpt>
      <trkpt lat="42.75196" lon="-0.56338">
        <ele>2056</ele>
        <time>2010-01-01T01:15:30Z</time>
      </trkpt>
      <trkpt lat="42.75194" lon="-0.5634">
        <ele>2054</ele>
        <time>2010-01-01T01:15:31Z</time>
      </trkpt>
      <trkpt lat="42.7519" lon="-0.56339">
        <ele>2055</ele>
        <time>2010-01-01T01:15:32Z</time>
      </trkpt>
      <trkpt lat="42.75194" lon="-0.56353">
        <ele>2048</ele>
        <time>2010-01-01T01:15:36Z</time>
      </trkpt>
      <trkpt lat="42.75195" lon="-0.56355">
        <ele>2047</ele>
        <time>2010-01-01T01:15:37Z</time>
      </trkpt>
      <trkpt lat="42.75195" lon="-0.56361">
        <ele>2044</ele>
        <time>2010-01-01T01:15:39Z</time>
      </trkpt>
      <trkpt lat="42.75191" lon="-0.56362">
        <ele>2044</ele>
        <time>2010-01-01T01:15:41Z</time>
      </trkpt>
      <trkpt lat="42.75194" lon="-0.5637">
        <ele>2045</ele>
        <time>2010-01-01T01:15:43Z</time>
      </trkpt>
      <trkpt lat="42.75195" lon="-0.56384">
        <ele>2049</ele>
        <time>2010-01-01T01:15:48Z</time>
      </trkpt>
      <trkpt lat="42.75188" lon="-0.56384">
        <ele>2045</ele>
        <time>2010-01-01T01:15:50Z</time>
      </trkpt>
      <trkpt lat="42.75176" lon="-0.56389">
        <ele>2036</ele>
        <time>2010-01-01T01:15:55Z</time>
      </trkpt>
      <trkpt lat="42.75174" lon="-0.56387">
        <ele>2035</ele>
        <time>2010-01-01T01:15:56Z</time>
      </trkpt>
      <trkpt lat="42.75172" lon="-0.56389">
        <ele>2033</ele>
        <time>2010-01-01T01:15:57Z</time>
      </trkpt>
      <trkpt lat="42.75171" lon="-0.56388">
        <ele>2033</ele>
        <time>2010-01-01T01:15:58Z</time>
      </trkpt>
      <trkpt lat="42.75168" lon="-0.56388">
        <ele>2031</ele>
        <time>2010-01-01T01:15:59Z</time>
      </trkpt>
      <trkpt lat="42.75156" lon="-0.56398">
        <ele>2023</ele>
        <time>2010-01-01T01:16:05Z</time>
      </trkpt>
      <trkpt lat="42.75141" lon="-0.56404">
        <ele>2017</ele>
        <time>2010-01-01T01:16:11Z</time>
      </trkpt>
      <trkpt lat="42.75134" lon="-0.5641">
        <ele>2013</ele>
        <time>2010-01-01T01:16:14Z</time>
      </trkpt>
      <trkpt lat="42.75136" lon="-0.56425">
        <ele>2008</ele>
        <time>2010-01-01T01:16:18Z</time>
      </trkpt>
      <trkpt lat="42.75143" lon="-0.56443">
        <ele>2003</ele>
        <time>2010-01-01T01:16:24Z</time>
      </trkpt>
      <trkpt lat="42.75143" lon="-0.56448">
        <ele>2002</ele>
        <time>2010-01-01T01:16:26Z</time>
      </trkpt>
      <trkpt lat="42.75141" lon="-0.5645">
        <ele>2001</ele>
        <time>2010-01-01T01:16:27Z</time>
      </trkpt>
      <trkpt lat="42.75143" lon="-0.56456">
        <ele>2000</ele>
        <time>2010-01-01T01:16:29Z</time>
      </trkpt>
      <trkpt lat="42.75142" lon="-0.56474">
        <ele>1995</ele>
        <time>2010-01-01T01:16:34Z</time>
      </trkpt>
      <trkpt lat="42.75144" lon="-0.56478">
        <ele>1994</ele>
        <time>2010-01-01T01:16:36Z</time>
      </trkpt>
      <trkpt lat="42.75144" lon="-0.56485">
        <ele>1991</ele>
        <time>2010-01-01T01:16:38Z</time>
      </trkpt>
      <trkpt lat="42.75141" lon="-0.56505">
        <ele>1983</ele>
        <time>2010-01-01T01:16:44Z</time>
      </trkpt>
      <trkpt lat="42.75143" lon="-0.56515">
        <ele>1981</ele>
        <time>2010-01-01T01:16:47Z</time>
      </trkpt>
      <trkpt lat="42.75139" lon="-0.56525">
        <ele>1977</ele>
        <time>2010-01-01T01:16:50Z</time>
      </trkpt>
      <trkpt lat="42.7514" lon="-0.56533">
        <ele>1976</ele>
        <time>2010-01-01T01:16:52Z</time>
      </trkpt>
      <trkpt lat="42.75143" lon="-0.5654">
        <ele>1974</ele>
        <time>2010-01-01T01:16:55Z</time>
      </trkpt>
      <trkpt lat="42.75148" lon="-0.56544">
        <ele>1974</ele>
        <time>2010-01-01T01:16:57Z</time>
      </trkpt>
      <trkpt lat="42.75147" lon="-0.56551">
        <ele>1972</ele>
        <time>2010-01-01T01:16:59Z</time>
      </trkpt>
      <trkpt lat="42.7515" lon="-0.56559">
        <ele>1970</ele>
        <time>2010-01-01T01:17:02Z</time>
      </trkpt>
      <trkpt lat="42.75145" lon="-0.56577">
        <ele>1967</ele>
        <time>2010-01-01T01:17:08Z</time>
      </trkpt>
      <trkpt lat="42.75144" lon="-0.5659">
        <ele>1963</ele>
        <time>2010-01-01T01:17:11Z</time>
      </trkpt>
      <trkpt lat="42.75148" lon="-0.56607">
        <ele>1955</ele>
        <time>2010-01-01T01:17:17Z</time>
      </trkpt>
      <trkpt lat="42.75148" lon="-0.56617">
        <ele>1951</ele>
        <time>2010-01-01T01:17:20Z</time>
      </trkpt>
      <trkpt lat="42.75153" lon="-0.56625">
        <ele>1949</ele>
        <time>2010-01-01T01:17:23Z</time>
      </trkpt>
      <trkpt lat="42.75155" lon="-0.56634">
        <ele>1946</ele>
        <time>2010-01-01T01:17:25Z</time>
      </trkpt>
      <trkpt lat="42.75157" lon="-0.5666">
        <ele>1937</ele>
        <time>2010-01-01T01:17:33Z</time>
      </trkpt>
      <trkpt lat="42.75164" lon="-0.5666">
        <ele>1939</ele>
        <time>2010-01-01T01:17:36Z</time>
      </trkpt>
      <trkpt lat="42.75168" lon="-0.56661">
        <ele>1939</ele>
        <time>2010-01-01T01:17:38Z</time>
      </trkpt>
      <trkpt lat="42.75168" lon="-0.56677">
        <ele>1932</ele>
        <time>2010-01-01T01:17:42Z</time>
      </trkpt>
      <trkpt lat="42.75173" lon="-0.56693">
        <ele>1925</ele>
        <time>2010-01-01T01:17:48Z</time>
      </trkpt>
      <trkpt lat="42.75173" lon="-0.56699">
        <ele>1922</ele>
        <time>2010-01-01T01:17:49Z</time>
      </trkpt>
      <trkpt lat="42.75181" lon="-0.56726">
        <ele>1911</ele>
        <time>2010-01-01T01:17:58Z</time>
      </trkpt>
      <trkpt lat="42.75181" lon="-0.56745">
        <ele>1905</ele>
        <time>2010-01-01T01:18:03Z</time>
      </trkpt>
      <trkpt lat="42.75185" lon="-0.56768">
        <ele>1902</ele>
        <time>2010-01-01T01:18:10Z</time>
      </trkpt>
      <trkpt lat="42.75184" lon="-0.56776">
        <ele>1901</ele>
        <time>2010-01-01T01:18:13Z</time>
      </trkpt>
      <trkpt lat="42.75185" lon="-0.56797">
        <ele>1900</ele>
        <time>2010-01-01T01:18:19Z</time>
      </trkpt>
      <trkpt lat="42.75179" lon="-0.56809">
        <ele>1898</ele>
        <time>2010-01-01T01:18:23Z</time>
      </trkpt>
      <trkpt lat="42.75168" lon="-0.56845">
        <ele>1888</ele>
        <time>2010-01-01T01:18:35Z</time>
      </trkpt>
      <trkpt lat="42.75153" lon="-0.56854">
        <ele>1882</ele>
        <time>2010-01-01T01:18:41Z</time>
      </trkpt>
      <trkpt lat="42.75144" lon="-0.56864">
        <ele>1878</ele>
        <time>2010-01-01T01:18:46Z</time>
      </trkpt>
      <trkpt lat="42.75142" lon="-0.56865">
        <ele>1877</ele>
        <time>2010-01-01T01:18:47Z</time>
      </trkpt>
      <trkpt lat="42.75137" lon="-0.56872">
        <ele>1875</ele>
        <time>2010-01-01T01:18:50Z</time>
      </trkpt>
      <trkpt lat="42.75131" lon="-0.56877">
        <ele>1873</ele>
        <time>2010-01-01T01:18:53Z</time>
      </trkpt>
      <trkpt lat="42.75129" lon="-0.56884">
        <ele>1872</ele>
        <time>2010-01-01T01:18:55Z</time>
      </trkpt>
      <trkpt lat="42.75129" lon="-0.56888">
        <ele>1872</ele>
        <time>2010-01-01T01:18:56Z</time>
      </trkpt>
      <trkpt lat="42.75121" lon="-0.56903">
        <ele>1870</ele>
        <time>2010-01-01T01:19:01Z</time>
      </trkpt>
      <trkpt lat="42.75103" lon="-0.56911">
        <ele>1867</ele>
        <time>2010-01-01T01:19:09Z</time>
      </trkpt>
      <trkpt lat="42.75097" lon="-0.56919">
        <ele>1866</ele>
        <time>2010-01-01T01:19:12Z</time>
      </trkpt>
      <trkpt lat="42.7508" lon="-0.56932">
        <ele>1867</ele>
        <time>2010-01-01T01:19:20Z</time>
      </trkpt>
      <trkpt lat="42.75076" lon="-0.56939">
        <ele>1869</ele>
        <time>2010-01-01T01:19:23Z</time>
      </trkpt>
      <trkpt lat="42.75069" lon="-0.56944">
        <ele>1871</ele>
        <time>2010-01-01T01:19:26Z</time>
      </trkpt>
      <trkpt lat="42.75062" lon="-0.56945">
        <ele>1871</ele>
        <time>2010-01-01T01:19:28Z</time>
      </trkpt>
      <trkpt lat="42.7506" lon="-0.56947">
        <ele>1872</ele>
        <time>2010-01-01T01:19:29Z</time>
      </trkpt>
      <trkpt lat="42.7506" lon="-0.56954">
        <ele>1872</ele>
        <time>2010-01-01T01:19:31Z</time>
      </trkpt>
      <trkpt lat="42.75057" lon="-0.56954">
        <ele>1873</ele>
        <time>2010-01-01T01:19:32Z</time>
      </trkpt>
      <trkpt lat="42.75054" lon="-0.56957">
        <ele>1873</ele>
        <time>2010-01-01T01:19:34Z</time>
      </trkpt>
      <trkpt lat="42.75051" lon="-0.56963">
        <ele>1873</ele>
        <time>2010-01-01T01:19:36Z</time>
      </trkpt>
      <trkpt lat="42.75051" lon="-0.56966">
        <ele>1874</ele>
        <time>2010-01-01T01:19:37Z</time>
      </trkpt>
      <trkpt lat="42.75043" lon="-0.5697">
        <ele>1873</ele>
        <time>2010-01-01T01:19:40Z</time>
      </trkpt>
      <trkpt lat="42.75042" lon="-0.56965">
        <ele>1873</ele>
        <time>2010-01-01T01:19:42Z</time>
      </trkpt>
      <trkpt lat="42.75038" lon="-0.56965">
        <ele>1873</ele>
        <time>2010-01-01T01:19:44Z</time>
      </trkpt>
      <trkpt lat="42.75021" lon="-0.56976">
        <ele>1872</ele>
        <time>2010-01-01T01:19:51Z</time>
      </trkpt>
      <trkpt lat="42.75014" lon="-0.56985">
        <ele>1870</ele>
        <time>2010-01-01T01:19:55Z</time>
      </trkpt>
      <trkpt lat="42.75011" lon="-0.56991">
        <ele>1868</ele>
        <time>2010-01-01T01:19:57Z</time>
      </trkpt>
      <trkpt lat="42.75012" lon="-0.57">
        <ele>1866</ele>
        <time>2010-01-01T01:20:00Z</time>
      </trkpt>
      <trkpt lat="42.75009" lon="-0.57008">
        <ele>1863</ele>
        <time>2010-01-01T01:20:02Z</time>
      </trkpt>
      <trkpt lat="42.75003" lon="-0.57009">
        <ele>1862</ele>
        <time>2010-01-01T01:20:04Z</time>
      </trkpt>
      <trkpt lat="42.75" lon="-0.57014">
        <ele>1860</ele>
        <time>2010-01-01T01:20:06Z</time>
      </trkpt>
      <trkpt lat="42.74993" lon="-0.57015">
        <ele>1861</ele>
        <time>2010-01-01T01:20:09Z</time>
      </trkpt>
      <trkpt lat="42.74979" lon="-0.57024">
        <ele>1859</ele>
        <time>2010-01-01T01:20:15Z</time>
      </trkpt>
      <trkpt lat="42.74968" lon="-0.57029">
        <ele>1859</ele>
        <time>2010-01-01T01:20:20Z</time>
      </trkpt>
      <trkpt lat="42.74965" lon="-0.57029">
        <ele>1859</ele>
        <time>2010-01-01T01:20:21Z</time>
      </trkpt>
      <trkpt lat="42.74959" lon="-0.57036">
        <ele>1858</ele>
        <time>2010-01-01T01:20:24Z</time>
      </trkpt>
      <trkpt lat="42.74957" lon="-0.57036">
        <ele>1858</ele>
        <time>2010-01-01T01:20:25Z</time>
      </trkpt>
      <trkpt lat="42.74952" lon="-0.57042">
        <ele>1857</ele>
        <time>2010-01-01T01:20:28Z</time>
      </trkpt>
      <trkpt lat="42.7495" lon="-0.5705">
        <ele>1855</ele>
        <time>2010-01-01T01:20:30Z</time>
      </trkpt>
      <trkpt lat="42.7494" lon="-0.57058">
        <ele>1854</ele>
        <time>2010-01-01T01:20:35Z</time>
      </trkpt>
      <trkpt lat="42.74923" lon="-0.57074">
        <ele>1852</ele>
        <time>2010-01-01T01:20:43Z</time>
      </trkpt>
      <trkpt lat="42.74918" lon="-0.57095">
        <ele>1848</ele>
        <time>2010-01-01T01:20:50Z</time>
      </trkpt>
      <trkpt lat="42.74911" lon="-0.57103">
        <ele>1847</ele>
        <time>2010-01-01T01:20:53Z</time>
      </trkpt>
      <trkpt lat="42.74895" lon="-0.57114">
        <ele>1844</ele>
        <time>2010-01-01T01:21:01Z</time>
      </trkpt>
      <trkpt lat="42.7489" lon="-0.57115">
        <ele>1844</ele>
        <time>2010-01-01T01:21:02Z</time>
      </trkpt>
      <trkpt lat="42.74881" lon="-0.57111">
        <ele>1845</ele>
        <time>2010-01-01T01:21:06Z</time>
      </trkpt>
      <trkpt lat="42.74874" lon="-0.57112">
        <ele>1843</ele>
        <time>2010-01-01T01:21:09Z</time>
      </trkpt>
      <trkpt lat="42.74866" lon="-0.57118">
        <ele>1841</ele>
        <time>2010-01-01T01:21:12Z</time>
      </trkpt>
      <trkpt lat="42.74832" lon="-0.57131">
        <ele>1836</ele>
        <time>2010-01-01T01:21:27Z</time>
      </trkpt>
      <trkpt lat="42.74827" lon="-0.57135">
        <ele>1834</ele>
        <time>2010-01-01T01:21:29Z</time>
      </trkpt>
      <trkpt lat="42.74821" lon="-0.57138">
        <ele>1834</ele>
        <time>2010-01-01T01:21:32Z</time>
      </trkpt>
      <trkpt lat="42.74809" lon="-0.57148">
        <ele>1831</ele>
        <time>2010-01-01T01:21:37Z</time>
      </trkpt>
      <trkpt lat="42.74799" lon="-0.5715">
        <ele>1831</ele>
        <time>2010-01-01T01:21:41Z</time>
      </trkpt>
      <trkpt lat="42.74789" lon="-0.57159">
        <ele>1829</ele>
        <time>2010-01-01T01:21:46Z</time>
      </trkpt>
      <trkpt lat="42.74782" lon="-0.57162">
        <ele>1828</ele>
        <time>2010-01-01T01:21:49Z</time>
      </trkpt>
      <trkpt lat="42.74778" lon="-0.57162">
        <ele>1828</ele>
        <time>2010-01-01T01:21:51Z</time>
      </trkpt>
      <trkpt lat="42.74757" lon="-0.57174">
        <ele>1827</ele>
        <time>2010-01-01T01:22:00Z</time>
      </trkpt>
      <trkpt lat="42.74754" lon="-0.57178">
        <ele>1826</ele>
        <time>2010-01-01T01:22:02Z</time>
      </trkpt>
      <trkpt lat="42.74739" lon="-0.57186">
        <ele>1826</ele>
        <time>2010-01-01T01:22:08Z</time>
      </trkpt>
      <trkpt lat="42.7473" lon="-0.57198">
        <ele>1825</ele>
        <time>2010-01-01T01:22:13Z</time>
      </trkpt>
      <trkpt lat="42.74722" lon="-0.57201">
        <ele>1825</ele>
        <time>2010-01-01T01:22:17Z</time>
      </trkpt>
      <trkpt lat="42.74718" lon="-0.572">
        <ele>1826</ele>
        <time>2010-01-01T01:22:18Z</time>
      </trkpt>
      <trkpt lat="42.74714" lon="-0.57204">
        <ele>1825</ele>
        <time>2010-01-01T01:22:20Z</time>
      </trkpt>
      <trkpt lat="42.74706" lon="-0.57208">
        <ele>1824</ele>
        <time>2010-01-01T01:22:23Z</time>
      </trkpt>
      <trkpt lat="42.74676" lon="-0.57216">
        <ele>1824</ele>
        <time>2010-01-01T01:22:36Z</time>
      </trkpt>
      <trkpt lat="42.74667" lon="-0.57217">
        <ele>1823</ele>
        <time>2010-01-01T01:22:39Z</time>
      </trkpt>
      <trkpt lat="42.74658" lon="-0.57223">
        <ele>1822</ele>
        <time>2010-01-01T01:22:43Z</time>
      </trkpt>
      <trkpt lat="42.74654" lon="-0.57227">
        <ele>1822</ele>
        <time>2010-01-01T01:22:45Z</time>
      </trkpt>
      <trkpt lat="42.74638" lon="-0.57248">
        <ele>1817</ele>
        <time>2010-01-01T01:22:54Z</time>
      </trkpt>
      <trkpt lat="42.74628" lon="-0.57255">
        <ele>1817</ele>
        <time>2010-01-01T01:22:59Z</time>
      </trkpt>
      <trkpt lat="42.74621" lon="-0.57263">
        <ele>1817</ele>
        <time>2010-01-01T01:23:02Z</time>
      </trkpt>
      <trkpt lat="42.74605" lon="-0.57277">
        <ele>1818</ele>
        <time>2010-01-01T01:23:10Z</time>
      </trkpt>
      <trkpt lat="42.74569" lon="-0.57316">
        <ele>1809</ele>
        <time>2010-01-01T01:23:28Z</time>
      </trkpt>
      <trkpt lat="42.74561" lon="-0.57322">
        <ele>1807</ele>
        <time>2010-01-01T01:23:32Z</time>
      </trkpt>
      <trkpt lat="42.74566" lon="-0.57323">
        <ele>1806</ele>
        <time>2010-01-01T01:23:34Z</time>
      </trkpt>
      <trkpt lat="42.74559" lon="-0.57326">
        <ele>1806</ele>
        <time>2010-01-01T01:23:37Z</time>
      </trkpt>
      <trkpt lat="42.74552" lon="-0.57334">
        <ele>1804</ele>
        <time>2010-01-01T01:23:40Z</time>
      </trkpt>
      <trkpt lat="42.7454" lon="-0.57349">
        <ele>1803</ele>
        <time>2010-01-01T01:23:47Z</time>
      </trkpt>
      <trkpt lat="42.74535" lon="-0.5736">
        <ele>1800</ele>
        <time>2010-01-01T01:23:51Z</time>
      </trkpt>
      <trkpt lat="42.74509" lon="-0.57377">
        <ele>1804</ele>
        <time>2010-01-01T01:24:02Z</time>
      </trkpt>
      <trkpt lat="42.74503" lon="-0.57387">
        <ele>1802</ele>
        <time>2010-01-01T01:24:06Z</time>
      </trkpt>
      <trkpt lat="42.74477" lon="-0.57398">
        <ele>1809</ele>
        <time>2010-01-01T01:24:17Z</time>
      </trkpt>
      <trkpt lat="42.74467" lon="-0.57408">
        <ele>1808</ele>
        <time>2010-01-01T01:24:22Z</time>
      </trkpt>
      <trkpt lat="42.74446" lon="-0.5742">
        <ele>1807</ele>
        <time>2010-01-01T01:24:31Z</time>
      </trkpt>
      <trkpt lat="42.74439" lon="-0.57407">
        <ele>1813</ele>
        <time>2010-01-01T01:24:36Z</time>
      </trkpt>
      <trkpt lat="42.74439" lon="-0.574">
        <ele>1815</ele>
        <time>2010-01-01T01:24:38Z</time>
      </trkpt>
      <trkpt lat="42.74436" lon="-0.57385">
        <ele>1821</ele>
        <time>2010-01-01T01:24:42Z</time>
      </trkpt>
      <trkpt lat="42.74436" lon="-0.57382">
        <ele>1822</ele>
        <time>2010-01-01T01:24:43Z</time>
      </trkpt>
      <trkpt lat="42.74438" lon="-0.5738">
        <ele>1823</ele>
        <time>2010-01-01T01:24:44Z</time>
      </trkpt>
      <trkpt lat="42.74425" lon="-0.57352">
        <ele>1833</ele>
        <time>2010-01-01T01:24:54Z</time>
      </trkpt>
      <trkpt lat="42.74424" lon="-0.57344">
        <ele>1835</ele>
        <time>2010-01-01T01:24:57Z</time>
      </trkpt>
      <trkpt lat="42.74417" lon="-0.57342">
        <ele>1835</ele>
        <time>2010-01-01T01:25:00Z</time>
      </trkpt>
      <trkpt lat="42.74409" lon="-0.57343">
        <ele>1835</ele>
        <time>2010-01-01T01:25:03Z</time>
      </trkpt>
      <trkpt lat="42.74403" lon="-0.57338">
        <ele>1837</ele>
        <time>2010-01-01T01:25:05Z</time>
      </trkpt>
      <trkpt lat="42.744" lon="-0.5733">
        <ele>1839</ele>
        <time>2010-01-01T01:25:08Z</time>
      </trkpt>
      <trkpt lat="42.74397" lon="-0.57308">
        <ele>1844</ele>
        <time>2010-01-01T01:25:15Z</time>
      </trkpt>
      <trkpt lat="42.74391" lon="-0.57298">
        <ele>1847</ele>
        <time>2010-01-01T01:25:19Z</time>
      </trkpt>
      <trkpt lat="42.74385" lon="-0.57274">
        <ele>1853</ele>
        <time>2010-01-01T01:25:26Z</time>
      </trkpt>
      <trkpt lat="42.74385" lon="-0.57271">
        <ele>1854</ele>
        <time>2010-01-01T01:25:27Z</time>
      </trkpt>
      <trkpt lat="42.74388" lon="-0.57269">
        <ele>1853</ele>
        <time>2010-01-01T01:25:28Z</time>
      </trkpt>
      <trkpt lat="42.74391" lon="-0.57263">
        <ele>1854</ele>
        <time>2010-01-01T01:25:30Z</time>
      </trkpt>
      <trkpt lat="42.74389" lon="-0.57252">
        <ele>1856</ele>
        <time>2010-01-01T01:25:33Z</time>
      </trkpt>
      <trkpt lat="42.74387" lon="-0.57249">
        <ele>1857</ele>
        <time>2010-01-01T01:25:35Z</time>
      </trkpt>
      <trkpt lat="42.74385" lon="-0.57242">
        <ele>1859</ele>
        <time>2010-01-01T01:25:37Z</time>
      </trkpt>
      <trkpt lat="42.7436" lon="-0.57195">
        <ele>1872</ele>
        <time>2010-01-01T01:25:54Z</time>
      </trkpt>
      <trkpt lat="42.74355" lon="-0.57191">
        <ele>1875</ele>
        <time>2010-01-01T01:25:56Z</time>
      </trkpt>
      <trkpt lat="42.74348" lon="-0.57179">
        <ele>1879</ele>
        <time>2010-01-01T01:26:01Z</time>
      </trkpt>
      <trkpt lat="42.74345" lon="-0.57178">
        <ele>1880</ele>
        <time>2010-01-01T01:26:02Z</time>
      </trkpt>
      <trkpt lat="42.74334" lon="-0.57154">
        <ele>1887</ele>
        <time>2010-01-01T01:26:10Z</time>
      </trkpt>
      <trkpt lat="42.74333" lon="-0.57142">
        <ele>1889</ele>
        <time>2010-01-01T01:26:14Z</time>
      </trkpt>
      <trkpt lat="42.74337" lon="-0.57141">
        <ele>1888</ele>
        <time>2010-01-01T01:26:16Z</time>
      </trkpt>
      <trkpt lat="42.74343" lon="-0.57135">
        <ele>1888</ele>
        <time>2010-01-01T01:26:19Z</time>
      </trkpt>
      <trkpt lat="42.74344" lon="-0.5713">
        <ele>1890</ele>
        <time>2010-01-01T01:26:20Z</time>
      </trkpt>
      <trkpt lat="42.7434" lon="-0.57112">
        <ele>1895</ele>
        <time>2010-01-01T01:26:26Z</time>
      </trkpt>
      <trkpt lat="42.74335" lon="-0.57109">
        <ele>1897</ele>
        <time>2010-01-01T01:26:28Z</time>
      </trkpt>
      <trkpt lat="42.74331" lon="-0.57103">
        <ele>1900</ele>
        <time>2010-01-01T01:26:31Z</time>
      </trkpt>
      <trkpt lat="42.74326" lon="-0.57101">
        <ele>1902</ele>
        <time>2010-01-01T01:26:32Z</time>
      </trkpt>
      <trkpt lat="42.74321" lon="-0.57094">
        <ele>1905</ele>
        <time>2010-01-01T01:26:35Z</time>
      </trkpt>
      <trkpt lat="42.74319" lon="-0.5708">
        <ele>1909</ele>
        <time>2010-01-01T01:26:40Z</time>
      </trkpt>
      <trkpt lat="42.74317" lon="-0.57078">
        <ele>1909</ele>
        <time>2010-01-01T01:26:40Z</time>
      </trkpt>
      <trkpt lat="42.74314" lon="-0.57084">
        <ele>1909</ele>
        <time>2010-01-01T01:26:43Z</time>
      </trkpt>
      <trkpt lat="42.7431" lon="-0.57086">
        <ele>1909</ele>
        <time>2010-01-01T01:26:44Z</time>
      </trkpt>
      <trkpt lat="42.74309" lon="-0.57083">
        <ele>1910</ele>
        <time>2010-01-01T01:26:45Z</time>
      </trkpt>
      <trkpt lat="42.74309" lon="-0.57078">
        <ele>1911</ele>
        <time>2010-01-01T01:26:47Z</time>
      </trkpt>
      <trkpt lat="42.74305" lon="-0.5707">
        <ele>1913</ele>
        <time>2010-01-01T01:26:50Z</time>
      </trkpt>
      <trkpt lat="42.743" lon="-0.57071">
        <ele>1916</ele>
        <time>2010-01-01T01:26:52Z</time>
      </trkpt>
      <trkpt lat="42.74294" lon="-0.57063">
        <ele>1921</ele>
        <time>2010-01-01T01:26:55Z</time>
      </trkpt>
      <trkpt lat="42.74293" lon="-0.57059">
        <ele>1922</ele>
        <time>2010-01-01T01:26:56Z</time>
      </trkpt>
      <trkpt lat="42.74305" lon="-0.57046">
        <ele>1918</ele>
        <time>2010-01-01T01:27:02Z</time>
      </trkpt>
      <trkpt lat="42.74306" lon="-0.5704">
        <ele>1919</ele>
        <time>2010-01-01T01:27:04Z</time>
      </trkpt>
      <trkpt lat="42.74293" lon="-0.57048">
        <ele>1925</ele>
        <time>2010-01-01T01:27:10Z</time>
      </trkpt>
      <trkpt lat="42.7429" lon="-0.57048">
        <ele>1927</ele>
        <time>2010-01-01T01:27:12Z</time>
      </trkpt>
      <trkpt lat="42.74299" lon="-0.57031">
        <ele>1925</ele>
        <time>2010-01-01T01:27:18Z</time>
      </trkpt>
      <trkpt lat="42.74298" lon="-0.57026">
        <ele>1926</ele>
        <time>2010-01-01T01:27:19Z</time>
      </trkpt>
      <trkpt lat="42.74292" lon="-0.57032">
        <ele>1929</ele>
        <time>2010-01-01T01:27:22Z</time>
      </trkpt>
      <trkpt lat="42.74293" lon="-0.5702">
        <ele>1931</ele>
        <time>2010-01-01T01:27:26Z</time>
      </trkpt>
      <trkpt lat="42.74289" lon="-0.56999">
        <ele>1939</ele>
        <time>2010-01-01T01:27:32Z</time>
      </trkpt>
      <trkpt lat="42.74279" lon="-0.57012">
        <ele>1940</ele>
        <time>2010-01-01T01:27:38Z</time>
      </trkpt>
      <trkpt lat="42.74265" lon="-0.57019">
        <ele>1948</ele>
        <time>2010-01-01T01:27:44Z</time>
      </trkpt>
      <trkpt lat="42.74267" lon="-0.57009">
        <ele>1949</ele>
        <time>2010-01-01T01:27:47Z</time>
      </trkpt>
      <trkpt lat="42.7427" lon="-0.57005">
        <ele>1947</ele>
        <time>2010-01-01T01:27:49Z</time>
      </trkpt>
      <trkpt lat="42.74269" lon="-0.57001">
        <ele>1949</ele>
        <time>2010-01-01T01:27:50Z</time>
      </trkpt>
      <trkpt lat="42.74263" lon="-0.57003">
        <ele>1952</ele>
        <time>2010-01-01T01:27:52Z</time>
      </trkpt>
      <trkpt lat="42.74259" lon="-0.57007">
        <ele>1954</ele>
        <time>2010-01-01T01:27:54Z</time>
      </trkpt>
      <trkpt lat="42.74257" lon="-0.57007">
        <ele>1956</ele>
        <time>2010-01-01T01:27:55Z</time>
      </trkpt>
      <trkpt lat="42.7426" lon="-0.56984">
        <ele>1958</ele>
        <time>2010-01-01T01:28:02Z</time>
      </trkpt>
      <trkpt lat="42.7426" lon="-0.5698">
        <ele>1959</ele>
        <time>2010-01-01T01:28:03Z</time>
      </trkpt>
      <trkpt lat="42.74257" lon="-0.56972">
        <ele>1962</ele>
        <time>2010-01-01T01:28:06Z</time>
      </trkpt>
      <trkpt lat="42.74263" lon="-0.56961">
        <ele>1961</ele>
        <time>2010-01-01T01:28:10Z</time>
      </trkpt>
      <trkpt lat="42.74264" lon="-0.56956">
        <ele>1962</ele>
        <time>2010-01-01T01:28:12Z</time>
      </trkpt>
      <trkpt lat="42.74258" lon="-0.56933">
        <ele>1969</ele>
        <time>2010-01-01T01:28:19Z</time>
      </trkpt>
      <trkpt lat="42.74254" lon="-0.56925">
        <ele>1973</ele>
        <time>2010-01-01T01:28:22Z</time>
      </trkpt>
      <trkpt lat="42.74256" lon="-0.56915">
        <ele>1975</ele>
        <time>2010-01-01T01:28:25Z</time>
      </trkpt>
      <trkpt lat="42.74259" lon="-0.5691">
        <ele>1975</ele>
        <time>2010-01-01T01:28:27Z</time>
      </trkpt>
      <trkpt lat="42.74256" lon="-0.56897">
        <ele>1980</ele>
        <time>2010-01-01T01:28:31Z</time>
      </trkpt>
      <trkpt lat="42.74255" lon="-0.56895">
        <ele>1981</ele>
        <time>2010-01-01T01:28:32Z</time>
      </trkpt>
      <trkpt lat="42.74252" lon="-0.56899">
        <ele>1981</ele>
        <time>2010-01-01T01:28:33Z</time>
      </trkpt>
      <trkpt lat="42.7425" lon="-0.56899">
        <ele>1983</ele>
        <time>2010-01-01T01:28:34Z</time>
      </trkpt>
      <trkpt lat="42.74241" lon="-0.5688">
        <ele>1993</ele>
        <time>2010-01-01T01:28:41Z</time>
      </trkpt>
      <trkpt lat="42.74239" lon="-0.56878">
        <ele>1994</ele>
        <time>2010-01-01T01:28:42Z</time>
      </trkpt>
      <trkpt lat="42.74237" lon="-0.56875">
        <ele>1996</ele>
        <time>2010-01-01T01:28:43Z</time>
      </trkpt>
      <trkpt lat="42.74238" lon="-0.56866">
        <ele>1997</ele>
        <time>2010-01-01T01:28:46Z</time>
      </trkpt>
      <trkpt lat="42.74237" lon="-0.56855">
        <ele>2000</ele>
        <time>2010-01-01T01:28:49Z</time>
      </trkpt>
      <trkpt lat="42.74233" lon="-0.56849">
        <ele>2003</ele>
        <time>2010-01-01T01:28:51Z</time>
      </trkpt>
      <trkpt lat="42.74226" lon="-0.56859">
        <ele>2005</ele>
        <time>2010-01-01T01:28:56Z</time>
      </trkpt>
      <trkpt lat="42.7422" lon="-0.56865">
        <ele>2007</ele>
        <time>2010-01-01T01:28:59Z</time>
      </trkpt>
      <trkpt lat="42.74213" lon="-0.56868">
        <ele>2009</ele>
        <time>2010-01-01T01:29:01Z</time>
      </trkpt>
      <trkpt lat="42.74215" lon="-0.56851">
        <ele>2011</ele>
        <time>2010-01-01T01:29:06Z</time>
      </trkpt>
      <trkpt lat="42.74209" lon="-0.56822">
        <ele>2018</ele>
        <time>2010-01-01T01:29:15Z</time>
      </trkpt>
      <trkpt lat="42.74209" lon="-0.56776">
        <ele>2025</ele>
        <time>2010-01-01T01:29:29Z</time>
      </trkpt>
      <trkpt lat="42.74214" lon="-0.5674">
        <ele>2028</ele>
        <time>2010-01-01T01:29:40Z</time>
      </trkpt>
      <trkpt lat="42.74218" lon="-0.56725">
        <ele>2029</ele>
        <time>2010-01-01T01:29:44Z</time>
      </trkpt>
      <trkpt lat="42.7422" lon="-0.56704">
        <ele>2032</ele>
        <time>2010-01-01T01:29:51Z</time>
      </trkpt>
      <trkpt lat="42.74221" lon="-0.5667">
        <ele>2033</ele>
        <time>2010-01-01T01:30:00Z</time>
      </trkpt>
      <trkpt lat="42.74223" lon="-0.56651">
        <ele>2032</ele>
        <time>2010-01-01T01:30:06Z</time>
      </trkpt>
      <trkpt lat="42.74219" lon="-0.56649">
        <ele>2032</ele>
        <time>2010-01-01T01:30:08Z</time>
      </trkpt>
      <trkpt lat="42.74206" lon="-0.56654">
        <ele>2033</ele>
        <time>2010-01-01T01:30:13Z</time>
      </trkpt>
      <trkpt lat="42.74201" lon="-0.56652">
        <ele>2033</ele>
        <time>2010-01-01T01:30:15Z</time>
      </trkpt>
      <trkpt lat="42.74196" lon="-0.56651">
        <ele>2033</ele>
        <time>2010-01-01T01:30:17Z</time>
      </trkpt>
      <trkpt lat="42.74173" lon="-0.56677">
        <ele>2043</ele>
        <time>2010-01-01T01:30:29Z</time>
      </trkpt>
      <trkpt lat="42.74168" lon="-0.56679">
        <ele>2045</ele>
        <time>2010-01-01T01:30:31Z</time>
      </trkpt>
      <trkpt lat="42.74138" lon="-0.56706">
        <ele>2058</ele>
        <time>2010-01-01T01:30:46Z</time>
      </trkpt>
      <trkpt lat="42.74092" lon="-0.56742">
        <ele>2076</ele>
        <time>2010-01-01T01:31:07Z</time>
      </trkpt>
      <trkpt lat="42.74084" lon="-0.5675">
        <ele>2079</ele>
        <time>2010-01-01T01:31:11Z</time>
      </trkpt>
      <trkpt lat="42.74077" lon="-0.56753">
        <ele>2082</ele>
        <time>2010-01-01T01:31:14Z</time>
      </trkpt>
      <trkpt lat="42.74075" lon="-0.56758">
        <ele>2083</ele>
        <time>2010-01-01T01:31:15Z</time>
      </trkpt>
      <trkpt lat="42.74059" lon="-0.56753">
        <ele>2086</ele>
        <time>2010-01-01T01:31:22Z</time>
      </trkpt>
      <trkpt lat="42.74055" lon="-0.56754">
        <ele>2088</ele>
        <time>2010-01-01T01:31:24Z</time>
      </trkpt>
      <trkpt lat="42.74053" lon="-0.56761">
        <ele>2090</ele>
        <time>2010-01-01T01:31:26Z</time>
      </trkpt>
      <trkpt lat="42.74052" lon="-0.56762">
        <ele>2091</ele>
        <time>2010-01-01T01:31:27Z</time>
      </trkpt>
      <trkpt lat="42.74043" lon="-0.56756">
        <ele>2092</ele>
        <time>2010-01-01T01:31:30Z</time>
      </trkpt>
      <trkpt lat="42.74038" lon="-0.56755">
        <ele>2093</ele>
        <time>2010-01-01T01:31:32Z</time>
      </trkpt>
      <trkpt lat="42.74036" lon="-0.56754">
        <ele>2093</ele>
        <time>2010-01-01T01:31:34Z</time>
      </trkpt>
      <trkpt lat="42.74034" lon="-0.56755">
        <ele>2094</ele>
        <time>2010-01-01T01:31:34Z</time>
      </trkpt>
      <trkpt lat="42.74034" lon="-0.56759">
        <ele>2096</ele>
        <time>2010-01-01T01:31:35Z</time>
      </trkpt>
      <trkpt lat="42.74032" lon="-0.56758">
        <ele>2096</ele>
        <time>2010-01-01T01:31:36Z</time>
      </trkpt>
      <trkpt lat="42.74032" lon="-0.56759">
        <ele>2097</ele>
        <time>2010-01-01T01:31:37Z</time>
      </trkpt>
      <trkpt lat="42.74028" lon="-0.56756">
        <ele>2097</ele>
        <time>2010-01-01T01:31:38Z</time>
      </trkpt>
      <trkpt lat="42.74025" lon="-0.56756">
        <ele>2097</ele>
        <time>2010-01-01T01:31:39Z</time>
      </trkpt>
      <trkpt lat="42.74025" lon="-0.56759">
        <ele>2098</ele>
        <time>2010-01-01T01:31:40Z</time>
      </trkpt>
      <trkpt lat="42.74023" lon="-0.56758">
        <ele>2098</ele>
        <time>2010-01-01T01:31:41Z</time>
      </trkpt>
      <trkpt lat="42.74022" lon="-0.56761">
        <ele>2100</ele>
        <time>2010-01-01T01:31:42Z</time>
      </trkpt>
      <trkpt lat="42.74023" lon="-0.56768">
        <ele>2102</ele>
        <time>2010-01-01T01:31:44Z</time>
      </trkpt>
      <trkpt lat="42.74015" lon="-0.56768">
        <ele>2104</ele>
        <time>2010-01-01T01:31:48Z</time>
      </trkpt>
      <trkpt lat="42.74015" lon="-0.56782">
        <ele>2110</ele>
        <time>2010-01-01T01:31:52Z</time>
      </trkpt>
      <trkpt lat="42.74012" lon="-0.56805">
        <ele>2121</ele>
        <time>2010-01-01T01:31:59Z</time>
      </trkpt>
      <trkpt lat="42.74006" lon="-0.56807">
        <ele>2123</ele>
        <time>2010-01-01T01:32:01Z</time>
      </trkpt>
      <trkpt lat="42.73994" lon="-0.56801">
        <ele>2126</ele>
        <time>2010-01-01T01:32:06Z</time>
      </trkpt>
      <trkpt lat="42.73991" lon="-0.56803">
        <ele>2128</ele>
        <time>2010-01-01T01:32:07Z</time>
      </trkpt>
      <trkpt lat="42.73991" lon="-0.56816">
        <ele>2133</ele>
        <time>2010-01-01T01:32:11Z</time>
      </trkpt>
      <trkpt lat="42.73979" lon="-0.56815">
        <ele>2138</ele>
        <time>2010-01-01T01:32:16Z</time>
      </trkpt>
      <trkpt lat="42.73979" lon="-0.56827">
        <ele>2142</ele>
        <time>2010-01-01T01:32:20Z</time>
      </trkpt>
      <trkpt lat="42.73965" lon="-0.56822">
        <ele>2147</ele>
        <time>2010-01-01T01:32:25Z</time>
      </trkpt>
      <trkpt lat="42.73963" lon="-0.56841">
        <ele>2150</ele>
        <time>2010-01-01T01:32:31Z</time>
      </trkpt>
      <trkpt lat="42.73961" lon="-0.56842">
        <ele>2151</ele>
        <time>2010-01-01T01:32:32Z</time>
      </trkpt>
      <trkpt lat="42.73956" lon="-0.56839">
        <ele>2152</ele>
        <time>2010-01-01T01:32:34Z</time>
      </trkpt>
      <trkpt lat="42.73947" lon="-0.56841">
        <ele>2154</ele>
        <time>2010-01-01T01:32:37Z</time>
      </trkpt>
      <trkpt lat="42.73934" lon="-0.56838">
        <ele>2159</ele>
        <time>2010-01-01T01:32:43Z</time>
      </trkpt>
      <trkpt lat="42.73932" lon="-0.56852">
        <ele>2161</ele>
        <time>2010-01-01T01:32:47Z</time>
      </trkpt>
      <trkpt lat="42.73928" lon="-0.56861">
        <ele>2163</ele>
        <time>2010-01-01T01:32:50Z</time>
      </trkpt>
      <trkpt lat="42.73916" lon="-0.5686">
        <ele>2168</ele>
        <time>2010-01-01T01:32:55Z</time>
      </trkpt>
      <trkpt lat="42.73915" lon="-0.56862">
        <ele>2169</ele>
        <time>2010-01-01T01:32:56Z</time>
      </trkpt>
      <trkpt lat="42.73913" lon="-0.56869">
        <ele>2172</ele>
        <time>2010-01-01T01:32:58Z</time>
      </trkpt>
      <trkpt lat="42.73911" lon="-0.56871">
        <ele>2173</ele>
        <time>2010-01-01T01:32:59Z</time>
      </trkpt>
      <trkpt lat="42.73899" lon="-0.56866">
        <ele>2181</ele>
        <time>2010-01-01T01:33:04Z</time>
      </trkpt>
      <trkpt lat="42.73897" lon="-0.56868">
        <ele>2183</ele>
        <time>2010-01-01T01:33:05Z</time>
      </trkpt>
      <trkpt lat="42.73895" lon="-0.56878">
        <ele>2187</ele>
        <time>2010-01-01T01:33:08Z</time>
      </trkpt>
      <trkpt lat="42.73883" lon="-0.56882">
        <ele>2195</ele>
        <time>2010-01-01T01:33:13Z</time>
      </trkpt>
      <trkpt lat="42.73876" lon="-0.56881">
        <ele>2197</ele>
        <time>2010-01-01T01:33:16Z</time>
      </trkpt>
      <trkpt lat="42.73868" lon="-0.56884">
        <ele>2200</ele>
        <time>2010-01-01T01:33:19Z</time>
      </trkpt>
      <trkpt lat="42.73866" lon="-0.56893">
        <ele>2203</ele>
        <time>2010-01-01T01:33:22Z</time>
      </trkpt>
      <trkpt lat="42.73859" lon="-0.56892">
        <ele>2205</ele>
        <time>2010-01-01T01:33:25Z</time>
      </trkpt>
      <trkpt lat="42.73836" lon="-0.56892">
        <ele>2211</ele>
        <time>2010-01-01T01:33:34Z</time>
      </trkpt>
      <trkpt lat="42.73835" lon="-0.56905">
        <ele>2213</ele>
        <time>2010-01-01T01:33:37Z</time>
      </trkpt>
      <trkpt lat="42.73832" lon="-0.56909">
        <ele>2214</ele>
        <time>2010-01-01T01:33:39Z</time>
      </trkpt>
      <trkpt lat="42.7382" lon="-0.56909">
        <ele>2220</ele>
        <time>2010-01-01T01:33:44Z</time>
      </trkpt>
      <trkpt lat="42.73812" lon="-0.56913">
        <ele>2223</ele>
        <time>2010-01-01T01:33:47Z</time>
      </trkpt>
      <trkpt lat="42.73808" lon="-0.56913">
        <ele>2225</ele>
        <time>2010-01-01T01:33:49Z</time>
      </trkpt>
      <trkpt lat="42.73806" lon="-0.56921">
        <ele>2227</ele>
        <time>2010-01-01T01:33:51Z</time>
      </trkpt>
      <trkpt lat="42.73803" lon="-0.56922">
        <ele>2228</ele>
        <time>2010-01-01T01:33:52Z</time>
      </trkpt>
      <trkpt lat="42.73797" lon="-0.5692">
        <ele>2231</ele>
        <time>2010-01-01T01:33:55Z</time>
      </trkpt>
      <trkpt lat="42.73792" lon="-0.56922">
        <ele>2234</ele>
        <time>2010-01-01T01:33:57Z</time>
      </trkpt>
      <trkpt lat="42.73784" lon="-0.56919">
        <ele>2237</ele>
        <time>2010-01-01T01:34:00Z</time>
      </trkpt>
      <trkpt lat="42.73774" lon="-0.56921">
        <ele>2242</ele>
        <time>2010-01-01T01:34:04Z</time>
      </trkpt>
      <trkpt lat="42.73772" lon="-0.56925">
        <ele>2244</ele>
        <time>2010-01-01T01:34:06Z</time>
      </trkpt>
      <trkpt lat="42.73768" lon="-0.56925">
        <ele>2245</ele>
        <time>2010-01-01T01:34:07Z</time>
      </trkpt>
      <trkpt lat="42.73766" lon="-0.56928">
        <ele>2246</ele>
        <time>2010-01-01T01:34:08Z</time>
      </trkpt>
      <trkpt lat="42.73758" lon="-0.5693">
        <ele>2250</ele>
        <time>2010-01-01T01:34:12Z</time>
      </trkpt>
      <trkpt lat="42.73758" lon="-0.56933">
        <ele>2250</ele>
        <time>2010-01-01T01:34:12Z</time>
      </trkpt>
      <trkpt lat="42.73757" lon="-0.56934">
        <ele>2250</ele>
        <time>2010-01-01T01:34:13Z</time>
      </trkpt>
      <trkpt lat="42.73752" lon="-0.5693">
        <ele>2252</ele>
        <time>2010-01-01T01:34:15Z</time>
      </trkpt>
      <trkpt lat="42.73741" lon="-0.56932">
        <ele>2255</ele>
        <time>2010-01-01T01:34:20Z</time>
      </trkpt>
      <trkpt lat="42.7374" lon="-0.56934">
        <ele>2256</ele>
        <time>2010-01-01T01:34:21Z</time>
      </trkpt>
      <trkpt lat="42.73741" lon="-0.56938">
        <ele>2256</ele>
        <time>2010-01-01T01:34:22Z</time>
      </trkpt>
      <trkpt lat="42.7374" lon="-0.56941">
        <ele>2256</ele>
        <time>2010-01-01T01:34:23Z</time>
      </trkpt>
      <trkpt lat="42.73739" lon="-0.5694">
        <ele>2256</ele>
        <time>2010-01-01T01:34:23Z</time>
      </trkpt>
      <trkpt lat="42.73735" lon="-0.56944">
        <ele>2258</ele>
        <time>2010-01-01T01:34:25Z</time>
      </trkpt>
      <trkpt lat="42.73721" lon="-0.56941">
        <ele>2261</ele>
        <time>2010-01-01T01:34:31Z</time>
      </trkpt>
      <trkpt lat="42.73719" lon="-0.56949">
        <ele>2260</ele>
        <time>2010-01-01T01:34:33Z</time>
      </trkpt>
      <trkpt lat="42.73716" lon="-0.56948">
        <ele>2260</ele>
        <time>2010-01-01T01:34:34Z</time>
      </trkpt>
      <trkpt lat="42.73714" lon="-0.56947">
        <ele>2260</ele>
        <time>2010-01-01T01:34:36Z</time>
      </trkpt>
      <trkpt lat="42.73711" lon="-0.56943">
        <ele>2260</ele>
        <time>2010-01-01T01:34:37Z</time>
      </trkpt>
      <trkpt lat="42.73711" lon="-0.56939">
        <ele>2260</ele>
        <time>2010-01-01T01:34:38Z</time>
      </trkpt>
      <trkpt lat="42.73712" lon="-0.5694">
        <ele>2260</ele>
        <time>2010-01-01T01:34:39Z</time>
      </trkpt>
      <trkpt lat="42.73705" lon="-0.56931">
        <ele>2259</ele>
        <time>2010-01-01T01:34:43Z</time>
      </trkpt>
      <trkpt lat="42.73683" lon="-0.56914">
        <ele>2258</ele>
        <time>2010-01-01T01:34:53Z</time>
      </trkpt>
      <trkpt lat="42.7367" lon="-0.56906">
        <ele>2256</ele>
        <time>2010-01-01T01:34:58Z</time>
      </trkpt>
      <trkpt lat="42.73661" lon="-0.56895">
        <ele>2255</ele>
        <time>2010-01-01T01:35:03Z</time>
      </trkpt>
      <trkpt lat="42.73656" lon="-0.56894">
        <ele>2255</ele>
        <time>2010-01-01T01:35:05Z</time>
      </trkpt>
      <trkpt lat="42.73652" lon="-0.56888">
        <ele>2254</ele>
        <time>2010-01-01T01:35:07Z</time>
      </trkpt>
      <trkpt lat="42.73636" lon="-0.5688">
        <ele>2253</ele>
        <time>2010-01-01T01:35:14Z</time>
      </trkpt>
      <trkpt lat="42.73631" lon="-0.56876">
        <ele>2253</ele>
        <time>2010-01-01T01:35:17Z</time>
      </trkpt>
      <trkpt lat="42.73629" lon="-0.56878">
        <ele>2253</ele>
        <time>2010-01-01T01:35:18Z</time>
      </trkpt>
      <trkpt lat="42.73619" lon="-0.5687">
        <ele>2252</ele>
        <time>2010-01-01T01:35:22Z</time>
      </trkpt>
      <trkpt lat="42.73607" lon="-0.56845">
        <ele>2248</ele>
        <time>2010-01-01T01:35:31Z</time>
      </trkpt>
      <trkpt lat="42.73605" lon="-0.56844">
        <ele>2248</ele>
        <time>2010-01-01T01:35:32Z</time>
      </trkpt>
      <trkpt lat="42.73602" lon="-0.56846">
        <ele>2248</ele>
        <time>2010-01-01T01:35:33Z</time>
      </trkpt>
      <trkpt lat="42.73596" lon="-0.56841">
        <ele>2247</ele>
        <time>2010-01-01T01:35:36Z</time>
      </trkpt>
      <trkpt lat="42.73588" lon="-0.56848">
        <ele>2248</ele>
        <time>2010-01-01T01:35:40Z</time>
      </trkpt>
      <trkpt lat="42.73587" lon="-0.56848">
        <ele>2248</ele>
        <time>2010-01-01T01:35:40Z</time>
      </trkpt>
      <trkpt lat="42.73584" lon="-0.56843">
        <ele>2247</ele>
        <time>2010-01-01T01:35:42Z</time>
      </trkpt>
      <trkpt lat="42.73578" lon="-0.56826">
        <ele>2243</ele>
        <time>2010-01-01T01:35:48Z</time>
      </trkpt>
      <trkpt lat="42.7356" lon="-0.56814">
        <ele>2234</ele>
        <time>2010-01-01T01:35:56Z</time>
      </trkpt>
      <trkpt lat="42.73535" lon="-0.56803">
        <ele>2223</ele>
        <time>2010-01-01T01:36:06Z</time>
      </trkpt>
      <trkpt lat="42.73527" lon="-0.56804">
        <ele>2221</ele>
        <time>2010-01-01T01:36:09Z</time>
      </trkpt>
      <trkpt lat="42.73519" lon="-0.56801">
        <ele>2219</ele>
        <time>2010-01-01T01:36:13Z</time>
      </trkpt>
      <trkpt lat="42.73513" lon="-0.56801">
        <ele>2219</ele>
        <time>2010-01-01T01:36:15Z</time>
      </trkpt>
      <trkpt lat="42.73483" lon="-0.56791">
        <ele>2219</ele>
        <time>2010-01-01T01:36:28Z</time>
      </trkpt>
      <trkpt lat="42.73477" lon="-0.56786">
        <ele>2220</ele>
        <time>2010-01-01T01:36:30Z</time>
      </trkpt>
      <trkpt lat="42.73473" lon="-0.56785">
        <ele>2220</ele>
        <time>2010-01-01T01:36:32Z</time>
      </trkpt>
      <trkpt lat="42.73464" lon="-0.56776">
        <ele>2222</ele>
        <time>2010-01-01T01:36:36Z</time>
      </trkpt>
      <trkpt lat="42.73451" lon="-0.56768">
        <ele>2225</ele>
        <time>2010-01-01T01:36:42Z</time>
      </trkpt>
      <trkpt lat="42.7343" lon="-0.5675">
        <ele>2231</ele>
        <time>2010-01-01T01:36:52Z</time>
      </trkpt>
      <trkpt lat="42.73423" lon="-0.56748">
        <ele>2233</ele>
        <time>2010-01-01T01:36:55Z</time>
      </trkpt>
      <trkpt lat="42.73418" lon="-0.56744">
        <ele>2234</ele>
        <time>2010-01-01T01:36:57Z</time>
      </trkpt>
      <trkpt lat="42.73414" lon="-0.56744">
        <ele>2236</ele>
        <time>2010-01-01T01:36:59Z</time>
      </trkpt>
      <trkpt lat="42.73411" lon="-0.56747">
        <ele>2237</ele>
        <time>2010-01-01T01:37:00Z</time>
      </trkpt>
      <trkpt lat="42.73408" lon="-0.56752">
        <ele>2239</ele>
        <time>2010-01-01T01:37:02Z</time>
      </trkpt>
      <trkpt lat="42.734" lon="-0.56759">
        <ele>2243</ele>
        <time>2010-01-01T01:37:06Z</time>
      </trkpt>
      <trkpt lat="42.73383" lon="-0.56767">
        <ele>2249</ele>
        <time>2010-01-01T01:37:13Z</time>
      </trkpt>
      <trkpt lat="42.73375" lon="-0.56774">
        <ele>2252</ele>
        <time>2010-01-01T01:37:17Z</time>
      </trkpt>
      <trkpt lat="42.73371" lon="-0.56774">
        <ele>2252</ele>
        <time>2010-01-01T01:37:18Z</time>
      </trkpt>
      <trkpt lat="42.73367" lon="-0.5677">
        <ele>2253</ele>
        <time>2010-01-01T01:37:21Z</time>
      </trkpt>
      <trkpt lat="42.73361" lon="-0.5677">
        <ele>2254</ele>
        <time>2010-01-01T01:37:23Z</time>
      </trkpt>
      <trkpt lat="42.73353" lon="-0.56764">
        <ele>2255</ele>
        <time>2010-01-01T01:37:27Z</time>
      </trkpt>
      <trkpt lat="42.73342" lon="-0.56763">
        <ele>2258</ele>
        <time>2010-01-01T01:37:31Z</time>
      </trkpt>
      <trkpt lat="42.73341" lon="-0.56775">
        <ele>2261</ele>
        <time>2010-01-01T01:37:34Z</time>
      </trkpt>
      <trkpt lat="42.73336" lon="-0.56775">
        <ele>2262</ele>
        <time>2010-01-01T01:37:37Z</time>
      </trkpt>
      <trkpt lat="42.73334" lon="-0.56783">
        <ele>2264</ele>
        <time>2010-01-01T01:37:39Z</time>
      </trkpt>
      <trkpt lat="42.73329" lon="-0.56787">
        <ele>2265</ele>
        <time>2010-01-01T01:37:42Z</time>
      </trkpt>
      <trkpt lat="42.73322" lon="-0.56796">
        <ele>2266</ele>
        <time>2010-01-01T01:37:45Z</time>
      </trkpt>
      <trkpt lat="42.73315" lon="-0.56793">
        <ele>2267</ele>
        <time>2010-01-01T01:37:48Z</time>
      </trkpt>
      <trkpt lat="42.73305" lon="-0.56795">
        <ele>2268</ele>
        <time>2010-01-01T01:37:53Z</time>
      </trkpt>
      <trkpt lat="42.73299" lon="-0.56799">
        <ele>2269</ele>
        <time>2010-01-01T01:37:55Z</time>
      </trkpt>
      <trkpt lat="42.73279" lon="-0.56806">
        <ele>2272</ele>
        <time>2010-01-01T01:38:03Z</time>
      </trkpt>
      <trkpt lat="42.73272" lon="-0.56804">
        <ele>2273</ele>
        <time>2010-01-01T01:38:06Z</time>
      </trkpt>
      <trkpt lat="42.7326" lon="-0.56788">
        <ele>2273</ele>
        <time>2010-01-01T01:38:13Z</time>
      </trkpt>
      <trkpt lat="42.73251" lon="-0.56782">
        <ele>2273</ele>
        <time>2010-01-01T01:38:17Z</time>
      </trkpt>
      <trkpt lat="42.73245" lon="-0.56772">
        <ele>2272</ele>
        <time>2010-01-01T01:38:21Z</time>
      </trkpt>
      <trkpt lat="42.73233" lon="-0.56761">
        <ele>2270</ele>
        <time>2010-01-01T01:38:26Z</time>
      </trkpt>
      <trkpt lat="42.73226" lon="-0.56756">
        <ele>2271</ele>
        <time>2010-01-01T01:38:30Z</time>
      </trkpt>
      <trkpt lat="42.73218" lon="-0.56737">
        <ele>2269</ele>
        <time>2010-01-01T01:38:36Z</time>
      </trkpt>
      <trkpt lat="42.7321" lon="-0.56728">
        <ele>2266</ele>
        <time>2010-01-01T01:38:40Z</time>
      </trkpt>
      <trkpt lat="42.73203" lon="-0.56725">
        <ele>2265</ele>
        <time>2010-01-01T01:38:43Z</time>
      </trkpt>
      <trkpt lat="42.73189" lon="-0.56709">
        <ele>2260</ele>
        <time>2010-01-01T01:38:51Z</time>
      </trkpt>
      <trkpt lat="42.73152" lon="-0.56676">
        <ele>2260</ele>
        <time>2010-01-01T01:39:08Z</time>
      </trkpt>
      <trkpt lat="42.73137" lon="-0.56664">
        <ele>2262</ele>
        <time>2010-01-01T01:39:15Z</time>
      </trkpt>
      <trkpt lat="42.73115" lon="-0.56649">
        <ele>2258</ele>
        <time>2010-01-01T01:39:25Z</time>
      </trkpt>
      <trkpt lat="42.731" lon="-0.56643">
        <ele>2257</ele>
        <time>2010-01-01T01:39:31Z</time>
      </trkpt>
      <trkpt lat="42.73092" lon="-0.56638">
        <ele>2257</ele>
        <time>2010-01-01T01:39:35Z</time>
      </trkpt>
      <trkpt lat="42.73075" lon="-0.56633">
        <ele>2254</ele>
        <time>2010-01-01T01:39:42Z</time>
      </trkpt>
      <trkpt lat="42.73047" lon="-0.56632">
        <ele>2250</ele>
        <time>2010-01-01T01:39:53Z</time>
      </trkpt>
      <trkpt lat="42.73017" lon="-0.56625">
        <ele>2244</ele>
        <time>2010-01-01T01:40:05Z</time>
      </trkpt>
      <trkpt lat="42.73008" lon="-0.56621">
        <ele>2242</ele>
        <time>2010-01-01T01:40:09Z</time>
      </trkpt>
      <trkpt lat="42.72998" lon="-0.56619">
        <ele>2240</ele>
        <time>2010-01-01T01:40:13Z</time>
      </trkpt>
      <trkpt lat="42.72989" lon="-0.56614">
        <ele>2239</ele>
        <time>2010-01-01T01:40:17Z</time>
      </trkpt>
      <trkpt lat="42.72976" lon="-0.56612">
        <ele>2239</ele>
        <time>2010-01-01T01:40:22Z</time>
      </trkpt>
      <trkpt lat="42.72933" lon="-0.56594">
        <ele>2235</ele>
        <time>2010-01-01T01:40:40Z</time>
      </trkpt>
      <trkpt lat="42.72927" lon="-0.56594">
        <ele>2234</ele>
        <time>2010-01-01T01:40:42Z</time>
      </trkpt>
      <trkpt lat="42.72907" lon="-0.566">
        <ele>2231</ele>
        <time>2010-01-01T01:40:51Z</time>
      </trkpt>
      <trkpt lat="42.72884" lon="-0.5661">
        <ele>2226</ele>
        <time>2010-01-01T01:41:01Z</time>
      </trkpt>
      <trkpt lat="42.72876" lon="-0.56609">
        <ele>2224</ele>
        <time>2010-01-01T01:41:04Z</time>
      </trkpt>
      <trkpt lat="42.72862" lon="-0.56614">
        <ele>2219</ele>
        <time>2010-01-01T01:41:10Z</time>
      </trkpt>
      <trkpt lat="42.72855" lon="-0.56619">
        <ele>2216</ele>
        <time>2010-01-01T01:41:13Z</time>
      </trkpt>
      <trkpt lat="42.72848" lon="-0.56621">
        <ele>2213</ele>
        <time>2010-01-01T01:41:16Z</time>
      </trkpt>
      <trkpt lat="42.7284" lon="-0.56625">
        <ele>2210</ele>
        <time>2010-01-01T01:41:19Z</time>
      </trkpt>
      <trkpt lat="42.72829" lon="-0.56628">
        <ele>2207</ele>
        <time>2010-01-01T01:41:24Z</time>
      </trkpt>
      <trkpt lat="42.72814" lon="-0.56637">
        <ele>2204</ele>
        <time>2010-01-01T01:41:30Z</time>
      </trkpt>
      <trkpt lat="42.72805" lon="-0.5664">
        <ele>2202</ele>
        <time>2010-01-01T01:41:34Z</time>
      </trkpt>
      <trkpt lat="42.72766" lon="-0.56667">
        <ele>2193</ele>
        <time>2010-01-01T01:41:51Z</time>
      </trkpt>
      <trkpt lat="42.72754" lon="-0.56669">
        <ele>2190</ele>
        <time>2010-01-01T01:41:56Z</time>
      </trkpt>
      <trkpt lat="42.72731" lon="-0.56686">
        <ele>2177</ele>
        <time>2010-01-01T01:42:07Z</time>
      </trkpt>
      <trkpt lat="42.72694" lon="-0.56707">
        <ele>2168</ele>
        <time>2010-01-01T01:42:23Z</time>
      </trkpt>
      <trkpt lat="42.72683" lon="-0.56711">
        <ele>2168</ele>
        <time>2010-01-01T01:42:27Z</time>
      </trkpt>
      <trkpt lat="42.72672" lon="-0.56718">
        <ele>2168</ele>
        <time>2010-01-01T01:42:32Z</time>
      </trkpt>
      <trkpt lat="42.72663" lon="-0.56721">
        <ele>2168</ele>
        <time>2010-01-01T01:42:36Z</time>
      </trkpt>
      <trkpt lat="42.72646" lon="-0.56732">
        <ele>2165</ele>
        <time>2010-01-01T01:42:43Z</time>
      </trkpt>
      <trkpt lat="42.72634" lon="-0.56734">
        <ele>2164</ele>
        <time>2010-01-01T01:42:48Z</time>
      </trkpt>
      <trkpt lat="42.72626" lon="-0.5673">
        <ele>2164</ele>
        <time>2010-01-01T01:42:52Z</time>
      </trkpt>
      <trkpt lat="42.72599" lon="-0.56744">
        <ele>2158</ele>
        <time>2010-01-01T01:43:03Z</time>
      </trkpt>
      <trkpt lat="42.72576" lon="-0.56747">
        <ele>2157</ele>
        <time>2010-01-01T01:43:12Z</time>
      </trkpt>
      <trkpt lat="42.72559" lon="-0.56759">
        <ele>2153</ele>
        <time>2010-01-01T01:43:20Z</time>
      </trkpt>
      <trkpt lat="42.72546" lon="-0.56765">
        <ele>2151</ele>
        <time>2010-01-01T01:43:26Z</time>
      </trkpt>
      <trkpt lat="42.72528" lon="-0.56778">
        <ele>2148</ele>
        <time>2010-01-01T01:43:34Z</time>
      </trkpt>
      <trkpt lat="42.72482" lon="-0.56805">
        <ele>2144</ele>
        <time>2010-01-01T01:43:54Z</time>
      </trkpt>
      <trkpt lat="42.72443" lon="-0.56841">
        <ele>2142</ele>
        <time>2010-01-01T01:44:12Z</time>
      </trkpt>
      <trkpt lat="42.72431" lon="-0.56849">
        <ele>2138</ele>
        <time>2010-01-01T01:44:18Z</time>
      </trkpt>
      <trkpt lat="42.72417" lon="-0.56853">
        <ele>2135</ele>
        <time>2010-01-01T01:44:24Z</time>
      </trkpt>
      <trkpt lat="42.72408" lon="-0.56853">
        <ele>2134</ele>
        <time>2010-01-01T01:44:27Z</time>
      </trkpt>
      <trkpt lat="42.72404" lon="-0.56855">
        <ele>2134</ele>
        <time>2010-01-01T01:44:29Z</time>
      </trkpt>
      <trkpt lat="42.72376" lon="-0.56846">
        <ele>2132</ele>
        <time>2010-01-01T01:44:40Z</time>
      </trkpt>
      <trkpt lat="42.72374" lon="-0.56847">
        <ele>2132</ele>
        <time>2010-01-01T01:44:41Z</time>
      </trkpt>
      <trkpt lat="42.72365" lon="-0.56858">
        <ele>2130</ele>
        <time>2010-01-01T01:44:46Z</time>
      </trkpt>
      <trkpt lat="42.72356" lon="-0.5686">
        <ele>2129</ele>
        <time>2010-01-01T01:44:50Z</time>
      </trkpt>
      <trkpt lat="42.7234" lon="-0.56859">
        <ele>2128</ele>
        <time>2010-01-01T01:44:56Z</time>
      </trkpt>
      <trkpt lat="42.72328" lon="-0.56862">
        <ele>2127</ele>
        <time>2010-01-01T01:45:01Z</time>
      </trkpt>
      <trkpt lat="42.72313" lon="-0.56868">
        <ele>2124</ele>
        <time>2010-01-01T01:45:07Z</time>
      </trkpt>
      <trkpt lat="42.72244" lon="-0.5692">
        <ele>2113</ele>
        <time>2010-01-01T01:45:39Z</time>
      </trkpt>
      <trkpt lat="42.72227" lon="-0.56924">
        <ele>2112</ele>
        <time>2010-01-01T01:45:46Z</time>
      </trkpt>
      <trkpt lat="42.72217" lon="-0.56917">
        <ele>2114</ele>
        <time>2010-01-01T01:45:50Z</time>
      </trkpt>
      <trkpt lat="42.72173" lon="-0.56866">
        <ele>2115</ele>
        <time>2010-01-01T01:46:13Z</time>
      </trkpt>
      <trkpt lat="42.72158" lon="-0.56853">
        <ele>2112</ele>
        <time>2010-01-01T01:46:21Z</time>
      </trkpt>
      <trkpt lat="42.72139" lon="-0.56846">
        <ele>2106</ele>
        <time>2010-01-01T01:46:29Z</time>
      </trkpt>
      <trkpt lat="42.72055" lon="-0.5684">
        <ele>2103</ele>
        <time>2010-01-01T01:47:02Z</time>
      </trkpt>
      <trkpt lat="42.72036" lon="-0.56837">
        <ele>2102</ele>
        <time>2010-01-01T01:47:10Z</time>
      </trkpt>
      <trkpt lat="42.71999" lon="-0.56825">
        <ele>2098</ele>
        <time>2010-01-01T01:47:25Z</time>
      </trkpt>
      <trkpt lat="42.71954" lon="-0.56821">
        <ele>2094</ele>
        <time>2010-01-01T01:47:43Z</time>
      </trkpt>
      <trkpt lat="42.71923" lon="-0.56823">
        <ele>2094</ele>
        <time>2010-01-01T01:47:56Z</time>
      </trkpt>
      <trkpt lat="42.71889" lon="-0.56831">
        <ele>2097</ele>
        <time>2010-01-01T01:48:10Z</time>
      </trkpt>
      <trkpt lat="42.71856" lon="-0.5685">
        <ele>2093</ele>
        <time>2010-01-01T01:48:24Z</time>
      </trkpt>
      <trkpt lat="42.71793" lon="-0.56908">
        <ele>2087</ele>
        <time>2010-01-01T01:48:54Z</time>
      </trkpt>
      <trkpt lat="42.71757" lon="-0.56937">
        <ele>2082</ele>
        <time>2010-01-01T01:49:11Z</time>
      </trkpt>
      <trkpt lat="42.71718" lon="-0.56965">
        <ele>2077</ele>
        <time>2010-01-01T01:49:28Z</time>
      </trkpt>
      <trkpt lat="42.71687" lon="-0.56983">
        <ele>2074</ele>
        <time>2010-01-01T01:49:42Z</time>
      </trkpt>
      <trkpt lat="42.71637" lon="-0.57002">
        <ele>2075</ele>
        <time>2010-01-01T01:50:03Z</time>
      </trkpt>
      <trkpt lat="42.71608" lon="-0.57022">
        <ele>2068</ele>
        <time>2010-01-01T01:50:16Z</time>
      </trkpt>
      <trkpt lat="42.71605" lon="-0.57025">
        <ele>2067</ele>
        <time>2010-01-01T01:50:18Z</time>
      </trkpt>
      <trkpt lat="42.71595" lon="-0.5703">
        <ele>2065</ele>
        <time>2010-01-01T01:50:21Z</time>
      </trkpt>
      <trkpt lat="42.71589" lon="-0.5703">
        <ele>2065</ele>
        <time>2010-01-01T01:50:24Z</time>
      </trkpt>
      <trkpt lat="42.71575" lon="-0.57042">
        <ele>2059</ele>
        <time>2010-01-01T01:50:31Z</time>
      </trkpt>
      <trkpt lat="42.71568" lon="-0.57046">
        <ele>2057</ele>
        <time>2010-01-01T01:50:34Z</time>
      </trkpt>
      <trkpt lat="42.71559" lon="-0.57054">
        <ele>2053</ele>
        <time>2010-01-01T01:50:38Z</time>
      </trkpt>
      <trkpt lat="42.7155" lon="-0.57059">
        <ele>2050</ele>
        <time>2010-01-01T01:50:42Z</time>
      </trkpt>
      <trkpt lat="42.71546" lon="-0.57073">
        <ele>2045</ele>
        <time>2010-01-01T01:50:46Z</time>
      </trkpt>
      <trkpt lat="42.71538" lon="-0.57081">
        <ele>2041</ele>
        <time>2010-01-01T01:50:50Z</time>
      </trkpt>
      <trkpt lat="42.71521" lon="-0.57108">
        <ele>2032</ele>
        <time>2010-01-01T01:51:01Z</time>
      </trkpt>
      <trkpt lat="42.71515" lon="-0.57114">
        <ele>2029</ele>
        <time>2010-01-01T01:51:04Z</time>
      </trkpt>
      <trkpt lat="42.71507" lon="-0.57126">
        <ele>2026</ele>
        <time>2010-01-01T01:51:08Z</time>
      </trkpt>
      <trkpt lat="42.71497" lon="-0.57135">
        <ele>2022</ele>
        <time>2010-01-01T01:51:13Z</time>
      </trkpt>
      <trkpt lat="42.71468" lon="-0.57176">
        <ele>2013</ele>
        <time>2010-01-01T01:51:30Z</time>
      </trkpt>
      <trkpt lat="42.71423" lon="-0.57228">
        <ele>2003</ele>
        <time>2010-01-01T01:51:53Z</time>
      </trkpt>
      <trkpt lat="42.71413" lon="-0.57236">
        <ele>2001</ele>
        <time>2010-01-01T01:51:58Z</time>
      </trkpt>
      <trkpt lat="42.71404" lon="-0.57238">
        <ele>2000</ele>
        <time>2010-01-01T01:52:02Z</time>
      </trkpt>
      <trkpt lat="42.71309" lon="-0.57339">
        <ele>1990</ele>
        <time>2010-01-01T01:52:50Z</time>
      </trkpt>
      <trkpt lat="42.71275" lon="-0.57382">
        <ele>1987</ele>
        <time>2010-01-01T01:53:09Z</time>
      </trkpt>
      <trkpt lat="42.71191" lon="-0.57496">
        <ele>1980</ele>
        <time>2010-01-01T01:53:56Z</time>
      </trkpt>
      <trkpt lat="42.7117" lon="-0.57522">
        <ele>1977</ele>
        <time>2010-01-01T01:54:07Z</time>
      </trkpt>
      <trkpt lat="42.71162" lon="-0.57526">
        <ele>1977</ele>
        <time>2010-01-01T01:54:11Z</time>
      </trkpt>
      <trkpt lat="42.71155" lon="-0.57535">
        <ele>1977</ele>
        <time>2010-01-01T01:54:15Z</time>
      </trkpt>
      <trkpt lat="42.71135" lon="-0.57553">
        <ele>1980</ele>
        <time>2010-01-01T01:54:24Z</time>
      </trkpt>
      <trkpt lat="42.71105" lon="-0.57587">
        <ele>1984</ele>
        <time>2010-01-01T01:54:40Z</time>
      </trkpt>
      <trkpt lat="42.71093" lon="-0.57598">
        <ele>1983</ele>
        <time>2010-01-01T01:54:46Z</time>
      </trkpt>
      <trkpt lat="42.71083" lon="-0.57604">
        <ele>1982</ele>
        <time>2010-01-01T01:54:50Z</time>
      </trkpt>
      <trkpt lat="42.71055" lon="-0.57615">
        <ele>1977</ele>
        <time>2010-01-01T01:55:02Z</time>
      </trkpt>
      <trkpt lat="42.7103" lon="-0.5762">
        <ele>1976</ele>
        <time>2010-01-01T01:55:12Z</time>
      </trkpt>
      <trkpt lat="42.7101" lon="-0.57621">
        <ele>1975</ele>
        <time>2010-01-01T01:55:20Z</time>
      </trkpt>
      <trkpt lat="42.70988" lon="-0.5762">
        <ele>1972</ele>
        <time>2010-01-01T01:55:29Z</time>
      </trkpt>
      <trkpt lat="42.70977" lon="-0.57623">
        <ele>1972</ele>
        <time>2010-01-01T01:55:33Z</time>
      </trkpt>
      <trkpt lat="42.70947" lon="-0.57642">
        <ele>1978</ele>
        <time>2010-01-01T01:55:46Z</time>
      </trkpt>
      <trkpt lat="42.70934" lon="-0.57647">
        <ele>1977</ele>
        <time>2010-01-01T01:55:52Z</time>
      </trkpt>
      <trkpt lat="42.70923" lon="-0.57647">
        <ele>1975</ele>
        <time>2010-01-01T01:55:56Z</time>
      </trkpt>
      <trkpt lat="42.70894" lon="-0.57642">
        <ele>1970</ele>
        <time>2010-01-01T01:56:08Z</time>
      </trkpt>
      <trkpt lat="42.70883" lon="-0.57636">
        <ele>1968</ele>
        <time>2010-01-01T01:56:13Z</time>
      </trkpt>
      <trkpt lat="42.70853" lon="-0.57629">
        <ele>1971</ele>
        <time>2010-01-01T01:56:25Z</time>
      </trkpt>
      <trkpt lat="42.70843" lon="-0.57629">
        <ele>1973</ele>
        <time>2010-01-01T01:56:29Z</time>
      </trkpt>
      <trkpt lat="42.7082" lon="-0.57626">
        <ele>1974</ele>
        <time>2010-01-01T01:56:38Z</time>
      </trkpt>
      <trkpt lat="42.7081" lon="-0.57627">
        <ele>1975</ele>
        <time>2010-01-01T01:56:42Z</time>
      </trkpt>
      <trkpt lat="42.70747" lon="-0.57637">
        <ele>1966</ele>
        <time>2010-01-01T01:57:07Z</time>
      </trkpt>
      <trkpt lat="42.70726" lon="-0.57634">
        <ele>1963</ele>
        <time>2010-01-01T01:57:16Z</time>
      </trkpt>
      <trkpt lat="42.70714" lon="-0.57635">
        <ele>1962</ele>
        <time>2010-01-01T01:57:21Z</time>
      </trkpt>
      <trkpt lat="42.70681" lon="-0.57639">
        <ele>1959</ele>
        <time>2010-01-01T01:57:34Z</time>
      </trkpt>
      <trkpt lat="42.70663" lon="-0.57646">
        <ele>1956</ele>
        <time>2010-01-01T01:57:41Z</time>
      </trkpt>
      <trkpt lat="42.7062" lon="-0.57648">
        <ele>1951</ele>
        <time>2010-01-01T01:57:59Z</time>
      </trkpt>
      <trkpt lat="42.70608" lon="-0.57651">
        <ele>1949</ele>
        <time>2010-01-01T01:58:04Z</time>
      </trkpt>
      <trkpt lat="42.70569" lon="-0.57652">
        <ele>1937</ele>
        <time>2010-01-01T01:58:19Z</time>
      </trkpt>
      <trkpt lat="42.70556" lon="-0.57647">
        <ele>1933</ele>
        <time>2010-01-01T01:58:24Z</time>
      </trkpt>
      <trkpt lat="42.70538" lon="-0.57644">
        <ele>1929</ele>
        <time>2010-01-01T01:58:32Z</time>
      </trkpt>
      <trkpt lat="42.70514" lon="-0.57636">
        <ele>1924</ele>
        <time>2010-01-01T01:58:42Z</time>
      </trkpt>
      <trkpt lat="42.70499" lon="-0.57637">
        <ele>1923</ele>
        <time>2010-01-01T01:58:48Z</time>
      </trkpt>
      <trkpt lat="42.70477" lon="-0.57627">
        <ele>1919</ele>
        <time>2010-01-01T01:58:57Z</time>
      </trkpt>
      <trkpt lat="42.70462" lon="-0.57617">
        <ele>1916</ele>
        <time>2010-01-01T01:59:04Z</time>
      </trkpt>
      <trkpt lat="42.70439" lon="-0.57609">
        <ele>1911</ele>
        <time>2010-01-01T01:59:13Z</time>
      </trkpt>
      <trkpt lat="42.70431" lon="-0.576">
        <ele>1909</ele>
        <time>2010-01-01T01:59:17Z</time>
      </trkpt>
      <trkpt lat="42.70395" lon="-0.57573">
        <ele>1905</ele>
        <time>2010-01-01T01:59:34Z</time>
      </trkpt>
      <trkpt lat="42.70364" lon="-0.5756">
        <ele>1897</ele>
        <time>2010-01-01T01:59:47Z</time>
      </trkpt>
      <trkpt lat="42.70351" lon="-0.57552">
        <ele>1894</ele>
        <time>2010-01-01T01:59:52Z</time>
      </trkpt>
      <trkpt lat="42.70342" lon="-0.57545">
        <ele>1891</ele>
        <time>2010-01-01T01:59:56Z</time>
      </trkpt>
      <trkpt lat="42.70334" lon="-0.57535">
        <ele>1888</ele>
        <time>2010-01-01T02:00:01Z</time>
      </trkpt>
      <trkpt lat="42.70326" lon="-0.57531">
        <ele>1885</ele>
        <time>2010-01-01T02:00:05Z</time>
      </trkpt>
      <trkpt lat="42.70317" lon="-0.57529">
        <ele>1882</ele>
        <time>2010-01-01T02:00:08Z</time>
      </trkpt>
      <trkpt lat="42.70296" lon="-0.57529">
        <ele>1876</ele>
        <time>2010-01-01T02:00:16Z</time>
      </trkpt>
      <trkpt lat="42.70271" lon="-0.57519">
        <ele>1870</ele>
        <time>2010-01-01T02:00:27Z</time>
      </trkpt>
      <trkpt lat="42.70263" lon="-0.57512">
        <ele>1869</ele>
        <time>2010-01-01T02:00:31Z</time>
      </trkpt>
      <trkpt lat="42.70243" lon="-0.57503">
        <ele>1865</ele>
        <time>2010-01-01T02:00:39Z</time>
      </trkpt>
      <trkpt lat="42.70236" lon="-0.57497">
        <ele>1864</ele>
        <time>2010-01-01T02:00:43Z</time>
      </trkpt>
      <trkpt lat="42.70234" lon="-0.57497">
        <ele>1864</ele>
        <time>2010-01-01T02:00:43Z</time>
      </trkpt>
      <trkpt lat="42.70233" lon="-0.575">
        <ele>1863</ele>
        <time>2010-01-01T02:00:44Z</time>
      </trkpt>
      <trkpt lat="42.70229" lon="-0.57503">
        <ele>1862</ele>
        <time>2010-01-01T02:00:46Z</time>
      </trkpt>
      <trkpt lat="42.70187" lon="-0.57497">
        <ele>1854</ele>
        <time>2010-01-01T02:01:03Z</time>
      </trkpt>
      <trkpt lat="42.70168" lon="-0.57487">
        <ele>1850</ele>
        <time>2010-01-01T02:01:11Z</time>
      </trkpt>
      <trkpt lat="42.70159" lon="-0.57487">
        <ele>1847</ele>
        <time>2010-01-01T02:01:15Z</time>
      </trkpt>
      <trkpt lat="42.70143" lon="-0.57479">
        <ele>1843</ele>
        <time>2010-01-01T02:01:22Z</time>
      </trkpt>
      <trkpt lat="42.70127" lon="-0.57473">
        <ele>1839</ele>
        <time>2010-01-01T02:01:28Z</time>
      </trkpt>
      <trkpt lat="42.70108" lon="-0.57472">
        <ele>1835</ele>
        <time>2010-01-01T02:01:36Z</time>
      </trkpt>
      <trkpt lat="42.70094" lon="-0.57475">
        <ele>1832</ele>
        <time>2010-01-01T02:01:41Z</time>
      </trkpt>
      <trkpt lat="42.70089" lon="-0.57474">
        <ele>1831</ele>
        <time>2010-01-01T02:01:43Z</time>
      </trkpt>
      <trkpt lat="42.70079" lon="-0.57465">
        <ele>1830</ele>
        <time>2010-01-01T02:01:48Z</time>
      </trkpt>
      <trkpt lat="42.70059" lon="-0.57457">
        <ele>1827</ele>
        <time>2010-01-01T02:01:56Z</time>
      </trkpt>
      <trkpt lat="42.70049" lon="-0.57455">
        <ele>1825</ele>
        <time>2010-01-01T02:02:01Z</time>
      </trkpt>
      <trkpt lat="42.70017" lon="-0.57441">
        <ele>1820</ele>
        <time>2010-01-01T02:02:14Z</time>
      </trkpt>
      <trkpt lat="42.70001" lon="-0.5743">
        <ele>1818</ele>
        <time>2010-01-01T02:02:21Z</time>
      </trkpt>
      <trkpt lat="42.69987" lon="-0.57429">
        <ele>1815</ele>
        <time>2010-01-01T02:02:27Z</time>
      </trkpt>
      <trkpt lat="42.6998" lon="-0.57427">
        <ele>1814</ele>
        <time>2010-01-01T02:02:29Z</time>
      </trkpt>
      <trkpt lat="42.6995" lon="-0.57431">
        <ele>1806</ele>
        <time>2010-01-01T02:02:41Z</time>
      </trkpt>
      <trkpt lat="42.69943" lon="-0.57428">
        <ele>1804</ele>
        <time>2010-01-01T02:02:44Z</time>
      </trkpt>
      <trkpt lat="42.69909" lon="-0.57426">
        <ele>1795</ele>
        <time>2010-01-01T02:02:58Z</time>
      </trkpt>
      <trkpt lat="42.69902" lon="-0.57427">
        <ele>1793</ele>
        <time>2010-01-01T02:03:01Z</time>
      </trkpt>
      <trkpt lat="42.69901" lon="-0.57428">
        <ele>1792</ele>
        <time>2010-01-01T02:03:02Z</time>
      </trkpt>
      <trkpt lat="42.699" lon="-0.57443">
        <ele>1790</ele>
        <time>2010-01-01T02:03:06Z</time>
      </trkpt>
      <trkpt lat="42.69895" lon="-0.57451">
        <ele>1788</ele>
        <time>2010-01-01T02:03:09Z</time>
      </trkpt>
      <trkpt lat="42.69884" lon="-0.57442">
        <ele>1785</ele>
        <time>2010-01-01T02:03:15Z</time>
      </trkpt>
      <trkpt lat="42.69873" lon="-0.57447">
        <ele>1782</ele>
        <time>2010-01-01T02:03:19Z</time>
      </trkpt>
      <trkpt lat="42.69862" lon="-0.57447">
        <ele>1778</ele>
        <time>2010-01-01T02:03:23Z</time>
      </trkpt>
      <trkpt lat="42.69839" lon="-0.57445">
        <ele>1771</ele>
        <time>2010-01-01T02:03:33Z</time>
      </trkpt>
      <trkpt lat="42.69808" lon="-0.57438">
        <ele>1765</ele>
        <time>2010-01-01T02:03:45Z</time>
      </trkpt>
      <trkpt lat="42.6975" lon="-0.57443">
        <ele>1752</ele>
        <time>2010-01-01T02:04:09Z</time>
      </trkpt>
      <trkpt lat="42.69738" lon="-0.5744">
        <ele>1750</ele>
        <time>2010-01-01T02:04:14Z</time>
      </trkpt>
      <trkpt lat="42.69731" lon="-0.57445">
        <ele>1749</ele>
        <time>2010-01-01T02:04:17Z</time>
      </trkpt>
      <trkpt lat="42.6971" lon="-0.57448">
        <ele>1745</ele>
        <time>2010-01-01T02:04:25Z</time>
      </trkpt>
      <trkpt lat="42.69699" lon="-0.57448">
        <ele>1743</ele>
        <time>2010-01-01T02:04:30Z</time>
      </trkpt>
      <trkpt lat="42.69691" lon="-0.57454">
        <ele>1740</ele>
        <time>2010-01-01T02:04:33Z</time>
      </trkpt>
      <trkpt lat="42.69671" lon="-0.57448">
        <ele>1737</ele>
        <time>2010-01-01T02:04:42Z</time>
      </trkpt>
      <trkpt lat="42.69664" lon="-0.57447">
        <ele>1736</ele>
        <time>2010-01-01T02:04:44Z</time>
      </trkpt>
      <trkpt lat="42.69653" lon="-0.57448">
        <ele>1733</ele>
        <time>2010-01-01T02:04:49Z</time>
      </trkpt>
      <trkpt lat="42.69643" lon="-0.5744">
        <ele>1733</ele>
        <time>2010-01-01T02:04:53Z</time>
      </trkpt>
      <trkpt lat="42.69635" lon="-0.57436">
        <ele>1732</ele>
        <time>2010-01-01T02:04:57Z</time>
      </trkpt>
      <trkpt lat="42.69626" lon="-0.57433">
        <ele>1731</ele>
        <time>2010-01-01T02:05:01Z</time>
      </trkpt>
      <trkpt lat="42.69613" lon="-0.57439">
        <ele>1727</ele>
        <time>2010-01-01T02:05:06Z</time>
      </trkpt>
      <trkpt lat="42.69608" lon="-0.57444">
        <ele>1726</ele>
        <time>2010-01-01T02:05:08Z</time>
      </trkpt>
      <trkpt lat="42.69598" lon="-0.5745">
        <ele>1724</ele>
        <time>2010-01-01T02:05:13Z</time>
      </trkpt>
      <trkpt lat="42.69576" lon="-0.5746">
        <ele>1719</ele>
        <time>2010-01-01T02:05:22Z</time>
      </trkpt>
      <trkpt lat="42.69554" lon="-0.57463">
        <ele>1715</ele>
        <time>2010-01-01T02:05:31Z</time>
      </trkpt>
      <trkpt lat="42.69534" lon="-0.57471">
        <ele>1708</ele>
        <time>2010-01-01T02:05:39Z</time>
      </trkpt>
      <trkpt lat="42.69523" lon="-0.57474">
        <ele>1705</ele>
        <time>2010-01-01T02:05:44Z</time>
      </trkpt>
      <trkpt lat="42.69503" lon="-0.57484">
        <ele>1698</ele>
        <time>2010-01-01T02:05:53Z</time>
      </trkpt>
      <trkpt lat="42.69489" lon="-0.575">
        <ele>1694</ele>
        <time>2010-01-01T02:06:00Z</time>
      </trkpt>
      <trkpt lat="42.6947" lon="-0.57499">
        <ele>1690</ele>
        <time>2010-01-01T02:06:08Z</time>
      </trkpt>
      <trkpt lat="42.69466" lon="-0.57507">
        <ele>1689</ele>
        <time>2010-01-01T02:06:10Z</time>
      </trkpt>
      <trkpt lat="42.69457" lon="-0.57506">
        <ele>1687</ele>
        <time>2010-01-01T02:06:14Z</time>
      </trkpt>
      <trkpt lat="42.6943" lon="-0.57522">
        <ele>1681</ele>
        <time>2010-01-01T02:06:26Z</time>
      </trkpt>
      <trkpt lat="42.6942" lon="-0.57524">
        <ele>1678</ele>
        <time>2010-01-01T02:06:30Z</time>
      </trkpt>
      <trkpt lat="42.69402" lon="-0.57532">
        <ele>1672</ele>
        <time>2010-01-01T02:06:37Z</time>
      </trkpt>
      <trkpt lat="42.69389" lon="-0.57533">
        <ele>1668</ele>
        <time>2010-01-01T02:06:42Z</time>
      </trkpt>
      <trkpt lat="42.69386" lon="-0.57537">
        <ele>1667</ele>
        <time>2010-01-01T02:06:44Z</time>
      </trkpt>
      <trkpt lat="42.69358" lon="-0.57559">
        <ele>1656</ele>
        <time>2010-01-01T02:06:57Z</time>
      </trkpt>
      <trkpt lat="42.69346" lon="-0.57563">
        <ele>1653</ele>
        <time>2010-01-01T02:07:02Z</time>
      </trkpt>
      <trkpt lat="42.69328" lon="-0.57575">
        <ele>1648</ele>
        <time>2010-01-01T02:07:10Z</time>
      </trkpt>
      <trkpt lat="42.69318" lon="-0.57576">
        <ele>1647</ele>
        <time>2010-01-01T02:07:14Z</time>
      </trkpt>
      <trkpt lat="42.69308" lon="-0.57581">
        <ele>1645</ele>
        <time>2010-01-01T02:07:18Z</time>
      </trkpt>
      <trkpt lat="42.69296" lon="-0.57595">
        <ele>1642</ele>
        <time>2010-01-01T02:07:24Z</time>
      </trkpt>
      <trkpt lat="42.69271" lon="-0.57608">
        <ele>1636</ele>
        <time>2010-01-01T02:07:35Z</time>
      </trkpt>
      <trkpt lat="42.69263" lon="-0.57617">
        <ele>1635</ele>
        <time>2010-01-01T02:07:39Z</time>
      </trkpt>
      <trkpt lat="42.69255" lon="-0.57623">
        <ele>1633</ele>
        <time>2010-01-01T02:07:43Z</time>
      </trkpt>
      <trkpt lat="42.69244" lon="-0.57634">
        <ele>1632</ele>
        <time>2010-01-01T02:07:48Z</time>
      </trkpt>
      <trkpt lat="42.6923" lon="-0.57653">
        <ele>1630</ele>
        <time>2010-01-01T02:07:56Z</time>
      </trkpt>
      <trkpt lat="42.6922" lon="-0.57656">
        <ele>1629</ele>
        <time>2010-01-01T02:08:00Z</time>
      </trkpt>
      <trkpt lat="42.69219" lon="-0.57672">
        <ele>1628</ele>
        <time>2010-01-01T02:08:05Z</time>
      </trkpt>
      <trkpt lat="42.69214" lon="-0.57681">
        <ele>1627</ele>
        <time>2010-01-01T02:08:08Z</time>
      </trkpt>
      <trkpt lat="42.69199" lon="-0.57693">
        <ele>1625</ele>
        <time>2010-01-01T02:08:15Z</time>
      </trkpt>
      <trkpt lat="42.69195" lon="-0.57701">
        <ele>1623</ele>
        <time>2010-01-01T02:08:18Z</time>
      </trkpt>
      <trkpt lat="42.69189" lon="-0.57704">
        <ele>1621</ele>
        <time>2010-01-01T02:08:21Z</time>
      </trkpt>
      <trkpt lat="42.69179" lon="-0.57702">
        <ele>1619</ele>
        <time>2010-01-01T02:08:25Z</time>
      </trkpt>
      <trkpt lat="42.69167" lon="-0.57703">
        <ele>1616</ele>
        <time>2010-01-01T02:08:30Z</time>
      </trkpt>
      <trkpt lat="42.6916" lon="-0.57711">
        <ele>1613</ele>
        <time>2010-01-01T02:08:33Z</time>
      </trkpt>
      <trkpt lat="42.69154" lon="-0.57715">
        <ele>1611</ele>
        <time>2010-01-01T02:08:36Z</time>
      </trkpt>
      <trkpt lat="42.69149" lon="-0.57715">
        <ele>1609</ele>
        <time>2010-01-01T02:08:38Z</time>
      </trkpt>
      <trkpt lat="42.69135" lon="-0.57711">
        <ele>1605</ele>
        <time>2010-01-01T02:08:44Z</time>
      </trkpt>
      <trkpt lat="42.69121" lon="-0.57711">
        <ele>1601</ele>
        <time>2010-01-01T02:08:49Z</time>
      </trkpt>
      <trkpt lat="42.69107" lon="-0.57712">
        <ele>1598</ele>
        <time>2010-01-01T02:08:55Z</time>
      </trkpt>
      <trkpt lat="42.69094" lon="-0.57705">
        <ele>1595</ele>
        <time>2010-01-01T02:09:00Z</time>
      </trkpt>
      <trkpt lat="42.69083" lon="-0.57697">
        <ele>1592</ele>
        <time>2010-01-01T02:09:05Z</time>
      </trkpt>
      <trkpt lat="42.69074" lon="-0.57687">
        <ele>1590</ele>
        <time>2010-01-01T02:09:10Z</time>
      </trkpt>
      <trkpt lat="42.69063" lon="-0.57678">
        <ele>1586</ele>
        <time>2010-01-01T02:09:15Z</time>
      </trkpt>
      <trkpt lat="42.69056" lon="-0.57671">
        <ele>1584</ele>
        <time>2010-01-01T02:09:19Z</time>
      </trkpt>
      <trkpt lat="42.69047" lon="-0.57661">
        <ele>1582</ele>
        <time>2010-01-01T02:09:23Z</time>
      </trkpt>
      <trkpt lat="42.6904" lon="-0.57648">
        <ele>1580</ele>
        <time>2010-01-01T02:09:28Z</time>
      </trkpt>
      <trkpt lat="42.69032" lon="-0.57638">
        <ele>1579</ele>
        <time>2010-01-01T02:09:32Z</time>
      </trkpt>
      <trkpt lat="42.6901" lon="-0.57633">
        <ele>1575</ele>
        <time>2010-01-01T02:09:41Z</time>
      </trkpt>
      <trkpt lat="42.69002" lon="-0.57629">
        <ele>1573</ele>
        <time>2010-01-01T02:09:45Z</time>
      </trkpt>
      <trkpt lat="42.68997" lon="-0.57621">
        <ele>1572</ele>
        <time>2010-01-01T02:09:48Z</time>
      </trkpt>
      <trkpt lat="42.68991" lon="-0.57617">
        <ele>1571</ele>
        <time>2010-01-01T02:09:51Z</time>
      </trkpt>
      <trkpt lat="42.68985" lon="-0.57613">
        <ele>1569</ele>
        <time>2010-01-01T02:09:53Z</time>
      </trkpt>
      <trkpt lat="42.68977" lon="-0.57612">
        <ele>1568</ele>
        <time>2010-01-01T02:09:56Z</time>
      </trkpt>
      <trkpt lat="42.68967" lon="-0.57624">
        <ele>1567</ele>
        <time>2010-01-01T02:10:02Z</time>
      </trkpt>
      <trkpt lat="42.6896" lon="-0.57655">
        <ele>1567</ele>
        <time>2010-01-01T02:10:11Z</time>
      </trkpt>
      <trkpt lat="42.6895" lon="-0.57682">
        <ele>1565</ele>
        <time>2010-01-01T02:10:20Z</time>
      </trkpt>
      <trkpt lat="42.68944" lon="-0.57713">
        <ele>1562</ele>
        <time>2010-01-01T02:10:30Z</time>
      </trkpt>
      <trkpt lat="42.68941" lon="-0.57746">
        <ele>1560</ele>
        <time>2010-01-01T02:10:39Z</time>
      </trkpt>
      <trkpt lat="42.68936" lon="-0.57765">
        <ele>1558</ele>
        <time>2010-01-01T02:10:45Z</time>
      </trkpt>
      <trkpt lat="42.68934" lon="-0.57783">
        <ele>1556</ele>
        <time>2010-01-01T02:10:51Z</time>
      </trkpt>
      <trkpt lat="42.68936" lon="-0.57812">
        <ele>1554</ele>
        <time>2010-01-01T02:10:59Z</time>
      </trkpt>
      <trkpt lat="42.68934" lon="-0.5782">
        <ele>1553</ele>
        <time>2010-01-01T02:11:02Z</time>
      </trkpt>
      <trkpt lat="42.68928" lon="-0.57838">
        <ele>1550</ele>
        <time>2010-01-01T02:11:08Z</time>
      </trkpt>
      <trkpt lat="42.68927" lon="-0.57851">
        <ele>1549</ele>
        <time>2010-01-01T02:11:11Z</time>
      </trkpt>
      <trkpt lat="42.68928" lon="-0.57875">
        <ele>1546</ele>
        <time>2010-01-01T02:11:18Z</time>
      </trkpt>
      <trkpt lat="42.68909" lon="-0.57897">
        <ele>1542</ele>
        <time>2010-01-01T02:11:29Z</time>
      </trkpt>
      <trkpt lat="42.689" lon="-0.57901">
        <ele>1541</ele>
        <time>2010-01-01T02:11:32Z</time>
      </trkpt>
      <trkpt lat="42.68895" lon="-0.57901">
        <ele>1541</ele>
        <time>2010-01-01T02:11:34Z</time>
      </trkpt>
      <trkpt lat="42.6889" lon="-0.57905">
        <ele>1540</ele>
        <time>2010-01-01T02:11:37Z</time>
      </trkpt>
      <trkpt lat="42.68872" lon="-0.57929">
        <ele>1535</ele>
        <time>2010-01-01T02:11:47Z</time>
      </trkpt>
      <trkpt lat="42.68855" lon="-0.57948">
        <ele>1529</ele>
        <time>2010-01-01T02:11:55Z</time>
      </trkpt>
      <trkpt lat="42.68845" lon="-0.57955">
        <ele>1527</ele>
        <time>2010-01-01T02:12:00Z</time>
      </trkpt>
      <trkpt lat="42.68837" lon="-0.57953">
        <ele>1526</ele>
        <time>2010-01-01T02:12:03Z</time>
      </trkpt>
      <trkpt lat="42.6883" lon="-0.57954">
        <ele>1525</ele>
        <time>2010-01-01T02:12:06Z</time>
      </trkpt>
      <trkpt lat="42.6882" lon="-0.57961">
        <ele>1522</ele>
        <time>2010-01-01T02:12:11Z</time>
      </trkpt>
      <trkpt lat="42.68808" lon="-0.57958">
        <ele>1520</ele>
        <time>2010-01-01T02:12:16Z</time>
      </trkpt>
      <trkpt lat="42.68794" lon="-0.57961">
        <ele>1516</ele>
        <time>2010-01-01T02:12:21Z</time>
      </trkpt>
      <trkpt lat="42.68783" lon="-0.57968">
        <ele>1513</ele>
        <time>2010-01-01T02:12:26Z</time>
      </trkpt>
      <trkpt lat="42.68776" lon="-0.57977">
        <ele>1509</ele>
        <time>2010-01-01T02:12:30Z</time>
      </trkpt>
      <trkpt lat="42.68769" lon="-0.57988">
        <ele>1505</ele>
        <time>2010-01-01T02:12:34Z</time>
      </trkpt>
      <trkpt lat="42.68762" lon="-0.58001">
        <ele>1501</ele>
        <time>2010-01-01T02:12:39Z</time>
      </trkpt>
      <trkpt lat="42.68745" lon="-0.5801">
        <ele>1496</ele>
        <time>2010-01-01T02:12:46Z</time>
      </trkpt>
      <trkpt lat="42.6873" lon="-0.58019">
        <ele>1491</ele>
        <time>2010-01-01T02:12:53Z</time>
      </trkpt>
      <trkpt lat="42.68729" lon="-0.58022">
        <ele>1491</ele>
        <time>2010-01-01T02:12:54Z</time>
      </trkpt>
      <trkpt lat="42.68727" lon="-0.58038">
        <ele>1487</ele>
        <time>2010-01-01T02:12:59Z</time>
      </trkpt>
      <trkpt lat="42.68728" lon="-0.5806">
        <ele>1481</ele>
        <time>2010-01-01T02:13:05Z</time>
      </trkpt>
      <trkpt lat="42.68731" lon="-0.58075">
        <ele>1478</ele>
        <time>2010-01-01T02:13:10Z</time>
      </trkpt>
      <trkpt lat="42.6873" lon="-0.58086">
        <ele>1476</ele>
        <time>2010-01-01T02:13:13Z</time>
      </trkpt>
      <trkpt lat="42.68727" lon="-0.58089">
        <ele>1474</ele>
        <time>2010-01-01T02:13:15Z</time>
      </trkpt>
      <trkpt lat="42.68715" lon="-0.58085">
        <ele>1472</ele>
        <time>2010-01-01T02:13:20Z</time>
      </trkpt>
      <trkpt lat="42.68711" lon="-0.58087">
        <ele>1470</ele>
        <time>2010-01-01T02:13:21Z</time>
      </trkpt>
      <trkpt lat="42.68711" lon="-0.58091">
        <ele>1469</ele>
        <time>2010-01-01T02:13:22Z</time>
      </trkpt>
      <trkpt lat="42.68731" lon="-0.58111">
        <ele>1470</ele>
        <time>2010-01-01T02:13:32Z</time>
      </trkpt>
      <trkpt lat="42.68732" lon="-0.58114">
        <ele>1470</ele>
        <time>2010-01-01T02:13:33Z</time>
      </trkpt>
      <trkpt lat="42.68732" lon="-0.58135">
        <ele>1466</ele>
        <time>2010-01-01T02:13:40Z</time>
      </trkpt>
      <trkpt lat="42.68727" lon="-0.58146">
        <ele>1462</ele>
        <time>2010-01-01T02:13:43Z</time>
      </trkpt>
      <trkpt lat="42.68718" lon="-0.58157">
        <ele>1458</ele>
        <time>2010-01-01T02:13:48Z</time>
      </trkpt>
      <trkpt lat="42.6871" lon="-0.58194">
        <ele>1452</ele>
        <time>2010-01-01T02:14:00Z</time>
      </trkpt>
      <trkpt lat="42.68704" lon="-0.58209">
        <ele>1450</ele>
        <time>2010-01-01T02:14:04Z</time>
      </trkpt>
      <trkpt lat="42.68706" lon="-0.58235">
        <ele>1448</ele>
        <time>2010-01-01T02:14:12Z</time>
      </trkpt>
      <trkpt lat="42.68702" lon="-0.58251">
        <ele>1447</ele>
        <time>2010-01-01T02:14:17Z</time>
      </trkpt>
      <trkpt lat="42.68698" lon="-0.5826">
        <ele>1446</ele>
        <time>2010-01-01T02:14:20Z</time>
      </trkpt>
      <trkpt lat="42.68685" lon="-0.58269">
        <ele>1443</ele>
        <time>2010-01-01T02:14:26Z</time>
      </trkpt>
      <trkpt lat="42.68666" lon="-0.58293">
        <ele>1438</ele>
        <time>2010-01-01T02:14:36Z</time>
      </trkpt>
      <trkpt lat="42.68644" lon="-0.58325">
        <ele>1430</ele>
        <time>2010-01-01T02:14:49Z</time>
      </trkpt>
      <trkpt lat="42.6864" lon="-0.58333">
        <ele>1429</ele>
        <time>2010-01-01T02:14:52Z</time>
      </trkpt>
      <trkpt lat="42.6862" lon="-0.58361">
        <ele>1417</ele>
        <time>2010-01-01T02:15:04Z</time>
      </trkpt>
      <trkpt lat="42.68614" lon="-0.58364">
        <ele>1415</ele>
        <time>2010-01-01T02:15:06Z</time>
      </trkpt>
      <trkpt lat="42.68608" lon="-0.5837">
        <ele>1413</ele>
        <time>2010-01-01T02:15:09Z</time>
      </trkpt>
      <trkpt lat="42.68604" lon="-0.58372">
        <ele>1411</ele>
        <time>2010-01-01T02:15:11Z</time>
      </trkpt>
      <trkpt lat="42.68598" lon="-0.58379">
        <ele>1409</ele>
        <time>2010-01-01T02:15:14Z</time>
      </trkpt>
      <trkpt lat="42.68592" lon="-0.58381">
        <ele>1407</ele>
        <time>2010-01-01T02:15:16Z</time>
      </trkpt>
      <trkpt lat="42.68575" lon="-0.58398">
        <ele>1401</ele>
        <time>2010-01-01T02:15:25Z</time>
      </trkpt>
      <trkpt lat="42.68569" lon="-0.584">
        <ele>1399</ele>
        <time>2010-01-01T02:15:28Z</time>
      </trkpt>
      <trkpt lat="42.68565" lon="-0.58408">
        <ele>1398</ele>
        <time>2010-01-01T02:15:31Z</time>
      </trkpt>
      <trkpt lat="42.68556" lon="-0.58416">
        <ele>1396</ele>
        <time>2010-01-01T02:15:35Z</time>
      </trkpt>
      <trkpt lat="42.68535" lon="-0.58431">
        <ele>1389</ele>
        <time>2010-01-01T02:15:44Z</time>
      </trkpt>
      <trkpt lat="42.68527" lon="-0.58442">
        <ele>1388</ele>
        <time>2010-01-01T02:15:49Z</time>
      </trkpt>
      <trkpt lat="42.68523" lon="-0.58448">
        <ele>1387</ele>
        <time>2010-01-01T02:15:51Z</time>
      </trkpt>
      <trkpt lat="42.68517" lon="-0.58467">
        <ele>1386</ele>
        <time>2010-01-01T02:15:57Z</time>
      </trkpt>
      <trkpt lat="42.68505" lon="-0.58478">
        <ele>1383</ele>
        <time>2010-01-01T02:16:03Z</time>
      </trkpt>
      <trkpt lat="42.68498" lon="-0.58497">
        <ele>1382</ele>
        <time>2010-01-01T02:16:09Z</time>
      </trkpt>
      <trkpt lat="42.68489" lon="-0.58511">
        <ele>1379</ele>
        <time>2010-01-01T02:16:15Z</time>
      </trkpt>
      <trkpt lat="42.68486" lon="-0.58512">
        <ele>1379</ele>
        <time>2010-01-01T02:16:16Z</time>
      </trkpt>
      <trkpt lat="42.6847" lon="-0.58542">
        <ele>1375</ele>
        <time>2010-01-01T02:16:27Z</time>
      </trkpt>
      <trkpt lat="42.68453" lon="-0.58567">
        <ele>1370</ele>
        <time>2010-01-01T02:16:37Z</time>
      </trkpt>
      <trkpt lat="42.68446" lon="-0.58588">
        <ele>1369</ele>
        <time>2010-01-01T02:16:44Z</time>
      </trkpt>
      <trkpt lat="42.68437" lon="-0.58601">
        <ele>1367</ele>
        <time>2010-01-01T02:16:49Z</time>
      </trkpt>
      <trkpt lat="42.68432" lon="-0.58613">
        <ele>1366</ele>
        <time>2010-01-01T02:16:53Z</time>
      </trkpt>
      <trkpt lat="42.68429" lon="-0.58623">
        <ele>1365</ele>
        <time>2010-01-01T02:16:56Z</time>
      </trkpt>
      <trkpt lat="42.68427" lon="-0.58643">
        <ele>1363</ele>
        <time>2010-01-01T02:17:02Z</time>
      </trkpt>
      <trkpt lat="42.68424" lon="-0.58653">
        <ele>1361</ele>
        <time>2010-01-01T02:17:05Z</time>
      </trkpt>
      <trkpt lat="42.68423" lon="-0.58654">
        <ele>1361</ele>
        <time>2010-01-01T02:17:06Z</time>
      </trkpt>
      <trkpt lat="42.68417" lon="-0.58654">
        <ele>1359</ele>
        <time>2010-01-01T02:17:08Z</time>
      </trkpt>
      <trkpt lat="42.68413" lon="-0.58651">
        <ele>1358</ele>
        <time>2010-01-01T02:17:10Z</time>
      </trkpt>
      <trkpt lat="42.68403" lon="-0.5862">
        <ele>1358</ele>
        <time>2010-01-01T02:17:20Z</time>
      </trkpt>
      <trkpt lat="42.68391" lon="-0.58613">
        <ele>1354</ele>
        <time>2010-01-01T02:17:25Z</time>
      </trkpt>
      <trkpt lat="42.68383" lon="-0.58613">
        <ele>1351</ele>
        <time>2010-01-01T02:17:28Z</time>
      </trkpt>
      <trkpt lat="42.68372" lon="-0.58611">
        <ele>1347</ele>
        <time>2010-01-01T02:17:33Z</time>
      </trkpt>
      <trkpt lat="42.68365" lon="-0.58613">
        <ele>1345</ele>
        <time>2010-01-01T02:17:36Z</time>
      </trkpt>
      <trkpt lat="42.68359" lon="-0.58619">
        <ele>1343</ele>
        <time>2010-01-01T02:17:39Z</time>
      </trkpt>
      <trkpt lat="42.68354" lon="-0.58618">
        <ele>1342</ele>
        <time>2010-01-01T02:17:41Z</time>
      </trkpt>
      <trkpt lat="42.68343" lon="-0.58624">
        <ele>1340</ele>
        <time>2010-01-01T02:17:45Z</time>
      </trkpt>
      <trkpt lat="42.68339" lon="-0.58622">
        <ele>1339</ele>
        <time>2010-01-01T02:17:47Z</time>
      </trkpt>
      <trkpt lat="42.68334" lon="-0.58611">
        <ele>1339</ele>
        <time>2010-01-01T02:17:51Z</time>
      </trkpt>
      <trkpt lat="42.68331" lon="-0.58609">
        <ele>1338</ele>
        <time>2010-01-01T02:17:52Z</time>
      </trkpt>
      <trkpt lat="42.68323" lon="-0.58609">
        <ele>1336</ele>
        <time>2010-01-01T02:17:56Z</time>
      </trkpt>
      <trkpt lat="42.68306" lon="-0.58604">
        <ele>1333</ele>
        <time>2010-01-01T02:18:02Z</time>
      </trkpt>
      <trkpt lat="42.68286" lon="-0.58609">
        <ele>1325</ele>
        <time>2010-01-01T02:18:11Z</time>
      </trkpt>
      <trkpt lat="42.68274" lon="-0.5861">
        <ele>1321</ele>
        <time>2010-01-01T02:18:15Z</time>
      </trkpt>
      <trkpt lat="42.68268" lon="-0.58612">
        <ele>1318</ele>
        <time>2010-01-01T02:18:18Z</time>
      </trkpt>
      <trkpt lat="42.68269" lon="-0.58599">
        <ele>1318</ele>
        <time>2010-01-01T02:18:22Z</time>
      </trkpt>
      <trkpt lat="42.68266" lon="-0.58586">
        <ele>1315</ele>
        <time>2010-01-01T02:18:26Z</time>
      </trkpt>
      <trkpt lat="42.6826" lon="-0.58587">
        <ele>1313</ele>
        <time>2010-01-01T02:18:28Z</time>
      </trkpt>
      <trkpt lat="42.68239" lon="-0.58597">
        <ele>1305</ele>
        <time>2010-01-01T02:18:37Z</time>
      </trkpt>
      <trkpt lat="42.68211" lon="-0.58636">
        <ele>1299</ele>
        <time>2010-01-01T02:18:53Z</time>
      </trkpt>
      <trkpt lat="42.6821" lon="-0.58642">
        <ele>1299</ele>
        <time>2010-01-01T02:18:55Z</time>
      </trkpt>
      <trkpt lat="42.68205" lon="-0.58649">
        <ele>1297</ele>
        <time>2010-01-01T02:18:58Z</time>
      </trkpt>
      <trkpt lat="42.68191" lon="-0.58659">
        <ele>1293</ele>
        <time>2010-01-01T02:19:04Z</time>
      </trkpt>
      <trkpt lat="42.68181" lon="-0.58676">
        <ele>1290</ele>
        <time>2010-01-01T02:19:11Z</time>
      </trkpt>
      <trkpt lat="42.68178" lon="-0.58685">
        <ele>1289</ele>
        <time>2010-01-01T02:19:13Z</time>
      </trkpt>
      <trkpt lat="42.68143" lon="-0.58714">
        <ele>1278</ele>
        <time>2010-01-01T02:19:30Z</time>
      </trkpt>
      <trkpt lat="42.68139" lon="-0.58727">
        <ele>1278</ele>
        <time>2010-01-01T02:19:34Z</time>
      </trkpt>
      <trkpt lat="42.68136" lon="-0.58731">
        <ele>1276</ele>
        <time>2010-01-01T02:19:36Z</time>
      </trkpt>
      <trkpt lat="42.68135" lon="-0.58745">
        <ele>1276</ele>
        <time>2010-01-01T02:19:40Z</time>
      </trkpt>
      <trkpt lat="42.68139" lon="-0.58767">
        <ele>1276</ele>
        <time>2010-01-01T02:19:46Z</time>
      </trkpt>
      <trkpt lat="42.68121" lon="-0.58769">
        <ele>1268</ele>
        <time>2010-01-01T02:19:54Z</time>
      </trkpt>
      <trkpt lat="42.68114" lon="-0.58768">
        <ele>1266</ele>
        <time>2010-01-01T02:19:56Z</time>
      </trkpt>
      <trkpt lat="42.6811" lon="-0.58773">
        <ele>1264</ele>
        <time>2010-01-01T02:19:58Z</time>
      </trkpt>
      <trkpt lat="42.68101" lon="-0.58774">
        <ele>1260</ele>
        <time>2010-01-01T02:20:02Z</time>
      </trkpt>
      <trkpt lat="42.68097" lon="-0.58783">
        <ele>1258</ele>
        <time>2010-01-01T02:20:05Z</time>
      </trkpt>
      <trkpt lat="42.68097" lon="-0.58793">
        <ele>1257</ele>
        <time>2010-01-01T02:20:08Z</time>
      </trkpt>
      <trkpt lat="42.68102" lon="-0.58807">
        <ele>1259</ele>
        <time>2010-01-01T02:20:13Z</time>
      </trkpt>
      <trkpt lat="42.68101" lon="-0.58808">
        <ele>1258</ele>
        <time>2010-01-01T02:20:13Z</time>
      </trkpt>
      <trkpt lat="42.6809" lon="-0.58819">
        <ele>1252</ele>
        <time>2010-01-01T02:20:19Z</time>
      </trkpt>
      <trkpt lat="42.68069" lon="-0.58833">
        <ele>1245</ele>
        <time>2010-01-01T02:20:28Z</time>
      </trkpt>
      <trkpt lat="42.68065" lon="-0.58837">
        <ele>1244</ele>
        <time>2010-01-01T02:20:30Z</time>
      </trkpt>
      <trkpt lat="42.68056" lon="-0.5884">
        <ele>1243</ele>
        <time>2010-01-01T02:20:34Z</time>
      </trkpt>
      <trkpt lat="42.68047" lon="-0.58864">
        <ele>1238</ele>
        <time>2010-01-01T02:20:42Z</time>
      </trkpt>
      <trkpt lat="42.68043" lon="-0.58882">
        <ele>1235</ele>
        <time>2010-01-01T02:20:47Z</time>
      </trkpt>
      <trkpt lat="42.68031" lon="-0.58886">
        <ele>1233</ele>
        <time>2010-01-01T02:20:52Z</time>
      </trkpt>
      <trkpt lat="42.68025" lon="-0.58885">
        <ele>1231</ele>
        <time>2010-01-01T02:20:55Z</time>
      </trkpt>
      <trkpt lat="42.68022" lon="-0.58887">
        <ele>1230</ele>
        <time>2010-01-01T02:20:56Z</time>
      </trkpt>
      <trkpt lat="42.6802" lon="-0.58898">
        <ele>1227</ele>
        <time>2010-01-01T02:20:59Z</time>
      </trkpt>
      <trkpt lat="42.68025" lon="-0.58915">
        <ele>1225</ele>
        <time>2010-01-01T02:21:05Z</time>
      </trkpt>
      <trkpt lat="42.68025" lon="-0.58924">
        <ele>1223</ele>
        <time>2010-01-01T02:21:07Z</time>
      </trkpt>
      <trkpt lat="42.68021" lon="-0.58933">
        <ele>1221</ele>
        <time>2010-01-01T02:21:10Z</time>
      </trkpt>
      <trkpt lat="42.68008" lon="-0.58937">
        <ele>1218</ele>
        <time>2010-01-01T02:21:16Z</time>
      </trkpt>
      <trkpt lat="42.68002" lon="-0.58935">
        <ele>1218</ele>
        <time>2010-01-01T02:21:18Z</time>
      </trkpt>
      <trkpt lat="42.67997" lon="-0.58936">
        <ele>1217</ele>
        <time>2010-01-01T02:21:20Z</time>
      </trkpt>
      <trkpt lat="42.67977" lon="-0.58928">
        <ele>1213</ele>
        <time>2010-01-01T02:21:28Z</time>
      </trkpt>
      <trkpt lat="42.67967" lon="-0.58927">
        <ele>1211</ele>
        <time>2010-01-01T02:21:32Z</time>
      </trkpt>
      <trkpt lat="42.6796" lon="-0.58924">
        <ele>1209</ele>
        <time>2010-01-01T02:21:35Z</time>
      </trkpt>
      <trkpt lat="42.67957" lon="-0.58918">
        <ele>1209</ele>
        <time>2010-01-01T02:21:37Z</time>
      </trkpt>
      <trkpt lat="42.67937" lon="-0.58901">
        <ele>1205</ele>
        <time>2010-01-01T02:21:47Z</time>
      </trkpt>
      <trkpt lat="42.67935" lon="-0.58903">
        <ele>1204</ele>
        <time>2010-01-01T02:21:48Z</time>
      </trkpt>
      <trkpt lat="42.67932" lon="-0.5891">
        <ele>1203</ele>
        <time>2010-01-01T02:21:50Z</time>
      </trkpt>
      <trkpt lat="42.67926" lon="-0.58913">
        <ele>1202</ele>
        <time>2010-01-01T02:21:52Z</time>
      </trkpt>
      <trkpt lat="42.6792" lon="-0.58912">
        <ele>1200</ele>
        <time>2010-01-01T02:21:55Z</time>
      </trkpt>
      <trkpt lat="42.67905" lon="-0.58914">
        <ele>1196</ele>
        <time>2010-01-01T02:22:01Z</time>
      </trkpt>
      <trkpt lat="42.67891" lon="-0.58917">
        <ele>1192</ele>
        <time>2010-01-01T02:22:07Z</time>
      </trkpt>
      <trkpt lat="42.67869" lon="-0.5893">
        <ele>1183</ele>
        <time>2010-01-01T02:22:16Z</time>
      </trkpt>
      <trkpt lat="42.67865" lon="-0.58934">
        <ele>1182</ele>
        <time>2010-01-01T02:22:18Z</time>
      </trkpt>
      <trkpt lat="42.67858" lon="-0.58937">
        <ele>1180</ele>
        <time>2010-01-01T02:22:21Z</time>
      </trkpt>
      <trkpt lat="42.67851" lon="-0.58943">
        <ele>1178</ele>
        <time>2010-01-01T02:22:25Z</time>
      </trkpt>
      <trkpt lat="42.67844" lon="-0.58945">
        <ele>1176</ele>
        <time>2010-01-01T02:22:28Z</time>
      </trkpt>
      <trkpt lat="42.67834" lon="-0.58952">
        <ele>1174</ele>
        <time>2010-01-01T02:22:32Z</time>
      </trkpt>
      <trkpt lat="42.6783" lon="-0.58957">
        <ele>1173</ele>
        <time>2010-01-01T02:22:34Z</time>
      </trkpt>
      <trkpt lat="42.67825" lon="-0.58956">
        <ele>1172</ele>
        <time>2010-01-01T02:22:36Z</time>
      </trkpt>
      <trkpt lat="42.67821" lon="-0.58958">
        <ele>1171</ele>
        <time>2010-01-01T02:22:38Z</time>
      </trkpt>
      <trkpt lat="42.67803" lon="-0.58986">
        <ele>1166</ele>
        <time>2010-01-01T02:22:49Z</time>
      </trkpt>
      <trkpt lat="42.67797" lon="-0.58987">
        <ele>1164</ele>
        <time>2010-01-01T02:22:51Z</time>
      </trkpt>
      <trkpt lat="42.67786" lon="-0.58993">
        <ele>1160</ele>
        <time>2010-01-01T02:22:56Z</time>
      </trkpt>
      <trkpt lat="42.67781" lon="-0.59001">
        <ele>1157</ele>
        <time>2010-01-01T02:22:59Z</time>
      </trkpt>
      <trkpt lat="42.67775" lon="-0.59005">
        <ele>1155</ele>
        <time>2010-01-01T02:23:02Z</time>
      </trkpt>
      <trkpt lat="42.67761" lon="-0.59009">
        <ele>1149</ele>
        <time>2010-01-01T02:23:08Z</time>
      </trkpt>
      <trkpt lat="42.67751" lon="-0.59015">
        <ele>1144</ele>
        <time>2010-01-01T02:23:12Z</time>
      </trkpt>
      <trkpt lat="42.67743" lon="-0.59013">
        <ele>1141</ele>
        <time>2010-01-01T02:23:15Z</time>
      </trkpt>
      <trkpt lat="42.67736" lon="-0.59008">
        <ele>1140</ele>
        <time>2010-01-01T02:23:18Z</time>
      </trkpt>
      <trkpt lat="42.67723" lon="-0.59002">
        <ele>1136</ele>
        <time>2010-01-01T02:23:24Z</time>
      </trkpt>
      <trkpt lat="42.67718" lon="-0.58997">
        <ele>1135</ele>
        <time>2010-01-01T02:23:26Z</time>
      </trkpt>
      <trkpt lat="42.67714" lon="-0.58988">
        <ele>1133</ele>
        <time>2010-01-01T02:23:29Z</time>
      </trkpt>
      <trkpt lat="42.6771" lon="-0.58985">
        <ele>1131</ele>
        <time>2010-01-01T02:23:31Z</time>
      </trkpt>
      <trkpt lat="42.67707" lon="-0.5899">
        <ele>1130</ele>
        <time>2010-01-01T02:23:33Z</time>
      </trkpt>
      <trkpt lat="42.67699" lon="-0.58985">
        <ele>1127</ele>
        <time>2010-01-01T02:23:36Z</time>
      </trkpt>
      <trkpt lat="42.67689" lon="-0.58991">
        <ele>1122</ele>
        <time>2010-01-01T02:23:41Z</time>
      </trkpt>
      <trkpt lat="42.67683" lon="-0.58992">
        <ele>1119</ele>
        <time>2010-01-01T02:23:43Z</time>
      </trkpt>
      <trkpt lat="42.67681" lon="-0.58982">
        <ele>1118</ele>
        <time>2010-01-01T02:23:46Z</time>
      </trkpt>
      <trkpt lat="42.67672" lon="-0.58986">
        <ele>1113</ele>
        <time>2010-01-01T02:23:50Z</time>
      </trkpt>
      <trkpt lat="42.67671" lon="-0.58972">
        <ele>1113</ele>
        <time>2010-01-01T02:23:54Z</time>
      </trkpt>
      <trkpt lat="42.67669" lon="-0.58961">
        <ele>1110</ele>
        <time>2010-01-01T02:23:57Z</time>
      </trkpt>
      <trkpt lat="42.67678" lon="-0.58943">
        <ele>1111</ele>
        <time>2010-01-01T02:24:04Z</time>
      </trkpt>
      <trkpt lat="42.6768" lon="-0.58935">
        <ele>1110</ele>
        <time>2010-01-01T02:24:06Z</time>
      </trkpt>
      <trkpt lat="42.6768" lon="-0.58929">
        <ele>1108</ele>
        <time>2010-01-01T02:24:08Z</time>
      </trkpt>
      <trkpt lat="42.67677" lon="-0.58926">
        <ele>1106</ele>
        <time>2010-01-01T02:24:09Z</time>
      </trkpt>
      <trkpt lat="42.67657" lon="-0.58929">
        <ele>1102</ele>
        <time>2010-01-01T02:24:18Z</time>
      </trkpt>
      <trkpt lat="42.67647" lon="-0.58937">
        <ele>1101</ele>
        <time>2010-01-01T02:24:22Z</time>
      </trkpt>
      <trkpt lat="42.67644" lon="-0.58942">
        <ele>1101</ele>
        <time>2010-01-01T02:24:24Z</time>
      </trkpt>
      <trkpt lat="42.67633" lon="-0.58952">
        <ele>1099</ele>
        <time>2010-01-01T02:24:29Z</time>
      </trkpt>
      <trkpt lat="42.6761" lon="-0.58973">
        <ele>1095</ele>
        <time>2010-01-01T02:24:40Z</time>
      </trkpt>
      <trkpt lat="42.67591" lon="-0.58985">
        <ele>1092</ele>
        <time>2010-01-01T02:24:49Z</time>
      </trkpt>
      <trkpt lat="42.67586" lon="-0.58986">
        <ele>1091</ele>
        <time>2010-01-01T02:24:51Z</time>
      </trkpt>
      <trkpt lat="42.67586" lon="-0.58983">
        <ele>1091</ele>
        <time>2010-01-01T02:24:52Z</time>
      </trkpt>
      <trkpt lat="42.6758" lon="-0.58986">
        <ele>1090</ele>
        <time>2010-01-01T02:24:54Z</time>
      </trkpt>
      <trkpt lat="42.67581" lon="-0.58988">
        <ele>1091</ele>
        <time>2010-01-01T02:24:55Z</time>
      </trkpt>
      <trkpt lat="42.67583" lon="-0.58985">
        <ele>1091</ele>
        <time>2010-01-01T02:24:57Z</time>
      </trkpt>
      <trkpt lat="42.67581" lon="-0.58987">
        <ele>1091</ele>
        <time>2010-01-01T02:24:58Z</time>
      </trkpt>
      <trkpt lat="42.67576" lon="-0.58987">
        <ele>1090</ele>
        <time>2010-01-01T02:25:00Z</time>
      </trkpt>
      <trkpt lat="42.67579" lon="-0.58988">
        <ele>1090</ele>
        <time>2010-01-01T02:25:01Z</time>
      </trkpt>
      <trkpt lat="42.6759" lon="-0.58986">
        <ele>1092</ele>
        <time>2010-01-01T02:25:06Z</time>
      </trkpt>
      <trkpt lat="42.67585" lon="-0.58994">
        <ele>1091</ele>
        <time>2010-01-01T02:25:09Z</time>
      </trkpt>
      <trkpt lat="42.67587" lon="-0.58993">
        <ele>1091</ele>
        <time>2010-01-01T02:25:10Z</time>
      </trkpt>
      <trkpt lat="42.67589" lon="-0.58998">
        <ele>1091</ele>
        <time>2010-01-01T02:25:11Z</time>
      </trkpt>
      <trkpt lat="42.67584" lon="-0.58996">
        <ele>1091</ele>
        <time>2010-01-01T02:25:13Z</time>
      </trkpt>
      <trkpt lat="42.67576" lon="-0.59005">
        <ele>1089</ele>
        <time>2010-01-01T02:25:17Z</time>
      </trkpt>
      <trkpt lat="42.67576" lon="-0.59001">
        <ele>1089</ele>
        <time>2010-01-01T02:25:18Z</time>
      </trkpt>
      <trkpt lat="42.67578" lon="-0.58999">
        <ele>1090</ele>
        <time>2010-01-01T02:25:19Z</time>
      </trkpt>
      <trkpt lat="42.67578" lon="-0.58994">
        <ele>1090</ele>
        <time>2010-01-01T02:25:21Z</time>
      </trkpt>
      <trkpt lat="42.67579" lon="-0.58996">
        <ele>1090</ele>
        <time>2010-01-01T02:25:21Z</time>
      </trkpt>
      <trkpt lat="42.67586" lon="-0.58994">
        <ele>1091</ele>
        <time>2010-01-01T02:25:24Z</time>
      </trkpt>
      <trkpt lat="42.67587" lon="-0.58991">
        <ele>1091</ele>
        <time>2010-01-01T02:25:25Z</time>
      </trkpt>
      <trkpt lat="42.67588" lon="-0.58993">
        <ele>1091</ele>
        <time>2010-01-01T02:25:26Z</time>
      </trkpt>
      <trkpt lat="42.67584" lon="-0.58992">
        <ele>1091</ele>
        <time>2010-01-01T02:25:27Z</time>
      </trkpt>
      <trkpt lat="42.67585" lon="-0.58993">
        <ele>1091</ele>
        <time>2010-01-01T02:25:28Z</time>
      </trkpt>
      <trkpt lat="42.67588" lon="-0.5899">
        <ele>1092</ele>
        <time>2010-01-01T02:25:29Z</time>
      </trkpt>
      <trkpt lat="42.67597" lon="-0.5897">
        <ele>1093</ele>
        <time>2010-01-01T02:25:36Z</time>
      </trkpt>
      <trkpt lat="42.67599" lon="-0.5896">
        <ele>1094</ele>
        <time>2010-01-01T02:25:39Z</time>
      </trkpt>
      <trkpt lat="42.67595" lon="-0.58941">
        <ele>1093</ele>
        <time>2010-01-01T02:25:45Z</time>
      </trkpt>
      <trkpt lat="42.67583" lon="-0.58915">
        <ele>1092</ele>
        <time>2010-01-01T02:25:54Z</time>
      </trkpt>
      <trkpt lat="42.67582" lon="-0.58894">
        <ele>1094</ele>
        <time>2010-01-01T02:26:00Z</time>
      </trkpt>
      <trkpt lat="42.67583" lon="-0.58874">
        <ele>1098</ele>
        <time>2010-01-01T02:26:06Z</time>
      </trkpt>
      <trkpt lat="42.67585" lon="-0.58867">
        <ele>1100</ele>
        <time>2010-01-01T02:26:08Z</time>
      </trkpt>
      <trkpt lat="42.67587" lon="-0.58863">
        <ele>1101</ele>
        <time>2010-01-01T02:26:10Z</time>
      </trkpt>
      <trkpt lat="42.67594" lon="-0.58858">
        <ele>1103</ele>
        <time>2010-01-01T02:26:13Z</time>
      </trkpt>
      <trkpt lat="42.67598" lon="-0.5885">
        <ele>1105</ele>
        <time>2010-01-01T02:26:16Z</time>
      </trkpt>
      <trkpt lat="42.6761" lon="-0.58836">
        <ele>1108</ele>
        <time>2010-01-01T02:26:22Z</time>
      </trkpt>
      <trkpt lat="42.6762" lon="-0.5882">
        <ele>1111</ele>
        <time>2010-01-01T02:26:28Z</time>
      </trkpt>
      <trkpt lat="42.67632" lon="-0.58806">
        <ele>1113</ele>
        <time>2010-01-01T02:26:35Z</time>
      </trkpt>
      <trkpt lat="42.67629" lon="-0.58802">
        <ele>1114</ele>
        <time>2010-01-01T02:26:36Z</time>
      </trkpt>
      <trkpt lat="42.67623" lon="-0.58802">
        <ele>1115</ele>
        <time>2010-01-01T02:26:39Z</time>
      </trkpt>
      <trkpt lat="42.67618" lon="-0.58804">
        <ele>1114</ele>
        <time>2010-01-01T02:26:41Z</time>
      </trkpt>
      <trkpt lat="42.67598" lon="-0.58804">
        <ele>1115</ele>
        <time>2010-01-01T02:26:48Z</time>
      </trkpt>
      <trkpt lat="42.67586" lon="-0.588">
        <ele>1116</ele>
        <time>2010-01-01T02:26:53Z</time>
      </trkpt>
      <trkpt lat="42.67582" lon="-0.58792">
        <ele>1117</ele>
        <time>2010-01-01T02:26:56Z</time>
      </trkpt>
      <trkpt lat="42.67578" lon="-0.58774">
        <ele>1121</ele>
        <time>2010-01-01T02:27:02Z</time>
      </trkpt>
      <trkpt lat="42.67572" lon="-0.58763">
        <ele>1123</ele>
        <time>2010-01-01T02:27:06Z</time>
      </trkpt>
      <trkpt lat="42.67566" lon="-0.58748">
        <ele>1126</ele>
        <time>2010-01-01T02:27:11Z</time>
      </trkpt>
      <trkpt lat="42.67563" lon="-0.58751">
        <ele>1125</ele>
        <time>2010-01-01T02:27:12Z</time>
      </trkpt>
      <trkpt lat="42.67558" lon="-0.58751">
        <ele>1125</ele>
        <time>2010-01-01T02:27:14Z</time>
      </trkpt>
      <trkpt lat="42.67555" lon="-0.5875">
        <ele>1126</ele>
        <time>2010-01-01T02:27:16Z</time>
      </trkpt>
      <trkpt lat="42.67551" lon="-0.5875">
        <ele>1126</ele>
        <time>2010-01-01T02:27:17Z</time>
      </trkpt>
      <trkpt lat="42.67548" lon="-0.58752">
        <ele>1126</ele>
        <time>2010-01-01T02:27:19Z</time>
      </trkpt>
      <trkpt lat="42.67543" lon="-0.58752">
        <ele>1127</ele>
        <time>2010-01-01T02:27:21Z</time>
      </trkpt>
      <trkpt lat="42.6754" lon="-0.58741">
        <ele>1130</ele>
        <time>2010-01-01T02:27:24Z</time>
      </trkpt>
      <trkpt lat="42.67529" lon="-0.58732">
        <ele>1135</ele>
        <time>2010-01-01T02:27:29Z</time>
      </trkpt>
      <trkpt lat="42.67517" lon="-0.58724">
        <ele>1141</ele>
        <time>2010-01-01T02:27:34Z</time>
      </trkpt>
      <trkpt lat="42.67503" lon="-0.58724">
        <ele>1144</ele>
        <time>2010-01-01T02:27:40Z</time>
      </trkpt>
      <trkpt lat="42.67491" lon="-0.58733">
        <ele>1143</ele>
        <time>2010-01-01T02:27:45Z</time>
      </trkpt>
      <trkpt lat="42.67486" lon="-0.58733">
        <ele>1144</ele>
        <time>2010-01-01T02:27:47Z</time>
      </trkpt>
      <trkpt lat="42.67481" lon="-0.58738">
        <ele>1143</ele>
        <time>2010-01-01T02:27:50Z</time>
      </trkpt>
      <trkpt lat="42.67473" lon="-0.58744">
        <ele>1142</ele>
        <time>2010-01-01T02:27:54Z</time>
      </trkpt>
      <trkpt lat="42.67464" lon="-0.58746">
        <ele>1143</ele>
        <time>2010-01-01T02:27:58Z</time>
      </trkpt>
      <trkpt lat="42.67454" lon="-0.58753">
        <ele>1142</ele>
        <time>2010-01-01T02:28:02Z</time>
      </trkpt>
      <trkpt lat="42.67439" lon="-0.58758">
        <ele>1143</ele>
        <time>2010-01-01T02:28:08Z</time>
      </trkpt>
      <trkpt lat="42.67417" lon="-0.58754">
        <ele>1146</ele>
        <time>2010-01-01T02:28:17Z</time>
      </trkpt>
      <trkpt lat="42.67406" lon="-0.58751">
        <ele>1147</ele>
        <time>2010-01-01T02:28:21Z</time>
      </trkpt>
      <trkpt lat="42.67394" lon="-0.5873">
        <ele>1149</ele>
        <time>2010-01-01T02:28:29Z</time>
      </trkpt>
      <trkpt lat="42.67374" lon="-0.58656">
        <ele>1161</ele>
        <time>2010-01-01T02:28:52Z</time>
      </trkpt>
      <trkpt lat="42.67367" lon="-0.58648">
        <ele>1161</ele>
        <time>2010-01-01T02:28:56Z</time>
      </trkpt>
      <trkpt lat="42.67342" lon="-0.5863">
        <ele>1161</ele>
        <time>2010-01-01T02:29:07Z</time>
      </trkpt>
      <trkpt lat="42.67337" lon="-0.58624">
        <ele>1161</ele>
        <time>2010-01-01T02:29:10Z</time>
      </trkpt>
      <trkpt lat="42.67336" lon="-0.58611">
        <ele>1164</ele>
        <time>2010-01-01T02:29:14Z</time>
      </trkpt>
      <trkpt lat="42.67332" lon="-0.58595">
        <ele>1167</ele>
        <time>2010-01-01T02:29:19Z</time>
      </trkpt>
      <trkpt lat="42.67332" lon="-0.58588">
        <ele>1168</ele>
        <time>2010-01-01T02:29:21Z</time>
      </trkpt>
      <trkpt lat="42.67327" lon="-0.58574">
        <ele>1171</ele>
        <time>2010-01-01T02:29:25Z</time>
      </trkpt>
      <trkpt lat="42.67315" lon="-0.58552">
        <ele>1173</ele>
        <time>2010-01-01T02:29:33Z</time>
      </trkpt>
      <trkpt lat="42.67314" lon="-0.58544">
        <ele>1174</ele>
        <time>2010-01-01T02:29:36Z</time>
      </trkpt>
      <trkpt lat="42.6731" lon="-0.58541">
        <ele>1174</ele>
        <time>2010-01-01T02:29:38Z</time>
      </trkpt>
      <trkpt lat="42.67305" lon="-0.58543">
        <ele>1173</ele>
        <time>2010-01-01T02:29:40Z</time>
      </trkpt>
      <trkpt lat="42.67299" lon="-0.58544">
        <ele>1174</ele>
        <time>2010-01-01T02:29:42Z</time>
      </trkpt>
      <trkpt lat="42.67292" lon="-0.5854">
        <ele>1175</ele>
        <time>2010-01-01T02:29:45Z</time>
      </trkpt>
      <trkpt lat="42.6728" lon="-0.58539">
        <ele>1176</ele>
        <time>2010-01-01T02:29:50Z</time>
      </trkpt>
      <trkpt lat="42.67272" lon="-0.5854">
        <ele>1178</ele>
        <time>2010-01-01T02:29:53Z</time>
      </trkpt>
      <trkpt lat="42.67267" lon="-0.58543">
        <ele>1179</ele>
        <time>2010-01-01T02:29:56Z</time>
      </trkpt>
      <trkpt lat="42.67262" lon="-0.58543">
        <ele>1180</ele>
        <time>2010-01-01T02:29:58Z</time>
      </trkpt>
      <trkpt lat="42.67248" lon="-0.58555">
        <ele>1182</ele>
        <time>2010-01-01T02:30:04Z</time>
      </trkpt>
      <trkpt lat="42.67235" lon="-0.58557">
        <ele>1185</ele>
        <time>2010-01-01T02:30:09Z</time>
      </trkpt>
      <trkpt lat="42.67224" lon="-0.58561">
        <ele>1187</ele>
        <time>2010-01-01T02:30:14Z</time>
      </trkpt>
      <trkpt lat="42.67216" lon="-0.58573">
        <ele>1186</ele>
        <time>2010-01-01T02:30:19Z</time>
      </trkpt>
      <trkpt lat="42.67209" lon="-0.58577">
        <ele>1187</ele>
        <time>2010-01-01T02:30:22Z</time>
      </trkpt>
      <trkpt lat="42.67205" lon="-0.58581">
        <ele>1187</ele>
        <time>2010-01-01T02:30:24Z</time>
      </trkpt>
      <trkpt lat="42.67199" lon="-0.58591">
        <ele>1186</ele>
        <time>2010-01-01T02:30:28Z</time>
      </trkpt>
      <trkpt lat="42.67194" lon="-0.58596">
        <ele>1186</ele>
        <time>2010-01-01T02:30:30Z</time>
      </trkpt>
      <trkpt lat="42.67166" lon="-0.58597">
        <ele>1189</ele>
        <time>2010-01-01T02:30:41Z</time>
      </trkpt>
      <trkpt lat="42.67155" lon="-0.58609">
        <ele>1188</ele>
        <time>2010-01-01T02:30:47Z</time>
      </trkpt>
      <trkpt lat="42.67149" lon="-0.58613">
        <ele>1188</ele>
        <time>2010-01-01T02:30:50Z</time>
      </trkpt>
      <trkpt lat="42.67142" lon="-0.58628">
        <ele>1186</ele>
        <time>2010-01-01T02:30:55Z</time>
      </trkpt>
      <trkpt lat="42.6714" lon="-0.5863">
        <ele>1185</ele>
        <time>2010-01-01T02:30:56Z</time>
      </trkpt>
      <trkpt lat="42.67135" lon="-0.5863">
        <ele>1186</ele>
        <time>2010-01-01T02:30:58Z</time>
      </trkpt>
      <trkpt lat="42.67133" lon="-0.58633">
        <ele>1186</ele>
        <time>2010-01-01T02:30:59Z</time>
      </trkpt>
      <trkpt lat="42.67127" lon="-0.58635">
        <ele>1187</ele>
        <time>2010-01-01T02:31:02Z</time>
      </trkpt>
      <trkpt lat="42.6711" lon="-0.58658">
        <ele>1185</ele>
        <time>2010-01-01T02:31:11Z</time>
      </trkpt>
      <trkpt lat="42.67107" lon="-0.5866">
        <ele>1186</ele>
        <time>2010-01-01T02:31:13Z</time>
      </trkpt>
      <trkpt lat="42.671" lon="-0.58672">
        <ele>1186</ele>
        <time>2010-01-01T02:31:17Z</time>
      </trkpt>
      <trkpt lat="42.67086" lon="-0.58691">
        <ele>1187</ele>
        <time>2010-01-01T02:31:25Z</time>
      </trkpt>
      <trkpt lat="42.67063" lon="-0.5871">
        <ele>1189</ele>
        <time>2010-01-01T02:31:36Z</time>
      </trkpt>
      <trkpt lat="42.67039" lon="-0.58719">
        <ele>1192</ele>
        <time>2010-01-01T02:31:46Z</time>
      </trkpt>
      <trkpt lat="42.67025" lon="-0.5872">
        <ele>1194</ele>
        <time>2010-01-01T02:31:51Z</time>
      </trkpt>
      <trkpt lat="42.67022" lon="-0.58723">
        <ele>1194</ele>
        <time>2010-01-01T02:31:53Z</time>
      </trkpt>
      <trkpt lat="42.67015" lon="-0.58725">
        <ele>1195</ele>
        <time>2010-01-01T02:31:56Z</time>
      </trkpt>
      <trkpt lat="42.66984" lon="-0.58761">
        <ele>1188</ele>
        <time>2010-01-01T02:32:12Z</time>
      </trkpt>
      <trkpt lat="42.66965" lon="-0.58773">
        <ele>1184</ele>
        <time>2010-01-01T02:32:20Z</time>
      </trkpt>
      <trkpt lat="42.66949" lon="-0.58778">
        <ele>1182</ele>
        <time>2010-01-01T02:32:27Z</time>
      </trkpt>
      <trkpt lat="42.66938" lon="-0.58771">
        <ele>1181</ele>
        <time>2010-01-01T02:32:32Z</time>
      </trkpt>
      <trkpt lat="42.66929" lon="-0.58751">
        <ele>1182</ele>
        <time>2010-01-01T02:32:38Z</time>
      </trkpt>
      <trkpt lat="42.66919" lon="-0.5872">
        <ele>1181</ele>
        <time>2010-01-01T02:32:48Z</time>
      </trkpt>
      <trkpt lat="42.66914" lon="-0.58695">
        <ele>1181</ele>
        <time>2010-01-01T02:32:56Z</time>
      </trkpt>
      <trkpt lat="42.66901" lon="-0.58674">
        <ele>1179</ele>
        <time>2010-01-01T02:33:04Z</time>
      </trkpt>
      <trkpt lat="42.66886" lon="-0.58658">
        <ele>1176</ele>
        <time>2010-01-01T02:33:12Z</time>
      </trkpt>
      <trkpt lat="42.66883" lon="-0.58649">
        <ele>1177</ele>
        <time>2010-01-01T02:33:15Z</time>
      </trkpt>
      <trkpt lat="42.6686" lon="-0.58619">
        <ele>1177</ele>
        <time>2010-01-01T02:33:28Z</time>
      </trkpt>
      <trkpt lat="42.6684" lon="-0.58615">
        <ele>1177</ele>
        <time>2010-01-01T02:33:36Z</time>
      </trkpt>
      <trkpt lat="42.66819" lon="-0.58628">
        <ele>1172</ele>
        <time>2010-01-01T02:33:45Z</time>
      </trkpt>
      <trkpt lat="42.66811" lon="-0.58629">
        <ele>1172</ele>
        <time>2010-01-01T02:33:48Z</time>
      </trkpt>
      <trkpt lat="42.66792" lon="-0.58635">
        <ele>1172</ele>
        <time>2010-01-01T02:33:56Z</time>
      </trkpt>
      <trkpt lat="42.6677" lon="-0.58649">
        <ele>1172</ele>
        <time>2010-01-01T02:34:06Z</time>
      </trkpt>
      <trkpt lat="42.6675" lon="-0.58676">
        <ele>1169</ele>
        <time>2010-01-01T02:34:17Z</time>
      </trkpt>
      <trkpt lat="42.66735" lon="-0.58691">
        <ele>1167</ele>
        <time>2010-01-01T02:34:24Z</time>
      </trkpt>
      <trkpt lat="42.6672" lon="-0.58708">
        <ele>1164</ele>
        <time>2010-01-01T02:34:32Z</time>
      </trkpt>
      <trkpt lat="42.66709" lon="-0.58717">
        <ele>1163</ele>
        <time>2010-01-01T02:34:37Z</time>
      </trkpt>
      <trkpt lat="42.66705" lon="-0.58723">
        <ele>1161</ele>
        <time>2010-01-01T02:34:40Z</time>
      </trkpt>
      <trkpt lat="42.66687" lon="-0.58738">
        <ele>1159</ele>
        <time>2010-01-01T02:34:48Z</time>
      </trkpt>
      <trkpt lat="42.66676" lon="-0.58743">
        <ele>1158</ele>
        <time>2010-01-01T02:34:53Z</time>
      </trkpt>
      <trkpt lat="42.66657" lon="-0.58749">
        <ele>1159</ele>
        <time>2010-01-01T02:35:01Z</time>
      </trkpt>
      <trkpt lat="42.66634" lon="-0.58766">
        <ele>1157</ele>
        <time>2010-01-01T02:35:11Z</time>
      </trkpt>
      <trkpt lat="42.66618" lon="-0.58784">
        <ele>1153</ele>
        <time>2010-01-01T02:35:19Z</time>
      </trkpt>
      <trkpt lat="42.6661" lon="-0.58788">
        <ele>1152</ele>
        <time>2010-01-01T02:35:23Z</time>
      </trkpt>
      <trkpt lat="42.66601" lon="-0.58787">
        <ele>1151</ele>
        <time>2010-01-01T02:35:26Z</time>
      </trkpt>
      <trkpt lat="42.66582" lon="-0.58781">
        <ele>1149</ele>
        <time>2010-01-01T02:35:34Z</time>
      </trkpt>
      <trkpt lat="42.6654" lon="-0.58742">
        <ele>1145</ele>
        <time>2010-01-01T02:35:55Z</time>
      </trkpt>
      <trkpt lat="42.66533" lon="-0.58732">
        <ele>1147</ele>
        <time>2010-01-01T02:35:59Z</time>
      </trkpt>
      <trkpt lat="42.66521" lon="-0.58722">
        <ele>1148</ele>
        <time>2010-01-01T02:36:04Z</time>
      </trkpt>
      <trkpt lat="42.66508" lon="-0.58715">
        <ele>1147</ele>
        <time>2010-01-01T02:36:10Z</time>
      </trkpt>
      <trkpt lat="42.66502" lon="-0.58709">
        <ele>1148</ele>
        <time>2010-01-01T02:36:13Z</time>
      </trkpt>
      <trkpt lat="42.66494" lon="-0.58707">
        <ele>1147</ele>
        <time>2010-01-01T02:36:16Z</time>
      </trkpt>
      <trkpt lat="42.66488" lon="-0.58702">
        <ele>1147</ele>
        <time>2010-01-01T02:36:19Z</time>
      </trkpt>
      <trkpt lat="42.6647" lon="-0.58698">
        <ele>1144</ele>
        <time>2010-01-01T02:36:26Z</time>
      </trkpt>
      <trkpt lat="42.66454" lon="-0.58705">
        <ele>1140</ele>
        <time>2010-01-01T02:36:33Z</time>
      </trkpt>
      <trkpt lat="42.66437" lon="-0.58708">
        <ele>1136</ele>
        <time>2010-01-01T02:36:40Z</time>
      </trkpt>
      <trkpt lat="42.66425" lon="-0.58706">
        <ele>1135</ele>
        <time>2010-01-01T02:36:45Z</time>
      </trkpt>
      <trkpt lat="42.66401" lon="-0.58705">
        <ele>1131</ele>
        <time>2010-01-01T02:36:54Z</time>
      </trkpt>
      <trkpt lat="42.66385" lon="-0.58698">
        <ele>1131</ele>
        <time>2010-01-01T02:37:01Z</time>
      </trkpt>
      <trkpt lat="42.66364" lon="-0.58697">
        <ele>1126</ele>
        <time>2010-01-01T02:37:09Z</time>
      </trkpt>
      <trkpt lat="42.66355" lon="-0.58692">
        <ele>1124</ele>
        <time>2010-01-01T02:37:13Z</time>
      </trkpt>
      <trkpt lat="42.66346" lon="-0.5868">
        <ele>1123</ele>
        <time>2010-01-01T02:37:18Z</time>
      </trkpt>
      <trkpt lat="42.66326" lon="-0.58664">
        <ele>1120</ele>
        <time>2010-01-01T02:37:27Z</time>
      </trkpt>
      <trkpt lat="42.66306" lon="-0.58654">
        <ele>1116</ele>
        <time>2010-01-01T02:37:36Z</time>
      </trkpt>
      <trkpt lat="42.66292" lon="-0.58648">
        <ele>1115</ele>
        <time>2010-01-01T02:37:42Z</time>
      </trkpt>
      <trkpt lat="42.6625" lon="-0.58648">
        <ele>1104</ele>
        <time>2010-01-01T02:37:59Z</time>
      </trkpt>
      <trkpt lat="42.6624" lon="-0.58643">
        <ele>1101</ele>
        <time>2010-01-01T02:38:03Z</time>
      </trkpt>
      <trkpt lat="42.66235" lon="-0.58643">
        <ele>1100</ele>
        <time>2010-01-01T02:38:05Z</time>
      </trkpt>
      <trkpt lat="42.66225" lon="-0.58653">
        <ele>1095</ele>
        <time>2010-01-01T02:38:10Z</time>
      </trkpt>
      <trkpt lat="42.66214" lon="-0.58657">
        <ele>1091</ele>
        <time>2010-01-01T02:38:14Z</time>
      </trkpt>
      <trkpt lat="42.66211" lon="-0.58661">
        <ele>1090</ele>
        <time>2010-01-01T02:38:16Z</time>
      </trkpt>
      <trkpt lat="42.66205" lon="-0.58659">
        <ele>1089</ele>
        <time>2010-01-01T02:38:19Z</time>
      </trkpt>
      <trkpt lat="42.66199" lon="-0.5866">
        <ele>1087</ele>
        <time>2010-01-01T02:38:21Z</time>
      </trkpt>
      <trkpt lat="42.6619" lon="-0.58675">
        <ele>1083</ele>
        <time>2010-01-01T02:38:27Z</time>
      </trkpt>
      <trkpt lat="42.66187" lon="-0.58676">
        <ele>1082</ele>
        <time>2010-01-01T02:38:28Z</time>
      </trkpt>
      <trkpt lat="42.66179" lon="-0.58675">
        <ele>1081</ele>
        <time>2010-01-01T02:38:31Z</time>
      </trkpt>
      <trkpt lat="42.6617" lon="-0.58671">
        <ele>1081</ele>
        <time>2010-01-01T02:38:35Z</time>
      </trkpt>
      <trkpt lat="42.66156" lon="-0.58676">
        <ele>1079</ele>
        <time>2010-01-01T02:38:41Z</time>
      </trkpt>
      <trkpt lat="42.66149" lon="-0.58685">
        <ele>1077</ele>
        <time>2010-01-01T02:38:45Z</time>
      </trkpt>
      <trkpt lat="42.66131" lon="-0.58699">
        <ele>1074</ele>
        <time>2010-01-01T02:38:53Z</time>
      </trkpt>
      <trkpt lat="42.66112" lon="-0.5871">
        <ele>1069</ele>
        <time>2010-01-01T02:39:01Z</time>
      </trkpt>
      <trkpt lat="42.66092" lon="-0.58727">
        <ele>1062</ele>
        <time>2010-01-01T02:39:11Z</time>
      </trkpt>
      <trkpt lat="42.66076" lon="-0.58739">
        <ele>1058</ele>
        <time>2010-01-01T02:39:18Z</time>
      </trkpt>
      <trkpt lat="42.66056" lon="-0.58745">
        <ele>1054</ele>
        <time>2010-01-01T02:39:26Z</time>
      </trkpt>
      <trkpt lat="42.66048" lon="-0.58744">
        <ele>1051</ele>
        <time>2010-01-01T02:39:29Z</time>
      </trkpt>
      <trkpt lat="42.66029" lon="-0.58745">
        <ele>1044</ele>
        <time>2010-01-01T02:39:37Z</time>
      </trkpt>
      <trkpt lat="42.66021" lon="-0.58741">
        <ele>1041</ele>
        <time>2010-01-01T02:39:40Z</time>
      </trkpt>
      <trkpt lat="42.66013" lon="-0.58747">
        <ele>1039</ele>
        <time>2010-01-01T02:39:44Z</time>
      </trkpt>
      <trkpt lat="42.65998" lon="-0.58763">
        <ele>1035</ele>
        <time>2010-01-01T02:39:51Z</time>
      </trkpt>
      <trkpt lat="42.6598" lon="-0.58775">
        <ele>1031</ele>
        <time>2010-01-01T02:40:00Z</time>
      </trkpt>
      <trkpt lat="42.65951" lon="-0.58789">
        <ele>1022</ele>
        <time>2010-01-01T02:40:12Z</time>
      </trkpt>
      <trkpt lat="42.65928" lon="-0.58803">
        <ele>1015</ele>
        <time>2010-01-01T02:40:22Z</time>
      </trkpt>
      <trkpt lat="42.65909" lon="-0.58803">
        <ele>1011</ele>
        <time>2010-01-01T02:40:30Z</time>
      </trkpt>
      <trkpt lat="42.65904" lon="-0.58811">
        <ele>1009</ele>
        <time>2010-01-01T02:40:33Z</time>
      </trkpt>
      <trkpt lat="42.65904" lon="-0.58815">
        <ele>1008</ele>
        <time>2010-01-01T02:40:34Z</time>
      </trkpt>
      <trkpt lat="42.65913" lon="-0.58836">
        <ele>1007</ele>
        <time>2010-01-01T02:40:41Z</time>
      </trkpt>
      <trkpt lat="42.65895" lon="-0.5883">
        <ele>1004</ele>
        <time>2010-01-01T02:40:49Z</time>
      </trkpt>
      <trkpt lat="42.65883" lon="-0.58836">
        <ele>1001</ele>
        <time>2010-01-01T02:40:54Z</time>
      </trkpt>
      <trkpt lat="42.65864" lon="-0.58838">
        <ele>996</ele>
        <time>2010-01-01T02:41:01Z</time>
      </trkpt>
      <trkpt lat="42.65856" lon="-0.58844">
        <ele>994</ele>
        <time>2010-01-01T02:41:05Z</time>
      </trkpt>
      <trkpt lat="42.65853" lon="-0.58843">
        <ele>993</ele>
        <time>2010-01-01T02:41:06Z</time>
      </trkpt>
      <trkpt lat="42.65849" lon="-0.5884">
        <ele>993</ele>
        <time>2010-01-01T02:41:08Z</time>
      </trkpt>
      <trkpt lat="42.65845" lon="-0.5883">
        <ele>993</ele>
        <time>2010-01-01T02:41:12Z</time>
      </trkpt>
      <trkpt lat="42.65829" lon="-0.58812">
        <ele>991</ele>
        <time>2010-01-01T02:41:20Z</time>
      </trkpt>
      <trkpt lat="42.65821" lon="-0.58785">
        <ele>990</ele>
        <time>2010-01-01T02:41:29Z</time>
      </trkpt>
      <trkpt lat="42.6582" lon="-0.58776">
        <ele>990</ele>
        <time>2010-01-01T02:41:31Z</time>
      </trkpt>
      <trkpt lat="42.65823" lon="-0.58767">
        <ele>990</ele>
        <time>2010-01-01T02:41:34Z</time>
      </trkpt>
      <trkpt lat="42.65826" lon="-0.58766">
        <ele>990</ele>
        <time>2010-01-01T02:41:35Z</time>
      </trkpt>
      <trkpt lat="42.65829" lon="-0.58759">
        <ele>990</ele>
        <time>2010-01-01T02:41:38Z</time>
      </trkpt>
      <trkpt lat="42.65833" lon="-0.58758">
        <ele>991</ele>
        <time>2010-01-01T02:41:39Z</time>
      </trkpt>
      <trkpt lat="42.65834" lon="-0.58755">
        <ele>991</ele>
        <time>2010-01-01T02:41:40Z</time>
      </trkpt>
      <trkpt lat="42.65831" lon="-0.58757">
        <ele>990</ele>
        <time>2010-01-01T02:41:41Z</time>
      </trkpt>
      <trkpt lat="42.65828" lon="-0.58754">
        <ele>990</ele>
        <time>2010-01-01T02:41:43Z</time>
      </trkpt>
      <trkpt lat="42.65821" lon="-0.58758">
        <ele>989</ele>
        <time>2010-01-01T02:41:45Z</time>
      </trkpt>
      <trkpt lat="42.65819" lon="-0.58757">
        <ele>989</ele>
        <time>2010-01-01T02:41:46Z</time>
      </trkpt>
      <trkpt lat="42.65822" lon="-0.58756">
        <ele>989</ele>
        <time>2010-01-01T02:41:48Z</time>
      </trkpt>
      <trkpt lat="42.65819" lon="-0.58756">
        <ele>989</ele>
        <time>2010-01-01T02:41:49Z</time>
      </trkpt>
      <trkpt lat="42.65822" lon="-0.58758">
        <ele>989</ele>
        <time>2010-01-01T02:41:50Z</time>
      </trkpt>
      <trkpt lat="42.65823" lon="-0.58755">
        <ele>990</ele>
        <time>2010-01-01T02:41:51Z</time>
      </trkpt>
      <trkpt lat="42.65823" lon="-0.58756">
        <ele>990</ele>
        <time>2010-01-01T02:41:51Z</time>
      </trkpt>
      <trkpt lat="42.65827" lon="-0.58753">
        <ele>990</ele>
        <time>2010-01-01T02:41:53Z</time>
      </trkpt>
      <trkpt lat="42.65822" lon="-0.58753">
        <ele>989</ele>
        <time>2010-01-01T02:41:55Z</time>
      </trkpt>
      <trkpt lat="42.65807" lon="-0.58757">
        <ele>988</ele>
        <time>2010-01-01T02:42:01Z</time>
      </trkpt>
      <trkpt lat="42.65803" lon="-0.58762">
        <ele>987</ele>
        <time>2010-01-01T02:42:03Z</time>
      </trkpt>
      <trkpt lat="42.65812" lon="-0.58765">
        <ele>988</ele>
        <time>2010-01-01T02:42:07Z</time>
      </trkpt>
      <trkpt lat="42.65811" lon="-0.58767">
        <ele>988</ele>
        <time>2010-01-01T02:42:08Z</time>
      </trkpt>
      <trkpt lat="42.65812" lon="-0.58767">
        <ele>988</ele>
        <time>2010-01-01T02:42:08Z</time>
      </trkpt>
      <trkpt lat="42.65825" lon="-0.58754">
        <ele>990</ele>
        <time>2010-01-01T02:42:15Z</time>
      </trkpt>
      <trkpt lat="42.65861" lon="-0.58746">
        <ele>993</ele>
        <time>2010-01-01T02:42:29Z</time>
      </trkpt>
      <trkpt lat="42.65855" lon="-0.58745">
        <ele>993</ele>
        <time>2010-01-01T02:42:32Z</time>
      </trkpt>
      <trkpt lat="42.65861" lon="-0.58742">
        <ele>993</ele>
        <time>2010-01-01T02:42:34Z</time>
      </trkpt>
      <trkpt lat="42.65845" lon="-0.5875">
        <ele>992</ele>
        <time>2010-01-01T02:42:41Z</time>
      </trkpt>
      <trkpt lat="42.65825" lon="-0.58756">
        <ele>990</ele>
        <time>2010-01-01T02:42:49Z</time>
      </trkpt>
      <trkpt lat="42.65814" lon="-0.58755">
        <ele>988</ele>
        <time>2010-01-01T02:42:54Z</time>
      </trkpt>
      <trkpt lat="42.65816" lon="-0.58754">
        <ele>989</ele>
        <time>2010-01-01T02:42:55Z</time>
      </trkpt>
      <trkpt lat="42.65825" lon="-0.58753">
        <ele>990</ele>
        <time>2010-01-01T02:42:58Z</time>
      </trkpt>
      <trkpt lat="42.65822" lon="-0.5875">
        <ele>989</ele>
        <time>2010-01-01T02:43:00Z</time>
      </trkpt>
      <trkpt lat="42.65818" lon="-0.58751">
        <ele>989</ele>
        <time>2010-01-01T02:43:02Z</time>
      </trkpt>
      <trkpt lat="42.65822" lon="-0.58754">
        <ele>989</ele>
        <time>2010-01-01T02:43:03Z</time>
      </trkpt>
      <trkpt lat="42.65826" lon="-0.58753">
        <ele>990</ele>
        <time>2010-01-01T02:43:05Z</time>
      </trkpt>
      <trkpt lat="42.65828" lon="-0.58749">
        <ele>990</ele>
        <time>2010-01-01T02:43:06Z</time>
      </trkpt>
      <trkpt lat="42.65825" lon="-0.58749">
        <ele>990</ele>
        <time>2010-01-01T02:43:07Z</time>
      </trkpt>
      <trkpt lat="42.65822" lon="-0.58754">
        <ele>989</ele>
        <time>2010-01-01T02:43:09Z</time>
      </trkpt>
      <trkpt lat="42.65825" lon="-0.58759">
        <ele>990</ele>
        <time>2010-01-01T02:43:11Z</time>
      </trkpt>
      <trkpt lat="42.65824" lon="-0.58764">
        <ele>990</ele>
        <time>2010-01-01T02:43:13Z</time>
      </trkpt>
      <trkpt lat="42.65822" lon="-0.58743">
        <ele>989</ele>
        <time>2010-01-01T02:43:19Z</time>
      </trkpt>
      <trkpt lat="42.65823" lon="-0.58751">
        <ele>989</ele>
        <time>2010-01-01T02:43:21Z</time>
      </trkpt>
      <trkpt lat="42.65831" lon="-0.58751">
        <ele>990</ele>
        <time>2010-01-01T02:43:24Z</time>
      </trkpt>
      <trkpt lat="42.65835" lon="-0.58749">
        <ele>991</ele>
        <time>2010-01-01T02:43:26Z</time>
      </trkpt>
      <trkpt lat="42.65827" lon="-0.58749">
        <ele>990</ele>
        <time>2010-01-01T02:43:29Z</time>
      </trkpt>
      <trkpt lat="42.65828" lon="-0.58753">
        <ele>990</ele>
        <time>2010-01-01T02:43:31Z</time>
      </trkpt>
      <trkpt lat="42.65825" lon="-0.58756">
        <ele>990</ele>
        <time>2010-01-01T02:43:32Z</time>
      </trkpt>
      <trkpt lat="42.65822" lon="-0.58753">
        <ele>989</ele>
        <time>2010-01-01T02:43:34Z</time>
      </trkpt>
      <trkpt lat="42.65819" lon="-0.58753">
        <ele>989</ele>
        <time>2010-01-01T02:43:35Z</time>
      </trkpt>
      <trkpt lat="42.65818" lon="-0.5875">
        <ele>989</ele>
        <time>2010-01-01T02:43:36Z</time>
      </trkpt>
      <trkpt lat="42.6583" lon="-0.58755">
        <ele>990</ele>
        <time>2010-01-01T02:43:41Z</time>
      </trkpt>
      <trkpt lat="42.65817" lon="-0.5875">
        <ele>989</ele>
        <time>2010-01-01T02:43:46Z</time>
      </trkpt>
      <trkpt lat="42.65818" lon="-0.58749">
        <ele>989</ele>
        <time>2010-01-01T02:43:46Z</time>
      </trkpt>
      <trkpt lat="42.65821" lon="-0.58752">
        <ele>989</ele>
        <time>2010-01-01T02:43:48Z</time>
      </trkpt>
      <trkpt lat="42.6582" lon="-0.58757">
        <ele>989</ele>
        <time>2010-01-01T02:43:49Z</time>
      </trkpt>
      <trkpt lat="42.65822" lon="-0.58759">
        <ele>989</ele>
        <time>2010-01-01T02:43:50Z</time>
      </trkpt>
      <trkpt lat="42.65824" lon="-0.58758">
        <ele>990</ele>
        <time>2010-01-01T02:43:51Z</time>
      </trkpt>
      <trkpt lat="42.65824" lon="-0.58756">
        <ele>990</ele>
        <time>2010-01-01T02:43:52Z</time>
      </trkpt>
      <trkpt lat="42.65825" lon="-0.58761">
        <ele>990</ele>
        <time>2010-01-01T02:43:53Z</time>
      </trkpt>
      <trkpt lat="42.65824" lon="-0.58764">
        <ele>990</ele>
        <time>2010-01-01T02:43:54Z</time>
      </trkpt>
      <trkpt lat="42.65819" lon="-0.58768">
        <ele>989</ele>
        <time>2010-01-01T02:43:57Z</time>
      </trkpt>
      <trkpt lat="42.65812" lon="-0.58762">
        <ele>988</ele>
        <time>2010-01-01T02:44:00Z</time>
      </trkpt>
      <trkpt lat="42.65804" lon="-0.5876">
        <ele>987</ele>
        <time>2010-01-01T02:44:03Z</time>
      </trkpt>
      <trkpt lat="42.65798" lon="-0.58753">
        <ele>987</ele>
        <time>2010-01-01T02:44:06Z</time>
      </trkpt>
      <trkpt lat="42.65792" lon="-0.58743">
        <ele>987</ele>
        <time>2010-01-01T02:44:10Z</time>
      </trkpt>
      <trkpt lat="42.65792" lon="-0.58741">
        <ele>987</ele>
        <time>2010-01-01T02:44:11Z</time>
      </trkpt>
      <trkpt lat="42.65779" lon="-0.5872">
        <ele>988</ele>
        <time>2010-01-01T02:44:19Z</time>
      </trkpt>
      <trkpt lat="42.65773" lon="-0.58712">
        <ele>988</ele>
        <time>2010-01-01T02:44:22Z</time>
      </trkpt>
      <trkpt lat="42.65765" lon="-0.58701">
        <ele>988</ele>
        <time>2010-01-01T02:44:27Z</time>
      </trkpt>
      <trkpt lat="42.65759" lon="-0.58672">
        <ele>991</ele>
        <time>2010-01-01T02:44:36Z</time>
      </trkpt>
      <trkpt lat="42.65755" lon="-0.58659">
        <ele>992</ele>
        <time>2010-01-01T02:44:40Z</time>
      </trkpt>
      <trkpt lat="42.65748" lon="-0.58649">
        <ele>994</ele>
        <time>2010-01-01T02:44:44Z</time>
      </trkpt>
      <trkpt lat="42.65743" lon="-0.58633">
        <ele>998</ele>
        <time>2010-01-01T02:44:49Z</time>
      </trkpt>
      <trkpt lat="42.6574" lon="-0.58612">
        <ele>1005</ele>
        <time>2010-01-01T02:44:55Z</time>
      </trkpt>
      <trkpt lat="42.65752" lon="-0.58621">
        <ele>1005</ele>
        <time>2010-01-01T02:45:01Z</time>
      </trkpt>
      <trkpt lat="42.6576" lon="-0.58631">
        <ele>1001</ele>
        <time>2010-01-01T02:45:05Z</time>
      </trkpt>
      <trkpt lat="42.65765" lon="-0.58637">
        <ele>1000</ele>
        <time>2010-01-01T02:45:08Z</time>
      </trkpt>
      <trkpt lat="42.65774" lon="-0.5865">
        <ele>998</ele>
        <time>2010-01-01T02:45:13Z</time>
      </trkpt>
      <trkpt lat="42.65779" lon="-0.58655">
        <ele>997</ele>
        <time>2010-01-01T02:45:16Z</time>
      </trkpt>
      <trkpt lat="42.65781" lon="-0.58653">
        <ele>998</ele>
        <time>2010-01-01T02:45:16Z</time>
      </trkpt>
      <trkpt lat="42.65778" lon="-0.58647">
        <ele>999</ele>
        <time>2010-01-01T02:45:18Z</time>
      </trkpt>
      <trkpt lat="42.65774" lon="-0.58622">
        <ele>1008</ele>
        <time>2010-01-01T02:45:26Z</time>
      </trkpt>
      <trkpt lat="42.65775" lon="-0.58603">
        <ele>1015</ele>
        <time>2010-01-01T02:45:31Z</time>
      </trkpt>
      <trkpt lat="42.65779" lon="-0.58608">
        <ele>1013</ele>
        <time>2010-01-01T02:45:34Z</time>
      </trkpt>
      <trkpt lat="42.65783" lon="-0.58608">
        <ele>1013</ele>
        <time>2010-01-01T02:45:36Z</time>
      </trkpt>
      <trkpt lat="42.6579" lon="-0.58605">
        <ele>1015</ele>
        <time>2010-01-01T02:45:39Z</time>
      </trkpt>
      <trkpt lat="42.65794" lon="-0.58599">
        <ele>1016</ele>
        <time>2010-01-01T02:45:41Z</time>
      </trkpt>
      <trkpt lat="42.65788" lon="-0.58593">
        <ele>1018</ele>
        <time>2010-01-01T02:45:44Z</time>
      </trkpt>
      <trkpt lat="42.65786" lon="-0.58587">
        <ele>1020</ele>
        <time>2010-01-01T02:45:45Z</time>
      </trkpt>
      <trkpt lat="42.65792" lon="-0.58582">
        <ele>1022</ele>
        <time>2010-01-01T02:45:48Z</time>
      </trkpt>
      <trkpt lat="42.65794" lon="-0.58576">
        <ele>1024</ele>
        <time>2010-01-01T02:45:50Z</time>
      </trkpt>
      <trkpt lat="42.65784" lon="-0.58541">
        <ele>1037</ele>
        <time>2010-01-01T02:46:01Z</time>
      </trkpt>
      <trkpt lat="42.65791" lon="-0.58535">
        <ele>1040</ele>
        <time>2010-01-01T02:46:05Z</time>
      </trkpt>
      <trkpt lat="42.65803" lon="-0.58531">
        <ele>1042</ele>
        <time>2010-01-01T02:46:09Z</time>
      </trkpt>
      <trkpt lat="42.6581" lon="-0.58527">
        <ele>1044</ele>
        <time>2010-01-01T02:46:12Z</time>
      </trkpt>
      <trkpt lat="42.65801" lon="-0.58512">
        <ele>1049</ele>
        <time>2010-01-01T02:46:18Z</time>
      </trkpt>
      <trkpt lat="42.65814" lon="-0.58499">
        <ele>1053</ele>
        <time>2010-01-01T02:46:24Z</time>
      </trkpt>
      <trkpt lat="42.65815" lon="-0.58496">
        <ele>1054</ele>
        <time>2010-01-01T02:46:25Z</time>
      </trkpt>
      <trkpt lat="42.65809" lon="-0.58475">
        <ele>1061</ele>
        <time>2010-01-01T02:46:32Z</time>
      </trkpt>
      <trkpt lat="42.65806" lon="-0.58455">
        <ele>1068</ele>
        <time>2010-01-01T02:46:38Z</time>
      </trkpt>
      <trkpt lat="42.65808" lon="-0.58452">
        <ele>1069</ele>
        <time>2010-01-01T02:46:39Z</time>
      </trkpt>
      <trkpt lat="42.65808" lon="-0.58448">
        <ele>1070</ele>
        <time>2010-01-01T02:46:40Z</time>
      </trkpt>
      <trkpt lat="42.65805" lon="-0.58437">
        <ele>1073</ele>
        <time>2010-01-01T02:46:44Z</time>
      </trkpt>
      <trkpt lat="42.65805" lon="-0.58432">
        <ele>1074</ele>
        <time>2010-01-01T02:46:45Z</time>
      </trkpt>
      <trkpt lat="42.65809" lon="-0.58421">
        <ele>1077</ele>
        <time>2010-01-01T02:46:49Z</time>
      </trkpt>
      <trkpt lat="42.65807" lon="-0.58417">
        <ele>1078</ele>
        <time>2010-01-01T02:46:50Z</time>
      </trkpt>
      <trkpt lat="42.65811" lon="-0.58412">
        <ele>1079</ele>
        <time>2010-01-01T02:46:52Z</time>
      </trkpt>
      <trkpt lat="42.6581" lon="-0.58408">
        <ele>1080</ele>
        <time>2010-01-01T02:46:54Z</time>
      </trkpt>
      <trkpt lat="42.65812" lon="-0.58404">
        <ele>1081</ele>
        <time>2010-01-01T02:46:55Z</time>
      </trkpt>
      <trkpt lat="42.65809" lon="-0.58395">
        <ele>1083</ele>
        <time>2010-01-01T02:46:58Z</time>
      </trkpt>
      <trkpt lat="42.65817" lon="-0.58354">
        <ele>1091</ele>
        <time>2010-01-01T02:47:10Z</time>
      </trkpt>
      <trkpt lat="42.65822" lon="-0.58334">
        <ele>1095</ele>
        <time>2010-01-01T02:47:16Z</time>
      </trkpt>
      <trkpt lat="42.65853" lon="-0.58257">
        <ele>1106</ele>
        <time>2010-01-01T02:47:42Z</time>
      </trkpt>
      <trkpt lat="42.65858" lon="-0.58233">
        <ele>1108</ele>
        <time>2010-01-01T02:47:50Z</time>
      </trkpt>
      <trkpt lat="42.65876" lon="-0.58176">
        <ele>1114</ele>
        <time>2010-01-01T02:48:08Z</time>
      </trkpt>
      <trkpt lat="42.65888" lon="-0.58155">
        <ele>1118</ele>
        <time>2010-01-01T02:48:16Z</time>
      </trkpt>
      <trkpt lat="42.65896" lon="-0.58148">
        <ele>1119</ele>
        <time>2010-01-01T02:48:20Z</time>
      </trkpt>
      <trkpt lat="42.65907" lon="-0.58129">
        <ele>1123</ele>
        <time>2010-01-01T02:48:27Z</time>
      </trkpt>
      <trkpt lat="42.65911" lon="-0.5812">
        <ele>1125</ele>
        <time>2010-01-01T02:48:30Z</time>
      </trkpt>
      <trkpt lat="42.65899" lon="-0.58077">
        <ele>1124</ele>
        <time>2010-01-01T02:48:43Z</time>
      </trkpt>
      <trkpt lat="42.65898" lon="-0.58069">
        <ele>1124</ele>
        <time>2010-01-01T02:48:46Z</time>
      </trkpt>
      <trkpt lat="42.65903" lon="-0.58034">
        <ele>1129</ele>
        <time>2010-01-01T02:48:56Z</time>
      </trkpt>
      <trkpt lat="42.65913" lon="-0.58003">
        <ele>1135</ele>
        <time>2010-01-01T02:49:06Z</time>
      </trkpt>
      <trkpt lat="42.65914" lon="-0.57994">
        <ele>1136</ele>
        <time>2010-01-01T02:49:09Z</time>
      </trkpt>
      <trkpt lat="42.65912" lon="-0.57965">
        <ele>1138</ele>
        <time>2010-01-01T02:49:18Z</time>
      </trkpt>
      <trkpt lat="42.65913" lon="-0.57924">
        <ele>1144</ele>
        <time>2010-01-01T02:49:30Z</time>
      </trkpt>
      <trkpt lat="42.65898" lon="-0.57864">
        <ele>1154</ele>
        <time>2010-01-01T02:49:48Z</time>
      </trkpt>
      <trkpt lat="42.65891" lon="-0.57844">
        <ele>1157</ele>
        <time>2010-01-01T02:49:55Z</time>
      </trkpt>
      <trkpt lat="42.65884" lon="-0.57832">
        <ele>1158</ele>
        <time>2010-01-01T02:49:59Z</time>
      </trkpt>
      <trkpt lat="42.6588" lon="-0.57819">
        <ele>1160</ele>
        <time>2010-01-01T02:50:03Z</time>
      </trkpt>
      <trkpt lat="42.65868" lon="-0.57789">
        <ele>1162</ele>
        <time>2010-01-01T02:50:14Z</time>
      </trkpt>
      <trkpt lat="42.65855" lon="-0.57766">
        <ele>1163</ele>
        <time>2010-01-01T02:50:22Z</time>
      </trkpt>
      <trkpt lat="42.6585" lon="-0.57752">
        <ele>1166</ele>
        <time>2010-01-01T02:50:27Z</time>
      </trkpt>
      <trkpt lat="42.65834" lon="-0.57729">
        <ele>1166</ele>
        <time>2010-01-01T02:50:36Z</time>
      </trkpt>
      <trkpt lat="42.65833" lon="-0.57724">
        <ele>1167</ele>
        <time>2010-01-01T02:50:37Z</time>
      </trkpt>
      <trkpt lat="42.65838" lon="-0.57723">
        <ele>1168</ele>
        <time>2010-01-01T02:50:39Z</time>
      </trkpt>
      <trkpt lat="42.65845" lon="-0.57729">
        <ele>1169</ele>
        <time>2010-01-01T02:50:42Z</time>
      </trkpt>
      <trkpt lat="42.65902" lon="-0.57778">
        <ele>1175</ele>
        <time>2010-01-01T02:51:09Z</time>
      </trkpt>
      <trkpt lat="42.65917" lon="-0.57794">
        <ele>1177</ele>
        <time>2010-01-01T02:51:17Z</time>
      </trkpt>
      <trkpt lat="42.65951" lon="-0.57836">
        <ele>1181</ele>
        <time>2010-01-01T02:51:35Z</time>
      </trkpt>
      <trkpt lat="42.65974" lon="-0.57868">
        <ele>1184</ele>
        <time>2010-01-01T02:51:49Z</time>
      </trkpt>
      <trkpt lat="42.65985" lon="-0.57888">
        <ele>1184</ele>
        <time>2010-01-01T02:51:56Z</time>
      </trkpt>
      <trkpt lat="42.66007" lon="-0.57933">
        <ele>1182</ele>
        <time>2010-01-01T02:52:12Z</time>
      </trkpt>
      <trkpt lat="42.66012" lon="-0.57939">
        <ele>1181</ele>
        <time>2010-01-01T02:52:14Z</time>
      </trkpt>
      <trkpt lat="42.66017" lon="-0.57944">
        <ele>1181</ele>
        <time>2010-01-01T02:52:17Z</time>
      </trkpt>
      <trkpt lat="42.66028" lon="-0.57949">
        <ele>1182</ele>
        <time>2010-01-01T02:52:22Z</time>
      </trkpt>
      <trkpt lat="42.66036" lon="-0.5795">
        <ele>1183</ele>
        <time>2010-01-01T02:52:25Z</time>
      </trkpt>
      <trkpt lat="42.66046" lon="-0.57949">
        <ele>1185</ele>
        <time>2010-01-01T02:52:29Z</time>
      </trkpt>
      <trkpt lat="42.66061" lon="-0.57941">
        <ele>1187</ele>
        <time>2010-01-01T02:52:35Z</time>
      </trkpt>
      <trkpt lat="42.66089" lon="-0.57922">
        <ele>1191</ele>
        <time>2010-01-01T02:52:48Z</time>
      </trkpt>
      <trkpt lat="42.66148" lon="-0.57864">
        <ele>1194</ele>
        <time>2010-01-01T02:53:17Z</time>
      </trkpt>
      <trkpt lat="42.66164" lon="-0.57853">
        <ele>1193</ele>
        <time>2010-01-01T02:53:24Z</time>
      </trkpt>
      <trkpt lat="42.66182" lon="-0.57846">
        <ele>1194</ele>
        <time>2010-01-01T02:53:32Z</time>
      </trkpt>
      <trkpt lat="42.66196" lon="-0.57836">
        <ele>1196</ele>
        <time>2010-01-01T02:53:38Z</time>
      </trkpt>
      <trkpt lat="42.66204" lon="-0.57828">
        <ele>1197</ele>
        <time>2010-01-01T02:53:42Z</time>
      </trkpt>
      <trkpt lat="42.66209" lon="-0.57821">
        <ele>1198</ele>
        <time>2010-01-01T02:53:45Z</time>
      </trkpt>
      <trkpt lat="42.66212" lon="-0.57818">
        <ele>1198</ele>
        <time>2010-01-01T02:53:46Z</time>
      </trkpt>
      <trkpt lat="42.66214" lon="-0.57816">
        <ele>1199</ele>
        <time>2010-01-01T02:53:47Z</time>
      </trkpt>
      <trkpt lat="42.66238" lon="-0.57793">
        <ele>1199</ele>
        <time>2010-01-01T02:53:59Z</time>
      </trkpt>
      <trkpt lat="42.66246" lon="-0.57788">
        <ele>1198</ele>
        <time>2010-01-01T02:54:03Z</time>
      </trkpt>
      <trkpt lat="42.66256" lon="-0.57778">
        <ele>1198</ele>
        <time>2010-01-01T02:54:08Z</time>
      </trkpt>
      <trkpt lat="42.66274" lon="-0.57758">
        <ele>1198</ele>
        <time>2010-01-01T02:54:17Z</time>
      </trkpt>
      <trkpt lat="42.663" lon="-0.57718">
        <ele>1199</ele>
        <time>2010-01-01T02:54:33Z</time>
      </trkpt>
      <trkpt lat="42.66328" lon="-0.57677">
        <ele>1199</ele>
        <time>2010-01-01T02:54:49Z</time>
      </trkpt>
      <trkpt lat="42.66352" lon="-0.5765">
        <ele>1202</ele>
        <time>2010-01-01T02:55:02Z</time>
      </trkpt>
      <trkpt lat="42.66373" lon="-0.57632">
        <ele>1202</ele>
        <time>2010-01-01T02:55:12Z</time>
      </trkpt>
      <trkpt lat="42.66384" lon="-0.57628">
        <ele>1201</ele>
        <time>2010-01-01T02:55:16Z</time>
      </trkpt>
      <trkpt lat="42.66404" lon="-0.57623">
        <ele>1200</ele>
        <time>2010-01-01T02:55:24Z</time>
      </trkpt>
      <trkpt lat="42.66438" lon="-0.57624">
        <ele>1200</ele>
        <time>2010-01-01T02:55:38Z</time>
      </trkpt>
      <trkpt lat="42.66451" lon="-0.57623">
        <ele>1200</ele>
        <time>2010-01-01T02:55:43Z</time>
      </trkpt>
      <trkpt lat="42.66461" lon="-0.5762">
        <ele>1200</ele>
        <time>2010-01-01T02:55:47Z</time>
      </trkpt>
      <trkpt lat="42.66491" lon="-0.57605">
        <ele>1202</ele>
        <time>2010-01-01T02:56:00Z</time>
      </trkpt>
      <trkpt lat="42.66509" lon="-0.57598">
        <ele>1202</ele>
        <time>2010-01-01T02:56:07Z</time>
      </trkpt>
      <trkpt lat="42.66541" lon="-0.57579">
        <ele>1202</ele>
        <time>2010-01-01T02:56:21Z</time>
      </trkpt>
      <trkpt lat="42.66574" lon="-0.57565">
        <ele>1201</ele>
        <time>2010-01-01T02:56:35Z</time>
      </trkpt>
      <trkpt lat="42.66593" lon="-0.57553">
        <ele>1202</ele>
        <time>2010-01-01T02:56:44Z</time>
      </trkpt>
      <trkpt lat="42.6662" lon="-0.57538">
        <ele>1203</ele>
        <time>2010-01-01T02:56:55Z</time>
      </trkpt>
      <trkpt lat="42.6665" lon="-0.57527">
        <ele>1205</ele>
        <time>2010-01-01T02:57:08Z</time>
      </trkpt>
      <trkpt lat="42.66677" lon="-0.57513">
        <ele>1208</ele>
        <time>2010-01-01T02:57:19Z</time>
      </trkpt>
      <trkpt lat="42.66706" lon="-0.57492">
        <ele>1209</ele>
        <time>2010-01-01T02:57:33Z</time>
      </trkpt>
      <trkpt lat="42.66713" lon="-0.57483">
        <ele>1209</ele>
        <time>2010-01-01T02:57:36Z</time>
      </trkpt>
      <trkpt lat="42.66718" lon="-0.57466">
        <ele>1210</ele>
        <time>2010-01-01T02:57:42Z</time>
      </trkpt>
      <trkpt lat="42.66734" lon="-0.57439">
        <ele>1211</ele>
        <time>2010-01-01T02:57:52Z</time>
      </trkpt>
      <trkpt lat="42.66753" lon="-0.57397">
        <ele>1213</ele>
        <time>2010-01-01T02:58:07Z</time>
      </trkpt>
      <trkpt lat="42.6676" lon="-0.57376">
        <ele>1213</ele>
        <time>2010-01-01T02:58:13Z</time>
      </trkpt>
      <trkpt lat="42.66777" lon="-0.57344">
        <ele>1216</ele>
        <time>2010-01-01T02:58:25Z</time>
      </trkpt>
      <trkpt lat="42.6678" lon="-0.57334">
        <ele>1215</ele>
        <time>2010-01-01T02:58:28Z</time>
      </trkpt>
      <trkpt lat="42.66777" lon="-0.57317">
        <ele>1212</ele>
        <time>2010-01-01T02:58:33Z</time>
      </trkpt>
      <trkpt lat="42.66773" lon="-0.57306">
        <ele>1209</ele>
        <time>2010-01-01T02:58:37Z</time>
      </trkpt>
      <trkpt lat="42.66772" lon="-0.57297">
        <ele>1209</ele>
        <time>2010-01-01T02:58:40Z</time>
      </trkpt>
      <trkpt lat="42.66764" lon="-0.57276">
        <ele>1203</ele>
        <time>2010-01-01T02:58:47Z</time>
      </trkpt>
      <trkpt lat="42.66764" lon="-0.57264">
        <ele>1203</ele>
        <time>2010-01-01T02:58:50Z</time>
      </trkpt>
      <trkpt lat="42.6676" lon="-0.5726">
        <ele>1201</ele>
        <time>2010-01-01T02:58:52Z</time>
      </trkpt>
      <trkpt lat="42.66759" lon="-0.57257">
        <ele>1200</ele>
        <time>2010-01-01T02:58:53Z</time>
      </trkpt>
      <trkpt lat="42.66757" lon="-0.57234">
        <ele>1198</ele>
        <time>2010-01-01T02:59:00Z</time>
      </trkpt>
      <trkpt lat="42.66752" lon="-0.57218">
        <ele>1195</ele>
        <time>2010-01-01T02:59:05Z</time>
      </trkpt>
      <trkpt lat="42.66751" lon="-0.57216">
        <ele>1195</ele>
        <time>2010-01-01T02:59:06Z</time>
      </trkpt>
      <trkpt lat="42.66747" lon="-0.57222">
        <ele>1194</ele>
        <time>2010-01-01T02:59:08Z</time>
      </trkpt>
      <trkpt lat="42.66742" lon="-0.57225">
        <ele>1193</ele>
        <time>2010-01-01T02:59:10Z</time>
      </trkpt>
      <trkpt lat="42.66737" lon="-0.57213">
        <ele>1190</ele>
        <time>2010-01-01T02:59:14Z</time>
      </trkpt>
      <trkpt lat="42.66738" lon="-0.57206">
        <ele>1189</ele>
        <time>2010-01-01T02:59:16Z</time>
      </trkpt>
      <trkpt lat="42.66736" lon="-0.57199">
        <ele>1188</ele>
        <time>2010-01-01T02:59:18Z</time>
      </trkpt>
      <trkpt lat="42.66735" lon="-0.57194">
        <ele>1187</ele>
        <time>2010-01-01T02:59:20Z</time>
      </trkpt>
      <trkpt lat="42.66733" lon="-0.57189">
        <ele>1185</ele>
        <time>2010-01-01T02:59:22Z</time>
      </trkpt>
      <trkpt lat="42.66728" lon="-0.57176">
        <ele>1181</ele>
        <time>2010-01-01T02:59:26Z</time>
      </trkpt>
      <trkpt lat="42.66723" lon="-0.57179">
        <ele>1181</ele>
        <time>2010-01-01T02:59:28Z</time>
      </trkpt>
      <trkpt lat="42.66712" lon="-0.57182">
        <ele>1177</ele>
        <time>2010-01-01T02:59:33Z</time>
      </trkpt>
      <trkpt lat="42.66709" lon="-0.57171">
        <ele>1175</ele>
        <time>2010-01-01T02:59:36Z</time>
      </trkpt>
      <trkpt lat="42.66709" lon="-0.57164">
        <ele>1174</ele>
        <time>2010-01-01T02:59:38Z</time>
      </trkpt>
      <trkpt lat="42.66705" lon="-0.57163">
        <ele>1172</ele>
        <time>2010-01-01T02:59:40Z</time>
      </trkpt>
      <trkpt lat="42.66696" lon="-0.57167">
        <ele>1170</ele>
        <time>2010-01-01T02:59:44Z</time>
      </trkpt>
      <trkpt lat="42.66689" lon="-0.57173">
        <ele>1168</ele>
        <time>2010-01-01T02:59:47Z</time>
      </trkpt>
      <trkpt lat="42.66686" lon="-0.57171">
        <ele>1167</ele>
        <time>2010-01-01T02:59:48Z</time>
      </trkpt>
      <trkpt lat="42.66686" lon="-0.57157">
        <ele>1165</ele>
        <time>2010-01-01T02:59:52Z</time>
      </trkpt>
      <trkpt lat="42.6668" lon="-0.57154">
        <ele>1163</ele>
        <time>2010-01-01T02:59:54Z</time>
      </trkpt>
      <trkpt lat="42.66678" lon="-0.57162">
        <ele>1163</ele>
        <time>2010-01-01T02:59:57Z</time>
      </trkpt>
      <trkpt lat="42.66674" lon="-0.57163">
        <ele>1162</ele>
        <time>2010-01-01T02:59:59Z</time>
      </trkpt>
      <trkpt lat="42.66666" lon="-0.57158">
        <ele>1160</ele>
        <time>2010-01-01T03:00:02Z</time>
      </trkpt>
      <trkpt lat="42.66665" lon="-0.57139">
        <ele>1157</ele>
        <time>2010-01-01T03:00:08Z</time>
      </trkpt>
      <trkpt lat="42.66663" lon="-0.57135">
        <ele>1156</ele>
        <time>2010-01-01T03:00:09Z</time>
      </trkpt>
      <trkpt lat="42.6666" lon="-0.57133">
        <ele>1155</ele>
        <time>2010-01-01T03:00:10Z</time>
      </trkpt>
      <trkpt lat="42.66655" lon="-0.57136">
        <ele>1154</ele>
        <time>2010-01-01T03:00:12Z</time>
      </trkpt>
      <trkpt lat="42.6665" lon="-0.57141">
        <ele>1154</ele>
        <time>2010-01-01T03:00:15Z</time>
      </trkpt>
      <trkpt lat="42.66649" lon="-0.57147">
        <ele>1154</ele>
        <time>2010-01-01T03:00:17Z</time>
      </trkpt>
      <trkpt lat="42.66639" lon="-0.5716">
        <ele>1152</ele>
        <time>2010-01-01T03:00:22Z</time>
      </trkpt>
      <trkpt lat="42.66624" lon="-0.57181">
        <ele>1147</ele>
        <time>2010-01-01T03:00:31Z</time>
      </trkpt>
      <trkpt lat="42.66619" lon="-0.57184">
        <ele>1145</ele>
        <time>2010-01-01T03:00:33Z</time>
      </trkpt>
      <trkpt lat="42.66616" lon="-0.57177">
        <ele>1144</ele>
        <time>2010-01-01T03:00:35Z</time>
      </trkpt>
      <trkpt lat="42.66605" lon="-0.57168">
        <ele>1140</ele>
        <time>2010-01-01T03:00:40Z</time>
      </trkpt>
      <trkpt lat="42.66592" lon="-0.57146">
        <ele>1135</ele>
        <time>2010-01-01T03:00:49Z</time>
      </trkpt>
      <trkpt lat="42.66587" lon="-0.57145">
        <ele>1133</ele>
        <time>2010-01-01T03:00:51Z</time>
      </trkpt>
      <trkpt lat="42.66585" lon="-0.57137">
        <ele>1132</ele>
        <time>2010-01-01T03:00:53Z</time>
      </trkpt>
      <trkpt lat="42.66583" lon="-0.57136">
        <ele>1131</ele>
        <time>2010-01-01T03:00:54Z</time>
      </trkpt>
      <trkpt lat="42.6658" lon="-0.57136">
        <ele>1130</ele>
        <time>2010-01-01T03:00:55Z</time>
      </trkpt>
      <trkpt lat="42.6658" lon="-0.5714">
        <ele>1130</ele>
        <time>2010-01-01T03:00:57Z</time>
      </trkpt>
      <trkpt lat="42.66574" lon="-0.57128">
        <ele>1126</ele>
        <time>2010-01-01T03:01:01Z</time>
      </trkpt>
      <trkpt lat="42.66569" lon="-0.57107">
        <ele>1123</ele>
        <time>2010-01-01T03:01:07Z</time>
      </trkpt>
      <trkpt lat="42.66565" lon="-0.57108">
        <ele>1121</ele>
        <time>2010-01-01T03:01:09Z</time>
      </trkpt>
      <trkpt lat="42.66559" lon="-0.57114">
        <ele>1120</ele>
        <time>2010-01-01T03:01:12Z</time>
      </trkpt>
      <trkpt lat="42.66554" lon="-0.57129">
        <ele>1118</ele>
        <time>2010-01-01T03:01:17Z</time>
      </trkpt>
      <trkpt lat="42.66546" lon="-0.57176">
        <ele>1112</ele>
        <time>2010-01-01T03:01:31Z</time>
      </trkpt>
      <trkpt lat="42.66543" lon="-0.57183">
        <ele>1111</ele>
        <time>2010-01-01T03:01:33Z</time>
      </trkpt>
      <trkpt lat="42.66532" lon="-0.57169">
        <ele>1106</ele>
        <time>2010-01-01T03:01:40Z</time>
      </trkpt>
      <trkpt lat="42.66517" lon="-0.57147">
        <ele>1101</ele>
        <time>2010-01-01T03:01:49Z</time>
      </trkpt>
      <trkpt lat="42.66513" lon="-0.57143">
        <ele>1099</ele>
        <time>2010-01-01T03:01:50Z</time>
      </trkpt>
      <trkpt lat="42.66511" lon="-0.57138">
        <ele>1098</ele>
        <time>2010-01-01T03:01:52Z</time>
      </trkpt>
      <trkpt lat="42.66487" lon="-0.57106">
        <ele>1090</ele>
        <time>2010-01-01T03:02:06Z</time>
      </trkpt>
      <trkpt lat="42.6648" lon="-0.57099">
        <ele>1088</ele>
        <time>2010-01-01T03:02:09Z</time>
      </trkpt>
      <trkpt lat="42.66477" lon="-0.57091">
        <ele>1087</ele>
        <time>2010-01-01T03:02:12Z</time>
      </trkpt>
      <trkpt lat="42.66477" lon="-0.57081">
        <ele>1087</ele>
        <time>2010-01-01T03:02:15Z</time>
      </trkpt>
      <trkpt lat="42.66492" lon="-0.57061">
        <ele>1087</ele>
        <time>2010-01-01T03:02:23Z</time>
      </trkpt>
      <trkpt lat="42.66497" lon="-0.57052">
        <ele>1087</ele>
        <time>2010-01-01T03:02:26Z</time>
      </trkpt>
      <trkpt lat="42.66497" lon="-0.5705">
        <ele>1086</ele>
        <time>2010-01-01T03:02:27Z</time>
      </trkpt>
      <trkpt lat="42.66456" lon="-0.57059">
        <ele>1077</ele>
        <time>2010-01-01T03:02:44Z</time>
      </trkpt>
      <trkpt lat="42.66435" lon="-0.57067">
        <ele>1072</ele>
        <time>2010-01-01T03:02:53Z</time>
      </trkpt>
      <trkpt lat="42.66424" lon="-0.57075">
        <ele>1070</ele>
        <time>2010-01-01T03:02:57Z</time>
      </trkpt>
      <trkpt lat="42.664" lon="-0.57079">
        <ele>1064</ele>
        <time>2010-01-01T03:03:07Z</time>
      </trkpt>
      <trkpt lat="42.66376" lon="-0.57086">
        <ele>1062</ele>
        <time>2010-01-01T03:03:17Z</time>
      </trkpt>
      <trkpt lat="42.66364" lon="-0.57089">
        <ele>1061</ele>
        <time>2010-01-01T03:03:22Z</time>
      </trkpt>
      <trkpt lat="42.6635" lon="-0.57084">
        <ele>1059</ele>
        <time>2010-01-01T03:03:28Z</time>
      </trkpt>
      <trkpt lat="42.66349" lon="-0.57058">
        <ele>1058</ele>
        <time>2010-01-01T03:03:35Z</time>
      </trkpt>
      <trkpt lat="42.66347" lon="-0.57051">
        <ele>1057</ele>
        <time>2010-01-01T03:03:38Z</time>
      </trkpt>
      <trkpt lat="42.6634" lon="-0.57048">
        <ele>1057</ele>
        <time>2010-01-01T03:03:40Z</time>
      </trkpt>
      <trkpt lat="42.66337" lon="-0.57039">
        <ele>1056</ele>
        <time>2010-01-01T03:03:43Z</time>
      </trkpt>
      <trkpt lat="42.66333" lon="-0.56975">
        <ele>1058</ele>
        <time>2010-01-01T03:04:02Z</time>
      </trkpt>
      <trkpt lat="42.66327" lon="-0.56947">
        <ele>1062</ele>
        <time>2010-01-01T03:04:11Z</time>
      </trkpt>
      <trkpt lat="42.66321" lon="-0.56927">
        <ele>1064</ele>
        <time>2010-01-01T03:04:17Z</time>
      </trkpt>
      <trkpt lat="42.66315" lon="-0.56916">
        <ele>1066</ele>
        <time>2010-01-01T03:04:21Z</time>
      </trkpt>
      <trkpt lat="42.66307" lon="-0.56913">
        <ele>1065</ele>
        <time>2010-01-01T03:04:24Z</time>
      </trkpt>
      <trkpt lat="42.66297" lon="-0.56915">
        <ele>1064</ele>
        <time>2010-01-01T03:04:28Z</time>
      </trkpt>
      <trkpt lat="42.66254" lon="-0.56928">
        <ele>1059</ele>
        <time>2010-01-01T03:04:46Z</time>
      </trkpt>
      <trkpt lat="42.66243" lon="-0.5693">
        <ele>1058</ele>
        <time>2010-01-01T03:04:50Z</time>
      </trkpt>
      <trkpt lat="42.6622" lon="-0.56927">
        <ele>1056</ele>
        <time>2010-01-01T03:05:00Z</time>
      </trkpt>
      <trkpt lat="42.66166" lon="-0.56895">
        <ele>1051</ele>
        <time>2010-01-01T03:05:23Z</time>
      </trkpt>
      <trkpt lat="42.66156" lon="-0.56886">
        <ele>1049</ele>
        <time>2010-01-01T03:05:28Z</time>
      </trkpt>
      <trkpt lat="42.66145" lon="-0.5688">
        <ele>1047</ele>
        <time>2010-01-01T03:05:33Z</time>
      </trkpt>
      <trkpt lat="42.66117" lon="-0.56871">
        <ele>1043</ele>
        <time>2010-01-01T03:05:44Z</time>
      </trkpt>
      <trkpt lat="42.66104" lon="-0.56868">
        <ele>1042</ele>
        <time>2010-01-01T03:05:50Z</time>
      </trkpt>
      <trkpt lat="42.66093" lon="-0.56872">
        <ele>1041</ele>
        <time>2010-01-01T03:05:54Z</time>
      </trkpt>
      <trkpt lat="42.66081" lon="-0.56883">
        <ele>1039</ele>
        <time>2010-01-01T03:06:00Z</time>
      </trkpt>
      <trkpt lat="42.66078" lon="-0.56882">
        <ele>1039</ele>
        <time>2010-01-01T03:06:01Z</time>
      </trkpt>
      <trkpt lat="42.66033" lon="-0.56845">
        <ele>1033</ele>
        <time>2010-01-01T03:06:22Z</time>
      </trkpt>
      <trkpt lat="42.66012" lon="-0.56834">
        <ele>1030</ele>
        <time>2010-01-01T03:06:31Z</time>
      </trkpt>
      <trkpt lat="42.66003" lon="-0.56827">
        <ele>1029</ele>
        <time>2010-01-01T03:06:35Z</time>
      </trkpt>
      <trkpt lat="42.65985" lon="-0.56807">
        <ele>1029</ele>
        <time>2010-01-01T03:06:45Z</time>
      </trkpt>
      <trkpt lat="42.65969" lon="-0.56785">
        <ele>1030</ele>
        <time>2010-01-01T03:06:54Z</time>
      </trkpt>
      <trkpt lat="42.6593" lon="-0.5675">
        <ele>1028</ele>
        <time>2010-01-01T03:07:13Z</time>
      </trkpt>
      <trkpt lat="42.65897" lon="-0.56713">
        <ele>1027</ele>
        <time>2010-01-01T03:07:30Z</time>
      </trkpt>
      <trkpt lat="42.65889" lon="-0.56706">
        <ele>1027</ele>
        <time>2010-01-01T03:07:33Z</time>
      </trkpt>
      <trkpt lat="42.65868" lon="-0.56698">
        <ele>1024</ele>
        <time>2010-01-01T03:07:42Z</time>
      </trkpt>
      <trkpt lat="42.65855" lon="-0.56689">
        <ele>1024</ele>
        <time>2010-01-01T03:07:48Z</time>
      </trkpt>
      <trkpt lat="42.65845" lon="-0.56679">
        <ele>1024</ele>
        <time>2010-01-01T03:07:53Z</time>
      </trkpt>
      <trkpt lat="42.65843" lon="-0.56675">
        <ele>1024</ele>
        <time>2010-01-01T03:07:54Z</time>
      </trkpt>
      <trkpt lat="42.65827" lon="-0.56663">
        <ele>1024</ele>
        <time>2010-01-01T03:08:02Z</time>
      </trkpt>
      <trkpt lat="42.65816" lon="-0.56651">
        <ele>1024</ele>
        <time>2010-01-01T03:08:07Z</time>
      </trkpt>
      <trkpt lat="42.65789" lon="-0.56615">
        <ele>1024</ele>
        <time>2010-01-01T03:08:23Z</time>
      </trkpt>
      <trkpt lat="42.65779" lon="-0.56597">
        <ele>1025</ele>
        <time>2010-01-01T03:08:29Z</time>
      </trkpt>
      <trkpt lat="42.65768" lon="-0.56589">
        <ele>1025</ele>
        <time>2010-01-01T03:08:34Z</time>
      </trkpt>
      <trkpt lat="42.65763" lon="-0.56579">
        <ele>1025</ele>
        <time>2010-01-01T03:08:38Z</time>
      </trkpt>
      <trkpt lat="42.65757" lon="-0.56572">
        <ele>1025</ele>
        <time>2010-01-01T03:08:41Z</time>
      </trkpt>
      <trkpt lat="42.65753" lon="-0.56562">
        <ele>1025</ele>
        <time>2010-01-01T03:08:44Z</time>
      </trkpt>
      <trkpt lat="42.6575" lon="-0.5655">
        <ele>1025</ele>
        <time>2010-01-01T03:08:48Z</time>
      </trkpt>
      <trkpt lat="42.65737" lon="-0.56522">
        <ele>1026</ele>
        <time>2010-01-01T03:08:58Z</time>
      </trkpt>
      <trkpt lat="42.65729" lon="-0.5652">
        <ele>1026</ele>
        <time>2010-01-01T03:09:01Z</time>
      </trkpt>
      <trkpt lat="42.65727" lon="-0.56518">
        <ele>1026</ele>
        <time>2010-01-01T03:09:02Z</time>
      </trkpt>
      <trkpt lat="42.65718" lon="-0.56516">
        <ele>1026</ele>
        <time>2010-01-01T03:09:06Z</time>
      </trkpt>
      <trkpt lat="42.65714" lon="-0.56508">
        <ele>1026</ele>
        <time>2010-01-01T03:09:08Z</time>
      </trkpt>
      <trkpt lat="42.6571" lon="-0.5649">
        <ele>1025</ele>
        <time>2010-01-01T03:09:14Z</time>
      </trkpt>
      <trkpt lat="42.65711" lon="-0.5647">
        <ele>1024</ele>
        <time>2010-01-01T03:09:20Z</time>
      </trkpt>
      <trkpt lat="42.65709" lon="-0.56479">
        <ele>1024</ele>
        <time>2010-01-01T03:09:22Z</time>
      </trkpt>
      <trkpt lat="42.65709" lon="-0.56499">
        <ele>1025</ele>
        <time>2010-01-01T03:09:28Z</time>
      </trkpt>
      <trkpt lat="42.65712" lon="-0.5651">
        <ele>1026</ele>
        <time>2010-01-01T03:09:32Z</time>
      </trkpt>
      <trkpt lat="42.65723" lon="-0.56519">
        <ele>1026</ele>
        <time>2010-01-01T03:09:37Z</time>
      </trkpt>
      <trkpt lat="42.65721" lon="-0.56527">
        <ele>1025</ele>
        <time>2010-01-01T03:09:40Z</time>
      </trkpt>
      <trkpt lat="42.6572" lon="-0.56523">
        <ele>1026</ele>
        <time>2010-01-01T03:09:41Z</time>
      </trkpt>
      <trkpt lat="42.65711" lon="-0.56516">
        <ele>1025</ele>
        <time>2010-01-01T03:09:45Z</time>
      </trkpt>
      <trkpt lat="42.65709" lon="-0.56506">
        <ele>1025</ele>
        <time>2010-01-01T03:09:48Z</time>
      </trkpt>
      <trkpt lat="42.65707" lon="-0.56484">
        <ele>1025</ele>
        <time>2010-01-01T03:09:55Z</time>
      </trkpt>
      <trkpt lat="42.65707" lon="-0.56454">
        <ele>1023</ele>
        <time>2010-01-01T03:10:03Z</time>
      </trkpt>
      <trkpt lat="42.65706" lon="-0.56429">
        <ele>1022</ele>
        <time>2010-01-01T03:10:11Z</time>
      </trkpt>
      <trkpt lat="42.65703" lon="-0.56415">
        <ele>1022</ele>
        <time>2010-01-01T03:10:15Z</time>
      </trkpt>
      <trkpt lat="42.65685" lon="-0.56374">
        <ele>1020</ele>
        <time>2010-01-01T03:10:29Z</time>
      </trkpt>
      <trkpt lat="42.65677" lon="-0.5636">
        <ele>1019</ele>
        <time>2010-01-01T03:10:34Z</time>
      </trkpt>
      <trkpt lat="42.65665" lon="-0.56342">
        <ele>1016</ele>
        <time>2010-01-01T03:10:42Z</time>
      </trkpt>
      <trkpt lat="42.65653" lon="-0.56329">
        <ele>1014</ele>
        <time>2010-01-01T03:10:48Z</time>
      </trkpt>
      <trkpt lat="42.65641" lon="-0.5632">
        <ele>1012</ele>
        <time>2010-01-01T03:10:53Z</time>
      </trkpt>
      <trkpt lat="42.65639" lon="-0.56315">
        <ele>1011</ele>
        <time>2010-01-01T03:10:55Z</time>
      </trkpt>
      <trkpt lat="42.65647" lon="-0.56306">
        <ele>1010</ele>
        <time>2010-01-01T03:10:59Z</time>
      </trkpt>
      <trkpt lat="42.65663" lon="-0.56294">
        <ele>1007</ele>
        <time>2010-01-01T03:11:06Z</time>
      </trkpt>
      <trkpt lat="42.65669" lon="-0.56293">
        <ele>1007</ele>
        <time>2010-01-01T03:11:09Z</time>
      </trkpt>
      <trkpt lat="42.65686" lon="-0.56279">
        <ele>1003</ele>
        <time>2010-01-01T03:11:17Z</time>
      </trkpt>
      <trkpt lat="42.65692" lon="-0.56275">
        <ele>1003</ele>
        <time>2010-01-01T03:11:20Z</time>
      </trkpt>
      <trkpt lat="42.65712" lon="-0.56255">
        <ele>997</ele>
        <time>2010-01-01T03:11:30Z</time>
      </trkpt>
      <trkpt lat="42.65721" lon="-0.5625">
        <ele>995</ele>
        <time>2010-01-01T03:11:34Z</time>
      </trkpt>
      <trkpt lat="42.65729" lon="-0.56241">
        <ele>992</ele>
        <time>2010-01-01T03:11:38Z</time>
      </trkpt>
      <trkpt lat="42.65746" lon="-0.56227">
        <ele>987</ele>
        <time>2010-01-01T03:11:45Z</time>
      </trkpt>
      <trkpt lat="42.6575" lon="-0.5622">
        <ele>985</ele>
        <time>2010-01-01T03:11:48Z</time>
      </trkpt>
      <trkpt lat="42.65767" lon="-0.56203">
        <ele>981</ele>
        <time>2010-01-01T03:11:57Z</time>
      </trkpt>
      <trkpt lat="42.6579" lon="-0.56182">
        <ele>976</ele>
        <time>2010-01-01T03:12:08Z</time>
      </trkpt>
      <trkpt lat="42.65802" lon="-0.56175">
        <ele>975</ele>
        <time>2010-01-01T03:12:13Z</time>
      </trkpt>
      <trkpt lat="42.65809" lon="-0.56166">
        <ele>972</ele>
        <time>2010-01-01T03:12:17Z</time>
      </trkpt>
      <trkpt lat="42.65827" lon="-0.56159">
        <ele>973</ele>
        <time>2010-01-01T03:12:24Z</time>
      </trkpt>
      <trkpt lat="42.65836" lon="-0.56151">
        <ele>972</ele>
        <time>2010-01-01T03:12:28Z</time>
      </trkpt>
      <trkpt lat="42.65855" lon="-0.56142">
        <ele>972</ele>
        <time>2010-01-01T03:12:37Z</time>
      </trkpt>
      <trkpt lat="42.65866" lon="-0.56133">
        <ele>970</ele>
        <time>2010-01-01T03:12:42Z</time>
      </trkpt>
      <trkpt lat="42.65876" lon="-0.56131">
        <ele>970</ele>
        <time>2010-01-01T03:12:46Z</time>
      </trkpt>
      <trkpt lat="42.65885" lon="-0.5612">
        <ele>966</ele>
        <time>2010-01-01T03:12:51Z</time>
      </trkpt>
      <trkpt lat="42.65894" lon="-0.56116">
        <ele>966</ele>
        <time>2010-01-01T03:12:55Z</time>
      </trkpt>
      <trkpt lat="42.65898" lon="-0.56111">
        <ele>964</ele>
        <time>2010-01-01T03:12:56Z</time>
      </trkpt>
      <trkpt lat="42.65902" lon="-0.56098">
        <ele>960</ele>
        <time>2010-01-01T03:13:01Z</time>
      </trkpt>
      <trkpt lat="42.65901" lon="-0.56096">
        <ele>959</ele>
        <time>2010-01-01T03:13:01Z</time>
      </trkpt>
      <trkpt lat="42.65903" lon="-0.5609">
        <ele>957</ele>
        <time>2010-01-01T03:13:04Z</time>
      </trkpt>
      <trkpt lat="42.65965" lon="-0.56054">
        <ele>956</ele>
        <time>2010-01-01T03:13:30Z</time>
      </trkpt>
      <trkpt lat="42.65981" lon="-0.56036">
        <ele>954</ele>
        <time>2010-01-01T03:13:39Z</time>
      </trkpt>
      <trkpt lat="42.65987" lon="-0.56022">
        <ele>952</ele>
        <time>2010-01-01T03:13:44Z</time>
      </trkpt>
      <trkpt lat="42.65996" lon="-0.56013">
        <ele>950</ele>
        <time>2010-01-01T03:13:48Z</time>
      </trkpt>
      <trkpt lat="42.66007" lon="-0.55987">
        <ele>947</ele>
        <time>2010-01-01T03:13:57Z</time>
      </trkpt>
      <trkpt lat="42.66015" lon="-0.55971">
        <ele>945</ele>
        <time>2010-01-01T03:14:02Z</time>
      </trkpt>
      <trkpt lat="42.66047" lon="-0.5592">
        <ele>945</ele>
        <time>2010-01-01T03:14:22Z</time>
      </trkpt>
      <trkpt lat="42.66058" lon="-0.55883">
        <ele>942</ele>
        <time>2010-01-01T03:14:34Z</time>
      </trkpt>
      <trkpt lat="42.66064" lon="-0.55834">
        <ele>939</ele>
        <time>2010-01-01T03:14:49Z</time>
      </trkpt>
      <trkpt lat="42.66075" lon="-0.55804">
        <ele>937</ele>
        <time>2010-01-01T03:14:58Z</time>
      </trkpt>
      <trkpt lat="42.66085" lon="-0.55772">
        <ele>935</ele>
        <time>2010-01-01T03:15:09Z</time>
      </trkpt>
      <trkpt lat="42.66086" lon="-0.55759">
        <ele>934</ele>
        <time>2010-01-01T03:15:13Z</time>
      </trkpt>
      <trkpt lat="42.66094" lon="-0.55745">
        <ele>934</ele>
        <time>2010-01-01T03:15:18Z</time>
      </trkpt>
      <trkpt lat="42.66103" lon="-0.55734">
        <ele>934</ele>
        <time>2010-01-01T03:15:23Z</time>
      </trkpt>
      <trkpt lat="42.66106" lon="-0.55725">
        <ele>934</ele>
        <time>2010-01-01T03:15:25Z</time>
      </trkpt>
      <trkpt lat="42.66107" lon="-0.55712">
        <ele>933</ele>
        <time>2010-01-01T03:15:29Z</time>
      </trkpt>
      <trkpt lat="42.66101" lon="-0.55709">
        <ele>933</ele>
        <time>2010-01-01T03:15:32Z</time>
      </trkpt>
      <trkpt lat="42.66096" lon="-0.55673">
        <ele>932</ele>
        <time>2010-01-01T03:15:43Z</time>
      </trkpt>
      <trkpt lat="42.66074" lon="-0.55641">
        <ele>932</ele>
        <time>2010-01-01T03:15:56Z</time>
      </trkpt>
      <trkpt lat="42.66077" lon="-0.55634">
        <ele>932</ele>
        <time>2010-01-01T03:15:58Z</time>
      </trkpt>
      <trkpt lat="42.66077" lon="-0.55624">
        <ele>932</ele>
        <time>2010-01-01T03:16:01Z</time>
      </trkpt>
      <trkpt lat="42.66071" lon="-0.55615">
        <ele>932</ele>
        <time>2010-01-01T03:16:05Z</time>
      </trkpt>
      <trkpt lat="42.66066" lon="-0.55593">
        <ele>932</ele>
        <time>2010-01-01T03:16:12Z</time>
      </trkpt>
      <trkpt lat="42.66053" lon="-0.55549">
        <ele>931</ele>
        <time>2010-01-01T03:16:26Z</time>
      </trkpt>
      <trkpt lat="42.66052" lon="-0.55534">
        <ele>930</ele>
        <time>2010-01-01T03:16:30Z</time>
      </trkpt>
      <trkpt lat="42.66048" lon="-0.55524">
        <ele>930</ele>
        <time>2010-01-01T03:16:34Z</time>
      </trkpt>
      <trkpt lat="42.66049" lon="-0.55505">
        <ele>929</ele>
        <time>2010-01-01T03:16:39Z</time>
      </trkpt>
      <trkpt lat="42.66045" lon="-0.55472">
        <ele>926</ele>
        <time>2010-01-01T03:16:49Z</time>
      </trkpt>
      <trkpt lat="42.66053" lon="-0.55466">
        <ele>925</ele>
        <time>2010-01-01T03:16:53Z</time>
      </trkpt>
      <trkpt lat="42.6606" lon="-0.55468">
        <ele>925</ele>
        <time>2010-01-01T03:16:55Z</time>
      </trkpt>
      <trkpt lat="42.66068" lon="-0.55468">
        <ele>925</ele>
        <time>2010-01-01T03:16:59Z</time>
      </trkpt>
      <trkpt lat="42.66076" lon="-0.55471">
        <ele>925</ele>
        <time>2010-01-01T03:17:02Z</time>
      </trkpt>
      <trkpt lat="42.66081" lon="-0.55478">
        <ele>926</ele>
        <time>2010-01-01T03:17:05Z</time>
      </trkpt>
      <trkpt lat="42.66083" lon="-0.55478">
        <ele>926</ele>
        <time>2010-01-01T03:17:06Z</time>
      </trkpt>
      <trkpt lat="42.66092" lon="-0.55477">
        <ele>925</ele>
        <time>2010-01-01T03:17:09Z</time>
      </trkpt>
      <trkpt lat="42.661" lon="-0.55471">
        <ele>924</ele>
        <time>2010-01-01T03:17:13Z</time>
      </trkpt>
      <trkpt lat="42.66109" lon="-0.55471">
        <ele>924</ele>
        <time>2010-01-01T03:17:17Z</time>
      </trkpt>
      <trkpt lat="42.66113" lon="-0.55469">
        <ele>923</ele>
        <time>2010-01-01T03:17:18Z</time>
      </trkpt>
      <trkpt lat="42.66119" lon="-0.55459">
        <ele>923</ele>
        <time>2010-01-01T03:17:22Z</time>
      </trkpt>
      <trkpt lat="42.66119" lon="-0.5545">
        <ele>922</ele>
        <time>2010-01-01T03:17:25Z</time>
      </trkpt>
      <trkpt lat="42.66115" lon="-0.55441">
        <ele>922</ele>
        <time>2010-01-01T03:17:28Z</time>
      </trkpt>
      <trkpt lat="42.66118" lon="-0.55429">
        <ele>922</ele>
        <time>2010-01-01T03:17:32Z</time>
      </trkpt>
      <trkpt lat="42.66118" lon="-0.55422">
        <ele>922</ele>
        <time>2010-01-01T03:17:34Z</time>
      </trkpt>
      <trkpt lat="42.66122" lon="-0.55421">
        <ele>922</ele>
        <time>2010-01-01T03:17:35Z</time>
      </trkpt>
      <trkpt lat="42.66126" lon="-0.55406">
        <ele>922</ele>
        <time>2010-01-01T03:17:40Z</time>
      </trkpt>
      <trkpt lat="42.66124" lon="-0.55393">
        <ele>922</ele>
        <time>2010-01-01T03:17:44Z</time>
      </trkpt>
      <trkpt lat="42.66094" lon="-0.55367">
        <ele>922</ele>
        <time>2010-01-01T03:17:58Z</time>
      </trkpt>
      <trkpt lat="42.66079" lon="-0.55334">
        <ele>922</ele>
        <time>2010-01-01T03:18:09Z</time>
      </trkpt>
      <trkpt lat="42.6604" lon="-0.55323">
        <ele>922</ele>
        <time>2010-01-01T03:18:25Z</time>
      </trkpt>
      <trkpt lat="42.66039" lon="-0.55323">
        <ele>922</ele>
        <time>2010-01-01T03:18:26Z</time>
      </trkpt>
      <trkpt lat="42.66039" lon="-0.5531">
        <ele>922</ele>
        <time>2010-01-01T03:18:30Z</time>
      </trkpt>
      <trkpt lat="42.6604" lon="-0.55298">
        <ele>923</ele>
        <time>2010-01-01T03:18:33Z</time>
      </trkpt>
      <trkpt lat="42.66043" lon="-0.55293">
        <ele>923</ele>
        <time>2010-01-01T03:18:35Z</time>
      </trkpt>
      <trkpt lat="42.66047" lon="-0.55276">
        <ele>923</ele>
        <time>2010-01-01T03:18:40Z</time>
      </trkpt>
      <trkpt lat="42.66055" lon="-0.55265">
        <ele>923</ele>
        <time>2010-01-01T03:18:45Z</time>
      </trkpt>
      <trkpt lat="42.66058" lon="-0.55253">
        <ele>924</ele>
        <time>2010-01-01T03:18:48Z</time>
      </trkpt>
      <trkpt lat="42.66068" lon="-0.55229">
        <ele>924</ele>
        <time>2010-01-01T03:18:56Z</time>
      </trkpt>
      <trkpt lat="42.6608" lon="-0.55208">
        <ele>924</ele>
        <time>2010-01-01T03:19:04Z</time>
      </trkpt>
      <trkpt lat="42.66103" lon="-0.55148">
        <ele>923</ele>
        <time>2010-01-01T03:19:24Z</time>
      </trkpt>
      <trkpt lat="42.66106" lon="-0.55136">
        <ele>924</ele>
        <time>2010-01-01T03:19:28Z</time>
      </trkpt>
      <trkpt lat="42.6612" lon="-0.55123">
        <ele>923</ele>
        <time>2010-01-01T03:19:35Z</time>
      </trkpt>
      <trkpt lat="42.66127" lon="-0.55118">
        <ele>923</ele>
        <time>2010-01-01T03:19:38Z</time>
      </trkpt>
      <trkpt lat="42.66134" lon="-0.55107">
        <ele>923</ele>
        <time>2010-01-01T03:19:42Z</time>
      </trkpt>
      <trkpt lat="42.66147" lon="-0.55082">
        <ele>924</ele>
        <time>2010-01-01T03:19:51Z</time>
      </trkpt>
      <trkpt lat="42.66157" lon="-0.55066">
        <ele>925</ele>
        <time>2010-01-01T03:19:58Z</time>
      </trkpt>
      <trkpt lat="42.66158" lon="-0.5506">
        <ele>925</ele>
        <time>2010-01-01T03:19:59Z</time>
      </trkpt>
      <trkpt lat="42.66169" lon="-0.55038">
        <ele>927</ele>
        <time>2010-01-01T03:20:07Z</time>
      </trkpt>
      <trkpt lat="42.66211" lon="-0.54983">
        <ele>929</ele>
        <time>2010-01-01T03:20:31Z</time>
      </trkpt>
      <trkpt lat="42.66214" lon="-0.54973">
        <ele>929</ele>
        <time>2010-01-01T03:20:34Z</time>
      </trkpt>
      <trkpt lat="42.66241" lon="-0.54925">
        <ele>930</ele>
        <time>2010-01-01T03:20:51Z</time>
      </trkpt>
      <trkpt lat="42.66254" lon="-0.54908">
        <ele>930</ele>
        <time>2010-01-01T03:20:59Z</time>
      </trkpt>
      <trkpt lat="42.66262" lon="-0.54892">
        <ele>929</ele>
        <time>2010-01-01T03:21:04Z</time>
      </trkpt>
      <trkpt lat="42.66279" lon="-0.5487">
        <ele>928</ele>
        <time>2010-01-01T03:21:14Z</time>
      </trkpt>
      <trkpt lat="42.66296" lon="-0.54843">
        <ele>927</ele>
        <time>2010-01-01T03:21:24Z</time>
      </trkpt>
      <trkpt lat="42.66305" lon="-0.54835">
        <ele>927</ele>
        <time>2010-01-01T03:21:28Z</time>
      </trkpt>
      <trkpt lat="42.66314" lon="-0.54841">
        <ele>927</ele>
        <time>2010-01-01T03:21:33Z</time>
      </trkpt>
      <trkpt lat="42.6632" lon="-0.54842">
        <ele>926</ele>
        <time>2010-01-01T03:21:35Z</time>
      </trkpt>
      <trkpt lat="42.66323" lon="-0.54836">
        <ele>926</ele>
        <time>2010-01-01T03:21:37Z</time>
      </trkpt>
      <trkpt lat="42.66331" lon="-0.54826">
        <ele>926</ele>
        <time>2010-01-01T03:21:41Z</time>
      </trkpt>
      <trkpt lat="42.66342" lon="-0.54801">
        <ele>926</ele>
        <time>2010-01-01T03:21:50Z</time>
      </trkpt>
      <trkpt lat="42.66359" lon="-0.54788">
        <ele>926</ele>
        <time>2010-01-01T03:21:58Z</time>
      </trkpt>
      <trkpt lat="42.66365" lon="-0.54785">
        <ele>926</ele>
        <time>2010-01-01T03:22:00Z</time>
      </trkpt>
      <trkpt lat="42.66374" lon="-0.54786">
        <ele>926</ele>
        <time>2010-01-01T03:22:04Z</time>
      </trkpt>
      <trkpt lat="42.66378" lon="-0.54789">
        <ele>926</ele>
        <time>2010-01-01T03:22:06Z</time>
      </trkpt>
      <trkpt lat="42.66402" lon="-0.54787">
        <ele>927</ele>
        <time>2010-01-01T03:22:15Z</time>
      </trkpt>
      <trkpt lat="42.66411" lon="-0.54795">
        <ele>927</ele>
        <time>2010-01-01T03:22:20Z</time>
      </trkpt>
      <trkpt lat="42.66422" lon="-0.548">
        <ele>928</ele>
        <time>2010-01-01T03:22:24Z</time>
      </trkpt>
      <trkpt lat="42.66433" lon="-0.54808">
        <ele>927</ele>
        <time>2010-01-01T03:22:29Z</time>
      </trkpt>
      <trkpt lat="42.6644" lon="-0.54817">
        <ele>927</ele>
        <time>2010-01-01T03:22:33Z</time>
      </trkpt>
      <trkpt lat="42.66443" lon="-0.54818">
        <ele>927</ele>
        <time>2010-01-01T03:22:34Z</time>
      </trkpt>
      <trkpt lat="42.6645" lon="-0.54819">
        <ele>927</ele>
        <time>2010-01-01T03:22:37Z</time>
      </trkpt>
      <trkpt lat="42.66485" lon="-0.54821">
        <ele>925</ele>
        <time>2010-01-01T03:22:51Z</time>
      </trkpt>
      <trkpt lat="42.66492" lon="-0.54819">
        <ele>924</ele>
        <time>2010-01-01T03:22:54Z</time>
      </trkpt>
      <trkpt lat="42.66492" lon="-0.54802">
        <ele>925</ele>
        <time>2010-01-01T03:22:59Z</time>
      </trkpt>
      <trkpt lat="42.66485" lon="-0.54766">
        <ele>925</ele>
        <time>2010-01-01T03:23:10Z</time>
      </trkpt>
      <trkpt lat="42.66486" lon="-0.54746">
        <ele>925</ele>
        <time>2010-01-01T03:23:16Z</time>
      </trkpt>
      <trkpt lat="42.66491" lon="-0.54739">
        <ele>925</ele>
        <time>2010-01-01T03:23:18Z</time>
      </trkpt>
      <trkpt lat="42.66502" lon="-0.54728">
        <ele>925</ele>
        <time>2010-01-01T03:23:24Z</time>
      </trkpt>
      <trkpt lat="42.66512" lon="-0.54726">
        <ele>926</ele>
        <time>2010-01-01T03:23:28Z</time>
      </trkpt>
      <trkpt lat="42.66514" lon="-0.54727">
        <ele>926</ele>
        <time>2010-01-01T03:23:29Z</time>
      </trkpt>
      <trkpt lat="42.66529" lon="-0.54728">
        <ele>926</ele>
        <time>2010-01-01T03:23:35Z</time>
      </trkpt>
      <trkpt lat="42.66544" lon="-0.54719">
        <ele>927</ele>
        <time>2010-01-01T03:23:41Z</time>
      </trkpt>
      <trkpt lat="42.66552" lon="-0.54709">
        <ele>927</ele>
        <time>2010-01-01T03:23:46Z</time>
      </trkpt>
      <trkpt lat="42.66554" lon="-0.54709">
        <ele>927</ele>
        <time>2010-01-01T03:23:47Z</time>
      </trkpt>
      <trkpt lat="42.66571" lon="-0.54699">
        <ele>928</ele>
        <time>2010-01-01T03:23:54Z</time>
      </trkpt>
      <trkpt lat="42.66598" lon="-0.54664">
        <ele>928</ele>
        <time>2010-01-01T03:24:09Z</time>
      </trkpt>
      <trkpt lat="42.66611" lon="-0.54661">
        <ele>928</ele>
        <time>2010-01-01T03:24:14Z</time>
      </trkpt>
      <trkpt lat="42.66624" lon="-0.54654">
        <ele>928</ele>
        <time>2010-01-01T03:24:20Z</time>
      </trkpt>
      <trkpt lat="42.66653" lon="-0.54625">
        <ele>929</ele>
        <time>2010-01-01T03:24:34Z</time>
      </trkpt>
      <trkpt lat="42.66662" lon="-0.5462">
        <ele>929</ele>
        <time>2010-01-01T03:24:38Z</time>
      </trkpt>
      <trkpt lat="42.66672" lon="-0.54618">
        <ele>930</ele>
        <time>2010-01-01T03:24:42Z</time>
      </trkpt>
      <trkpt lat="42.6668" lon="-0.54614">
        <ele>930</ele>
        <time>2010-01-01T03:24:46Z</time>
      </trkpt>
      <trkpt lat="42.66686" lon="-0.54601">
        <ele>930</ele>
        <time>2010-01-01T03:24:50Z</time>
      </trkpt>
      <trkpt lat="42.66688" lon="-0.54575">
        <ele>929</ele>
        <time>2010-01-01T03:24:58Z</time>
      </trkpt>
      <trkpt lat="42.66696" lon="-0.54533">
        <ele>928</ele>
        <time>2010-01-01T03:25:11Z</time>
      </trkpt>
      <trkpt lat="42.66704" lon="-0.5452">
        <ele>928</ele>
        <time>2010-01-01T03:25:16Z</time>
      </trkpt>
      <trkpt lat="42.66714" lon="-0.54515">
        <ele>929</ele>
        <time>2010-01-01T03:25:20Z</time>
      </trkpt>
      <trkpt lat="42.66725" lon="-0.54504">
        <ele>930</ele>
        <time>2010-01-01T03:25:26Z</time>
      </trkpt>
      <trkpt lat="42.66731" lon="-0.545">
        <ele>930</ele>
        <time>2010-01-01T03:25:28Z</time>
      </trkpt>
      <trkpt lat="42.6674" lon="-0.54499">
        <ele>930</ele>
        <time>2010-01-01T03:25:32Z</time>
      </trkpt>
      <trkpt lat="42.66753" lon="-0.54494">
        <ele>929</ele>
        <time>2010-01-01T03:25:37Z</time>
      </trkpt>
      <trkpt lat="42.66755" lon="-0.54488">
        <ele>929</ele>
        <time>2010-01-01T03:25:39Z</time>
      </trkpt>
      <trkpt lat="42.66754" lon="-0.54478">
        <ele>929</ele>
        <time>2010-01-01T03:25:42Z</time>
      </trkpt>
      <trkpt lat="42.66751" lon="-0.54466">
        <ele>929</ele>
        <time>2010-01-01T03:25:46Z</time>
      </trkpt>
      <trkpt lat="42.66752" lon="-0.54438">
        <ele>929</ele>
        <time>2010-01-01T03:25:54Z</time>
      </trkpt>
      <trkpt lat="42.66756" lon="-0.54431">
        <ele>929</ele>
        <time>2010-01-01T03:25:57Z</time>
      </trkpt>
      <trkpt lat="42.66766" lon="-0.54416">
        <ele>929</ele>
        <time>2010-01-01T03:26:02Z</time>
      </trkpt>
      <trkpt lat="42.6679" lon="-0.54411">
        <ele>929</ele>
        <time>2010-01-01T03:26:13Z</time>
      </trkpt>
      <trkpt lat="42.66799" lon="-0.54403">
        <ele>929</ele>
        <time>2010-01-01T03:26:17Z</time>
      </trkpt>
      <trkpt lat="42.6681" lon="-0.54372">
        <ele>930</ele>
        <time>2010-01-01T03:26:27Z</time>
      </trkpt>
      <trkpt lat="42.66815" lon="-0.54364">
        <ele>931</ele>
        <time>2010-01-01T03:26:30Z</time>
      </trkpt>
      <trkpt lat="42.66823" lon="-0.54357">
        <ele>931</ele>
        <time>2010-01-01T03:26:34Z</time>
      </trkpt>
      <trkpt lat="42.66843" lon="-0.54348">
        <ele>932</ele>
        <time>2010-01-01T03:26:42Z</time>
      </trkpt>
      <trkpt lat="42.66857" lon="-0.54335">
        <ele>933</ele>
        <time>2010-01-01T03:26:49Z</time>
      </trkpt>
      <trkpt lat="42.66873" lon="-0.54301">
        <ele>932</ele>
        <time>2010-01-01T03:27:01Z</time>
      </trkpt>
      <trkpt lat="42.66898" lon="-0.54255">
        <ele>932</ele>
        <time>2010-01-01T03:27:18Z</time>
      </trkpt>
      <trkpt lat="42.66899" lon="-0.54238">
        <ele>932</ele>
        <time>2010-01-01T03:27:23Z</time>
      </trkpt>
      <trkpt lat="42.66901" lon="-0.54222">
        <ele>931</ele>
        <time>2010-01-01T03:27:28Z</time>
      </trkpt>
      <trkpt lat="42.66909" lon="-0.5421">
        <ele>931</ele>
        <time>2010-01-01T03:27:32Z</time>
      </trkpt>
      <trkpt lat="42.66918" lon="-0.54203">
        <ele>931</ele>
        <time>2010-01-01T03:27:36Z</time>
      </trkpt>
      <trkpt lat="42.66925" lon="-0.54202">
        <ele>931</ele>
        <time>2010-01-01T03:27:39Z</time>
      </trkpt>
      <trkpt lat="42.66955" lon="-0.5417">
        <ele>931</ele>
        <time>2010-01-01T03:27:55Z</time>
      </trkpt>
      <trkpt lat="42.66957" lon="-0.54164">
        <ele>931</ele>
        <time>2010-01-01T03:27:56Z</time>
      </trkpt>
      <trkpt lat="42.66965" lon="-0.54153">
        <ele>931</ele>
        <time>2010-01-01T03:28:01Z</time>
      </trkpt>
      <trkpt lat="42.66973" lon="-0.54145">
        <ele>932</ele>
        <time>2010-01-01T03:28:05Z</time>
      </trkpt>
      <trkpt lat="42.67026" lon="-0.54105">
        <ele>933</ele>
        <time>2010-01-01T03:28:29Z</time>
      </trkpt>
      <trkpt lat="42.67047" lon="-0.54083">
        <ele>933</ele>
        <time>2010-01-01T03:28:40Z</time>
      </trkpt>
      <trkpt lat="42.67078" lon="-0.54063">
        <ele>935</ele>
        <time>2010-01-01T03:28:54Z</time>
      </trkpt>
      <trkpt lat="42.67086" lon="-0.5406">
        <ele>935</ele>
        <time>2010-01-01T03:28:57Z</time>
      </trkpt>
      <trkpt lat="42.67096" lon="-0.54055">
        <ele>936</ele>
        <time>2010-01-01T03:29:01Z</time>
      </trkpt>
      <trkpt lat="42.67114" lon="-0.54029">
        <ele>937</ele>
        <time>2010-01-01T03:29:12Z</time>
      </trkpt>
      <trkpt lat="42.6712" lon="-0.54024">
        <ele>937</ele>
        <time>2010-01-01T03:29:15Z</time>
      </trkpt>
      <trkpt lat="42.67125" lon="-0.54022">
        <ele>937</ele>
        <time>2010-01-01T03:29:17Z</time>
      </trkpt>
      <trkpt lat="42.67141" lon="-0.5403">
        <ele>936</ele>
        <time>2010-01-01T03:29:23Z</time>
      </trkpt>
      <trkpt lat="42.6715" lon="-0.54032">
        <ele>936</ele>
        <time>2010-01-01T03:29:27Z</time>
      </trkpt>
      <trkpt lat="42.67156" lon="-0.54032">
        <ele>936</ele>
        <time>2010-01-01T03:29:30Z</time>
      </trkpt>
      <trkpt lat="42.67166" lon="-0.54025">
        <ele>937</ele>
        <time>2010-01-01T03:29:34Z</time>
      </trkpt>
      <trkpt lat="42.67202" lon="-0.53977">
        <ele>936</ele>
        <time>2010-01-01T03:29:54Z</time>
      </trkpt>
      <trkpt lat="42.67209" lon="-0.53958">
        <ele>936</ele>
        <time>2010-01-01T03:30:01Z</time>
      </trkpt>
      <trkpt lat="42.67213" lon="-0.5394">
        <ele>936</ele>
        <time>2010-01-01T03:30:06Z</time>
      </trkpt>
      <trkpt lat="42.67232" lon="-0.53896">
        <ele>938</ele>
        <time>2010-01-01T03:30:21Z</time>
      </trkpt>
      <trkpt lat="42.67274" lon="-0.53842">
        <ele>938</ele>
        <time>2010-01-01T03:30:44Z</time>
      </trkpt>
      <trkpt lat="42.67285" lon="-0.53836">
        <ele>939</ele>
        <time>2010-01-01T03:30:49Z</time>
      </trkpt>
      <trkpt lat="42.67313" lon="-0.53832">
        <ele>938</ele>
        <time>2010-01-01T03:31:00Z</time>
      </trkpt>
      <trkpt lat="42.67327" lon="-0.53828">
        <ele>938</ele>
        <time>2010-01-01T03:31:06Z</time>
      </trkpt>
      <trkpt lat="42.67349" lon="-0.53826">
        <ele>938</ele>
        <time>2010-01-01T03:31:15Z</time>
      </trkpt>
      <trkpt lat="42.67362" lon="-0.53827">
        <ele>938</ele>
        <time>2010-01-01T03:31:20Z</time>
      </trkpt>
      <trkpt lat="42.67379" lon="-0.53824">
        <ele>938</ele>
        <time>2010-01-01T03:31:27Z</time>
      </trkpt>
      <trkpt lat="42.67434" lon="-0.5378">
        <ele>938</ele>
        <time>2010-01-01T03:31:52Z</time>
      </trkpt>
      <trkpt lat="42.67475" lon="-0.53751">
        <ele>938</ele>
        <time>2010-01-01T03:32:11Z</time>
      </trkpt>
      <trkpt lat="42.67499" lon="-0.53731">
        <ele>938</ele>
        <time>2010-01-01T03:32:22Z</time>
      </trkpt>
      <trkpt lat="42.67543" lon="-0.53709">
        <ele>940</ele>
        <time>2010-01-01T03:32:41Z</time>
      </trkpt>
      <trkpt lat="42.67574" lon="-0.53702">
        <ele>941</ele>
        <time>2010-01-01T03:32:54Z</time>
      </trkpt>
      <trkpt lat="42.67577" lon="-0.53689">
        <ele>941</ele>
        <time>2010-01-01T03:32:58Z</time>
      </trkpt>
      <trkpt lat="42.67579" lon="-0.53664">
        <ele>941</ele>
        <time>2010-01-01T03:33:05Z</time>
      </trkpt>
      <trkpt lat="42.67582" lon="-0.53653">
        <ele>941</ele>
        <time>2010-01-01T03:33:08Z</time>
      </trkpt>
      <trkpt lat="42.6759" lon="-0.5364">
        <ele>940</ele>
        <time>2010-01-01T03:33:14Z</time>
      </trkpt>
      <trkpt lat="42.67596" lon="-0.53639">
        <ele>940</ele>
        <time>2010-01-01T03:33:16Z</time>
      </trkpt>
      <trkpt lat="42.67604" lon="-0.53641">
        <ele>940</ele>
        <time>2010-01-01T03:33:19Z</time>
      </trkpt>
      <trkpt lat="42.67615" lon="-0.53646">
        <ele>940</ele>
        <time>2010-01-01T03:33:24Z</time>
      </trkpt>
      <trkpt lat="42.67626" lon="-0.53649">
        <ele>940</ele>
        <time>2010-01-01T03:33:28Z</time>
      </trkpt>
      <trkpt lat="42.67633" lon="-0.53648">
        <ele>940</ele>
        <time>2010-01-01T03:33:31Z</time>
      </trkpt>
      <trkpt lat="42.67666" lon="-0.53637">
        <ele>940</ele>
        <time>2010-01-01T03:33:45Z</time>
      </trkpt>
      <trkpt lat="42.67708" lon="-0.53623">
        <ele>943</ele>
        <time>2010-01-01T03:34:02Z</time>
      </trkpt>
      <trkpt lat="42.6775" lon="-0.53618">
        <ele>945</ele>
        <time>2010-01-01T03:34:19Z</time>
      </trkpt>
      <trkpt lat="42.67779" lon="-0.53605">
        <ele>944</ele>
        <time>2010-01-01T03:34:31Z</time>
      </trkpt>
      <trkpt lat="42.67826" lon="-0.53582">
        <ele>943</ele>
        <time>2010-01-01T03:34:51Z</time>
      </trkpt>
      <trkpt lat="42.6785" lon="-0.53567">
        <ele>944</ele>
        <time>2010-01-01T03:35:02Z</time>
      </trkpt>
      <trkpt lat="42.67885" lon="-0.53543">
        <ele>945</ele>
        <time>2010-01-01T03:35:18Z</time>
      </trkpt>
      <trkpt lat="42.67902" lon="-0.5354">
        <ele>946</ele>
        <time>2010-01-01T03:35:24Z</time>
      </trkpt>
      <trkpt lat="42.67918" lon="-0.53539">
        <ele>947</ele>
        <time>2010-01-01T03:35:31Z</time>
      </trkpt>
      <trkpt lat="42.6793" lon="-0.53535">
        <ele>947</ele>
        <time>2010-01-01T03:35:35Z</time>
      </trkpt>
      <trkpt lat="42.68079" lon="-0.53388">
        <ele>947</ele>
        <time>2010-01-01T03:36:49Z</time>
      </trkpt>
      <trkpt lat="42.6812" lon="-0.53367">
        <ele>949</ele>
        <time>2010-01-01T03:37:07Z</time>
      </trkpt>
      <trkpt lat="42.68142" lon="-0.53358">
        <ele>949</ele>
        <time>2010-01-01T03:37:16Z</time>
      </trkpt>
      <trkpt lat="42.68183" lon="-0.53333">
        <ele>951</ele>
        <time>2010-01-01T03:37:34Z</time>
      </trkpt>
      <trkpt lat="42.68199" lon="-0.53326">
        <ele>952</ele>
        <time>2010-01-01T03:37:41Z</time>
      </trkpt>
      <trkpt lat="42.68211" lon="-0.53323">
        <ele>952</ele>
        <time>2010-01-01T03:37:46Z</time>
      </trkpt>
      <trkpt lat="42.68225" lon="-0.53325">
        <ele>953</ele>
        <time>2010-01-01T03:37:52Z</time>
      </trkpt>
      <trkpt lat="42.68238" lon="-0.53325">
        <ele>953</ele>
        <time>2010-01-01T03:37:57Z</time>
      </trkpt>
      <trkpt lat="42.68242" lon="-0.53323">
        <ele>953</ele>
        <time>2010-01-01T03:37:58Z</time>
      </trkpt>
      <trkpt lat="42.68246" lon="-0.53313">
        <ele>953</ele>
        <time>2010-01-01T03:38:02Z</time>
      </trkpt>
      <trkpt lat="42.68256" lon="-0.53299">
        <ele>954</ele>
        <time>2010-01-01T03:38:08Z</time>
      </trkpt>
      <trkpt lat="42.68257" lon="-0.53295">
        <ele>954</ele>
        <time>2010-01-01T03:38:09Z</time>
      </trkpt>
      <trkpt lat="42.68255" lon="-0.53262">
        <ele>956</ele>
        <time>2010-01-01T03:38:18Z</time>
      </trkpt>
      <trkpt lat="42.6825" lon="-0.53235">
        <ele>957</ele>
        <time>2010-01-01T03:38:27Z</time>
      </trkpt>
      <trkpt lat="42.68247" lon="-0.53229">
        <ele>957</ele>
        <time>2010-01-01T03:38:29Z</time>
      </trkpt>
      <trkpt lat="42.68239" lon="-0.53221">
        <ele>956</ele>
        <time>2010-01-01T03:38:33Z</time>
      </trkpt>
      <trkpt lat="42.68227" lon="-0.53213">
        <ele>956</ele>
        <time>2010-01-01T03:38:38Z</time>
      </trkpt>
      <trkpt lat="42.68213" lon="-0.53207">
        <ele>955</ele>
        <time>2010-01-01T03:38:44Z</time>
      </trkpt>
      <trkpt lat="42.68165" lon="-0.53192">
        <ele>955</ele>
        <time>2010-01-01T03:39:04Z</time>
      </trkpt>
      <trkpt lat="42.68149" lon="-0.53188">
        <ele>955</ele>
        <time>2010-01-01T03:39:10Z</time>
      </trkpt>
      <trkpt lat="42.6812" lon="-0.53183">
        <ele>954</ele>
        <time>2010-01-01T03:39:22Z</time>
      </trkpt>
      <trkpt lat="42.68092" lon="-0.53174">
        <ele>954</ele>
        <time>2010-01-01T03:39:33Z</time>
      </trkpt>
      <trkpt lat="42.68072" lon="-0.53162">
        <ele>954</ele>
        <time>2010-01-01T03:39:42Z</time>
      </trkpt>
      <trkpt lat="42.68003" lon="-0.53106">
        <ele>955</ele>
        <time>2010-01-01T03:40:14Z</time>
      </trkpt>
      <trkpt lat="42.67987" lon="-0.5309">
        <ele>956</ele>
        <time>2010-01-01T03:40:22Z</time>
      </trkpt>
      <trkpt lat="42.67975" lon="-0.53084">
        <ele>956</ele>
        <time>2010-01-01T03:40:28Z</time>
      </trkpt>
      <trkpt lat="42.6793" lon="-0.53076">
        <ele>958</ele>
        <time>2010-01-01T03:40:45Z</time>
      </trkpt>
      <trkpt lat="42.6789" lon="-0.53078">
        <ele>957</ele>
        <time>2010-01-01T03:41:01Z</time>
      </trkpt>
      <trkpt lat="42.67876" lon="-0.53085">
        <ele>955</ele>
        <time>2010-01-01T03:41:08Z</time>
      </trkpt>
      <trkpt lat="42.67868" lon="-0.53084">
        <ele>955</ele>
        <time>2010-01-01T03:41:11Z</time>
      </trkpt>
      <trkpt lat="42.67866" lon="-0.53078">
        <ele>955</ele>
        <time>2010-01-01T03:41:13Z</time>
      </trkpt>
      <trkpt lat="42.67865" lon="-0.53068">
        <ele>955</ele>
        <time>2010-01-01T03:41:16Z</time>
      </trkpt>
      <trkpt lat="42.67855" lon="-0.53029">
        <ele>955</ele>
        <time>2010-01-01T03:41:28Z</time>
      </trkpt>
      <trkpt lat="42.67845" lon="-0.53016">
        <ele>955</ele>
        <time>2010-01-01T03:41:33Z</time>
      </trkpt>
      <trkpt lat="42.67832" lon="-0.53007">
        <ele>954</ele>
        <time>2010-01-01T03:41:39Z</time>
      </trkpt>
      <trkpt lat="42.67821" lon="-0.52994">
        <ele>953</ele>
        <time>2010-01-01T03:41:45Z</time>
      </trkpt>
      <trkpt lat="42.67816" lon="-0.52975">
        <ele>953</ele>
        <time>2010-01-01T03:41:51Z</time>
      </trkpt>
      <trkpt lat="42.67797" lon="-0.52967">
        <ele>953</ele>
        <time>2010-01-01T03:41:59Z</time>
      </trkpt>
      <trkpt lat="42.67788" lon="-0.52959">
        <ele>953</ele>
        <time>2010-01-01T03:42:03Z</time>
      </trkpt>
      <trkpt lat="42.67769" lon="-0.52928">
        <ele>956</ele>
        <time>2010-01-01T03:42:15Z</time>
      </trkpt>
      <trkpt lat="42.67758" lon="-0.52915">
        <ele>958</ele>
        <time>2010-01-01T03:42:21Z</time>
      </trkpt>
      <trkpt lat="42.67741" lon="-0.52867">
        <ele>969</ele>
        <time>2010-01-01T03:42:37Z</time>
      </trkpt>
      <trkpt lat="42.67729" lon="-0.5286">
        <ele>973</ele>
        <time>2010-01-01T03:42:42Z</time>
      </trkpt>
      <trkpt lat="42.67729" lon="-0.52849">
        <ele>975</ele>
        <time>2010-01-01T03:42:45Z</time>
      </trkpt>
      <trkpt lat="42.67732" lon="-0.52843">
        <ele>976</ele>
        <time>2010-01-01T03:42:47Z</time>
      </trkpt>
      <trkpt lat="42.6773" lon="-0.5284">
        <ele>977</ele>
        <time>2010-01-01T03:42:49Z</time>
      </trkpt>
      <trkpt lat="42.67717" lon="-0.5284">
        <ele>980</ele>
        <time>2010-01-01T03:42:54Z</time>
      </trkpt>
      <trkpt lat="42.67698" lon="-0.52826">
        <ele>987</ele>
        <time>2010-01-01T03:43:03Z</time>
      </trkpt>
      <trkpt lat="42.67688" lon="-0.52826">
        <ele>988</ele>
        <time>2010-01-01T03:43:07Z</time>
      </trkpt>
      <trkpt lat="42.67675" lon="-0.52822">
        <ele>990</ele>
        <time>2010-01-01T03:43:12Z</time>
      </trkpt>
      <trkpt lat="42.67645" lon="-0.52817">
        <ele>994</ele>
        <time>2010-01-01T03:43:24Z</time>
      </trkpt>
      <trkpt lat="42.67614" lon="-0.52821">
        <ele>1000</ele>
        <time>2010-01-01T03:43:36Z</time>
      </trkpt>
      <trkpt lat="42.67593" lon="-0.5282">
        <ele>1005</ele>
        <time>2010-01-01T03:43:45Z</time>
      </trkpt>
      <trkpt lat="42.67582" lon="-0.52825">
        <ele>1005</ele>
        <time>2010-01-01T03:43:49Z</time>
      </trkpt>
      <trkpt lat="42.67561" lon="-0.5282">
        <ele>1013</ele>
        <time>2010-01-01T03:43:58Z</time>
      </trkpt>
      <trkpt lat="42.6755" lon="-0.52818">
        <ele>1017</ele>
        <time>2010-01-01T03:44:02Z</time>
      </trkpt>
      <trkpt lat="42.67549" lon="-0.52816">
        <ele>1018</ele>
        <time>2010-01-01T03:44:03Z</time>
      </trkpt>
      <trkpt lat="42.67561" lon="-0.52805">
        <ele>1021</ele>
        <time>2010-01-01T03:44:09Z</time>
      </trkpt>
      <trkpt lat="42.67567" lon="-0.52793">
        <ele>1023</ele>
        <time>2010-01-01T03:44:14Z</time>
      </trkpt>
      <trkpt lat="42.67571" lon="-0.52789">
        <ele>1024</ele>
        <time>2010-01-01T03:44:15Z</time>
      </trkpt>
      <trkpt lat="42.67569" lon="-0.52786">
        <ele>1025</ele>
        <time>2010-01-01T03:44:16Z</time>
      </trkpt>
      <trkpt lat="42.67554" lon="-0.52789">
        <ele>1029</ele>
        <time>2010-01-01T03:44:22Z</time>
      </trkpt>
      <trkpt lat="42.67547" lon="-0.52793">
        <ele>1029</ele>
        <time>2010-01-01T03:44:25Z</time>
      </trkpt>
      <trkpt lat="42.67534" lon="-0.52796">
        <ele>1031</ele>
        <time>2010-01-01T03:44:31Z</time>
      </trkpt>
      <trkpt lat="42.67513" lon="-0.52806">
        <ele>1029</ele>
        <time>2010-01-01T03:44:40Z</time>
      </trkpt>
      <trkpt lat="42.67493" lon="-0.5281">
        <ele>1030</ele>
        <time>2010-01-01T03:44:48Z</time>
      </trkpt>
      <trkpt lat="42.67487" lon="-0.52815">
        <ele>1029</ele>
        <time>2010-01-01T03:44:51Z</time>
      </trkpt>
      <trkpt lat="42.67474" lon="-0.52833">
        <ele>1026</ele>
        <time>2010-01-01T03:44:58Z</time>
      </trkpt>
      <trkpt lat="42.67466" lon="-0.52841">
        <ele>1028</ele>
        <time>2010-01-01T03:45:02Z</time>
      </trkpt>
      <trkpt lat="42.67447" lon="-0.52847">
        <ele>1036</ele>
        <time>2010-01-01T03:45:10Z</time>
      </trkpt>
      <trkpt lat="42.6744" lon="-0.52849">
        <ele>1040</ele>
        <time>2010-01-01T03:45:13Z</time>
      </trkpt>
      <trkpt lat="42.67436" lon="-0.52851">
        <ele>1041</ele>
        <time>2010-01-01T03:45:14Z</time>
      </trkpt>
      <trkpt lat="42.67431" lon="-0.52853">
        <ele>1043</ele>
        <time>2010-01-01T03:45:17Z</time>
      </trkpt>
      <trkpt lat="42.67421" lon="-0.52854">
        <ele>1048</ele>
        <time>2010-01-01T03:45:21Z</time>
      </trkpt>
      <trkpt lat="42.67406" lon="-0.52853">
        <ele>1054</ele>
        <time>2010-01-01T03:45:26Z</time>
      </trkpt>
      <trkpt lat="42.67401" lon="-0.52857">
        <ele>1055</ele>
        <time>2010-01-01T03:45:29Z</time>
      </trkpt>
      <trkpt lat="42.67392" lon="-0.52859">
        <ele>1058</ele>
        <time>2010-01-01T03:45:33Z</time>
      </trkpt>
      <trkpt lat="42.67371" lon="-0.52882">
        <ele>1058</ele>
        <time>2010-01-01T03:45:43Z</time>
      </trkpt>
      <trkpt lat="42.67366" lon="-0.52889">
        <ele>1057</ele>
        <time>2010-01-01T03:45:46Z</time>
      </trkpt>
      <trkpt lat="42.67363" lon="-0.52898">
        <ele>1054</ele>
        <time>2010-01-01T03:45:49Z</time>
      </trkpt>
      <trkpt lat="42.67358" lon="-0.52904">
        <ele>1054</ele>
        <time>2010-01-01T03:45:52Z</time>
      </trkpt>
      <trkpt lat="42.67356" lon="-0.52911">
        <ele>1053</ele>
        <time>2010-01-01T03:45:54Z</time>
      </trkpt>
      <trkpt lat="42.67334" lon="-0.52932">
        <ele>1060</ele>
        <time>2010-01-01T03:46:05Z</time>
      </trkpt>
      <trkpt lat="42.67323" lon="-0.52953">
        <ele>1061</ele>
        <time>2010-01-01T03:46:12Z</time>
      </trkpt>
      <trkpt lat="42.6732" lon="-0.52967">
        <ele>1058</ele>
        <time>2010-01-01T03:46:17Z</time>
      </trkpt>
      <trkpt lat="42.67315" lon="-0.52976">
        <ele>1057</ele>
        <time>2010-01-01T03:46:20Z</time>
      </trkpt>
      <trkpt lat="42.67303" lon="-0.52988">
        <ele>1060</ele>
        <time>2010-01-01T03:46:26Z</time>
      </trkpt>
      <trkpt lat="42.67299" lon="-0.52994">
        <ele>1060</ele>
        <time>2010-01-01T03:46:28Z</time>
      </trkpt>
      <trkpt lat="42.67281" lon="-0.53">
        <ele>1069</ele>
        <time>2010-01-01T03:46:36Z</time>
      </trkpt>
      <trkpt lat="42.67268" lon="-0.52995">
        <ele>1077</ele>
        <time>2010-01-01T03:46:41Z</time>
      </trkpt>
      <trkpt lat="42.67264" lon="-0.52996">
        <ele>1078</ele>
        <time>2010-01-01T03:46:43Z</time>
      </trkpt>
      <trkpt lat="42.6726" lon="-0.53004">
        <ele>1076</ele>
        <time>2010-01-01T03:46:46Z</time>
      </trkpt>
      <trkpt lat="42.67256" lon="-0.53005">
        <ele>1077</ele>
        <time>2010-01-01T03:46:47Z</time>
      </trkpt>
      <trkpt lat="42.67251" lon="-0.53004">
        <ele>1080</ele>
        <time>2010-01-01T03:46:49Z</time>
      </trkpt>
      <trkpt lat="42.6724" lon="-0.53007">
        <ele>1084</ele>
        <time>2010-01-01T03:46:54Z</time>
      </trkpt>
      <trkpt lat="42.67234" lon="-0.53013">
        <ele>1085</ele>
        <time>2010-01-01T03:46:57Z</time>
      </trkpt>
      <trkpt lat="42.67228" lon="-0.53014">
        <ele>1088</ele>
        <time>2010-01-01T03:46:59Z</time>
      </trkpt>
      <trkpt lat="42.67223" lon="-0.53017">
        <ele>1089</ele>
        <time>2010-01-01T03:47:01Z</time>
      </trkpt>
      <trkpt lat="42.6721" lon="-0.5302">
        <ele>1093</ele>
        <time>2010-01-01T03:47:06Z</time>
      </trkpt>
      <trkpt lat="42.67197" lon="-0.53021">
        <ele>1099</ele>
        <time>2010-01-01T03:47:12Z</time>
      </trkpt>
      <trkpt lat="42.67191" lon="-0.53026">
        <ele>1099</ele>
        <time>2010-01-01T03:47:14Z</time>
      </trkpt>
      <trkpt lat="42.67184" lon="-0.53028">
        <ele>1100</ele>
        <time>2010-01-01T03:47:17Z</time>
      </trkpt>
      <trkpt lat="42.67158" lon="-0.53033">
        <ele>1107</ele>
        <time>2010-01-01T03:47:28Z</time>
      </trkpt>
      <trkpt lat="42.67149" lon="-0.53042">
        <ele>1105</ele>
        <time>2010-01-01T03:47:33Z</time>
      </trkpt>
      <trkpt lat="42.67131" lon="-0.53052">
        <ele>1107</ele>
        <time>2010-01-01T03:47:40Z</time>
      </trkpt>
      <trkpt lat="42.67119" lon="-0.53061">
        <ele>1108</ele>
        <time>2010-01-01T03:47:46Z</time>
      </trkpt>
      <trkpt lat="42.67097" lon="-0.53069">
        <ele>1113</ele>
        <time>2010-01-01T03:47:55Z</time>
      </trkpt>
      <trkpt lat="42.67071" lon="-0.53086">
        <ele>1114</ele>
        <time>2010-01-01T03:48:06Z</time>
      </trkpt>
      <trkpt lat="42.67063" lon="-0.53089">
        <ele>1115</ele>
        <time>2010-01-01T03:48:10Z</time>
      </trkpt>
      <trkpt lat="42.67051" lon="-0.53087">
        <ele>1118</ele>
        <time>2010-01-01T03:48:15Z</time>
      </trkpt>
      <trkpt lat="42.67048" lon="-0.53086">
        <ele>1118</ele>
        <time>2010-01-01T03:48:16Z</time>
      </trkpt>
      <trkpt lat="42.6704" lon="-0.53092">
        <ele>1118</ele>
        <time>2010-01-01T03:48:20Z</time>
      </trkpt>
      <trkpt lat="42.67035" lon="-0.53091">
        <ele>1118</ele>
        <time>2010-01-01T03:48:22Z</time>
      </trkpt>
      <trkpt lat="42.67029" lon="-0.53084">
        <ele>1120</ele>
        <time>2010-01-01T03:48:25Z</time>
      </trkpt>
      <trkpt lat="42.67031" lon="-0.53066">
        <ele>1123</ele>
        <time>2010-01-01T03:48:30Z</time>
      </trkpt>
      <trkpt lat="42.67038" lon="-0.53049">
        <ele>1126</ele>
        <time>2010-01-01T03:48:36Z</time>
      </trkpt>
      <trkpt lat="42.67042" lon="-0.5304">
        <ele>1128</ele>
        <time>2010-01-01T03:48:39Z</time>
      </trkpt>
      <trkpt lat="42.67047" lon="-0.53037">
        <ele>1128</ele>
        <time>2010-01-01T03:48:41Z</time>
      </trkpt>
      <trkpt lat="42.67055" lon="-0.5302">
        <ele>1130</ele>
        <time>2010-01-01T03:48:47Z</time>
      </trkpt>
      <trkpt lat="42.6706" lon="-0.53014">
        <ele>1131</ele>
        <time>2010-01-01T03:48:50Z</time>
      </trkpt>
      <trkpt lat="42.67069" lon="-0.52986">
        <ele>1134</ele>
        <time>2010-01-01T03:48:59Z</time>
      </trkpt>
      <trkpt lat="42.67074" lon="-0.52978">
        <ele>1136</ele>
        <time>2010-01-01T03:49:02Z</time>
      </trkpt>
      <trkpt lat="42.67085" lon="-0.52976">
        <ele>1136</ele>
        <time>2010-01-01T03:49:07Z</time>
      </trkpt>
      <trkpt lat="42.67095" lon="-0.52969">
        <ele>1137</ele>
        <time>2010-01-01T03:49:11Z</time>
      </trkpt>
      <trkpt lat="42.67104" lon="-0.52951">
        <ele>1141</ele>
        <time>2010-01-01T03:49:18Z</time>
      </trkpt>
      <trkpt lat="42.67125" lon="-0.52917">
        <ele>1145</ele>
        <time>2010-01-01T03:49:31Z</time>
      </trkpt>
      <trkpt lat="42.67132" lon="-0.52909">
        <ele>1145</ele>
        <time>2010-01-01T03:49:34Z</time>
      </trkpt>
      <trkpt lat="42.67153" lon="-0.52891">
        <ele>1145</ele>
        <time>2010-01-01T03:49:44Z</time>
      </trkpt>
      <trkpt lat="42.67159" lon="-0.52883">
        <ele>1145</ele>
        <time>2010-01-01T03:49:47Z</time>
      </trkpt>
      <trkpt lat="42.67164" lon="-0.52875">
        <ele>1146</ele>
        <time>2010-01-01T03:49:50Z</time>
      </trkpt>
      <trkpt lat="42.67168" lon="-0.52856">
        <ele>1147</ele>
        <time>2010-01-01T03:49:56Z</time>
      </trkpt>
      <trkpt lat="42.67174" lon="-0.52845">
        <ele>1148</ele>
        <time>2010-01-01T03:50:00Z</time>
      </trkpt>
      <trkpt lat="42.67176" lon="-0.52832">
        <ele>1149</ele>
        <time>2010-01-01T03:50:04Z</time>
      </trkpt>
      <trkpt lat="42.67161" lon="-0.52786">
        <ele>1150</ele>
        <time>2010-01-01T03:50:19Z</time>
      </trkpt>
      <trkpt lat="42.67167" lon="-0.5273">
        <ele>1152</ele>
        <time>2010-01-01T03:50:36Z</time>
      </trkpt>
      <trkpt lat="42.67169" lon="-0.52694">
        <ele>1156</ele>
        <time>2010-01-01T03:50:46Z</time>
      </trkpt>
      <trkpt lat="42.67172" lon="-0.52687">
        <ele>1157</ele>
        <time>2010-01-01T03:50:48Z</time>
      </trkpt>
      <trkpt lat="42.67172" lon="-0.52676">
        <ele>1158</ele>
        <time>2010-01-01T03:50:52Z</time>
      </trkpt>
      <trkpt lat="42.67172" lon="-0.52662">
        <ele>1160</ele>
        <time>2010-01-01T03:50:56Z</time>
      </trkpt>
      <trkpt lat="42.67162" lon="-0.52621">
        <ele>1163</ele>
        <time>2010-01-01T03:51:08Z</time>
      </trkpt>
      <trkpt lat="42.67165" lon="-0.52602">
        <ele>1164</ele>
        <time>2010-01-01T03:51:14Z</time>
      </trkpt>
      <trkpt lat="42.67171" lon="-0.52588">
        <ele>1165</ele>
        <time>2010-01-01T03:51:19Z</time>
      </trkpt>
      <trkpt lat="42.67177" lon="-0.52577">
        <ele>1166</ele>
        <time>2010-01-01T03:51:23Z</time>
      </trkpt>
      <trkpt lat="42.672" lon="-0.52573">
        <ele>1165</ele>
        <time>2010-01-01T03:51:32Z</time>
      </trkpt>
      <trkpt lat="42.67203" lon="-0.5257">
        <ele>1165</ele>
        <time>2010-01-01T03:51:34Z</time>
      </trkpt>
      <trkpt lat="42.67205" lon="-0.52565">
        <ele>1165</ele>
        <time>2010-01-01T03:51:35Z</time>
      </trkpt>
      <trkpt lat="42.67206" lon="-0.5255">
        <ele>1165</ele>
        <time>2010-01-01T03:51:40Z</time>
      </trkpt>
      <trkpt lat="42.6721" lon="-0.52537">
        <ele>1165</ele>
        <time>2010-01-01T03:51:44Z</time>
      </trkpt>
      <trkpt lat="42.67217" lon="-0.52527">
        <ele>1165</ele>
        <time>2010-01-01T03:51:48Z</time>
      </trkpt>
      <trkpt lat="42.6723" lon="-0.52501">
        <ele>1167</ele>
        <time>2010-01-01T03:51:57Z</time>
      </trkpt>
      <trkpt lat="42.67233" lon="-0.52493">
        <ele>1169</ele>
        <time>2010-01-01T03:52:00Z</time>
      </trkpt>
      <trkpt lat="42.6725" lon="-0.52478">
        <ele>1172</ele>
        <time>2010-01-01T03:52:08Z</time>
      </trkpt>
      <trkpt lat="42.67276" lon="-0.52464">
        <ele>1177</ele>
        <time>2010-01-01T03:52:19Z</time>
      </trkpt>
      <trkpt lat="42.67282" lon="-0.52462">
        <ele>1178</ele>
        <time>2010-01-01T03:52:22Z</time>
      </trkpt>
      <trkpt lat="42.67286" lon="-0.52457">
        <ele>1180</ele>
        <time>2010-01-01T03:52:24Z</time>
      </trkpt>
      <trkpt lat="42.67288" lon="-0.52446">
        <ele>1182</ele>
        <time>2010-01-01T03:52:27Z</time>
      </trkpt>
      <trkpt lat="42.67292" lon="-0.52442">
        <ele>1184</ele>
        <time>2010-01-01T03:52:29Z</time>
      </trkpt>
      <trkpt lat="42.67296" lon="-0.52432">
        <ele>1187</ele>
        <time>2010-01-01T03:52:33Z</time>
      </trkpt>
      <trkpt lat="42.67308" lon="-0.5242">
        <ele>1191</ele>
        <time>2010-01-01T03:52:39Z</time>
      </trkpt>
      <trkpt lat="42.6731" lon="-0.52416">
        <ele>1192</ele>
        <time>2010-01-01T03:52:40Z</time>
      </trkpt>
      <trkpt lat="42.67316" lon="-0.5241">
        <ele>1194</ele>
        <time>2010-01-01T03:52:43Z</time>
      </trkpt>
      <trkpt lat="42.6732" lon="-0.52401">
        <ele>1196</ele>
        <time>2010-01-01T03:52:46Z</time>
      </trkpt>
      <trkpt lat="42.67324" lon="-0.52399">
        <ele>1197</ele>
        <time>2010-01-01T03:52:48Z</time>
      </trkpt>
      <trkpt lat="42.67325" lon="-0.52393">
        <ele>1198</ele>
        <time>2010-01-01T03:52:49Z</time>
      </trkpt>
      <trkpt lat="42.6733" lon="-0.52384">
        <ele>1201</ele>
        <time>2010-01-01T03:52:53Z</time>
      </trkpt>
      <trkpt lat="42.67332" lon="-0.52385">
        <ele>1201</ele>
        <time>2010-01-01T03:52:54Z</time>
      </trkpt>
      <trkpt lat="42.67333" lon="-0.52388">
        <ele>1200</ele>
        <time>2010-01-01T03:52:55Z</time>
      </trkpt>
      <trkpt lat="42.67336" lon="-0.52401">
        <ele>1197</ele>
        <time>2010-01-01T03:52:59Z</time>
      </trkpt>
      <trkpt lat="42.6734" lon="-0.52402">
        <ele>1198</ele>
        <time>2010-01-01T03:53:00Z</time>
      </trkpt>
      <trkpt lat="42.6735" lon="-0.52396">
        <ele>1200</ele>
        <time>2010-01-01T03:53:05Z</time>
      </trkpt>
      <trkpt lat="42.67352" lon="-0.52393">
        <ele>1201</ele>
        <time>2010-01-01T03:53:06Z</time>
      </trkpt>
      <trkpt lat="42.67356" lon="-0.52391">
        <ele>1202</ele>
        <time>2010-01-01T03:53:07Z</time>
      </trkpt>
      <trkpt lat="42.67363" lon="-0.5239">
        <ele>1203</ele>
        <time>2010-01-01T03:53:10Z</time>
      </trkpt>
      <trkpt lat="42.67371" lon="-0.5238">
        <ele>1208</ele>
        <time>2010-01-01T03:53:15Z</time>
      </trkpt>
      <trkpt lat="42.67373" lon="-0.52375">
        <ele>1209</ele>
        <time>2010-01-01T03:53:16Z</time>
      </trkpt>
      <trkpt lat="42.67377" lon="-0.52374">
        <ele>1210</ele>
        <time>2010-01-01T03:53:18Z</time>
      </trkpt>
      <trkpt lat="42.67377" lon="-0.52365">
        <ele>1213</ele>
        <time>2010-01-01T03:53:21Z</time>
      </trkpt>
      <trkpt lat="42.6738" lon="-0.52362">
        <ele>1214</ele>
        <time>2010-01-01T03:53:22Z</time>
      </trkpt>
      <trkpt lat="42.67386" lon="-0.52363">
        <ele>1215</ele>
        <time>2010-01-01T03:53:25Z</time>
      </trkpt>
      <trkpt lat="42.67395" lon="-0.52368">
        <ele>1216</ele>
        <time>2010-01-01T03:53:28Z</time>
      </trkpt>
      <trkpt lat="42.67402" lon="-0.52369">
        <ele>1219</ele>
        <time>2010-01-01T03:53:32Z</time>
      </trkpt>
      <trkpt lat="42.67402" lon="-0.52365">
        <ele>1220</ele>
        <time>2010-01-01T03:53:33Z</time>
      </trkpt>
      <trkpt lat="42.67399" lon="-0.52362">
        <ele>1220</ele>
        <time>2010-01-01T03:53:34Z</time>
      </trkpt>
      <trkpt lat="42.67395" lon="-0.52352">
        <ele>1221</ele>
        <time>2010-01-01T03:53:38Z</time>
      </trkpt>
      <trkpt lat="42.67393" lon="-0.52336">
        <ele>1224</ele>
        <time>2010-01-01T03:53:42Z</time>
      </trkpt>
      <trkpt lat="42.67402" lon="-0.5234">
        <ele>1226</ele>
        <time>2010-01-01T03:53:46Z</time>
      </trkpt>
      <trkpt lat="42.67405" lon="-0.52345">
        <ele>1226</ele>
        <time>2010-01-01T03:53:48Z</time>
      </trkpt>
      <trkpt lat="42.67411" lon="-0.52348">
        <ele>1226</ele>
        <time>2010-01-01T03:53:51Z</time>
      </trkpt>
      <trkpt lat="42.67414" lon="-0.52348">
        <ele>1228</ele>
        <time>2010-01-01T03:53:52Z</time>
      </trkpt>
      <trkpt lat="42.67414" lon="-0.52345">
        <ele>1228</ele>
        <time>2010-01-01T03:53:53Z</time>
      </trkpt>
      <trkpt lat="42.67412" lon="-0.52344">
        <ele>1228</ele>
        <time>2010-01-01T03:53:54Z</time>
      </trkpt>
      <trkpt lat="42.67398" lon="-0.52315">
        <ele>1232</ele>
        <time>2010-01-01T03:54:04Z</time>
      </trkpt>
      <trkpt lat="42.67398" lon="-0.52304">
        <ele>1235</ele>
        <time>2010-01-01T03:54:07Z</time>
      </trkpt>
      <trkpt lat="42.67396" lon="-0.5228">
        <ele>1242</ele>
        <time>2010-01-01T03:54:15Z</time>
      </trkpt>
      <trkpt lat="42.67398" lon="-0.52255">
        <ele>1249</ele>
        <time>2010-01-01T03:54:22Z</time>
      </trkpt>
      <trkpt lat="42.67397" lon="-0.52248">
        <ele>1251</ele>
        <time>2010-01-01T03:54:24Z</time>
      </trkpt>
      <trkpt lat="42.67398" lon="-0.52244">
        <ele>1252</ele>
        <time>2010-01-01T03:54:26Z</time>
      </trkpt>
      <trkpt lat="42.67403" lon="-0.52199">
        <ele>1266</ele>
        <time>2010-01-01T03:54:39Z</time>
      </trkpt>
      <trkpt lat="42.67405" lon="-0.522">
        <ele>1267</ele>
        <time>2010-01-01T03:54:39Z</time>
      </trkpt>
      <trkpt lat="42.67415" lon="-0.52214">
        <ele>1265</ele>
        <time>2010-01-01T03:54:45Z</time>
      </trkpt>
      <trkpt lat="42.67422" lon="-0.52233">
        <ele>1263</ele>
        <time>2010-01-01T03:54:51Z</time>
      </trkpt>
      <trkpt lat="42.67425" lon="-0.52235">
        <ele>1264</ele>
        <time>2010-01-01T03:54:53Z</time>
      </trkpt>
      <trkpt lat="42.67428" lon="-0.52247">
        <ele>1263</ele>
        <time>2010-01-01T03:54:57Z</time>
      </trkpt>
      <trkpt lat="42.67438" lon="-0.52261">
        <ele>1264</ele>
        <time>2010-01-01T03:55:02Z</time>
      </trkpt>
      <trkpt lat="42.67445" lon="-0.52283">
        <ele>1262</ele>
        <time>2010-01-01T03:55:10Z</time>
      </trkpt>
      <trkpt lat="42.6745" lon="-0.52289">
        <ele>1262</ele>
        <time>2010-01-01T03:55:12Z</time>
      </trkpt>
      <trkpt lat="42.6746" lon="-0.52294">
        <ele>1265</ele>
        <time>2010-01-01T03:55:16Z</time>
      </trkpt>
      <trkpt lat="42.67462" lon="-0.52293">
        <ele>1266</ele>
        <time>2010-01-01T03:55:17Z</time>
      </trkpt>
      <trkpt lat="42.67465" lon="-0.52291">
        <ele>1268</ele>
        <time>2010-01-01T03:55:19Z</time>
      </trkpt>
      <trkpt lat="42.67464" lon="-0.52287">
        <ele>1268</ele>
        <time>2010-01-01T03:55:20Z</time>
      </trkpt>
      <trkpt lat="42.67465" lon="-0.52266">
        <ele>1272</ele>
        <time>2010-01-01T03:55:26Z</time>
      </trkpt>
      <trkpt lat="42.67468" lon="-0.52266">
        <ele>1273</ele>
        <time>2010-01-01T03:55:27Z</time>
      </trkpt>
      <trkpt lat="42.67475" lon="-0.52271">
        <ele>1275</ele>
        <time>2010-01-01T03:55:30Z</time>
      </trkpt>
      <trkpt lat="42.67492" lon="-0.5227">
        <ele>1279</ele>
        <time>2010-01-01T03:55:37Z</time>
      </trkpt>
      <trkpt lat="42.67495" lon="-0.52267">
        <ele>1280</ele>
        <time>2010-01-01T03:55:39Z</time>
      </trkpt>
      <trkpt lat="42.67493" lon="-0.52256">
        <ele>1283</ele>
        <time>2010-01-01T03:55:42Z</time>
      </trkpt>
      <trkpt lat="42.67525" lon="-0.52251">
        <ele>1294</ele>
        <time>2010-01-01T03:55:55Z</time>
      </trkpt>
      <trkpt lat="42.67525" lon="-0.52237">
        <ele>1298</ele>
        <time>2010-01-01T03:55:59Z</time>
      </trkpt>
      <trkpt lat="42.67536" lon="-0.52227">
        <ele>1302</ele>
        <time>2010-01-01T03:56:04Z</time>
      </trkpt>
      <trkpt lat="42.67542" lon="-0.52229">
        <ele>1302</ele>
        <time>2010-01-01T03:56:07Z</time>
      </trkpt>
      <trkpt lat="42.67548" lon="-0.52225">
        <ele>1304</ele>
        <time>2010-01-01T03:56:09Z</time>
      </trkpt>
      <trkpt lat="42.67546" lon="-0.52215">
        <ele>1306</ele>
        <time>2010-01-01T03:56:12Z</time>
      </trkpt>
      <trkpt lat="42.67549" lon="-0.52211">
        <ele>1307</ele>
        <time>2010-01-01T03:56:14Z</time>
      </trkpt>
      <trkpt lat="42.67553" lon="-0.52209">
        <ele>1309</ele>
        <time>2010-01-01T03:56:16Z</time>
      </trkpt>
      <trkpt lat="42.67554" lon="-0.52205">
        <ele>1310</ele>
        <time>2010-01-01T03:56:17Z</time>
      </trkpt>
      <trkpt lat="42.67552" lon="-0.52192">
        <ele>1313</ele>
        <time>2010-01-01T03:56:21Z</time>
      </trkpt>
      <trkpt lat="42.67554" lon="-0.52189">
        <ele>1313</ele>
        <time>2010-01-01T03:56:22Z</time>
      </trkpt>
      <trkpt lat="42.67557" lon="-0.52189">
        <ele>1314</ele>
        <time>2010-01-01T03:56:24Z</time>
      </trkpt>
      <trkpt lat="42.67566" lon="-0.52183">
        <ele>1316</ele>
        <time>2010-01-01T03:56:28Z</time>
      </trkpt>
      <trkpt lat="42.67567" lon="-0.52179">
        <ele>1317</ele>
        <time>2010-01-01T03:56:29Z</time>
      </trkpt>
      <trkpt lat="42.67563" lon="-0.52173">
        <ele>1318</ele>
        <time>2010-01-01T03:56:31Z</time>
      </trkpt>
      <trkpt lat="42.6756" lon="-0.52164">
        <ele>1320</ele>
        <time>2010-01-01T03:56:34Z</time>
      </trkpt>
      <trkpt lat="42.67557" lon="-0.5216">
        <ele>1321</ele>
        <time>2010-01-01T03:56:36Z</time>
      </trkpt>
      <trkpt lat="42.67559" lon="-0.52139">
        <ele>1327</ele>
        <time>2010-01-01T03:56:42Z</time>
      </trkpt>
      <trkpt lat="42.67569" lon="-0.52145">
        <ele>1326</ele>
        <time>2010-01-01T03:56:46Z</time>
      </trkpt>
      <trkpt lat="42.6757" lon="-0.52144">
        <ele>1326</ele>
        <time>2010-01-01T03:56:47Z</time>
      </trkpt>
      <trkpt lat="42.67571" lon="-0.52141">
        <ele>1327</ele>
        <time>2010-01-01T03:56:48Z</time>
      </trkpt>
      <trkpt lat="42.67568" lon="-0.52133">
        <ele>1329</ele>
        <time>2010-01-01T03:56:51Z</time>
      </trkpt>
      <trkpt lat="42.67572" lon="-0.52126">
        <ele>1331</ele>
        <time>2010-01-01T03:56:53Z</time>
      </trkpt>
      <trkpt lat="42.67567" lon="-0.52111">
        <ele>1334</ele>
        <time>2010-01-01T03:56:58Z</time>
      </trkpt>
      <trkpt lat="42.67577" lon="-0.52104">
        <ele>1336</ele>
        <time>2010-01-01T03:57:03Z</time>
      </trkpt>
      <trkpt lat="42.6758" lon="-0.521">
        <ele>1337</ele>
        <time>2010-01-01T03:57:04Z</time>
      </trkpt>
      <trkpt lat="42.6757" lon="-0.52082">
        <ele>1339</ele>
        <time>2010-01-01T03:57:11Z</time>
      </trkpt>
      <trkpt lat="42.67568" lon="-0.52076">
        <ele>1341</ele>
        <time>2010-01-01T03:57:13Z</time>
      </trkpt>
      <trkpt lat="42.67569" lon="-0.52068">
        <ele>1342</ele>
        <time>2010-01-01T03:57:15Z</time>
      </trkpt>
      <trkpt lat="42.67574" lon="-0.5206">
        <ele>1345</ele>
        <time>2010-01-01T03:57:18Z</time>
      </trkpt>
      <trkpt lat="42.67569" lon="-0.52041">
        <ele>1349</ele>
        <time>2010-01-01T03:57:24Z</time>
      </trkpt>
      <trkpt lat="42.6757" lon="-0.5204">
        <ele>1349</ele>
        <time>2010-01-01T03:57:25Z</time>
      </trkpt>
      <trkpt lat="42.67573" lon="-0.5204">
        <ele>1350</ele>
        <time>2010-01-01T03:57:26Z</time>
      </trkpt>
      <trkpt lat="42.67576" lon="-0.52037">
        <ele>1352</ele>
        <time>2010-01-01T03:57:28Z</time>
      </trkpt>
      <trkpt lat="42.67575" lon="-0.52033">
        <ele>1353</ele>
        <time>2010-01-01T03:57:29Z</time>
      </trkpt>
      <trkpt lat="42.67576" lon="-0.52026">
        <ele>1355</ele>
        <time>2010-01-01T03:57:31Z</time>
      </trkpt>
      <trkpt lat="42.67573" lon="-0.52012">
        <ele>1358</ele>
        <time>2010-01-01T03:57:35Z</time>
      </trkpt>
      <trkpt lat="42.67573" lon="-0.52006">
        <ele>1359</ele>
        <time>2010-01-01T03:57:37Z</time>
      </trkpt>
      <trkpt lat="42.67576" lon="-0.51999">
        <ele>1362</ele>
        <time>2010-01-01T03:57:40Z</time>
      </trkpt>
      <trkpt lat="42.67575" lon="-0.5199">
        <ele>1364</ele>
        <time>2010-01-01T03:57:43Z</time>
      </trkpt>
      <trkpt lat="42.67576" lon="-0.51979">
        <ele>1367</ele>
        <time>2010-01-01T03:57:46Z</time>
      </trkpt>
      <trkpt lat="42.67576" lon="-0.51969">
        <ele>1369</ele>
        <time>2010-01-01T03:57:49Z</time>
      </trkpt>
      <trkpt lat="42.67581" lon="-0.51964">
        <ele>1372</ele>
        <time>2010-01-01T03:57:51Z</time>
      </trkpt>
      <trkpt lat="42.67584" lon="-0.51957">
        <ele>1374</ele>
        <time>2010-01-01T03:57:54Z</time>
      </trkpt>
      <trkpt lat="42.67595" lon="-0.51945">
        <ele>1378</ele>
        <time>2010-01-01T03:57:59Z</time>
      </trkpt>
      <trkpt lat="42.67595" lon="-0.51939">
        <ele>1380</ele>
        <time>2010-01-01T03:58:01Z</time>
      </trkpt>
      <trkpt lat="42.67598" lon="-0.51932">
        <ele>1382</ele>
        <time>2010-01-01T03:58:04Z</time>
      </trkpt>
      <trkpt lat="42.67599" lon="-0.51919">
        <ele>1386</ele>
        <time>2010-01-01T03:58:07Z</time>
      </trkpt>
      <trkpt lat="42.6761" lon="-0.51909">
        <ele>1390</ele>
        <time>2010-01-01T03:58:13Z</time>
      </trkpt>
      <trkpt lat="42.67613" lon="-0.51905">
        <ele>1391</ele>
        <time>2010-01-01T03:58:14Z</time>
      </trkpt>
      <trkpt lat="42.67613" lon="-0.51902">
        <ele>1392</ele>
        <time>2010-01-01T03:58:15Z</time>
      </trkpt>
      <trkpt lat="42.6762" lon="-0.51892">
        <ele>1394</ele>
        <time>2010-01-01T03:58:19Z</time>
      </trkpt>
      <trkpt lat="42.67616" lon="-0.51884">
        <ele>1397</ele>
        <time>2010-01-01T03:58:22Z</time>
      </trkpt>
      <trkpt lat="42.67619" lon="-0.5188">
        <ele>1398</ele>
        <time>2010-01-01T03:58:24Z</time>
      </trkpt>
      <trkpt lat="42.67623" lon="-0.51868">
        <ele>1401</ele>
        <time>2010-01-01T03:58:28Z</time>
      </trkpt>
      <trkpt lat="42.67627" lon="-0.51865">
        <ele>1402</ele>
        <time>2010-01-01T03:58:30Z</time>
      </trkpt>
      <trkpt lat="42.67632" lon="-0.51855">
        <ele>1406</ele>
        <time>2010-01-01T03:58:33Z</time>
      </trkpt>
      <trkpt lat="42.67624" lon="-0.51842">
        <ele>1410</ele>
        <time>2010-01-01T03:58:38Z</time>
      </trkpt>
      <trkpt lat="42.67618" lon="-0.51838">
        <ele>1412</ele>
        <time>2010-01-01T03:58:41Z</time>
      </trkpt>
      <trkpt lat="42.67611" lon="-0.51829">
        <ele>1416</ele>
        <time>2010-01-01T03:58:45Z</time>
      </trkpt>
      <trkpt lat="42.67611" lon="-0.51825">
        <ele>1417</ele>
        <time>2010-01-01T03:58:46Z</time>
      </trkpt>
      <trkpt lat="42.67622" lon="-0.51818">
        <ele>1421</ele>
        <time>2010-01-01T03:58:51Z</time>
      </trkpt>
      <trkpt lat="42.67619" lon="-0.51811">
        <ele>1423</ele>
        <time>2010-01-01T03:58:53Z</time>
      </trkpt>
      <trkpt lat="42.67619" lon="-0.51804">
        <ele>1426</ele>
        <time>2010-01-01T03:58:55Z</time>
      </trkpt>
      <trkpt lat="42.67627" lon="-0.51793">
        <ele>1430</ele>
        <time>2010-01-01T03:59:00Z</time>
      </trkpt>
      <trkpt lat="42.67626" lon="-0.5179">
        <ele>1431</ele>
        <time>2010-01-01T03:59:01Z</time>
      </trkpt>
      <trkpt lat="42.67623" lon="-0.51787">
        <ele>1432</ele>
        <time>2010-01-01T03:59:02Z</time>
      </trkpt>
      <trkpt lat="42.67622" lon="-0.51783">
        <ele>1433</ele>
        <time>2010-01-01T03:59:03Z</time>
      </trkpt>
      <trkpt lat="42.67625" lon="-0.51781">
        <ele>1434</ele>
        <time>2010-01-01T03:59:05Z</time>
      </trkpt>
      <trkpt lat="42.67624" lon="-0.51777">
        <ele>1435</ele>
        <time>2010-01-01T03:59:06Z</time>
      </trkpt>
      <trkpt lat="42.67615" lon="-0.51758">
        <ele>1441</ele>
        <time>2010-01-01T03:59:12Z</time>
      </trkpt>
      <trkpt lat="42.67618" lon="-0.51753">
        <ele>1442</ele>
        <time>2010-01-01T03:59:14Z</time>
      </trkpt>
      <trkpt lat="42.67618" lon="-0.5175">
        <ele>1443</ele>
        <time>2010-01-01T03:59:15Z</time>
      </trkpt>
      <trkpt lat="42.67613" lon="-0.51744">
        <ele>1445</ele>
        <time>2010-01-01T03:59:18Z</time>
      </trkpt>
      <trkpt lat="42.6761" lon="-0.51736">
        <ele>1449</ele>
        <time>2010-01-01T03:59:21Z</time>
      </trkpt>
      <trkpt lat="42.67608" lon="-0.51726">
        <ele>1453</ele>
        <time>2010-01-01T03:59:24Z</time>
      </trkpt>
      <trkpt lat="42.67616" lon="-0.51726">
        <ele>1453</ele>
        <time>2010-01-01T03:59:27Z</time>
      </trkpt>
      <trkpt lat="42.67618" lon="-0.51724">
        <ele>1454</ele>
        <time>2010-01-01T03:59:28Z</time>
      </trkpt>
      <trkpt lat="42.67631" lon="-0.51716">
        <ele>1457</ele>
        <time>2010-01-01T03:59:34Z</time>
      </trkpt>
      <trkpt lat="42.67629" lon="-0.51709">
        <ele>1461</ele>
        <time>2010-01-01T03:59:36Z</time>
      </trkpt>
      <trkpt lat="42.67623" lon="-0.51701">
        <ele>1464</ele>
        <time>2010-01-01T03:59:40Z</time>
      </trkpt>
      <trkpt lat="42.6762" lon="-0.51693">
        <ele>1468</ele>
        <time>2010-01-01T03:59:43Z</time>
      </trkpt>
      <trkpt lat="42.67621" lon="-0.5169">
        <ele>1469</ele>
        <time>2010-01-01T03:59:44Z</time>
      </trkpt>
      <trkpt lat="42.67638" lon="-0.51677">
        <ele>1475</ele>
        <time>2010-01-01T03:59:51Z</time>
      </trkpt>
      <trkpt lat="42.67644" lon="-0.51676">
        <ele>1475</ele>
        <time>2010-01-01T03:59:54Z</time>
      </trkpt>
      <trkpt lat="42.67656" lon="-0.51672">
        <ele>1476</ele>
        <time>2010-01-01T03:59:59Z</time>
      </trkpt>
      <trkpt lat="42.67665" lon="-0.51658">
        <ele>1480</ele>
        <time>2010-01-01T04:00:04Z</time>
      </trkpt>
      <trkpt lat="42.67661" lon="-0.51642">
        <ele>1486</ele>
        <time>2010-01-01T04:00:09Z</time>
      </trkpt>
      <trkpt lat="42.6766" lon="-0.51624">
        <ele>1491</ele>
        <time>2010-01-01T04:00:14Z</time>
      </trkpt>
      <trkpt lat="42.67662" lon="-0.51609">
        <ele>1495</ele>
        <time>2010-01-01T04:00:19Z</time>
      </trkpt>
      <trkpt lat="42.67662" lon="-0.51598">
        <ele>1498</ele>
        <time>2010-01-01T04:00:22Z</time>
      </trkpt>
      <trkpt lat="42.67658" lon="-0.516">
        <ele>1498</ele>
        <time>2010-01-01T04:00:24Z</time>
      </trkpt>
      <trkpt lat="42.67656" lon="-0.51605">
        <ele>1497</ele>
        <time>2010-01-01T04:00:26Z</time>
      </trkpt>
      <trkpt lat="42.67646" lon="-0.51617">
        <ele>1496</ele>
        <time>2010-01-01T04:00:31Z</time>
      </trkpt>
      <trkpt lat="42.67641" lon="-0.51619">
        <ele>1496</ele>
        <time>2010-01-01T04:00:33Z</time>
      </trkpt>
      <trkpt lat="42.67632" lon="-0.51621">
        <ele>1496</ele>
        <time>2010-01-01T04:00:37Z</time>
      </trkpt>
      <trkpt lat="42.67618" lon="-0.51616">
        <ele>1498</ele>
        <time>2010-01-01T04:00:42Z</time>
      </trkpt>
      <trkpt lat="42.67606" lon="-0.51607">
        <ele>1502</ele>
        <time>2010-01-01T04:00:48Z</time>
      </trkpt>
      <trkpt lat="42.67614" lon="-0.516">
        <ele>1504</ele>
        <time>2010-01-01T04:00:52Z</time>
      </trkpt>
      <trkpt lat="42.67617" lon="-0.51591">
        <ele>1507</ele>
        <time>2010-01-01T04:00:55Z</time>
      </trkpt>
      <trkpt lat="42.6763" lon="-0.51567">
        <ele>1511</ele>
        <time>2010-01-01T04:01:03Z</time>
      </trkpt>
      <trkpt lat="42.67631" lon="-0.51555">
        <ele>1514</ele>
        <time>2010-01-01T04:01:07Z</time>
      </trkpt>
      <trkpt lat="42.67629" lon="-0.51553">
        <ele>1515</ele>
        <time>2010-01-01T04:01:08Z</time>
      </trkpt>
      <trkpt lat="42.67619" lon="-0.51562">
        <ele>1515</ele>
        <time>2010-01-01T04:01:13Z</time>
      </trkpt>
      <trkpt lat="42.67612" lon="-0.51565">
        <ele>1515</ele>
        <time>2010-01-01T04:01:16Z</time>
      </trkpt>
      <trkpt lat="42.676" lon="-0.51562">
        <ele>1518</ele>
        <time>2010-01-01T04:01:21Z</time>
      </trkpt>
      <trkpt lat="42.6759" lon="-0.51562">
        <ele>1521</ele>
        <time>2010-01-01T04:01:25Z</time>
      </trkpt>
      <trkpt lat="42.67583" lon="-0.51559">
        <ele>1523</ele>
        <time>2010-01-01T04:01:28Z</time>
      </trkpt>
      <trkpt lat="42.67584" lon="-0.51557">
        <ele>1524</ele>
        <time>2010-01-01T04:01:28Z</time>
      </trkpt>
      <trkpt lat="42.67589" lon="-0.51556">
        <ele>1523</ele>
        <time>2010-01-01T04:01:30Z</time>
      </trkpt>
      <trkpt lat="42.67595" lon="-0.51552">
        <ele>1523</ele>
        <time>2010-01-01T04:01:33Z</time>
      </trkpt>
      <trkpt lat="42.6761" lon="-0.5152">
        <ele>1529</ele>
        <time>2010-01-01T04:01:44Z</time>
      </trkpt>
      <trkpt lat="42.67617" lon="-0.5151">
        <ele>1529</ele>
        <time>2010-01-01T04:01:48Z</time>
      </trkpt>
      <trkpt lat="42.67619" lon="-0.51503">
        <ele>1531</ele>
        <time>2010-01-01T04:01:51Z</time>
      </trkpt>
      <trkpt lat="42.67615" lon="-0.51502">
        <ele>1532</ele>
        <time>2010-01-01T04:01:52Z</time>
      </trkpt>
      <trkpt lat="42.67612" lon="-0.51506">
        <ele>1532</ele>
        <time>2010-01-01T04:01:54Z</time>
      </trkpt>
      <trkpt lat="42.67605" lon="-0.51511">
        <ele>1532</ele>
        <time>2010-01-01T04:01:57Z</time>
      </trkpt>
      <trkpt lat="42.67595" lon="-0.51515">
        <ele>1534</ele>
        <time>2010-01-01T04:02:01Z</time>
      </trkpt>
      <trkpt lat="42.67571" lon="-0.51515">
        <ele>1538</ele>
        <time>2010-01-01T04:02:11Z</time>
      </trkpt>
      <trkpt lat="42.67564" lon="-0.51514">
        <ele>1538</ele>
        <time>2010-01-01T04:02:13Z</time>
      </trkpt>
      <trkpt lat="42.67564" lon="-0.5151">
        <ele>1540</ele>
        <time>2010-01-01T04:02:14Z</time>
      </trkpt>
      <trkpt lat="42.67577" lon="-0.515">
        <ele>1541</ele>
        <time>2010-01-01T04:02:20Z</time>
      </trkpt>
      <trkpt lat="42.67585" lon="-0.51489">
        <ele>1543</ele>
        <time>2010-01-01T04:02:25Z</time>
      </trkpt>
      <trkpt lat="42.67591" lon="-0.51473">
        <ele>1546</ele>
        <time>2010-01-01T04:02:30Z</time>
      </trkpt>
      <trkpt lat="42.67591" lon="-0.5147">
        <ele>1548</ele>
        <time>2010-01-01T04:02:31Z</time>
      </trkpt>
      <trkpt lat="42.67587" lon="-0.5147">
        <ele>1549</ele>
        <time>2010-01-01T04:02:33Z</time>
      </trkpt>
      <trkpt lat="42.67577" lon="-0.51476">
        <ele>1548</ele>
        <time>2010-01-01T04:02:37Z</time>
      </trkpt>
      <trkpt lat="42.67571" lon="-0.51476">
        <ele>1549</ele>
        <time>2010-01-01T04:02:39Z</time>
      </trkpt>
      <trkpt lat="42.67541" lon="-0.51471">
        <ele>1555</ele>
        <time>2010-01-01T04:02:52Z</time>
      </trkpt>
      <trkpt lat="42.67534" lon="-0.51468">
        <ele>1558</ele>
        <time>2010-01-01T04:02:55Z</time>
      </trkpt>
      <trkpt lat="42.67527" lon="-0.51464">
        <ele>1561</ele>
        <time>2010-01-01T04:02:57Z</time>
      </trkpt>
      <trkpt lat="42.67528" lon="-0.51461">
        <ele>1562</ele>
        <time>2010-01-01T04:02:58Z</time>
      </trkpt>
      <trkpt lat="42.67541" lon="-0.51457">
        <ele>1561</ele>
        <time>2010-01-01T04:03:04Z</time>
      </trkpt>
      <trkpt lat="42.67547" lon="-0.51453">
        <ele>1562</ele>
        <time>2010-01-01T04:03:06Z</time>
      </trkpt>
      <trkpt lat="42.67562" lon="-0.51435">
        <ele>1570</ele>
        <time>2010-01-01T04:03:14Z</time>
      </trkpt>
      <trkpt lat="42.67566" lon="-0.51428">
        <ele>1573</ele>
        <time>2010-01-01T04:03:17Z</time>
      </trkpt>
      <trkpt lat="42.67562" lon="-0.51426">
        <ele>1575</ele>
        <time>2010-01-01T04:03:19Z</time>
      </trkpt>
      <trkpt lat="42.67555" lon="-0.5143">
        <ele>1574</ele>
        <time>2010-01-01T04:03:22Z</time>
      </trkpt>
      <trkpt lat="42.67548" lon="-0.5143">
        <ele>1575</ele>
        <time>2010-01-01T04:03:25Z</time>
      </trkpt>
      <trkpt lat="42.67535" lon="-0.51425">
        <ele>1577</ele>
        <time>2010-01-01T04:03:30Z</time>
      </trkpt>
      <trkpt lat="42.67527" lon="-0.51417">
        <ele>1580</ele>
        <time>2010-01-01T04:03:34Z</time>
      </trkpt>
      <trkpt lat="42.67528" lon="-0.51416">
        <ele>1581</ele>
        <time>2010-01-01T04:03:35Z</time>
      </trkpt>
      <trkpt lat="42.67533" lon="-0.51417">
        <ele>1581</ele>
        <time>2010-01-01T04:03:37Z</time>
      </trkpt>
      <trkpt lat="42.67548" lon="-0.51409">
        <ele>1585</ele>
        <time>2010-01-01T04:03:43Z</time>
      </trkpt>
      <trkpt lat="42.67551" lon="-0.51406">
        <ele>1586</ele>
        <time>2010-01-01T04:03:44Z</time>
      </trkpt>
      <trkpt lat="42.67555" lon="-0.51398">
        <ele>1589</ele>
        <time>2010-01-01T04:03:47Z</time>
      </trkpt>
      <trkpt lat="42.67553" lon="-0.51396">
        <ele>1589</ele>
        <time>2010-01-01T04:03:48Z</time>
      </trkpt>
      <trkpt lat="42.67545" lon="-0.51395">
        <ele>1589</ele>
        <time>2010-01-01T04:03:51Z</time>
      </trkpt>
      <trkpt lat="42.67539" lon="-0.51388">
        <ele>1592</ele>
        <time>2010-01-01T04:03:55Z</time>
      </trkpt>
      <trkpt lat="42.67525" lon="-0.51365">
        <ele>1596</ele>
        <time>2010-01-01T04:04:03Z</time>
      </trkpt>
      <trkpt lat="42.67515" lon="-0.51342">
        <ele>1599</ele>
        <time>2010-01-01T04:04:11Z</time>
      </trkpt>
      <trkpt lat="42.67515" lon="-0.51338">
        <ele>1600</ele>
        <time>2010-01-01T04:04:12Z</time>
      </trkpt>
      <trkpt lat="42.67526" lon="-0.51339">
        <ele>1602</ele>
        <time>2010-01-01T04:04:17Z</time>
      </trkpt>
      <trkpt lat="42.67534" lon="-0.5133">
        <ele>1604</ele>
        <time>2010-01-01T04:04:21Z</time>
      </trkpt>
      <trkpt lat="42.67539" lon="-0.51322">
        <ele>1607</ele>
        <time>2010-01-01T04:04:24Z</time>
      </trkpt>
      <trkpt lat="42.67541" lon="-0.51308">
        <ele>1610</ele>
        <time>2010-01-01T04:04:28Z</time>
      </trkpt>
      <trkpt lat="42.67542" lon="-0.51297">
        <ele>1611</ele>
        <time>2010-01-01T04:04:32Z</time>
      </trkpt>
      <trkpt lat="42.6754" lon="-0.51262">
        <ele>1615</ele>
        <time>2010-01-01T04:04:42Z</time>
      </trkpt>
      <trkpt lat="42.67532" lon="-0.51239">
        <ele>1619</ele>
        <time>2010-01-01T04:04:49Z</time>
      </trkpt>
      <trkpt lat="42.67526" lon="-0.51226">
        <ele>1621</ele>
        <time>2010-01-01T04:04:54Z</time>
      </trkpt>
      <trkpt lat="42.6752" lon="-0.51219">
        <ele>1622</ele>
        <time>2010-01-01T04:04:57Z</time>
      </trkpt>
      <trkpt lat="42.67508" lon="-0.51209">
        <ele>1622</ele>
        <time>2010-01-01T04:05:03Z</time>
      </trkpt>
      <trkpt lat="42.67499" lon="-0.51194">
        <ele>1623</ele>
        <time>2010-01-01T04:05:08Z</time>
      </trkpt>
      <trkpt lat="42.6749" lon="-0.51183">
        <ele>1623</ele>
        <time>2010-01-01T04:05:13Z</time>
      </trkpt>
      <trkpt lat="42.67472" lon="-0.51164">
        <ele>1623</ele>
        <time>2010-01-01T04:05:22Z</time>
      </trkpt>
      <trkpt lat="42.67463" lon="-0.51152">
        <ele>1622</ele>
        <time>2010-01-01T04:05:27Z</time>
      </trkpt>
      <trkpt lat="42.6745" lon="-0.51127">
        <ele>1624</ele>
        <time>2010-01-01T04:05:37Z</time>
      </trkpt>
      <trkpt lat="42.67436" lon="-0.5111">
        <ele>1625</ele>
        <time>2010-01-01T04:05:44Z</time>
      </trkpt>
      <trkpt lat="42.67423" lon="-0.51091">
        <ele>1626</ele>
        <time>2010-01-01T04:05:51Z</time>
      </trkpt>
      <trkpt lat="42.67414" lon="-0.51074">
        <ele>1626</ele>
        <time>2010-01-01T04:05:58Z</time>
      </trkpt>
      <trkpt lat="42.67399" lon="-0.51057">
        <ele>1624</ele>
        <time>2010-01-01T04:06:05Z</time>
      </trkpt>
      <trkpt lat="42.67392" lon="-0.5104">
        <ele>1625</ele>
        <time>2010-01-01T04:06:11Z</time>
      </trkpt>
      <trkpt lat="42.6739" lon="-0.51034">
        <ele>1626</ele>
        <time>2010-01-01T04:06:13Z</time>
      </trkpt>
      <trkpt lat="42.67392" lon="-0.51032">
        <ele>1626</ele>
        <time>2010-01-01T04:06:14Z</time>
      </trkpt>
      <trkpt lat="42.6739" lon="-0.51027">
        <ele>1627</ele>
        <time>2010-01-01T04:06:16Z</time>
      </trkpt>
      <trkpt lat="42.67386" lon="-0.5102">
        <ele>1627</ele>
        <time>2010-01-01T04:06:18Z</time>
      </trkpt>
      <trkpt lat="42.67374" lon="-0.50992">
        <ele>1631</ele>
        <time>2010-01-01T04:06:28Z</time>
      </trkpt>
      <trkpt lat="42.67351" lon="-0.50949">
        <ele>1640</ele>
        <time>2010-01-01T04:06:43Z</time>
      </trkpt>
      <trkpt lat="42.67348" lon="-0.5094">
        <ele>1642</ele>
        <time>2010-01-01T04:06:46Z</time>
      </trkpt>
      <trkpt lat="42.67339" lon="-0.50921">
        <ele>1646</ele>
        <time>2010-01-01T04:06:53Z</time>
      </trkpt>
      <trkpt lat="42.67325" lon="-0.50904">
        <ele>1650</ele>
        <time>2010-01-01T04:07:01Z</time>
      </trkpt>
      <trkpt lat="42.6732" lon="-0.509">
        <ele>1651</ele>
        <time>2010-01-01T04:07:03Z</time>
      </trkpt>
      <trkpt lat="42.67312" lon="-0.50888">
        <ele>1654</ele>
        <time>2010-01-01T04:07:08Z</time>
      </trkpt>
      <trkpt lat="42.67296" lon="-0.50859">
        <ele>1662</ele>
        <time>2010-01-01T04:07:18Z</time>
      </trkpt>
      <trkpt lat="42.67288" lon="-0.50833">
        <ele>1668</ele>
        <time>2010-01-01T04:07:27Z</time>
      </trkpt>
      <trkpt lat="42.67279" lon="-0.50827">
        <ele>1671</ele>
        <time>2010-01-01T04:07:31Z</time>
      </trkpt>
      <trkpt lat="42.67272" lon="-0.50813">
        <ele>1675</ele>
        <time>2010-01-01T04:07:36Z</time>
      </trkpt>
      <trkpt lat="42.67261" lon="-0.50798">
        <ele>1678</ele>
        <time>2010-01-01T04:07:42Z</time>
      </trkpt>
      <trkpt lat="42.67255" lon="-0.50786">
        <ele>1681</ele>
        <time>2010-01-01T04:07:46Z</time>
      </trkpt>
      <trkpt lat="42.67249" lon="-0.50779">
        <ele>1683</ele>
        <time>2010-01-01T04:07:49Z</time>
      </trkpt>
      <trkpt lat="42.6723" lon="-0.50745">
        <ele>1689</ele>
        <time>2010-01-01T04:08:02Z</time>
      </trkpt>
      <trkpt lat="42.67228" lon="-0.50733">
        <ele>1691</ele>
        <time>2010-01-01T04:08:06Z</time>
      </trkpt>
      <trkpt lat="42.67226" lon="-0.50726">
        <ele>1692</ele>
        <time>2010-01-01T04:08:08Z</time>
      </trkpt>
      <trkpt lat="42.67224" lon="-0.50704">
        <ele>1694</ele>
        <time>2010-01-01T04:08:14Z</time>
      </trkpt>
      <trkpt lat="42.6722" lon="-0.50688">
        <ele>1694</ele>
        <time>2010-01-01T04:08:19Z</time>
      </trkpt>
      <trkpt lat="42.67215" lon="-0.5068">
        <ele>1694</ele>
        <time>2010-01-01T04:08:22Z</time>
      </trkpt>
      <trkpt lat="42.67215" lon="-0.50673">
        <ele>1694</ele>
        <time>2010-01-01T04:08:25Z</time>
      </trkpt>
      <trkpt lat="42.67211" lon="-0.50648">
        <ele>1695</ele>
        <time>2010-01-01T04:08:32Z</time>
      </trkpt>
      <trkpt lat="42.67207" lon="-0.50615">
        <ele>1695</ele>
        <time>2010-01-01T04:08:42Z</time>
      </trkpt>
      <trkpt lat="42.67184" lon="-0.50542">
        <ele>1700</ele>
        <time>2010-01-01T04:09:05Z</time>
      </trkpt>
      <trkpt lat="42.67183" lon="-0.50531">
        <ele>1701</ele>
        <time>2010-01-01T04:09:09Z</time>
      </trkpt>
      <trkpt lat="42.67177" lon="-0.50509">
        <ele>1702</ele>
        <time>2010-01-01T04:09:16Z</time>
      </trkpt>
      <trkpt lat="42.67168" lon="-0.50461">
        <ele>1704</ele>
        <time>2010-01-01T04:09:30Z</time>
      </trkpt>
      <trkpt lat="42.6716" lon="-0.50439">
        <ele>1704</ele>
        <time>2010-01-01T04:09:37Z</time>
      </trkpt>
      <trkpt lat="42.67155" lon="-0.5043">
        <ele>1705</ele>
        <time>2010-01-01T04:09:41Z</time>
      </trkpt>
      <trkpt lat="42.6714" lon="-0.50385">
        <ele>1714</ele>
        <time>2010-01-01T04:09:55Z</time>
      </trkpt>
      <trkpt lat="42.6714" lon="-0.50366">
        <ele>1719</ele>
        <time>2010-01-01T04:10:01Z</time>
      </trkpt>
      <trkpt lat="42.67132" lon="-0.50352">
        <ele>1720</ele>
        <time>2010-01-01T04:10:06Z</time>
      </trkpt>
      <trkpt lat="42.67127" lon="-0.50312">
        <ele>1726</ele>
        <time>2010-01-01T04:10:18Z</time>
      </trkpt>
      <trkpt lat="42.67124" lon="-0.50306">
        <ele>1727</ele>
        <time>2010-01-01T04:10:20Z</time>
      </trkpt>
      <trkpt lat="42.6712" lon="-0.50276">
        <ele>1732</ele>
        <time>2010-01-01T04:10:29Z</time>
      </trkpt>
      <trkpt lat="42.67123" lon="-0.5023">
        <ele>1740</ele>
        <time>2010-01-01T04:10:42Z</time>
      </trkpt>
      <trkpt lat="42.6712" lon="-0.50216">
        <ele>1742</ele>
        <time>2010-01-01T04:10:47Z</time>
      </trkpt>
      <trkpt lat="42.67123" lon="-0.50203">
        <ele>1745</ele>
        <time>2010-01-01T04:10:51Z</time>
      </trkpt>
      <trkpt lat="42.67125" lon="-0.50198">
        <ele>1746</ele>
        <time>2010-01-01T04:10:53Z</time>
      </trkpt>
      <trkpt lat="42.67122" lon="-0.50177">
        <ele>1749</ele>
        <time>2010-01-01T04:10:59Z</time>
      </trkpt>
      <trkpt lat="42.67122" lon="-0.50165">
        <ele>1751</ele>
        <time>2010-01-01T04:11:02Z</time>
      </trkpt>
      <trkpt lat="42.67126" lon="-0.50138">
        <ele>1755</ele>
        <time>2010-01-01T04:11:10Z</time>
      </trkpt>
      <trkpt lat="42.67132" lon="-0.50116">
        <ele>1758</ele>
        <time>2010-01-01T04:11:17Z</time>
      </trkpt>
      <trkpt lat="42.67133" lon="-0.50103">
        <ele>1761</ele>
        <time>2010-01-01T04:11:21Z</time>
      </trkpt>
      <trkpt lat="42.67131" lon="-0.50079">
        <ele>1765</ele>
        <time>2010-01-01T04:11:28Z</time>
      </trkpt>
      <trkpt lat="42.67132" lon="-0.50071">
        <ele>1766</ele>
        <time>2010-01-01T04:11:31Z</time>
      </trkpt>
      <trkpt lat="42.67128" lon="-0.50037">
        <ele>1771</ele>
        <time>2010-01-01T04:11:41Z</time>
      </trkpt>
      <trkpt lat="42.67129" lon="-0.50019">
        <ele>1776</ele>
        <time>2010-01-01T04:11:46Z</time>
      </trkpt>
      <trkpt lat="42.67125" lon="-0.50003">
        <ele>1781</ele>
        <time>2010-01-01T04:11:51Z</time>
      </trkpt>
      <trkpt lat="42.67127" lon="-0.49977">
        <ele>1789</ele>
        <time>2010-01-01T04:11:59Z</time>
      </trkpt>
      <trkpt lat="42.67122" lon="-0.49962">
        <ele>1793</ele>
        <time>2010-01-01T04:12:04Z</time>
      </trkpt>
      <trkpt lat="42.67122" lon="-0.49952">
        <ele>1795</ele>
        <time>2010-01-01T04:12:06Z</time>
      </trkpt>
      <trkpt lat="42.67117" lon="-0.49947">
        <ele>1796</ele>
        <time>2010-01-01T04:12:09Z</time>
      </trkpt>
      <trkpt lat="42.67116" lon="-0.49942">
        <ele>1797</ele>
        <time>2010-01-01T04:12:11Z</time>
      </trkpt>
      <trkpt lat="42.67112" lon="-0.4992">
        <ele>1802</ele>
        <time>2010-01-01T04:12:17Z</time>
      </trkpt>
      <trkpt lat="42.67114" lon="-0.49908">
        <ele>1805</ele>
        <time>2010-01-01T04:12:21Z</time>
      </trkpt>
      <trkpt lat="42.67111" lon="-0.49898">
        <ele>1807</ele>
        <time>2010-01-01T04:12:24Z</time>
      </trkpt>
      <trkpt lat="42.67109" lon="-0.49881">
        <ele>1811</ele>
        <time>2010-01-01T04:12:29Z</time>
      </trkpt>
      <trkpt lat="42.67105" lon="-0.49871">
        <ele>1813</ele>
        <time>2010-01-01T04:12:32Z</time>
      </trkpt>
      <trkpt lat="42.67105" lon="-0.49856">
        <ele>1818</ele>
        <time>2010-01-01T04:12:37Z</time>
      </trkpt>
      <trkpt lat="42.67107" lon="-0.49848">
        <ele>1820</ele>
        <time>2010-01-01T04:12:39Z</time>
      </trkpt>
      <trkpt lat="42.67101" lon="-0.4982">
        <ele>1827</ele>
        <time>2010-01-01T04:12:48Z</time>
      </trkpt>
      <trkpt lat="42.671" lon="-0.49813">
        <ele>1828</ele>
        <time>2010-01-01T04:12:50Z</time>
      </trkpt>
      <trkpt lat="42.67101" lon="-0.49804">
        <ele>1831</ele>
        <time>2010-01-01T04:12:53Z</time>
      </trkpt>
      <trkpt lat="42.671" lon="-0.49795">
        <ele>1832</ele>
        <time>2010-01-01T04:12:55Z</time>
      </trkpt>
      <trkpt lat="42.67093" lon="-0.49773">
        <ele>1836</ele>
        <time>2010-01-01T04:13:02Z</time>
      </trkpt>
      <trkpt lat="42.67089" lon="-0.49765">
        <ele>1838</ele>
        <time>2010-01-01T04:13:05Z</time>
      </trkpt>
      <trkpt lat="42.67087" lon="-0.49756">
        <ele>1839</ele>
        <time>2010-01-01T04:13:08Z</time>
      </trkpt>
      <trkpt lat="42.67086" lon="-0.49731">
        <ele>1843</ele>
        <time>2010-01-01T04:13:16Z</time>
      </trkpt>
      <trkpt lat="42.67084" lon="-0.49719">
        <ele>1845</ele>
        <time>2010-01-01T04:13:19Z</time>
      </trkpt>
      <trkpt lat="42.67082" lon="-0.49716">
        <ele>1845</ele>
        <time>2010-01-01T04:13:20Z</time>
      </trkpt>
      <trkpt lat="42.67076" lon="-0.49712">
        <ele>1845</ele>
        <time>2010-01-01T04:13:23Z</time>
      </trkpt>
      <trkpt lat="42.67074" lon="-0.49708">
        <ele>1845</ele>
        <time>2010-01-01T04:13:25Z</time>
      </trkpt>
      <trkpt lat="42.67072" lon="-0.49701">
        <ele>1846</ele>
        <time>2010-01-01T04:13:27Z</time>
      </trkpt>
      <trkpt lat="42.67067" lon="-0.49689">
        <ele>1847</ele>
        <time>2010-01-01T04:13:31Z</time>
      </trkpt>
      <trkpt lat="42.67064" lon="-0.49671">
        <ele>1850</ele>
        <time>2010-01-01T04:13:36Z</time>
      </trkpt>
      <trkpt lat="42.67064" lon="-0.49664">
        <ele>1851</ele>
        <time>2010-01-01T04:13:38Z</time>
      </trkpt>
      <trkpt lat="42.67061" lon="-0.49643">
        <ele>1853</ele>
        <time>2010-01-01T04:13:45Z</time>
      </trkpt>
      <trkpt lat="42.67054" lon="-0.49624">
        <ele>1856</ele>
        <time>2010-01-01T04:13:51Z</time>
      </trkpt>
      <trkpt lat="42.67048" lon="-0.49612">
        <ele>1856</ele>
        <time>2010-01-01T04:13:55Z</time>
      </trkpt>
      <trkpt lat="42.67045" lon="-0.49593">
        <ele>1858</ele>
        <time>2010-01-01T04:14:01Z</time>
      </trkpt>
      <trkpt lat="42.67046" lon="-0.49574">
        <ele>1859</ele>
        <time>2010-01-01T04:14:07Z</time>
      </trkpt>
      <trkpt lat="42.67043" lon="-0.49552">
        <ele>1860</ele>
        <time>2010-01-01T04:14:13Z</time>
      </trkpt>
      <trkpt lat="42.67042" lon="-0.49514">
        <ele>1864</ele>
        <time>2010-01-01T04:14:25Z</time>
      </trkpt>
      <trkpt lat="42.67043" lon="-0.49505">
        <ele>1865</ele>
        <time>2010-01-01T04:14:27Z</time>
      </trkpt>
      <trkpt lat="42.67046" lon="-0.49442">
        <ele>1868</ele>
        <time>2010-01-01T04:14:46Z</time>
      </trkpt>
      <trkpt lat="42.67042" lon="-0.49426">
        <ele>1869</ele>
        <time>2010-01-01T04:14:51Z</time>
      </trkpt>
      <trkpt lat="42.67042" lon="-0.49393">
        <ele>1872</ele>
        <time>2010-01-01T04:15:00Z</time>
      </trkpt>
      <trkpt lat="42.6704" lon="-0.49389">
        <ele>1872</ele>
        <time>2010-01-01T04:15:02Z</time>
      </trkpt>
      <trkpt lat="42.67044" lon="-0.49327">
        <ele>1879</ele>
        <time>2010-01-01T04:15:20Z</time>
      </trkpt>
      <trkpt lat="42.67044" lon="-0.49278">
        <ele>1888</ele>
        <time>2010-01-01T04:15:34Z</time>
      </trkpt>
      <trkpt lat="42.67042" lon="-0.49263">
        <ele>1890</ele>
        <time>2010-01-01T04:15:39Z</time>
      </trkpt>
      <trkpt lat="42.67043" lon="-0.49253">
        <ele>1892</ele>
        <time>2010-01-01T04:15:42Z</time>
      </trkpt>
      <trkpt lat="42.67035" lon="-0.49195">
        <ele>1895</ele>
        <time>2010-01-01T04:15:59Z</time>
      </trkpt>
      <trkpt lat="42.67038" lon="-0.4919">
        <ele>1894</ele>
        <time>2010-01-01T04:16:01Z</time>
      </trkpt>
      <trkpt lat="42.67034" lon="-0.49181">
        <ele>1894</ele>
        <time>2010-01-01T04:16:04Z</time>
      </trkpt>
      <trkpt lat="42.67031" lon="-0.49171">
        <ele>1894</ele>
        <time>2010-01-01T04:16:07Z</time>
      </trkpt>
      <trkpt lat="42.67028" lon="-0.49149">
        <ele>1895</ele>
        <time>2010-01-01T04:16:14Z</time>
      </trkpt>
      <trkpt lat="42.67023" lon="-0.49139">
        <ele>1894</ele>
        <time>2010-01-01T04:16:18Z</time>
      </trkpt>
      <trkpt lat="42.67013" lon="-0.49106">
        <ele>1894</ele>
        <time>2010-01-01T04:16:28Z</time>
      </trkpt>
      <trkpt lat="42.67005" lon="-0.49086">
        <ele>1892</ele>
        <time>2010-01-01T04:16:35Z</time>
      </trkpt>
      <trkpt lat="42.66999" lon="-0.49045">
        <ele>1893</ele>
        <time>2010-01-01T04:16:47Z</time>
      </trkpt>
      <trkpt lat="42.66995" lon="-0.49027">
        <ele>1893</ele>
        <time>2010-01-01T04:16:53Z</time>
      </trkpt>
      <trkpt lat="42.6699" lon="-0.49015">
        <ele>1892</ele>
        <time>2010-01-01T04:16:57Z</time>
      </trkpt>
      <trkpt lat="42.66985" lon="-0.48971">
        <ele>1891</ele>
        <time>2010-01-01T04:17:10Z</time>
      </trkpt>
      <trkpt lat="42.66977" lon="-0.48938">
        <ele>1893</ele>
        <time>2010-01-01T04:17:20Z</time>
      </trkpt>
      <trkpt lat="42.66976" lon="-0.48901">
        <ele>1896</ele>
        <time>2010-01-01T04:17:31Z</time>
      </trkpt>
      <trkpt lat="42.6698" lon="-0.48891">
        <ele>1897</ele>
        <time>2010-01-01T04:17:34Z</time>
      </trkpt>
      <trkpt lat="42.66987" lon="-0.48868">
        <ele>1899</ele>
        <time>2010-01-01T04:17:42Z</time>
      </trkpt>
      <trkpt lat="42.66988" lon="-0.48854">
        <ele>1899</ele>
        <time>2010-01-01T04:17:46Z</time>
      </trkpt>
      <trkpt lat="42.66994" lon="-0.48826">
        <ele>1902</ele>
        <time>2010-01-01T04:17:54Z</time>
      </trkpt>
      <trkpt lat="42.67" lon="-0.4882">
        <ele>1903</ele>
        <time>2010-01-01T04:17:58Z</time>
      </trkpt>
      <trkpt lat="42.67002" lon="-0.48811">
        <ele>1904</ele>
        <time>2010-01-01T04:18:00Z</time>
      </trkpt>
      <trkpt lat="42.67001" lon="-0.48803">
        <ele>1905</ele>
        <time>2010-01-01T04:18:03Z</time>
      </trkpt>
      <trkpt lat="42.67011" lon="-0.48781">
        <ele>1906</ele>
        <time>2010-01-01T04:18:10Z</time>
      </trkpt>
      <trkpt lat="42.67017" lon="-0.48767">
        <ele>1907</ele>
        <time>2010-01-01T04:18:15Z</time>
      </trkpt>
      <trkpt lat="42.6702" lon="-0.48751">
        <ele>1908</ele>
        <time>2010-01-01T04:18:20Z</time>
      </trkpt>
      <trkpt lat="42.6702" lon="-0.48743">
        <ele>1909</ele>
        <time>2010-01-01T04:18:22Z</time>
      </trkpt>
      <trkpt lat="42.67021" lon="-0.48736">
        <ele>1910</ele>
        <time>2010-01-01T04:18:24Z</time>
      </trkpt>
      <trkpt lat="42.67028" lon="-0.48729">
        <ele>1912</ele>
        <time>2010-01-01T04:18:28Z</time>
      </trkpt>
      <trkpt lat="42.67042" lon="-0.48657">
        <ele>1915</ele>
        <time>2010-01-01T04:18:50Z</time>
      </trkpt>
      <trkpt lat="42.67033" lon="-0.48593">
        <ele>1913</ele>
        <time>2010-01-01T04:19:09Z</time>
      </trkpt>
      <trkpt lat="42.67024" lon="-0.48552">
        <ele>1917</ele>
        <time>2010-01-01T04:19:21Z</time>
      </trkpt>
      <trkpt lat="42.67023" lon="-0.48541">
        <ele>1918</ele>
        <time>2010-01-01T04:19:25Z</time>
      </trkpt>
      <trkpt lat="42.67013" lon="-0.4851">
        <ele>1919</ele>
        <time>2010-01-01T04:19:35Z</time>
      </trkpt>
      <trkpt lat="42.67011" lon="-0.48455">
        <ele>1924</ele>
        <time>2010-01-01T04:19:51Z</time>
      </trkpt>
      <trkpt lat="42.67007" lon="-0.48437">
        <ele>1926</ele>
        <time>2010-01-01T04:19:56Z</time>
      </trkpt>
      <trkpt lat="42.67008" lon="-0.48425">
        <ele>1928</ele>
        <time>2010-01-01T04:20:00Z</time>
      </trkpt>
      <trkpt lat="42.67011" lon="-0.48418">
        <ele>1929</ele>
        <time>2010-01-01T04:20:02Z</time>
      </trkpt>
      <trkpt lat="42.67009" lon="-0.48403">
        <ele>1931</ele>
        <time>2010-01-01T04:20:07Z</time>
      </trkpt>
      <trkpt lat="42.67008" lon="-0.48387">
        <ele>1934</ele>
        <time>2010-01-01T04:20:11Z</time>
      </trkpt>
      <trkpt lat="42.6701" lon="-0.48378">
        <ele>1935</ele>
        <time>2010-01-01T04:20:14Z</time>
      </trkpt>
      <trkpt lat="42.67008" lon="-0.48374">
        <ele>1936</ele>
        <time>2010-01-01T04:20:15Z</time>
      </trkpt>
      <trkpt lat="42.67008" lon="-0.48364">
        <ele>1938</ele>
        <time>2010-01-01T04:20:19Z</time>
      </trkpt>
      <trkpt lat="42.67004" lon="-0.48353">
        <ele>1939</ele>
        <time>2010-01-01T04:20:22Z</time>
      </trkpt>
      <trkpt lat="42.67004" lon="-0.48342">
        <ele>1941</ele>
        <time>2010-01-01T04:20:25Z</time>
      </trkpt>
      <trkpt lat="42.67002" lon="-0.48332">
        <ele>1943</ele>
        <time>2010-01-01T04:20:28Z</time>
      </trkpt>
      <trkpt lat="42.67002" lon="-0.48305">
        <ele>1951</ele>
        <time>2010-01-01T04:20:36Z</time>
      </trkpt>
      <trkpt lat="42.67003" lon="-0.48298">
        <ele>1953</ele>
        <time>2010-01-01T04:20:39Z</time>
      </trkpt>
      <trkpt lat="42.67006" lon="-0.48294">
        <ele>1955</ele>
        <time>2010-01-01T04:20:40Z</time>
      </trkpt>
      <trkpt lat="42.67006" lon="-0.4826">
        <ele>1964</ele>
        <time>2010-01-01T04:20:50Z</time>
      </trkpt>
      <trkpt lat="42.67011" lon="-0.48235">
        <ele>1970</ele>
        <time>2010-01-01T04:20:58Z</time>
      </trkpt>
      <trkpt lat="42.6701" lon="-0.48214">
        <ele>1974</ele>
        <time>2010-01-01T04:21:04Z</time>
      </trkpt>
      <trkpt lat="42.67013" lon="-0.48202">
        <ele>1977</ele>
        <time>2010-01-01T04:21:07Z</time>
      </trkpt>
      <trkpt lat="42.67016" lon="-0.48199">
        <ele>1979</ele>
        <time>2010-01-01T04:21:09Z</time>
      </trkpt>
      <trkpt lat="42.67017" lon="-0.48196">
        <ele>1980</ele>
        <time>2010-01-01T04:21:10Z</time>
      </trkpt>
      <trkpt lat="42.67017" lon="-0.48181">
        <ele>1982</ele>
        <time>2010-01-01T04:21:15Z</time>
      </trkpt>
      <trkpt lat="42.67019" lon="-0.48174">
        <ele>1984</ele>
        <time>2010-01-01T04:21:17Z</time>
      </trkpt>
      <trkpt lat="42.67024" lon="-0.48168">
        <ele>1986</ele>
        <time>2010-01-01T04:21:19Z</time>
      </trkpt>
      <trkpt lat="42.6703" lon="-0.48146">
        <ele>1989</ele>
        <time>2010-01-01T04:21:26Z</time>
      </trkpt>
      <trkpt lat="42.67039" lon="-0.48126">
        <ele>1989</ele>
        <time>2010-01-01T04:21:33Z</time>
      </trkpt>
      <trkpt lat="42.67063" lon="-0.48085">
        <ele>1989</ele>
        <time>2010-01-01T04:21:49Z</time>
      </trkpt>
      <trkpt lat="42.671" lon="-0.48029">
        <ele>1993</ele>
        <time>2010-01-01T04:22:11Z</time>
      </trkpt>
      <trkpt lat="42.67127" lon="-0.47995">
        <ele>1996</ele>
        <time>2010-01-01T04:22:26Z</time>
      </trkpt>
      <trkpt lat="42.67135" lon="-0.47987">
        <ele>1997</ele>
        <time>2010-01-01T04:22:30Z</time>
      </trkpt>
      <trkpt lat="42.67142" lon="-0.47975">
        <ele>1998</ele>
        <time>2010-01-01T04:22:34Z</time>
      </trkpt>
      <trkpt lat="42.67153" lon="-0.47951">
        <ele>1998</ele>
        <time>2010-01-01T04:22:42Z</time>
      </trkpt>
      <trkpt lat="42.67182" lon="-0.47871">
        <ele>2003</ele>
        <time>2010-01-01T04:23:09Z</time>
      </trkpt>
      <trkpt lat="42.67194" lon="-0.47848">
        <ele>2008</ele>
        <time>2010-01-01T04:23:17Z</time>
      </trkpt>
      <trkpt lat="42.672" lon="-0.47833">
        <ele>2010</ele>
        <time>2010-01-01T04:23:22Z</time>
      </trkpt>
      <trkpt lat="42.6721" lon="-0.47804">
        <ele>2011</ele>
        <time>2010-01-01T04:23:31Z</time>
      </trkpt>
      <trkpt lat="42.67208" lon="-0.47789">
        <ele>2014</ele>
        <time>2010-01-01T04:23:36Z</time>
      </trkpt>
      <trkpt lat="42.6721" lon="-0.47785">
        <ele>2014</ele>
        <time>2010-01-01T04:23:37Z</time>
      </trkpt>
      <trkpt lat="42.67216" lon="-0.47779">
        <ele>2014</ele>
        <time>2010-01-01T04:23:40Z</time>
      </trkpt>
      <trkpt lat="42.67219" lon="-0.47774">
        <ele>2015</ele>
        <time>2010-01-01T04:23:42Z</time>
      </trkpt>
      <trkpt lat="42.67232" lon="-0.47732">
        <ele>2026</ele>
        <time>2010-01-01T04:23:55Z</time>
      </trkpt>
      <trkpt lat="42.67232" lon="-0.47726">
        <ele>2028</ele>
        <time>2010-01-01T04:23:57Z</time>
      </trkpt>
      <trkpt lat="42.67238" lon="-0.47711">
        <ele>2032</ele>
        <time>2010-01-01T04:24:02Z</time>
      </trkpt>
      <trkpt lat="42.6724" lon="-0.47689">
        <ele>2038</ele>
        <time>2010-01-01T04:24:09Z</time>
      </trkpt>
      <trkpt lat="42.67246" lon="-0.47664">
        <ele>2044</ele>
        <time>2010-01-01T04:24:17Z</time>
      </trkpt>
      <trkpt lat="42.67248" lon="-0.4763">
        <ele>2050</ele>
        <time>2010-01-01T04:24:27Z</time>
      </trkpt>
      <trkpt lat="42.67252" lon="-0.47615">
        <ele>2054</ele>
        <time>2010-01-01T04:24:31Z</time>
      </trkpt>
      <trkpt lat="42.67249" lon="-0.47603">
        <ele>2058</ele>
        <time>2010-01-01T04:24:35Z</time>
      </trkpt>
      <trkpt lat="42.67244" lon="-0.47593">
        <ele>2063</ele>
        <time>2010-01-01T04:24:38Z</time>
      </trkpt>
      <trkpt lat="42.67242" lon="-0.47591">
        <ele>2064</ele>
        <time>2010-01-01T04:24:40Z</time>
      </trkpt>
      <trkpt lat="42.67241" lon="-0.47587">
        <ele>2066</ele>
        <time>2010-01-01T04:24:41Z</time>
      </trkpt>
      <trkpt lat="42.67237" lon="-0.47582">
        <ele>2068</ele>
        <time>2010-01-01T04:24:43Z</time>
      </trkpt>
      <trkpt lat="42.67236" lon="-0.47575">
        <ele>2070</ele>
        <time>2010-01-01T04:24:45Z</time>
      </trkpt>
      <trkpt lat="42.67228" lon="-0.47558">
        <ele>2075</ele>
        <time>2010-01-01T04:24:51Z</time>
      </trkpt>
      <trkpt lat="42.67226" lon="-0.47549">
        <ele>2077</ele>
        <time>2010-01-01T04:24:54Z</time>
      </trkpt>
      <trkpt lat="42.67226" lon="-0.4754">
        <ele>2079</ele>
        <time>2010-01-01T04:24:56Z</time>
      </trkpt>
      <trkpt lat="42.6722" lon="-0.47535">
        <ele>2081</ele>
        <time>2010-01-01T04:24:59Z</time>
      </trkpt>
      <trkpt lat="42.67223" lon="-0.47506">
        <ele>2089</ele>
        <time>2010-01-01T04:25:08Z</time>
      </trkpt>
      <trkpt lat="42.67221" lon="-0.47471">
        <ele>2101</ele>
        <time>2010-01-01T04:25:18Z</time>
      </trkpt>
      <trkpt lat="42.67222" lon="-0.47458">
        <ele>2104</ele>
        <time>2010-01-01T04:25:22Z</time>
      </trkpt>
      <trkpt lat="42.6722" lon="-0.47446">
        <ele>2108</ele>
        <time>2010-01-01T04:25:26Z</time>
      </trkpt>
      <trkpt lat="42.67222" lon="-0.47429">
        <ele>2110</ele>
        <time>2010-01-01T04:25:31Z</time>
      </trkpt>
      <trkpt lat="42.67218" lon="-0.47414">
        <ele>2114</ele>
        <time>2010-01-01T04:25:35Z</time>
      </trkpt>
      <trkpt lat="42.67219" lon="-0.47401">
        <ele>2116</ele>
        <time>2010-01-01T04:25:39Z</time>
      </trkpt>
      <trkpt lat="42.67221" lon="-0.47394">
        <ele>2117</ele>
        <time>2010-01-01T04:25:41Z</time>
      </trkpt>
      <trkpt lat="42.67221" lon="-0.47381">
        <ele>2118</ele>
        <time>2010-01-01T04:25:45Z</time>
      </trkpt>
      <trkpt lat="42.67224" lon="-0.47375">
        <ele>2118</ele>
        <time>2010-01-01T04:25:47Z</time>
      </trkpt>
      <trkpt lat="42.67232" lon="-0.47365">
        <ele>2119</ele>
        <time>2010-01-01T04:25:52Z</time>
      </trkpt>
      <trkpt lat="42.67261" lon="-0.47337">
        <ele>2120</ele>
        <time>2010-01-01T04:26:06Z</time>
      </trkpt>
      <trkpt lat="42.67296" lon="-0.47298">
        <ele>2123</ele>
        <time>2010-01-01T04:26:24Z</time>
      </trkpt>
      <trkpt lat="42.6732" lon="-0.47265">
        <ele>2123</ele>
        <time>2010-01-01T04:26:38Z</time>
      </trkpt>
      <trkpt lat="42.67337" lon="-0.47238">
        <ele>2125</ele>
        <time>2010-01-01T04:26:48Z</time>
      </trkpt>
      <trkpt lat="42.6736" lon="-0.4721">
        <ele>2126</ele>
        <time>2010-01-01T04:27:01Z</time>
      </trkpt>
      <trkpt lat="42.67373" lon="-0.47186">
        <ele>2124</ele>
        <time>2010-01-01T04:27:10Z</time>
      </trkpt>
      <trkpt lat="42.67383" lon="-0.47171">
        <ele>2123</ele>
        <time>2010-01-01T04:27:16Z</time>
      </trkpt>
      <trkpt lat="42.67434" lon="-0.47117">
        <ele>2124</ele>
        <time>2010-01-01T04:27:41Z</time>
      </trkpt>
      <trkpt lat="42.67473" lon="-0.47094">
        <ele>2125</ele>
        <time>2010-01-01T04:27:58Z</time>
      </trkpt>
      <trkpt lat="42.675" lon="-0.47073">
        <ele>2124</ele>
        <time>2010-01-01T04:28:11Z</time>
      </trkpt>
      <trkpt lat="42.67513" lon="-0.47066">
        <ele>2124</ele>
        <time>2010-01-01T04:28:16Z</time>
      </trkpt>
      <trkpt lat="42.67557" lon="-0.47048">
        <ele>2124</ele>
        <time>2010-01-01T04:28:35Z</time>
      </trkpt>
      <trkpt lat="42.67569" lon="-0.47047">
        <ele>2124</ele>
        <time>2010-01-01T04:28:39Z</time>
      </trkpt>
      <trkpt lat="42.67604" lon="-0.47031">
        <ele>2121</ele>
        <time>2010-01-01T04:28:54Z</time>
      </trkpt>
      <trkpt lat="42.67623" lon="-0.47025">
        <ele>2121</ele>
        <time>2010-01-01T04:29:02Z</time>
      </trkpt>
      <trkpt lat="42.67646" lon="-0.47012">
        <ele>2122</ele>
        <time>2010-01-01T04:29:12Z</time>
      </trkpt>
      <trkpt lat="42.67667" lon="-0.46996">
        <ele>2123</ele>
        <time>2010-01-01T04:29:22Z</time>
      </trkpt>
      <trkpt lat="42.67678" lon="-0.46991">
        <ele>2123</ele>
        <time>2010-01-01T04:29:26Z</time>
      </trkpt>
      <trkpt lat="42.67706" lon="-0.46963">
        <ele>2129</ele>
        <time>2010-01-01T04:29:40Z</time>
      </trkpt>
      <trkpt lat="42.67712" lon="-0.46955">
        <ele>2131</ele>
        <time>2010-01-01T04:29:43Z</time>
      </trkpt>
      <trkpt lat="42.67717" lon="-0.46951">
        <ele>2133</ele>
        <time>2010-01-01T04:29:46Z</time>
      </trkpt>
      <trkpt lat="42.67723" lon="-0.46945">
        <ele>2135</ele>
        <time>2010-01-01T04:29:49Z</time>
      </trkpt>
      <trkpt lat="42.67729" lon="-0.46941">
        <ele>2135</ele>
        <time>2010-01-01T04:29:52Z</time>
      </trkpt>
      <trkpt lat="42.67735" lon="-0.46934">
        <ele>2136</ele>
        <time>2010-01-01T04:29:55Z</time>
      </trkpt>
      <trkpt lat="42.67742" lon="-0.46929">
        <ele>2137</ele>
        <time>2010-01-01T04:29:58Z</time>
      </trkpt>
      <trkpt lat="42.67745" lon="-0.46928">
        <ele>2137</ele>
        <time>2010-01-01T04:29:59Z</time>
      </trkpt>
      <trkpt lat="42.67755" lon="-0.46917">
        <ele>2140</ele>
        <time>2010-01-01T04:30:04Z</time>
      </trkpt>
      <trkpt lat="42.67761" lon="-0.46913">
        <ele>2141</ele>
        <time>2010-01-01T04:30:07Z</time>
      </trkpt>
      <trkpt lat="42.6777" lon="-0.46901">
        <ele>2144</ele>
        <time>2010-01-01T04:30:12Z</time>
      </trkpt>
      <trkpt lat="42.67774" lon="-0.46902">
        <ele>2145</ele>
        <time>2010-01-01T04:30:14Z</time>
      </trkpt>
      <trkpt lat="42.67783" lon="-0.4689">
        <ele>2148</ele>
        <time>2010-01-01T04:30:19Z</time>
      </trkpt>
      <trkpt lat="42.67789" lon="-0.4689">
        <ele>2150</ele>
        <time>2010-01-01T04:30:21Z</time>
      </trkpt>
      <trkpt lat="42.67802" lon="-0.46882">
        <ele>2155</ele>
        <time>2010-01-01T04:30:27Z</time>
      </trkpt>
      <trkpt lat="42.67812" lon="-0.46867">
        <ele>2159</ele>
        <time>2010-01-01T04:30:33Z</time>
      </trkpt>
      <trkpt lat="42.67821" lon="-0.46856">
        <ele>2161</ele>
        <time>2010-01-01T04:30:37Z</time>
      </trkpt>
      <trkpt lat="42.67821" lon="-0.46863">
        <ele>2160</ele>
        <time>2010-01-01T04:30:40Z</time>
      </trkpt>
      <trkpt lat="42.67818" lon="-0.46878">
        <ele>2157</ele>
        <time>2010-01-01T04:30:44Z</time>
      </trkpt>
      <trkpt lat="42.6782" lon="-0.469">
        <ele>2152</ele>
        <time>2010-01-01T04:30:51Z</time>
      </trkpt>
      <trkpt lat="42.67816" lon="-0.4691">
        <ele>2150</ele>
        <time>2010-01-01T04:30:54Z</time>
      </trkpt>
      <trkpt lat="42.67812" lon="-0.46915">
        <ele>2149</ele>
        <time>2010-01-01T04:30:56Z</time>
      </trkpt>
      <trkpt lat="42.67808" lon="-0.46932">
        <ele>2146</ele>
        <time>2010-01-01T04:31:01Z</time>
      </trkpt>
      <trkpt lat="42.67811" lon="-0.4695">
        <ele>2142</ele>
        <time>2010-01-01T04:31:07Z</time>
      </trkpt>
      <trkpt lat="42.67813" lon="-0.46954">
        <ele>2141</ele>
        <time>2010-01-01T04:31:08Z</time>
      </trkpt>
      <trkpt lat="42.67821" lon="-0.46963">
        <ele>2138</ele>
        <time>2010-01-01T04:31:12Z</time>
      </trkpt>
      <trkpt lat="42.6783" lon="-0.46969">
        <ele>2136</ele>
        <time>2010-01-01T04:31:16Z</time>
      </trkpt>
      <trkpt lat="42.67837" lon="-0.4698">
        <ele>2131</ele>
        <time>2010-01-01T04:31:21Z</time>
      </trkpt>
      <trkpt lat="42.67842" lon="-0.46995">
        <ele>2125</ele>
        <time>2010-01-01T04:31:26Z</time>
      </trkpt>
      <trkpt lat="42.67844" lon="-0.47025">
        <ele>2114</ele>
        <time>2010-01-01T04:31:34Z</time>
      </trkpt>
      <trkpt lat="42.67848" lon="-0.47036">
        <ele>2111</ele>
        <time>2010-01-01T04:31:38Z</time>
      </trkpt>
      <trkpt lat="42.67858" lon="-0.47047">
        <ele>2107</ele>
        <time>2010-01-01T04:31:43Z</time>
      </trkpt>
      <trkpt lat="42.67856" lon="-0.47063">
        <ele>2105</ele>
        <time>2010-01-01T04:31:48Z</time>
      </trkpt>
      <trkpt lat="42.67857" lon="-0.47068">
        <ele>2104</ele>
        <time>2010-01-01T04:31:49Z</time>
      </trkpt>
      <trkpt lat="42.67862" lon="-0.47071">
        <ele>2104</ele>
        <time>2010-01-01T04:31:52Z</time>
      </trkpt>
      <trkpt lat="42.67867" lon="-0.47083">
        <ele>2102</ele>
        <time>2010-01-01T04:31:56Z</time>
      </trkpt>
      <trkpt lat="42.67868" lon="-0.47096">
        <ele>2100</ele>
        <time>2010-01-01T04:32:00Z</time>
      </trkpt>
      <trkpt lat="42.67873" lon="-0.47111">
        <ele>2098</ele>
        <time>2010-01-01T04:32:04Z</time>
      </trkpt>
      <trkpt lat="42.6789" lon="-0.47142">
        <ele>2086</ele>
        <time>2010-01-01T04:32:16Z</time>
      </trkpt>
      <trkpt lat="42.67898" lon="-0.47151">
        <ele>2078</ele>
        <time>2010-01-01T04:32:20Z</time>
      </trkpt>
      <trkpt lat="42.67897" lon="-0.47163">
        <ele>2075</ele>
        <time>2010-01-01T04:32:23Z</time>
      </trkpt>
      <trkpt lat="42.67901" lon="-0.47168">
        <ele>2072</ele>
        <time>2010-01-01T04:32:25Z</time>
      </trkpt>
      <trkpt lat="42.67903" lon="-0.47175">
        <ele>2069</ele>
        <time>2010-01-01T04:32:28Z</time>
      </trkpt>
      <trkpt lat="42.67917" lon="-0.47197">
        <ele>2061</ele>
        <time>2010-01-01T04:32:36Z</time>
      </trkpt>
      <trkpt lat="42.67939" lon="-0.4726">
        <ele>2054</ele>
        <time>2010-01-01T04:32:57Z</time>
      </trkpt>
      <trkpt lat="42.67957" lon="-0.47301">
        <ele>2046</ele>
        <time>2010-01-01T04:33:11Z</time>
      </trkpt>
      <trkpt lat="42.67965" lon="-0.47335">
        <ele>2038</ele>
        <time>2010-01-01T04:33:21Z</time>
      </trkpt>
      <trkpt lat="42.67968" lon="-0.47343">
        <ele>2036</ele>
        <time>2010-01-01T04:33:24Z</time>
      </trkpt>
      <trkpt lat="42.67968" lon="-0.47361">
        <ele>2033</ele>
        <time>2010-01-01T04:33:30Z</time>
      </trkpt>
      <trkpt lat="42.67973" lon="-0.47388">
        <ele>2027</ele>
        <time>2010-01-01T04:33:38Z</time>
      </trkpt>
      <trkpt lat="42.67973" lon="-0.47406">
        <ele>2020</ele>
        <time>2010-01-01T04:33:43Z</time>
      </trkpt>
      <trkpt lat="42.67974" lon="-0.47413">
        <ele>2017</ele>
        <time>2010-01-01T04:33:45Z</time>
      </trkpt>
      <trkpt lat="42.67979" lon="-0.4743">
        <ele>2008</ele>
        <time>2010-01-01T04:33:50Z</time>
      </trkpt>
      <trkpt lat="42.67983" lon="-0.47434">
        <ele>2004</ele>
        <time>2010-01-01T04:33:52Z</time>
      </trkpt>
      <trkpt lat="42.67979" lon="-0.4745">
        <ele>1997</ele>
        <time>2010-01-01T04:33:57Z</time>
      </trkpt>
      <trkpt lat="42.67981" lon="-0.47462">
        <ele>1991</ele>
        <time>2010-01-01T04:34:01Z</time>
      </trkpt>
      <trkpt lat="42.67984" lon="-0.4747">
        <ele>1987</ele>
        <time>2010-01-01T04:34:03Z</time>
      </trkpt>
      <trkpt lat="42.6799" lon="-0.47478">
        <ele>1984</ele>
        <time>2010-01-01T04:34:07Z</time>
      </trkpt>
      <trkpt lat="42.67988" lon="-0.47487">
        <ele>1982</ele>
        <time>2010-01-01T04:34:10Z</time>
      </trkpt>
      <trkpt lat="42.6799" lon="-0.47497">
        <ele>1980</ele>
        <time>2010-01-01T04:34:13Z</time>
      </trkpt>
      <trkpt lat="42.67986" lon="-0.47505">
        <ele>1977</ele>
        <time>2010-01-01T04:34:15Z</time>
      </trkpt>
      <trkpt lat="42.67991" lon="-0.47513">
        <ele>1975</ele>
        <time>2010-01-01T04:34:19Z</time>
      </trkpt>
      <trkpt lat="42.67991" lon="-0.47516">
        <ele>1974</ele>
        <time>2010-01-01T04:34:19Z</time>
      </trkpt>
      <trkpt lat="42.67988" lon="-0.47523">
        <ele>1971</ele>
        <time>2010-01-01T04:34:22Z</time>
      </trkpt>
      <trkpt lat="42.6799" lon="-0.47529">
        <ele>1969</ele>
        <time>2010-01-01T04:34:24Z</time>
      </trkpt>
      <trkpt lat="42.67995" lon="-0.47535">
        <ele>1967</ele>
        <time>2010-01-01T04:34:26Z</time>
      </trkpt>
      <trkpt lat="42.68009" lon="-0.47543">
        <ele>1959</ele>
        <time>2010-01-01T04:34:33Z</time>
      </trkpt>
      <trkpt lat="42.68009" lon="-0.47555">
        <ele>1954</ele>
        <time>2010-01-01T04:34:36Z</time>
      </trkpt>
      <trkpt lat="42.68005" lon="-0.47567">
        <ele>1950</ele>
        <time>2010-01-01T04:34:40Z</time>
      </trkpt>
      <trkpt lat="42.68011" lon="-0.47585">
        <ele>1942</ele>
        <time>2010-01-01T04:34:46Z</time>
      </trkpt>
      <trkpt lat="42.68016" lon="-0.47597">
        <ele>1939</ele>
        <time>2010-01-01T04:34:50Z</time>
      </trkpt>
      <trkpt lat="42.68028" lon="-0.47617">
        <ele>1937</ele>
        <time>2010-01-01T04:34:57Z</time>
      </trkpt>
      <trkpt lat="42.68041" lon="-0.47659">
        <ele>1931</ele>
        <time>2010-01-01T04:35:11Z</time>
      </trkpt>
      <trkpt lat="42.68061" lon="-0.47709">
        <ele>1923</ele>
        <time>2010-01-01T04:35:28Z</time>
      </trkpt>
      <trkpt lat="42.6809" lon="-0.4777">
        <ele>1914</ele>
        <time>2010-01-01T04:35:49Z</time>
      </trkpt>
      <trkpt lat="42.68099" lon="-0.47784">
        <ele>1913</ele>
        <time>2010-01-01T04:35:54Z</time>
      </trkpt>
      <trkpt lat="42.68112" lon="-0.47827">
        <ele>1912</ele>
        <time>2010-01-01T04:36:08Z</time>
      </trkpt>
      <trkpt lat="42.6812" lon="-0.47886">
        <ele>1900</ele>
        <time>2010-01-01T04:36:26Z</time>
      </trkpt>
      <trkpt lat="42.68124" lon="-0.47905">
        <ele>1896</ele>
        <time>2010-01-01T04:36:32Z</time>
      </trkpt>
      <trkpt lat="42.68125" lon="-0.47922">
        <ele>1894</ele>
        <time>2010-01-01T04:36:37Z</time>
      </trkpt>
      <trkpt lat="42.68129" lon="-0.47942">
        <ele>1891</ele>
        <time>2010-01-01T04:36:43Z</time>
      </trkpt>
      <trkpt lat="42.68129" lon="-0.4796">
        <ele>1888</ele>
        <time>2010-01-01T04:36:48Z</time>
      </trkpt>
      <trkpt lat="42.68135" lon="-0.4798">
        <ele>1883</ele>
        <time>2010-01-01T04:36:54Z</time>
      </trkpt>
      <trkpt lat="42.68136" lon="-0.4801">
        <ele>1876</ele>
        <time>2010-01-01T04:37:03Z</time>
      </trkpt>
      <trkpt lat="42.6813" lon="-0.48015">
        <ele>1874</ele>
        <time>2010-01-01T04:37:06Z</time>
      </trkpt>
      <trkpt lat="42.6813" lon="-0.48021">
        <ele>1873</ele>
        <time>2010-01-01T04:37:08Z</time>
      </trkpt>
      <trkpt lat="42.68126" lon="-0.48039">
        <ele>1869</ele>
        <time>2010-01-01T04:37:13Z</time>
      </trkpt>
      <trkpt lat="42.68129" lon="-0.48055">
        <ele>1867</ele>
        <time>2010-01-01T04:37:18Z</time>
      </trkpt>
      <trkpt lat="42.68129" lon="-0.48111">
        <ele>1852</ele>
        <time>2010-01-01T04:37:35Z</time>
      </trkpt>
      <trkpt lat="42.68129" lon="-0.48118">
        <ele>1849</ele>
        <time>2010-01-01T04:37:37Z</time>
      </trkpt>
      <trkpt lat="42.68127" lon="-0.48122">
        <ele>1848</ele>
        <time>2010-01-01T04:37:38Z</time>
      </trkpt>
      <trkpt lat="42.68129" lon="-0.48131">
        <ele>1845</ele>
        <time>2010-01-01T04:37:41Z</time>
      </trkpt>
      <trkpt lat="42.68139" lon="-0.48151">
        <ele>1842</ele>
        <time>2010-01-01T04:37:48Z</time>
      </trkpt>
      <trkpt lat="42.68146" lon="-0.4816">
        <ele>1838</ele>
        <time>2010-01-01T04:37:52Z</time>
      </trkpt>
      <trkpt lat="42.68148" lon="-0.48168">
        <ele>1836</ele>
        <time>2010-01-01T04:37:54Z</time>
      </trkpt>
      <trkpt lat="42.68146" lon="-0.48188">
        <ele>1827</ele>
        <time>2010-01-01T04:38:00Z</time>
      </trkpt>
      <trkpt lat="42.68147" lon="-0.48197">
        <ele>1823</ele>
        <time>2010-01-01T04:38:03Z</time>
      </trkpt>
      <trkpt lat="42.68146" lon="-0.4821">
        <ele>1817</ele>
        <time>2010-01-01T04:38:07Z</time>
      </trkpt>
      <trkpt lat="42.6816" lon="-0.48244">
        <ele>1804</ele>
        <time>2010-01-01T04:38:19Z</time>
      </trkpt>
      <trkpt lat="42.68161" lon="-0.48251">
        <ele>1802</ele>
        <time>2010-01-01T04:38:21Z</time>
      </trkpt>
      <trkpt lat="42.68164" lon="-0.48261">
        <ele>1800</ele>
        <time>2010-01-01T04:38:24Z</time>
      </trkpt>
      <trkpt lat="42.68167" lon="-0.48259">
        <ele>1801</ele>
        <time>2010-01-01T04:38:25Z</time>
      </trkpt>
      <trkpt lat="42.6817" lon="-0.48261">
        <ele>1800</ele>
        <time>2010-01-01T04:38:26Z</time>
      </trkpt>
      <trkpt lat="42.68173" lon="-0.48259">
        <ele>1799</ele>
        <time>2010-01-01T04:38:28Z</time>
      </trkpt>
      <trkpt lat="42.68179" lon="-0.48249">
        <ele>1799</ele>
        <time>2010-01-01T04:38:32Z</time>
      </trkpt>
      <trkpt lat="42.68187" lon="-0.48243">
        <ele>1798</ele>
        <time>2010-01-01T04:38:35Z</time>
      </trkpt>
      <trkpt lat="42.68193" lon="-0.4824">
        <ele>1798</ele>
        <time>2010-01-01T04:38:38Z</time>
      </trkpt>
      <trkpt lat="42.68195" lon="-0.48237">
        <ele>1799</ele>
        <time>2010-01-01T04:38:39Z</time>
      </trkpt>
      <trkpt lat="42.68198" lon="-0.48234">
        <ele>1798</ele>
        <time>2010-01-01T04:38:41Z</time>
      </trkpt>
      <trkpt lat="42.68232" lon="-0.4822">
        <ele>1785</ele>
        <time>2010-01-01T04:38:55Z</time>
      </trkpt>
      <trkpt lat="42.6824" lon="-0.48221">
        <ele>1781</ele>
        <time>2010-01-01T04:38:58Z</time>
      </trkpt>
      <trkpt lat="42.68251" lon="-0.48219">
        <ele>1776</ele>
        <time>2010-01-01T04:39:03Z</time>
      </trkpt>
      <trkpt lat="42.68265" lon="-0.48215">
        <ele>1772</ele>
        <time>2010-01-01T04:39:08Z</time>
      </trkpt>
      <trkpt lat="42.68271" lon="-0.48212">
        <ele>1771</ele>
        <time>2010-01-01T04:39:11Z</time>
      </trkpt>
      <trkpt lat="42.68277" lon="-0.48201">
        <ele>1773</ele>
        <time>2010-01-01T04:39:15Z</time>
      </trkpt>
      <trkpt lat="42.68287" lon="-0.48191">
        <ele>1771</ele>
        <time>2010-01-01T04:39:20Z</time>
      </trkpt>
      <trkpt lat="42.68294" lon="-0.4818">
        <ele>1769</ele>
        <time>2010-01-01T04:39:24Z</time>
      </trkpt>
      <trkpt lat="42.68299" lon="-0.48168">
        <ele>1769</ele>
        <time>2010-01-01T04:39:28Z</time>
      </trkpt>
      <trkpt lat="42.68307" lon="-0.48124">
        <ele>1766</ele>
        <time>2010-01-01T04:39:42Z</time>
      </trkpt>
      <trkpt lat="42.68329" lon="-0.48078">
        <ele>1758</ele>
        <time>2010-01-01T04:39:58Z</time>
      </trkpt>
      <trkpt lat="42.68334" lon="-0.4806">
        <ele>1755</ele>
        <time>2010-01-01T04:40:03Z</time>
      </trkpt>
      <trkpt lat="42.68341" lon="-0.48055">
        <ele>1753</ele>
        <time>2010-01-01T04:40:07Z</time>
      </trkpt>
      <trkpt lat="42.68345" lon="-0.48051">
        <ele>1752</ele>
        <time>2010-01-01T04:40:09Z</time>
      </trkpt>
      <trkpt lat="42.68353" lon="-0.48037">
        <ele>1750</ele>
        <time>2010-01-01T04:40:14Z</time>
      </trkpt>
      <trkpt lat="42.6836" lon="-0.48026">
        <ele>1748</ele>
        <time>2010-01-01T04:40:18Z</time>
      </trkpt>
      <trkpt lat="42.6837" lon="-0.47998">
        <ele>1747</ele>
        <time>2010-01-01T04:40:27Z</time>
      </trkpt>
      <trkpt lat="42.68376" lon="-0.47992">
        <ele>1745</ele>
        <time>2010-01-01T04:40:30Z</time>
      </trkpt>
      <trkpt lat="42.68383" lon="-0.47978">
        <ele>1742</ele>
        <time>2010-01-01T04:40:35Z</time>
      </trkpt>
      <trkpt lat="42.68389" lon="-0.47952">
        <ele>1740</ele>
        <time>2010-01-01T04:40:43Z</time>
      </trkpt>
      <trkpt lat="42.6839" lon="-0.4794">
        <ele>1739</ele>
        <time>2010-01-01T04:40:47Z</time>
      </trkpt>
      <trkpt lat="42.68393" lon="-0.47931">
        <ele>1736</ele>
        <time>2010-01-01T04:40:50Z</time>
      </trkpt>
      <trkpt lat="42.68392" lon="-0.47924">
        <ele>1736</ele>
        <time>2010-01-01T04:40:52Z</time>
      </trkpt>
      <trkpt lat="42.68396" lon="-0.4791">
        <ele>1733</ele>
        <time>2010-01-01T04:40:56Z</time>
      </trkpt>
      <trkpt lat="42.68396" lon="-0.47899">
        <ele>1733</ele>
        <time>2010-01-01T04:41:00Z</time>
      </trkpt>
      <trkpt lat="42.684" lon="-0.47889">
        <ele>1730</ele>
        <time>2010-01-01T04:41:03Z</time>
      </trkpt>
      <trkpt lat="42.68399" lon="-0.47878">
        <ele>1730</ele>
        <time>2010-01-01T04:41:06Z</time>
      </trkpt>
      <trkpt lat="42.68394" lon="-0.47863">
        <ele>1732</ele>
        <time>2010-01-01T04:41:11Z</time>
      </trkpt>
      <trkpt lat="42.68397" lon="-0.47836">
        <ele>1727</ele>
        <time>2010-01-01T04:41:19Z</time>
      </trkpt>
      <trkpt lat="42.68401" lon="-0.47824">
        <ele>1724</ele>
        <time>2010-01-01T04:41:23Z</time>
      </trkpt>
      <trkpt lat="42.68409" lon="-0.47803">
        <ele>1718</ele>
        <time>2010-01-01T04:41:30Z</time>
      </trkpt>
      <trkpt lat="42.68413" lon="-0.4779">
        <ele>1715</ele>
        <time>2010-01-01T04:41:34Z</time>
      </trkpt>
      <trkpt lat="42.6842" lon="-0.47777">
        <ele>1710</ele>
        <time>2010-01-01T04:41:39Z</time>
      </trkpt>
      <trkpt lat="42.68421" lon="-0.47736">
        <ele>1710</ele>
        <time>2010-01-01T04:41:51Z</time>
      </trkpt>
      <trkpt lat="42.68426" lon="-0.47714">
        <ele>1708</ele>
        <time>2010-01-01T04:41:57Z</time>
      </trkpt>
      <trkpt lat="42.68432" lon="-0.47708">
        <ele>1705</ele>
        <time>2010-01-01T04:42:01Z</time>
      </trkpt>
      <trkpt lat="42.68436" lon="-0.47694">
        <ele>1704</ele>
        <time>2010-01-01T04:42:05Z</time>
      </trkpt>
      <trkpt lat="42.68437" lon="-0.47681">
        <ele>1704</ele>
        <time>2010-01-01T04:42:09Z</time>
      </trkpt>
      <trkpt lat="42.68443" lon="-0.47667">
        <ele>1701</ele>
        <time>2010-01-01T04:42:14Z</time>
      </trkpt>
      <trkpt lat="42.68448" lon="-0.47661">
        <ele>1700</ele>
        <time>2010-01-01T04:42:16Z</time>
      </trkpt>
      <trkpt lat="42.68445" lon="-0.47646">
        <ele>1703</ele>
        <time>2010-01-01T04:42:21Z</time>
      </trkpt>
      <trkpt lat="42.68433" lon="-0.4763">
        <ele>1708</ele>
        <time>2010-01-01T04:42:28Z</time>
      </trkpt>
      <trkpt lat="42.68431" lon="-0.47623">
        <ele>1709</ele>
        <time>2010-01-01T04:42:30Z</time>
      </trkpt>
      <trkpt lat="42.68435" lon="-0.47612">
        <ele>1708</ele>
        <time>2010-01-01T04:42:33Z</time>
      </trkpt>
      <trkpt lat="42.68438" lon="-0.47605">
        <ele>1705</ele>
        <time>2010-01-01T04:42:36Z</time>
      </trkpt>
      <trkpt lat="42.68444" lon="-0.47573">
        <ele>1700</ele>
        <time>2010-01-01T04:42:45Z</time>
      </trkpt>
      <trkpt lat="42.68448" lon="-0.47563">
        <ele>1700</ele>
        <time>2010-01-01T04:42:49Z</time>
      </trkpt>
      <trkpt lat="42.6845" lon="-0.47539">
        <ele>1703</ele>
        <time>2010-01-01T04:42:56Z</time>
      </trkpt>
      <trkpt lat="42.68455" lon="-0.47533">
        <ele>1703</ele>
        <time>2010-01-01T04:42:58Z</time>
      </trkpt>
      <trkpt lat="42.68462" lon="-0.47531">
        <ele>1701</ele>
        <time>2010-01-01T04:43:02Z</time>
      </trkpt>
      <trkpt lat="42.68468" lon="-0.47533">
        <ele>1700</ele>
        <time>2010-01-01T04:43:04Z</time>
      </trkpt>
      <trkpt lat="42.6847" lon="-0.47538">
        <ele>1698</ele>
        <time>2010-01-01T04:43:06Z</time>
      </trkpt>
      <trkpt lat="42.68468" lon="-0.47553">
        <ele>1696</ele>
        <time>2010-01-01T04:43:10Z</time>
      </trkpt>
      <trkpt lat="42.68475" lon="-0.47568">
        <ele>1693</ele>
        <time>2010-01-01T04:43:15Z</time>
      </trkpt>
      <trkpt lat="42.68478" lon="-0.47571">
        <ele>1692</ele>
        <time>2010-01-01T04:43:17Z</time>
      </trkpt>
      <trkpt lat="42.68489" lon="-0.47571">
        <ele>1690</ele>
        <time>2010-01-01T04:43:21Z</time>
      </trkpt>
      <trkpt lat="42.68509" lon="-0.47548">
        <ele>1689</ele>
        <time>2010-01-01T04:43:32Z</time>
      </trkpt>
      <trkpt lat="42.68517" lon="-0.47542">
        <ele>1688</ele>
        <time>2010-01-01T04:43:35Z</time>
      </trkpt>
      <trkpt lat="42.68534" lon="-0.47508">
        <ele>1691</ele>
        <time>2010-01-01T04:43:48Z</time>
      </trkpt>
      <trkpt lat="42.68547" lon="-0.47497">
        <ele>1687</ele>
        <time>2010-01-01T04:43:54Z</time>
      </trkpt>
      <trkpt lat="42.68547" lon="-0.47493">
        <ele>1688</ele>
        <time>2010-01-01T04:43:55Z</time>
      </trkpt>
      <trkpt lat="42.68553" lon="-0.47488">
        <ele>1686</ele>
        <time>2010-01-01T04:43:57Z</time>
      </trkpt>
      <trkpt lat="42.68576" lon="-0.47473">
        <ele>1679</ele>
        <time>2010-01-01T04:44:08Z</time>
      </trkpt>
      <trkpt lat="42.68592" lon="-0.47467">
        <ele>1678</ele>
        <time>2010-01-01T04:44:14Z</time>
      </trkpt>
      <trkpt lat="42.68614" lon="-0.47463">
        <ele>1678</ele>
        <time>2010-01-01T04:44:23Z</time>
      </trkpt>
      <trkpt lat="42.68632" lon="-0.4745">
        <ele>1683</ele>
        <time>2010-01-01T04:44:31Z</time>
      </trkpt>
      <trkpt lat="42.68643" lon="-0.47447">
        <ele>1684</ele>
        <time>2010-01-01T04:44:36Z</time>
      </trkpt>
      <trkpt lat="42.68652" lon="-0.47445">
        <ele>1683</ele>
        <time>2010-01-01T04:44:39Z</time>
      </trkpt>
      <trkpt lat="42.68663" lon="-0.47447">
        <ele>1681</ele>
        <time>2010-01-01T04:44:44Z</time>
      </trkpt>
      <trkpt lat="42.68671" lon="-0.47445">
        <ele>1681</ele>
        <time>2010-01-01T04:44:47Z</time>
      </trkpt>
      <trkpt lat="42.68677" lon="-0.4744">
        <ele>1681</ele>
        <time>2010-01-01T04:44:50Z</time>
      </trkpt>
      <trkpt lat="42.68683" lon="-0.47434">
        <ele>1683</ele>
        <time>2010-01-01T04:44:53Z</time>
      </trkpt>
      <trkpt lat="42.68705" lon="-0.47424">
        <ele>1683</ele>
        <time>2010-01-01T04:45:02Z</time>
      </trkpt>
      <trkpt lat="42.68711" lon="-0.47419">
        <ele>1685</ele>
        <time>2010-01-01T04:45:05Z</time>
      </trkpt>
      <trkpt lat="42.68718" lon="-0.47417">
        <ele>1685</ele>
        <time>2010-01-01T04:45:08Z</time>
      </trkpt>
      <trkpt lat="42.68732" lon="-0.47407">
        <ele>1688</ele>
        <time>2010-01-01T04:45:14Z</time>
      </trkpt>
      <trkpt lat="42.68743" lon="-0.47401">
        <ele>1689</ele>
        <time>2010-01-01T04:45:19Z</time>
      </trkpt>
      <trkpt lat="42.68763" lon="-0.47394">
        <ele>1691</ele>
        <time>2010-01-01T04:45:27Z</time>
      </trkpt>
      <trkpt lat="42.68782" lon="-0.47389">
        <ele>1692</ele>
        <time>2010-01-01T04:45:35Z</time>
      </trkpt>
      <trkpt lat="42.68793" lon="-0.47386">
        <ele>1690</ele>
        <time>2010-01-01T04:45:39Z</time>
      </trkpt>
      <trkpt lat="42.68805" lon="-0.47388">
        <ele>1688</ele>
        <time>2010-01-01T04:45:44Z</time>
      </trkpt>
      <trkpt lat="42.68816" lon="-0.4738">
        <ele>1689</ele>
        <time>2010-01-01T04:45:49Z</time>
      </trkpt>
      <trkpt lat="42.6884" lon="-0.47373">
        <ele>1690</ele>
        <time>2010-01-01T04:45:59Z</time>
      </trkpt>
      <trkpt lat="42.68845" lon="-0.47367">
        <ele>1692</ele>
        <time>2010-01-01T04:46:01Z</time>
      </trkpt>
      <trkpt lat="42.68846" lon="-0.47363">
        <ele>1692</ele>
        <time>2010-01-01T04:46:03Z</time>
      </trkpt>
      <trkpt lat="42.68849" lon="-0.47361">
        <ele>1693</ele>
        <time>2010-01-01T04:46:04Z</time>
      </trkpt>
      <trkpt lat="42.68852" lon="-0.47361">
        <ele>1693</ele>
        <time>2010-01-01T04:46:05Z</time>
      </trkpt>
      <trkpt lat="42.68856" lon="-0.47367">
        <ele>1693</ele>
        <time>2010-01-01T04:46:08Z</time>
      </trkpt>
      <trkpt lat="42.68867" lon="-0.47388">
        <ele>1694</ele>
        <time>2010-01-01T04:46:15Z</time>
      </trkpt>
      <trkpt lat="42.6887" lon="-0.47403">
        <ele>1694</ele>
        <time>2010-01-01T04:46:20Z</time>
      </trkpt>
      <trkpt lat="42.68869" lon="-0.47416">
        <ele>1693</ele>
        <time>2010-01-01T04:46:24Z</time>
      </trkpt>
      <trkpt lat="42.68865" lon="-0.47424">
        <ele>1692</ele>
        <time>2010-01-01T04:46:27Z</time>
      </trkpt>
      <trkpt lat="42.68857" lon="-0.47438">
        <ele>1689</ele>
        <time>2010-01-01T04:46:32Z</time>
      </trkpt>
      <trkpt lat="42.68857" lon="-0.47441">
        <ele>1689</ele>
        <time>2010-01-01T04:46:33Z</time>
      </trkpt>
      <trkpt lat="42.6886" lon="-0.47441">
        <ele>1689</ele>
        <time>2010-01-01T04:46:34Z</time>
      </trkpt>
      <trkpt lat="42.68867" lon="-0.47437">
        <ele>1692</ele>
        <time>2010-01-01T04:46:37Z</time>
      </trkpt>
      <trkpt lat="42.68869" lon="-0.47439">
        <ele>1692</ele>
        <time>2010-01-01T04:46:38Z</time>
      </trkpt>
      <trkpt lat="42.68861" lon="-0.47438">
        <ele>1690</ele>
        <time>2010-01-01T04:46:42Z</time>
      </trkpt>
      <trkpt lat="42.68861" lon="-0.47433">
        <ele>1690</ele>
        <time>2010-01-01T04:46:43Z</time>
      </trkpt>
      <trkpt lat="42.68868" lon="-0.47415">
        <ele>1693</ele>
        <time>2010-01-01T04:46:49Z</time>
      </trkpt>
      <trkpt lat="42.6887" lon="-0.47397">
        <ele>1694</ele>
        <time>2010-01-01T04:46:54Z</time>
      </trkpt>
      <trkpt lat="42.68866" lon="-0.47371">
        <ele>1695</ele>
        <time>2010-01-01T04:47:02Z</time>
      </trkpt>
      <trkpt lat="42.68861" lon="-0.47356">
        <ele>1695</ele>
        <time>2010-01-01T04:47:07Z</time>
      </trkpt>
      <trkpt lat="42.68854" lon="-0.47347">
        <ele>1695</ele>
        <time>2010-01-01T04:47:11Z</time>
      </trkpt>
      <trkpt lat="42.68849" lon="-0.47332">
        <ele>1696</ele>
        <time>2010-01-01T04:47:16Z</time>
      </trkpt>
      <trkpt lat="42.6885" lon="-0.47328">
        <ele>1697</ele>
        <time>2010-01-01T04:47:17Z</time>
      </trkpt>
      <trkpt lat="42.68852" lon="-0.47305">
        <ele>1702</ele>
        <time>2010-01-01T04:47:24Z</time>
      </trkpt>
      <trkpt lat="42.68849" lon="-0.4728">
        <ele>1704</ele>
        <time>2010-01-01T04:47:31Z</time>
      </trkpt>
      <trkpt lat="42.68853" lon="-0.4724">
        <ele>1710</ele>
        <time>2010-01-01T04:47:43Z</time>
      </trkpt>
      <trkpt lat="42.68852" lon="-0.47229">
        <ele>1712</ele>
        <time>2010-01-01T04:47:47Z</time>
      </trkpt>
      <trkpt lat="42.6885" lon="-0.4722">
        <ele>1713</ele>
        <time>2010-01-01T04:47:49Z</time>
      </trkpt>
      <trkpt lat="42.68851" lon="-0.47209">
        <ele>1715</ele>
        <time>2010-01-01T04:47:52Z</time>
      </trkpt>
      <trkpt lat="42.68845" lon="-0.47191">
        <ele>1719</ele>
        <time>2010-01-01T04:47:58Z</time>
      </trkpt>
      <trkpt lat="42.6884" lon="-0.47155">
        <ele>1723</ele>
        <time>2010-01-01T04:48:09Z</time>
      </trkpt>
      <trkpt lat="42.68841" lon="-0.47123">
        <ele>1729</ele>
        <time>2010-01-01T04:48:19Z</time>
      </trkpt>
      <trkpt lat="42.6884" lon="-0.47107">
        <ele>1730</ele>
        <time>2010-01-01T04:48:23Z</time>
      </trkpt>
      <trkpt lat="42.6884" lon="-0.4708">
        <ele>1734</ele>
        <time>2010-01-01T04:48:31Z</time>
      </trkpt>
      <trkpt lat="42.68839" lon="-0.47053">
        <ele>1736</ele>
        <time>2010-01-01T04:48:39Z</time>
      </trkpt>
      <trkpt lat="42.68834" lon="-0.47031">
        <ele>1739</ele>
        <time>2010-01-01T04:48:46Z</time>
      </trkpt>
      <trkpt lat="42.68835" lon="-0.46992">
        <ele>1742</ele>
        <time>2010-01-01T04:48:57Z</time>
      </trkpt>
      <trkpt lat="42.68832" lon="-0.46974">
        <ele>1745</ele>
        <time>2010-01-01T04:49:03Z</time>
      </trkpt>
      <trkpt lat="42.68826" lon="-0.46958">
        <ele>1750</ele>
        <time>2010-01-01T04:49:08Z</time>
      </trkpt>
      <trkpt lat="42.68826" lon="-0.46947">
        <ele>1752</ele>
        <time>2010-01-01T04:49:11Z</time>
      </trkpt>
      <trkpt lat="42.6882" lon="-0.46928">
        <ele>1756</ele>
        <time>2010-01-01T04:49:17Z</time>
      </trkpt>
      <trkpt lat="42.68812" lon="-0.46913">
        <ele>1757</ele>
        <time>2010-01-01T04:49:23Z</time>
      </trkpt>
      <trkpt lat="42.68811" lon="-0.46904">
        <ele>1758</ele>
        <time>2010-01-01T04:49:25Z</time>
      </trkpt>
      <trkpt lat="42.68807" lon="-0.46896">
        <ele>1758</ele>
        <time>2010-01-01T04:49:28Z</time>
      </trkpt>
      <trkpt lat="42.68802" lon="-0.46892">
        <ele>1759</ele>
        <time>2010-01-01T04:49:31Z</time>
      </trkpt>
      <trkpt lat="42.68778" lon="-0.46848">
        <ele>1767</ele>
        <time>2010-01-01T04:49:47Z</time>
      </trkpt>
      <trkpt lat="42.68774" lon="-0.46832">
        <ele>1767</ele>
        <time>2010-01-01T04:49:52Z</time>
      </trkpt>
      <trkpt lat="42.68772" lon="-0.46809">
        <ele>1768</ele>
        <time>2010-01-01T04:49:58Z</time>
      </trkpt>
      <trkpt lat="42.68767" lon="-0.46797">
        <ele>1770</ele>
        <time>2010-01-01T04:50:03Z</time>
      </trkpt>
      <trkpt lat="42.6877" lon="-0.46772">
        <ele>1773</ele>
        <time>2010-01-01T04:50:10Z</time>
      </trkpt>
      <trkpt lat="42.68777" lon="-0.46754">
        <ele>1775</ele>
        <time>2010-01-01T04:50:16Z</time>
      </trkpt>
      <trkpt lat="42.6878" lon="-0.46731">
        <ele>1778</ele>
        <time>2010-01-01T04:50:23Z</time>
      </trkpt>
      <trkpt lat="42.68778" lon="-0.46709">
        <ele>1781</ele>
        <time>2010-01-01T04:50:29Z</time>
      </trkpt>
      <trkpt lat="42.6878" lon="-0.46704">
        <ele>1783</ele>
        <time>2010-01-01T04:50:31Z</time>
      </trkpt>
      <trkpt lat="42.6878" lon="-0.46687">
        <ele>1786</ele>
        <time>2010-01-01T04:50:36Z</time>
      </trkpt>
      <trkpt lat="42.6878" lon="-0.46634">
        <ele>1799</ele>
        <time>2010-01-01T04:50:51Z</time>
      </trkpt>
      <trkpt lat="42.68783" lon="-0.46612">
        <ele>1805</ele>
        <time>2010-01-01T04:50:58Z</time>
      </trkpt>
      <trkpt lat="42.68781" lon="-0.46603">
        <ele>1807</ele>
        <time>2010-01-01T04:51:01Z</time>
      </trkpt>
      <trkpt lat="42.68787" lon="-0.46585">
        <ele>1813</ele>
        <time>2010-01-01T04:51:06Z</time>
      </trkpt>
      <trkpt lat="42.68794" lon="-0.46578">
        <ele>1816</ele>
        <time>2010-01-01T04:51:10Z</time>
      </trkpt>
      <trkpt lat="42.68794" lon="-0.46565">
        <ele>1819</ele>
        <time>2010-01-01T04:51:14Z</time>
      </trkpt>
      <trkpt lat="42.68797" lon="-0.46559">
        <ele>1821</ele>
        <time>2010-01-01T04:51:16Z</time>
      </trkpt>
      <trkpt lat="42.68795" lon="-0.46554">
        <ele>1822</ele>
        <time>2010-01-01T04:51:17Z</time>
      </trkpt>
      <trkpt lat="42.68799" lon="-0.46541">
        <ele>1826</ele>
        <time>2010-01-01T04:51:22Z</time>
      </trkpt>
      <trkpt lat="42.68798" lon="-0.46534">
        <ele>1827</ele>
        <time>2010-01-01T04:51:23Z</time>
      </trkpt>
      <trkpt lat="42.688" lon="-0.46528">
        <ele>1830</ele>
        <time>2010-01-01T04:51:26Z</time>
      </trkpt>
      <trkpt lat="42.68795" lon="-0.46516">
        <ele>1831</ele>
        <time>2010-01-01T04:51:29Z</time>
      </trkpt>
      <trkpt lat="42.68798" lon="-0.46511">
        <ele>1833</ele>
        <time>2010-01-01T04:51:31Z</time>
      </trkpt>
      <trkpt lat="42.68797" lon="-0.46502">
        <ele>1835</ele>
        <time>2010-01-01T04:51:34Z</time>
      </trkpt>
      <trkpt lat="42.68799" lon="-0.46501">
        <ele>1836</ele>
        <time>2010-01-01T04:51:35Z</time>
      </trkpt>
      <trkpt lat="42.68801" lon="-0.46499">
        <ele>1837</ele>
        <time>2010-01-01T04:51:36Z</time>
      </trkpt>
      <trkpt lat="42.68799" lon="-0.46489">
        <ele>1839</ele>
        <time>2010-01-01T04:51:39Z</time>
      </trkpt>
      <trkpt lat="42.68803" lon="-0.46476">
        <ele>1844</ele>
        <time>2010-01-01T04:51:43Z</time>
      </trkpt>
      <trkpt lat="42.68802" lon="-0.46471">
        <ele>1846</ele>
        <time>2010-01-01T04:51:45Z</time>
      </trkpt>
      <trkpt lat="42.68799" lon="-0.46468">
        <ele>1846</ele>
        <time>2010-01-01T04:51:46Z</time>
      </trkpt>
      <trkpt lat="42.68797" lon="-0.46461">
        <ele>1849</ele>
        <time>2010-01-01T04:51:48Z</time>
      </trkpt>
      <trkpt lat="42.68792" lon="-0.46452">
        <ele>1851</ele>
        <time>2010-01-01T04:51:52Z</time>
      </trkpt>
      <trkpt lat="42.68793" lon="-0.46449">
        <ele>1853</ele>
        <time>2010-01-01T04:51:53Z</time>
      </trkpt>
      <trkpt lat="42.68796" lon="-0.46446">
        <ele>1856</ele>
        <time>2010-01-01T04:51:54Z</time>
      </trkpt>
      <trkpt lat="42.68797" lon="-0.46442">
        <ele>1858</ele>
        <time>2010-01-01T04:51:56Z</time>
      </trkpt>
      <trkpt lat="42.688" lon="-0.46435">
        <ele>1863</ele>
        <time>2010-01-01T04:51:58Z</time>
      </trkpt>
      <trkpt lat="42.68801" lon="-0.46422">
        <ele>1869</ele>
        <time>2010-01-01T04:52:02Z</time>
      </trkpt>
      <trkpt lat="42.68796" lon="-0.46408">
        <ele>1872</ele>
        <time>2010-01-01T04:52:06Z</time>
      </trkpt>
      <trkpt lat="42.68791" lon="-0.46399">
        <ele>1872</ele>
        <time>2010-01-01T04:52:10Z</time>
      </trkpt>
      <trkpt lat="42.68797" lon="-0.46369">
        <ele>1885</ele>
        <time>2010-01-01T04:52:19Z</time>
      </trkpt>
      <trkpt lat="42.68792" lon="-0.46355">
        <ele>1889</ele>
        <time>2010-01-01T04:52:24Z</time>
      </trkpt>
      <trkpt lat="42.68793" lon="-0.46339">
        <ele>1895</ele>
        <time>2010-01-01T04:52:28Z</time>
      </trkpt>
      <trkpt lat="42.68796" lon="-0.46322">
        <ele>1899</ele>
        <time>2010-01-01T04:52:33Z</time>
      </trkpt>
      <trkpt lat="42.68797" lon="-0.46308">
        <ele>1902</ele>
        <time>2010-01-01T04:52:37Z</time>
      </trkpt>
      <trkpt lat="42.688" lon="-0.46303">
        <ele>1904</ele>
        <time>2010-01-01T04:52:40Z</time>
      </trkpt>
      <trkpt lat="42.688" lon="-0.463">
        <ele>1904</ele>
        <time>2010-01-01T04:52:41Z</time>
      </trkpt>
      <trkpt lat="42.68802" lon="-0.46296">
        <ele>1906</ele>
        <time>2010-01-01T04:52:42Z</time>
      </trkpt>
      <trkpt lat="42.68802" lon="-0.46293">
        <ele>1906</ele>
        <time>2010-01-01T04:52:43Z</time>
      </trkpt>
      <trkpt lat="42.68798" lon="-0.46288">
        <ele>1907</ele>
        <time>2010-01-01T04:52:45Z</time>
      </trkpt>
      <trkpt lat="42.68795" lon="-0.46275">
        <ele>1908</ele>
        <time>2010-01-01T04:52:49Z</time>
      </trkpt>
      <trkpt lat="42.68794" lon="-0.46275">
        <ele>1907</ele>
        <time>2010-01-01T04:52:50Z</time>
      </trkpt>
      <trkpt lat="42.68793" lon="-0.46263">
        <ele>1908</ele>
        <time>2010-01-01T04:52:53Z</time>
      </trkpt>
      <trkpt lat="42.68791" lon="-0.46259">
        <ele>1908</ele>
        <time>2010-01-01T04:52:55Z</time>
      </trkpt>
      <trkpt lat="42.68787" lon="-0.46243">
        <ele>1909</ele>
        <time>2010-01-01T04:53:00Z</time>
      </trkpt>
      <trkpt lat="42.68784" lon="-0.46237">
        <ele>1909</ele>
        <time>2010-01-01T04:53:02Z</time>
      </trkpt>
      <trkpt lat="42.68785" lon="-0.46227">
        <ele>1911</ele>
        <time>2010-01-01T04:53:05Z</time>
      </trkpt>
      <trkpt lat="42.68784" lon="-0.46222">
        <ele>1912</ele>
        <time>2010-01-01T04:53:06Z</time>
      </trkpt>
      <trkpt lat="42.68785" lon="-0.46215">
        <ele>1915</ele>
        <time>2010-01-01T04:53:09Z</time>
      </trkpt>
      <trkpt lat="42.68789" lon="-0.46211">
        <ele>1917</ele>
        <time>2010-01-01T04:53:10Z</time>
      </trkpt>
      <trkpt lat="42.6879" lon="-0.46186">
        <ele>1924</ele>
        <time>2010-01-01T04:53:18Z</time>
      </trkpt>
      <trkpt lat="42.68792" lon="-0.4618">
        <ele>1927</ele>
        <time>2010-01-01T04:53:20Z</time>
      </trkpt>
      <trkpt lat="42.68791" lon="-0.46158">
        <ele>1932</ele>
        <time>2010-01-01T04:53:26Z</time>
      </trkpt>
      <trkpt lat="42.68786" lon="-0.46147">
        <ele>1933</ele>
        <time>2010-01-01T04:53:30Z</time>
      </trkpt>
      <trkpt lat="42.68786" lon="-0.46139">
        <ele>1935</ele>
        <time>2010-01-01T04:53:32Z</time>
      </trkpt>
      <trkpt lat="42.68782" lon="-0.46131">
        <ele>1936</ele>
        <time>2010-01-01T04:53:35Z</time>
      </trkpt>
      <trkpt lat="42.68777" lon="-0.46108">
        <ele>1943</ele>
        <time>2010-01-01T04:53:42Z</time>
      </trkpt>
      <trkpt lat="42.68779" lon="-0.46092">
        <ele>1947</ele>
        <time>2010-01-01T04:53:47Z</time>
      </trkpt>
      <trkpt lat="42.68776" lon="-0.46068">
        <ele>1950</ele>
        <time>2010-01-01T04:53:54Z</time>
      </trkpt>
      <trkpt lat="42.68778" lon="-0.4606">
        <ele>1951</ele>
        <time>2010-01-01T04:53:57Z</time>
      </trkpt>
      <trkpt lat="42.68774" lon="-0.46038">
        <ele>1954</ele>
        <time>2010-01-01T04:54:03Z</time>
      </trkpt>
      <trkpt lat="42.68775" lon="-0.46031">
        <ele>1955</ele>
        <time>2010-01-01T04:54:05Z</time>
      </trkpt>
      <trkpt lat="42.68773" lon="-0.46017">
        <ele>1958</ele>
        <time>2010-01-01T04:54:09Z</time>
      </trkpt>
      <trkpt lat="42.68774" lon="-0.46004">
        <ele>1962</ele>
        <time>2010-01-01T04:54:13Z</time>
      </trkpt>
      <trkpt lat="42.68776" lon="-0.45986">
        <ele>1969</ele>
        <time>2010-01-01T04:54:19Z</time>
      </trkpt>
      <trkpt lat="42.68781" lon="-0.45969">
        <ele>1977</ele>
        <time>2010-01-01T04:54:24Z</time>
      </trkpt>
      <trkpt lat="42.68781" lon="-0.45962">
        <ele>1979</ele>
        <time>2010-01-01T04:54:26Z</time>
      </trkpt>
      <trkpt lat="42.68776" lon="-0.45934">
        <ele>1986</ele>
        <time>2010-01-01T04:54:35Z</time>
      </trkpt>
      <trkpt lat="42.68771" lon="-0.45925">
        <ele>1988</ele>
        <time>2010-01-01T04:54:38Z</time>
      </trkpt>
      <trkpt lat="42.6877" lon="-0.45917">
        <ele>1990</ele>
        <time>2010-01-01T04:54:40Z</time>
      </trkpt>
      <trkpt lat="42.68763" lon="-0.45909">
        <ele>1993</ele>
        <time>2010-01-01T04:54:44Z</time>
      </trkpt>
      <trkpt lat="42.68761" lon="-0.45907">
        <ele>1993</ele>
        <time>2010-01-01T04:54:45Z</time>
      </trkpt>
      <trkpt lat="42.68756" lon="-0.45899">
        <ele>1995</ele>
        <time>2010-01-01T04:54:48Z</time>
      </trkpt>
      <trkpt lat="42.68756" lon="-0.45894">
        <ele>1997</ele>
        <time>2010-01-01T04:54:50Z</time>
      </trkpt>
      <trkpt lat="42.68768" lon="-0.45883">
        <ele>1999</ele>
        <time>2010-01-01T04:54:56Z</time>
      </trkpt>
      <trkpt lat="42.68775" lon="-0.45881">
        <ele>1999</ele>
        <time>2010-01-01T04:54:59Z</time>
      </trkpt>
      <trkpt lat="42.6878" lon="-0.45878">
        <ele>2000</ele>
        <time>2010-01-01T04:55:01Z</time>
      </trkpt>
      <trkpt lat="42.68784" lon="-0.45872">
        <ele>2002</ele>
        <time>2010-01-01T04:55:03Z</time>
      </trkpt>
      <trkpt lat="42.68784" lon="-0.45865">
        <ele>2003</ele>
        <time>2010-01-01T04:55:05Z</time>
      </trkpt>
      <trkpt lat="42.68787" lon="-0.45855">
        <ele>2006</ele>
        <time>2010-01-01T04:55:08Z</time>
      </trkpt>
      <trkpt lat="42.68794" lon="-0.45849">
        <ele>2008</ele>
        <time>2010-01-01T04:55:12Z</time>
      </trkpt>
      <trkpt lat="42.68801" lon="-0.45838">
        <ele>2012</ele>
        <time>2010-01-01T04:55:16Z</time>
      </trkpt>
      <trkpt lat="42.68803" lon="-0.45837">
        <ele>2013</ele>
        <time>2010-01-01T04:55:17Z</time>
      </trkpt>
      <trkpt lat="42.68814" lon="-0.45838">
        <ele>2016</ele>
        <time>2010-01-01T04:55:21Z</time>
      </trkpt>
      <trkpt lat="42.68821" lon="-0.45842">
        <ele>2016</ele>
        <time>2010-01-01T04:55:24Z</time>
      </trkpt>
      <trkpt lat="42.68827" lon="-0.45842">
        <ele>2018</ele>
        <time>2010-01-01T04:55:27Z</time>
      </trkpt>
      <trkpt lat="42.68831" lon="-0.4584">
        <ele>2019</ele>
        <time>2010-01-01T04:55:28Z</time>
      </trkpt>
      <trkpt lat="42.68836" lon="-0.4584">
        <ele>2021</ele>
        <time>2010-01-01T04:55:30Z</time>
      </trkpt>
      <trkpt lat="42.68844" lon="-0.45843">
        <ele>2022</ele>
        <time>2010-01-01T04:55:34Z</time>
      </trkpt>
      <trkpt lat="42.68848" lon="-0.45843">
        <ele>2023</ele>
        <time>2010-01-01T04:55:35Z</time>
      </trkpt>
      <trkpt lat="42.68851" lon="-0.45841">
        <ele>2025</ele>
        <time>2010-01-01T04:55:37Z</time>
      </trkpt>
      <trkpt lat="42.68857" lon="-0.45829">
        <ele>2029</ele>
        <time>2010-01-01T04:55:41Z</time>
      </trkpt>
      <trkpt lat="42.68858" lon="-0.45825">
        <ele>2030</ele>
        <time>2010-01-01T04:55:42Z</time>
      </trkpt>
      <trkpt lat="42.68865" lon="-0.45814">
        <ele>2035</ele>
        <time>2010-01-01T04:55:47Z</time>
      </trkpt>
      <trkpt lat="42.68867" lon="-0.45802">
        <ele>2038</ele>
        <time>2010-01-01T04:55:50Z</time>
      </trkpt>
      <trkpt lat="42.68872" lon="-0.45796">
        <ele>2040</ele>
        <time>2010-01-01T04:55:53Z</time>
      </trkpt>
      <trkpt lat="42.68872" lon="-0.45778">
        <ele>2045</ele>
        <time>2010-01-01T04:55:58Z</time>
      </trkpt>
      <trkpt lat="42.68871" lon="-0.45764">
        <ele>2049</ele>
        <time>2010-01-01T04:56:02Z</time>
      </trkpt>
      <trkpt lat="42.68873" lon="-0.45761">
        <ele>2051</ele>
        <time>2010-01-01T04:56:03Z</time>
      </trkpt>
      <trkpt lat="42.68873" lon="-0.45758">
        <ele>2051</ele>
        <time>2010-01-01T04:56:04Z</time>
      </trkpt>
      <trkpt lat="42.68876" lon="-0.45749">
        <ele>2054</ele>
        <time>2010-01-01T04:56:07Z</time>
      </trkpt>
      <trkpt lat="42.68877" lon="-0.45741">
        <ele>2056</ele>
        <time>2010-01-01T04:56:10Z</time>
      </trkpt>
      <trkpt lat="42.68876" lon="-0.45738">
        <ele>2056</ele>
        <time>2010-01-01T04:56:11Z</time>
      </trkpt>
      <trkpt lat="42.68878" lon="-0.4573">
        <ele>2058</ele>
        <time>2010-01-01T04:56:13Z</time>
      </trkpt>
      <trkpt lat="42.68882" lon="-0.4571">
        <ele>2062</ele>
        <time>2010-01-01T04:56:19Z</time>
      </trkpt>
      <trkpt lat="42.68883" lon="-0.45698">
        <ele>2065</ele>
        <time>2010-01-01T04:56:23Z</time>
      </trkpt>
      <trkpt lat="42.68882" lon="-0.45692">
        <ele>2067</ele>
        <time>2010-01-01T04:56:25Z</time>
      </trkpt>
      <trkpt lat="42.68877" lon="-0.45679">
        <ele>2071</ele>
        <time>2010-01-01T04:56:29Z</time>
      </trkpt>
      <trkpt lat="42.68878" lon="-0.45672">
        <ele>2073</ele>
        <time>2010-01-01T04:56:31Z</time>
      </trkpt>
      <trkpt lat="42.68876" lon="-0.45666">
        <ele>2075</ele>
        <time>2010-01-01T04:56:33Z</time>
      </trkpt>
      <trkpt lat="42.68876" lon="-0.45647">
        <ele>2083</ele>
        <time>2010-01-01T04:56:39Z</time>
      </trkpt>
      <trkpt lat="42.6888" lon="-0.45623">
        <ele>2091</ele>
        <time>2010-01-01T04:56:46Z</time>
      </trkpt>
      <trkpt lat="42.68877" lon="-0.45615">
        <ele>2092</ele>
        <time>2010-01-01T04:56:49Z</time>
      </trkpt>
      <trkpt lat="42.68882" lon="-0.45605">
        <ele>2096</ele>
        <time>2010-01-01T04:56:52Z</time>
      </trkpt>
      <trkpt lat="42.68885" lon="-0.45593">
        <ele>2099</ele>
        <time>2010-01-01T04:56:56Z</time>
      </trkpt>
      <trkpt lat="42.68887" lon="-0.4559">
        <ele>2100</ele>
        <time>2010-01-01T04:56:57Z</time>
      </trkpt>
      <trkpt lat="42.68887" lon="-0.45584">
        <ele>2101</ele>
        <time>2010-01-01T04:56:59Z</time>
      </trkpt>
      <trkpt lat="42.68888" lon="-0.45581">
        <ele>2102</ele>
        <time>2010-01-01T04:57:00Z</time>
      </trkpt>
      <trkpt lat="42.68891" lon="-0.45581">
        <ele>2103</ele>
        <time>2010-01-01T04:57:01Z</time>
      </trkpt>
      <trkpt lat="42.68895" lon="-0.45574">
        <ele>2105</ele>
        <time>2010-01-01T04:57:04Z</time>
      </trkpt>
      <trkpt lat="42.68895" lon="-0.45571">
        <ele>2106</ele>
        <time>2010-01-01T04:57:05Z</time>
      </trkpt>
      <trkpt lat="42.68899" lon="-0.45564">
        <ele>2108</ele>
        <time>2010-01-01T04:57:07Z</time>
      </trkpt>
      <trkpt lat="42.689" lon="-0.45557">
        <ele>2110</ele>
        <time>2010-01-01T04:57:09Z</time>
      </trkpt>
      <trkpt lat="42.68907" lon="-0.45554">
        <ele>2113</ele>
        <time>2010-01-01T04:57:12Z</time>
      </trkpt>
      <trkpt lat="42.68907" lon="-0.4555">
        <ele>2114</ele>
        <time>2010-01-01T04:57:13Z</time>
      </trkpt>
      <trkpt lat="42.68909" lon="-0.45548">
        <ele>2115</ele>
        <time>2010-01-01T04:57:14Z</time>
      </trkpt>
      <trkpt lat="42.68909" lon="-0.45543">
        <ele>2117</ele>
        <time>2010-01-01T04:57:16Z</time>
      </trkpt>
      <trkpt lat="42.68913" lon="-0.45534">
        <ele>2120</ele>
        <time>2010-01-01T04:57:19Z</time>
      </trkpt>
      <trkpt lat="42.68926" lon="-0.45532">
        <ele>2124</ele>
        <time>2010-01-01T04:57:24Z</time>
      </trkpt>
      <trkpt lat="42.68929" lon="-0.45526">
        <ele>2126</ele>
        <time>2010-01-01T04:57:26Z</time>
      </trkpt>
      <trkpt lat="42.68936" lon="-0.45518">
        <ele>2129</ele>
        <time>2010-01-01T04:57:30Z</time>
      </trkpt>
      <trkpt lat="42.68937" lon="-0.45487">
        <ele>2138</ele>
        <time>2010-01-01T04:57:39Z</time>
      </trkpt>
      <trkpt lat="42.68939" lon="-0.45484">
        <ele>2139</ele>
        <time>2010-01-01T04:57:40Z</time>
      </trkpt>
      <trkpt lat="42.68947" lon="-0.45479">
        <ele>2142</ele>
        <time>2010-01-01T04:57:44Z</time>
      </trkpt>
      <trkpt lat="42.68955" lon="-0.4546">
        <ele>2147</ele>
        <time>2010-01-01T04:57:50Z</time>
      </trkpt>
      <trkpt lat="42.68961" lon="-0.4545">
        <ele>2151</ele>
        <time>2010-01-01T04:57:54Z</time>
      </trkpt>
      <trkpt lat="42.68969" lon="-0.45438">
        <ele>2156</ele>
        <time>2010-01-01T04:57:59Z</time>
      </trkpt>
      <trkpt lat="42.68972" lon="-0.45437">
        <ele>2157</ele>
        <time>2010-01-01T04:58:00Z</time>
      </trkpt>
      <trkpt lat="42.68984" lon="-0.45418">
        <ele>2162</ele>
        <time>2010-01-01T04:58:07Z</time>
      </trkpt>
      <trkpt lat="42.69001" lon="-0.45386">
        <ele>2173</ele>
        <time>2010-01-01T04:58:19Z</time>
      </trkpt>
      <trkpt lat="42.69007" lon="-0.45369">
        <ele>2178</ele>
        <time>2010-01-01T04:58:24Z</time>
      </trkpt>
      <trkpt lat="42.69014" lon="-0.45359">
        <ele>2181</ele>
        <time>2010-01-01T04:58:28Z</time>
      </trkpt>
      <trkpt lat="42.69014" lon="-0.45356">
        <ele>2182</ele>
        <time>2010-01-01T04:58:29Z</time>
      </trkpt>
      <trkpt lat="42.6902" lon="-0.45351">
        <ele>2184</ele>
        <time>2010-01-01T04:58:32Z</time>
      </trkpt>
      <trkpt lat="42.69016" lon="-0.45339">
        <ele>2187</ele>
        <time>2010-01-01T04:58:36Z</time>
      </trkpt>
      <trkpt lat="42.69018" lon="-0.45332">
        <ele>2189</ele>
        <time>2010-01-01T04:58:38Z</time>
      </trkpt>
      <trkpt lat="42.69018" lon="-0.45322">
        <ele>2192</ele>
        <time>2010-01-01T04:58:41Z</time>
      </trkpt>
      <trkpt lat="42.69021" lon="-0.45319">
        <ele>2193</ele>
        <time>2010-01-01T04:58:42Z</time>
      </trkpt>
      <trkpt lat="42.69021" lon="-0.45309">
        <ele>2196</ele>
        <time>2010-01-01T04:58:45Z</time>
      </trkpt>
      <trkpt lat="42.69024" lon="-0.45306">
        <ele>2198</ele>
        <time>2010-01-01T04:58:47Z</time>
      </trkpt>
      <trkpt lat="42.69029" lon="-0.45295">
        <ele>2201</ele>
        <time>2010-01-01T04:58:50Z</time>
      </trkpt>
      <trkpt lat="42.69043" lon="-0.4528">
        <ele>2207</ele>
        <time>2010-01-01T04:58:58Z</time>
      </trkpt>
      <trkpt lat="42.69045" lon="-0.45275">
        <ele>2209</ele>
        <time>2010-01-01T04:58:59Z</time>
      </trkpt>
      <trkpt lat="42.69044" lon="-0.45272">
        <ele>2209</ele>
        <time>2010-01-01T04:59:00Z</time>
      </trkpt>
      <trkpt lat="42.69046" lon="-0.45266">
        <ele>2210</ele>
        <time>2010-01-01T04:59:02Z</time>
      </trkpt>
      <trkpt lat="42.69054" lon="-0.45261">
        <ele>2213</ele>
        <time>2010-01-01T04:59:05Z</time>
      </trkpt>
      <trkpt lat="42.6906" lon="-0.45259">
        <ele>2215</ele>
        <time>2010-01-01T04:59:08Z</time>
      </trkpt>
      <trkpt lat="42.69072" lon="-0.45239">
        <ele>2221</ele>
        <time>2010-01-01T04:59:16Z</time>
      </trkpt>
      <trkpt lat="42.69084" lon="-0.45232">
        <ele>2226</ele>
        <time>2010-01-01T04:59:21Z</time>
      </trkpt>
      <trkpt lat="42.69088" lon="-0.45222">
        <ele>2229</ele>
        <time>2010-01-01T04:59:24Z</time>
      </trkpt>
      <trkpt lat="42.69095" lon="-0.45212">
        <ele>2232</ele>
        <time>2010-01-01T04:59:28Z</time>
      </trkpt>
      <trkpt lat="42.69123" lon="-0.45185">
        <ele>2246</ele>
        <time>2010-01-01T04:59:42Z</time>
      </trkpt>
      <trkpt lat="42.69144" lon="-0.45172">
        <ele>2254</ele>
        <time>2010-01-01T04:59:51Z</time>
      </trkpt>
      <trkpt lat="42.6915" lon="-0.45162">
        <ele>2256</ele>
        <time>2010-01-01T04:59:55Z</time>
      </trkpt>
      <trkpt lat="42.69174" lon="-0.4514">
        <ele>2260</ele>
        <time>2010-01-01T05:00:07Z</time>
      </trkpt>
      <trkpt lat="42.6919" lon="-0.45113">
        <ele>2264</ele>
        <time>2010-01-01T05:00:17Z</time>
      </trkpt>
      <trkpt lat="42.69197" lon="-0.45105">
        <ele>2265</ele>
        <time>2010-01-01T05:00:20Z</time>
      </trkpt>
      <trkpt lat="42.69204" lon="-0.45084">
        <ele>2267</ele>
        <time>2010-01-01T05:00:27Z</time>
      </trkpt>
      <trkpt lat="42.69211" lon="-0.45073">
        <ele>2270</ele>
        <time>2010-01-01T05:00:32Z</time>
      </trkpt>
      <trkpt lat="42.69224" lon="-0.45057">
        <ele>2275</ele>
        <time>2010-01-01T05:00:39Z</time>
      </trkpt>
      <trkpt lat="42.69231" lon="-0.45051">
        <ele>2278</ele>
        <time>2010-01-01T05:00:42Z</time>
      </trkpt>
      <trkpt lat="42.69237" lon="-0.45041">
        <ele>2281</ele>
        <time>2010-01-01T05:00:46Z</time>
      </trkpt>
      <trkpt lat="42.6924" lon="-0.45041">
        <ele>2282</ele>
        <time>2010-01-01T05:00:47Z</time>
      </trkpt>
      <trkpt lat="42.69245" lon="-0.45034">
        <ele>2284</ele>
        <time>2010-01-01T05:00:50Z</time>
      </trkpt>
      <trkpt lat="42.69247" lon="-0.45026">
        <ele>2286</ele>
        <time>2010-01-01T05:00:52Z</time>
      </trkpt>
      <trkpt lat="42.69264" lon="-0.45014">
        <ele>2293</ele>
        <time>2010-01-01T05:01:00Z</time>
      </trkpt>
      <trkpt lat="42.69266" lon="-0.45014">
        <ele>2294</ele>
        <time>2010-01-01T05:01:01Z</time>
      </trkpt>
      <trkpt lat="42.69289" lon="-0.44985">
        <ele>2307</ele>
        <time>2010-01-01T05:01:13Z</time>
      </trkpt>
      <trkpt lat="42.69299" lon="-0.44976">
        <ele>2313</ele>
        <time>2010-01-01T05:01:18Z</time>
      </trkpt>
      <trkpt lat="42.69305" lon="-0.44962">
        <ele>2319</ele>
        <time>2010-01-01T05:01:23Z</time>
      </trkpt>
      <trkpt lat="42.69309" lon="-0.4496">
        <ele>2321</ele>
        <time>2010-01-01T05:01:24Z</time>
      </trkpt>
      <trkpt lat="42.69313" lon="-0.44952">
        <ele>2324</ele>
        <time>2010-01-01T05:01:27Z</time>
      </trkpt>
      <trkpt lat="42.69321" lon="-0.44944">
        <ele>2328</ele>
        <time>2010-01-01T05:01:31Z</time>
      </trkpt>
      <trkpt lat="42.69328" lon="-0.44934">
        <ele>2332</ele>
        <time>2010-01-01T05:01:35Z</time>
      </trkpt>
      <trkpt lat="42.69332" lon="-0.4493">
        <ele>2333</ele>
        <time>2010-01-01T05:01:37Z</time>
      </trkpt>
      <trkpt lat="42.69336" lon="-0.44924">
        <ele>2336</ele>
        <time>2010-01-01T05:01:40Z</time>
      </trkpt>
      <trkpt lat="42.6934" lon="-0.4491">
        <ele>2339</ele>
        <time>2010-01-01T05:01:44Z</time>
      </trkpt>
      <trkpt lat="42.69346" lon="-0.44903">
        <ele>2344</ele>
        <time>2010-01-01T05:01:47Z</time>
      </trkpt>
      <trkpt lat="42.69354" lon="-0.44905">
        <ele>2348</ele>
        <time>2010-01-01T05:01:51Z</time>
      </trkpt>
      <trkpt lat="42.6936" lon="-0.4491">
        <ele>2350</ele>
        <time>2010-01-01T05:01:53Z</time>
      </trkpt>
      <trkpt lat="42.69371" lon="-0.44926">
        <ele>2349</ele>
        <time>2010-01-01T05:02:00Z</time>
      </trkpt>
      <trkpt lat="42.69377" lon="-0.44932">
        <ele>2348</ele>
        <time>2010-01-01T05:02:03Z</time>
      </trkpt>
      <trkpt lat="42.6938" lon="-0.44931">
        <ele>2349</ele>
        <time>2010-01-01T05:02:04Z</time>
      </trkpt>
      <trkpt lat="42.6938" lon="-0.44927">
        <ele>2351</ele>
        <time>2010-01-01T05:02:05Z</time>
      </trkpt>
      <trkpt lat="42.69382" lon="-0.44927">
        <ele>2351</ele>
        <time>2010-01-01T05:02:06Z</time>
      </trkpt>
      <trkpt lat="42.69383" lon="-0.44923">
        <ele>2354</ele>
        <time>2010-01-01T05:02:07Z</time>
      </trkpt>
      <trkpt lat="42.69387" lon="-0.44921">
        <ele>2356</ele>
        <time>2010-01-01T05:02:09Z</time>
      </trkpt>
      <trkpt lat="42.6939" lon="-0.44913">
        <ele>2360</ele>
        <time>2010-01-01T05:02:11Z</time>
      </trkpt>
      <trkpt lat="42.6939" lon="-0.44905">
        <ele>2364</ele>
        <time>2010-01-01T05:02:14Z</time>
      </trkpt>
      <trkpt lat="42.69395" lon="-0.44903">
        <ele>2366</ele>
        <time>2010-01-01T05:02:16Z</time>
      </trkpt>
      <trkpt lat="42.69396" lon="-0.44901">
        <ele>2367</ele>
        <time>2010-01-01T05:02:16Z</time>
      </trkpt>
      <trkpt lat="42.69397" lon="-0.44895">
        <ele>2370</ele>
        <time>2010-01-01T05:02:18Z</time>
      </trkpt>
      <trkpt lat="42.69402" lon="-0.44891">
        <ele>2372</ele>
        <time>2010-01-01T05:02:21Z</time>
      </trkpt>
      <trkpt lat="42.69399" lon="-0.44868">
        <ele>2379</ele>
        <time>2010-01-01T05:02:28Z</time>
      </trkpt>
      <trkpt lat="42.694" lon="-0.44866">
        <ele>2380</ele>
        <time>2010-01-01T05:02:28Z</time>
      </trkpt>
      <trkpt lat="42.69402" lon="-0.44864">
        <ele>2381</ele>
        <time>2010-01-01T05:02:30Z</time>
      </trkpt>
      <trkpt lat="42.69403" lon="-0.44861">
        <ele>2383</ele>
        <time>2010-01-01T05:02:31Z</time>
      </trkpt>
      <trkpt lat="42.69406" lon="-0.44859">
        <ele>2384</ele>
        <time>2010-01-01T05:02:32Z</time>
      </trkpt>
      <trkpt lat="42.69413" lon="-0.44861">
        <ele>2387</ele>
        <time>2010-01-01T05:02:35Z</time>
      </trkpt>
      <trkpt lat="42.69414" lon="-0.44856">
        <ele>2388</ele>
        <time>2010-01-01T05:02:36Z</time>
      </trkpt>
      <trkpt lat="42.69413" lon="-0.44845">
        <ele>2391</ele>
        <time>2010-01-01T05:02:39Z</time>
      </trkpt>
      <trkpt lat="42.69415" lon="-0.44839">
        <ele>2394</ele>
        <time>2010-01-01T05:02:41Z</time>
      </trkpt>
      <trkpt lat="42.69425" lon="-0.44833">
        <ele>2399</ele>
        <time>2010-01-01T05:02:46Z</time>
      </trkpt>
      <trkpt lat="42.69427" lon="-0.44827">
        <ele>2401</ele>
        <time>2010-01-01T05:02:48Z</time>
      </trkpt>
      <trkpt lat="42.69426" lon="-0.44823">
        <ele>2402</ele>
        <time>2010-01-01T05:02:49Z</time>
      </trkpt>
      <trkpt lat="42.69431" lon="-0.4482">
        <ele>2404</ele>
        <time>2010-01-01T05:02:51Z</time>
      </trkpt>
      <trkpt lat="42.69431" lon="-0.44816">
        <ele>2405</ele>
        <time>2010-01-01T05:02:52Z</time>
      </trkpt>
      <trkpt lat="42.69434" lon="-0.44812">
        <ele>2407</ele>
        <time>2010-01-01T05:02:54Z</time>
      </trkpt>
      <trkpt lat="42.69434" lon="-0.44809">
        <ele>2408</ele>
        <time>2010-01-01T05:02:55Z</time>
      </trkpt>
      <trkpt lat="42.69439" lon="-0.44808">
        <ele>2410</ele>
        <time>2010-01-01T05:02:57Z</time>
      </trkpt>
      <trkpt lat="42.69442" lon="-0.448">
        <ele>2414</ele>
        <time>2010-01-01T05:02:59Z</time>
      </trkpt>
      <trkpt lat="42.69443" lon="-0.44788">
        <ele>2419</ele>
        <time>2010-01-01T05:03:03Z</time>
      </trkpt>
      <trkpt lat="42.69447" lon="-0.44782">
        <ele>2423</ele>
        <time>2010-01-01T05:03:05Z</time>
      </trkpt>
      <trkpt lat="42.69448" lon="-0.44767">
        <ele>2429</ele>
        <time>2010-01-01T05:03:10Z</time>
      </trkpt>
      <trkpt lat="42.6945" lon="-0.44767">
        <ele>2431</ele>
        <time>2010-01-01T05:03:11Z</time>
      </trkpt>
      <trkpt lat="42.69454" lon="-0.44759">
        <ele>2436</ele>
        <time>2010-01-01T05:03:13Z</time>
      </trkpt>
      <trkpt lat="42.69456" lon="-0.44759">
        <ele>2437</ele>
        <time>2010-01-01T05:03:14Z</time>
      </trkpt>
      <trkpt lat="42.69458" lon="-0.4475">
        <ele>2442</ele>
        <time>2010-01-01T05:03:17Z</time>
      </trkpt>
      <trkpt lat="42.69463" lon="-0.44751">
        <ele>2444</ele>
        <time>2010-01-01T05:03:19Z</time>
      </trkpt>
      <trkpt lat="42.69468" lon="-0.44736">
        <ele>2451</ele>
        <time>2010-01-01T05:03:23Z</time>
      </trkpt>
      <trkpt lat="42.6947" lon="-0.44737">
        <ele>2453</ele>
        <time>2010-01-01T05:03:24Z</time>
      </trkpt>
      <trkpt lat="42.69471" lon="-0.44734">
        <ele>2454</ele>
        <time>2010-01-01T05:03:25Z</time>
      </trkpt>
      <trkpt lat="42.69479" lon="-0.44728">
        <ele>2461</ele>
        <time>2010-01-01T05:03:29Z</time>
      </trkpt>
      <trkpt lat="42.69481" lon="-0.4473">
        <ele>2461</ele>
        <time>2010-01-01T05:03:30Z</time>
      </trkpt>
      <trkpt lat="42.69483" lon="-0.44729">
        <ele>2463</ele>
        <time>2010-01-01T05:03:30Z</time>
      </trkpt>
      <trkpt lat="42.6949" lon="-0.44733">
        <ele>2465</ele>
        <time>2010-01-01T05:03:33Z</time>
      </trkpt>
      <trkpt lat="42.69491" lon="-0.44731">
        <ele>2467</ele>
        <time>2010-01-01T05:03:34Z</time>
      </trkpt>
      <trkpt lat="42.69493" lon="-0.44733">
        <ele>2467</ele>
        <time>2010-01-01T05:03:35Z</time>
      </trkpt>
      <trkpt lat="42.69498" lon="-0.44732">
        <ele>2470</ele>
        <time>2010-01-01T05:03:37Z</time>
      </trkpt>
      <trkpt lat="42.695" lon="-0.44729">
        <ele>2473</ele>
        <time>2010-01-01T05:03:38Z</time>
      </trkpt>
      <trkpt lat="42.69512" lon="-0.4473">
        <ele>2476</ele>
        <time>2010-01-01T05:03:43Z</time>
      </trkpt>
      <trkpt lat="42.69516" lon="-0.44731">
        <ele>2476</ele>
        <time>2010-01-01T05:03:44Z</time>
      </trkpt>
      <trkpt lat="42.69518" lon="-0.44718">
        <ele>2482</ele>
        <time>2010-01-01T05:03:48Z</time>
      </trkpt>
      <trkpt lat="42.6952" lon="-0.44714">
        <ele>2484</ele>
        <time>2010-01-01T05:03:50Z</time>
      </trkpt>
      <trkpt lat="42.69527" lon="-0.44711">
        <ele>2487</ele>
        <time>2010-01-01T05:03:53Z</time>
      </trkpt>
      <trkpt lat="42.69529" lon="-0.44704">
        <ele>2489</ele>
        <time>2010-01-01T05:03:55Z</time>
      </trkpt>
      <trkpt lat="42.69534" lon="-0.44706">
        <ele>2489</ele>
        <time>2010-01-01T05:03:57Z</time>
      </trkpt>
      <trkpt lat="42.69537" lon="-0.44702">
        <ele>2490</ele>
        <time>2010-01-01T05:03:58Z</time>
      </trkpt>
      <trkpt lat="42.69538" lon="-0.44697">
        <ele>2492</ele>
        <time>2010-01-01T05:04:00Z</time>
      </trkpt>
      <trkpt lat="42.6954" lon="-0.44696">
        <ele>2492</ele>
        <time>2010-01-01T05:04:01Z</time>
      </trkpt>
      <trkpt lat="42.69542" lon="-0.44683">
        <ele>2496</ele>
        <time>2010-01-01T05:04:04Z</time>
      </trkpt>
      <trkpt lat="42.69547" lon="-0.44674">
        <ele>2499</ele>
        <time>2010-01-01T05:04:08Z</time>
      </trkpt>
      <trkpt lat="42.69555" lon="-0.4467">
        <ele>2502</ele>
        <time>2010-01-01T05:04:11Z</time>
      </trkpt>
      <trkpt lat="42.69556" lon="-0.44671">
        <ele>2502</ele>
        <time>2010-01-01T05:04:12Z</time>
      </trkpt>
      <trkpt lat="42.69561" lon="-0.44666">
        <ele>2504</ele>
        <time>2010-01-01T05:04:14Z</time>
      </trkpt>
      <trkpt lat="42.69567" lon="-0.4466">
        <ele>2506</ele>
        <time>2010-01-01T05:04:17Z</time>
      </trkpt>
      <trkpt lat="42.6957" lon="-0.44649">
        <ele>2509</ele>
        <time>2010-01-01T05:04:21Z</time>
      </trkpt>
      <trkpt lat="42.69577" lon="-0.44639">
        <ele>2512</ele>
        <time>2010-01-01T05:04:25Z</time>
      </trkpt>
      <trkpt lat="42.69593" lon="-0.44619">
        <ele>2516</ele>
        <time>2010-01-01T05:04:33Z</time>
      </trkpt>
      <trkpt lat="42.69601" lon="-0.44608">
        <ele>2519</ele>
        <time>2010-01-01T05:04:38Z</time>
      </trkpt>
      <trkpt lat="42.6961" lon="-0.44584">
        <ele>2528</ele>
        <time>2010-01-01T05:04:46Z</time>
      </trkpt>
      <trkpt lat="42.6962" lon="-0.44525">
        <ele>2532</ele>
        <time>2010-01-01T05:05:04Z</time>
      </trkpt>
      <trkpt lat="42.69624" lon="-0.44513">
        <ele>2535</ele>
        <time>2010-01-01T05:05:08Z</time>
      </trkpt>
      <trkpt lat="42.69626" lon="-0.445">
        <ele>2538</ele>
        <time>2010-01-01T05:05:12Z</time>
      </trkpt>
      <trkpt lat="42.69631" lon="-0.44494">
        <ele>2540</ele>
        <time>2010-01-01T05:05:14Z</time>
      </trkpt>
      <trkpt lat="42.69633" lon="-0.44487">
        <ele>2542</ele>
        <time>2010-01-01T05:05:16Z</time>
      </trkpt>
      <trkpt lat="42.69633" lon="-0.44473">
        <ele>2546</ele>
        <time>2010-01-01T05:05:20Z</time>
      </trkpt>
      <trkpt lat="42.69632" lon="-0.4447">
        <ele>2546</ele>
        <time>2010-01-01T05:05:22Z</time>
      </trkpt>
      <trkpt lat="42.69631" lon="-0.44459">
        <ele>2548</ele>
        <time>2010-01-01T05:05:25Z</time>
      </trkpt>
      <trkpt lat="42.69629" lon="-0.44453">
        <ele>2549</ele>
        <time>2010-01-01T05:05:27Z</time>
      </trkpt>
      <trkpt lat="42.69629" lon="-0.44448">
        <ele>2550</ele>
        <time>2010-01-01T05:05:28Z</time>
      </trkpt>
      <trkpt lat="42.69632" lon="-0.4444">
        <ele>2552</ele>
        <time>2010-01-01T05:05:31Z</time>
      </trkpt>
      <trkpt lat="42.69644" lon="-0.4442">
        <ele>2555</ele>
        <time>2010-01-01T05:05:38Z</time>
      </trkpt>
      <trkpt lat="42.69642" lon="-0.44417">
        <ele>2556</ele>
        <time>2010-01-01T05:05:40Z</time>
      </trkpt>
      <trkpt lat="42.69644" lon="-0.44409">
        <ele>2557</ele>
        <time>2010-01-01T05:05:42Z</time>
      </trkpt>
      <trkpt lat="42.69645" lon="-0.44404">
        <ele>2557</ele>
        <time>2010-01-01T05:05:44Z</time>
      </trkpt>
      <trkpt lat="42.69649" lon="-0.44402">
        <ele>2558</ele>
        <time>2010-01-01T05:05:46Z</time>
      </trkpt>
      <trkpt lat="42.69652" lon="-0.44394">
        <ele>2559</ele>
        <time>2010-01-01T05:05:48Z</time>
      </trkpt>
      <trkpt lat="42.6966" lon="-0.44391">
        <ele>2560</ele>
        <time>2010-01-01T05:05:52Z</time>
      </trkpt>
      <trkpt lat="42.69669" lon="-0.44382">
        <ele>2561</ele>
        <time>2010-01-01T05:05:56Z</time>
      </trkpt>
      <trkpt lat="42.69672" lon="-0.44382">
        <ele>2561</ele>
        <time>2010-01-01T05:05:57Z</time>
      </trkpt>
      <trkpt lat="42.6969" lon="-0.44391">
        <ele>2558</ele>
        <time>2010-01-01T05:06:05Z</time>
      </trkpt>
      <trkpt lat="42.69696" lon="-0.44393">
        <ele>2557</ele>
        <time>2010-01-01T05:06:07Z</time>
      </trkpt>
      <trkpt lat="42.697" lon="-0.44392">
        <ele>2555</ele>
        <time>2010-01-01T05:06:09Z</time>
      </trkpt>
      <trkpt lat="42.69699" lon="-0.44399">
        <ele>2554</ele>
        <time>2010-01-01T05:06:12Z</time>
      </trkpt>
      <trkpt lat="42.69703" lon="-0.44404">
        <ele>2552</ele>
        <time>2010-01-01T05:06:14Z</time>
      </trkpt>
      <trkpt lat="42.69704" lon="-0.44411">
        <ele>2550</ele>
        <time>2010-01-01T05:06:16Z</time>
      </trkpt>
      <trkpt lat="42.69703" lon="-0.44418">
        <ele>2549</ele>
        <time>2010-01-01T05:06:18Z</time>
      </trkpt>
      <trkpt lat="42.69704" lon="-0.44442">
        <ele>2542</ele>
        <time>2010-01-01T05:06:25Z</time>
      </trkpt>
      <trkpt lat="42.697" lon="-0.44451">
        <ele>2542</ele>
        <time>2010-01-01T05:06:28Z</time>
      </trkpt>
      <trkpt lat="42.69698" lon="-0.44468">
        <ele>2539</ele>
        <time>2010-01-01T05:06:33Z</time>
      </trkpt>
      <trkpt lat="42.69693" lon="-0.44493">
        <ele>2534</ele>
        <time>2010-01-01T05:06:41Z</time>
      </trkpt>
      <trkpt lat="42.69693" lon="-0.44504">
        <ele>2531</ele>
        <time>2010-01-01T05:06:44Z</time>
      </trkpt>
      <trkpt lat="42.69696" lon="-0.44515">
        <ele>2527</ele>
        <time>2010-01-01T05:06:47Z</time>
      </trkpt>
      <trkpt lat="42.6969" lon="-0.44532">
        <ele>2525</ele>
        <time>2010-01-01T05:06:53Z</time>
      </trkpt>
      <trkpt lat="42.69691" lon="-0.44543">
        <ele>2522</ele>
        <time>2010-01-01T05:06:56Z</time>
      </trkpt>
      <trkpt lat="42.6969" lon="-0.44558">
        <ele>2519</ele>
        <time>2010-01-01T05:07:01Z</time>
      </trkpt>
      <trkpt lat="42.69687" lon="-0.44588">
        <ele>2512</ele>
        <time>2010-01-01T05:07:10Z</time>
      </trkpt>
      <trkpt lat="42.69688" lon="-0.44595">
        <ele>2509</ele>
        <time>2010-01-01T05:07:12Z</time>
      </trkpt>
      <trkpt lat="42.69684" lon="-0.44604">
        <ele>2508</ele>
        <time>2010-01-01T05:07:15Z</time>
      </trkpt>
      <trkpt lat="42.69679" lon="-0.4462">
        <ele>2506</ele>
        <time>2010-01-01T05:07:20Z</time>
      </trkpt>
      <trkpt lat="42.69674" lon="-0.4465">
        <ele>2501</ele>
        <time>2010-01-01T05:07:29Z</time>
      </trkpt>
      <trkpt lat="42.69674" lon="-0.44659">
        <ele>2500</ele>
        <time>2010-01-01T05:07:32Z</time>
      </trkpt>
      <trkpt lat="42.69676" lon="-0.44668">
        <ele>2497</ele>
        <time>2010-01-01T05:07:35Z</time>
      </trkpt>
      <trkpt lat="42.69678" lon="-0.44693">
        <ele>2485</ele>
        <time>2010-01-01T05:07:42Z</time>
      </trkpt>
      <trkpt lat="42.69683" lon="-0.44697">
        <ele>2481</ele>
        <time>2010-01-01T05:07:44Z</time>
      </trkpt>
      <trkpt lat="42.69687" lon="-0.44696">
        <ele>2481</ele>
        <time>2010-01-01T05:07:46Z</time>
      </trkpt>
      <trkpt lat="42.69698" lon="-0.44715">
        <ele>2465</ele>
        <time>2010-01-01T05:07:53Z</time>
      </trkpt>
      <trkpt lat="42.69699" lon="-0.44714">
        <ele>2464</ele>
        <time>2010-01-01T05:07:53Z</time>
      </trkpt>
      <trkpt lat="42.69702" lon="-0.44717">
        <ele>2461</ele>
        <time>2010-01-01T05:07:55Z</time>
      </trkpt>
      <trkpt lat="42.69705" lon="-0.44729">
        <ele>2456</ele>
        <time>2010-01-01T05:07:58Z</time>
      </trkpt>
      <trkpt lat="42.69709" lon="-0.44727">
        <ele>2455</ele>
        <time>2010-01-01T05:08:00Z</time>
      </trkpt>
      <trkpt lat="42.6971" lon="-0.44729">
        <ele>2454</ele>
        <time>2010-01-01T05:08:01Z</time>
      </trkpt>
      <trkpt lat="42.6971" lon="-0.44739">
        <ele>2451</ele>
        <time>2010-01-01T05:08:04Z</time>
      </trkpt>
      <trkpt lat="42.69712" lon="-0.44746">
        <ele>2449</ele>
        <time>2010-01-01T05:08:06Z</time>
      </trkpt>
      <trkpt lat="42.69717" lon="-0.44747">
        <ele>2446</ele>
        <time>2010-01-01T05:08:08Z</time>
      </trkpt>
      <trkpt lat="42.69723" lon="-0.44739">
        <ele>2446</ele>
        <time>2010-01-01T05:08:11Z</time>
      </trkpt>
      <trkpt lat="42.69725" lon="-0.44751">
        <ele>2442</ele>
        <time>2010-01-01T05:08:15Z</time>
      </trkpt>
      <trkpt lat="42.69729" lon="-0.44761">
        <ele>2437</ele>
        <time>2010-01-01T05:08:18Z</time>
      </trkpt>
      <trkpt lat="42.69736" lon="-0.4476">
        <ele>2432</ele>
        <time>2010-01-01T05:08:21Z</time>
      </trkpt>
      <trkpt lat="42.69741" lon="-0.44756">
        <ele>2430</ele>
        <time>2010-01-01T05:08:24Z</time>
      </trkpt>
      <trkpt lat="42.6975" lon="-0.44767">
        <ele>2424</ele>
        <time>2010-01-01T05:08:29Z</time>
      </trkpt>
      <trkpt lat="42.69755" lon="-0.44763">
        <ele>2423</ele>
        <time>2010-01-01T05:08:30Z</time>
      </trkpt>
      <trkpt lat="42.69756" lon="-0.44758">
        <ele>2424</ele>
        <time>2010-01-01T05:08:32Z</time>
      </trkpt>
      <trkpt lat="42.69761" lon="-0.44756">
        <ele>2423</ele>
        <time>2010-01-01T05:08:34Z</time>
      </trkpt>
      <trkpt lat="42.69766" lon="-0.44758">
        <ele>2422</ele>
        <time>2010-01-01T05:08:36Z</time>
      </trkpt>
      <trkpt lat="42.69775" lon="-0.44758">
        <ele>2421</ele>
        <time>2010-01-01T05:08:40Z</time>
      </trkpt>
      <trkpt lat="42.69777" lon="-0.44757">
        <ele>2421</ele>
        <time>2010-01-01T05:08:41Z</time>
      </trkpt>
      <trkpt lat="42.69785" lon="-0.4476">
        <ele>2419</ele>
        <time>2010-01-01T05:08:44Z</time>
      </trkpt>
      <trkpt lat="42.69796" lon="-0.4476">
        <ele>2416</ele>
        <time>2010-01-01T05:08:48Z</time>
      </trkpt>
      <trkpt lat="42.69809" lon="-0.44757">
        <ele>2414</ele>
        <time>2010-01-01T05:08:54Z</time>
      </trkpt>
      <trkpt lat="42.69815" lon="-0.44754">
        <ele>2414</ele>
        <time>2010-01-01T05:08:56Z</time>
      </trkpt>
      <trkpt lat="42.6983" lon="-0.44743">
        <ele>2415</ele>
        <time>2010-01-01T05:09:03Z</time>
      </trkpt>
      <trkpt lat="42.69846" lon="-0.44734">
        <ele>2417</ele>
        <time>2010-01-01T05:09:10Z</time>
      </trkpt>
      <trkpt lat="42.69856" lon="-0.44733">
        <ele>2417</ele>
        <time>2010-01-01T05:09:14Z</time>
      </trkpt>
      <trkpt lat="42.69866" lon="-0.4473">
        <ele>2418</ele>
        <time>2010-01-01T05:09:18Z</time>
      </trkpt>
      <trkpt lat="42.69886" lon="-0.4473">
        <ele>2418</ele>
        <time>2010-01-01T05:09:26Z</time>
      </trkpt>
      <trkpt lat="42.69899" lon="-0.44727">
        <ele>2418</ele>
        <time>2010-01-01T05:09:32Z</time>
      </trkpt>
      <trkpt lat="42.69904" lon="-0.44723">
        <ele>2419</ele>
        <time>2010-01-01T05:09:34Z</time>
      </trkpt>
      <trkpt lat="42.69907" lon="-0.44717">
        <ele>2420</ele>
        <time>2010-01-01T05:09:36Z</time>
      </trkpt>
      <trkpt lat="42.6991" lon="-0.44702">
        <ele>2422</ele>
        <time>2010-01-01T05:09:40Z</time>
      </trkpt>
      <trkpt lat="42.6994" lon="-0.4465">
        <ele>2425</ele>
        <time>2010-01-01T05:10:00Z</time>
      </trkpt>
      <trkpt lat="42.69967" lon="-0.44624">
        <ele>2428</ele>
        <time>2010-01-01T05:10:13Z</time>
      </trkpt>
      <trkpt lat="42.69969" lon="-0.44617">
        <ele>2429</ele>
        <time>2010-01-01T05:10:15Z</time>
      </trkpt>
      <trkpt lat="42.69975" lon="-0.44615">
        <ele>2430</ele>
        <time>2010-01-01T05:10:18Z</time>
      </trkpt>
      <trkpt lat="42.69981" lon="-0.446">
        <ele>2431</ele>
        <time>2010-01-01T05:10:23Z</time>
      </trkpt>
      <trkpt lat="42.69988" lon="-0.44589">
        <ele>2432</ele>
        <time>2010-01-01T05:10:27Z</time>
      </trkpt>
      <trkpt lat="42.69995" lon="-0.44584">
        <ele>2434</ele>
        <time>2010-01-01T05:10:30Z</time>
      </trkpt>
      <trkpt lat="42.70001" lon="-0.44583">
        <ele>2435</ele>
        <time>2010-01-01T05:10:33Z</time>
      </trkpt>
      <trkpt lat="42.70004" lon="-0.4458">
        <ele>2436</ele>
        <time>2010-01-01T05:10:34Z</time>
      </trkpt>
      <trkpt lat="42.70005" lon="-0.44574">
        <ele>2437</ele>
        <time>2010-01-01T05:10:36Z</time>
      </trkpt>
      <trkpt lat="42.7001" lon="-0.44569">
        <ele>2439</ele>
        <time>2010-01-01T05:10:38Z</time>
      </trkpt>
      <trkpt lat="42.70014" lon="-0.44559">
        <ele>2440</ele>
        <time>2010-01-01T05:10:42Z</time>
      </trkpt>
      <trkpt lat="42.70016" lon="-0.44556">
        <ele>2441</ele>
        <time>2010-01-01T05:10:43Z</time>
      </trkpt>
      <trkpt lat="42.70017" lon="-0.44544">
        <ele>2443</ele>
        <time>2010-01-01T05:10:47Z</time>
      </trkpt>
      <trkpt lat="42.70022" lon="-0.44537">
        <ele>2446</ele>
        <time>2010-01-01T05:10:49Z</time>
      </trkpt>
      <trkpt lat="42.70034" lon="-0.44532">
        <ele>2454</ele>
        <time>2010-01-01T05:10:54Z</time>
      </trkpt>
      <trkpt lat="42.70042" lon="-0.44532">
        <ele>2460</ele>
        <time>2010-01-01T05:10:58Z</time>
      </trkpt>
      <trkpt lat="42.70048" lon="-0.44534">
        <ele>2464</ele>
        <time>2010-01-01T05:11:00Z</time>
      </trkpt>
      <trkpt lat="42.7005" lon="-0.44531">
        <ele>2466</ele>
        <time>2010-01-01T05:11:01Z</time>
      </trkpt>
      <trkpt lat="42.70055" lon="-0.4453">
        <ele>2470</ele>
        <time>2010-01-01T05:11:03Z</time>
      </trkpt>
      <trkpt lat="42.70058" lon="-0.44532">
        <ele>2471</ele>
        <time>2010-01-01T05:11:04Z</time>
      </trkpt>
      <trkpt lat="42.70064" lon="-0.44522">
        <ele>2476</ele>
        <time>2010-01-01T05:11:08Z</time>
      </trkpt>
      <trkpt lat="42.70066" lon="-0.44515">
        <ele>2479</ele>
        <time>2010-01-01T05:11:10Z</time>
      </trkpt>
      <trkpt lat="42.70068" lon="-0.44515">
        <ele>2480</ele>
        <time>2010-01-01T05:11:11Z</time>
      </trkpt>
      <trkpt lat="42.70069" lon="-0.44513">
        <ele>2481</ele>
        <time>2010-01-01T05:11:12Z</time>
      </trkpt>
      <trkpt lat="42.7007" lon="-0.44508">
        <ele>2483</ele>
        <time>2010-01-01T05:11:13Z</time>
      </trkpt>
      <trkpt lat="42.70077" lon="-0.44512">
        <ele>2483</ele>
        <time>2010-01-01T05:11:16Z</time>
      </trkpt>
      <trkpt lat="42.7008" lon="-0.44511">
        <ele>2484</ele>
        <time>2010-01-01T05:11:17Z</time>
      </trkpt>
      <trkpt lat="42.70082" lon="-0.445">
        <ele>2488</ele>
        <time>2010-01-01T05:11:21Z</time>
      </trkpt>
      <trkpt lat="42.70087" lon="-0.44502">
        <ele>2489</ele>
        <time>2010-01-01T05:11:23Z</time>
      </trkpt>
      <trkpt lat="42.70094" lon="-0.44508">
        <ele>2489</ele>
        <time>2010-01-01T05:11:26Z</time>
      </trkpt>
      <trkpt lat="42.70097" lon="-0.44505">
        <ele>2491</ele>
        <time>2010-01-01T05:11:27Z</time>
      </trkpt>
      <trkpt lat="42.70101" lon="-0.44503">
        <ele>2492</ele>
        <time>2010-01-01T05:11:29Z</time>
      </trkpt>
      <trkpt lat="42.70104" lon="-0.44504">
        <ele>2493</ele>
        <time>2010-01-01T05:11:30Z</time>
      </trkpt>
      <trkpt lat="42.70107" lon="-0.44503">
        <ele>2494</ele>
        <time>2010-01-01T05:11:32Z</time>
      </trkpt>
      <trkpt lat="42.70111" lon="-0.44506">
        <ele>2494</ele>
        <time>2010-01-01T05:11:33Z</time>
      </trkpt>
      <trkpt lat="42.70113" lon="-0.44505">
        <ele>2496</ele>
        <time>2010-01-01T05:11:34Z</time>
      </trkpt>
      <trkpt lat="42.70117" lon="-0.44507">
        <ele>2499</ele>
        <time>2010-01-01T05:11:36Z</time>
      </trkpt>
      <trkpt lat="42.7012" lon="-0.44512">
        <ele>2500</ele>
        <time>2010-01-01T05:11:38Z</time>
      </trkpt>
      <trkpt lat="42.70129" lon="-0.445">
        <ele>2512</ele>
        <time>2010-01-01T05:11:43Z</time>
      </trkpt>
      <trkpt lat="42.7013" lon="-0.4449">
        <ele>2518</ele>
        <time>2010-01-01T05:11:46Z</time>
      </trkpt>
      <trkpt lat="42.70128" lon="-0.44487">
        <ele>2517</ele>
        <time>2010-01-01T05:11:47Z</time>
      </trkpt>
      <trkpt lat="42.70127" lon="-0.4448">
        <ele>2520</ele>
        <time>2010-01-01T05:11:49Z</time>
      </trkpt>
      <trkpt lat="42.70123" lon="-0.44471">
        <ele>2521</ele>
        <time>2010-01-01T05:11:52Z</time>
      </trkpt>
      <trkpt lat="42.70119" lon="-0.44457">
        <ele>2525</ele>
        <time>2010-01-01T05:11:57Z</time>
      </trkpt>
      <trkpt lat="42.70114" lon="-0.44448">
        <ele>2527</ele>
        <time>2010-01-01T05:12:00Z</time>
      </trkpt>
      <trkpt lat="42.70106" lon="-0.44438">
        <ele>2528</ele>
        <time>2010-01-01T05:12:05Z</time>
      </trkpt>
      <trkpt lat="42.70099" lon="-0.44421">
        <ele>2534</ele>
        <time>2010-01-01T05:12:10Z</time>
      </trkpt>
      <trkpt lat="42.70092" lon="-0.44415">
        <ele>2534</ele>
        <time>2010-01-01T05:12:14Z</time>
      </trkpt>
      <trkpt lat="42.70088" lon="-0.4441">
        <ele>2535</ele>
        <time>2010-01-01T05:12:16Z</time>
      </trkpt>
      <trkpt lat="42.70079" lon="-0.44392">
        <ele>2536</ele>
        <time>2010-01-01T05:12:22Z</time>
      </trkpt>
      <trkpt lat="42.70077" lon="-0.44383">
        <ele>2538</ele>
        <time>2010-01-01T05:12:25Z</time>
      </trkpt>
      <trkpt lat="42.70078" lon="-0.44377">
        <ele>2541</ele>
        <time>2010-01-01T05:12:27Z</time>
      </trkpt>
      <trkpt lat="42.70076" lon="-0.44373">
        <ele>2541</ele>
        <time>2010-01-01T05:12:28Z</time>
      </trkpt>
      <trkpt lat="42.70076" lon="-0.44369">
        <ele>2542</ele>
        <time>2010-01-01T05:12:30Z</time>
      </trkpt>
      <trkpt lat="42.70084" lon="-0.44361">
        <ele>2549</ele>
        <time>2010-01-01T05:12:33Z</time>
      </trkpt>
      <trkpt lat="42.70085" lon="-0.44353">
        <ele>2554</ele>
        <time>2010-01-01T05:12:36Z</time>
      </trkpt>
      <trkpt lat="42.70087" lon="-0.44352">
        <ele>2556</ele>
        <time>2010-01-01T05:12:37Z</time>
      </trkpt>
      <trkpt lat="42.7009" lon="-0.44336">
        <ele>2566</ele>
        <time>2010-01-01T05:12:41Z</time>
      </trkpt>
      <trkpt lat="42.70086" lon="-0.44307">
        <ele>2582</ele>
        <time>2010-01-01T05:12:50Z</time>
      </trkpt>
      <trkpt lat="42.70083" lon="-0.44298">
        <ele>2583</ele>
        <time>2010-01-01T05:12:53Z</time>
      </trkpt>
      <trkpt lat="42.70075" lon="-0.44283">
        <ele>2584</ele>
        <time>2010-01-01T05:12:58Z</time>
      </trkpt>
      <trkpt lat="42.70068" lon="-0.44277">
        <ele>2582</ele>
        <time>2010-01-01T05:13:02Z</time>
      </trkpt>
      <trkpt lat="42.70059" lon="-0.44274">
        <ele>2578</ele>
        <time>2010-01-01T05:13:05Z</time>
      </trkpt>
      <trkpt lat="42.70053" lon="-0.44268">
        <ele>2578</ele>
        <time>2010-01-01T05:13:08Z</time>
      </trkpt>
      <trkpt lat="42.70053" lon="-0.44261">
        <ele>2580</ele>
        <time>2010-01-01T05:13:10Z</time>
      </trkpt>
      <trkpt lat="42.70051" lon="-0.44254">
        <ele>2581</ele>
        <time>2010-01-01T05:13:13Z</time>
      </trkpt>
      <trkpt lat="42.70052" lon="-0.44252">
        <ele>2583</ele>
        <time>2010-01-01T05:13:13Z</time>
      </trkpt>
      <trkpt lat="42.70059" lon="-0.44245">
        <ele>2586</ele>
        <time>2010-01-01T05:13:17Z</time>
      </trkpt>
      <trkpt lat="42.70076" lon="-0.44235">
        <ele>2591</ele>
        <time>2010-01-01T05:13:24Z</time>
      </trkpt>
      <trkpt lat="42.70086" lon="-0.44232">
        <ele>2594</ele>
        <time>2010-01-01T05:13:28Z</time>
      </trkpt>
      <trkpt lat="42.701" lon="-0.44234">
        <ele>2597</ele>
        <time>2010-01-01T05:13:34Z</time>
      </trkpt>
      <trkpt lat="42.70112" lon="-0.4424">
        <ele>2600</ele>
        <time>2010-01-01T05:13:39Z</time>
      </trkpt>
      <trkpt lat="42.70121" lon="-0.4425">
        <ele>2604</ele>
        <time>2010-01-01T05:13:44Z</time>
      </trkpt>
      <trkpt lat="42.7013" lon="-0.44253">
        <ele>2607</ele>
        <time>2010-01-01T05:13:47Z</time>
      </trkpt>
      <trkpt lat="42.70135" lon="-0.44257">
        <ele>2609</ele>
        <time>2010-01-01T05:13:50Z</time>
      </trkpt>
      <trkpt lat="42.70137" lon="-0.44257">
        <ele>2610</ele>
        <time>2010-01-01T05:13:50Z</time>
      </trkpt>
      <trkpt lat="42.70141" lon="-0.44252">
        <ele>2609</ele>
        <time>2010-01-01T05:13:53Z</time>
      </trkpt>
      <trkpt lat="42.70157" lon="-0.44255">
        <ele>2608</ele>
        <time>2010-01-01T05:13:59Z</time>
      </trkpt>
      <trkpt lat="42.70158" lon="-0.4426">
        <ele>2610</ele>
        <time>2010-01-01T05:14:01Z</time>
      </trkpt>
      <trkpt lat="42.70154" lon="-0.44269">
        <ele>2614</ele>
        <time>2010-01-01T05:14:04Z</time>
      </trkpt>
      <trkpt lat="42.70157" lon="-0.44272">
        <ele>2615</ele>
        <time>2010-01-01T05:14:05Z</time>
      </trkpt>
      <trkpt lat="42.70158" lon="-0.44282">
        <ele>2619</ele>
        <time>2010-01-01T05:14:08Z</time>
      </trkpt>
      <trkpt lat="42.70167" lon="-0.4428">
        <ele>2622</ele>
        <time>2010-01-01T05:14:12Z</time>
      </trkpt>
      <trkpt lat="42.7017" lon="-0.44281">
        <ele>2625</ele>
        <time>2010-01-01T05:14:13Z</time>
      </trkpt>
      <trkpt lat="42.70172" lon="-0.44276">
        <ele>2624</ele>
        <time>2010-01-01T05:14:15Z</time>
      </trkpt>
      <trkpt lat="42.70169" lon="-0.44269">
        <ele>2617</ele>
        <time>2010-01-01T05:14:17Z</time>
      </trkpt>
      <trkpt lat="42.70177" lon="-0.44272">
        <ele>2625</ele>
        <time>2010-01-01T05:14:20Z</time>
      </trkpt>
      <trkpt lat="42.70181" lon="-0.44269">
        <ele>2626</ele>
        <time>2010-01-01T05:14:22Z</time>
      </trkpt>
      <trkpt lat="42.70183" lon="-0.44273">
        <ele>2631</ele>
        <time>2010-01-01T05:14:23Z</time>
      </trkpt>
      <trkpt lat="42.70185" lon="-0.44267">
        <ele>2627</ele>
        <time>2010-01-01T05:14:25Z</time>
      </trkpt>
      <trkpt lat="42.70197" lon="-0.44265">
        <ele>2633</ele>
        <time>2010-01-01T05:14:30Z</time>
      </trkpt>
      <trkpt lat="42.70208" lon="-0.4426">
        <ele>2636</ele>
        <time>2010-01-01T05:14:35Z</time>
      </trkpt>
      <trkpt lat="42.70219" lon="-0.44256">
        <ele>2644</ele>
        <time>2010-01-01T05:14:39Z</time>
      </trkpt>
      <trkpt lat="42.7023" lon="-0.44271">
        <ele>2656</ele>
        <time>2010-01-01T05:14:45Z</time>
      </trkpt>
      <trkpt lat="42.70244" lon="-0.44282">
        <ele>2666</ele>
        <time>2010-01-01T05:14:52Z</time>
      </trkpt>
      <trkpt lat="42.7025" lon="-0.44299">
        <ele>2674</ele>
        <time>2010-01-01T05:14:57Z</time>
      </trkpt>
      <trkpt lat="42.7025" lon="-0.44306">
        <ele>2677</ele>
        <time>2010-01-01T05:14:59Z</time>
      </trkpt>
      <trkpt lat="42.70248" lon="-0.4431">
        <ele>2674</ele>
        <time>2010-01-01T05:15:01Z</time>
      </trkpt>
      <trkpt lat="42.70248" lon="-0.44309">
        <ele>2675</ele>
        <time>2010-01-01T05:15:01Z</time>
      </trkpt>
      <trkpt lat="42.70244" lon="-0.44311">
        <ele>2673</ele>
        <time>2010-01-01T05:15:03Z</time>
      </trkpt>
      <trkpt lat="42.70243" lon="-0.44304">
        <ele>2674</ele>
        <time>2010-01-01T05:15:05Z</time>
      </trkpt>
      <trkpt lat="42.70238" lon="-0.44304">
        <ele>2672</ele>
        <time>2010-01-01T05:15:07Z</time>
      </trkpt>
      <trkpt lat="42.70236" lon="-0.44312">
        <ele>2671</ele>
        <time>2010-01-01T05:15:09Z</time>
      </trkpt>
      <trkpt lat="42.70241" lon="-0.44345">
        <ele>2661</ele>
        <time>2010-01-01T05:15:19Z</time>
      </trkpt>
      <trkpt lat="42.70246" lon="-0.44363">
        <ele>2653</ele>
        <time>2010-01-01T05:15:25Z</time>
      </trkpt>
      <trkpt lat="42.70245" lon="-0.44375">
        <ele>2645</ele>
        <time>2010-01-01T05:15:28Z</time>
      </trkpt>
      <trkpt lat="42.70246" lon="-0.44379">
        <ele>2642</ele>
        <time>2010-01-01T05:15:30Z</time>
      </trkpt>
      <trkpt lat="42.70249" lon="-0.44383">
        <ele>2641</ele>
        <time>2010-01-01T05:15:31Z</time>
      </trkpt>
      <trkpt lat="42.70263" lon="-0.44385">
        <ele>2650</ele>
        <time>2010-01-01T05:15:37Z</time>
      </trkpt>
      <trkpt lat="42.70277" lon="-0.44404">
        <ele>2657</ele>
        <time>2010-01-01T05:15:45Z</time>
      </trkpt>
      <trkpt lat="42.70282" lon="-0.44408">
        <ele>2658</ele>
        <time>2010-01-01T05:15:47Z</time>
      </trkpt>
      <trkpt lat="42.70279" lon="-0.44408">
        <ele>2657</ele>
        <time>2010-01-01T05:15:48Z</time>
      </trkpt>
      <trkpt lat="42.70276" lon="-0.44403">
        <ele>2656</ele>
        <time>2010-01-01T05:15:50Z</time>
      </trkpt>
      <trkpt lat="42.70272" lon="-0.44402">
        <ele>2651</ele>
        <time>2010-01-01T05:15:52Z</time>
      </trkpt>
      <trkpt lat="42.70269" lon="-0.44398">
        <ele>2650</ele>
        <time>2010-01-01T05:15:54Z</time>
      </trkpt>
      <trkpt lat="42.70266" lon="-0.44399">
        <ele>2646</ele>
        <time>2010-01-01T05:15:55Z</time>
      </trkpt>
      <trkpt lat="42.70266" lon="-0.44408">
        <ele>2641</ele>
        <time>2010-01-01T05:15:57Z</time>
      </trkpt>
      <trkpt lat="42.7027" lon="-0.44418">
        <ele>2641</ele>
        <time>2010-01-01T05:16:01Z</time>
      </trkpt>
      <trkpt lat="42.70291" lon="-0.44438">
        <ele>2645</ele>
        <time>2010-01-01T05:16:11Z</time>
      </trkpt>
      <trkpt lat="42.70302" lon="-0.44454">
        <ele>2642</ele>
        <time>2010-01-01T05:16:17Z</time>
      </trkpt>
      <trkpt lat="42.70306" lon="-0.44466">
        <ele>2638</ele>
        <time>2010-01-01T05:16:21Z</time>
      </trkpt>
      <trkpt lat="42.70318" lon="-0.44486">
        <ele>2634</ele>
        <time>2010-01-01T05:16:29Z</time>
      </trkpt>
      <trkpt lat="42.70331" lon="-0.44502">
        <ele>2635</ele>
        <time>2010-01-01T05:16:36Z</time>
      </trkpt>
      <trkpt lat="42.70328" lon="-0.44509">
        <ele>2631</ele>
        <time>2010-01-01T05:16:38Z</time>
      </trkpt>
      <trkpt lat="42.70316" lon="-0.44524">
        <ele>2620</ele>
        <time>2010-01-01T05:16:44Z</time>
      </trkpt>
      <trkpt lat="42.70316" lon="-0.44535">
        <ele>2616</ele>
        <time>2010-01-01T05:16:47Z</time>
      </trkpt>
      <trkpt lat="42.7032" lon="-0.44558">
        <ele>2609</ele>
        <time>2010-01-01T05:16:55Z</time>
      </trkpt>
      <trkpt lat="42.70318" lon="-0.44585">
        <ele>2605</ele>
        <time>2010-01-01T05:17:02Z</time>
      </trkpt>
      <trkpt lat="42.70319" lon="-0.44637">
        <ele>2609</ele>
        <time>2010-01-01T05:17:18Z</time>
      </trkpt>
      <trkpt lat="42.70318" lon="-0.44654">
        <ele>2608</ele>
        <time>2010-01-01T05:17:23Z</time>
      </trkpt>
      <trkpt lat="42.70322" lon="-0.44668">
        <ele>2612</ele>
        <time>2010-01-01T05:17:27Z</time>
      </trkpt>
      <trkpt lat="42.70345" lon="-0.44708">
        <ele>2613</ele>
        <time>2010-01-01T05:17:42Z</time>
      </trkpt>
      <trkpt lat="42.70351" lon="-0.4473">
        <ele>2611</ele>
        <time>2010-01-01T05:17:49Z</time>
      </trkpt>
      <trkpt lat="42.70357" lon="-0.44741">
        <ele>2612</ele>
        <time>2010-01-01T05:17:53Z</time>
      </trkpt>
      <trkpt lat="42.7036" lon="-0.44755">
        <ele>2611</ele>
        <time>2010-01-01T05:17:58Z</time>
      </trkpt>
      <trkpt lat="42.70387" lon="-0.44759">
        <ele>2609</ele>
        <time>2010-01-01T05:18:09Z</time>
      </trkpt>
      <trkpt lat="42.70401" lon="-0.44757">
        <ele>2608</ele>
        <time>2010-01-01T05:18:14Z</time>
      </trkpt>
      <trkpt lat="42.7042" lon="-0.44767">
        <ele>2609</ele>
        <time>2010-01-01T05:18:22Z</time>
      </trkpt>
      <trkpt lat="42.70451" lon="-0.44812">
        <ele>2605</ele>
        <time>2010-01-01T05:18:40Z</time>
      </trkpt>
      <trkpt lat="42.70453" lon="-0.44809">
        <ele>2604</ele>
        <time>2010-01-01T05:18:41Z</time>
      </trkpt>
      <trkpt lat="42.70456" lon="-0.4481">
        <ele>2603</ele>
        <time>2010-01-01T05:18:43Z</time>
      </trkpt>
      <trkpt lat="42.7046" lon="-0.44817">
        <ele>2601</ele>
        <time>2010-01-01T05:18:45Z</time>
      </trkpt>
      <trkpt lat="42.70467" lon="-0.44818">
        <ele>2600</ele>
        <time>2010-01-01T05:18:48Z</time>
      </trkpt>
      <trkpt lat="42.70472" lon="-0.44814">
        <ele>2597</ele>
        <time>2010-01-01T05:18:51Z</time>
      </trkpt>
      <trkpt lat="42.7048" lon="-0.44814">
        <ele>2598</ele>
        <time>2010-01-01T05:18:54Z</time>
      </trkpt>
      <trkpt lat="42.70485" lon="-0.44809">
        <ele>2597</ele>
        <time>2010-01-01T05:18:56Z</time>
      </trkpt>
      <trkpt lat="42.70486" lon="-0.44807">
        <ele>2597</ele>
        <time>2010-01-01T05:18:57Z</time>
      </trkpt>
      <trkpt lat="42.70495" lon="-0.44801">
        <ele>2596</ele>
        <time>2010-01-01T05:19:01Z</time>
      </trkpt>
      <trkpt lat="42.70513" lon="-0.44783">
        <ele>2598</ele>
        <time>2010-01-01T05:19:10Z</time>
      </trkpt>
      <trkpt lat="42.7052" lon="-0.44778">
        <ele>2602</ele>
        <time>2010-01-01T05:19:13Z</time>
      </trkpt>
      <trkpt lat="42.70528" lon="-0.44776">
        <ele>2605</ele>
        <time>2010-01-01T05:19:16Z</time>
      </trkpt>
      <trkpt lat="42.70557" lon="-0.44776">
        <ele>2617</ele>
        <time>2010-01-01T05:19:28Z</time>
      </trkpt>
      <trkpt lat="42.7057" lon="-0.44774">
        <ele>2607</ele>
        <time>2010-01-01T05:19:33Z</time>
      </trkpt>
      <trkpt lat="42.70585" lon="-0.44774">
        <ele>2598</ele>
        <time>2010-01-01T05:19:39Z</time>
      </trkpt>
      <trkpt lat="42.70598" lon="-0.44771">
        <ele>2596</ele>
        <time>2010-01-01T05:19:44Z</time>
      </trkpt>
      <trkpt lat="42.70606" lon="-0.44773">
        <ele>2596</ele>
        <time>2010-01-01T05:19:48Z</time>
      </trkpt>
      <trkpt lat="42.70612" lon="-0.44782">
        <ele>2599</ele>
        <time>2010-01-01T05:19:51Z</time>
      </trkpt>
      <trkpt lat="42.70617" lon="-0.44802">
        <ele>2606</ele>
        <time>2010-01-01T05:19:57Z</time>
      </trkpt>
      <trkpt lat="42.70617" lon="-0.44813">
        <ele>2611</ele>
        <time>2010-01-01T05:20:01Z</time>
      </trkpt>
      <trkpt lat="42.70623" lon="-0.44855">
        <ele>2623</ele>
        <time>2010-01-01T05:20:13Z</time>
      </trkpt>
      <trkpt lat="42.70623" lon="-0.44874">
        <ele>2625</ele>
        <time>2010-01-01T05:20:19Z</time>
      </trkpt>
      <trkpt lat="42.7063" lon="-0.44898">
        <ele>2627</ele>
        <time>2010-01-01T05:20:26Z</time>
      </trkpt>
      <trkpt lat="42.70639" lon="-0.44916">
        <ele>2628</ele>
        <time>2010-01-01T05:20:33Z</time>
      </trkpt>
      <trkpt lat="42.70656" lon="-0.44942">
        <ele>2631</ele>
        <time>2010-01-01T05:20:43Z</time>
      </trkpt>
      <trkpt lat="42.70673" lon="-0.44974">
        <ele>2635</ele>
        <time>2010-01-01T05:20:55Z</time>
      </trkpt>
      <trkpt lat="42.70697" lon="-0.45">
        <ele>2642</ele>
        <time>2010-01-01T05:21:07Z</time>
      </trkpt>
      <trkpt lat="42.70701" lon="-0.45006">
        <ele>2643</ele>
        <time>2010-01-01T05:21:09Z</time>
      </trkpt>
      <trkpt lat="42.70703" lon="-0.45013">
        <ele>2643</ele>
        <time>2010-01-01T05:21:12Z</time>
      </trkpt>
      <trkpt lat="42.70707" lon="-0.45017">
        <ele>2644</ele>
        <time>2010-01-01T05:21:13Z</time>
      </trkpt>
      <trkpt lat="42.70734" lon="-0.45038">
        <ele>2654</ele>
        <time>2010-01-01T05:21:26Z</time>
      </trkpt>
      <trkpt lat="42.70739" lon="-0.4504">
        <ele>2657</ele>
        <time>2010-01-01T05:21:28Z</time>
      </trkpt>
      <trkpt lat="42.7075" lon="-0.45043">
        <ele>2663</ele>
        <time>2010-01-01T05:21:33Z</time>
      </trkpt>
      <trkpt lat="42.70757" lon="-0.4505">
        <ele>2666</ele>
        <time>2010-01-01T05:21:36Z</time>
      </trkpt>
      <trkpt lat="42.70766" lon="-0.45042">
        <ele>2666</ele>
        <time>2010-01-01T05:21:40Z</time>
      </trkpt>
      <trkpt lat="42.70768" lon="-0.45034">
        <ele>2661</ele>
        <time>2010-01-01T05:21:43Z</time>
      </trkpt>
      <trkpt lat="42.70789" lon="-0.45">
        <ele>2644</ele>
        <time>2010-01-01T05:21:56Z</time>
      </trkpt>
      <trkpt lat="42.70806" lon="-0.4501">
        <ele>2648</ele>
        <time>2010-01-01T05:22:03Z</time>
      </trkpt>
      <trkpt lat="42.70815" lon="-0.45017">
        <ele>2653</ele>
        <time>2010-01-01T05:22:07Z</time>
      </trkpt>
      <trkpt lat="42.70818" lon="-0.45015">
        <ele>2651</ele>
        <time>2010-01-01T05:22:08Z</time>
      </trkpt>
      <trkpt lat="42.7082" lon="-0.4501">
        <ele>2646</ele>
        <time>2010-01-01T05:22:10Z</time>
      </trkpt>
      <trkpt lat="42.70824" lon="-0.45011">
        <ele>2646</ele>
        <time>2010-01-01T05:22:12Z</time>
      </trkpt>
      <trkpt lat="42.70829" lon="-0.45014">
        <ele>2648</ele>
        <time>2010-01-01T05:22:14Z</time>
      </trkpt>
      <trkpt lat="42.70838" lon="-0.44997">
        <ele>2633</ele>
        <time>2010-01-01T05:22:20Z</time>
      </trkpt>
      <trkpt lat="42.70846" lon="-0.45">
        <ele>2632</ele>
        <time>2010-01-01T05:22:24Z</time>
      </trkpt>
      <trkpt lat="42.7085" lon="-0.45008">
        <ele>2635</ele>
        <time>2010-01-01T05:22:26Z</time>
      </trkpt>
      <trkpt lat="42.7084" lon="-0.45032">
        <ele>2654</ele>
        <time>2010-01-01T05:22:34Z</time>
      </trkpt>
      <trkpt lat="42.70839" lon="-0.45046">
        <ele>2658</ele>
        <time>2010-01-01T05:22:38Z</time>
      </trkpt>
      <trkpt lat="42.70834" lon="-0.4505">
        <ele>2660</ele>
        <time>2010-01-01T05:22:41Z</time>
      </trkpt>
      <trkpt lat="42.70827" lon="-0.45051">
        <ele>2661</ele>
        <time>2010-01-01T05:22:44Z</time>
      </trkpt>
      <trkpt lat="42.70823" lon="-0.45059">
        <ele>2664</ele>
        <time>2010-01-01T05:22:46Z</time>
      </trkpt>
      <trkpt lat="42.70825" lon="-0.45074">
        <ele>2669</ele>
        <time>2010-01-01T05:22:51Z</time>
      </trkpt>
      <trkpt lat="42.70822" lon="-0.45088">
        <ele>2674</ele>
        <time>2010-01-01T05:22:55Z</time>
      </trkpt>
      <trkpt lat="42.70822" lon="-0.45106">
        <ele>2676</ele>
        <time>2010-01-01T05:23:00Z</time>
      </trkpt>
      <trkpt lat="42.70817" lon="-0.45117">
        <ele>2676</ele>
        <time>2010-01-01T05:23:04Z</time>
      </trkpt>
      <trkpt lat="42.70815" lon="-0.45129">
        <ele>2674</ele>
        <time>2010-01-01T05:23:08Z</time>
      </trkpt>
      <trkpt lat="42.70818" lon="-0.45143">
        <ele>2672</ele>
        <time>2010-01-01T05:23:12Z</time>
      </trkpt>
      <trkpt lat="42.7082" lon="-0.45176">
        <ele>2672</ele>
        <time>2010-01-01T05:23:22Z</time>
      </trkpt>
      <trkpt lat="42.70816" lon="-0.45182">
        <ele>2671</ele>
        <time>2010-01-01T05:23:24Z</time>
      </trkpt>
      <trkpt lat="42.70816" lon="-0.45192">
        <ele>2670</ele>
        <time>2010-01-01T05:23:27Z</time>
      </trkpt>
      <trkpt lat="42.70818" lon="-0.45197">
        <ele>2670</ele>
        <time>2010-01-01T05:23:28Z</time>
      </trkpt>
      <trkpt lat="42.70822" lon="-0.45239">
        <ele>2655</ele>
        <time>2010-01-01T05:23:41Z</time>
      </trkpt>
      <trkpt lat="42.70821" lon="-0.45248">
        <ele>2650</ele>
        <time>2010-01-01T05:23:44Z</time>
      </trkpt>
      <trkpt lat="42.70825" lon="-0.45275">
        <ele>2645</ele>
        <time>2010-01-01T05:23:52Z</time>
      </trkpt>
      <trkpt lat="42.70824" lon="-0.45289">
        <ele>2639</ele>
        <time>2010-01-01T05:23:56Z</time>
      </trkpt>
      <trkpt lat="42.70826" lon="-0.453">
        <ele>2634</ele>
        <time>2010-01-01T05:23:59Z</time>
      </trkpt>
      <trkpt lat="42.70823" lon="-0.45309">
        <ele>2630</ele>
        <time>2010-01-01T05:24:02Z</time>
      </trkpt>
      <trkpt lat="42.7082" lon="-0.4531">
        <ele>2629</ele>
        <time>2010-01-01T05:24:03Z</time>
      </trkpt>
      <trkpt lat="42.70821" lon="-0.45313">
        <ele>2629</ele>
        <time>2010-01-01T05:24:04Z</time>
      </trkpt>
      <trkpt lat="42.70818" lon="-0.45319">
        <ele>2627</ele>
        <time>2010-01-01T05:24:06Z</time>
      </trkpt>
      <trkpt lat="42.70819" lon="-0.45326">
        <ele>2626</ele>
        <time>2010-01-01T05:24:08Z</time>
      </trkpt>
      <trkpt lat="42.7081" lon="-0.45328">
        <ele>2623</ele>
        <time>2010-01-01T05:24:12Z</time>
      </trkpt>
      <trkpt lat="42.70809" lon="-0.4533">
        <ele>2622</ele>
        <time>2010-01-01T05:24:13Z</time>
      </trkpt>
      <trkpt lat="42.70811" lon="-0.45331">
        <ele>2623</ele>
        <time>2010-01-01T05:24:14Z</time>
      </trkpt>
      <trkpt lat="42.70808" lon="-0.45334">
        <ele>2621</ele>
        <time>2010-01-01T05:24:15Z</time>
      </trkpt>
      <trkpt lat="42.70813" lon="-0.45341">
        <ele>2620</ele>
        <time>2010-01-01T05:24:18Z</time>
      </trkpt>
      <trkpt lat="42.70817" lon="-0.45344">
        <ele>2620</ele>
        <time>2010-01-01T05:24:20Z</time>
      </trkpt>
      <trkpt lat="42.70818" lon="-0.45349">
        <ele>2619</ele>
        <time>2010-01-01T05:24:21Z</time>
      </trkpt>
      <trkpt lat="42.70819" lon="-0.45354">
        <ele>2617</ele>
        <time>2010-01-01T05:24:23Z</time>
      </trkpt>
      <trkpt lat="42.70815" lon="-0.4537">
        <ele>2611</ele>
        <time>2010-01-01T05:24:28Z</time>
      </trkpt>
      <trkpt lat="42.70815" lon="-0.45401">
        <ele>2603</ele>
        <time>2010-01-01T05:24:37Z</time>
      </trkpt>
      <trkpt lat="42.70821" lon="-0.45429">
        <ele>2603</ele>
        <time>2010-01-01T05:24:46Z</time>
      </trkpt>
      <trkpt lat="42.70826" lon="-0.45437">
        <ele>2605</ele>
        <time>2010-01-01T05:24:48Z</time>
      </trkpt>
      <trkpt lat="42.70843" lon="-0.4544">
        <ele>2613</ele>
        <time>2010-01-01T05:24:55Z</time>
      </trkpt>
      <trkpt lat="42.70849" lon="-0.45448">
        <ele>2615</ele>
        <time>2010-01-01T05:24:59Z</time>
      </trkpt>
      <trkpt lat="42.70856" lon="-0.45454">
        <ele>2617</ele>
        <time>2010-01-01T05:25:02Z</time>
      </trkpt>
      <trkpt lat="42.70858" lon="-0.4545">
        <ele>2618</ele>
        <time>2010-01-01T05:25:03Z</time>
      </trkpt>
      <trkpt lat="42.70865" lon="-0.45451">
        <ele>2620</ele>
        <time>2010-01-01T05:25:06Z</time>
      </trkpt>
      <trkpt lat="42.70867" lon="-0.45448">
        <ele>2620</ele>
        <time>2010-01-01T05:25:07Z</time>
      </trkpt>
      <trkpt lat="42.7087" lon="-0.45448">
        <ele>2621</ele>
        <time>2010-01-01T05:25:09Z</time>
      </trkpt>
      <trkpt lat="42.70872" lon="-0.45445">
        <ele>2620</ele>
        <time>2010-01-01T05:25:10Z</time>
      </trkpt>
      <trkpt lat="42.70875" lon="-0.45446">
        <ele>2621</ele>
        <time>2010-01-01T05:25:11Z</time>
      </trkpt>
      <trkpt lat="42.70877" lon="-0.45459">
        <ele>2625</ele>
        <time>2010-01-01T05:25:15Z</time>
      </trkpt>
      <trkpt lat="42.70878" lon="-0.4546">
        <ele>2626</ele>
        <time>2010-01-01T05:25:16Z</time>
      </trkpt>
      <trkpt lat="42.70878" lon="-0.45463">
        <ele>2627</ele>
        <time>2010-01-01T05:25:16Z</time>
      </trkpt>
      <trkpt lat="42.70881" lon="-0.45466">
        <ele>2629</ele>
        <time>2010-01-01T05:25:18Z</time>
      </trkpt>
      <trkpt lat="42.70882" lon="-0.45471">
        <ele>2632</ele>
        <time>2010-01-01T05:25:20Z</time>
      </trkpt>
      <trkpt lat="42.7088" lon="-0.45482">
        <ele>2637</ele>
        <time>2010-01-01T05:25:23Z</time>
      </trkpt>
      <trkpt lat="42.70882" lon="-0.45491">
        <ele>2642</ele>
        <time>2010-01-01T05:25:25Z</time>
      </trkpt>
      <trkpt lat="42.7088" lon="-0.45504">
        <ele>2648</ele>
        <time>2010-01-01T05:25:29Z</time>
      </trkpt>
      <trkpt lat="42.70878" lon="-0.45511">
        <ele>2649</ele>
        <time>2010-01-01T05:25:32Z</time>
      </trkpt>
      <trkpt lat="42.70867" lon="-0.45532">
        <ele>2649</ele>
        <time>2010-01-01T05:25:39Z</time>
      </trkpt>
      <trkpt lat="42.70865" lon="-0.45539">
        <ele>2651</ele>
        <time>2010-01-01T05:25:41Z</time>
      </trkpt>
      <trkpt lat="42.70859" lon="-0.45545">
        <ele>2651</ele>
        <time>2010-01-01T05:25:44Z</time>
      </trkpt>
      <trkpt lat="42.70847" lon="-0.45556">
        <ele>2645</ele>
        <time>2010-01-01T05:25:50Z</time>
      </trkpt>
      <trkpt lat="42.70842" lon="-0.45566">
        <ele>2645</ele>
        <time>2010-01-01T05:25:54Z</time>
      </trkpt>
      <trkpt lat="42.70838" lon="-0.45566">
        <ele>2642</ele>
        <time>2010-01-01T05:25:55Z</time>
      </trkpt>
      <trkpt lat="42.70832" lon="-0.45569">
        <ele>2639</ele>
        <time>2010-01-01T05:25:58Z</time>
      </trkpt>
      <trkpt lat="42.70825" lon="-0.45578">
        <ele>2639</ele>
        <time>2010-01-01T05:26:02Z</time>
      </trkpt>
      <trkpt lat="42.70824" lon="-0.45594">
        <ele>2645</ele>
        <time>2010-01-01T05:26:07Z</time>
      </trkpt>
      <trkpt lat="42.70819" lon="-0.45602">
        <ele>2645</ele>
        <time>2010-01-01T05:26:10Z</time>
      </trkpt>
      <trkpt lat="42.70818" lon="-0.45607">
        <ele>2647</ele>
        <time>2010-01-01T05:26:11Z</time>
      </trkpt>
      <trkpt lat="42.7082" lon="-0.4561">
        <ele>2649</ele>
        <time>2010-01-01T05:26:13Z</time>
      </trkpt>
      <trkpt lat="42.70821" lon="-0.45615">
        <ele>2651</ele>
        <time>2010-01-01T05:26:14Z</time>
      </trkpt>
      <trkpt lat="42.70819" lon="-0.45618">
        <ele>2651</ele>
        <time>2010-01-01T05:26:15Z</time>
      </trkpt>
      <trkpt lat="42.70818" lon="-0.45623">
        <ele>2651</ele>
        <time>2010-01-01T05:26:17Z</time>
      </trkpt>
      <trkpt lat="42.7081" lon="-0.45634">
        <ele>2651</ele>
        <time>2010-01-01T05:26:22Z</time>
      </trkpt>
      <trkpt lat="42.70809" lon="-0.45637">
        <ele>2652</ele>
        <time>2010-01-01T05:26:22Z</time>
      </trkpt>
      <trkpt lat="42.70803" lon="-0.45645">
        <ele>2652</ele>
        <time>2010-01-01T05:26:26Z</time>
      </trkpt>
      <trkpt lat="42.70802" lon="-0.45663">
        <ele>2657</ele>
        <time>2010-01-01T05:26:31Z</time>
      </trkpt>
      <trkpt lat="42.70797" lon="-0.45681">
        <ele>2662</ele>
        <time>2010-01-01T05:26:37Z</time>
      </trkpt>
      <trkpt lat="42.70786" lon="-0.45694">
        <ele>2667</ele>
        <time>2010-01-01T05:26:43Z</time>
      </trkpt>
      <trkpt lat="42.70777" lon="-0.45698">
        <ele>2668</ele>
        <time>2010-01-01T05:26:46Z</time>
      </trkpt>
      <trkpt lat="42.70762" lon="-0.45716">
        <ele>2672</ele>
        <time>2010-01-01T05:26:54Z</time>
      </trkpt>
      <trkpt lat="42.7076" lon="-0.45716">
        <ele>2672</ele>
        <time>2010-01-01T05:26:55Z</time>
      </trkpt>
      <trkpt lat="42.70757" lon="-0.4572">
        <ele>2673</ele>
        <time>2010-01-01T05:26:57Z</time>
      </trkpt>
      <trkpt lat="42.70748" lon="-0.4574">
        <ele>2684</ele>
        <time>2010-01-01T05:27:04Z</time>
      </trkpt>
      <trkpt lat="42.7074" lon="-0.45768">
        <ele>2691</ele>
        <time>2010-01-01T05:27:13Z</time>
      </trkpt>
      <trkpt lat="42.70728" lon="-0.45792">
        <ele>2693</ele>
        <time>2010-01-01T05:27:21Z</time>
      </trkpt>
      <trkpt lat="42.70713" lon="-0.45811">
        <ele>2697</ele>
        <time>2010-01-01T05:27:29Z</time>
      </trkpt>
      <trkpt lat="42.70706" lon="-0.45814">
        <ele>2698</ele>
        <time>2010-01-01T05:27:32Z</time>
      </trkpt>
      <trkpt lat="42.70705" lon="-0.45811">
        <ele>2697</ele>
        <time>2010-01-01T05:27:33Z</time>
      </trkpt>
      <trkpt lat="42.70702" lon="-0.45813">
        <ele>2698</ele>
        <time>2010-01-01T05:27:35Z</time>
      </trkpt>
      <trkpt lat="42.70694" lon="-0.45825">
        <ele>2702</ele>
        <time>2010-01-01T05:27:40Z</time>
      </trkpt>
      <trkpt lat="42.70684" lon="-0.45833">
        <ele>2703</ele>
        <time>2010-01-01T05:27:44Z</time>
      </trkpt>
      <trkpt lat="42.70661" lon="-0.4586">
        <ele>2710</ele>
        <time>2010-01-01T05:27:56Z</time>
      </trkpt>
      <trkpt lat="42.70655" lon="-0.45871">
        <ele>2711</ele>
        <time>2010-01-01T05:28:00Z</time>
      </trkpt>
      <trkpt lat="42.70665" lon="-0.4588">
        <ele>2715</ele>
        <time>2010-01-01T05:28:05Z</time>
      </trkpt>
      <trkpt lat="42.70675" lon="-0.45901">
        <ele>2708</ele>
        <time>2010-01-01T05:28:13Z</time>
      </trkpt>
      <trkpt lat="42.70683" lon="-0.45904">
        <ele>2703</ele>
        <time>2010-01-01T05:28:16Z</time>
      </trkpt>
      <trkpt lat="42.70688" lon="-0.45911">
        <ele>2696</ele>
        <time>2010-01-01T05:28:19Z</time>
      </trkpt>
      <trkpt lat="42.70691" lon="-0.45922">
        <ele>2686</ele>
        <time>2010-01-01T05:28:22Z</time>
      </trkpt>
      <trkpt lat="42.70696" lon="-0.45931">
        <ele>2675</ele>
        <time>2010-01-01T05:28:26Z</time>
      </trkpt>
      <trkpt lat="42.707" lon="-0.45948">
        <ele>2664</ele>
        <time>2010-01-01T05:28:31Z</time>
      </trkpt>
      <trkpt lat="42.70703" lon="-0.45953">
        <ele>2664</ele>
        <time>2010-01-01T05:28:33Z</time>
      </trkpt>
      <trkpt lat="42.70708" lon="-0.45944">
        <ele>2659</ele>
        <time>2010-01-01T05:28:36Z</time>
      </trkpt>
      <trkpt lat="42.70718" lon="-0.45935">
        <ele>2660</ele>
        <time>2010-01-01T05:28:41Z</time>
      </trkpt>
      <trkpt lat="42.7073" lon="-0.45937">
        <ele>2652</ele>
        <time>2010-01-01T05:28:46Z</time>
      </trkpt>
      <trkpt lat="42.70734" lon="-0.45936">
        <ele>2652</ele>
        <time>2010-01-01T05:28:48Z</time>
      </trkpt>
      <trkpt lat="42.70738" lon="-0.45936">
        <ele>2650</ele>
        <time>2010-01-01T05:28:49Z</time>
      </trkpt>
      <trkpt lat="42.70745" lon="-0.45938">
        <ele>2645</ele>
        <time>2010-01-01T05:28:52Z</time>
      </trkpt>
      <trkpt lat="42.70749" lon="-0.4594">
        <ele>2641</ele>
        <time>2010-01-01T05:28:54Z</time>
      </trkpt>
      <trkpt lat="42.70756" lon="-0.45936">
        <ele>2644</ele>
        <time>2010-01-01T05:28:57Z</time>
      </trkpt>
      <trkpt lat="42.70763" lon="-0.45926">
        <ele>2651</ele>
        <time>2010-01-01T05:29:01Z</time>
      </trkpt>
      <trkpt lat="42.70768" lon="-0.45923">
        <ele>2652</ele>
        <time>2010-01-01T05:29:03Z</time>
      </trkpt>
      <trkpt lat="42.70772" lon="-0.45918">
        <ele>2654</ele>
        <time>2010-01-01T05:29:06Z</time>
      </trkpt>
      <trkpt lat="42.7078" lon="-0.45918">
        <ele>2651</ele>
        <time>2010-01-01T05:29:09Z</time>
      </trkpt>
      <trkpt lat="42.7079" lon="-0.45898">
        <ele>2650</ele>
        <time>2010-01-01T05:29:16Z</time>
      </trkpt>
      <trkpt lat="42.70794" lon="-0.45899">
        <ele>2647</ele>
        <time>2010-01-01T05:29:17Z</time>
      </trkpt>
      <trkpt lat="42.70793" lon="-0.45906">
        <ele>2646</ele>
        <time>2010-01-01T05:29:19Z</time>
      </trkpt>
      <trkpt lat="42.70795" lon="-0.45907">
        <ele>2645</ele>
        <time>2010-01-01T05:29:20Z</time>
      </trkpt>
      <trkpt lat="42.70804" lon="-0.45906">
        <ele>2639</ele>
        <time>2010-01-01T05:29:24Z</time>
      </trkpt>
      <trkpt lat="42.70807" lon="-0.4591">
        <ele>2637</ele>
        <time>2010-01-01T05:29:25Z</time>
      </trkpt>
      <trkpt lat="42.70808" lon="-0.4591">
        <ele>2636</ele>
        <time>2010-01-01T05:29:26Z</time>
      </trkpt>
      <trkpt lat="42.70809" lon="-0.45916">
        <ele>2634</ele>
        <time>2010-01-01T05:29:27Z</time>
      </trkpt>
      <trkpt lat="42.70814" lon="-0.45912">
        <ele>2632</ele>
        <time>2010-01-01T05:29:30Z</time>
      </trkpt>
      <trkpt lat="42.70815" lon="-0.45928">
        <ele>2626</ele>
        <time>2010-01-01T05:29:34Z</time>
      </trkpt>
      <trkpt lat="42.70817" lon="-0.4593">
        <ele>2625</ele>
        <time>2010-01-01T05:29:35Z</time>
      </trkpt>
      <trkpt lat="42.70822" lon="-0.4593">
        <ele>2622</ele>
        <time>2010-01-01T05:29:37Z</time>
      </trkpt>
      <trkpt lat="42.70823" lon="-0.45933">
        <ele>2621</ele>
        <time>2010-01-01T05:29:38Z</time>
      </trkpt>
      <trkpt lat="42.70829" lon="-0.45938">
        <ele>2616</ele>
        <time>2010-01-01T05:29:41Z</time>
      </trkpt>
      <trkpt lat="42.70829" lon="-0.4595">
        <ele>2613</ele>
        <time>2010-01-01T05:29:45Z</time>
      </trkpt>
      <trkpt lat="42.70831" lon="-0.45956">
        <ele>2611</ele>
        <time>2010-01-01T05:29:47Z</time>
      </trkpt>
      <trkpt lat="42.70831" lon="-0.45968">
        <ele>2607</ele>
        <time>2010-01-01T05:29:50Z</time>
      </trkpt>
      <trkpt lat="42.70835" lon="-0.45972">
        <ele>2605</ele>
        <time>2010-01-01T05:29:52Z</time>
      </trkpt>
      <trkpt lat="42.70841" lon="-0.45974">
        <ele>2602</ele>
        <time>2010-01-01T05:29:55Z</time>
      </trkpt>
      <trkpt lat="42.70848" lon="-0.45973">
        <ele>2600</ele>
        <time>2010-01-01T05:29:58Z</time>
      </trkpt>
      <trkpt lat="42.70851" lon="-0.45981">
        <ele>2597</ele>
        <time>2010-01-01T05:30:00Z</time>
      </trkpt>
      <trkpt lat="42.70853" lon="-0.45984">
        <ele>2595</ele>
        <time>2010-01-01T05:30:01Z</time>
      </trkpt>
      <trkpt lat="42.70854" lon="-0.45989">
        <ele>2594</ele>
        <time>2010-01-01T05:30:03Z</time>
      </trkpt>
      <trkpt lat="42.70852" lon="-0.45996">
        <ele>2593</ele>
        <time>2010-01-01T05:30:05Z</time>
      </trkpt>
      <trkpt lat="42.70853" lon="-0.46005">
        <ele>2590</ele>
        <time>2010-01-01T05:30:08Z</time>
      </trkpt>
      <trkpt lat="42.70852" lon="-0.46024">
        <ele>2585</ele>
        <time>2010-01-01T05:30:13Z</time>
      </trkpt>
      <trkpt lat="42.70854" lon="-0.46032">
        <ele>2582</ele>
        <time>2010-01-01T05:30:16Z</time>
      </trkpt>
      <trkpt lat="42.70857" lon="-0.46033">
        <ele>2580</ele>
        <time>2010-01-01T05:30:17Z</time>
      </trkpt>
      <trkpt lat="42.70859" lon="-0.46035">
        <ele>2579</ele>
        <time>2010-01-01T05:30:18Z</time>
      </trkpt>
      <trkpt lat="42.70856" lon="-0.46047">
        <ele>2576</ele>
        <time>2010-01-01T05:30:22Z</time>
      </trkpt>
      <trkpt lat="42.70861" lon="-0.46049">
        <ele>2574</ele>
        <time>2010-01-01T05:30:24Z</time>
      </trkpt>
      <trkpt lat="42.70863" lon="-0.46065">
        <ele>2567</ele>
        <time>2010-01-01T05:30:29Z</time>
      </trkpt>
      <trkpt lat="42.70872" lon="-0.46065">
        <ele>2564</ele>
        <time>2010-01-01T05:30:32Z</time>
      </trkpt>
      <trkpt lat="42.7088" lon="-0.46059">
        <ele>2562</ele>
        <time>2010-01-01T05:30:36Z</time>
      </trkpt>
      <trkpt lat="42.7089" lon="-0.46054">
        <ele>2560</ele>
        <time>2010-01-01T05:30:40Z</time>
      </trkpt>
      <trkpt lat="42.70897" lon="-0.46049">
        <ele>2560</ele>
        <time>2010-01-01T05:30:43Z</time>
      </trkpt>
      <trkpt lat="42.70897" lon="-0.46053">
        <ele>2558</ele>
        <time>2010-01-01T05:30:45Z</time>
      </trkpt>
      <trkpt lat="42.70892" lon="-0.4607">
        <ele>2555</ele>
        <time>2010-01-01T05:30:50Z</time>
      </trkpt>
      <trkpt lat="42.70892" lon="-0.46078">
        <ele>2552</ele>
        <time>2010-01-01T05:30:52Z</time>
      </trkpt>
      <trkpt lat="42.70895" lon="-0.46086">
        <ele>2550</ele>
        <time>2010-01-01T05:30:55Z</time>
      </trkpt>
      <trkpt lat="42.70881" lon="-0.46115">
        <ele>2547</ele>
        <time>2010-01-01T05:31:05Z</time>
      </trkpt>
      <trkpt lat="42.70879" lon="-0.46129">
        <ele>2543</ele>
        <time>2010-01-01T05:31:09Z</time>
      </trkpt>
      <trkpt lat="42.70882" lon="-0.46162">
        <ele>2534</ele>
        <time>2010-01-01T05:31:19Z</time>
      </trkpt>
      <trkpt lat="42.70882" lon="-0.46172">
        <ele>2532</ele>
        <time>2010-01-01T05:31:22Z</time>
      </trkpt>
      <trkpt lat="42.70887" lon="-0.46183">
        <ele>2527</ele>
        <time>2010-01-01T05:31:26Z</time>
      </trkpt>
      <trkpt lat="42.70885" lon="-0.46194">
        <ele>2524</ele>
        <time>2010-01-01T05:31:29Z</time>
      </trkpt>
      <trkpt lat="42.7089" lon="-0.46199">
        <ele>2521</ele>
        <time>2010-01-01T05:31:32Z</time>
      </trkpt>
      <trkpt lat="42.70891" lon="-0.46204">
        <ele>2520</ele>
        <time>2010-01-01T05:31:33Z</time>
      </trkpt>
      <trkpt lat="42.70892" lon="-0.4622">
        <ele>2516</ele>
        <time>2010-01-01T05:31:38Z</time>
      </trkpt>
      <trkpt lat="42.70893" lon="-0.46226">
        <ele>2515</ele>
        <time>2010-01-01T05:31:39Z</time>
      </trkpt>
      <trkpt lat="42.70898" lon="-0.46231">
        <ele>2514</ele>
        <time>2010-01-01T05:31:42Z</time>
      </trkpt>
      <trkpt lat="42.70897" lon="-0.4625">
        <ele>2510</ele>
        <time>2010-01-01T05:31:47Z</time>
      </trkpt>
      <trkpt lat="42.709" lon="-0.4627">
        <ele>2505</ele>
        <time>2010-01-01T05:31:53Z</time>
      </trkpt>
      <trkpt lat="42.70892" lon="-0.46304">
        <ele>2494</ele>
        <time>2010-01-01T05:32:04Z</time>
      </trkpt>
      <trkpt lat="42.70892" lon="-0.4631">
        <ele>2493</ele>
        <time>2010-01-01T05:32:06Z</time>
      </trkpt>
      <trkpt lat="42.70878" lon="-0.46332">
        <ele>2489</ele>
        <time>2010-01-01T05:32:14Z</time>
      </trkpt>
      <trkpt lat="42.70873" lon="-0.46336">
        <ele>2488</ele>
        <time>2010-01-01T05:32:16Z</time>
      </trkpt>
      <trkpt lat="42.70874" lon="-0.46339">
        <ele>2488</ele>
        <time>2010-01-01T05:32:17Z</time>
      </trkpt>
      <trkpt lat="42.70873" lon="-0.46353">
        <ele>2486</ele>
        <time>2010-01-01T05:32:21Z</time>
      </trkpt>
      <trkpt lat="42.7088" lon="-0.46405">
        <ele>2480</ele>
        <time>2010-01-01T05:32:37Z</time>
      </trkpt>
      <trkpt lat="42.70871" lon="-0.46444">
        <ele>2477</ele>
        <time>2010-01-01T05:32:49Z</time>
      </trkpt>
      <trkpt lat="42.70872" lon="-0.46458">
        <ele>2477</ele>
        <time>2010-01-01T05:32:53Z</time>
      </trkpt>
      <trkpt lat="42.70864" lon="-0.4647">
        <ele>2477</ele>
        <time>2010-01-01T05:32:58Z</time>
      </trkpt>
      <trkpt lat="42.70851" lon="-0.46479">
        <ele>2472</ele>
        <time>2010-01-01T05:33:04Z</time>
      </trkpt>
      <trkpt lat="42.70848" lon="-0.46485">
        <ele>2471</ele>
        <time>2010-01-01T05:33:06Z</time>
      </trkpt>
      <trkpt lat="42.70834" lon="-0.46498">
        <ele>2464</ele>
        <time>2010-01-01T05:33:12Z</time>
      </trkpt>
      <trkpt lat="42.70822" lon="-0.46505">
        <ele>2458</ele>
        <time>2010-01-01T05:33:18Z</time>
      </trkpt>
      <trkpt lat="42.70817" lon="-0.46504">
        <ele>2456</ele>
        <time>2010-01-01T05:33:20Z</time>
      </trkpt>
      <trkpt lat="42.70809" lon="-0.46498">
        <ele>2453</ele>
        <time>2010-01-01T05:33:23Z</time>
      </trkpt>
      <trkpt lat="42.70806" lon="-0.46498">
        <ele>2452</ele>
        <time>2010-01-01T05:33:25Z</time>
      </trkpt>
      <trkpt lat="42.70796" lon="-0.46506">
        <ele>2449</ele>
        <time>2010-01-01T05:33:29Z</time>
      </trkpt>
      <trkpt lat="42.70788" lon="-0.46504">
        <ele>2447</ele>
        <time>2010-01-01T05:33:32Z</time>
      </trkpt>
      <trkpt lat="42.70772" lon="-0.46502">
        <ele>2443</ele>
        <time>2010-01-01T05:33:39Z</time>
      </trkpt>
      <trkpt lat="42.70767" lon="-0.46511">
        <ele>2440</ele>
        <time>2010-01-01T05:33:42Z</time>
      </trkpt>
      <trkpt lat="42.70764" lon="-0.46514">
        <ele>2439</ele>
        <time>2010-01-01T05:33:44Z</time>
      </trkpt>
      <trkpt lat="42.7076" lon="-0.46511">
        <ele>2438</ele>
        <time>2010-01-01T05:33:45Z</time>
      </trkpt>
      <trkpt lat="42.70757" lon="-0.46516">
        <ele>2437</ele>
        <time>2010-01-01T05:33:47Z</time>
      </trkpt>
      <trkpt lat="42.70754" lon="-0.46516">
        <ele>2436</ele>
        <time>2010-01-01T05:33:49Z</time>
      </trkpt>
      <trkpt lat="42.70748" lon="-0.46513">
        <ele>2434</ele>
        <time>2010-01-01T05:33:51Z</time>
      </trkpt>
      <trkpt lat="42.7074" lon="-0.46517">
        <ele>2431</ele>
        <time>2010-01-01T05:33:54Z</time>
      </trkpt>
      <trkpt lat="42.70732" lon="-0.46517">
        <ele>2428</ele>
        <time>2010-01-01T05:33:58Z</time>
      </trkpt>
      <trkpt lat="42.70723" lon="-0.4652">
        <ele>2425</ele>
        <time>2010-01-01T05:34:01Z</time>
      </trkpt>
      <trkpt lat="42.70712" lon="-0.46516">
        <ele>2421</ele>
        <time>2010-01-01T05:34:06Z</time>
      </trkpt>
      <trkpt lat="42.707" lon="-0.46515">
        <ele>2417</ele>
        <time>2010-01-01T05:34:11Z</time>
      </trkpt>
      <trkpt lat="42.70664" lon="-0.4652">
        <ele>2407</ele>
        <time>2010-01-01T05:34:25Z</time>
      </trkpt>
      <trkpt lat="42.70639" lon="-0.46539">
        <ele>2404</ele>
        <time>2010-01-01T05:34:36Z</time>
      </trkpt>
      <trkpt lat="42.70632" lon="-0.46541">
        <ele>2402</ele>
        <time>2010-01-01T05:34:40Z</time>
      </trkpt>
      <trkpt lat="42.7062" lon="-0.46535">
        <ele>2400</ele>
        <time>2010-01-01T05:34:45Z</time>
      </trkpt>
      <trkpt lat="42.70607" lon="-0.46515">
        <ele>2400</ele>
        <time>2010-01-01T05:34:52Z</time>
      </trkpt>
      <trkpt lat="42.70598" lon="-0.465">
        <ele>2401</ele>
        <time>2010-01-01T05:34:58Z</time>
      </trkpt>
      <trkpt lat="42.70596" lon="-0.46498">
        <ele>2401</ele>
        <time>2010-01-01T05:34:59Z</time>
      </trkpt>
      <trkpt lat="42.7059" lon="-0.46486">
        <ele>2401</ele>
        <time>2010-01-01T05:35:03Z</time>
      </trkpt>
      <trkpt lat="42.70586" lon="-0.46482">
        <ele>2401</ele>
        <time>2010-01-01T05:35:05Z</time>
      </trkpt>
      <trkpt lat="42.70575" lon="-0.46479">
        <ele>2399</ele>
        <time>2010-01-01T05:35:10Z</time>
      </trkpt>
      <trkpt lat="42.70569" lon="-0.46467">
        <ele>2399</ele>
        <time>2010-01-01T05:35:14Z</time>
      </trkpt>
      <trkpt lat="42.70566" lon="-0.46467">
        <ele>2398</ele>
        <time>2010-01-01T05:35:15Z</time>
      </trkpt>
      <trkpt lat="42.70557" lon="-0.46466">
        <ele>2396</ele>
        <time>2010-01-01T05:35:19Z</time>
      </trkpt>
      <trkpt lat="42.70542" lon="-0.46473">
        <ele>2392</ele>
        <time>2010-01-01T05:35:25Z</time>
      </trkpt>
      <trkpt lat="42.70534" lon="-0.46484">
        <ele>2390</ele>
        <time>2010-01-01T05:35:30Z</time>
      </trkpt>
      <trkpt lat="42.70532" lon="-0.46482">
        <ele>2390</ele>
        <time>2010-01-01T05:35:31Z</time>
      </trkpt>
      <trkpt lat="42.70525" lon="-0.46482">
        <ele>2389</ele>
        <time>2010-01-01T05:35:33Z</time>
      </trkpt>
      <trkpt lat="42.70516" lon="-0.46479">
        <ele>2388</ele>
        <time>2010-01-01T05:35:37Z</time>
      </trkpt>
      <trkpt lat="42.70504" lon="-0.46478">
        <ele>2387</ele>
        <time>2010-01-01T05:35:42Z</time>
      </trkpt>
      <trkpt lat="42.70486" lon="-0.46493">
        <ele>2386</ele>
        <time>2010-01-01T05:35:50Z</time>
      </trkpt>
      <trkpt lat="42.70462" lon="-0.46499">
        <ele>2386</ele>
        <time>2010-01-01T05:36:00Z</time>
      </trkpt>
      <trkpt lat="42.70457" lon="-0.46502">
        <ele>2385</ele>
        <time>2010-01-01T05:36:02Z</time>
      </trkpt>
      <trkpt lat="42.70444" lon="-0.465">
        <ele>2386</ele>
        <time>2010-01-01T05:36:07Z</time>
      </trkpt>
      <trkpt lat="42.70415" lon="-0.46499">
        <ele>2387</ele>
        <time>2010-01-01T05:36:19Z</time>
      </trkpt>
      <trkpt lat="42.70401" lon="-0.46495">
        <ele>2387</ele>
        <time>2010-01-01T05:36:25Z</time>
      </trkpt>
      <trkpt lat="42.70392" lon="-0.46499">
        <ele>2387</ele>
        <time>2010-01-01T05:36:29Z</time>
      </trkpt>
      <trkpt lat="42.70384" lon="-0.46509">
        <ele>2387</ele>
        <time>2010-01-01T05:36:33Z</time>
      </trkpt>
      <trkpt lat="42.70356" lon="-0.46537">
        <ele>2387</ele>
        <time>2010-01-01T05:36:47Z</time>
      </trkpt>
      <trkpt lat="42.70316" lon="-0.46572">
        <ele>2388</ele>
        <time>2010-01-01T05:37:06Z</time>
      </trkpt>
      <trkpt lat="42.70307" lon="-0.46588">
        <ele>2389</ele>
        <time>2010-01-01T05:37:12Z</time>
      </trkpt>
      <trkpt lat="42.70287" lon="-0.46609">
        <ele>2386</ele>
        <time>2010-01-01T05:37:22Z</time>
      </trkpt>
      <trkpt lat="42.70271" lon="-0.4662">
        <ele>2385</ele>
        <time>2010-01-01T05:37:29Z</time>
      </trkpt>
      <trkpt lat="42.70251" lon="-0.46644">
        <ele>2382</ele>
        <time>2010-01-01T05:37:40Z</time>
      </trkpt>
      <trkpt lat="42.70238" lon="-0.46655">
        <ele>2379</ele>
        <time>2010-01-01T05:37:46Z</time>
      </trkpt>
      <trkpt lat="42.70234" lon="-0.46664">
        <ele>2378</ele>
        <time>2010-01-01T05:37:49Z</time>
      </trkpt>
      <trkpt lat="42.7023" lon="-0.4667">
        <ele>2376</ele>
        <time>2010-01-01T05:37:51Z</time>
      </trkpt>
      <trkpt lat="42.70217" lon="-0.46682">
        <ele>2373</ele>
        <time>2010-01-01T05:37:58Z</time>
      </trkpt>
      <trkpt lat="42.70183" lon="-0.46725">
        <ele>2362</ele>
        <time>2010-01-01T05:38:16Z</time>
      </trkpt>
      <trkpt lat="42.70157" lon="-0.46736">
        <ele>2358</ele>
        <time>2010-01-01T05:38:27Z</time>
      </trkpt>
      <trkpt lat="42.70121" lon="-0.46757">
        <ele>2353</ele>
        <time>2010-01-01T05:38:43Z</time>
      </trkpt>
      <trkpt lat="42.70106" lon="-0.46761">
        <ele>2352</ele>
        <time>2010-01-01T05:38:49Z</time>
      </trkpt>
      <trkpt lat="42.70087" lon="-0.4677">
        <ele>2351</ele>
        <time>2010-01-01T05:38:57Z</time>
      </trkpt>
      <trkpt lat="42.70064" lon="-0.46785">
        <ele>2348</ele>
        <time>2010-01-01T05:39:07Z</time>
      </trkpt>
      <trkpt lat="42.7004" lon="-0.46806">
        <ele>2341</ele>
        <time>2010-01-01T05:39:19Z</time>
      </trkpt>
      <trkpt lat="42.70031" lon="-0.46823">
        <ele>2336</ele>
        <time>2010-01-01T05:39:25Z</time>
      </trkpt>
      <trkpt lat="42.7002" lon="-0.4684">
        <ele>2331</ele>
        <time>2010-01-01T05:39:31Z</time>
      </trkpt>
      <trkpt lat="42.70013" lon="-0.46868">
        <ele>2327</ele>
        <time>2010-01-01T05:39:40Z</time>
      </trkpt>
      <trkpt lat="42.70005" lon="-0.46881">
        <ele>2325</ele>
        <time>2010-01-01T05:39:45Z</time>
      </trkpt>
      <trkpt lat="42.69994" lon="-0.46905">
        <ele>2321</ele>
        <time>2010-01-01T05:39:53Z</time>
      </trkpt>
      <trkpt lat="42.69978" lon="-0.4693">
        <ele>2313</ele>
        <time>2010-01-01T05:40:03Z</time>
      </trkpt>
      <trkpt lat="42.69947" lon="-0.46992">
        <ele>2296</ele>
        <time>2010-01-01T05:40:25Z</time>
      </trkpt>
      <trkpt lat="42.69934" lon="-0.47011">
        <ele>2291</ele>
        <time>2010-01-01T05:40:33Z</time>
      </trkpt>
      <trkpt lat="42.69923" lon="-0.47039">
        <ele>2288</ele>
        <time>2010-01-01T05:40:43Z</time>
      </trkpt>
      <trkpt lat="42.69915" lon="-0.47071">
        <ele>2282</ele>
        <time>2010-01-01T05:40:52Z</time>
      </trkpt>
      <trkpt lat="42.6989" lon="-0.47106">
        <ele>2273</ele>
        <time>2010-01-01T05:41:07Z</time>
      </trkpt>
      <trkpt lat="42.69878" lon="-0.47132">
        <ele>2270</ele>
        <time>2010-01-01T05:41:16Z</time>
      </trkpt>
      <trkpt lat="42.69854" lon="-0.47171">
        <ele>2260</ele>
        <time>2010-01-01T05:41:31Z</time>
      </trkpt>
      <trkpt lat="42.69852" lon="-0.47181">
        <ele>2259</ele>
        <time>2010-01-01T05:41:34Z</time>
      </trkpt>
      <trkpt lat="42.69841" lon="-0.47194">
        <ele>2254</ele>
        <time>2010-01-01T05:41:39Z</time>
      </trkpt>
      <trkpt lat="42.69831" lon="-0.47222">
        <ele>2246</ele>
        <time>2010-01-01T05:41:49Z</time>
      </trkpt>
      <trkpt lat="42.69806" lon="-0.47274">
        <ele>2235</ele>
        <time>2010-01-01T05:42:07Z</time>
      </trkpt>
      <trkpt lat="42.69801" lon="-0.4728">
        <ele>2232</ele>
        <time>2010-01-01T05:42:09Z</time>
      </trkpt>
      <trkpt lat="42.69791" lon="-0.47279">
        <ele>2228</ele>
        <time>2010-01-01T05:42:13Z</time>
      </trkpt>
      <trkpt lat="42.69788" lon="-0.4728">
        <ele>2226</ele>
        <time>2010-01-01T05:42:15Z</time>
      </trkpt>
      <trkpt lat="42.69782" lon="-0.47298">
        <ele>2220</ele>
        <time>2010-01-01T05:42:20Z</time>
      </trkpt>
      <trkpt lat="42.69776" lon="-0.47309">
        <ele>2215</ele>
        <time>2010-01-01T05:42:24Z</time>
      </trkpt>
      <trkpt lat="42.69775" lon="-0.47319">
        <ele>2213</ele>
        <time>2010-01-01T05:42:28Z</time>
      </trkpt>
      <trkpt lat="42.69771" lon="-0.47328">
        <ele>2211</ele>
        <time>2010-01-01T05:42:30Z</time>
      </trkpt>
      <trkpt lat="42.69771" lon="-0.47331">
        <ele>2210</ele>
        <time>2010-01-01T05:42:31Z</time>
      </trkpt>
      <trkpt lat="42.69764" lon="-0.47352">
        <ele>2205</ele>
        <time>2010-01-01T05:42:38Z</time>
      </trkpt>
      <trkpt lat="42.69756" lon="-0.47353">
        <ele>2202</ele>
        <time>2010-01-01T05:42:41Z</time>
      </trkpt>
      <trkpt lat="42.69732" lon="-0.4735">
        <ele>2194</ele>
        <time>2010-01-01T05:42:51Z</time>
      </trkpt>
      <trkpt lat="42.69722" lon="-0.47352">
        <ele>2191</ele>
        <time>2010-01-01T05:42:55Z</time>
      </trkpt>
      <trkpt lat="42.69714" lon="-0.47351">
        <ele>2188</ele>
        <time>2010-01-01T05:42:58Z</time>
      </trkpt>
      <trkpt lat="42.69705" lon="-0.47352">
        <ele>2185</ele>
        <time>2010-01-01T05:43:02Z</time>
      </trkpt>
      <trkpt lat="42.69691" lon="-0.47364">
        <ele>2177</ele>
        <time>2010-01-01T05:43:08Z</time>
      </trkpt>
      <trkpt lat="42.69677" lon="-0.4738">
        <ele>2166</ele>
        <time>2010-01-01T05:43:15Z</time>
      </trkpt>
      <trkpt lat="42.69667" lon="-0.4738">
        <ele>2159</ele>
        <time>2010-01-01T05:43:20Z</time>
      </trkpt>
      <trkpt lat="42.69659" lon="-0.47378">
        <ele>2157</ele>
        <time>2010-01-01T05:43:23Z</time>
      </trkpt>
      <trkpt lat="42.69638" lon="-0.47379">
        <ele>2149</ele>
        <time>2010-01-01T05:43:31Z</time>
      </trkpt>
      <trkpt lat="42.69609" lon="-0.47395">
        <ele>2139</ele>
        <time>2010-01-01T05:43:44Z</time>
      </trkpt>
      <trkpt lat="42.69601" lon="-0.47401">
        <ele>2135</ele>
        <time>2010-01-01T05:43:48Z</time>
      </trkpt>
      <trkpt lat="42.6959" lon="-0.47431">
        <ele>2124</ele>
        <time>2010-01-01T05:43:57Z</time>
      </trkpt>
      <trkpt lat="42.69576" lon="-0.47445">
        <ele>2114</ele>
        <time>2010-01-01T05:44:04Z</time>
      </trkpt>
      <trkpt lat="42.69574" lon="-0.47449">
        <ele>2113</ele>
        <time>2010-01-01T05:44:05Z</time>
      </trkpt>
      <trkpt lat="42.69566" lon="-0.47454">
        <ele>2108</ele>
        <time>2010-01-01T05:44:09Z</time>
      </trkpt>
      <trkpt lat="42.69559" lon="-0.47464">
        <ele>2103</ele>
        <time>2010-01-01T05:44:13Z</time>
      </trkpt>
      <trkpt lat="42.69558" lon="-0.47478">
        <ele>2100</ele>
        <time>2010-01-01T05:44:17Z</time>
      </trkpt>
      <trkpt lat="42.69553" lon="-0.4749">
        <ele>2094</ele>
        <time>2010-01-01T05:44:21Z</time>
      </trkpt>
      <trkpt lat="42.69547" lon="-0.475">
        <ele>2088</ele>
        <time>2010-01-01T05:44:25Z</time>
      </trkpt>
      <trkpt lat="42.69546" lon="-0.47519">
        <ele>2084</ele>
        <time>2010-01-01T05:44:31Z</time>
      </trkpt>
      <trkpt lat="42.69544" lon="-0.47534">
        <ele>2080</ele>
        <time>2010-01-01T05:44:35Z</time>
      </trkpt>
      <trkpt lat="42.69539" lon="-0.47543">
        <ele>2076</ele>
        <time>2010-01-01T05:44:39Z</time>
      </trkpt>
      <trkpt lat="42.69529" lon="-0.47549">
        <ele>2070</ele>
        <time>2010-01-01T05:44:43Z</time>
      </trkpt>
      <trkpt lat="42.69526" lon="-0.47556">
        <ele>2068</ele>
        <time>2010-01-01T05:44:46Z</time>
      </trkpt>
      <trkpt lat="42.69526" lon="-0.47568">
        <ele>2068</ele>
        <time>2010-01-01T05:44:49Z</time>
      </trkpt>
      <trkpt lat="42.69522" lon="-0.47581">
        <ele>2067</ele>
        <time>2010-01-01T05:44:53Z</time>
      </trkpt>
      <trkpt lat="42.69511" lon="-0.47591">
        <ele>2063</ele>
        <time>2010-01-01T05:44:58Z</time>
      </trkpt>
      <trkpt lat="42.69506" lon="-0.47599">
        <ele>2061</ele>
        <time>2010-01-01T05:45:02Z</time>
      </trkpt>
      <trkpt lat="42.695" lon="-0.47638">
        <ele>2056</ele>
        <time>2010-01-01T05:45:13Z</time>
      </trkpt>
      <trkpt lat="42.69494" lon="-0.4764">
        <ele>2053</ele>
        <time>2010-01-01T05:45:16Z</time>
      </trkpt>
      <trkpt lat="42.69479" lon="-0.47656">
        <ele>2042</ele>
        <time>2010-01-01T05:45:23Z</time>
      </trkpt>
      <trkpt lat="42.69464" lon="-0.47682">
        <ele>2028</ele>
        <time>2010-01-01T05:45:33Z</time>
      </trkpt>
      <trkpt lat="42.6945" lon="-0.47695">
        <ele>2020</ele>
        <time>2010-01-01T05:45:40Z</time>
      </trkpt>
      <trkpt lat="42.69431" lon="-0.47703">
        <ele>2012</ele>
        <time>2010-01-01T05:45:48Z</time>
      </trkpt>
      <trkpt lat="42.69428" lon="-0.47702">
        <ele>2011</ele>
        <time>2010-01-01T05:45:49Z</time>
      </trkpt>
      <trkpt lat="42.69427" lon="-0.47708">
        <ele>2010</ele>
        <time>2010-01-01T05:45:51Z</time>
      </trkpt>
      <trkpt lat="42.69424" lon="-0.47716">
        <ele>2008</ele>
        <time>2010-01-01T05:45:54Z</time>
      </trkpt>
      <trkpt lat="42.69416" lon="-0.47719">
        <ele>2005</ele>
        <time>2010-01-01T05:45:57Z</time>
      </trkpt>
      <trkpt lat="42.69411" lon="-0.4772">
        <ele>2002</ele>
        <time>2010-01-01T05:45:59Z</time>
      </trkpt>
      <trkpt lat="42.69405" lon="-0.47714">
        <ele>2000</ele>
        <time>2010-01-01T05:46:02Z</time>
      </trkpt>
      <trkpt lat="42.69401" lon="-0.47714">
        <ele>1997</ele>
        <time>2010-01-01T05:46:03Z</time>
      </trkpt>
      <trkpt lat="42.69398" lon="-0.47717">
        <ele>1995</ele>
        <time>2010-01-01T05:46:05Z</time>
      </trkpt>
      <trkpt lat="42.69392" lon="-0.47714">
        <ele>1992</ele>
        <time>2010-01-01T05:46:08Z</time>
      </trkpt>
      <trkpt lat="42.69368" lon="-0.4772">
        <ele>1976</ele>
        <time>2010-01-01T05:46:17Z</time>
      </trkpt>
      <trkpt lat="42.69364" lon="-0.47719">
        <ele>1974</ele>
        <time>2010-01-01T05:46:19Z</time>
      </trkpt>
      <trkpt lat="42.69361" lon="-0.47723">
        <ele>1972</ele>
        <time>2010-01-01T05:46:21Z</time>
      </trkpt>
      <trkpt lat="42.69359" lon="-0.47724">
        <ele>1970</ele>
        <time>2010-01-01T05:46:22Z</time>
      </trkpt>
      <trkpt lat="42.69351" lon="-0.47737">
        <ele>1965</ele>
        <time>2010-01-01T05:46:27Z</time>
      </trkpt>
      <trkpt lat="42.69349" lon="-0.47738">
        <ele>1964</ele>
        <time>2010-01-01T05:46:28Z</time>
      </trkpt>
      <trkpt lat="42.69347" lon="-0.47742">
        <ele>1962</ele>
        <time>2010-01-01T05:46:29Z</time>
      </trkpt>
      <trkpt lat="42.69339" lon="-0.47738">
        <ele>1958</ele>
        <time>2010-01-01T05:46:32Z</time>
      </trkpt>
      <trkpt lat="42.69335" lon="-0.47741">
        <ele>1955</ele>
        <time>2010-01-01T05:46:34Z</time>
      </trkpt>
      <trkpt lat="42.69325" lon="-0.47741">
        <ele>1948</ele>
        <time>2010-01-01T05:46:39Z</time>
      </trkpt>
      <trkpt lat="42.69321" lon="-0.4774">
        <ele>1946</ele>
        <time>2010-01-01T05:46:40Z</time>
      </trkpt>
      <trkpt lat="42.69316" lon="-0.47742">
        <ele>1942</ele>
        <time>2010-01-01T05:46:42Z</time>
      </trkpt>
      <trkpt lat="42.69314" lon="-0.47736">
        <ele>1940</ele>
        <time>2010-01-01T05:46:44Z</time>
      </trkpt>
      <trkpt lat="42.69312" lon="-0.47736">
        <ele>1939</ele>
        <time>2010-01-01T05:46:45Z</time>
      </trkpt>
      <trkpt lat="42.6931" lon="-0.47733">
        <ele>1938</ele>
        <time>2010-01-01T05:46:46Z</time>
      </trkpt>
      <trkpt lat="42.69307" lon="-0.47735">
        <ele>1936</ele>
        <time>2010-01-01T05:46:47Z</time>
      </trkpt>
      <trkpt lat="42.69303" lon="-0.47731">
        <ele>1933</ele>
        <time>2010-01-01T05:46:49Z</time>
      </trkpt>
      <trkpt lat="42.69292" lon="-0.47731">
        <ele>1926</ele>
        <time>2010-01-01T05:46:54Z</time>
      </trkpt>
      <trkpt lat="42.6928" lon="-0.47737">
        <ele>1918</ele>
        <time>2010-01-01T05:46:59Z</time>
      </trkpt>
      <trkpt lat="42.69277" lon="-0.47737">
        <ele>1916</ele>
        <time>2010-01-01T05:47:00Z</time>
      </trkpt>
      <trkpt lat="42.69276" lon="-0.47734">
        <ele>1916</ele>
        <time>2010-01-01T05:47:01Z</time>
      </trkpt>
      <trkpt lat="42.69272" lon="-0.47734">
        <ele>1913</ele>
        <time>2010-01-01T05:47:03Z</time>
      </trkpt>
      <trkpt lat="42.69266" lon="-0.47744">
        <ele>1910</ele>
        <time>2010-01-01T05:47:06Z</time>
      </trkpt>
      <trkpt lat="42.69264" lon="-0.47745">
        <ele>1908</ele>
        <time>2010-01-01T05:47:07Z</time>
      </trkpt>
      <trkpt lat="42.69261" lon="-0.47744">
        <ele>1907</ele>
        <time>2010-01-01T05:47:08Z</time>
      </trkpt>
      <trkpt lat="42.69257" lon="-0.47747">
        <ele>1904</ele>
        <time>2010-01-01T05:47:10Z</time>
      </trkpt>
      <trkpt lat="42.69251" lon="-0.47745">
        <ele>1901</ele>
        <time>2010-01-01T05:47:13Z</time>
      </trkpt>
      <trkpt lat="42.69246" lon="-0.47747">
        <ele>1897</ele>
        <time>2010-01-01T05:47:15Z</time>
      </trkpt>
      <trkpt lat="42.69239" lon="-0.47748">
        <ele>1890</ele>
        <time>2010-01-01T05:47:18Z</time>
      </trkpt>
      <trkpt lat="42.69237" lon="-0.47765">
        <ele>1884</ele>
        <time>2010-01-01T05:47:23Z</time>
      </trkpt>
      <trkpt lat="42.69234" lon="-0.47772">
        <ele>1879</ele>
        <time>2010-01-01T05:47:25Z</time>
      </trkpt>
      <trkpt lat="42.6924" lon="-0.47781">
        <ele>1882</ele>
        <time>2010-01-01T05:47:28Z</time>
      </trkpt>
      <trkpt lat="42.69238" lon="-0.47785">
        <ele>1880</ele>
        <time>2010-01-01T05:47:30Z</time>
      </trkpt>
      <trkpt lat="42.69235" lon="-0.47783">
        <ele>1877</ele>
        <time>2010-01-01T05:47:31Z</time>
      </trkpt>
      <trkpt lat="42.69234" lon="-0.47784">
        <ele>1876</ele>
        <time>2010-01-01T05:47:32Z</time>
      </trkpt>
      <trkpt lat="42.69234" lon="-0.47792">
        <ele>1875</ele>
        <time>2010-01-01T05:47:34Z</time>
      </trkpt>
      <trkpt lat="42.6923" lon="-0.47792">
        <ele>1871</ele>
        <time>2010-01-01T05:47:36Z</time>
      </trkpt>
      <trkpt lat="42.6923" lon="-0.47797">
        <ele>1870</ele>
        <time>2010-01-01T05:47:37Z</time>
      </trkpt>
      <trkpt lat="42.69226" lon="-0.47795">
        <ele>1867</ele>
        <time>2010-01-01T05:47:39Z</time>
      </trkpt>
      <trkpt lat="42.69226" lon="-0.47804">
        <ele>1866</ele>
        <time>2010-01-01T05:47:41Z</time>
      </trkpt>
      <trkpt lat="42.69223" lon="-0.47815">
        <ele>1861</ele>
        <time>2010-01-01T05:47:45Z</time>
      </trkpt>
      <trkpt lat="42.6922" lon="-0.47815">
        <ele>1858</ele>
        <time>2010-01-01T05:47:46Z</time>
      </trkpt>
      <trkpt lat="42.69217" lon="-0.47813">
        <ele>1856</ele>
        <time>2010-01-01T05:47:47Z</time>
      </trkpt>
      <trkpt lat="42.69216" lon="-0.47815">
        <ele>1855</ele>
        <time>2010-01-01T05:47:48Z</time>
      </trkpt>
      <trkpt lat="42.69213" lon="-0.47831">
        <ele>1850</ele>
        <time>2010-01-01T05:47:53Z</time>
      </trkpt>
      <trkpt lat="42.69209" lon="-0.47829">
        <ele>1847</ele>
        <time>2010-01-01T05:47:54Z</time>
      </trkpt>
      <trkpt lat="42.69204" lon="-0.47828">
        <ele>1844</ele>
        <time>2010-01-01T05:47:56Z</time>
      </trkpt>
      <trkpt lat="42.69201" lon="-0.47833">
        <ele>1841</ele>
        <time>2010-01-01T05:47:58Z</time>
      </trkpt>
      <trkpt lat="42.69199" lon="-0.4783">
        <ele>1839</ele>
        <time>2010-01-01T05:47:59Z</time>
      </trkpt>
      <trkpt lat="42.69193" lon="-0.4783">
        <ele>1834</ele>
        <time>2010-01-01T05:48:02Z</time>
      </trkpt>
      <trkpt lat="42.69191" lon="-0.47824">
        <ele>1834</ele>
        <time>2010-01-01T05:48:03Z</time>
      </trkpt>
      <trkpt lat="42.69181" lon="-0.47812">
        <ele>1829</ele>
        <time>2010-01-01T05:48:09Z</time>
      </trkpt>
      <trkpt lat="42.69174" lon="-0.47792">
        <ele>1828</ele>
        <time>2010-01-01T05:48:15Z</time>
      </trkpt>
      <trkpt lat="42.69168" lon="-0.47784">
        <ele>1825</ele>
        <time>2010-01-01T05:48:19Z</time>
      </trkpt>
      <trkpt lat="42.69164" lon="-0.47784">
        <ele>1823</ele>
        <time>2010-01-01T05:48:20Z</time>
      </trkpt>
      <trkpt lat="42.69159" lon="-0.47787">
        <ele>1820</ele>
        <time>2010-01-01T05:48:22Z</time>
      </trkpt>
      <trkpt lat="42.69158" lon="-0.4779">
        <ele>1819</ele>
        <time>2010-01-01T05:48:23Z</time>
      </trkpt>
      <trkpt lat="42.69156" lon="-0.47789">
        <ele>1818</ele>
        <time>2010-01-01T05:48:24Z</time>
      </trkpt>
      <trkpt lat="42.69146" lon="-0.47794">
        <ele>1812</ele>
        <time>2010-01-01T05:48:28Z</time>
      </trkpt>
      <trkpt lat="42.69142" lon="-0.4779">
        <ele>1810</ele>
        <time>2010-01-01T05:48:30Z</time>
      </trkpt>
      <trkpt lat="42.69129" lon="-0.47801">
        <ele>1802</ele>
        <time>2010-01-01T05:48:37Z</time>
      </trkpt>
      <trkpt lat="42.69122" lon="-0.47814">
        <ele>1796</ele>
        <time>2010-01-01T05:48:41Z</time>
      </trkpt>
      <trkpt lat="42.69116" lon="-0.47815">
        <ele>1793</ele>
        <time>2010-01-01T05:48:43Z</time>
      </trkpt>
      <trkpt lat="42.69093" lon="-0.47813">
        <ele>1787</ele>
        <time>2010-01-01T05:48:53Z</time>
      </trkpt>
      <trkpt lat="42.69092" lon="-0.47828">
        <ele>1785</ele>
        <time>2010-01-01T05:48:57Z</time>
      </trkpt>
      <trkpt lat="42.6909" lon="-0.4783">
        <ele>1784</ele>
        <time>2010-01-01T05:48:58Z</time>
      </trkpt>
      <trkpt lat="42.69075" lon="-0.47826">
        <ele>1781</ele>
        <time>2010-01-01T05:49:05Z</time>
      </trkpt>
      <trkpt lat="42.69065" lon="-0.47817">
        <ele>1779</ele>
        <time>2010-01-01T05:49:09Z</time>
      </trkpt>
      <trkpt lat="42.69055" lon="-0.47813">
        <ele>1777</ele>
        <time>2010-01-01T05:49:13Z</time>
      </trkpt>
      <trkpt lat="42.69045" lon="-0.47794">
        <ele>1774</ele>
        <time>2010-01-01T05:49:20Z</time>
      </trkpt>
      <trkpt lat="42.69027" lon="-0.47778">
        <ele>1767</ele>
        <time>2010-01-01T05:49:29Z</time>
      </trkpt>
      <trkpt lat="42.69" lon="-0.47729">
        <ele>1758</ele>
        <time>2010-01-01T05:49:47Z</time>
      </trkpt>
      <trkpt lat="42.68989" lon="-0.47694">
        <ele>1750</ele>
        <time>2010-01-01T05:49:58Z</time>
      </trkpt>
      <trkpt lat="42.68961" lon="-0.47652">
        <ele>1734</ele>
        <time>2010-01-01T05:50:14Z</time>
      </trkpt>
      <trkpt lat="42.6895" lon="-0.47641">
        <ele>1728</ele>
        <time>2010-01-01T05:50:20Z</time>
      </trkpt>
      <trkpt lat="42.68942" lon="-0.47629">
        <ele>1724</ele>
        <time>2010-01-01T05:50:25Z</time>
      </trkpt>
      <trkpt lat="42.68928" lon="-0.47593">
        <ele>1719</ele>
        <time>2010-01-01T05:50:37Z</time>
      </trkpt>
      <trkpt lat="42.68919" lon="-0.47553">
        <ele>1714</ele>
        <time>2010-01-01T05:50:49Z</time>
      </trkpt>
      <trkpt lat="42.68899" lon="-0.47528">
        <ele>1704</ele>
        <time>2010-01-01T05:51:00Z</time>
      </trkpt>
      <trkpt lat="42.68897" lon="-0.47502">
        <ele>1703</ele>
        <time>2010-01-01T05:51:08Z</time>
      </trkpt>
      <trkpt lat="42.68887" lon="-0.47472">
        <ele>1698</ele>
        <time>2010-01-01T05:51:17Z</time>
      </trkpt>
      <trkpt lat="42.68878" lon="-0.47462">
        <ele>1695</ele>
        <time>2010-01-01T05:51:22Z</time>
      </trkpt>
      <trkpt lat="42.68862" lon="-0.47456">
        <ele>1690</ele>
        <time>2010-01-01T05:51:29Z</time>
      </trkpt>
      <trkpt lat="42.68841" lon="-0.47462">
        <ele>1686</ele>
        <time>2010-01-01T05:51:37Z</time>
      </trkpt>
      <trkpt lat="42.68839" lon="-0.4746">
        <ele>1685</ele>
        <time>2010-01-01T05:51:38Z</time>
      </trkpt>
      <trkpt lat="42.6884" lon="-0.47452">
        <ele>1686</ele>
        <time>2010-01-01T05:51:41Z</time>
      </trkpt>
      <trkpt lat="42.68848" lon="-0.47444">
        <ele>1687</ele>
        <time>2010-01-01T05:51:45Z</time>
      </trkpt>
      <trkpt lat="42.68855" lon="-0.47439">
        <ele>1689</ele>
        <time>2010-01-01T05:51:48Z</time>
      </trkpt>
      <trkpt lat="42.68864" lon="-0.47436">
        <ele>1691</ele>
        <time>2010-01-01T05:51:51Z</time>
      </trkpt>
      <trkpt lat="42.68863" lon="-0.47441">
        <ele>1690</ele>
        <time>2010-01-01T05:51:53Z</time>
      </trkpt>
      <trkpt lat="42.6887" lon="-0.47448">
        <ele>1692</ele>
        <time>2010-01-01T05:51:57Z</time>
      </trkpt>
      <trkpt lat="42.68875" lon="-0.47455">
        <ele>1694</ele>
        <time>2010-01-01T05:51:59Z</time>
      </trkpt>
      <trkpt lat="42.68879" lon="-0.47463">
        <ele>1695</ele>
        <time>2010-01-01T05:52:02Z</time>
      </trkpt>
      <trkpt lat="42.68889" lon="-0.47475">
        <ele>1699</ele>
        <time>2010-01-01T05:52:07Z</time>
      </trkpt>
      <trkpt lat="42.68891" lon="-0.47482">
        <ele>1700</ele>
        <time>2010-01-01T05:52:10Z</time>
      </trkpt>
      <trkpt lat="42.68893" lon="-0.47492">
        <ele>1702</ele>
        <time>2010-01-01T05:52:13Z</time>
      </trkpt>
      <trkpt lat="42.68895" lon="-0.47534">
        <ele>1702</ele>
        <time>2010-01-01T05:52:25Z</time>
      </trkpt>
      <trkpt lat="42.68903" lon="-0.47563">
        <ele>1706</ele>
        <time>2010-01-01T05:52:34Z</time>
      </trkpt>
      <trkpt lat="42.68904" lon="-0.47574">
        <ele>1707</ele>
        <time>2010-01-01T05:52:37Z</time>
      </trkpt>
      <trkpt lat="42.68906" lon="-0.47655">
        <ele>1708</ele>
        <time>2010-01-01T05:53:01Z</time>
      </trkpt>
      <trkpt lat="42.68905" lon="-0.4768">
        <ele>1706</ele>
        <time>2010-01-01T05:53:09Z</time>
      </trkpt>
      <trkpt lat="42.68906" lon="-0.47735">
        <ele>1706</ele>
        <time>2010-01-01T05:53:25Z</time>
      </trkpt>
      <trkpt lat="42.68909" lon="-0.47768">
        <ele>1707</ele>
        <time>2010-01-01T05:53:35Z</time>
      </trkpt>
      <trkpt lat="42.68912" lon="-0.47786">
        <ele>1710</ele>
        <time>2010-01-01T05:53:40Z</time>
      </trkpt>
      <trkpt lat="42.68918" lon="-0.47843">
        <ele>1705</ele>
        <time>2010-01-01T05:53:57Z</time>
      </trkpt>
      <trkpt lat="42.68929" lon="-0.47874">
        <ele>1703</ele>
        <time>2010-01-01T05:54:07Z</time>
      </trkpt>
      <trkpt lat="42.68961" lon="-0.47931">
        <ele>1709</ele>
        <time>2010-01-01T05:54:28Z</time>
      </trkpt>
      <trkpt lat="42.68977" lon="-0.4795">
        <ele>1712</ele>
        <time>2010-01-01T05:54:37Z</time>
      </trkpt>
      <trkpt lat="42.6899" lon="-0.47973">
        <ele>1713</ele>
        <time>2010-01-01T05:54:45Z</time>
      </trkpt>
      <trkpt lat="42.69007" lon="-0.48014">
        <ele>1714</ele>
        <time>2010-01-01T05:54:59Z</time>
      </trkpt>
      <trkpt lat="42.69013" lon="-0.48086">
        <ele>1706</ele>
        <time>2010-01-01T05:55:21Z</time>
      </trkpt>
      <trkpt lat="42.6902" lon="-0.48118">
        <ele>1706</ele>
        <time>2010-01-01T05:55:31Z</time>
      </trkpt>
      <trkpt lat="42.69033" lon="-0.48153">
        <ele>1707</ele>
        <time>2010-01-01T05:55:42Z</time>
      </trkpt>
      <trkpt lat="42.69064" lon="-0.48216">
        <ele>1707</ele>
        <time>2010-01-01T05:56:04Z</time>
      </trkpt>
      <trkpt lat="42.69074" lon="-0.48247">
        <ele>1708</ele>
        <time>2010-01-01T05:56:14Z</time>
      </trkpt>
      <trkpt lat="42.69076" lon="-0.48267">
        <ele>1709</ele>
        <time>2010-01-01T05:56:20Z</time>
      </trkpt>
      <trkpt lat="42.69076" lon="-0.48303">
        <ele>1710</ele>
        <time>2010-01-01T05:56:31Z</time>
      </trkpt>
      <trkpt lat="42.69082" lon="-0.48329">
        <ele>1709</ele>
        <time>2010-01-01T05:56:39Z</time>
      </trkpt>
      <trkpt lat="42.69084" lon="-0.48344">
        <ele>1707</ele>
        <time>2010-01-01T05:56:43Z</time>
      </trkpt>
      <trkpt lat="42.69089" lon="-0.48361">
        <ele>1706</ele>
        <time>2010-01-01T05:56:49Z</time>
      </trkpt>
      <trkpt lat="42.69093" lon="-0.48394">
        <ele>1705</ele>
        <time>2010-01-01T05:56:59Z</time>
      </trkpt>
      <trkpt lat="42.69094" lon="-0.48416">
        <ele>1703</ele>
        <time>2010-01-01T05:57:05Z</time>
      </trkpt>
      <trkpt lat="42.69099" lon="-0.48439">
        <ele>1703</ele>
        <time>2010-01-01T05:57:12Z</time>
      </trkpt>
      <trkpt lat="42.69111" lon="-0.4847">
        <ele>1702</ele>
        <time>2010-01-01T05:57:22Z</time>
      </trkpt>
      <trkpt lat="42.69137" lon="-0.48511">
        <ele>1703</ele>
        <time>2010-01-01T05:57:38Z</time>
      </trkpt>
      <trkpt lat="42.6914" lon="-0.48529">
        <ele>1703</ele>
        <time>2010-01-01T05:57:44Z</time>
      </trkpt>
      <trkpt lat="42.69134" lon="-0.48568">
        <ele>1699</ele>
        <time>2010-01-01T05:57:55Z</time>
      </trkpt>
      <trkpt lat="42.69129" lon="-0.48635">
        <ele>1697</ele>
        <time>2010-01-01T05:58:15Z</time>
      </trkpt>
      <trkpt lat="42.6912" lon="-0.48697">
        <ele>1695</ele>
        <time>2010-01-01T05:58:34Z</time>
      </trkpt>
      <trkpt lat="42.69119" lon="-0.48714">
        <ele>1693</ele>
        <time>2010-01-01T05:58:39Z</time>
      </trkpt>
      <trkpt lat="42.69112" lon="-0.4876">
        <ele>1685</ele>
        <time>2010-01-01T05:58:53Z</time>
      </trkpt>
      <trkpt lat="42.69111" lon="-0.48775">
        <ele>1684</ele>
        <time>2010-01-01T05:58:57Z</time>
      </trkpt>
      <trkpt lat="42.69119" lon="-0.48788">
        <ele>1682</ele>
        <time>2010-01-01T05:59:02Z</time>
      </trkpt>
      <trkpt lat="42.69128" lon="-0.48787">
        <ele>1681</ele>
        <time>2010-01-01T05:59:06Z</time>
      </trkpt>
      <trkpt lat="42.69139" lon="-0.48778">
        <ele>1683</ele>
        <time>2010-01-01T05:59:11Z</time>
      </trkpt>
      <trkpt lat="42.69179" lon="-0.48737">
        <ele>1688</ele>
        <time>2010-01-01T05:59:31Z</time>
      </trkpt>
      <trkpt lat="42.69206" lon="-0.48702">
        <ele>1686</ele>
        <time>2010-01-01T05:59:46Z</time>
      </trkpt>
      <trkpt lat="42.6922" lon="-0.48686">
        <ele>1684</ele>
        <time>2010-01-01T05:59:53Z</time>
      </trkpt>
      <trkpt lat="42.69232" lon="-0.48679">
        <ele>1683</ele>
        <time>2010-01-01T05:59:58Z</time>
      </trkpt>
      <trkpt lat="42.69275" lon="-0.48666">
        <ele>1678</ele>
        <time>2010-01-01T06:00:16Z</time>
      </trkpt>
      <trkpt lat="42.69339" lon="-0.48651">
        <ele>1677</ele>
        <time>2010-01-01T06:00:42Z</time>
      </trkpt>
      <trkpt lat="42.69353" lon="-0.48653">
        <ele>1676</ele>
        <time>2010-01-01T06:00:48Z</time>
      </trkpt>
      <trkpt lat="42.69364" lon="-0.48665">
        <ele>1675</ele>
        <time>2010-01-01T06:00:53Z</time>
      </trkpt>
      <trkpt lat="42.69371" lon="-0.4868">
        <ele>1674</ele>
        <time>2010-01-01T06:00:59Z</time>
      </trkpt>
      <trkpt lat="42.69393" lon="-0.48728">
        <ele>1673</ele>
        <time>2010-01-01T06:01:15Z</time>
      </trkpt>
      <trkpt lat="42.69398" lon="-0.48742">
        <ele>1673</ele>
        <time>2010-01-01T06:01:20Z</time>
      </trkpt>
      <trkpt lat="42.69406" lon="-0.48773">
        <ele>1672</ele>
        <time>2010-01-01T06:01:29Z</time>
      </trkpt>
      <trkpt lat="42.69406" lon="-0.48786">
        <ele>1672</ele>
        <time>2010-01-01T06:01:33Z</time>
      </trkpt>
      <trkpt lat="42.69401" lon="-0.4881">
        <ele>1672</ele>
        <time>2010-01-01T06:01:41Z</time>
      </trkpt>
      <trkpt lat="42.69388" lon="-0.48842">
        <ele>1674</ele>
        <time>2010-01-01T06:01:51Z</time>
      </trkpt>
      <trkpt lat="42.69364" lon="-0.48922">
        <ele>1685</ele>
        <time>2010-01-01T06:02:17Z</time>
      </trkpt>
      <trkpt lat="42.69339" lon="-0.48989">
        <ele>1683</ele>
        <time>2010-01-01T06:02:39Z</time>
      </trkpt>
      <trkpt lat="42.69329" lon="-0.49024">
        <ele>1680</ele>
        <time>2010-01-01T06:02:50Z</time>
      </trkpt>
      <trkpt lat="42.69331" lon="-0.49038">
        <ele>1681</ele>
        <time>2010-01-01T06:02:54Z</time>
      </trkpt>
      <trkpt lat="42.69337" lon="-0.49043">
        <ele>1682</ele>
        <time>2010-01-01T06:02:57Z</time>
      </trkpt>
      <trkpt lat="42.69356" lon="-0.49043">
        <ele>1687</ele>
        <time>2010-01-01T06:03:04Z</time>
      </trkpt>
      <trkpt lat="42.69365" lon="-0.49046">
        <ele>1688</ele>
        <time>2010-01-01T06:03:08Z</time>
      </trkpt>
      <trkpt lat="42.69373" lon="-0.49051">
        <ele>1688</ele>
        <time>2010-01-01T06:03:12Z</time>
      </trkpt>
      <trkpt lat="42.69381" lon="-0.49061">
        <ele>1688</ele>
        <time>2010-01-01T06:03:16Z</time>
      </trkpt>
      <trkpt lat="42.69418" lon="-0.4913">
        <ele>1689</ele>
        <time>2010-01-01T06:03:41Z</time>
      </trkpt>
      <trkpt lat="42.69449" lon="-0.49172">
        <ele>1695</ele>
        <time>2010-01-01T06:03:59Z</time>
      </trkpt>
      <trkpt lat="42.69461" lon="-0.49196">
        <ele>1694</ele>
        <time>2010-01-01T06:04:07Z</time>
      </trkpt>
      <trkpt lat="42.69466" lon="-0.49212">
        <ele>1695</ele>
        <time>2010-01-01T06:04:13Z</time>
      </trkpt>
      <trkpt lat="42.69471" lon="-0.49233">
        <ele>1696</ele>
        <time>2010-01-01T06:04:19Z</time>
      </trkpt>
      <trkpt lat="42.69473" lon="-0.49291">
        <ele>1700</ele>
        <time>2010-01-01T06:04:36Z</time>
      </trkpt>
      <trkpt lat="42.69478" lon="-0.49321">
        <ele>1702</ele>
        <time>2010-01-01T06:04:45Z</time>
      </trkpt>
      <trkpt lat="42.6949" lon="-0.49346">
        <ele>1704</ele>
        <time>2010-01-01T06:04:54Z</time>
      </trkpt>
      <trkpt lat="42.69513" lon="-0.4938">
        <ele>1708</ele>
        <time>2010-01-01T06:05:07Z</time>
      </trkpt>
      <trkpt lat="42.6953" lon="-0.49427">
        <ele>1709</ele>
        <time>2010-01-01T06:05:23Z</time>
      </trkpt>
      <trkpt lat="42.69537" lon="-0.49463">
        <ele>1709</ele>
        <time>2010-01-01T06:05:34Z</time>
      </trkpt>
      <trkpt lat="42.69537" lon="-0.49509">
        <ele>1704</ele>
        <time>2010-01-01T06:05:47Z</time>
      </trkpt>
      <trkpt lat="42.69541" lon="-0.49536">
        <ele>1703</ele>
        <time>2010-01-01T06:05:55Z</time>
      </trkpt>
      <trkpt lat="42.6955" lon="-0.49565">
        <ele>1705</ele>
        <time>2010-01-01T06:06:05Z</time>
      </trkpt>
      <trkpt lat="42.69566" lon="-0.49606">
        <ele>1706</ele>
        <time>2010-01-01T06:06:18Z</time>
      </trkpt>
      <trkpt lat="42.6958" lon="-0.4963">
        <ele>1709</ele>
        <time>2010-01-01T06:06:27Z</time>
      </trkpt>
      <trkpt lat="42.69587" lon="-0.49648">
        <ele>1710</ele>
        <time>2010-01-01T06:06:33Z</time>
      </trkpt>
      <trkpt lat="42.69594" lon="-0.49675">
        <ele>1711</ele>
        <time>2010-01-01T06:06:42Z</time>
      </trkpt>
      <trkpt lat="42.69612" lon="-0.4973">
        <ele>1713</ele>
        <time>2010-01-01T06:07:00Z</time>
      </trkpt>
      <trkpt lat="42.69615" lon="-0.49749">
        <ele>1714</ele>
        <time>2010-01-01T06:07:05Z</time>
      </trkpt>
      <trkpt lat="42.69611" lon="-0.49777">
        <ele>1714</ele>
        <time>2010-01-01T06:07:14Z</time>
      </trkpt>
      <trkpt lat="42.69611" lon="-0.498">
        <ele>1716</ele>
        <time>2010-01-01T06:07:20Z</time>
      </trkpt>
      <trkpt lat="42.69601" lon="-0.49852">
        <ele>1720</ele>
        <time>2010-01-01T06:07:36Z</time>
      </trkpt>
      <trkpt lat="42.69596" lon="-0.49866">
        <ele>1721</ele>
        <time>2010-01-01T06:07:41Z</time>
      </trkpt>
      <trkpt lat="42.69591" lon="-0.49904">
        <ele>1720</ele>
        <time>2010-01-01T06:07:52Z</time>
      </trkpt>
      <trkpt lat="42.69596" lon="-0.49917">
        <ele>1719</ele>
        <time>2010-01-01T06:07:56Z</time>
      </trkpt>
      <trkpt lat="42.69616" lon="-0.49938">
        <ele>1718</ele>
        <time>2010-01-01T06:08:07Z</time>
      </trkpt>
      <trkpt lat="42.69629" lon="-0.4995">
        <ele>1719</ele>
        <time>2010-01-01T06:08:13Z</time>
      </trkpt>
      <trkpt lat="42.69654" lon="-0.49967">
        <ele>1721</ele>
        <time>2010-01-01T06:08:24Z</time>
      </trkpt>
      <trkpt lat="42.69666" lon="-0.49974">
        <ele>1722</ele>
        <time>2010-01-01T06:08:29Z</time>
      </trkpt>
      <trkpt lat="42.69711" lon="-0.49993">
        <ele>1728</ele>
        <time>2010-01-01T06:08:48Z</time>
      </trkpt>
      <trkpt lat="42.69723" lon="-0.50008">
        <ele>1727</ele>
        <time>2010-01-01T06:08:55Z</time>
      </trkpt>
      <trkpt lat="42.69739" lon="-0.50022">
        <ele>1729</ele>
        <time>2010-01-01T06:09:02Z</time>
      </trkpt>
      <trkpt lat="42.69761" lon="-0.50057">
        <ele>1736</ele>
        <time>2010-01-01T06:09:16Z</time>
      </trkpt>
      <trkpt lat="42.69779" lon="-0.50107">
        <ele>1740</ele>
        <time>2010-01-01T06:09:32Z</time>
      </trkpt>
      <trkpt lat="42.69817" lon="-0.50181">
        <ele>1732</ele>
        <time>2010-01-01T06:09:59Z</time>
      </trkpt>
      <trkpt lat="42.69852" lon="-0.50222">
        <ele>1724</ele>
        <time>2010-01-01T06:10:17Z</time>
      </trkpt>
      <trkpt lat="42.69859" lon="-0.50233">
        <ele>1725</ele>
        <time>2010-01-01T06:10:22Z</time>
      </trkpt>
      <trkpt lat="42.69873" lon="-0.50266">
        <ele>1728</ele>
        <time>2010-01-01T06:10:33Z</time>
      </trkpt>
      <trkpt lat="42.6988" lon="-0.50278">
        <ele>1728</ele>
        <time>2010-01-01T06:10:37Z</time>
      </trkpt>
      <trkpt lat="42.69895" lon="-0.50314">
        <ele>1723</ele>
        <time>2010-01-01T06:10:49Z</time>
      </trkpt>
      <trkpt lat="42.69924" lon="-0.50443">
        <ele>1709</ele>
        <time>2010-01-01T06:11:29Z</time>
      </trkpt>
      <trkpt lat="42.69942" lon="-0.5048">
        <ele>1707</ele>
        <time>2010-01-01T06:11:42Z</time>
      </trkpt>
      <trkpt lat="42.69957" lon="-0.50525">
        <ele>1707</ele>
        <time>2010-01-01T06:11:57Z</time>
      </trkpt>
      <trkpt lat="42.6996" lon="-0.50537">
        <ele>1707</ele>
        <time>2010-01-01T06:12:00Z</time>
      </trkpt>
      <trkpt lat="42.69962" lon="-0.5055">
        <ele>1707</ele>
        <time>2010-01-01T06:12:04Z</time>
      </trkpt>
      <trkpt lat="42.69974" lon="-0.50576">
        <ele>1707</ele>
        <time>2010-01-01T06:12:13Z</time>
      </trkpt>
      <trkpt lat="42.69978" lon="-0.50588">
        <ele>1707</ele>
        <time>2010-01-01T06:12:17Z</time>
      </trkpt>
      <trkpt lat="42.69996" lon="-0.50617">
        <ele>1700</ele>
        <time>2010-01-01T06:12:28Z</time>
      </trkpt>
      <trkpt lat="42.70015" lon="-0.50663">
        <ele>1695</ele>
        <time>2010-01-01T06:12:44Z</time>
      </trkpt>
      <trkpt lat="42.70023" lon="-0.50675">
        <ele>1696</ele>
        <time>2010-01-01T06:12:49Z</time>
      </trkpt>
      <trkpt lat="42.70037" lon="-0.50703">
        <ele>1699</ele>
        <time>2010-01-01T06:12:59Z</time>
      </trkpt>
      <trkpt lat="42.7006" lon="-0.50739">
        <ele>1698</ele>
        <time>2010-01-01T06:13:13Z</time>
      </trkpt>
      <trkpt lat="42.70075" lon="-0.50775">
        <ele>1692</ele>
        <time>2010-01-01T06:13:25Z</time>
      </trkpt>
      <trkpt lat="42.70077" lon="-0.50786">
        <ele>1690</ele>
        <time>2010-01-01T06:13:28Z</time>
      </trkpt>
      <trkpt lat="42.7009" lon="-0.50819">
        <ele>1685</ele>
        <time>2010-01-01T06:13:39Z</time>
      </trkpt>
      <trkpt lat="42.70124" lon="-0.50887">
        <ele>1673</ele>
        <time>2010-01-01T06:14:03Z</time>
      </trkpt>
      <trkpt lat="42.70139" lon="-0.50932">
        <ele>1661</ele>
        <time>2010-01-01T06:14:18Z</time>
      </trkpt>
      <trkpt lat="42.7017" lon="-0.50993">
        <ele>1645</ele>
        <time>2010-01-01T06:14:40Z</time>
      </trkpt>
      <trkpt lat="42.70178" lon="-0.51005">
        <ele>1642</ele>
        <time>2010-01-01T06:14:45Z</time>
      </trkpt>
      <trkpt lat="42.70188" lon="-0.51035">
        <ele>1631</ele>
        <time>2010-01-01T06:14:54Z</time>
      </trkpt>
      <trkpt lat="42.70203" lon="-0.5106">
        <ele>1624</ele>
        <time>2010-01-01T06:15:04Z</time>
      </trkpt>
      <trkpt lat="42.7021" lon="-0.51065">
        <ele>1624</ele>
        <time>2010-01-01T06:15:07Z</time>
      </trkpt>
      <trkpt lat="42.70224" lon="-0.51085">
        <ele>1619</ele>
        <time>2010-01-01T06:15:15Z</time>
      </trkpt>
      <trkpt lat="42.70225" lon="-0.51098">
        <ele>1616</ele>
        <time>2010-01-01T06:15:19Z</time>
      </trkpt>
      <trkpt lat="42.70236" lon="-0.51129">
        <ele>1608</ele>
        <time>2010-01-01T06:15:29Z</time>
      </trkpt>
      <trkpt lat="42.70254" lon="-0.51158">
        <ele>1597</ele>
        <time>2010-01-01T06:15:40Z</time>
      </trkpt>
      <trkpt lat="42.70256" lon="-0.5118">
        <ele>1588</ele>
        <time>2010-01-01T06:15:47Z</time>
      </trkpt>
      <trkpt lat="42.70285" lon="-0.5122">
        <ele>1578</ele>
        <time>2010-01-01T06:16:03Z</time>
      </trkpt>
      <trkpt lat="42.7029" lon="-0.51237">
        <ele>1576</ele>
        <time>2010-01-01T06:16:08Z</time>
      </trkpt>
      <trkpt lat="42.70296" lon="-0.51247">
        <ele>1575</ele>
        <time>2010-01-01T06:16:12Z</time>
      </trkpt>
      <trkpt lat="42.70297" lon="-0.51275">
        <ele>1568</ele>
        <time>2010-01-01T06:16:20Z</time>
      </trkpt>
      <trkpt lat="42.70304" lon="-0.51287">
        <ele>1564</ele>
        <time>2010-01-01T06:16:25Z</time>
      </trkpt>
      <trkpt lat="42.70304" lon="-0.51295">
        <ele>1560</ele>
        <time>2010-01-01T06:16:27Z</time>
      </trkpt>
      <trkpt lat="42.7031" lon="-0.5131">
        <ele>1556</ele>
        <time>2010-01-01T06:16:32Z</time>
      </trkpt>
      <trkpt lat="42.7032" lon="-0.51325">
        <ele>1552</ele>
        <time>2010-01-01T06:16:38Z</time>
      </trkpt>
      <trkpt lat="42.70327" lon="-0.51354">
        <ele>1544</ele>
        <time>2010-01-01T06:16:47Z</time>
      </trkpt>
      <trkpt lat="42.70333" lon="-0.51365">
        <ele>1541</ele>
        <time>2010-01-01T06:16:51Z</time>
      </trkpt>
      <trkpt lat="42.70344" lon="-0.51378">
        <ele>1539</ele>
        <time>2010-01-01T06:16:57Z</time>
      </trkpt>
      <trkpt lat="42.70349" lon="-0.51389">
        <ele>1536</ele>
        <time>2010-01-01T06:17:01Z</time>
      </trkpt>
      <trkpt lat="42.70343" lon="-0.51399">
        <ele>1532</ele>
        <time>2010-01-01T06:17:04Z</time>
      </trkpt>
      <trkpt lat="42.70326" lon="-0.51402">
        <ele>1527</ele>
        <time>2010-01-01T06:17:11Z</time>
      </trkpt>
      <trkpt lat="42.70314" lon="-0.51399">
        <ele>1525</ele>
        <time>2010-01-01T06:17:16Z</time>
      </trkpt>
      <trkpt lat="42.70304" lon="-0.51404">
        <ele>1520</ele>
        <time>2010-01-01T06:17:20Z</time>
      </trkpt>
      <trkpt lat="42.70304" lon="-0.51414">
        <ele>1514</ele>
        <time>2010-01-01T06:17:23Z</time>
      </trkpt>
      <trkpt lat="42.70317" lon="-0.51449">
        <ele>1504</ele>
        <time>2010-01-01T06:17:35Z</time>
      </trkpt>
      <trkpt lat="42.70337" lon="-0.51465">
        <ele>1506</ele>
        <time>2010-01-01T06:17:44Z</time>
      </trkpt>
      <trkpt lat="42.70353" lon="-0.51481">
        <ele>1503</ele>
        <time>2010-01-01T06:17:52Z</time>
      </trkpt>
      <trkpt lat="42.70357" lon="-0.51489">
        <ele>1500</ele>
        <time>2010-01-01T06:17:55Z</time>
      </trkpt>
      <trkpt lat="42.70357" lon="-0.51495">
        <ele>1498</ele>
        <time>2010-01-01T06:17:57Z</time>
      </trkpt>
      <trkpt lat="42.70362" lon="-0.51511">
        <ele>1492</ele>
        <time>2010-01-01T06:18:02Z</time>
      </trkpt>
      <trkpt lat="42.70372" lon="-0.5153">
        <ele>1487</ele>
        <time>2010-01-01T06:18:09Z</time>
      </trkpt>
      <trkpt lat="42.70381" lon="-0.51551">
        <ele>1482</ele>
        <time>2010-01-01T06:18:16Z</time>
      </trkpt>
      <trkpt lat="42.7036" lon="-0.51539">
        <ele>1477</ele>
        <time>2010-01-01T06:18:25Z</time>
      </trkpt>
      <trkpt lat="42.7037" lon="-0.51565">
        <ele>1469</ele>
        <time>2010-01-01T06:18:34Z</time>
      </trkpt>
      <trkpt lat="42.70379" lon="-0.51583">
        <ele>1467</ele>
        <time>2010-01-01T06:18:40Z</time>
      </trkpt>
      <trkpt lat="42.70345" lon="-0.51564">
        <ele>1460</ele>
        <time>2010-01-01T06:18:55Z</time>
      </trkpt>
      <trkpt lat="42.70362" lon="-0.51595">
        <ele>1453</ele>
        <time>2010-01-01T06:19:06Z</time>
      </trkpt>
      <trkpt lat="42.70379" lon="-0.51618">
        <ele>1453</ele>
        <time>2010-01-01T06:19:16Z</time>
      </trkpt>
      <trkpt lat="42.70375" lon="-0.51619">
        <ele>1451</ele>
        <time>2010-01-01T06:19:17Z</time>
      </trkpt>
      <trkpt lat="42.70353" lon="-0.51611">
        <ele>1445</ele>
        <time>2010-01-01T06:19:26Z</time>
      </trkpt>
      <trkpt lat="42.70336" lon="-0.51599">
        <ele>1445</ele>
        <time>2010-01-01T06:19:34Z</time>
      </trkpt>
      <trkpt lat="42.70337" lon="-0.51613">
        <ele>1439</ele>
        <time>2010-01-01T06:19:38Z</time>
      </trkpt>
      <trkpt lat="42.70343" lon="-0.51626">
        <ele>1436</ele>
        <time>2010-01-01T06:19:43Z</time>
      </trkpt>
      <trkpt lat="42.70376" lon="-0.51664">
        <ele>1436</ele>
        <time>2010-01-01T06:20:00Z</time>
      </trkpt>
      <trkpt lat="42.70392" lon="-0.51688">
        <ele>1436</ele>
        <time>2010-01-01T06:20:09Z</time>
      </trkpt>
      <trkpt lat="42.70395" lon="-0.51707">
        <ele>1431</ele>
        <time>2010-01-01T06:20:15Z</time>
      </trkpt>
      <trkpt lat="42.70395" lon="-0.51714">
        <ele>1429</ele>
        <time>2010-01-01T06:20:17Z</time>
      </trkpt>
      <trkpt lat="42.70397" lon="-0.51725">
        <ele>1427</ele>
        <time>2010-01-01T06:20:20Z</time>
      </trkpt>
      <trkpt lat="42.7041" lon="-0.51753">
        <ele>1421</ele>
        <time>2010-01-01T06:20:30Z</time>
      </trkpt>
      <trkpt lat="42.70417" lon="-0.51764">
        <ele>1418</ele>
        <time>2010-01-01T06:20:34Z</time>
      </trkpt>
      <trkpt lat="42.70416" lon="-0.51765">
        <ele>1417</ele>
        <time>2010-01-01T06:20:35Z</time>
      </trkpt>
      <trkpt lat="42.70411" lon="-0.5176">
        <ele>1417</ele>
        <time>2010-01-01T06:20:37Z</time>
      </trkpt>
      <trkpt lat="42.70398" lon="-0.51746">
        <ele>1418</ele>
        <time>2010-01-01T06:20:44Z</time>
      </trkpt>
      <trkpt lat="42.70398" lon="-0.51751">
        <ele>1416</ele>
        <time>2010-01-01T06:20:45Z</time>
      </trkpt>
      <trkpt lat="42.7041" lon="-0.51775">
        <ele>1409</ele>
        <time>2010-01-01T06:20:54Z</time>
      </trkpt>
      <trkpt lat="42.70424" lon="-0.51795">
        <ele>1403</ele>
        <time>2010-01-01T06:21:02Z</time>
      </trkpt>
      <trkpt lat="42.70435" lon="-0.51804">
        <ele>1401</ele>
        <time>2010-01-01T06:21:07Z</time>
      </trkpt>
      <trkpt lat="42.70448" lon="-0.51818">
        <ele>1398</ele>
        <time>2010-01-01T06:21:14Z</time>
      </trkpt>
      <trkpt lat="42.70466" lon="-0.51833">
        <ele>1396</ele>
        <time>2010-01-01T06:21:22Z</time>
      </trkpt>
      <trkpt lat="42.70459" lon="-0.51831">
        <ele>1394</ele>
        <time>2010-01-01T06:21:25Z</time>
      </trkpt>
      <trkpt lat="42.70444" lon="-0.51835">
        <ele>1387</ele>
        <time>2010-01-01T06:21:31Z</time>
      </trkpt>
      <trkpt lat="42.70434" lon="-0.51827">
        <ele>1389</ele>
        <time>2010-01-01T06:21:36Z</time>
      </trkpt>
      <trkpt lat="42.70427" lon="-0.51824">
        <ele>1388</ele>
        <time>2010-01-01T06:21:39Z</time>
      </trkpt>
      <trkpt lat="42.70418" lon="-0.51817">
        <ele>1389</ele>
        <time>2010-01-01T06:21:43Z</time>
      </trkpt>
      <trkpt lat="42.70417" lon="-0.51819">
        <ele>1388</ele>
        <time>2010-01-01T06:21:44Z</time>
      </trkpt>
      <trkpt lat="42.70427" lon="-0.5183">
        <ele>1385</ele>
        <time>2010-01-01T06:21:49Z</time>
      </trkpt>
      <trkpt lat="42.70435" lon="-0.51844">
        <ele>1381</ele>
        <time>2010-01-01T06:21:54Z</time>
      </trkpt>
      <trkpt lat="42.7046" lon="-0.51857">
        <ele>1382</ele>
        <time>2010-01-01T06:22:05Z</time>
      </trkpt>
      <trkpt lat="42.70465" lon="-0.51863">
        <ele>1381</ele>
        <time>2010-01-01T06:22:08Z</time>
      </trkpt>
      <trkpt lat="42.7046" lon="-0.51861">
        <ele>1380</ele>
        <time>2010-01-01T06:22:10Z</time>
      </trkpt>
      <trkpt lat="42.70433" lon="-0.5187">
        <ele>1368</ele>
        <time>2010-01-01T06:22:21Z</time>
      </trkpt>
      <trkpt lat="42.70426" lon="-0.51868">
        <ele>1367</ele>
        <time>2010-01-01T06:22:24Z</time>
      </trkpt>
      <trkpt lat="42.70417" lon="-0.51857">
        <ele>1369</ele>
        <time>2010-01-01T06:22:29Z</time>
      </trkpt>
      <trkpt lat="42.70413" lon="-0.5185">
        <ele>1372</ele>
        <time>2010-01-01T06:22:31Z</time>
      </trkpt>
      <trkpt lat="42.7041" lon="-0.51848">
        <ele>1371</ele>
        <time>2010-01-01T06:22:33Z</time>
      </trkpt>
      <trkpt lat="42.70409" lon="-0.51855">
        <ele>1368</ele>
        <time>2010-01-01T06:22:35Z</time>
      </trkpt>
      <trkpt lat="42.70416" lon="-0.51885">
        <ele>1357</ele>
        <time>2010-01-01T06:22:44Z</time>
      </trkpt>
      <trkpt lat="42.70423" lon="-0.51896">
        <ele>1354</ele>
        <time>2010-01-01T06:22:49Z</time>
      </trkpt>
      <trkpt lat="42.70446" lon="-0.51902">
        <ele>1359</ele>
        <time>2010-01-01T06:22:58Z</time>
      </trkpt>
      <trkpt lat="42.70448" lon="-0.51904">
        <ele>1358</ele>
        <time>2010-01-01T06:22:59Z</time>
      </trkpt>
      <trkpt lat="42.70439" lon="-0.51903">
        <ele>1356</ele>
        <time>2010-01-01T06:23:02Z</time>
      </trkpt>
      <trkpt lat="42.70433" lon="-0.51911">
        <ele>1351</ele>
        <time>2010-01-01T06:23:06Z</time>
      </trkpt>
      <trkpt lat="42.70417" lon="-0.51916">
        <ele>1344</ele>
        <time>2010-01-01T06:23:12Z</time>
      </trkpt>
      <trkpt lat="42.70391" lon="-0.51887">
        <ele>1347</ele>
        <time>2010-01-01T06:23:26Z</time>
      </trkpt>
      <trkpt lat="42.70374" lon="-0.51874">
        <ele>1347</ele>
        <time>2010-01-01T06:23:34Z</time>
      </trkpt>
      <trkpt lat="42.70396" lon="-0.51941">
        <ele>1331</ele>
        <time>2010-01-01T06:23:56Z</time>
      </trkpt>
      <trkpt lat="42.70384" lon="-0.5193">
        <ele>1331</ele>
        <time>2010-01-01T06:24:01Z</time>
      </trkpt>
      <trkpt lat="42.70345" lon="-0.51883">
        <ele>1333</ele>
        <time>2010-01-01T06:24:22Z</time>
      </trkpt>
      <trkpt lat="42.70338" lon="-0.51878">
        <ele>1332</ele>
        <time>2010-01-01T06:24:26Z</time>
      </trkpt>
      <trkpt lat="42.70335" lon="-0.51879">
        <ele>1330</ele>
        <time>2010-01-01T06:24:27Z</time>
      </trkpt>
      <trkpt lat="42.70343" lon="-0.51894">
        <ele>1328</ele>
        <time>2010-01-01T06:24:32Z</time>
      </trkpt>
      <trkpt lat="42.70347" lon="-0.51907">
        <ele>1325</ele>
        <time>2010-01-01T06:24:36Z</time>
      </trkpt>
      <trkpt lat="42.7035" lon="-0.51922">
        <ele>1321</ele>
        <time>2010-01-01T06:24:41Z</time>
      </trkpt>
      <trkpt lat="42.7036" lon="-0.51947">
        <ele>1316</ele>
        <time>2010-01-01T06:24:49Z</time>
      </trkpt>
      <trkpt lat="42.70378" lon="-0.51989">
        <ele>1309</ele>
        <time>2010-01-01T06:25:04Z</time>
      </trkpt>
      <trkpt lat="42.70389" lon="-0.52008">
        <ele>1304</ele>
        <time>2010-01-01T06:25:11Z</time>
      </trkpt>
      <trkpt lat="42.70383" lon="-0.52006">
        <ele>1303</ele>
        <time>2010-01-01T06:25:14Z</time>
      </trkpt>
      <trkpt lat="42.70374" lon="-0.51997">
        <ele>1305</ele>
        <time>2010-01-01T06:25:18Z</time>
      </trkpt>
      <trkpt lat="42.70365" lon="-0.51984">
        <ele>1307</ele>
        <time>2010-01-01T06:25:23Z</time>
      </trkpt>
      <trkpt lat="42.70361" lon="-0.51975">
        <ele>1309</ele>
        <time>2010-01-01T06:25:26Z</time>
      </trkpt>
      <trkpt lat="42.70358" lon="-0.51971">
        <ele>1309</ele>
        <time>2010-01-01T06:25:28Z</time>
      </trkpt>
      <trkpt lat="42.70354" lon="-0.51971">
        <ele>1308</ele>
        <time>2010-01-01T06:25:29Z</time>
      </trkpt>
      <trkpt lat="42.70343" lon="-0.51963">
        <ele>1307</ele>
        <time>2010-01-01T06:25:35Z</time>
      </trkpt>
      <trkpt lat="42.70328" lon="-0.51946">
        <ele>1308</ele>
        <time>2010-01-01T06:25:42Z</time>
      </trkpt>
      <trkpt lat="42.70331" lon="-0.51958">
        <ele>1305</ele>
        <time>2010-01-01T06:25:46Z</time>
      </trkpt>
      <trkpt lat="42.70332" lon="-0.5197">
        <ele>1302</ele>
        <time>2010-01-01T06:25:50Z</time>
      </trkpt>
      <trkpt lat="42.70346" lon="-0.52003">
        <ele>1296</ele>
        <time>2010-01-01T06:26:01Z</time>
      </trkpt>
      <trkpt lat="42.7035" lon="-0.52027">
        <ele>1286</ele>
        <time>2010-01-01T06:26:08Z</time>
      </trkpt>
      <trkpt lat="42.70358" lon="-0.52044">
        <ele>1280</ele>
        <time>2010-01-01T06:26:14Z</time>
      </trkpt>
      <trkpt lat="42.70366" lon="-0.52054">
        <ele>1277</ele>
        <time>2010-01-01T06:26:18Z</time>
      </trkpt>
      <trkpt lat="42.70373" lon="-0.52062">
        <ele>1276</ele>
        <time>2010-01-01T06:26:22Z</time>
      </trkpt>
      <trkpt lat="42.70386" lon="-0.52069">
        <ele>1277</ele>
        <time>2010-01-01T06:26:28Z</time>
      </trkpt>
      <trkpt lat="42.70398" lon="-0.52071">
        <ele>1278</ele>
        <time>2010-01-01T06:26:33Z</time>
      </trkpt>
      <trkpt lat="42.70416" lon="-0.52066">
        <ele>1281</ele>
        <time>2010-01-01T06:26:40Z</time>
      </trkpt>
      <trkpt lat="42.70426" lon="-0.52065">
        <ele>1283</ele>
        <time>2010-01-01T06:26:44Z</time>
      </trkpt>
      <trkpt lat="42.70423" lon="-0.52068">
        <ele>1281</ele>
        <time>2010-01-01T06:26:45Z</time>
      </trkpt>
      <trkpt lat="42.7042" lon="-0.52068">
        <ele>1281</ele>
        <time>2010-01-01T06:26:46Z</time>
      </trkpt>
      <trkpt lat="42.70416" lon="-0.52074">
        <ele>1278</ele>
        <time>2010-01-01T06:26:48Z</time>
      </trkpt>
      <trkpt lat="42.70411" lon="-0.52077">
        <ele>1276</ele>
        <time>2010-01-01T06:26:51Z</time>
      </trkpt>
      <trkpt lat="42.70406" lon="-0.52086">
        <ele>1272</ele>
        <time>2010-01-01T06:26:54Z</time>
      </trkpt>
      <trkpt lat="42.70398" lon="-0.52088">
        <ele>1271</ele>
        <time>2010-01-01T06:26:57Z</time>
      </trkpt>
      <trkpt lat="42.70392" lon="-0.52093">
        <ele>1268</ele>
        <time>2010-01-01T06:27:00Z</time>
      </trkpt>
      <trkpt lat="42.70389" lon="-0.52093">
        <ele>1268</ele>
        <time>2010-01-01T06:27:01Z</time>
      </trkpt>
      <trkpt lat="42.70391" lon="-0.521">
        <ele>1265</ele>
        <time>2010-01-01T06:27:03Z</time>
      </trkpt>
      <trkpt lat="42.70405" lon="-0.52108">
        <ele>1263</ele>
        <time>2010-01-01T06:27:09Z</time>
      </trkpt>
      <trkpt lat="42.7042" lon="-0.52108">
        <ele>1264</ele>
        <time>2010-01-01T06:27:15Z</time>
      </trkpt>
      <trkpt lat="42.70427" lon="-0.52109">
        <ele>1263</ele>
        <time>2010-01-01T06:27:18Z</time>
      </trkpt>
      <trkpt lat="42.70427" lon="-0.5211">
        <ele>1262</ele>
        <time>2010-01-01T06:27:19Z</time>
      </trkpt>
      <trkpt lat="42.70409" lon="-0.52126">
        <ele>1255</ele>
        <time>2010-01-01T06:27:27Z</time>
      </trkpt>
      <trkpt lat="42.70398" lon="-0.52132">
        <ele>1252</ele>
        <time>2010-01-01T06:27:32Z</time>
      </trkpt>
      <trkpt lat="42.70389" lon="-0.52135">
        <ele>1250</ele>
        <time>2010-01-01T06:27:36Z</time>
      </trkpt>
      <trkpt lat="42.7038" lon="-0.52141">
        <ele>1245</ele>
        <time>2010-01-01T06:27:40Z</time>
      </trkpt>
      <trkpt lat="42.70379" lon="-0.52145">
        <ele>1242</ele>
        <time>2010-01-01T06:27:41Z</time>
      </trkpt>
      <trkpt lat="42.70403" lon="-0.52155">
        <ele>1238</ele>
        <time>2010-01-01T06:27:51Z</time>
      </trkpt>
      <trkpt lat="42.70416" lon="-0.52164">
        <ele>1233</ele>
        <time>2010-01-01T06:27:57Z</time>
      </trkpt>
      <trkpt lat="42.70413" lon="-0.52167">
        <ele>1231</ele>
        <time>2010-01-01T06:27:58Z</time>
      </trkpt>
      <trkpt lat="42.70405" lon="-0.52169">
        <ele>1229</ele>
        <time>2010-01-01T06:28:02Z</time>
      </trkpt>
      <trkpt lat="42.70393" lon="-0.52168">
        <ele>1229</ele>
        <time>2010-01-01T06:28:07Z</time>
      </trkpt>
      <trkpt lat="42.7038" lon="-0.52169">
        <ele>1227</ele>
        <time>2010-01-01T06:28:12Z</time>
      </trkpt>
      <trkpt lat="42.70381" lon="-0.52175">
        <ele>1223</ele>
        <time>2010-01-01T06:28:13Z</time>
      </trkpt>
      <trkpt lat="42.70389" lon="-0.52179">
        <ele>1221</ele>
        <time>2010-01-01T06:28:17Z</time>
      </trkpt>
      <trkpt lat="42.70395" lon="-0.52186">
        <ele>1217</ele>
        <time>2010-01-01T06:28:20Z</time>
      </trkpt>
      <trkpt lat="42.70391" lon="-0.52189">
        <ele>1214</ele>
        <time>2010-01-01T06:28:22Z</time>
      </trkpt>
      <trkpt lat="42.70387" lon="-0.5219">
        <ele>1214</ele>
        <time>2010-01-01T06:28:24Z</time>
      </trkpt>
      <trkpt lat="42.70381" lon="-0.52188">
        <ele>1214</ele>
        <time>2010-01-01T06:28:26Z</time>
      </trkpt>
      <trkpt lat="42.70378" lon="-0.5219">
        <ele>1213</ele>
        <time>2010-01-01T06:28:27Z</time>
      </trkpt>
      <trkpt lat="42.7037" lon="-0.52188">
        <ele>1214</ele>
        <time>2010-01-01T06:28:31Z</time>
      </trkpt>
      <trkpt lat="42.70359" lon="-0.52182">
        <ele>1216</ele>
        <time>2010-01-01T06:28:35Z</time>
      </trkpt>
      <trkpt lat="42.70362" lon="-0.52188">
        <ele>1214</ele>
        <time>2010-01-01T06:28:37Z</time>
      </trkpt>
      <trkpt lat="42.70371" lon="-0.52196">
        <ele>1209</ele>
        <time>2010-01-01T06:28:42Z</time>
      </trkpt>
      <trkpt lat="42.70386" lon="-0.52204">
        <ele>1206</ele>
        <time>2010-01-01T06:28:48Z</time>
      </trkpt>
      <trkpt lat="42.70384" lon="-0.52208">
        <ele>1204</ele>
        <time>2010-01-01T06:28:50Z</time>
      </trkpt>
      <trkpt lat="42.70375" lon="-0.52207">
        <ele>1204</ele>
        <time>2010-01-01T06:28:53Z</time>
      </trkpt>
      <trkpt lat="42.7037" lon="-0.5221">
        <ele>1202</ele>
        <time>2010-01-01T06:28:55Z</time>
      </trkpt>
      <trkpt lat="42.70354" lon="-0.52203">
        <ele>1204</ele>
        <time>2010-01-01T06:29:02Z</time>
      </trkpt>
      <trkpt lat="42.70349" lon="-0.52203">
        <ele>1204</ele>
        <time>2010-01-01T06:29:04Z</time>
      </trkpt>
      <trkpt lat="42.70341" lon="-0.52201">
        <ele>1204</ele>
        <time>2010-01-01T06:29:07Z</time>
      </trkpt>
      <trkpt lat="42.70337" lon="-0.52203">
        <ele>1202</ele>
        <time>2010-01-01T06:29:09Z</time>
      </trkpt>
      <trkpt lat="42.70331" lon="-0.52202">
        <ele>1202</ele>
        <time>2010-01-01T06:29:11Z</time>
      </trkpt>
      <trkpt lat="42.70316" lon="-0.52206">
        <ele>1198</ele>
        <time>2010-01-01T06:29:18Z</time>
      </trkpt>
      <trkpt lat="42.7032" lon="-0.52211">
        <ele>1196</ele>
        <time>2010-01-01T06:29:20Z</time>
      </trkpt>
      <trkpt lat="42.7033" lon="-0.52216">
        <ele>1196</ele>
        <time>2010-01-01T06:29:24Z</time>
      </trkpt>
      <trkpt lat="42.70348" lon="-0.52248">
        <ele>1182</ele>
        <time>2010-01-01T06:29:36Z</time>
      </trkpt>
      <trkpt lat="42.70356" lon="-0.52256">
        <ele>1179</ele>
        <time>2010-01-01T06:29:40Z</time>
      </trkpt>
      <trkpt lat="42.70369" lon="-0.52263">
        <ele>1178</ele>
        <time>2010-01-01T06:29:45Z</time>
      </trkpt>
      <trkpt lat="42.70377" lon="-0.52272">
        <ele>1175</ele>
        <time>2010-01-01T06:29:50Z</time>
      </trkpt>
      <trkpt lat="42.70387" lon="-0.52274">
        <ele>1176</ele>
        <time>2010-01-01T06:29:54Z</time>
      </trkpt>
      <trkpt lat="42.70398" lon="-0.5228">
        <ele>1174</ele>
        <time>2010-01-01T06:29:58Z</time>
      </trkpt>
      <trkpt lat="42.70418" lon="-0.52282">
        <ele>1175</ele>
        <time>2010-01-01T06:30:06Z</time>
      </trkpt>
      <trkpt lat="42.70419" lon="-0.52285">
        <ele>1174</ele>
        <time>2010-01-01T06:30:07Z</time>
      </trkpt>
      <trkpt lat="42.70407" lon="-0.52297">
        <ele>1169</ele>
        <time>2010-01-01T06:30:13Z</time>
      </trkpt>
      <trkpt lat="42.70396" lon="-0.52301">
        <ele>1167</ele>
        <time>2010-01-01T06:30:18Z</time>
      </trkpt>
      <trkpt lat="42.70397" lon="-0.52308">
        <ele>1164</ele>
        <time>2010-01-01T06:30:20Z</time>
      </trkpt>
      <trkpt lat="42.70409" lon="-0.52311">
        <ele>1164</ele>
        <time>2010-01-01T06:30:25Z</time>
      </trkpt>
      <trkpt lat="42.70409" lon="-0.52312">
        <ele>1164</ele>
        <time>2010-01-01T06:30:25Z</time>
      </trkpt>
      <trkpt lat="42.70403" lon="-0.52313">
        <ele>1163</ele>
        <time>2010-01-01T06:30:27Z</time>
      </trkpt>
      <trkpt lat="42.70406" lon="-0.52316">
        <ele>1163</ele>
        <time>2010-01-01T06:30:29Z</time>
      </trkpt>
      <trkpt lat="42.70403" lon="-0.5232">
        <ele>1161</ele>
        <time>2010-01-01T06:30:31Z</time>
      </trkpt>
      <trkpt lat="42.70404" lon="-0.52325">
        <ele>1160</ele>
        <time>2010-01-01T06:30:32Z</time>
      </trkpt>
      <trkpt lat="42.70408" lon="-0.52324">
        <ele>1161</ele>
        <time>2010-01-01T06:30:34Z</time>
      </trkpt>
      <trkpt lat="42.70394" lon="-0.52355">
        <ele>1149</ele>
        <time>2010-01-01T06:30:44Z</time>
      </trkpt>
      <trkpt lat="42.70397" lon="-0.52354">
        <ele>1149</ele>
        <time>2010-01-01T06:30:45Z</time>
      </trkpt>
      <trkpt lat="42.70397" lon="-0.5236">
        <ele>1147</ele>
        <time>2010-01-01T06:30:47Z</time>
      </trkpt>
      <trkpt lat="42.7039" lon="-0.52365">
        <ele>1145</ele>
        <time>2010-01-01T06:30:50Z</time>
      </trkpt>
      <trkpt lat="42.70385" lon="-0.52367">
        <ele>1143</ele>
        <time>2010-01-01T06:30:52Z</time>
      </trkpt>
      <trkpt lat="42.70386" lon="-0.52368">
        <ele>1143</ele>
        <time>2010-01-01T06:30:53Z</time>
      </trkpt>
      <trkpt lat="42.70394" lon="-0.5237">
        <ele>1143</ele>
        <time>2010-01-01T06:30:56Z</time>
      </trkpt>
      <trkpt lat="42.70388" lon="-0.52371">
        <ele>1142</ele>
        <time>2010-01-01T06:30:58Z</time>
      </trkpt>
      <trkpt lat="42.70382" lon="-0.52377">
        <ele>1139</ele>
        <time>2010-01-01T06:31:01Z</time>
      </trkpt>
      <trkpt lat="42.70378" lon="-0.52381">
        <ele>1136</ele>
        <time>2010-01-01T06:31:03Z</time>
      </trkpt>
      <trkpt lat="42.70377" lon="-0.52385">
        <ele>1134</ele>
        <time>2010-01-01T06:31:05Z</time>
      </trkpt>
      <trkpt lat="42.704" lon="-0.52384">
        <ele>1136</ele>
        <time>2010-01-01T06:31:14Z</time>
      </trkpt>
      <trkpt lat="42.70383" lon="-0.52401">
        <ele>1128</ele>
        <time>2010-01-01T06:31:22Z</time>
      </trkpt>
      <trkpt lat="42.70388" lon="-0.52402">
        <ele>1128</ele>
        <time>2010-01-01T06:31:24Z</time>
      </trkpt>
      <trkpt lat="42.70392" lon="-0.52401">
        <ele>1128</ele>
        <time>2010-01-01T06:31:26Z</time>
      </trkpt>
      <trkpt lat="42.70397" lon="-0.52403">
        <ele>1127</ele>
        <time>2010-01-01T06:31:28Z</time>
      </trkpt>
      <trkpt lat="42.70399" lon="-0.52406">
        <ele>1126</ele>
        <time>2010-01-01T06:31:29Z</time>
      </trkpt>
      <trkpt lat="42.70391" lon="-0.52411">
        <ele>1124</ele>
        <time>2010-01-01T06:31:33Z</time>
      </trkpt>
      <trkpt lat="42.70389" lon="-0.52415">
        <ele>1122</ele>
        <time>2010-01-01T06:31:34Z</time>
      </trkpt>
      <trkpt lat="42.70394" lon="-0.52418">
        <ele>1121</ele>
        <time>2010-01-01T06:31:36Z</time>
      </trkpt>
      <trkpt lat="42.70404" lon="-0.52419">
        <ele>1121</ele>
        <time>2010-01-01T06:31:40Z</time>
      </trkpt>
      <trkpt lat="42.70426" lon="-0.52399">
        <ele>1127</ele>
        <time>2010-01-01T06:31:50Z</time>
      </trkpt>
      <trkpt lat="42.70426" lon="-0.52401">
        <ele>1126</ele>
        <time>2010-01-01T06:31:51Z</time>
      </trkpt>
      <trkpt lat="42.70407" lon="-0.52431">
        <ele>1115</ele>
        <time>2010-01-01T06:32:03Z</time>
      </trkpt>
      <trkpt lat="42.70409" lon="-0.52433">
        <ele>1114</ele>
        <time>2010-01-01T06:32:04Z</time>
      </trkpt>
      <trkpt lat="42.70417" lon="-0.52427">
        <ele>1117</ele>
        <time>2010-01-01T06:32:07Z</time>
      </trkpt>
      <trkpt lat="42.70425" lon="-0.52426">
        <ele>1115</ele>
        <time>2010-01-01T06:32:10Z</time>
      </trkpt>
      <trkpt lat="42.70425" lon="-0.52429">
        <ele>1113</ele>
        <time>2010-01-01T06:32:11Z</time>
      </trkpt>
      <trkpt lat="42.70421" lon="-0.52433">
        <ele>1112</ele>
        <time>2010-01-01T06:32:13Z</time>
      </trkpt>
      <trkpt lat="42.70418" lon="-0.52444">
        <ele>1108</ele>
        <time>2010-01-01T06:32:16Z</time>
      </trkpt>
      <trkpt lat="42.70408" lon="-0.52457">
        <ele>1102</ele>
        <time>2010-01-01T06:32:22Z</time>
      </trkpt>
      <trkpt lat="42.70408" lon="-0.5246">
        <ele>1101</ele>
        <time>2010-01-01T06:32:23Z</time>
      </trkpt>
      <trkpt lat="42.70411" lon="-0.52463">
        <ele>1099</ele>
        <time>2010-01-01T06:32:24Z</time>
      </trkpt>
      <trkpt lat="42.70412" lon="-0.52459">
        <ele>1101</ele>
        <time>2010-01-01T06:32:25Z</time>
      </trkpt>
      <trkpt lat="42.70418" lon="-0.52454">
        <ele>1103</ele>
        <time>2010-01-01T06:32:28Z</time>
      </trkpt>
      <trkpt lat="42.70424" lon="-0.52451">
        <ele>1103</ele>
        <time>2010-01-01T06:32:30Z</time>
      </trkpt>
      <trkpt lat="42.70419" lon="-0.5246">
        <ele>1100</ele>
        <time>2010-01-01T06:32:34Z</time>
      </trkpt>
      <trkpt lat="42.7041" lon="-0.52467">
        <ele>1097</ele>
        <time>2010-01-01T06:32:38Z</time>
      </trkpt>
      <trkpt lat="42.70403" lon="-0.52476">
        <ele>1092</ele>
        <time>2010-01-01T06:32:42Z</time>
      </trkpt>
      <trkpt lat="42.70407" lon="-0.52476">
        <ele>1092</ele>
        <time>2010-01-01T06:32:43Z</time>
      </trkpt>
      <trkpt lat="42.70415" lon="-0.52473">
        <ele>1093</ele>
        <time>2010-01-01T06:32:47Z</time>
      </trkpt>
      <trkpt lat="42.70423" lon="-0.52475">
        <ele>1091</ele>
        <time>2010-01-01T06:32:50Z</time>
      </trkpt>
      <trkpt lat="42.7043" lon="-0.52474">
        <ele>1090</ele>
        <time>2010-01-01T06:32:53Z</time>
      </trkpt>
      <trkpt lat="42.70429" lon="-0.52482">
        <ele>1086</ele>
        <time>2010-01-01T06:32:55Z</time>
      </trkpt>
      <trkpt lat="42.70424" lon="-0.52492">
        <ele>1082</ele>
        <time>2010-01-01T06:32:59Z</time>
      </trkpt>
      <trkpt lat="42.70417" lon="-0.52502">
        <ele>1078</ele>
        <time>2010-01-01T06:33:03Z</time>
      </trkpt>
      <trkpt lat="42.70416" lon="-0.52509">
        <ele>1074</ele>
        <time>2010-01-01T06:33:05Z</time>
      </trkpt>
      <trkpt lat="42.70429" lon="-0.52514">
        <ele>1072</ele>
        <time>2010-01-01T06:33:10Z</time>
      </trkpt>
      <trkpt lat="42.7044" lon="-0.5251">
        <ele>1073</ele>
        <time>2010-01-01T06:33:15Z</time>
      </trkpt>
      <trkpt lat="42.70438" lon="-0.52516">
        <ele>1070</ele>
        <time>2010-01-01T06:33:17Z</time>
      </trkpt>
      <trkpt lat="42.70422" lon="-0.5253">
        <ele>1064</ele>
        <time>2010-01-01T06:33:24Z</time>
      </trkpt>
      <trkpt lat="42.7041" lon="-0.52534">
        <ele>1062</ele>
        <time>2010-01-01T06:33:29Z</time>
      </trkpt>
      <trkpt lat="42.70405" lon="-0.52541">
        <ele>1059</ele>
        <time>2010-01-01T06:33:32Z</time>
      </trkpt>
      <trkpt lat="42.70402" lon="-0.52542">
        <ele>1058</ele>
        <time>2010-01-01T06:33:33Z</time>
      </trkpt>
      <trkpt lat="42.70409" lon="-0.52542">
        <ele>1059</ele>
        <time>2010-01-01T06:33:36Z</time>
      </trkpt>
      <trkpt lat="42.70419" lon="-0.52544">
        <ele>1058</ele>
        <time>2010-01-01T06:33:40Z</time>
      </trkpt>
      <trkpt lat="42.70423" lon="-0.52547">
        <ele>1056</ele>
        <time>2010-01-01T06:33:42Z</time>
      </trkpt>
      <trkpt lat="42.70413" lon="-0.52547">
        <ele>1056</ele>
        <time>2010-01-01T06:33:46Z</time>
      </trkpt>
      <trkpt lat="42.70404" lon="-0.52552">
        <ele>1053</ele>
        <time>2010-01-01T06:33:50Z</time>
      </trkpt>
      <trkpt lat="42.70402" lon="-0.52557">
        <ele>1050</ele>
        <time>2010-01-01T06:33:51Z</time>
      </trkpt>
      <trkpt lat="42.70412" lon="-0.52559">
        <ele>1050</ele>
        <time>2010-01-01T06:33:55Z</time>
      </trkpt>
      <trkpt lat="42.70424" lon="-0.52558">
        <ele>1050</ele>
        <time>2010-01-01T06:34:00Z</time>
      </trkpt>
      <trkpt lat="42.70426" lon="-0.5256">
        <ele>1049</ele>
        <time>2010-01-01T06:34:01Z</time>
      </trkpt>
      <trkpt lat="42.70428" lon="-0.52558">
        <ele>1050</ele>
        <time>2010-01-01T06:34:02Z</time>
      </trkpt>
      <trkpt lat="42.70441" lon="-0.52555">
        <ele>1050</ele>
        <time>2010-01-01T06:34:07Z</time>
      </trkpt>
      <trkpt lat="42.70443" lon="-0.52554">
        <ele>1050</ele>
        <time>2010-01-01T06:34:08Z</time>
      </trkpt>
      <trkpt lat="42.70447" lon="-0.52549">
        <ele>1053</ele>
        <time>2010-01-01T06:34:10Z</time>
      </trkpt>
      <trkpt lat="42.70452" lon="-0.52545">
        <ele>1055</ele>
        <time>2010-01-01T06:34:13Z</time>
      </trkpt>
      <trkpt lat="42.70462" lon="-0.52542">
        <ele>1055</ele>
        <time>2010-01-01T06:34:17Z</time>
      </trkpt>
      <trkpt lat="42.70483" lon="-0.52548">
        <ele>1048</ele>
        <time>2010-01-01T06:34:25Z</time>
      </trkpt>
      <trkpt lat="42.70492" lon="-0.52546">
        <ele>1047</ele>
        <time>2010-01-01T06:34:29Z</time>
      </trkpt>
      <trkpt lat="42.70519" lon="-0.52545">
        <ele>1044</ele>
        <time>2010-01-01T06:34:40Z</time>
      </trkpt>
      <trkpt lat="42.70528" lon="-0.52546">
        <ele>1042</ele>
        <time>2010-01-01T06:34:43Z</time>
      </trkpt>
      <trkpt lat="42.7053" lon="-0.52548">
        <ele>1041</ele>
        <time>2010-01-01T06:34:44Z</time>
      </trkpt>
      <trkpt lat="42.70521" lon="-0.52559">
        <ele>1038</ele>
        <time>2010-01-01T06:34:49Z</time>
      </trkpt>
      <trkpt lat="42.70522" lon="-0.52561">
        <ele>1037</ele>
        <time>2010-01-01T06:34:50Z</time>
      </trkpt>
      <trkpt lat="42.70532" lon="-0.5256">
        <ele>1036</ele>
        <time>2010-01-01T06:34:54Z</time>
      </trkpt>
      <trkpt lat="42.70538" lon="-0.52562">
        <ele>1034</ele>
        <time>2010-01-01T06:34:56Z</time>
      </trkpt>
      <trkpt lat="42.70558" lon="-0.52559">
        <ele>1032</ele>
        <time>2010-01-01T06:35:04Z</time>
      </trkpt>
      <trkpt lat="42.70588" lon="-0.52567">
        <ele>1023</ele>
        <time>2010-01-01T06:35:16Z</time>
      </trkpt>
      <trkpt lat="42.70602" lon="-0.52569">
        <ele>1021</ele>
        <time>2010-01-01T06:35:22Z</time>
      </trkpt>
      <trkpt lat="42.70618" lon="-0.52567">
        <ele>1019</ele>
        <time>2010-01-01T06:35:28Z</time>
      </trkpt>
      <trkpt lat="42.70638" lon="-0.52557">
        <ele>1021</ele>
        <time>2010-01-01T06:35:37Z</time>
      </trkpt>
      <trkpt lat="42.70658" lon="-0.52553">
        <ele>1020</ele>
        <time>2010-01-01T06:35:45Z</time>
      </trkpt>
      <trkpt lat="42.70669" lon="-0.5255">
        <ele>1021</ele>
        <time>2010-01-01T06:35:50Z</time>
      </trkpt>
      <trkpt lat="42.7068" lon="-0.52546">
        <ele>1023</ele>
        <time>2010-01-01T06:35:54Z</time>
      </trkpt>
      <trkpt lat="42.70699" lon="-0.52534">
        <ele>1029</ele>
        <time>2010-01-01T06:36:02Z</time>
      </trkpt>
      <trkpt lat="42.70723" lon="-0.52532">
        <ele>1024</ele>
        <time>2010-01-01T06:36:12Z</time>
      </trkpt>
      <trkpt lat="42.70742" lon="-0.52533">
        <ele>1019</ele>
        <time>2010-01-01T06:36:20Z</time>
      </trkpt>
      <trkpt lat="42.70753" lon="-0.52535">
        <ele>1017</ele>
        <time>2010-01-01T06:36:24Z</time>
      </trkpt>
      <trkpt lat="42.70779" lon="-0.52544">
        <ele>1016</ele>
        <time>2010-01-01T06:36:35Z</time>
      </trkpt>
      <trkpt lat="42.70795" lon="-0.52542">
        <ele>1016</ele>
        <time>2010-01-01T06:36:41Z</time>
      </trkpt>
      <trkpt lat="42.70806" lon="-0.52538">
        <ele>1017</ele>
        <time>2010-01-01T06:36:46Z</time>
      </trkpt>
      <trkpt lat="42.70813" lon="-0.52533">
        <ele>1018</ele>
        <time>2010-01-01T06:36:49Z</time>
      </trkpt>
      <trkpt lat="42.70826" lon="-0.52527">
        <ele>1020</ele>
        <time>2010-01-01T06:36:55Z</time>
      </trkpt>
      <trkpt lat="42.70831" lon="-0.52527">
        <ele>1020</ele>
        <time>2010-01-01T06:36:57Z</time>
      </trkpt>
      <trkpt lat="42.70864" lon="-0.52541">
        <ele>1021</ele>
        <time>2010-01-01T06:37:10Z</time>
      </trkpt>
      <trkpt lat="42.70885" lon="-0.52544">
        <ele>1023</ele>
        <time>2010-01-01T06:37:19Z</time>
      </trkpt>
      <trkpt lat="42.70894" lon="-0.52542">
        <ele>1024</ele>
        <time>2010-01-01T06:37:23Z</time>
      </trkpt>
      <trkpt lat="42.70925" lon="-0.5252">
        <ele>1030</ele>
        <time>2010-01-01T06:37:36Z</time>
      </trkpt>
      <trkpt lat="42.70948" lon="-0.52509">
        <ele>1033</ele>
        <time>2010-01-01T06:37:46Z</time>
      </trkpt>
      <trkpt lat="42.70978" lon="-0.52499">
        <ele>1035</ele>
        <time>2010-01-01T06:37:59Z</time>
      </trkpt>
      <trkpt lat="42.70989" lon="-0.52502">
        <ele>1034</ele>
        <time>2010-01-01T06:38:03Z</time>
      </trkpt>
      <trkpt lat="42.70997" lon="-0.52508">
        <ele>1032</ele>
        <time>2010-01-01T06:38:07Z</time>
      </trkpt>
      <trkpt lat="42.71015" lon="-0.52513">
        <ele>1031</ele>
        <time>2010-01-01T06:38:14Z</time>
      </trkpt>
      <trkpt lat="42.71047" lon="-0.52519">
        <ele>1027</ele>
        <time>2010-01-01T06:38:27Z</time>
      </trkpt>
      <trkpt lat="42.71038" lon="-0.52612">
        <ele>1022</ele>
        <time>2010-01-01T06:38:55Z</time>
      </trkpt>
      <trkpt lat="42.71041" lon="-0.52596">
        <ele>1021</ele>
        <time>2010-01-01T06:38:59Z</time>
      </trkpt>
      <trkpt lat="42.71069" lon="-0.52573">
        <ele>1023</ele>
        <time>2010-01-01T06:39:13Z</time>
      </trkpt>
      <trkpt lat="42.71096" lon="-0.52557">
        <ele>1024</ele>
        <time>2010-01-01T06:39:24Z</time>
      </trkpt>
      <trkpt lat="42.71132" lon="-0.52516">
        <ele>1022</ele>
        <time>2010-01-01T06:39:43Z</time>
      </trkpt>
      <trkpt lat="42.71185" lon="-0.52484">
        <ele>1024</ele>
        <time>2010-01-01T06:40:06Z</time>
      </trkpt>
      <trkpt lat="42.71215" lon="-0.52486">
        <ele>1029</ele>
        <time>2010-01-01T06:40:19Z</time>
      </trkpt>
      <trkpt lat="42.71241" lon="-0.5249">
        <ele>1032</ele>
        <time>2010-01-01T06:40:29Z</time>
      </trkpt>
      <trkpt lat="42.71285" lon="-0.52515">
        <ele>1038</ele>
        <time>2010-01-01T06:40:48Z</time>
      </trkpt>
      <trkpt lat="42.71312" lon="-0.52519">
        <ele>1039</ele>
        <time>2010-01-01T06:40:59Z</time>
      </trkpt>
      <trkpt lat="42.71346" lon="-0.5253">
        <ele>1040</ele>
        <time>2010-01-01T06:41:13Z</time>
      </trkpt>
      <trkpt lat="42.71412" lon="-0.52547">
        <ele>1047</ele>
        <time>2010-01-01T06:41:40Z</time>
      </trkpt>
      <trkpt lat="42.71435" lon="-0.52573">
        <ele>1053</ele>
        <time>2010-01-01T06:41:52Z</time>
      </trkpt>
      <trkpt lat="42.71446" lon="-0.52581">
        <ele>1053</ele>
        <time>2010-01-01T06:41:57Z</time>
      </trkpt>
      <trkpt lat="42.71483" lon="-0.52586">
        <ele>1052</ele>
        <time>2010-01-01T06:42:12Z</time>
      </trkpt>
      <trkpt lat="42.7152" lon="-0.5258">
        <ele>1051</ele>
        <time>2010-01-01T06:42:27Z</time>
      </trkpt>
      <trkpt lat="42.71563" lon="-0.52569">
        <ele>1046</ele>
        <time>2010-01-01T06:42:44Z</time>
      </trkpt>
      <trkpt lat="42.7163" lon="-0.5255">
        <ele>1046</ele>
        <time>2010-01-01T06:43:12Z</time>
      </trkpt>
      <trkpt lat="42.71656" lon="-0.52545">
        <ele>1048</ele>
        <time>2010-01-01T06:43:22Z</time>
      </trkpt>
      <trkpt lat="42.71731" lon="-0.52514">
        <ele>1050</ele>
        <time>2010-01-01T06:43:53Z</time>
      </trkpt>
      <trkpt lat="42.71771" lon="-0.52514">
        <ele>1049</ele>
        <time>2010-01-01T06:44:09Z</time>
      </trkpt>
      <trkpt lat="42.71784" lon="-0.52517">
        <ele>1049</ele>
        <time>2010-01-01T06:44:15Z</time>
      </trkpt>
      <trkpt lat="42.71852" lon="-0.52523">
        <ele>1055</ele>
        <time>2010-01-01T06:44:42Z</time>
      </trkpt>
      <trkpt lat="42.71898" lon="-0.52534">
        <ele>1054</ele>
        <time>2010-01-01T06:45:01Z</time>
      </trkpt>
      <trkpt lat="42.71918" lon="-0.52536">
        <ele>1053</ele>
        <time>2010-01-01T06:45:09Z</time>
      </trkpt>
      <trkpt lat="42.71965" lon="-0.52532">
        <ele>1050</ele>
        <time>2010-01-01T06:45:27Z</time>
      </trkpt>
      <trkpt lat="42.71971" lon="-0.52527">
        <ele>1050</ele>
        <time>2010-01-01T06:45:30Z</time>
      </trkpt>
      <trkpt lat="42.71979" lon="-0.52509">
        <ele>1051</ele>
        <time>2010-01-01T06:45:37Z</time>
      </trkpt>
      <trkpt lat="42.71984" lon="-0.52482">
        <ele>1051</ele>
        <time>2010-01-01T06:45:45Z</time>
      </trkpt>
      <trkpt lat="42.71983" lon="-0.52488">
        <ele>1051</ele>
        <time>2010-01-01T06:45:47Z</time>
      </trkpt>
      <trkpt lat="42.71989" lon="-0.52466">
        <ele>1051</ele>
        <time>2010-01-01T06:45:54Z</time>
      </trkpt>
      <trkpt lat="42.72004" lon="-0.52433">
        <ele>1056</ele>
        <time>2010-01-01T06:46:05Z</time>
      </trkpt>
      <trkpt lat="42.72016" lon="-0.52412">
        <ele>1057</ele>
        <time>2010-01-01T06:46:13Z</time>
      </trkpt>
      <trkpt lat="42.72019" lon="-0.52404">
        <ele>1058</ele>
        <time>2010-01-01T06:46:16Z</time>
      </trkpt>
      <trkpt lat="42.72015" lon="-0.52372">
        <ele>1066</ele>
        <time>2010-01-01T06:46:25Z</time>
      </trkpt>
      <trkpt lat="42.72016" lon="-0.52361">
        <ele>1068</ele>
        <time>2010-01-01T06:46:29Z</time>
      </trkpt>
      <trkpt lat="42.72024" lon="-0.52345">
        <ele>1070</ele>
        <time>2010-01-01T06:46:34Z</time>
      </trkpt>
      <trkpt lat="42.72019" lon="-0.52333">
        <ele>1073</ele>
        <time>2010-01-01T06:46:38Z</time>
      </trkpt>
      <trkpt lat="42.71999" lon="-0.5232">
        <ele>1079</ele>
        <time>2010-01-01T06:46:47Z</time>
      </trkpt>
      <trkpt lat="42.71987" lon="-0.52323">
        <ele>1080</ele>
        <time>2010-01-01T06:46:52Z</time>
      </trkpt>
      <trkpt lat="42.71979" lon="-0.52317">
        <ele>1082</ele>
        <time>2010-01-01T06:46:55Z</time>
      </trkpt>
      <trkpt lat="42.7198" lon="-0.52305">
        <ele>1084</ele>
        <time>2010-01-01T06:46:59Z</time>
      </trkpt>
      <trkpt lat="42.7199" lon="-0.52286">
        <ele>1087</ele>
        <time>2010-01-01T06:47:06Z</time>
      </trkpt>
      <trkpt lat="42.71989" lon="-0.52277">
        <ele>1089</ele>
        <time>2010-01-01T06:47:09Z</time>
      </trkpt>
      <trkpt lat="42.71981" lon="-0.52274">
        <ele>1091</ele>
        <time>2010-01-01T06:47:12Z</time>
      </trkpt>
      <trkpt lat="42.71991" lon="-0.52251">
        <ele>1100</ele>
        <time>2010-01-01T06:47:20Z</time>
      </trkpt>
      <trkpt lat="42.71997" lon="-0.52234">
        <ele>1107</ele>
        <time>2010-01-01T06:47:26Z</time>
      </trkpt>
      <trkpt lat="42.71992" lon="-0.52228">
        <ele>1110</ele>
        <time>2010-01-01T06:47:28Z</time>
      </trkpt>
      <trkpt lat="42.72" lon="-0.5221">
        <ele>1117</ele>
        <time>2010-01-01T06:47:34Z</time>
      </trkpt>
      <trkpt lat="42.72017" lon="-0.52214">
        <ele>1114</ele>
        <time>2010-01-01T06:47:41Z</time>
      </trkpt>
      <trkpt lat="42.72028" lon="-0.5222">
        <ele>1110</ele>
        <time>2010-01-01T06:47:46Z</time>
      </trkpt>
      <trkpt lat="42.72035" lon="-0.52212">
        <ele>1115</ele>
        <time>2010-01-01T06:47:50Z</time>
      </trkpt>
      <trkpt lat="42.72041" lon="-0.5221">
        <ele>1116</ele>
        <time>2010-01-01T06:47:52Z</time>
      </trkpt>
      <trkpt lat="42.72049" lon="-0.52194">
        <ele>1126</ele>
        <time>2010-01-01T06:47:58Z</time>
      </trkpt>
      <trkpt lat="42.72046" lon="-0.52178">
        <ele>1133</ele>
        <time>2010-01-01T06:48:02Z</time>
      </trkpt>
      <trkpt lat="42.72039" lon="-0.52178">
        <ele>1133</ele>
        <time>2010-01-01T06:48:05Z</time>
      </trkpt>
      <trkpt lat="42.72036" lon="-0.52168">
        <ele>1138</ele>
        <time>2010-01-01T06:48:08Z</time>
      </trkpt>
      <trkpt lat="42.72036" lon="-0.52162">
        <ele>1141</ele>
        <time>2010-01-01T06:48:10Z</time>
      </trkpt>
      <trkpt lat="42.72028" lon="-0.52155">
        <ele>1143</ele>
        <time>2010-01-01T06:48:14Z</time>
      </trkpt>
      <trkpt lat="42.72024" lon="-0.52144">
        <ele>1147</ele>
        <time>2010-01-01T06:48:17Z</time>
      </trkpt>
      <trkpt lat="42.7201" lon="-0.52131">
        <ele>1152</ele>
        <time>2010-01-01T06:48:24Z</time>
      </trkpt>
      <trkpt lat="42.71998" lon="-0.52098">
        <ele>1164</ele>
        <time>2010-01-01T06:48:35Z</time>
      </trkpt>
      <trkpt lat="42.72029" lon="-0.52116">
        <ele>1162</ele>
        <time>2010-01-01T06:48:48Z</time>
      </trkpt>
      <trkpt lat="42.72043" lon="-0.52107">
        <ele>1169</ele>
        <time>2010-01-01T06:48:54Z</time>
      </trkpt>
      <trkpt lat="42.72049" lon="-0.52089">
        <ele>1180</ele>
        <time>2010-01-01T06:49:00Z</time>
      </trkpt>
      <trkpt lat="42.72078" lon="-0.52086">
        <ele>1184</ele>
        <time>2010-01-01T06:49:12Z</time>
      </trkpt>
      <trkpt lat="42.72087" lon="-0.52083">
        <ele>1186</ele>
        <time>2010-01-01T06:49:15Z</time>
      </trkpt>
      <trkpt lat="42.72099" lon="-0.52072">
        <ele>1193</ele>
        <time>2010-01-01T06:49:21Z</time>
      </trkpt>
      <trkpt lat="42.72127" lon="-0.52052">
        <ele>1201</ele>
        <time>2010-01-01T06:49:34Z</time>
      </trkpt>
      <trkpt lat="42.7214" lon="-0.52047">
        <ele>1203</ele>
        <time>2010-01-01T06:49:39Z</time>
      </trkpt>
      <trkpt lat="42.72155" lon="-0.52038">
        <ele>1209</ele>
        <time>2010-01-01T06:49:46Z</time>
      </trkpt>
      <trkpt lat="42.72172" lon="-0.52038">
        <ele>1207</ele>
        <time>2010-01-01T06:49:53Z</time>
      </trkpt>
      <trkpt lat="42.72185" lon="-0.52031">
        <ele>1208</ele>
        <time>2010-01-01T06:49:58Z</time>
      </trkpt>
      <trkpt lat="42.72201" lon="-0.52025">
        <ele>1208</ele>
        <time>2010-01-01T06:50:05Z</time>
      </trkpt>
      <trkpt lat="42.72237" lon="-0.52003">
        <ele>1223</ele>
        <time>2010-01-01T06:50:21Z</time>
      </trkpt>
      <trkpt lat="42.72225" lon="-0.51993">
        <ele>1231</ele>
        <time>2010-01-01T06:50:27Z</time>
      </trkpt>
      <trkpt lat="42.72236" lon="-0.51985">
        <ele>1237</ele>
        <time>2010-01-01T06:50:32Z</time>
      </trkpt>
      <trkpt lat="42.72232" lon="-0.51981">
        <ele>1240</ele>
        <time>2010-01-01T06:50:34Z</time>
      </trkpt>
      <trkpt lat="42.72242" lon="-0.51977">
        <ele>1243</ele>
        <time>2010-01-01T06:50:38Z</time>
      </trkpt>
      <trkpt lat="42.72247" lon="-0.51977">
        <ele>1242</ele>
        <time>2010-01-01T06:50:40Z</time>
      </trkpt>
      <trkpt lat="42.72258" lon="-0.5197">
        <ele>1245</ele>
        <time>2010-01-01T06:50:45Z</time>
      </trkpt>
      <trkpt lat="42.72267" lon="-0.51958">
        <ele>1251</ele>
        <time>2010-01-01T06:50:50Z</time>
      </trkpt>
      <trkpt lat="42.72277" lon="-0.51948">
        <ele>1255</ele>
        <time>2010-01-01T06:50:55Z</time>
      </trkpt>
      <trkpt lat="42.72287" lon="-0.5194">
        <ele>1258</ele>
        <time>2010-01-01T06:50:59Z</time>
      </trkpt>
      <trkpt lat="42.72307" lon="-0.51928">
        <ele>1261</ele>
        <time>2010-01-01T06:51:08Z</time>
      </trkpt>
      <trkpt lat="42.72332" lon="-0.51906">
        <ele>1266</ele>
        <time>2010-01-01T06:51:20Z</time>
      </trkpt>
      <trkpt lat="42.72348" lon="-0.51896">
        <ele>1267</ele>
        <time>2010-01-01T06:51:27Z</time>
      </trkpt>
      <trkpt lat="42.72382" lon="-0.51902">
        <ele>1258</ele>
        <time>2010-01-01T06:51:41Z</time>
      </trkpt>
      <trkpt lat="42.72401" lon="-0.51891">
        <ele>1263</ele>
        <time>2010-01-01T06:51:49Z</time>
      </trkpt>
      <trkpt lat="42.72411" lon="-0.51879">
        <ele>1268</ele>
        <time>2010-01-01T06:51:54Z</time>
      </trkpt>
      <trkpt lat="42.72419" lon="-0.51859">
        <ele>1275</ele>
        <time>2010-01-01T06:52:01Z</time>
      </trkpt>
      <trkpt lat="42.72445" lon="-0.51813">
        <ele>1283</ele>
        <time>2010-01-01T06:52:18Z</time>
      </trkpt>
      <trkpt lat="42.7245" lon="-0.51802">
        <ele>1285</ele>
        <time>2010-01-01T06:52:22Z</time>
      </trkpt>
      <trkpt lat="42.72442" lon="-0.51803">
        <ele>1287</ele>
        <time>2010-01-01T06:52:25Z</time>
      </trkpt>
      <trkpt lat="42.72448" lon="-0.51786">
        <ele>1290</ele>
        <time>2010-01-01T06:52:30Z</time>
      </trkpt>
      <trkpt lat="42.72457" lon="-0.51772">
        <ele>1291</ele>
        <time>2010-01-01T06:52:36Z</time>
      </trkpt>
      <trkpt lat="42.72466" lon="-0.51747">
        <ele>1295</ele>
        <time>2010-01-01T06:52:44Z</time>
      </trkpt>
      <trkpt lat="42.72464" lon="-0.51741">
        <ele>1298</ele>
        <time>2010-01-01T06:52:46Z</time>
      </trkpt>
      <trkpt lat="42.72449" lon="-0.51748">
        <ele>1300</ele>
        <time>2010-01-01T06:52:52Z</time>
      </trkpt>
      <trkpt lat="42.72452" lon="-0.51735">
        <ele>1303</ele>
        <time>2010-01-01T06:52:56Z</time>
      </trkpt>
      <trkpt lat="42.72455" lon="-0.51716">
        <ele>1307</ele>
        <time>2010-01-01T06:53:02Z</time>
      </trkpt>
      <trkpt lat="42.72451" lon="-0.51706">
        <ele>1310</ele>
        <time>2010-01-01T06:53:06Z</time>
      </trkpt>
      <trkpt lat="42.72444" lon="-0.517">
        <ele>1314</ele>
        <time>2010-01-01T06:53:09Z</time>
      </trkpt>
      <trkpt lat="42.72442" lon="-0.51695">
        <ele>1315</ele>
        <time>2010-01-01T06:53:11Z</time>
      </trkpt>
      <trkpt lat="42.72452" lon="-0.51659">
        <ele>1318</ele>
        <time>2010-01-01T06:53:22Z</time>
      </trkpt>
      <trkpt lat="42.72454" lon="-0.51636">
        <ele>1319</ele>
        <time>2010-01-01T06:53:29Z</time>
      </trkpt>
      <trkpt lat="42.72451" lon="-0.51621">
        <ele>1322</ele>
        <time>2010-01-01T06:53:33Z</time>
      </trkpt>
      <trkpt lat="42.72445" lon="-0.51631">
        <ele>1324</ele>
        <time>2010-01-01T06:53:37Z</time>
      </trkpt>
      <trkpt lat="42.72435" lon="-0.51641">
        <ele>1327</ele>
        <time>2010-01-01T06:53:42Z</time>
      </trkpt>
      <trkpt lat="42.72415" lon="-0.51656">
        <ele>1332</ele>
        <time>2010-01-01T06:53:52Z</time>
      </trkpt>
      <trkpt lat="42.72404" lon="-0.51657">
        <ele>1337</ele>
        <time>2010-01-01T06:53:56Z</time>
      </trkpt>
      <trkpt lat="42.72408" lon="-0.51643">
        <ele>1339</ele>
        <time>2010-01-01T06:54:00Z</time>
      </trkpt>
      <trkpt lat="42.72402" lon="-0.51641">
        <ele>1342</ele>
        <time>2010-01-01T06:54:02Z</time>
      </trkpt>
      <trkpt lat="42.72407" lon="-0.51627">
        <ele>1343</ele>
        <time>2010-01-01T06:54:07Z</time>
      </trkpt>
      <trkpt lat="42.72401" lon="-0.51609">
        <ele>1351</ele>
        <time>2010-01-01T06:54:13Z</time>
      </trkpt>
      <trkpt lat="42.72399" lon="-0.51595">
        <ele>1355</ele>
        <time>2010-01-01T06:54:17Z</time>
      </trkpt>
      <trkpt lat="42.7239" lon="-0.51559">
        <ele>1369</ele>
        <time>2010-01-01T06:54:28Z</time>
      </trkpt>
      <trkpt lat="42.72391" lon="-0.51542">
        <ele>1372</ele>
        <time>2010-01-01T06:54:33Z</time>
      </trkpt>
      <trkpt lat="42.7238" lon="-0.51533">
        <ele>1379</ele>
        <time>2010-01-01T06:54:38Z</time>
      </trkpt>
      <trkpt lat="42.72375" lon="-0.51526">
        <ele>1383</ele>
        <time>2010-01-01T06:54:41Z</time>
      </trkpt>
      <trkpt lat="42.72369" lon="-0.51511">
        <ele>1390</ele>
        <time>2010-01-01T06:54:46Z</time>
      </trkpt>
      <trkpt lat="42.72378" lon="-0.51483">
        <ele>1392</ele>
        <time>2010-01-01T06:54:55Z</time>
      </trkpt>
      <trkpt lat="42.72381" lon="-0.5147">
        <ele>1395</ele>
        <time>2010-01-01T06:54:59Z</time>
      </trkpt>
      <trkpt lat="42.72387" lon="-0.51458">
        <ele>1396</ele>
        <time>2010-01-01T06:55:03Z</time>
      </trkpt>
      <trkpt lat="42.72389" lon="-0.51419">
        <ele>1410</ele>
        <time>2010-01-01T06:55:15Z</time>
      </trkpt>
      <trkpt lat="42.72387" lon="-0.5139">
        <ele>1422</ele>
        <time>2010-01-01T06:55:24Z</time>
      </trkpt>
      <trkpt lat="42.7239" lon="-0.51361">
        <ele>1429</ele>
        <time>2010-01-01T06:55:32Z</time>
      </trkpt>
      <trkpt lat="42.72375" lon="-0.51376">
        <ele>1433</ele>
        <time>2010-01-01T06:55:40Z</time>
      </trkpt>
      <trkpt lat="42.72374" lon="-0.51365">
        <ele>1436</ele>
        <time>2010-01-01T06:55:43Z</time>
      </trkpt>
      <trkpt lat="42.72365" lon="-0.5136">
        <ele>1442</ele>
        <time>2010-01-01T06:55:47Z</time>
      </trkpt>
      <trkpt lat="42.72351" lon="-0.51379">
        <ele>1443</ele>
        <time>2010-01-01T06:55:55Z</time>
      </trkpt>
      <trkpt lat="42.72333" lon="-0.51383">
        <ele>1447</ele>
        <time>2010-01-01T06:56:02Z</time>
      </trkpt>
      <trkpt lat="42.72315" lon="-0.51372">
        <ele>1455</ele>
        <time>2010-01-01T06:56:10Z</time>
      </trkpt>
      <trkpt lat="42.72318" lon="-0.51366">
        <ele>1456</ele>
        <time>2010-01-01T06:56:12Z</time>
      </trkpt>
      <trkpt lat="42.72324" lon="-0.51361">
        <ele>1457</ele>
        <time>2010-01-01T06:56:15Z</time>
      </trkpt>
      <trkpt lat="42.72328" lon="-0.51359">
        <ele>1456</ele>
        <time>2010-01-01T06:56:16Z</time>
      </trkpt>
      <trkpt lat="42.72323" lon="-0.51345">
        <ele>1462</ele>
        <time>2010-01-01T06:56:21Z</time>
      </trkpt>
      <trkpt lat="42.72327" lon="-0.51338">
        <ele>1463</ele>
        <time>2010-01-01T06:56:24Z</time>
      </trkpt>
      <trkpt lat="42.72327" lon="-0.51328">
        <ele>1466</ele>
        <time>2010-01-01T06:56:27Z</time>
      </trkpt>
      <trkpt lat="42.723" lon="-0.51329">
        <ele>1477</ele>
        <time>2010-01-01T06:56:38Z</time>
      </trkpt>
      <trkpt lat="42.72295" lon="-0.51324">
        <ele>1481</ele>
        <time>2010-01-01T06:56:40Z</time>
      </trkpt>
      <trkpt lat="42.72276" lon="-0.51329">
        <ele>1488</ele>
        <time>2010-01-01T06:56:48Z</time>
      </trkpt>
      <trkpt lat="42.72256" lon="-0.51323">
        <ele>1497</ele>
        <time>2010-01-01T06:56:56Z</time>
      </trkpt>
      <trkpt lat="42.72248" lon="-0.51318">
        <ele>1501</ele>
        <time>2010-01-01T06:56:59Z</time>
      </trkpt>
      <trkpt lat="42.72254" lon="-0.51308">
        <ele>1500</ele>
        <time>2010-01-01T06:57:03Z</time>
      </trkpt>
      <trkpt lat="42.72247" lon="-0.51303">
        <ele>1504</ele>
        <time>2010-01-01T06:57:06Z</time>
      </trkpt>
      <trkpt lat="42.72237" lon="-0.51302">
        <ele>1509</ele>
        <time>2010-01-01T06:57:10Z</time>
      </trkpt>
      <trkpt lat="42.72223" lon="-0.51303">
        <ele>1515</ele>
        <time>2010-01-01T06:57:15Z</time>
      </trkpt>
      <trkpt lat="42.72212" lon="-0.51311">
        <ele>1531</ele>
        <time>2010-01-01T06:57:20Z</time>
      </trkpt>
      <trkpt lat="42.72205" lon="-0.51341">
        <ele>1535</ele>
        <time>2010-01-01T06:57:30Z</time>
      </trkpt>
      <trkpt lat="42.72199" lon="-0.51352">
        <ele>1537</ele>
        <time>2010-01-01T06:57:34Z</time>
      </trkpt>
      <trkpt lat="42.72197" lon="-0.51369">
        <ele>1536</ele>
        <time>2010-01-01T06:57:39Z</time>
      </trkpt>
      <trkpt lat="42.72193" lon="-0.51381">
        <ele>1538</ele>
        <time>2010-01-01T06:57:42Z</time>
      </trkpt>
      <trkpt lat="42.72186" lon="-0.51385">
        <ele>1547</ele>
        <time>2010-01-01T06:57:46Z</time>
      </trkpt>
      <trkpt lat="42.72191" lon="-0.51418">
        <ele>1537</ele>
        <time>2010-01-01T06:57:56Z</time>
      </trkpt>
      <trkpt lat="42.72183" lon="-0.51424">
        <ele>1545</ele>
        <time>2010-01-01T06:57:59Z</time>
      </trkpt>
      <trkpt lat="42.7218" lon="-0.51433">
        <ele>1547</ele>
        <time>2010-01-01T06:58:02Z</time>
      </trkpt>
      <trkpt lat="42.72168" lon="-0.51443">
        <ele>1554</ele>
        <time>2010-01-01T06:58:08Z</time>
      </trkpt>
      <trkpt lat="42.72167" lon="-0.51459">
        <ele>1553</ele>
        <time>2010-01-01T06:58:12Z</time>
      </trkpt>
      <trkpt lat="42.72163" lon="-0.51462">
        <ele>1553</ele>
        <time>2010-01-01T06:58:14Z</time>
      </trkpt>
      <trkpt lat="42.7214" lon="-0.5143">
        <ele>1570</ele>
        <time>2010-01-01T06:58:28Z</time>
      </trkpt>
      <trkpt lat="42.72129" lon="-0.51418">
        <ele>1574</ele>
        <time>2010-01-01T06:58:33Z</time>
      </trkpt>
      <trkpt lat="42.72117" lon="-0.51415">
        <ele>1576</ele>
        <time>2010-01-01T06:58:38Z</time>
      </trkpt>
      <trkpt lat="42.72109" lon="-0.51409">
        <ele>1579</ele>
        <time>2010-01-01T06:58:42Z</time>
      </trkpt>
      <trkpt lat="42.72094" lon="-0.51407">
        <ele>1579</ele>
        <time>2010-01-01T06:58:48Z</time>
      </trkpt>
      <trkpt lat="42.72097" lon="-0.51392">
        <ele>1589</ele>
        <time>2010-01-01T06:58:52Z</time>
      </trkpt>
      <trkpt lat="42.72091" lon="-0.5138">
        <ele>1596</ele>
        <time>2010-01-01T06:58:56Z</time>
      </trkpt>
      <trkpt lat="42.72084" lon="-0.51378">
        <ele>1596</ele>
        <time>2010-01-01T06:59:00Z</time>
      </trkpt>
      <trkpt lat="42.72083" lon="-0.51358">
        <ele>1609</ele>
        <time>2010-01-01T06:59:05Z</time>
      </trkpt>
      <trkpt lat="42.72084" lon="-0.51349">
        <ele>1616</ele>
        <time>2010-01-01T06:59:08Z</time>
      </trkpt>
      <trkpt lat="42.72082" lon="-0.51338">
        <ele>1624</ele>
        <time>2010-01-01T06:59:11Z</time>
      </trkpt>
      <trkpt lat="42.72068" lon="-0.51321">
        <ele>1627</ele>
        <time>2010-01-01T06:59:19Z</time>
      </trkpt>
      <trkpt lat="42.72066" lon="-0.51332">
        <ele>1617</ele>
        <time>2010-01-01T06:59:22Z</time>
      </trkpt>
      <trkpt lat="42.72057" lon="-0.51341">
        <ele>1606</ele>
        <time>2010-01-01T06:59:27Z</time>
      </trkpt>
      <trkpt lat="42.72051" lon="-0.51315">
        <ele>1622</ele>
        <time>2010-01-01T06:59:35Z</time>
      </trkpt>
      <trkpt lat="42.7204" lon="-0.51292">
        <ele>1634</ele>
        <time>2010-01-01T06:59:43Z</time>
      </trkpt>
      <trkpt lat="42.72038" lon="-0.5128">
        <ele>1641</ele>
        <time>2010-01-01T06:59:46Z</time>
      </trkpt>
      <trkpt lat="42.72032" lon="-0.51263">
        <ele>1645</ele>
        <time>2010-01-01T06:59:52Z</time>
      </trkpt>
      <trkpt lat="42.72025" lon="-0.51257">
        <ele>1644</ele>
        <time>2010-01-01T06:59:55Z</time>
      </trkpt>
      <trkpt lat="42.72018" lon="-0.51249">
        <ele>1644</ele>
        <time>2010-01-01T06:59:59Z</time>
      </trkpt>
      <trkpt lat="42.72009" lon="-0.51225">
        <ele>1653</ele>
        <time>2010-01-01T07:00:06Z</time>
      </trkpt>
      <trkpt lat="42.72007" lon="-0.51197">
        <ele>1672</ele>
        <time>2010-01-01T07:00:15Z</time>
      </trkpt>
      <trkpt lat="42.71985" lon="-0.51166">
        <ele>1681</ele>
        <time>2010-01-01T07:00:27Z</time>
      </trkpt>
      <trkpt lat="42.71978" lon="-0.51153">
        <ele>1684</ele>
        <time>2010-01-01T07:00:32Z</time>
      </trkpt>
      <trkpt lat="42.71964" lon="-0.51133">
        <ele>1687</ele>
        <time>2010-01-01T07:00:40Z</time>
      </trkpt>
      <trkpt lat="42.7195" lon="-0.51128">
        <ele>1681</ele>
        <time>2010-01-01T07:00:46Z</time>
      </trkpt>
      <trkpt lat="42.71943" lon="-0.51114">
        <ele>1683</ele>
        <time>2010-01-01T07:00:51Z</time>
      </trkpt>
      <trkpt lat="42.71936" lon="-0.51091">
        <ele>1700</ele>
        <time>2010-01-01T07:00:59Z</time>
      </trkpt>
      <trkpt lat="42.71925" lon="-0.51075">
        <ele>1706</ele>
        <time>2010-01-01T07:01:05Z</time>
      </trkpt>
      <trkpt lat="42.71918" lon="-0.51084">
        <ele>1696</ele>
        <time>2010-01-01T07:01:09Z</time>
      </trkpt>
      <trkpt lat="42.71909" lon="-0.51089">
        <ele>1690</ele>
        <time>2010-01-01T07:01:13Z</time>
      </trkpt>
      <trkpt lat="42.71902" lon="-0.51083">
        <ele>1692</ele>
        <time>2010-01-01T07:01:16Z</time>
      </trkpt>
      <trkpt lat="42.71902" lon="-0.51072">
        <ele>1701</ele>
        <time>2010-01-01T07:01:19Z</time>
      </trkpt>
      <trkpt lat="42.71899" lon="-0.51065">
        <ele>1707</ele>
        <time>2010-01-01T07:01:21Z</time>
      </trkpt>
      <trkpt lat="42.71895" lon="-0.51069">
        <ele>1703</ele>
        <time>2010-01-01T07:01:23Z</time>
      </trkpt>
      <trkpt lat="42.71899" lon="-0.51056">
        <ele>1715</ele>
        <time>2010-01-01T07:01:28Z</time>
      </trkpt>
      <trkpt lat="42.71903" lon="-0.51052">
        <ele>1718</ele>
        <time>2010-01-01T07:01:30Z</time>
      </trkpt>
      <trkpt lat="42.71887" lon="-0.51051">
        <ele>1719</ele>
        <time>2010-01-01T07:01:36Z</time>
      </trkpt>
      <trkpt lat="42.71871" lon="-0.51059">
        <ele>1706</ele>
        <time>2010-01-01T07:01:43Z</time>
      </trkpt>
      <trkpt lat="42.71857" lon="-0.51057">
        <ele>1704</ele>
        <time>2010-01-01T07:01:48Z</time>
      </trkpt>
      <trkpt lat="42.71849" lon="-0.51043">
        <ele>1715</ele>
        <time>2010-01-01T07:01:54Z</time>
      </trkpt>
      <trkpt lat="42.71836" lon="-0.51031">
        <ele>1725</ele>
        <time>2010-01-01T07:02:00Z</time>
      </trkpt>
      <trkpt lat="42.71832" lon="-0.51044">
        <ele>1715</ele>
        <time>2010-01-01T07:02:04Z</time>
      </trkpt>
      <trkpt lat="42.71823" lon="-0.51044">
        <ele>1716</ele>
        <time>2010-01-01T07:02:08Z</time>
      </trkpt>
      <trkpt lat="42.71816" lon="-0.51042">
        <ele>1719</ele>
        <time>2010-01-01T07:02:10Z</time>
      </trkpt>
      <trkpt lat="42.7181" lon="-0.51034">
        <ele>1724</ele>
        <time>2010-01-01T07:02:14Z</time>
      </trkpt>
      <trkpt lat="42.71804" lon="-0.5102">
        <ele>1734</ele>
        <time>2010-01-01T07:02:18Z</time>
      </trkpt>
      <trkpt lat="42.71805" lon="-0.51014">
        <ele>1738</ele>
        <time>2010-01-01T07:02:20Z</time>
      </trkpt>
      <trkpt lat="42.718" lon="-0.51003">
        <ele>1749</ele>
        <time>2010-01-01T07:02:24Z</time>
      </trkpt>
      <trkpt lat="42.71803" lon="-0.50993">
        <ele>1755</ele>
        <time>2010-01-01T07:02:27Z</time>
      </trkpt>
      <trkpt lat="42.7181" lon="-0.50981">
        <ele>1763</ele>
        <time>2010-01-01T07:02:32Z</time>
      </trkpt>
      <trkpt lat="42.71809" lon="-0.50972">
        <ele>1769</ele>
        <time>2010-01-01T07:02:35Z</time>
      </trkpt>
      <trkpt lat="42.71801" lon="-0.50969">
        <ele>1773</ele>
        <time>2010-01-01T07:02:38Z</time>
      </trkpt>
      <trkpt lat="42.71793" lon="-0.50969">
        <ele>1776</ele>
        <time>2010-01-01T07:02:41Z</time>
      </trkpt>
      <trkpt lat="42.71791" lon="-0.50962">
        <ele>1782</ele>
        <time>2010-01-01T07:02:43Z</time>
      </trkpt>
      <trkpt lat="42.71796" lon="-0.50942">
        <ele>1791</ele>
        <time>2010-01-01T07:02:50Z</time>
      </trkpt>
      <trkpt lat="42.71787" lon="-0.5094">
        <ele>1796</ele>
        <time>2010-01-01T07:02:53Z</time>
      </trkpt>
      <trkpt lat="42.71785" lon="-0.50933">
        <ele>1801</ele>
        <time>2010-01-01T07:02:55Z</time>
      </trkpt>
      <trkpt lat="42.71777" lon="-0.50937">
        <ele>1803</ele>
        <time>2010-01-01T07:02:59Z</time>
      </trkpt>
      <trkpt lat="42.71778" lon="-0.50925">
        <ele>1809</ele>
        <time>2010-01-01T07:03:02Z</time>
      </trkpt>
      <trkpt lat="42.71782" lon="-0.50922">
        <ele>1808</ele>
        <time>2010-01-01T07:03:04Z</time>
      </trkpt>
      <trkpt lat="42.71787" lon="-0.5091">
        <ele>1812</ele>
        <time>2010-01-01T07:03:08Z</time>
      </trkpt>
      <trkpt lat="42.71784" lon="-0.50906">
        <ele>1816</ele>
        <time>2010-01-01T07:03:10Z</time>
      </trkpt>
      <trkpt lat="42.71784" lon="-0.50899">
        <ele>1819</ele>
        <time>2010-01-01T07:03:12Z</time>
      </trkpt>
      <trkpt lat="42.71775" lon="-0.50892">
        <ele>1826</ele>
        <time>2010-01-01T07:03:16Z</time>
      </trkpt>
      <trkpt lat="42.71764" lon="-0.5087">
        <ele>1841</ele>
        <time>2010-01-01T07:03:24Z</time>
      </trkpt>
      <trkpt lat="42.7176" lon="-0.50858">
        <ele>1847</ele>
        <time>2010-01-01T07:03:28Z</time>
      </trkpt>
      <trkpt lat="42.71767" lon="-0.50855">
        <ele>1846</ele>
        <time>2010-01-01T07:03:31Z</time>
      </trkpt>
      <trkpt lat="42.71769" lon="-0.50845">
        <ele>1851</ele>
        <time>2010-01-01T07:03:35Z</time>
      </trkpt>
      <trkpt lat="42.71772" lon="-0.50838">
        <ele>1853</ele>
        <time>2010-01-01T07:03:37Z</time>
      </trkpt>
      <trkpt lat="42.71755" lon="-0.50821">
        <ele>1864</ele>
        <time>2010-01-01T07:03:45Z</time>
      </trkpt>
      <trkpt lat="42.71754" lon="-0.50814">
        <ele>1867</ele>
        <time>2010-01-01T07:03:47Z</time>
      </trkpt>
      <trkpt lat="42.7176" lon="-0.50811">
        <ele>1868</ele>
        <time>2010-01-01T07:03:50Z</time>
      </trkpt>
      <trkpt lat="42.71763" lon="-0.50805">
        <ele>1871</ele>
        <time>2010-01-01T07:03:52Z</time>
      </trkpt>
      <trkpt lat="42.71754" lon="-0.50792">
        <ele>1879</ele>
        <time>2010-01-01T07:03:57Z</time>
      </trkpt>
      <trkpt lat="42.71753" lon="-0.50784">
        <ele>1883</ele>
        <time>2010-01-01T07:04:00Z</time>
      </trkpt>
      <trkpt lat="42.71761" lon="-0.50773">
        <ele>1888</ele>
        <time>2010-01-01T07:04:04Z</time>
      </trkpt>
      <trkpt lat="42.71759" lon="-0.50762">
        <ele>1893</ele>
        <time>2010-01-01T07:04:07Z</time>
      </trkpt>
      <trkpt lat="42.71767" lon="-0.50753">
        <ele>1897</ele>
        <time>2010-01-01T07:04:12Z</time>
      </trkpt>
      <trkpt lat="42.71777" lon="-0.5075">
        <ele>1897</ele>
        <time>2010-01-01T07:04:16Z</time>
      </trkpt>
      <trkpt lat="42.71785" lon="-0.50731">
        <ele>1912</ele>
        <time>2010-01-01T07:04:22Z</time>
      </trkpt>
      <trkpt lat="42.71784" lon="-0.50719">
        <ele>1919</ele>
        <time>2010-01-01T07:04:26Z</time>
      </trkpt>
      <trkpt lat="42.71786" lon="-0.50713">
        <ele>1924</ele>
        <time>2010-01-01T07:04:28Z</time>
      </trkpt>
      <trkpt lat="42.71796" lon="-0.50703">
        <ele>1931</ele>
        <time>2010-01-01T07:04:33Z</time>
      </trkpt>
      <trkpt lat="42.71805" lon="-0.50689">
        <ele>1938</ele>
        <time>2010-01-01T07:04:38Z</time>
      </trkpt>
      <trkpt lat="42.71808" lon="-0.50678">
        <ele>1944</ele>
        <time>2010-01-01T07:04:42Z</time>
      </trkpt>
      <trkpt lat="42.71799" lon="-0.50665">
        <ele>1951</ele>
        <time>2010-01-01T07:04:47Z</time>
      </trkpt>
      <trkpt lat="42.71795" lon="-0.50669">
        <ele>1950</ele>
        <time>2010-01-01T07:04:49Z</time>
      </trkpt>
      <trkpt lat="42.71796" lon="-0.50653">
        <ele>1957</ele>
        <time>2010-01-01T07:04:54Z</time>
      </trkpt>
      <trkpt lat="42.71789" lon="-0.50648">
        <ele>1961</ele>
        <time>2010-01-01T07:04:57Z</time>
      </trkpt>
      <trkpt lat="42.71795" lon="-0.50622">
        <ele>1974</ele>
        <time>2010-01-01T07:05:05Z</time>
      </trkpt>
      <trkpt lat="42.7179" lon="-0.50613">
        <ele>1979</ele>
        <time>2010-01-01T07:05:08Z</time>
      </trkpt>
      <trkpt lat="42.7179" lon="-0.50606">
        <ele>1984</ele>
        <time>2010-01-01T07:05:10Z</time>
      </trkpt>
      <trkpt lat="42.71799" lon="-0.50606">
        <ele>1984</ele>
        <time>2010-01-01T07:05:14Z</time>
      </trkpt>
      <trkpt lat="42.7179" lon="-0.50592">
        <ele>1993</ele>
        <time>2010-01-01T07:05:20Z</time>
      </trkpt>
      <trkpt lat="42.71784" lon="-0.50578">
        <ele>2001</ele>
        <time>2010-01-01T07:05:25Z</time>
      </trkpt>
      <trkpt lat="42.71777" lon="-0.50579">
        <ele>2000</ele>
        <time>2010-01-01T07:05:27Z</time>
      </trkpt>
      <trkpt lat="42.71769" lon="-0.50576">
        <ele>2002</ele>
        <time>2010-01-01T07:05:30Z</time>
      </trkpt>
      <trkpt lat="42.71765" lon="-0.50572">
        <ele>2004</ele>
        <time>2010-01-01T07:05:33Z</time>
      </trkpt>
      <trkpt lat="42.71766" lon="-0.50566">
        <ele>2007</ele>
        <time>2010-01-01T07:05:34Z</time>
      </trkpt>
      <trkpt lat="42.71777" lon="-0.50559">
        <ele>2011</ele>
        <time>2010-01-01T07:05:39Z</time>
      </trkpt>
      <trkpt lat="42.71789" lon="-0.50558">
        <ele>2012</ele>
        <time>2010-01-01T07:05:44Z</time>
      </trkpt>
      <trkpt lat="42.71788" lon="-0.50552">
        <ele>2016</ele>
        <time>2010-01-01T07:05:46Z</time>
      </trkpt>
      <trkpt lat="42.71783" lon="-0.50547">
        <ele>2018</ele>
        <time>2010-01-01T07:05:49Z</time>
      </trkpt>
      <trkpt lat="42.71769" lon="-0.50546">
        <ele>2018</ele>
        <time>2010-01-01T07:05:54Z</time>
      </trkpt>
      <trkpt lat="42.71773" lon="-0.50542">
        <ele>2021</ele>
        <time>2010-01-01T07:05:56Z</time>
      </trkpt>
      <trkpt lat="42.7177" lon="-0.50538">
        <ele>2024</ele>
        <time>2010-01-01T07:05:58Z</time>
      </trkpt>
      <trkpt lat="42.71764" lon="-0.50539">
        <ele>2023</ele>
        <time>2010-01-01T07:06:00Z</time>
      </trkpt>
      <trkpt lat="42.7175" lon="-0.50533">
        <ele>2025</ele>
        <time>2010-01-01T07:06:06Z</time>
      </trkpt>
      <trkpt lat="42.71754" lon="-0.50525">
        <ele>2031</ele>
        <time>2010-01-01T07:06:09Z</time>
      </trkpt>
      <trkpt lat="42.71758" lon="-0.5052">
        <ele>2035</ele>
        <time>2010-01-01T07:06:11Z</time>
      </trkpt>
      <trkpt lat="42.7175" lon="-0.50504">
        <ele>2044</ele>
        <time>2010-01-01T07:06:17Z</time>
      </trkpt>
      <trkpt lat="42.71748" lon="-0.50491">
        <ele>2052</ele>
        <time>2010-01-01T07:06:20Z</time>
      </trkpt>
      <trkpt lat="42.71752" lon="-0.50487">
        <ele>2055</ele>
        <time>2010-01-01T07:06:22Z</time>
      </trkpt>
      <trkpt lat="42.71753" lon="-0.50479">
        <ele>2061</ele>
        <time>2010-01-01T07:06:25Z</time>
      </trkpt>
      <trkpt lat="42.71758" lon="-0.50469">
        <ele>2070</ele>
        <time>2010-01-01T07:06:28Z</time>
      </trkpt>
      <trkpt lat="42.71745" lon="-0.50468">
        <ele>2066</ele>
        <time>2010-01-01T07:06:33Z</time>
      </trkpt>
      <trkpt lat="42.71729" lon="-0.50462">
        <ele>2069</ele>
        <time>2010-01-01T07:06:40Z</time>
      </trkpt>
      <trkpt lat="42.71724" lon="-0.50463">
        <ele>2068</ele>
        <time>2010-01-01T07:06:42Z</time>
      </trkpt>
      <trkpt lat="42.71716" lon="-0.50459">
        <ele>2067</ele>
        <time>2010-01-01T07:06:45Z</time>
      </trkpt>
      <trkpt lat="42.71701" lon="-0.50431">
        <ele>2076</ele>
        <time>2010-01-01T07:06:56Z</time>
      </trkpt>
      <trkpt lat="42.71696" lon="-0.50426">
        <ele>2076</ele>
        <time>2010-01-01T07:06:58Z</time>
      </trkpt>
      <trkpt lat="42.71691" lon="-0.50427">
        <ele>2073</ele>
        <time>2010-01-01T07:07:00Z</time>
      </trkpt>
      <trkpt lat="42.71699" lon="-0.50423">
        <ele>2080</ele>
        <time>2010-01-01T07:07:04Z</time>
      </trkpt>
      <trkpt lat="42.71699" lon="-0.50417">
        <ele>2083</ele>
        <time>2010-01-01T07:07:06Z</time>
      </trkpt>
      <trkpt lat="42.71708" lon="-0.50398">
        <ele>2098</ele>
        <time>2010-01-01T07:07:12Z</time>
      </trkpt>
      <trkpt lat="42.71704" lon="-0.50395">
        <ele>2097</ele>
        <time>2010-01-01T07:07:14Z</time>
      </trkpt>
      <trkpt lat="42.71708" lon="-0.50391">
        <ele>2102</ele>
        <time>2010-01-01T07:07:16Z</time>
      </trkpt>
      <trkpt lat="42.71713" lon="-0.50389">
        <ele>2105</ele>
        <time>2010-01-01T07:07:18Z</time>
      </trkpt>
      <trkpt lat="42.71718" lon="-0.50383">
        <ele>2110</ele>
        <time>2010-01-01T07:07:21Z</time>
      </trkpt>
      <trkpt lat="42.71717" lon="-0.50376">
        <ele>2112</ele>
        <time>2010-01-01T07:07:23Z</time>
      </trkpt>
      <trkpt lat="42.71723" lon="-0.50373">
        <ele>2115</ele>
        <time>2010-01-01T07:07:25Z</time>
      </trkpt>
      <trkpt lat="42.7172" lon="-0.5036">
        <ele>2119</ele>
        <time>2010-01-01T07:07:29Z</time>
      </trkpt>
      <trkpt lat="42.71723" lon="-0.50353">
        <ele>2122</ele>
        <time>2010-01-01T07:07:31Z</time>
      </trkpt>
      <trkpt lat="42.71725" lon="-0.50338">
        <ele>2127</ele>
        <time>2010-01-01T07:07:36Z</time>
      </trkpt>
      <trkpt lat="42.71725" lon="-0.50319">
        <ele>2131</ele>
        <time>2010-01-01T07:07:41Z</time>
      </trkpt>
      <trkpt lat="42.71723" lon="-0.50304">
        <ele>2134</ele>
        <time>2010-01-01T07:07:46Z</time>
      </trkpt>
      <trkpt lat="42.71725" lon="-0.50281">
        <ele>2138</ele>
        <time>2010-01-01T07:07:53Z</time>
      </trkpt>
      <trkpt lat="42.71719" lon="-0.50226">
        <ele>2145</ele>
        <time>2010-01-01T07:08:09Z</time>
      </trkpt>
      <trkpt lat="42.71722" lon="-0.50182">
        <ele>2150</ele>
        <time>2010-01-01T07:08:22Z</time>
      </trkpt>
      <trkpt lat="42.71718" lon="-0.50168">
        <ele>2152</ele>
        <time>2010-01-01T07:08:27Z</time>
      </trkpt>
      <trkpt lat="42.71719" lon="-0.50159">
        <ele>2154</ele>
        <time>2010-01-01T07:08:29Z</time>
      </trkpt>
      <trkpt lat="42.71716" lon="-0.50136">
        <ele>2158</ele>
        <time>2010-01-01T07:08:36Z</time>
      </trkpt>
      <trkpt lat="42.71701" lon="-0.50081">
        <ele>2168</ele>
        <time>2010-01-01T07:08:53Z</time>
      </trkpt>
      <trkpt lat="42.71698" lon="-0.50065">
        <ele>2170</ele>
        <time>2010-01-01T07:08:58Z</time>
      </trkpt>
      <trkpt lat="42.71694" lon="-0.50054">
        <ele>2172</ele>
        <time>2010-01-01T07:09:02Z</time>
      </trkpt>
      <trkpt lat="42.71692" lon="-0.50039">
        <ele>2175</ele>
        <time>2010-01-01T07:09:06Z</time>
      </trkpt>
      <trkpt lat="42.71687" lon="-0.50021">
        <ele>2180</ele>
        <time>2010-01-01T07:09:12Z</time>
      </trkpt>
      <trkpt lat="42.71674" lon="-0.49987">
        <ele>2188</ele>
        <time>2010-01-01T07:09:23Z</time>
      </trkpt>
      <trkpt lat="42.7167" lon="-0.49979">
        <ele>2190</ele>
        <time>2010-01-01T07:09:26Z</time>
      </trkpt>
      <trkpt lat="42.71667" lon="-0.49958">
        <ele>2195</ele>
        <time>2010-01-01T07:09:32Z</time>
      </trkpt>
      <trkpt lat="42.71657" lon="-0.49932">
        <ele>2203</ele>
        <time>2010-01-01T07:09:41Z</time>
      </trkpt>
      <trkpt lat="42.71647" lon="-0.49923">
        <ele>2208</ele>
        <time>2010-01-01T07:09:46Z</time>
      </trkpt>
      <trkpt lat="42.7165" lon="-0.49911">
        <ele>2212</ele>
        <time>2010-01-01T07:09:50Z</time>
      </trkpt>
      <trkpt lat="42.71648" lon="-0.49904">
        <ele>2215</ele>
        <time>2010-01-01T07:09:52Z</time>
      </trkpt>
      <trkpt lat="42.71649" lon="-0.49892">
        <ele>2219</ele>
        <time>2010-01-01T07:09:55Z</time>
      </trkpt>
      <trkpt lat="42.71647" lon="-0.49883">
        <ele>2222</ele>
        <time>2010-01-01T07:09:58Z</time>
      </trkpt>
      <trkpt lat="42.71646" lon="-0.49871">
        <ele>2226</ele>
        <time>2010-01-01T07:10:02Z</time>
      </trkpt>
      <trkpt lat="42.71643" lon="-0.49864">
        <ele>2229</ele>
        <time>2010-01-01T07:10:04Z</time>
      </trkpt>
      <trkpt lat="42.71637" lon="-0.49857">
        <ele>2231</ele>
        <time>2010-01-01T07:10:07Z</time>
      </trkpt>
      <trkpt lat="42.71633" lon="-0.49847">
        <ele>2233</ele>
        <time>2010-01-01T07:10:11Z</time>
      </trkpt>
      <trkpt lat="42.7163" lon="-0.49826">
        <ele>2238</ele>
        <time>2010-01-01T07:10:17Z</time>
      </trkpt>
      <trkpt lat="42.71625" lon="-0.49809">
        <ele>2241</ele>
        <time>2010-01-01T07:10:22Z</time>
      </trkpt>
      <trkpt lat="42.71622" lon="-0.49784">
        <ele>2245</ele>
        <time>2010-01-01T07:10:30Z</time>
      </trkpt>
      <trkpt lat="42.71626" lon="-0.49768">
        <ele>2248</ele>
        <time>2010-01-01T07:10:35Z</time>
      </trkpt>
      <trkpt lat="42.71625" lon="-0.49758">
        <ele>2249</ele>
        <time>2010-01-01T07:10:38Z</time>
      </trkpt>
      <trkpt lat="42.71621" lon="-0.49745">
        <ele>2250</ele>
        <time>2010-01-01T07:10:42Z</time>
      </trkpt>
      <trkpt lat="42.71613" lon="-0.4973">
        <ele>2252</ele>
        <time>2010-01-01T07:10:47Z</time>
      </trkpt>
      <trkpt lat="42.71603" lon="-0.49692">
        <ele>2257</ele>
        <time>2010-01-01T07:10:59Z</time>
      </trkpt>
      <trkpt lat="42.716" lon="-0.49624">
        <ele>2266</ele>
        <time>2010-01-01T07:11:19Z</time>
      </trkpt>
      <trkpt lat="42.71595" lon="-0.49581">
        <ele>2270</ele>
        <time>2010-01-01T07:11:32Z</time>
      </trkpt>
      <trkpt lat="42.71596" lon="-0.49542">
        <ele>2277</ele>
        <time>2010-01-01T07:11:43Z</time>
      </trkpt>
      <trkpt lat="42.7159" lon="-0.495">
        <ele>2283</ele>
        <time>2010-01-01T07:11:56Z</time>
      </trkpt>
      <trkpt lat="42.71585" lon="-0.49491">
        <ele>2284</ele>
        <time>2010-01-01T07:11:59Z</time>
      </trkpt>
      <trkpt lat="42.7158" lon="-0.49467">
        <ele>2288</ele>
        <time>2010-01-01T07:12:07Z</time>
      </trkpt>
      <trkpt lat="42.71584" lon="-0.49417">
        <ele>2297</ele>
        <time>2010-01-01T07:12:21Z</time>
      </trkpt>
      <trkpt lat="42.71581" lon="-0.49401">
        <ele>2299</ele>
        <time>2010-01-01T07:12:26Z</time>
      </trkpt>
      <trkpt lat="42.71577" lon="-0.49358">
        <ele>2304</ele>
        <time>2010-01-01T07:12:39Z</time>
      </trkpt>
      <trkpt lat="42.71579" lon="-0.49351">
        <ele>2305</ele>
        <time>2010-01-01T07:12:41Z</time>
      </trkpt>
      <trkpt lat="42.71578" lon="-0.49328">
        <ele>2308</ele>
        <time>2010-01-01T07:12:48Z</time>
      </trkpt>
      <trkpt lat="42.7158" lon="-0.49312">
        <ele>2311</ele>
        <time>2010-01-01T07:12:53Z</time>
      </trkpt>
      <trkpt lat="42.71583" lon="-0.49297">
        <ele>2314</ele>
        <time>2010-01-01T07:12:57Z</time>
      </trkpt>
      <trkpt lat="42.71584" lon="-0.49288">
        <ele>2316</ele>
        <time>2010-01-01T07:13:00Z</time>
      </trkpt>
      <trkpt lat="42.71576" lon="-0.49266">
        <ele>2318</ele>
        <time>2010-01-01T07:13:07Z</time>
      </trkpt>
      <trkpt lat="42.71584" lon="-0.4925">
        <ele>2322</ele>
        <time>2010-01-01T07:13:13Z</time>
      </trkpt>
      <trkpt lat="42.71587" lon="-0.49237">
        <ele>2324</ele>
        <time>2010-01-01T07:13:17Z</time>
      </trkpt>
      <trkpt lat="42.71585" lon="-0.49222">
        <ele>2327</ele>
        <time>2010-01-01T07:13:21Z</time>
      </trkpt>
      <trkpt lat="42.71586" lon="-0.49215">
        <ele>2329</ele>
        <time>2010-01-01T07:13:24Z</time>
      </trkpt>
      <trkpt lat="42.71595" lon="-0.492">
        <ele>2333</ele>
        <time>2010-01-01T07:13:29Z</time>
      </trkpt>
      <trkpt lat="42.71598" lon="-0.49145">
        <ele>2346</ele>
        <time>2010-01-01T07:13:46Z</time>
      </trkpt>
      <trkpt lat="42.71598" lon="-0.49116">
        <ele>2350</ele>
        <time>2010-01-01T07:13:54Z</time>
      </trkpt>
      <trkpt lat="42.71603" lon="-0.491">
        <ele>2354</ele>
        <time>2010-01-01T07:13:59Z</time>
      </trkpt>
      <trkpt lat="42.71605" lon="-0.49076">
        <ele>2359</ele>
        <time>2010-01-01T07:14:06Z</time>
      </trkpt>
      <trkpt lat="42.71604" lon="-0.4906">
        <ele>2362</ele>
        <time>2010-01-01T07:14:11Z</time>
      </trkpt>
      <trkpt lat="42.7161" lon="-0.49047">
        <ele>2366</ele>
        <time>2010-01-01T07:14:16Z</time>
      </trkpt>
      <trkpt lat="42.71607" lon="-0.49023">
        <ele>2371</ele>
        <time>2010-01-01T07:14:23Z</time>
      </trkpt>
      <trkpt lat="42.71609" lon="-0.49011">
        <ele>2374</ele>
        <time>2010-01-01T07:14:26Z</time>
      </trkpt>
      <trkpt lat="42.71611" lon="-0.48983">
        <ele>2380</ele>
        <time>2010-01-01T07:14:35Z</time>
      </trkpt>
      <trkpt lat="42.71609" lon="-0.48975">
        <ele>2382</ele>
        <time>2010-01-01T07:14:37Z</time>
      </trkpt>
      <trkpt lat="42.7161" lon="-0.4896">
        <ele>2386</ele>
        <time>2010-01-01T07:14:42Z</time>
      </trkpt>
      <trkpt lat="42.71606" lon="-0.48929">
        <ele>2392</ele>
        <time>2010-01-01T07:14:51Z</time>
      </trkpt>
      <trkpt lat="42.71608" lon="-0.48921">
        <ele>2394</ele>
        <time>2010-01-01T07:14:53Z</time>
      </trkpt>
      <trkpt lat="42.71608" lon="-0.4891">
        <ele>2396</ele>
        <time>2010-01-01T07:14:57Z</time>
      </trkpt>
      <trkpt lat="42.71605" lon="-0.48895">
        <ele>2398</ele>
        <time>2010-01-01T07:15:01Z</time>
      </trkpt>
      <trkpt lat="42.71609" lon="-0.48882">
        <ele>2401</ele>
        <time>2010-01-01T07:15:05Z</time>
      </trkpt>
      <trkpt lat="42.71607" lon="-0.48874">
        <ele>2402</ele>
        <time>2010-01-01T07:15:08Z</time>
      </trkpt>
      <trkpt lat="42.71609" lon="-0.48864">
        <ele>2404</ele>
        <time>2010-01-01T07:15:11Z</time>
      </trkpt>
      <trkpt lat="42.7161" lon="-0.48848">
        <ele>2407</ele>
        <time>2010-01-01T07:15:15Z</time>
      </trkpt>
      <trkpt lat="42.71608" lon="-0.48812">
        <ele>2416</ele>
        <time>2010-01-01T07:15:26Z</time>
      </trkpt>
      <trkpt lat="42.71613" lon="-0.48783">
        <ele>2424</ele>
        <time>2010-01-01T07:15:35Z</time>
      </trkpt>
      <trkpt lat="42.71609" lon="-0.48767">
        <ele>2426</ele>
        <time>2010-01-01T07:15:40Z</time>
      </trkpt>
      <trkpt lat="42.7161" lon="-0.48751">
        <ele>2429</ele>
        <time>2010-01-01T07:15:45Z</time>
      </trkpt>
      <trkpt lat="42.71613" lon="-0.48737">
        <ele>2434</ele>
        <time>2010-01-01T07:15:49Z</time>
      </trkpt>
      <trkpt lat="42.71611" lon="-0.48724">
        <ele>2437</ele>
        <time>2010-01-01T07:15:53Z</time>
      </trkpt>
      <trkpt lat="42.71612" lon="-0.48718">
        <ele>2439</ele>
        <time>2010-01-01T07:15:55Z</time>
      </trkpt>
      <trkpt lat="42.7161" lon="-0.48707">
        <ele>2442</ele>
        <time>2010-01-01T07:15:58Z</time>
      </trkpt>
      <trkpt lat="42.71603" lon="-0.48692">
        <ele>2444</ele>
        <time>2010-01-01T07:16:03Z</time>
      </trkpt>
      <trkpt lat="42.71599" lon="-0.48678">
        <ele>2447</ele>
        <time>2010-01-01T07:16:07Z</time>
      </trkpt>
      <trkpt lat="42.71595" lon="-0.48673">
        <ele>2447</ele>
        <time>2010-01-01T07:16:10Z</time>
      </trkpt>
      <trkpt lat="42.71594" lon="-0.48649">
        <ele>2454</ele>
        <time>2010-01-01T07:16:17Z</time>
      </trkpt>
      <trkpt lat="42.71583" lon="-0.48599">
        <ele>2467</ele>
        <time>2010-01-01T07:16:32Z</time>
      </trkpt>
      <trkpt lat="42.71576" lon="-0.48594">
        <ele>2469</ele>
        <time>2010-01-01T07:16:35Z</time>
      </trkpt>
      <trkpt lat="42.7157" lon="-0.48581">
        <ele>2472</ele>
        <time>2010-01-01T07:16:40Z</time>
      </trkpt>
      <trkpt lat="42.7157" lon="-0.48549">
        <ele>2482</ele>
        <time>2010-01-01T07:16:49Z</time>
      </trkpt>
      <trkpt lat="42.71559" lon="-0.48525">
        <ele>2487</ele>
        <time>2010-01-01T07:16:57Z</time>
      </trkpt>
      <trkpt lat="42.71553" lon="-0.48505">
        <ele>2491</ele>
        <time>2010-01-01T07:17:04Z</time>
      </trkpt>
      <trkpt lat="42.71551" lon="-0.48488">
        <ele>2495</ele>
        <time>2010-01-01T07:17:09Z</time>
      </trkpt>
      <trkpt lat="42.71552" lon="-0.48481">
        <ele>2496</ele>
        <time>2010-01-01T07:17:11Z</time>
      </trkpt>
      <trkpt lat="42.71546" lon="-0.48477">
        <ele>2497</ele>
        <time>2010-01-01T07:17:13Z</time>
      </trkpt>
      <trkpt lat="42.71542" lon="-0.48466">
        <ele>2499</ele>
        <time>2010-01-01T07:17:17Z</time>
      </trkpt>
      <trkpt lat="42.71541" lon="-0.48458">
        <ele>2501</ele>
        <time>2010-01-01T07:17:19Z</time>
      </trkpt>
      <trkpt lat="42.71533" lon="-0.48434">
        <ele>2507</ele>
        <time>2010-01-01T07:17:27Z</time>
      </trkpt>
      <trkpt lat="42.71522" lon="-0.48411">
        <ele>2512</ele>
        <time>2010-01-01T07:17:35Z</time>
      </trkpt>
      <trkpt lat="42.71516" lon="-0.48399">
        <ele>2513</ele>
        <time>2010-01-01T07:17:39Z</time>
      </trkpt>
      <trkpt lat="42.715" lon="-0.48376">
        <ele>2516</ele>
        <time>2010-01-01T07:17:49Z</time>
      </trkpt>
      <trkpt lat="42.71486" lon="-0.48347">
        <ele>2518</ele>
        <time>2010-01-01T07:17:59Z</time>
      </trkpt>
      <trkpt lat="42.71476" lon="-0.48324">
        <ele>2520</ele>
        <time>2010-01-01T07:18:07Z</time>
      </trkpt>
      <trkpt lat="42.71472" lon="-0.48295">
        <ele>2526</ele>
        <time>2010-01-01T07:18:16Z</time>
      </trkpt>
      <trkpt lat="42.7146" lon="-0.48278">
        <ele>2528</ele>
        <time>2010-01-01T07:18:23Z</time>
      </trkpt>
      <trkpt lat="42.71449" lon="-0.48266">
        <ele>2527</ele>
        <time>2010-01-01T07:18:28Z</time>
      </trkpt>
      <trkpt lat="42.71443" lon="-0.48262">
        <ele>2526</ele>
        <time>2010-01-01T07:18:31Z</time>
      </trkpt>
      <trkpt lat="42.71428" lon="-0.48244">
        <ele>2524</ele>
        <time>2010-01-01T07:18:39Z</time>
      </trkpt>
      <trkpt lat="42.71425" lon="-0.48236">
        <ele>2523</ele>
        <time>2010-01-01T07:18:41Z</time>
      </trkpt>
      <trkpt lat="42.71412" lon="-0.48228">
        <ele>2518</ele>
        <time>2010-01-01T07:18:47Z</time>
      </trkpt>
      <trkpt lat="42.71402" lon="-0.48224">
        <ele>2514</ele>
        <time>2010-01-01T07:18:51Z</time>
      </trkpt>
      <trkpt lat="42.71386" lon="-0.48234">
        <ele>2506</ele>
        <time>2010-01-01T07:18:59Z</time>
      </trkpt>
      <trkpt lat="42.71385" lon="-0.48244">
        <ele>2506</ele>
        <time>2010-01-01T07:19:02Z</time>
      </trkpt>
      <trkpt lat="42.7138" lon="-0.48236">
        <ele>2504</ele>
        <time>2010-01-01T07:19:04Z</time>
      </trkpt>
      <trkpt lat="42.71372" lon="-0.48225">
        <ele>2500</ele>
        <time>2010-01-01T07:19:09Z</time>
      </trkpt>
      <trkpt lat="42.71355" lon="-0.48185">
        <ele>2493</ele>
        <time>2010-01-01T07:19:23Z</time>
      </trkpt>
      <trkpt lat="42.71352" lon="-0.4817">
        <ele>2491</ele>
        <time>2010-01-01T07:19:27Z</time>
      </trkpt>
      <trkpt lat="42.71352" lon="-0.48157">
        <ele>2490</ele>
        <time>2010-01-01T07:19:31Z</time>
      </trkpt>
      <trkpt lat="42.7135" lon="-0.48151">
        <ele>2488</ele>
        <time>2010-01-01T07:19:33Z</time>
      </trkpt>
      <trkpt lat="42.71345" lon="-0.48143">
        <ele>2485</ele>
        <time>2010-01-01T07:19:36Z</time>
      </trkpt>
      <trkpt lat="42.71345" lon="-0.48134">
        <ele>2484</ele>
        <time>2010-01-01T07:19:39Z</time>
      </trkpt>
      <trkpt lat="42.71342" lon="-0.48122">
        <ele>2483</ele>
        <time>2010-01-01T07:19:42Z</time>
      </trkpt>
      <trkpt lat="42.7135" lon="-0.481">
        <ele>2484</ele>
        <time>2010-01-01T07:19:49Z</time>
      </trkpt>
      <trkpt lat="42.71349" lon="-0.48089">
        <ele>2484</ele>
        <time>2010-01-01T07:19:53Z</time>
      </trkpt>
      <trkpt lat="42.71347" lon="-0.48081">
        <ele>2483</ele>
        <time>2010-01-01T07:19:55Z</time>
      </trkpt>
      <trkpt lat="42.71348" lon="-0.48074">
        <ele>2484</ele>
        <time>2010-01-01T07:19:57Z</time>
      </trkpt>
      <trkpt lat="42.71337" lon="-0.48048">
        <ele>2483</ele>
        <time>2010-01-01T07:20:06Z</time>
      </trkpt>
      <trkpt lat="42.71321" lon="-0.48021">
        <ele>2483</ele>
        <time>2010-01-01T07:20:16Z</time>
      </trkpt>
      <trkpt lat="42.71318" lon="-0.48014">
        <ele>2483</ele>
        <time>2010-01-01T07:20:19Z</time>
      </trkpt>
      <trkpt lat="42.71316" lon="-0.48002">
        <ele>2484</ele>
        <time>2010-01-01T07:20:22Z</time>
      </trkpt>
      <trkpt lat="42.71317" lon="-0.47982">
        <ele>2487</ele>
        <time>2010-01-01T07:20:28Z</time>
      </trkpt>
      <trkpt lat="42.7132" lon="-0.47973">
        <ele>2489</ele>
        <time>2010-01-01T07:20:31Z</time>
      </trkpt>
      <trkpt lat="42.7132" lon="-0.47967">
        <ele>2490</ele>
        <time>2010-01-01T07:20:33Z</time>
      </trkpt>
      <trkpt lat="42.71325" lon="-0.47945">
        <ele>2495</ele>
        <time>2010-01-01T07:20:40Z</time>
      </trkpt>
      <trkpt lat="42.71323" lon="-0.47934">
        <ele>2497</ele>
        <time>2010-01-01T07:20:43Z</time>
      </trkpt>
      <trkpt lat="42.71327" lon="-0.47924">
        <ele>2499</ele>
        <time>2010-01-01T07:20:46Z</time>
      </trkpt>
      <trkpt lat="42.71336" lon="-0.47913">
        <ele>2501</ele>
        <time>2010-01-01T07:20:51Z</time>
      </trkpt>
      <trkpt lat="42.71339" lon="-0.47903">
        <ele>2504</ele>
        <time>2010-01-01T07:20:54Z</time>
      </trkpt>
      <trkpt lat="42.71341" lon="-0.47875">
        <ele>2510</ele>
        <time>2010-01-01T07:21:02Z</time>
      </trkpt>
      <trkpt lat="42.71331" lon="-0.47832">
        <ele>2518</ele>
        <time>2010-01-01T07:21:16Z</time>
      </trkpt>
      <trkpt lat="42.71329" lon="-0.47803">
        <ele>2523</ele>
        <time>2010-01-01T07:21:24Z</time>
      </trkpt>
      <trkpt lat="42.7132" lon="-0.47787">
        <ele>2527</ele>
        <time>2010-01-01T07:21:30Z</time>
      </trkpt>
      <trkpt lat="42.71313" lon="-0.47782">
        <ele>2528</ele>
        <time>2010-01-01T07:21:33Z</time>
      </trkpt>
      <trkpt lat="42.71298" lon="-0.47778">
        <ele>2530</ele>
        <time>2010-01-01T07:21:40Z</time>
      </trkpt>
      <trkpt lat="42.71292" lon="-0.47771">
        <ele>2533</ele>
        <time>2010-01-01T07:21:43Z</time>
      </trkpt>
      <trkpt lat="42.71285" lon="-0.47768">
        <ele>2534</ele>
        <time>2010-01-01T07:21:46Z</time>
      </trkpt>
      <trkpt lat="42.71282" lon="-0.47761">
        <ele>2535</ele>
        <time>2010-01-01T07:21:48Z</time>
      </trkpt>
      <trkpt lat="42.71268" lon="-0.47751">
        <ele>2538</ele>
        <time>2010-01-01T07:21:55Z</time>
      </trkpt>
      <trkpt lat="42.71253" lon="-0.47729">
        <ele>2544</ele>
        <time>2010-01-01T07:22:03Z</time>
      </trkpt>
      <trkpt lat="42.71245" lon="-0.47704">
        <ele>2550</ele>
        <time>2010-01-01T07:22:11Z</time>
      </trkpt>
      <trkpt lat="42.71224" lon="-0.47654">
        <ele>2563</ele>
        <time>2010-01-01T07:22:28Z</time>
      </trkpt>
      <trkpt lat="42.71222" lon="-0.47645">
        <ele>2565</ele>
        <time>2010-01-01T07:22:31Z</time>
      </trkpt>
      <trkpt lat="42.71218" lon="-0.47634">
        <ele>2567</ele>
        <time>2010-01-01T07:22:35Z</time>
      </trkpt>
      <trkpt lat="42.71206" lon="-0.47616">
        <ele>2571</ele>
        <time>2010-01-01T07:22:42Z</time>
      </trkpt>
      <trkpt lat="42.71205" lon="-0.47608">
        <ele>2573</ele>
        <time>2010-01-01T07:22:44Z</time>
      </trkpt>
      <trkpt lat="42.71186" lon="-0.47582">
        <ele>2575</ele>
        <time>2010-01-01T07:22:55Z</time>
      </trkpt>
      <trkpt lat="42.71185" lon="-0.47575">
        <ele>2578</ele>
        <time>2010-01-01T07:22:57Z</time>
      </trkpt>
      <trkpt lat="42.71169" lon="-0.4754">
        <ele>2585</ele>
        <time>2010-01-01T07:23:09Z</time>
      </trkpt>
      <trkpt lat="42.71167" lon="-0.47526">
        <ele>2589</ele>
        <time>2010-01-01T07:23:13Z</time>
      </trkpt>
      <trkpt lat="42.71162" lon="-0.47511">
        <ele>2593</ele>
        <time>2010-01-01T07:23:18Z</time>
      </trkpt>
      <trkpt lat="42.71152" lon="-0.47499">
        <ele>2594</ele>
        <time>2010-01-01T07:23:23Z</time>
      </trkpt>
      <trkpt lat="42.71147" lon="-0.47486">
        <ele>2597</ele>
        <time>2010-01-01T07:23:28Z</time>
      </trkpt>
      <trkpt lat="42.71139" lon="-0.47475">
        <ele>2598</ele>
        <time>2010-01-01T07:23:32Z</time>
      </trkpt>
      <trkpt lat="42.71128" lon="-0.47452">
        <ele>2601</ele>
        <time>2010-01-01T07:23:41Z</time>
      </trkpt>
      <trkpt lat="42.71134" lon="-0.47439">
        <ele>2606</ele>
        <time>2010-01-01T07:23:45Z</time>
      </trkpt>
      <trkpt lat="42.71139" lon="-0.47438">
        <ele>2608</ele>
        <time>2010-01-01T07:23:47Z</time>
      </trkpt>
      <trkpt lat="42.71143" lon="-0.47431">
        <ele>2611</ele>
        <time>2010-01-01T07:23:49Z</time>
      </trkpt>
      <trkpt lat="42.71144" lon="-0.47415">
        <ele>2616</ele>
        <time>2010-01-01T07:23:54Z</time>
      </trkpt>
      <trkpt lat="42.71148" lon="-0.47411">
        <ele>2620</ele>
        <time>2010-01-01T07:23:56Z</time>
      </trkpt>
      <trkpt lat="42.7115" lon="-0.47403">
        <ele>2624</ele>
        <time>2010-01-01T07:23:59Z</time>
      </trkpt>
      <trkpt lat="42.71155" lon="-0.47398">
        <ele>2628</ele>
        <time>2010-01-01T07:24:01Z</time>
      </trkpt>
      <trkpt lat="42.7116" lon="-0.47389">
        <ele>2634</ele>
        <time>2010-01-01T07:24:04Z</time>
      </trkpt>
      <trkpt lat="42.71164" lon="-0.47385">
        <ele>2637</ele>
        <time>2010-01-01T07:24:06Z</time>
      </trkpt>
      <trkpt lat="42.71167" lon="-0.47378">
        <ele>2642</ele>
        <time>2010-01-01T07:24:09Z</time>
      </trkpt>
      <trkpt lat="42.71173" lon="-0.47372">
        <ele>2646</ele>
        <time>2010-01-01T07:24:12Z</time>
      </trkpt>
      <trkpt lat="42.71174" lon="-0.47362">
        <ele>2651</ele>
        <time>2010-01-01T07:24:15Z</time>
      </trkpt>
      <trkpt lat="42.71179" lon="-0.47358">
        <ele>2653</ele>
        <time>2010-01-01T07:24:17Z</time>
      </trkpt>
      <trkpt lat="42.71189" lon="-0.47342">
        <ele>2661</ele>
        <time>2010-01-01T07:24:23Z</time>
      </trkpt>
      <trkpt lat="42.71195" lon="-0.47337">
        <ele>2665</ele>
        <time>2010-01-01T07:24:26Z</time>
      </trkpt>
      <trkpt lat="42.712" lon="-0.47335">
        <ele>2667</ele>
        <time>2010-01-01T07:24:28Z</time>
      </trkpt>
      <trkpt lat="42.71206" lon="-0.47329">
        <ele>2671</ele>
        <time>2010-01-01T07:24:31Z</time>
      </trkpt>
      <trkpt lat="42.71213" lon="-0.47328">
        <ele>2673</ele>
        <time>2010-01-01T07:24:34Z</time>
      </trkpt>
      <trkpt lat="42.71218" lon="-0.47322">
        <ele>2677</ele>
        <time>2010-01-01T07:24:37Z</time>
      </trkpt>
      <trkpt lat="42.71223" lon="-0.4732">
        <ele>2679</ele>
        <time>2010-01-01T07:24:39Z</time>
      </trkpt>
      <trkpt lat="42.71236" lon="-0.47312">
        <ele>2685</ele>
        <time>2010-01-01T07:24:44Z</time>
      </trkpt>
      <trkpt lat="42.71251" lon="-0.47297">
        <ele>2694</ele>
        <time>2010-01-01T07:24:52Z</time>
      </trkpt>
      <trkpt lat="42.71251" lon="-0.47291">
        <ele>2696</ele>
        <time>2010-01-01T07:24:54Z</time>
      </trkpt>
      <trkpt lat="42.71266" lon="-0.47282">
        <ele>2704</ele>
        <time>2010-01-01T07:25:00Z</time>
      </trkpt>
      <trkpt lat="42.71275" lon="-0.47274">
        <ele>2711</ele>
        <time>2010-01-01T07:25:04Z</time>
      </trkpt>
      <trkpt lat="42.71288" lon="-0.47269">
        <ele>2717</ele>
        <time>2010-01-01T07:25:10Z</time>
      </trkpt>
      <trkpt lat="42.7129" lon="-0.47263">
        <ele>2721</ele>
        <time>2010-01-01T07:25:12Z</time>
      </trkpt>
      <trkpt lat="42.71309" lon="-0.47252">
        <ele>2731</ele>
        <time>2010-01-01T07:25:20Z</time>
      </trkpt>
      <trkpt lat="42.71306" lon="-0.47237">
        <ele>2738</ele>
        <time>2010-01-01T07:25:25Z</time>
      </trkpt>
      <trkpt lat="42.71334" lon="-0.47213">
        <ele>2758</ele>
        <time>2010-01-01T07:25:38Z</time>
      </trkpt>
      <trkpt lat="42.71338" lon="-0.47203">
        <ele>2764</ele>
        <time>2010-01-01T07:25:41Z</time>
      </trkpt>
      <trkpt lat="42.71347" lon="-0.47197">
        <ele>2769</ele>
        <time>2010-01-01T07:25:45Z</time>
      </trkpt>
      <trkpt lat="42.71363" lon="-0.47192">
        <ele>2776</ele>
        <time>2010-01-01T07:25:52Z</time>
      </trkpt>
      <trkpt lat="42.71368" lon="-0.47192">
        <ele>2778</ele>
        <time>2010-01-01T07:25:54Z</time>
      </trkpt>
      <trkpt lat="42.71368" lon="-0.47186">
        <ele>2781</ele>
        <time>2010-01-01T07:25:56Z</time>
      </trkpt>
      <trkpt lat="42.71377" lon="-0.47175">
        <ele>2790</ele>
        <time>2010-01-01T07:26:01Z</time>
      </trkpt>
      <trkpt lat="42.71382" lon="-0.47171">
        <ele>2795</ele>
        <time>2010-01-01T07:26:03Z</time>
      </trkpt>
      <trkpt lat="42.71387" lon="-0.47157">
        <ele>2806</ele>
        <time>2010-01-01T07:26:08Z</time>
      </trkpt>
      <trkpt lat="42.71391" lon="-0.47151">
        <ele>2811</ele>
        <time>2010-01-01T07:26:10Z</time>
      </trkpt>
      <trkpt lat="42.71396" lon="-0.47151">
        <ele>2813</ele>
        <time>2010-01-01T07:26:12Z</time>
      </trkpt>
      <trkpt lat="42.71405" lon="-0.4714">
        <ele>2824</ele>
        <time>2010-01-01T07:26:17Z</time>
      </trkpt>
      <trkpt lat="42.71409" lon="-0.47144">
        <ele>2824</ele>
        <time>2010-01-01T07:26:19Z</time>
      </trkpt>
      <trkpt lat="42.71411" lon="-0.47138">
        <ele>2828</ele>
        <time>2010-01-01T07:26:21Z</time>
      </trkpt>
      <trkpt lat="42.7142" lon="-0.47127">
        <ele>2839</ele>
        <time>2010-01-01T07:26:26Z</time>
      </trkpt>
      <trkpt lat="42.71428" lon="-0.4712">
        <ele>2846</ele>
        <time>2010-01-01T07:26:30Z</time>
      </trkpt>
      <trkpt lat="42.71427" lon="-0.47113">
        <ele>2850</ele>
        <time>2010-01-01T07:26:32Z</time>
      </trkpt>
      <trkpt lat="42.7143" lon="-0.47107">
        <ele>2854</ele>
        <time>2010-01-01T07:26:34Z</time>
      </trkpt>
      <trkpt lat="42.71434" lon="-0.471">
        <ele>2859</ele>
        <time>2010-01-01T07:26:36Z</time>
      </trkpt>
      <trkpt lat="42.71446" lon="-0.4709">
        <ele>2865</ele>
        <time>2010-01-01T07:26:42Z</time>
      </trkpt>
      <trkpt lat="42.71446" lon="-0.47084">
        <ele>2867</ele>
        <time>2010-01-01T07:26:44Z</time>
      </trkpt>
      <trkpt lat="42.7144" lon="-0.47065">
        <ele>2860</ele>
        <time>2010-01-01T07:26:50Z</time>
      </trkpt>
      <trkpt lat="42.71435" lon="-0.47063">
        <ele>2860</ele>
        <time>2010-01-01T07:26:52Z</time>
      </trkpt>
      <trkpt lat="42.71431" lon="-0.4706">
        <ele>2861</ele>
        <time>2010-01-01T07:26:54Z</time>
      </trkpt>
      <trkpt lat="42.71426" lon="-0.47061">
        <ele>2863</ele>
        <time>2010-01-01T07:26:56Z</time>
      </trkpt>
      <trkpt lat="42.71406" lon="-0.47045">
        <ele>2861</ele>
        <time>2010-01-01T07:27:05Z</time>
      </trkpt>
      <trkpt lat="42.71401" lon="-0.47045">
        <ele>2859</ele>
        <time>2010-01-01T07:27:07Z</time>
      </trkpt>
      <trkpt lat="42.71383" lon="-0.4704">
        <ele>2854</ele>
        <time>2010-01-01T07:27:15Z</time>
      </trkpt>
      <trkpt lat="42.71375" lon="-0.47039">
        <ele>2850</ele>
        <time>2010-01-01T07:27:18Z</time>
      </trkpt>
      <trkpt lat="42.71369" lon="-0.47025">
        <ele>2849</ele>
        <time>2010-01-01T07:27:23Z</time>
      </trkpt>
      <trkpt lat="42.71363" lon="-0.47022">
        <ele>2846</ele>
        <time>2010-01-01T07:27:26Z</time>
      </trkpt>
      <trkpt lat="42.71364" lon="-0.47013">
        <ele>2844</ele>
        <time>2010-01-01T07:27:28Z</time>
      </trkpt>
      <trkpt lat="42.71368" lon="-0.47006">
        <ele>2843</ele>
        <time>2010-01-01T07:27:31Z</time>
      </trkpt>
      <trkpt lat="42.71362" lon="-0.47002">
        <ele>2840</ele>
        <time>2010-01-01T07:27:34Z</time>
      </trkpt>
      <trkpt lat="42.71356" lon="-0.47001">
        <ele>2837</ele>
        <time>2010-01-01T07:27:36Z</time>
      </trkpt>
      <trkpt lat="42.71361" lon="-0.46996">
        <ele>2837</ele>
        <time>2010-01-01T07:27:38Z</time>
      </trkpt>
      <trkpt lat="42.71358" lon="-0.46989">
        <ele>2831</ele>
        <time>2010-01-01T07:27:41Z</time>
      </trkpt>
      <trkpt lat="42.71362" lon="-0.46981">
        <ele>2827</ele>
        <time>2010-01-01T07:27:44Z</time>
      </trkpt>
      <trkpt lat="42.71354" lon="-0.46979">
        <ele>2823</ele>
        <time>2010-01-01T07:27:47Z</time>
      </trkpt>
      <trkpt lat="42.71354" lon="-0.46969">
        <ele>2818</ele>
        <time>2010-01-01T07:27:50Z</time>
      </trkpt>
      <trkpt lat="42.71356" lon="-0.46962">
        <ele>2815</ele>
        <time>2010-01-01T07:27:53Z</time>
      </trkpt>
      <trkpt lat="42.71353" lon="-0.46956">
        <ele>2811</ele>
        <time>2010-01-01T07:27:55Z</time>
      </trkpt>
      <trkpt lat="42.71347" lon="-0.4696">
        <ele>2811</ele>
        <time>2010-01-01T07:27:57Z</time>
      </trkpt>
      <trkpt lat="42.71338" lon="-0.46956">
        <ele>2807</ele>
        <time>2010-01-01T07:28:01Z</time>
      </trkpt>
      <trkpt lat="42.71348" lon="-0.46945">
        <ele>2805</ele>
        <time>2010-01-01T07:28:06Z</time>
      </trkpt>
      <trkpt lat="42.71341" lon="-0.46944">
        <ele>2802</ele>
        <time>2010-01-01T07:28:09Z</time>
      </trkpt>
      <trkpt lat="42.71346" lon="-0.46937">
        <ele>2801</ele>
        <time>2010-01-01T07:28:12Z</time>
      </trkpt>
      <trkpt lat="42.71333" lon="-0.46922">
        <ele>2791</ele>
        <time>2010-01-01T07:28:19Z</time>
      </trkpt>
      <trkpt lat="42.71328" lon="-0.4692">
        <ele>2789</ele>
        <time>2010-01-01T07:28:21Z</time>
      </trkpt>
      <trkpt lat="42.71321" lon="-0.4691">
        <ele>2783</ele>
        <time>2010-01-01T07:28:25Z</time>
      </trkpt>
      <trkpt lat="42.71315" lon="-0.46908">
        <ele>2781</ele>
        <time>2010-01-01T07:28:27Z</time>
      </trkpt>
      <trkpt lat="42.71298" lon="-0.46898">
        <ele>2772</ele>
        <time>2010-01-01T07:28:35Z</time>
      </trkpt>
      <trkpt lat="42.71293" lon="-0.46899">
        <ele>2771</ele>
        <time>2010-01-01T07:28:37Z</time>
      </trkpt>
      <trkpt lat="42.71288" lon="-0.46886">
        <ele>2764</ele>
        <time>2010-01-01T07:28:41Z</time>
      </trkpt>
      <trkpt lat="42.71281" lon="-0.46885">
        <ele>2762</ele>
        <time>2010-01-01T07:28:44Z</time>
      </trkpt>
      <trkpt lat="42.71258" lon="-0.46874">
        <ele>2753</ele>
        <time>2010-01-01T07:28:54Z</time>
      </trkpt>
      <trkpt lat="42.71259" lon="-0.46867">
        <ele>2751</ele>
        <time>2010-01-01T07:28:55Z</time>
      </trkpt>
      <trkpt lat="42.71253" lon="-0.46862">
        <ele>2748</ele>
        <time>2010-01-01T07:28:58Z</time>
      </trkpt>
      <trkpt lat="42.7125" lon="-0.46856">
        <ele>2746</ele>
        <time>2010-01-01T07:29:01Z</time>
      </trkpt>
      <trkpt lat="42.71245" lon="-0.46853">
        <ele>2743</ele>
        <time>2010-01-01T07:29:03Z</time>
      </trkpt>
      <trkpt lat="42.71243" lon="-0.46843">
        <ele>2739</ele>
        <time>2010-01-01T07:29:06Z</time>
      </trkpt>
      <trkpt lat="42.71244" lon="-0.46833">
        <ele>2736</ele>
        <time>2010-01-01T07:29:08Z</time>
      </trkpt>
      <trkpt lat="42.71235" lon="-0.46823">
        <ele>2729</ele>
        <time>2010-01-01T07:29:13Z</time>
      </trkpt>
      <trkpt lat="42.71231" lon="-0.46802">
        <ele>2718</ele>
        <time>2010-01-01T07:29:20Z</time>
      </trkpt>
      <trkpt lat="42.71234" lon="-0.46794">
        <ele>2716</ele>
        <time>2010-01-01T07:29:22Z</time>
      </trkpt>
      <trkpt lat="42.7123" lon="-0.46787">
        <ele>2712</ele>
        <time>2010-01-01T07:29:25Z</time>
      </trkpt>
      <trkpt lat="42.71235" lon="-0.46779">
        <ele>2710</ele>
        <time>2010-01-01T07:29:28Z</time>
      </trkpt>
      <trkpt lat="42.71244" lon="-0.46755">
        <ele>2698</ele>
        <time>2010-01-01T07:29:36Z</time>
      </trkpt>
      <trkpt lat="42.71243" lon="-0.46748">
        <ele>2693</ele>
        <time>2010-01-01T07:29:38Z</time>
      </trkpt>
      <trkpt lat="42.71244" lon="-0.46739">
        <ele>2689</ele>
        <time>2010-01-01T07:29:40Z</time>
      </trkpt>
      <trkpt lat="42.7125" lon="-0.46719">
        <ele>2682</ele>
        <time>2010-01-01T07:29:47Z</time>
      </trkpt>
      <trkpt lat="42.71247" lon="-0.46713">
        <ele>2678</ele>
        <time>2010-01-01T07:29:49Z</time>
      </trkpt>
      <trkpt lat="42.71241" lon="-0.46709">
        <ele>2674</ele>
        <time>2010-01-01T07:29:52Z</time>
      </trkpt>
      <trkpt lat="42.71235" lon="-0.46699">
        <ele>2669</ele>
        <time>2010-01-01T07:29:56Z</time>
      </trkpt>
      <trkpt lat="42.7123" lon="-0.46698">
        <ele>2667</ele>
        <time>2010-01-01T07:29:58Z</time>
      </trkpt>
      <trkpt lat="42.71235" lon="-0.46686">
        <ele>2663</ele>
        <time>2010-01-01T07:30:02Z</time>
      </trkpt>
      <trkpt lat="42.71228" lon="-0.46672">
        <ele>2654</ele>
        <time>2010-01-01T07:30:07Z</time>
      </trkpt>
      <trkpt lat="42.71219" lon="-0.46672">
        <ele>2654</ele>
        <time>2010-01-01T07:30:10Z</time>
      </trkpt>
      <trkpt lat="42.71219" lon="-0.46662">
        <ele>2649</ele>
        <time>2010-01-01T07:30:13Z</time>
      </trkpt>
      <trkpt lat="42.71213" lon="-0.46658">
        <ele>2647</ele>
        <time>2010-01-01T07:30:16Z</time>
      </trkpt>
      <trkpt lat="42.71208" lon="-0.46659">
        <ele>2648</ele>
        <time>2010-01-01T07:30:18Z</time>
      </trkpt>
      <trkpt lat="42.71203" lon="-0.46658">
        <ele>2647</ele>
        <time>2010-01-01T07:30:20Z</time>
      </trkpt>
      <trkpt lat="42.71197" lon="-0.46653">
        <ele>2644</ele>
        <time>2010-01-01T07:30:23Z</time>
      </trkpt>
      <trkpt lat="42.71198" lon="-0.46645">
        <ele>2640</ele>
        <time>2010-01-01T07:30:25Z</time>
      </trkpt>
      <trkpt lat="42.71192" lon="-0.4663">
        <ele>2631</ele>
        <time>2010-01-01T07:30:30Z</time>
      </trkpt>
      <trkpt lat="42.71193" lon="-0.46623">
        <ele>2628</ele>
        <time>2010-01-01T07:30:32Z</time>
      </trkpt>
      <trkpt lat="42.71187" lon="-0.46603">
        <ele>2617</ele>
        <time>2010-01-01T07:30:39Z</time>
      </trkpt>
      <trkpt lat="42.7119" lon="-0.46584">
        <ele>2613</ele>
        <time>2010-01-01T07:30:44Z</time>
      </trkpt>
      <trkpt lat="42.71187" lon="-0.46579">
        <ele>2611</ele>
        <time>2010-01-01T07:30:46Z</time>
      </trkpt>
      <trkpt lat="42.71182" lon="-0.46541">
        <ele>2603</ele>
        <time>2010-01-01T07:30:58Z</time>
      </trkpt>
      <trkpt lat="42.71176" lon="-0.46519">
        <ele>2597</ele>
        <time>2010-01-01T07:31:05Z</time>
      </trkpt>
      <trkpt lat="42.71169" lon="-0.46502">
        <ele>2591</ele>
        <time>2010-01-01T07:31:10Z</time>
      </trkpt>
      <trkpt lat="42.71163" lon="-0.46469">
        <ele>2577</ele>
        <time>2010-01-01T07:31:20Z</time>
      </trkpt>
      <trkpt lat="42.71154" lon="-0.46447">
        <ele>2567</ele>
        <time>2010-01-01T07:31:28Z</time>
      </trkpt>
      <trkpt lat="42.71151" lon="-0.46432">
        <ele>2563</ele>
        <time>2010-01-01T07:31:32Z</time>
      </trkpt>
      <trkpt lat="42.71145" lon="-0.46419">
        <ele>2560</ele>
        <time>2010-01-01T07:31:37Z</time>
      </trkpt>
      <trkpt lat="42.71158" lon="-0.46415">
        <ele>2561</ele>
        <time>2010-01-01T07:31:42Z</time>
      </trkpt>
      <trkpt lat="42.71164" lon="-0.46416">
        <ele>2561</ele>
        <time>2010-01-01T07:31:44Z</time>
      </trkpt>
      <trkpt lat="42.71166" lon="-0.46411">
        <ele>2561</ele>
        <time>2010-01-01T07:31:46Z</time>
      </trkpt>
      <trkpt lat="42.71171" lon="-0.46414">
        <ele>2560</ele>
        <time>2010-01-01T07:31:48Z</time>
      </trkpt>
      <trkpt lat="42.71178" lon="-0.46415">
        <ele>2560</ele>
        <time>2010-01-01T07:31:51Z</time>
      </trkpt>
      <trkpt lat="42.71193" lon="-0.4639">
        <ele>2550</ele>
        <time>2010-01-01T07:32:00Z</time>
      </trkpt>
      <trkpt lat="42.71198" lon="-0.46386">
        <ele>2550</ele>
        <time>2010-01-01T07:32:03Z</time>
      </trkpt>
      <trkpt lat="42.71202" lon="-0.4638">
        <ele>2550</ele>
        <time>2010-01-01T07:32:05Z</time>
      </trkpt>
      <trkpt lat="42.7121" lon="-0.46373">
        <ele>2550</ele>
        <time>2010-01-01T07:32:09Z</time>
      </trkpt>
      <trkpt lat="42.71214" lon="-0.46368">
        <ele>2550</ele>
        <time>2010-01-01T07:32:11Z</time>
      </trkpt>
      <trkpt lat="42.71226" lon="-0.46365">
        <ele>2547</ele>
        <time>2010-01-01T07:32:16Z</time>
      </trkpt>
      <trkpt lat="42.71231" lon="-0.4637">
        <ele>2545</ele>
        <time>2010-01-01T07:32:18Z</time>
      </trkpt>
      <trkpt lat="42.71239" lon="-0.46367">
        <ele>2541</ele>
        <time>2010-01-01T07:32:22Z</time>
      </trkpt>
      <trkpt lat="42.71245" lon="-0.46359">
        <ele>2537</ele>
        <time>2010-01-01T07:32:25Z</time>
      </trkpt>
      <trkpt lat="42.71256" lon="-0.46355">
        <ele>2533</ele>
        <time>2010-01-01T07:32:30Z</time>
      </trkpt>
      <trkpt lat="42.71259" lon="-0.46361">
        <ele>2534</ele>
        <time>2010-01-01T07:32:32Z</time>
      </trkpt>
      <trkpt lat="42.71264" lon="-0.46355">
        <ele>2531</ele>
        <time>2010-01-01T07:32:34Z</time>
      </trkpt>
      <trkpt lat="42.71269" lon="-0.46359">
        <ele>2532</ele>
        <time>2010-01-01T07:32:37Z</time>
      </trkpt>
      <trkpt lat="42.71283" lon="-0.46355">
        <ele>2522</ele>
        <time>2010-01-01T07:32:43Z</time>
      </trkpt>
      <trkpt lat="42.71288" lon="-0.4635">
        <ele>2514</ele>
        <time>2010-01-01T07:32:45Z</time>
      </trkpt>
      <trkpt lat="42.71293" lon="-0.4635">
        <ele>2508</ele>
        <time>2010-01-01T07:32:47Z</time>
      </trkpt>
      <trkpt lat="42.71296" lon="-0.46338">
        <ele>2499</ele>
        <time>2010-01-01T07:32:51Z</time>
      </trkpt>
      <trkpt lat="42.71313" lon="-0.46322">
        <ele>2477</ele>
        <time>2010-01-01T07:32:59Z</time>
      </trkpt>
      <trkpt lat="42.71317" lon="-0.46325">
        <ele>2476</ele>
        <time>2010-01-01T07:33:01Z</time>
      </trkpt>
      <trkpt lat="42.71329" lon="-0.46327">
        <ele>2468</ele>
        <time>2010-01-01T07:33:06Z</time>
      </trkpt>
      <trkpt lat="42.71354" lon="-0.46313">
        <ele>2443</ele>
        <time>2010-01-01T07:33:16Z</time>
      </trkpt>
      <trkpt lat="42.71359" lon="-0.46313">
        <ele>2438</ele>
        <time>2010-01-01T07:33:18Z</time>
      </trkpt>
      <trkpt lat="42.71365" lon="-0.46306">
        <ele>2428</ele>
        <time>2010-01-01T07:33:22Z</time>
      </trkpt>
      <trkpt lat="42.71375" lon="-0.46298">
        <ele>2419</ele>
        <time>2010-01-01T07:33:26Z</time>
      </trkpt>
      <trkpt lat="42.71381" lon="-0.46296">
        <ele>2415</ele>
        <time>2010-01-01T07:33:29Z</time>
      </trkpt>
      <trkpt lat="42.71397" lon="-0.46284">
        <ele>2409</ele>
        <time>2010-01-01T07:33:36Z</time>
      </trkpt>
      <trkpt lat="42.71403" lon="-0.46275">
        <ele>2407</ele>
        <time>2010-01-01T07:33:40Z</time>
      </trkpt>
      <trkpt lat="42.71413" lon="-0.46261">
        <ele>2403</ele>
        <time>2010-01-01T07:33:45Z</time>
      </trkpt>
      <trkpt lat="42.71416" lon="-0.46252">
        <ele>2400</ele>
        <time>2010-01-01T07:33:48Z</time>
      </trkpt>
      <trkpt lat="42.7142" lon="-0.46245">
        <ele>2397</ele>
        <time>2010-01-01T07:33:51Z</time>
      </trkpt>
      <trkpt lat="42.71428" lon="-0.46225">
        <ele>2384</ele>
        <time>2010-01-01T07:33:58Z</time>
      </trkpt>
      <trkpt lat="42.71434" lon="-0.4622">
        <ele>2381</ele>
        <time>2010-01-01T07:34:01Z</time>
      </trkpt>
      <trkpt lat="42.7145" lon="-0.46221">
        <ele>2377</ele>
        <time>2010-01-01T07:34:07Z</time>
      </trkpt>
      <trkpt lat="42.71455" lon="-0.46216">
        <ele>2370</ele>
        <time>2010-01-01T07:34:10Z</time>
      </trkpt>
      <trkpt lat="42.71461" lon="-0.46213">
        <ele>2364</ele>
        <time>2010-01-01T07:34:12Z</time>
      </trkpt>
      <trkpt lat="42.71468" lon="-0.46215">
        <ele>2361</ele>
        <time>2010-01-01T07:34:15Z</time>
      </trkpt>
      <trkpt lat="42.71469" lon="-0.46209">
        <ele>2355</ele>
        <time>2010-01-01T07:34:16Z</time>
      </trkpt>
      <trkpt lat="42.71474" lon="-0.4621">
        <ele>2352</ele>
        <time>2010-01-01T07:34:19Z</time>
      </trkpt>
      <trkpt lat="42.71482" lon="-0.46196">
        <ele>2335</ele>
        <time>2010-01-01T07:34:24Z</time>
      </trkpt>
      <trkpt lat="42.71495" lon="-0.46193">
        <ele>2324</ele>
        <time>2010-01-01T07:34:29Z</time>
      </trkpt>
      <trkpt lat="42.71505" lon="-0.46178">
        <ele>2312</ele>
        <time>2010-01-01T07:34:35Z</time>
      </trkpt>
      <trkpt lat="42.7151" lon="-0.46174">
        <ele>2309</ele>
        <time>2010-01-01T07:34:37Z</time>
      </trkpt>
      <trkpt lat="42.71513" lon="-0.46165">
        <ele>2303</ele>
        <time>2010-01-01T07:34:40Z</time>
      </trkpt>
      <trkpt lat="42.71521" lon="-0.46155">
        <ele>2297</ele>
        <time>2010-01-01T07:34:45Z</time>
      </trkpt>
      <trkpt lat="42.71529" lon="-0.46153">
        <ele>2294</ele>
        <time>2010-01-01T07:34:48Z</time>
      </trkpt>
      <trkpt lat="42.7154" lon="-0.46156">
        <ele>2293</ele>
        <time>2010-01-01T07:34:52Z</time>
      </trkpt>
      <trkpt lat="42.71541" lon="-0.46145">
        <ele>2288</ele>
        <time>2010-01-01T07:34:56Z</time>
      </trkpt>
      <trkpt lat="42.71555" lon="-0.46138">
        <ele>2282</ele>
        <time>2010-01-01T07:35:02Z</time>
      </trkpt>
      <trkpt lat="42.71578" lon="-0.46135">
        <ele>2272</ele>
        <time>2010-01-01T07:35:11Z</time>
      </trkpt>
      <trkpt lat="42.71596" lon="-0.46129">
        <ele>2265</ele>
        <time>2010-01-01T07:35:18Z</time>
      </trkpt>
      <trkpt lat="42.7164" lon="-0.46123">
        <ele>2261</ele>
        <time>2010-01-01T07:35:36Z</time>
      </trkpt>
      <trkpt lat="42.71654" lon="-0.46128">
        <ele>2258</ele>
        <time>2010-01-01T07:35:42Z</time>
      </trkpt>
      <trkpt lat="42.71663" lon="-0.46126">
        <ele>2255</ele>
        <time>2010-01-01T07:35:45Z</time>
      </trkpt>
      <trkpt lat="42.71668" lon="-0.46122">
        <ele>2252</ele>
        <time>2010-01-01T07:35:48Z</time>
      </trkpt>
      <trkpt lat="42.71672" lon="-0.46117">
        <ele>2250</ele>
        <time>2010-01-01T07:35:50Z</time>
      </trkpt>
      <trkpt lat="42.71674" lon="-0.46109">
        <ele>2247</ele>
        <time>2010-01-01T07:35:52Z</time>
      </trkpt>
      <trkpt lat="42.71671" lon="-0.46102">
        <ele>2245</ele>
        <time>2010-01-01T07:35:55Z</time>
      </trkpt>
      <trkpt lat="42.7167" lon="-0.46096">
        <ele>2243</ele>
        <time>2010-01-01T07:35:57Z</time>
      </trkpt>
      <trkpt lat="42.71681" lon="-0.46086">
        <ele>2234</ele>
        <time>2010-01-01T07:36:02Z</time>
      </trkpt>
      <trkpt lat="42.71683" lon="-0.46077">
        <ele>2229</ele>
        <time>2010-01-01T07:36:05Z</time>
      </trkpt>
      <trkpt lat="42.71702" lon="-0.4605">
        <ele>2212</ele>
        <time>2010-01-01T07:36:16Z</time>
      </trkpt>
      <trkpt lat="42.71722" lon="-0.46032">
        <ele>2202</ele>
        <time>2010-01-01T07:36:26Z</time>
      </trkpt>
      <trkpt lat="42.71729" lon="-0.46022">
        <ele>2198</ele>
        <time>2010-01-01T07:36:30Z</time>
      </trkpt>
      <trkpt lat="42.71735" lon="-0.46017">
        <ele>2196</ele>
        <time>2010-01-01T07:36:32Z</time>
      </trkpt>
      <trkpt lat="42.71757" lon="-0.46006">
        <ele>2190</ele>
        <time>2010-01-01T07:36:42Z</time>
      </trkpt>
      <trkpt lat="42.71775" lon="-0.45982">
        <ele>2183</ele>
        <time>2010-01-01T07:36:52Z</time>
      </trkpt>
      <trkpt lat="42.7178" lon="-0.45969">
        <ele>2180</ele>
        <time>2010-01-01T07:36:56Z</time>
      </trkpt>
      <trkpt lat="42.71782" lon="-0.45961">
        <ele>2177</ele>
        <time>2010-01-01T07:36:59Z</time>
      </trkpt>
      <trkpt lat="42.71781" lon="-0.45941">
        <ele>2171</ele>
        <time>2010-01-01T07:37:05Z</time>
      </trkpt>
      <trkpt lat="42.71792" lon="-0.45928">
        <ele>2168</ele>
        <time>2010-01-01T07:37:10Z</time>
      </trkpt>
      <trkpt lat="42.71801" lon="-0.45908">
        <ele>2161</ele>
        <time>2010-01-01T07:37:17Z</time>
      </trkpt>
      <trkpt lat="42.71801" lon="-0.45892">
        <ele>2157</ele>
        <time>2010-01-01T07:37:22Z</time>
      </trkpt>
      <trkpt lat="42.71803" lon="-0.45884">
        <ele>2154</ele>
        <time>2010-01-01T07:37:25Z</time>
      </trkpt>
      <trkpt lat="42.71811" lon="-0.45883">
        <ele>2154</ele>
        <time>2010-01-01T07:37:28Z</time>
      </trkpt>
      <trkpt lat="42.71817" lon="-0.45871">
        <ele>2151</ele>
        <time>2010-01-01T07:37:32Z</time>
      </trkpt>
      <trkpt lat="42.71825" lon="-0.45864">
        <ele>2149</ele>
        <time>2010-01-01T07:37:36Z</time>
      </trkpt>
      <trkpt lat="42.7184" lon="-0.45853">
        <ele>2141</ele>
        <time>2010-01-01T07:37:42Z</time>
      </trkpt>
      <trkpt lat="42.71845" lon="-0.45852">
        <ele>2139</ele>
        <time>2010-01-01T07:37:44Z</time>
      </trkpt>
      <trkpt lat="42.71854" lon="-0.45852">
        <ele>2135</ele>
        <time>2010-01-01T07:37:48Z</time>
      </trkpt>
      <trkpt lat="42.71863" lon="-0.45862">
        <ele>2135</ele>
        <time>2010-01-01T07:37:53Z</time>
      </trkpt>
      <trkpt lat="42.71875" lon="-0.45867">
        <ele>2136</ele>
        <time>2010-01-01T07:37:58Z</time>
      </trkpt>
      <trkpt lat="42.7188" lon="-0.45873">
        <ele>2138</ele>
        <time>2010-01-01T07:38:00Z</time>
      </trkpt>
      <trkpt lat="42.7189" lon="-0.4588">
        <ele>2139</ele>
        <time>2010-01-01T07:38:05Z</time>
      </trkpt>
      <trkpt lat="42.71916" lon="-0.45897">
        <ele>2138</ele>
        <time>2010-01-01T07:38:16Z</time>
      </trkpt>
      <trkpt lat="42.71947" lon="-0.45907">
        <ele>2122</ele>
        <time>2010-01-01T07:38:29Z</time>
      </trkpt>
      <trkpt lat="42.71954" lon="-0.45919">
        <ele>2121</ele>
        <time>2010-01-01T07:38:34Z</time>
      </trkpt>
      <trkpt lat="42.71959" lon="-0.45956">
        <ele>2128</ele>
        <time>2010-01-01T07:38:45Z</time>
      </trkpt>
      <trkpt lat="42.71962" lon="-0.45964">
        <ele>2128</ele>
        <time>2010-01-01T07:38:47Z</time>
      </trkpt>
      <trkpt lat="42.71966" lon="-0.45967">
        <ele>2125</ele>
        <time>2010-01-01T07:38:49Z</time>
      </trkpt>
      <trkpt lat="42.71989" lon="-0.46013">
        <ele>2116</ele>
        <time>2010-01-01T07:39:06Z</time>
      </trkpt>
      <trkpt lat="42.71995" lon="-0.46031">
        <ele>2113</ele>
        <time>2010-01-01T07:39:11Z</time>
      </trkpt>
      <trkpt lat="42.72" lon="-0.46039">
        <ele>2109</ele>
        <time>2010-01-01T07:39:14Z</time>
      </trkpt>
      <trkpt lat="42.72003" lon="-0.46053">
        <ele>2110</ele>
        <time>2010-01-01T07:39:18Z</time>
      </trkpt>
      <trkpt lat="42.72027" lon="-0.46116">
        <ele>2116</ele>
        <time>2010-01-01T07:39:39Z</time>
      </trkpt>
      <trkpt lat="42.7204" lon="-0.46131">
        <ele>2116</ele>
        <time>2010-01-01T07:39:46Z</time>
      </trkpt>
      <trkpt lat="42.72063" lon="-0.46147">
        <ele>2111</ele>
        <time>2010-01-01T07:39:56Z</time>
      </trkpt>
      <trkpt lat="42.72075" lon="-0.46159">
        <ele>2110</ele>
        <time>2010-01-01T07:40:03Z</time>
      </trkpt>
      <trkpt lat="42.72094" lon="-0.46188">
        <ele>2110</ele>
        <time>2010-01-01T07:40:14Z</time>
      </trkpt>
      <trkpt lat="42.72099" lon="-0.46201">
        <ele>2111</ele>
        <time>2010-01-01T07:40:18Z</time>
      </trkpt>
      <trkpt lat="42.72106" lon="-0.46206">
        <ele>2110</ele>
        <time>2010-01-01T07:40:21Z</time>
      </trkpt>
      <trkpt lat="42.72115" lon="-0.46217">
        <ele>2108</ele>
        <time>2010-01-01T07:40:26Z</time>
      </trkpt>
      <trkpt lat="42.7212" lon="-0.46229">
        <ele>2108</ele>
        <time>2010-01-01T07:40:30Z</time>
      </trkpt>
      <trkpt lat="42.72128" lon="-0.46241">
        <ele>2109</ele>
        <time>2010-01-01T07:40:35Z</time>
      </trkpt>
      <trkpt lat="42.7214" lon="-0.46256">
        <ele>2108</ele>
        <time>2010-01-01T07:40:42Z</time>
      </trkpt>
      <trkpt lat="42.72148" lon="-0.46263">
        <ele>2107</ele>
        <time>2010-01-01T07:40:45Z</time>
      </trkpt>
      <trkpt lat="42.72154" lon="-0.46278">
        <ele>2108</ele>
        <time>2010-01-01T07:40:50Z</time>
      </trkpt>
      <trkpt lat="42.72161" lon="-0.46287">
        <ele>2108</ele>
        <time>2010-01-01T07:40:54Z</time>
      </trkpt>
      <trkpt lat="42.72163" lon="-0.46296">
        <ele>2109</ele>
        <time>2010-01-01T07:40:57Z</time>
      </trkpt>
      <trkpt lat="42.72174" lon="-0.46329">
        <ele>2112</ele>
        <time>2010-01-01T07:41:08Z</time>
      </trkpt>
      <trkpt lat="42.72177" lon="-0.46353">
        <ele>2114</ele>
        <time>2010-01-01T07:41:15Z</time>
      </trkpt>
      <trkpt lat="42.72183" lon="-0.46362">
        <ele>2114</ele>
        <time>2010-01-01T07:41:18Z</time>
      </trkpt>
      <trkpt lat="42.72194" lon="-0.46363">
        <ele>2113</ele>
        <time>2010-01-01T07:41:23Z</time>
      </trkpt>
      <trkpt lat="42.72199" lon="-0.46362">
        <ele>2112</ele>
        <time>2010-01-01T07:41:25Z</time>
      </trkpt>
      <trkpt lat="42.72209" lon="-0.46354">
        <ele>2109</ele>
        <time>2010-01-01T07:41:29Z</time>
      </trkpt>
      <trkpt lat="42.72237" lon="-0.46322">
        <ele>2101</ele>
        <time>2010-01-01T07:41:44Z</time>
      </trkpt>
      <trkpt lat="42.72255" lon="-0.46306">
        <ele>2095</ele>
        <time>2010-01-01T07:41:53Z</time>
      </trkpt>
      <trkpt lat="42.72267" lon="-0.4629">
        <ele>2096</ele>
        <time>2010-01-01T07:41:59Z</time>
      </trkpt>
      <trkpt lat="42.72313" lon="-0.46246">
        <ele>2103</ele>
        <time>2010-01-01T07:42:22Z</time>
      </trkpt>
      <trkpt lat="42.72336" lon="-0.46221">
        <ele>2112</ele>
        <time>2010-01-01T07:42:34Z</time>
      </trkpt>
      <trkpt lat="42.72346" lon="-0.46226">
        <ele>2116</ele>
        <time>2010-01-01T07:42:38Z</time>
      </trkpt>
      <trkpt lat="42.72352" lon="-0.46239">
        <ele>2117</ele>
        <time>2010-01-01T07:42:42Z</time>
      </trkpt>
      <trkpt lat="42.72391" lon="-0.46301">
        <ele>2114</ele>
        <time>2010-01-01T07:43:06Z</time>
      </trkpt>
      <trkpt lat="42.72393" lon="-0.46309">
        <ele>2112</ele>
        <time>2010-01-01T07:43:09Z</time>
      </trkpt>
      <trkpt lat="42.72384" lon="-0.46315">
        <ele>2108</ele>
        <time>2010-01-01T07:43:13Z</time>
      </trkpt>
      <trkpt lat="42.7238" lon="-0.46321">
        <ele>2105</ele>
        <time>2010-01-01T07:43:15Z</time>
      </trkpt>
      <trkpt lat="42.72368" lon="-0.46327">
        <ele>2100</ele>
        <time>2010-01-01T07:43:20Z</time>
      </trkpt>
      <trkpt lat="42.72366" lon="-0.4634">
        <ele>2098</ele>
        <time>2010-01-01T07:43:24Z</time>
      </trkpt>
      <trkpt lat="42.72373" lon="-0.46365">
        <ele>2098</ele>
        <time>2010-01-01T07:43:32Z</time>
      </trkpt>
      <trkpt lat="42.72374" lon="-0.46395">
        <ele>2095</ele>
        <time>2010-01-01T07:43:41Z</time>
      </trkpt>
      <trkpt lat="42.7238" lon="-0.46439">
        <ele>2092</ele>
        <time>2010-01-01T07:43:54Z</time>
      </trkpt>
      <trkpt lat="42.72394" lon="-0.46499">
        <ele>2092</ele>
        <time>2010-01-01T07:44:13Z</time>
      </trkpt>
      <trkpt lat="42.72422" lon="-0.46548">
        <ele>2090</ele>
        <time>2010-01-01T07:44:31Z</time>
      </trkpt>
      <trkpt lat="42.72452" lon="-0.46577">
        <ele>2091</ele>
        <time>2010-01-01T07:44:46Z</time>
      </trkpt>
      <trkpt lat="42.72478" lon="-0.46571">
        <ele>2094</ele>
        <time>2010-01-01T07:44:56Z</time>
      </trkpt>
      <trkpt lat="42.72527" lon="-0.46566">
        <ele>2094</ele>
        <time>2010-01-01T07:45:15Z</time>
      </trkpt>
      <trkpt lat="42.72569" lon="-0.4655">
        <ele>2091</ele>
        <time>2010-01-01T07:45:33Z</time>
      </trkpt>
      <trkpt lat="42.72595" lon="-0.46543">
        <ele>2089</ele>
        <time>2010-01-01T07:45:44Z</time>
      </trkpt>
      <trkpt lat="42.72628" lon="-0.46537">
        <ele>2088</ele>
        <time>2010-01-01T07:45:57Z</time>
      </trkpt>
      <trkpt lat="42.72666" lon="-0.46537">
        <ele>2089</ele>
        <time>2010-01-01T07:46:12Z</time>
      </trkpt>
      <trkpt lat="42.72673" lon="-0.4653">
        <ele>2092</ele>
        <time>2010-01-01T07:46:16Z</time>
      </trkpt>
      <trkpt lat="42.72682" lon="-0.46525">
        <ele>2096</ele>
        <time>2010-01-01T07:46:20Z</time>
      </trkpt>
      <trkpt lat="42.72687" lon="-0.46517">
        <ele>2097</ele>
        <time>2010-01-01T07:46:23Z</time>
      </trkpt>
      <trkpt lat="42.72699" lon="-0.46519">
        <ele>2102</ele>
        <time>2010-01-01T07:46:28Z</time>
      </trkpt>
      <trkpt lat="42.72708" lon="-0.46514">
        <ele>2104</ele>
        <time>2010-01-01T07:46:32Z</time>
      </trkpt>
      <trkpt lat="42.72721" lon="-0.46503">
        <ele>2108</ele>
        <time>2010-01-01T07:46:38Z</time>
      </trkpt>
      <trkpt lat="42.72729" lon="-0.46504">
        <ele>2109</ele>
        <time>2010-01-01T07:46:41Z</time>
      </trkpt>
      <trkpt lat="42.7274" lon="-0.465">
        <ele>2111</ele>
        <time>2010-01-01T07:46:46Z</time>
      </trkpt>
      <trkpt lat="42.72751" lon="-0.4649">
        <ele>2113</ele>
        <time>2010-01-01T07:46:51Z</time>
      </trkpt>
      <trkpt lat="42.72758" lon="-0.46487">
        <ele>2115</ele>
        <time>2010-01-01T07:46:54Z</time>
      </trkpt>
      <trkpt lat="42.72767" lon="-0.46475">
        <ele>2118</ele>
        <time>2010-01-01T07:46:59Z</time>
      </trkpt>
      <trkpt lat="42.72774" lon="-0.46463">
        <ele>2121</ele>
        <time>2010-01-01T07:47:03Z</time>
      </trkpt>
      <trkpt lat="42.7279" lon="-0.46454">
        <ele>2126</ele>
        <time>2010-01-01T07:47:10Z</time>
      </trkpt>
      <trkpt lat="42.72801" lon="-0.46452">
        <ele>2129</ele>
        <time>2010-01-01T07:47:15Z</time>
      </trkpt>
      <trkpt lat="42.72813" lon="-0.4644">
        <ele>2133</ele>
        <time>2010-01-01T07:47:21Z</time>
      </trkpt>
      <trkpt lat="42.72823" lon="-0.46428">
        <ele>2138</ele>
        <time>2010-01-01T07:47:26Z</time>
      </trkpt>
      <trkpt lat="42.7283" lon="-0.46415">
        <ele>2141</ele>
        <time>2010-01-01T07:47:31Z</time>
      </trkpt>
      <trkpt lat="42.72835" lon="-0.46411">
        <ele>2143</ele>
        <time>2010-01-01T07:47:33Z</time>
      </trkpt>
      <trkpt lat="42.72835" lon="-0.46402">
        <ele>2143</ele>
        <time>2010-01-01T07:47:36Z</time>
      </trkpt>
      <trkpt lat="42.72838" lon="-0.46393">
        <ele>2143</ele>
        <time>2010-01-01T07:47:38Z</time>
      </trkpt>
      <trkpt lat="42.72849" lon="-0.46395">
        <ele>2148</ele>
        <time>2010-01-01T07:47:43Z</time>
      </trkpt>
      <trkpt lat="42.72863" lon="-0.46394">
        <ele>2153</ele>
        <time>2010-01-01T07:47:48Z</time>
      </trkpt>
      <trkpt lat="42.72872" lon="-0.46388">
        <ele>2157</ele>
        <time>2010-01-01T07:47:52Z</time>
      </trkpt>
      <trkpt lat="42.72893" lon="-0.46382">
        <ele>2166</ele>
        <time>2010-01-01T07:48:01Z</time>
      </trkpt>
      <trkpt lat="42.72921" lon="-0.46358">
        <ele>2174</ele>
        <time>2010-01-01T07:48:14Z</time>
      </trkpt>
      <trkpt lat="42.72938" lon="-0.46349">
        <ele>2178</ele>
        <time>2010-01-01T07:48:21Z</time>
      </trkpt>
      <trkpt lat="42.72954" lon="-0.46326">
        <ele>2179</ele>
        <time>2010-01-01T07:48:31Z</time>
      </trkpt>
      <trkpt lat="42.72969" lon="-0.46317">
        <ele>2181</ele>
        <time>2010-01-01T07:48:38Z</time>
      </trkpt>
      <trkpt lat="42.72981" lon="-0.46308">
        <ele>2182</ele>
        <time>2010-01-01T07:48:43Z</time>
      </trkpt>
      <trkpt lat="42.73026" lon="-0.46265">
        <ele>2188</ele>
        <time>2010-01-01T07:49:05Z</time>
      </trkpt>
      <trkpt lat="42.73044" lon="-0.46261">
        <ele>2189</ele>
        <time>2010-01-01T07:49:12Z</time>
      </trkpt>
      <trkpt lat="42.73053" lon="-0.46269">
        <ele>2190</ele>
        <time>2010-01-01T07:49:16Z</time>
      </trkpt>
      <trkpt lat="42.7307" lon="-0.46288">
        <ele>2190</ele>
        <time>2010-01-01T07:49:25Z</time>
      </trkpt>
      <trkpt lat="42.73085" lon="-0.46277">
        <ele>2190</ele>
        <time>2010-01-01T07:49:32Z</time>
      </trkpt>
      <trkpt lat="42.73099" lon="-0.46284">
        <ele>2193</ele>
        <time>2010-01-01T07:49:38Z</time>
      </trkpt>
      <trkpt lat="42.73125" lon="-0.46289">
        <ele>2200</ele>
        <time>2010-01-01T07:49:49Z</time>
      </trkpt>
      <trkpt lat="42.73122" lon="-0.46309">
        <ele>2199</ele>
        <time>2010-01-01T07:49:54Z</time>
      </trkpt>
      <trkpt lat="42.73117" lon="-0.46324">
        <ele>2199</ele>
        <time>2010-01-01T07:49:59Z</time>
      </trkpt>
      <trkpt lat="42.73119" lon="-0.46367">
        <ele>2205</ele>
        <time>2010-01-01T07:50:12Z</time>
      </trkpt>
      <trkpt lat="42.73118" lon="-0.46381">
        <ele>2206</ele>
        <time>2010-01-01T07:50:16Z</time>
      </trkpt>
      <trkpt lat="42.73125" lon="-0.46379">
        <ele>2210</ele>
        <time>2010-01-01T07:50:19Z</time>
      </trkpt>
      <trkpt lat="42.73133" lon="-0.46379">
        <ele>2215</ele>
        <time>2010-01-01T07:50:22Z</time>
      </trkpt>
      <trkpt lat="42.7314" lon="-0.46388">
        <ele>2222</ele>
        <time>2010-01-01T07:50:26Z</time>
      </trkpt>
      <trkpt lat="42.73148" lon="-0.46391">
        <ele>2227</ele>
        <time>2010-01-01T07:50:29Z</time>
      </trkpt>
      <trkpt lat="42.73155" lon="-0.46397">
        <ele>2232</ele>
        <time>2010-01-01T07:50:33Z</time>
      </trkpt>
      <trkpt lat="42.73158" lon="-0.46416">
        <ele>2234</ele>
        <time>2010-01-01T07:50:38Z</time>
      </trkpt>
      <trkpt lat="42.73167" lon="-0.46454">
        <ele>2245</ele>
        <time>2010-01-01T07:50:50Z</time>
      </trkpt>
      <trkpt lat="42.73172" lon="-0.46454">
        <ele>2248</ele>
        <time>2010-01-01T07:50:52Z</time>
      </trkpt>
      <trkpt lat="42.73178" lon="-0.4646">
        <ele>2253</ele>
        <time>2010-01-01T07:50:55Z</time>
      </trkpt>
      <trkpt lat="42.73182" lon="-0.46473">
        <ele>2259</ele>
        <time>2010-01-01T07:50:59Z</time>
      </trkpt>
      <trkpt lat="42.73186" lon="-0.46473">
        <ele>2262</ele>
        <time>2010-01-01T07:51:01Z</time>
      </trkpt>
      <trkpt lat="42.73189" lon="-0.46481">
        <ele>2265</ele>
        <time>2010-01-01T07:51:04Z</time>
      </trkpt>
      <trkpt lat="42.73206" lon="-0.46468">
        <ele>2271</ele>
        <time>2010-01-01T07:51:12Z</time>
      </trkpt>
      <trkpt lat="42.73214" lon="-0.46458">
        <ele>2273</ele>
        <time>2010-01-01T07:51:16Z</time>
      </trkpt>
      <trkpt lat="42.73219" lon="-0.46455">
        <ele>2276</ele>
        <time>2010-01-01T07:51:18Z</time>
      </trkpt>
      <trkpt lat="42.73225" lon="-0.46457">
        <ele>2280</ele>
        <time>2010-01-01T07:51:20Z</time>
      </trkpt>
      <trkpt lat="42.73231" lon="-0.46451">
        <ele>2284</ele>
        <time>2010-01-01T07:51:23Z</time>
      </trkpt>
      <trkpt lat="42.73241" lon="-0.46436">
        <ele>2291</ele>
        <time>2010-01-01T07:51:29Z</time>
      </trkpt>
      <trkpt lat="42.73247" lon="-0.46433">
        <ele>2297</ele>
        <time>2010-01-01T07:51:32Z</time>
      </trkpt>
      <trkpt lat="42.73256" lon="-0.46418">
        <ele>2303</ele>
        <time>2010-01-01T07:51:38Z</time>
      </trkpt>
      <trkpt lat="42.73261" lon="-0.46413">
        <ele>2305</ele>
        <time>2010-01-01T07:51:40Z</time>
      </trkpt>
      <trkpt lat="42.73267" lon="-0.46407">
        <ele>2307</ele>
        <time>2010-01-01T07:51:43Z</time>
      </trkpt>
      <trkpt lat="42.73282" lon="-0.464">
        <ele>2313</ele>
        <time>2010-01-01T07:51:50Z</time>
      </trkpt>
      <trkpt lat="42.73289" lon="-0.46395">
        <ele>2314</ele>
        <time>2010-01-01T07:51:53Z</time>
      </trkpt>
      <trkpt lat="42.73294" lon="-0.46393">
        <ele>2316</ele>
        <time>2010-01-01T07:51:55Z</time>
      </trkpt>
      <trkpt lat="42.73309" lon="-0.46374">
        <ele>2316</ele>
        <time>2010-01-01T07:52:03Z</time>
      </trkpt>
      <trkpt lat="42.73318" lon="-0.46368">
        <ele>2321</ele>
        <time>2010-01-01T07:52:07Z</time>
      </trkpt>
      <trkpt lat="42.73318" lon="-0.46383">
        <ele>2325</ele>
        <time>2010-01-01T07:52:12Z</time>
      </trkpt>
      <trkpt lat="42.73316" lon="-0.46397">
        <ele>2326</ele>
        <time>2010-01-01T07:52:16Z</time>
      </trkpt>
      <trkpt lat="42.7331" lon="-0.46417">
        <ele>2327</ele>
        <time>2010-01-01T07:52:22Z</time>
      </trkpt>
      <trkpt lat="42.73308" lon="-0.46427">
        <ele>2327</ele>
        <time>2010-01-01T07:52:25Z</time>
      </trkpt>
      <trkpt lat="42.73308" lon="-0.46448">
        <ele>2330</ele>
        <time>2010-01-01T07:52:32Z</time>
      </trkpt>
      <trkpt lat="42.73312" lon="-0.46459">
        <ele>2334</ele>
        <time>2010-01-01T07:52:35Z</time>
      </trkpt>
      <trkpt lat="42.73319" lon="-0.46454">
        <ele>2338</ele>
        <time>2010-01-01T07:52:38Z</time>
      </trkpt>
      <trkpt lat="42.73327" lon="-0.46458">
        <ele>2344</ele>
        <time>2010-01-01T07:52:42Z</time>
      </trkpt>
      <trkpt lat="42.73336" lon="-0.46457">
        <ele>2349</ele>
        <time>2010-01-01T07:52:45Z</time>
      </trkpt>
      <trkpt lat="42.7335" lon="-0.46459">
        <ele>2357</ele>
        <time>2010-01-01T07:52:51Z</time>
      </trkpt>
      <trkpt lat="42.73357" lon="-0.4645">
        <ele>2359</ele>
        <time>2010-01-01T07:52:55Z</time>
      </trkpt>
      <trkpt lat="42.73361" lon="-0.46448">
        <ele>2361</ele>
        <time>2010-01-01T07:52:57Z</time>
      </trkpt>
      <trkpt lat="42.73376" lon="-0.46429">
        <ele>2363</ele>
        <time>2010-01-01T07:53:05Z</time>
      </trkpt>
      <trkpt lat="42.73395" lon="-0.46363">
        <ele>2367</ele>
        <time>2010-01-01T07:53:26Z</time>
      </trkpt>
      <trkpt lat="42.73404" lon="-0.46349">
        <ele>2370</ele>
        <time>2010-01-01T07:53:31Z</time>
      </trkpt>
      <trkpt lat="42.7341" lon="-0.4635">
        <ele>2374</ele>
        <time>2010-01-01T07:53:33Z</time>
      </trkpt>
      <trkpt lat="42.73422" lon="-0.46345">
        <ele>2378</ele>
        <time>2010-01-01T07:53:38Z</time>
      </trkpt>
      <trkpt lat="42.73437" lon="-0.46334">
        <ele>2384</ele>
        <time>2010-01-01T07:53:45Z</time>
      </trkpt>
      <trkpt lat="42.73443" lon="-0.46336">
        <ele>2388</ele>
        <time>2010-01-01T07:53:48Z</time>
      </trkpt>
      <trkpt lat="42.73455" lon="-0.46347">
        <ele>2392</ele>
        <time>2010-01-01T07:53:53Z</time>
      </trkpt>
      <trkpt lat="42.73461" lon="-0.46352">
        <ele>2394</ele>
        <time>2010-01-01T07:53:56Z</time>
      </trkpt>
      <trkpt lat="42.73475" lon="-0.46351">
        <ele>2400</ele>
        <time>2010-01-01T07:54:02Z</time>
      </trkpt>
      <trkpt lat="42.73492" lon="-0.46321">
        <ele>2412</ele>
        <time>2010-01-01T07:54:13Z</time>
      </trkpt>
      <trkpt lat="42.735" lon="-0.46315">
        <ele>2416</ele>
        <time>2010-01-01T07:54:16Z</time>
      </trkpt>
      <trkpt lat="42.73503" lon="-0.46304">
        <ele>2415</ele>
        <time>2010-01-01T07:54:20Z</time>
      </trkpt>
      <trkpt lat="42.73513" lon="-0.46305">
        <ele>2418</ele>
        <time>2010-01-01T07:54:24Z</time>
      </trkpt>
      <trkpt lat="42.7352" lon="-0.463">
        <ele>2419</ele>
        <time>2010-01-01T07:54:27Z</time>
      </trkpt>
      <trkpt lat="42.73525" lon="-0.4629">
        <ele>2419</ele>
        <time>2010-01-01T07:54:30Z</time>
      </trkpt>
      <trkpt lat="42.73545" lon="-0.46272">
        <ele>2425</ele>
        <time>2010-01-01T07:54:40Z</time>
      </trkpt>
      <trkpt lat="42.73551" lon="-0.46264">
        <ele>2430</ele>
        <time>2010-01-01T07:54:44Z</time>
      </trkpt>
      <trkpt lat="42.73556" lon="-0.46272">
        <ele>2430</ele>
        <time>2010-01-01T07:54:47Z</time>
      </trkpt>
      <trkpt lat="42.73562" lon="-0.46279">
        <ele>2432</ele>
        <time>2010-01-01T07:54:50Z</time>
      </trkpt>
      <trkpt lat="42.73567" lon="-0.46268">
        <ele>2438</ele>
        <time>2010-01-01T07:54:54Z</time>
      </trkpt>
      <trkpt lat="42.73572" lon="-0.46266">
        <ele>2442</ele>
        <time>2010-01-01T07:54:56Z</time>
      </trkpt>
      <trkpt lat="42.73579" lon="-0.46267">
        <ele>2447</ele>
        <time>2010-01-01T07:54:59Z</time>
      </trkpt>
      <trkpt lat="42.73581" lon="-0.46274">
        <ele>2446</ele>
        <time>2010-01-01T07:55:01Z</time>
      </trkpt>
      <trkpt lat="42.73586" lon="-0.46271">
        <ele>2450</ele>
        <time>2010-01-01T07:55:03Z</time>
      </trkpt>
      <trkpt lat="42.73595" lon="-0.46257">
        <ele>2458</ele>
        <time>2010-01-01T07:55:08Z</time>
      </trkpt>
      <trkpt lat="42.73601" lon="-0.46258">
        <ele>2461</ele>
        <time>2010-01-01T07:55:11Z</time>
      </trkpt>
      <trkpt lat="42.73606" lon="-0.4625">
        <ele>2465</ele>
        <time>2010-01-01T07:55:14Z</time>
      </trkpt>
      <trkpt lat="42.73615" lon="-0.46257">
        <ele>2468</ele>
        <time>2010-01-01T07:55:18Z</time>
      </trkpt>
      <trkpt lat="42.73624" lon="-0.46266">
        <ele>2470</ele>
        <time>2010-01-01T07:55:22Z</time>
      </trkpt>
      <trkpt lat="42.73627" lon="-0.46262">
        <ele>2473</ele>
        <time>2010-01-01T07:55:24Z</time>
      </trkpt>
      <trkpt lat="42.7363" lon="-0.46268">
        <ele>2473</ele>
        <time>2010-01-01T07:55:26Z</time>
      </trkpt>
      <trkpt lat="42.73638" lon="-0.46271">
        <ele>2477</ele>
        <time>2010-01-01T07:55:30Z</time>
      </trkpt>
      <trkpt lat="42.7365" lon="-0.4626">
        <ele>2487</ele>
        <time>2010-01-01T07:55:36Z</time>
      </trkpt>
      <trkpt lat="42.7366" lon="-0.46262">
        <ele>2494</ele>
        <time>2010-01-01T07:55:40Z</time>
      </trkpt>
      <trkpt lat="42.73664" lon="-0.46258">
        <ele>2497</ele>
        <time>2010-01-01T07:55:42Z</time>
      </trkpt>
      <trkpt lat="42.73672" lon="-0.46258">
        <ele>2503</ele>
        <time>2010-01-01T07:55:45Z</time>
      </trkpt>
      <trkpt lat="42.73678" lon="-0.46268">
        <ele>2506</ele>
        <time>2010-01-01T07:55:49Z</time>
      </trkpt>
      <trkpt lat="42.73692" lon="-0.46271">
        <ele>2517</ele>
        <time>2010-01-01T07:55:55Z</time>
      </trkpt>
      <trkpt lat="42.73697" lon="-0.4626">
        <ele>2521</ele>
        <time>2010-01-01T07:55:58Z</time>
      </trkpt>
      <trkpt lat="42.73705" lon="-0.46263">
        <ele>2528</ele>
        <time>2010-01-01T07:56:01Z</time>
      </trkpt>
      <trkpt lat="42.73719" lon="-0.4626">
        <ele>2542</ele>
        <time>2010-01-01T07:56:07Z</time>
      </trkpt>
      <trkpt lat="42.73722" lon="-0.46256">
        <ele>2546</ele>
        <time>2010-01-01T07:56:09Z</time>
      </trkpt>
      <trkpt lat="42.73729" lon="-0.46257">
        <ele>2552</ele>
        <time>2010-01-01T07:56:12Z</time>
      </trkpt>
      <trkpt lat="42.73736" lon="-0.46271">
        <ele>2558</ele>
        <time>2010-01-01T07:56:17Z</time>
      </trkpt>
      <trkpt lat="42.73743" lon="-0.46272">
        <ele>2565</ele>
        <time>2010-01-01T07:56:20Z</time>
      </trkpt>
      <trkpt lat="42.73752" lon="-0.46275">
        <ele>2574</ele>
        <time>2010-01-01T07:56:23Z</time>
      </trkpt>
      <trkpt lat="42.73769" lon="-0.46289">
        <ele>2586</ele>
        <time>2010-01-01T07:56:31Z</time>
      </trkpt>
      <trkpt lat="42.73773" lon="-0.46286">
        <ele>2587</ele>
        <time>2010-01-01T07:56:33Z</time>
      </trkpt>
      <trkpt lat="42.73779" lon="-0.46284">
        <ele>2589</ele>
        <time>2010-01-01T07:56:36Z</time>
      </trkpt>
      <trkpt lat="42.73785" lon="-0.46285">
        <ele>2591</ele>
        <time>2010-01-01T07:56:38Z</time>
      </trkpt>
      <trkpt lat="42.73789" lon="-0.46295">
        <ele>2596</ele>
        <time>2010-01-01T07:56:42Z</time>
      </trkpt>
      <trkpt lat="42.73793" lon="-0.46299">
        <ele>2598</ele>
        <time>2010-01-01T07:56:44Z</time>
      </trkpt>
      <trkpt lat="42.73797" lon="-0.46295">
        <ele>2597</ele>
        <time>2010-01-01T07:56:46Z</time>
      </trkpt>
      <trkpt lat="42.73801" lon="-0.46297">
        <ele>2599</ele>
        <time>2010-01-01T07:56:48Z</time>
      </trkpt>
      <trkpt lat="42.73807" lon="-0.46307">
        <ele>2603</ele>
        <time>2010-01-01T07:56:51Z</time>
      </trkpt>
      <trkpt lat="42.73804" lon="-0.46313">
        <ele>2605</ele>
        <time>2010-01-01T07:56:53Z</time>
      </trkpt>
      <trkpt lat="42.73808" lon="-0.46317">
        <ele>2607</ele>
        <time>2010-01-01T07:56:55Z</time>
      </trkpt>
      <trkpt lat="42.73809" lon="-0.46327">
        <ele>2610</ele>
        <time>2010-01-01T07:56:58Z</time>
      </trkpt>
      <trkpt lat="42.73821" lon="-0.46327">
        <ele>2612</ele>
        <time>2010-01-01T07:57:03Z</time>
      </trkpt>
      <trkpt lat="42.73825" lon="-0.46335">
        <ele>2614</ele>
        <time>2010-01-01T07:57:06Z</time>
      </trkpt>
      <trkpt lat="42.7383" lon="-0.46341">
        <ele>2614</ele>
        <time>2010-01-01T07:57:08Z</time>
      </trkpt>
      <trkpt lat="42.73818" lon="-0.46365">
        <ele>2617</ele>
        <time>2010-01-01T07:57:17Z</time>
      </trkpt>
      <trkpt lat="42.73813" lon="-0.4637">
        <ele>2619</ele>
        <time>2010-01-01T07:57:19Z</time>
      </trkpt>
      <trkpt lat="42.7379" lon="-0.46433">
        <ele>2642</ele>
        <time>2010-01-01T07:57:40Z</time>
      </trkpt>
      <trkpt lat="42.73789" lon="-0.46442">
        <ele>2643</ele>
        <time>2010-01-01T07:57:43Z</time>
      </trkpt>
      <trkpt lat="42.73778" lon="-0.46475">
        <ele>2647</ele>
        <time>2010-01-01T07:57:53Z</time>
      </trkpt>
      <trkpt lat="42.73769" lon="-0.46488">
        <ele>2647</ele>
        <time>2010-01-01T07:57:59Z</time>
      </trkpt>
      <trkpt lat="42.73762" lon="-0.46504">
        <ele>2648</ele>
        <time>2010-01-01T07:58:04Z</time>
      </trkpt>
      <trkpt lat="42.73737" lon="-0.46537">
        <ele>2648</ele>
        <time>2010-01-01T07:58:18Z</time>
      </trkpt>
      <trkpt lat="42.73727" lon="-0.46559">
        <ele>2647</ele>
        <time>2010-01-01T07:58:25Z</time>
      </trkpt>
      <trkpt lat="42.73712" lon="-0.46586">
        <ele>2650</ele>
        <time>2010-01-01T07:58:36Z</time>
      </trkpt>
      <trkpt lat="42.73678" lon="-0.46622">
        <ele>2658</ele>
        <time>2010-01-01T07:58:53Z</time>
      </trkpt>
      <trkpt lat="42.73676" lon="-0.4663">
        <ele>2657</ele>
        <time>2010-01-01T07:58:55Z</time>
      </trkpt>
      <trkpt lat="42.73676" lon="-0.46638">
        <ele>2657</ele>
        <time>2010-01-01T07:58:58Z</time>
      </trkpt>
      <trkpt lat="42.73673" lon="-0.46644">
        <ele>2656</ele>
        <time>2010-01-01T07:59:00Z</time>
      </trkpt>
      <trkpt lat="42.73668" lon="-0.46683">
        <ele>2653</ele>
        <time>2010-01-01T07:59:11Z</time>
      </trkpt>
      <trkpt lat="42.73658" lon="-0.46704">
        <ele>2655</ele>
        <time>2010-01-01T07:59:18Z</time>
      </trkpt>
      <trkpt lat="42.73642" lon="-0.46763">
        <ele>2664</ele>
        <time>2010-01-01T07:59:37Z</time>
      </trkpt>
      <trkpt lat="42.73616" lon="-0.4683">
        <ele>2654</ele>
        <time>2010-01-01T07:59:59Z</time>
      </trkpt>
      <trkpt lat="42.73614" lon="-0.46839">
        <ele>2654</ele>
        <time>2010-01-01T08:00:02Z</time>
      </trkpt>
      <trkpt lat="42.73601" lon="-0.46868">
        <ele>2657</ele>
        <time>2010-01-01T08:00:12Z</time>
      </trkpt>
      <trkpt lat="42.73593" lon="-0.46903">
        <ele>2665</ele>
        <time>2010-01-01T08:00:23Z</time>
      </trkpt>
      <trkpt lat="42.73592" lon="-0.46915">
        <ele>2668</ele>
        <time>2010-01-01T08:00:26Z</time>
      </trkpt>
      <trkpt lat="42.73587" lon="-0.46932">
        <ele>2670</ele>
        <time>2010-01-01T08:00:32Z</time>
      </trkpt>
      <trkpt lat="42.73589" lon="-0.46939">
        <ele>2668</ele>
        <time>2010-01-01T08:00:34Z</time>
      </trkpt>
      <trkpt lat="42.73585" lon="-0.46968">
        <ele>2659</ele>
        <time>2010-01-01T08:00:43Z</time>
      </trkpt>
      <trkpt lat="42.73587" lon="-0.46989">
        <ele>2652</ele>
        <time>2010-01-01T08:00:49Z</time>
      </trkpt>
      <trkpt lat="42.73591" lon="-0.47026">
        <ele>2644</ele>
        <time>2010-01-01T08:01:00Z</time>
      </trkpt>
      <trkpt lat="42.73596" lon="-0.47052">
        <ele>2641</ele>
        <time>2010-01-01T08:01:08Z</time>
      </trkpt>
      <trkpt lat="42.736" lon="-0.47088">
        <ele>2645</ele>
        <time>2010-01-01T08:01:19Z</time>
      </trkpt>
      <trkpt lat="42.73604" lon="-0.47093">
        <ele>2645</ele>
        <time>2010-01-01T08:01:21Z</time>
      </trkpt>
      <trkpt lat="42.73606" lon="-0.47101">
        <ele>2646</ele>
        <time>2010-01-01T08:01:23Z</time>
      </trkpt>
      <trkpt lat="42.73609" lon="-0.47134">
        <ele>2641</ele>
        <time>2010-01-01T08:01:33Z</time>
      </trkpt>
      <trkpt lat="42.73618" lon="-0.47164">
        <ele>2638</ele>
        <time>2010-01-01T08:01:42Z</time>
      </trkpt>
      <trkpt lat="42.73632" lon="-0.47189">
        <ele>2632</ele>
        <time>2010-01-01T08:01:51Z</time>
      </trkpt>
      <trkpt lat="42.73634" lon="-0.47209">
        <ele>2625</ele>
        <time>2010-01-01T08:01:57Z</time>
      </trkpt>
      <trkpt lat="42.73641" lon="-0.47236">
        <ele>2619</ele>
        <time>2010-01-01T08:02:06Z</time>
      </trkpt>
      <trkpt lat="42.73636" lon="-0.47255">
        <ele>2614</ele>
        <time>2010-01-01T08:02:12Z</time>
      </trkpt>
      <trkpt lat="42.73642" lon="-0.47303">
        <ele>2608</ele>
        <time>2010-01-01T08:02:26Z</time>
      </trkpt>
      <trkpt lat="42.73655" lon="-0.47348">
        <ele>2604</ele>
        <time>2010-01-01T08:02:40Z</time>
      </trkpt>
      <trkpt lat="42.73671" lon="-0.47438">
        <ele>2593</ele>
        <time>2010-01-01T08:03:07Z</time>
      </trkpt>
      <trkpt lat="42.7368" lon="-0.47468">
        <ele>2591</ele>
        <time>2010-01-01T08:03:17Z</time>
      </trkpt>
      <trkpt lat="42.73688" lon="-0.47491">
        <ele>2591</ele>
        <time>2010-01-01T08:03:24Z</time>
      </trkpt>
      <trkpt lat="42.73698" lon="-0.47582">
        <ele>2585</ele>
        <time>2010-01-01T08:03:51Z</time>
      </trkpt>
      <trkpt lat="42.73698" lon="-0.47616">
        <ele>2585</ele>
        <time>2010-01-01T08:04:02Z</time>
      </trkpt>
      <trkpt lat="42.73701" lon="-0.47646">
        <ele>2589</ele>
        <time>2010-01-01T08:04:10Z</time>
      </trkpt>
      <trkpt lat="42.73704" lon="-0.47661">
        <ele>2593</ele>
        <time>2010-01-01T08:04:15Z</time>
      </trkpt>
      <trkpt lat="42.73697" lon="-0.47692">
        <ele>2592</ele>
        <time>2010-01-01T08:04:24Z</time>
      </trkpt>
      <trkpt lat="42.73701" lon="-0.47707">
        <ele>2594</ele>
        <time>2010-01-01T08:04:29Z</time>
      </trkpt>
      <trkpt lat="42.73699" lon="-0.4775">
        <ele>2594</ele>
        <time>2010-01-01T08:04:42Z</time>
      </trkpt>
      <trkpt lat="42.73696" lon="-0.47774">
        <ele>2595</ele>
        <time>2010-01-01T08:04:49Z</time>
      </trkpt>
      <trkpt lat="42.73696" lon="-0.47804">
        <ele>2598</ele>
        <time>2010-01-01T08:04:58Z</time>
      </trkpt>
      <trkpt lat="42.73701" lon="-0.47858">
        <ele>2602</ele>
        <time>2010-01-01T08:05:14Z</time>
      </trkpt>
      <trkpt lat="42.73704" lon="-0.47942">
        <ele>2588</ele>
        <time>2010-01-01T08:05:38Z</time>
      </trkpt>
      <trkpt lat="42.73711" lon="-0.47955">
        <ele>2586</ele>
        <time>2010-01-01T08:05:43Z</time>
      </trkpt>
      <trkpt lat="42.73714" lon="-0.47981">
        <ele>2582</ele>
        <time>2010-01-01T08:05:51Z</time>
      </trkpt>
      <trkpt lat="42.73723" lon="-0.4802">
        <ele>2575</ele>
        <time>2010-01-01T08:06:03Z</time>
      </trkpt>
      <trkpt lat="42.73738" lon="-0.48072">
        <ele>2569</ele>
        <time>2010-01-01T08:06:19Z</time>
      </trkpt>
      <trkpt lat="42.73751" lon="-0.481">
        <ele>2563</ele>
        <time>2010-01-01T08:06:29Z</time>
      </trkpt>
      <trkpt lat="42.73765" lon="-0.48128">
        <ele>2553</ele>
        <time>2010-01-01T08:06:39Z</time>
      </trkpt>
      <trkpt lat="42.73778" lon="-0.48143">
        <ele>2546</ele>
        <time>2010-01-01T08:06:46Z</time>
      </trkpt>
      <trkpt lat="42.7378" lon="-0.48161">
        <ele>2539</ele>
        <time>2010-01-01T08:06:51Z</time>
      </trkpt>
      <trkpt lat="42.73786" lon="-0.48176">
        <ele>2534</ele>
        <time>2010-01-01T08:06:56Z</time>
      </trkpt>
      <trkpt lat="42.73789" lon="-0.48192">
        <ele>2529</ele>
        <time>2010-01-01T08:07:01Z</time>
      </trkpt>
      <trkpt lat="42.73794" lon="-0.48199">
        <ele>2528</ele>
        <time>2010-01-01T08:07:04Z</time>
      </trkpt>
      <trkpt lat="42.73797" lon="-0.48208">
        <ele>2525</ele>
        <time>2010-01-01T08:07:07Z</time>
      </trkpt>
      <trkpt lat="42.73803" lon="-0.48216">
        <ele>2524</ele>
        <time>2010-01-01T08:07:10Z</time>
      </trkpt>
      <trkpt lat="42.73814" lon="-0.48258">
        <ele>2514</ele>
        <time>2010-01-01T08:07:23Z</time>
      </trkpt>
      <trkpt lat="42.73819" lon="-0.48259">
        <ele>2514</ele>
        <time>2010-01-01T08:07:25Z</time>
      </trkpt>
      <trkpt lat="42.73821" lon="-0.4828">
        <ele>2511</ele>
        <time>2010-01-01T08:07:31Z</time>
      </trkpt>
      <trkpt lat="42.7383" lon="-0.48292">
        <ele>2512</ele>
        <time>2010-01-01T08:07:37Z</time>
      </trkpt>
      <trkpt lat="42.73836" lon="-0.48309">
        <ele>2512</ele>
        <time>2010-01-01T08:07:42Z</time>
      </trkpt>
      <trkpt lat="42.73857" lon="-0.48352">
        <ele>2508</ele>
        <time>2010-01-01T08:07:57Z</time>
      </trkpt>
      <trkpt lat="42.73872" lon="-0.4837">
        <ele>2507</ele>
        <time>2010-01-01T08:08:05Z</time>
      </trkpt>
      <trkpt lat="42.73886" lon="-0.48402">
        <ele>2506</ele>
        <time>2010-01-01T08:08:16Z</time>
      </trkpt>
      <trkpt lat="42.739" lon="-0.48441">
        <ele>2506</ele>
        <time>2010-01-01T08:08:29Z</time>
      </trkpt>
      <trkpt lat="42.73903" lon="-0.48464">
        <ele>2510</ele>
        <time>2010-01-01T08:08:36Z</time>
      </trkpt>
      <trkpt lat="42.73909" lon="-0.48482">
        <ele>2512</ele>
        <time>2010-01-01T08:08:42Z</time>
      </trkpt>
      <trkpt lat="42.73909" lon="-0.48491">
        <ele>2512</ele>
        <time>2010-01-01T08:08:44Z</time>
      </trkpt>
      <trkpt lat="42.73911" lon="-0.48505">
        <ele>2513</ele>
        <time>2010-01-01T08:08:49Z</time>
      </trkpt>
      <trkpt lat="42.7392" lon="-0.48518">
        <ele>2515</ele>
        <time>2010-01-01T08:08:54Z</time>
      </trkpt>
      <trkpt lat="42.73927" lon="-0.48534">
        <ele>2516</ele>
        <time>2010-01-01T08:08:59Z</time>
      </trkpt>
      <trkpt lat="42.73929" lon="-0.48569">
        <ele>2517</ele>
        <time>2010-01-01T08:09:10Z</time>
      </trkpt>
      <trkpt lat="42.73938" lon="-0.48599">
        <ele>2520</ele>
        <time>2010-01-01T08:09:19Z</time>
      </trkpt>
      <trkpt lat="42.73947" lon="-0.48626">
        <ele>2523</ele>
        <time>2010-01-01T08:09:28Z</time>
      </trkpt>
      <trkpt lat="42.73953" lon="-0.48632">
        <ele>2525</ele>
        <time>2010-01-01T08:09:31Z</time>
      </trkpt>
      <trkpt lat="42.73959" lon="-0.48652">
        <ele>2529</ele>
        <time>2010-01-01T08:09:37Z</time>
      </trkpt>
      <trkpt lat="42.73965" lon="-0.4866">
        <ele>2532</ele>
        <time>2010-01-01T08:09:40Z</time>
      </trkpt>
      <trkpt lat="42.73975" lon="-0.48665">
        <ele>2537</ele>
        <time>2010-01-01T08:09:45Z</time>
      </trkpt>
      <trkpt lat="42.7398" lon="-0.48676">
        <ele>2539</ele>
        <time>2010-01-01T08:09:48Z</time>
      </trkpt>
      <trkpt lat="42.73986" lon="-0.48682">
        <ele>2541</ele>
        <time>2010-01-01T08:09:51Z</time>
      </trkpt>
      <trkpt lat="42.73987" lon="-0.48694">
        <ele>2542</ele>
        <time>2010-01-01T08:09:55Z</time>
      </trkpt>
      <trkpt lat="42.73997" lon="-0.48695">
        <ele>2547</ele>
        <time>2010-01-01T08:09:59Z</time>
      </trkpt>
      <trkpt lat="42.74" lon="-0.48689">
        <ele>2547</ele>
        <time>2010-01-01T08:10:01Z</time>
      </trkpt>
      <trkpt lat="42.74006" lon="-0.48695">
        <ele>2547</ele>
        <time>2010-01-01T08:10:04Z</time>
      </trkpt>
      <trkpt lat="42.7401" lon="-0.48703">
        <ele>2548</ele>
        <time>2010-01-01T08:10:07Z</time>
      </trkpt>
      <trkpt lat="42.74022" lon="-0.48718">
        <ele>2551</ele>
        <time>2010-01-01T08:10:13Z</time>
      </trkpt>
      <trkpt lat="42.7403" lon="-0.48724">
        <ele>2552</ele>
        <time>2010-01-01T08:10:17Z</time>
      </trkpt>
      <trkpt lat="42.74035" lon="-0.48722">
        <ele>2549</ele>
        <time>2010-01-01T08:10:19Z</time>
      </trkpt>
      <trkpt lat="42.74041" lon="-0.48744">
        <ele>2551</ele>
        <time>2010-01-01T08:10:26Z</time>
      </trkpt>
      <trkpt lat="42.74044" lon="-0.4877">
        <ele>2553</ele>
        <time>2010-01-01T08:10:34Z</time>
      </trkpt>
      <trkpt lat="42.74041" lon="-0.48782">
        <ele>2553</ele>
        <time>2010-01-01T08:10:37Z</time>
      </trkpt>
      <trkpt lat="42.74045" lon="-0.48801">
        <ele>2549</ele>
        <time>2010-01-01T08:10:43Z</time>
      </trkpt>
      <trkpt lat="42.74033" lon="-0.48811">
        <ele>2546</ele>
        <time>2010-01-01T08:10:49Z</time>
      </trkpt>
      <trkpt lat="42.74022" lon="-0.48825">
        <ele>2538</ele>
        <time>2010-01-01T08:10:55Z</time>
      </trkpt>
      <trkpt lat="42.74021" lon="-0.48833">
        <ele>2534</ele>
        <time>2010-01-01T08:10:57Z</time>
      </trkpt>
      <trkpt lat="42.74016" lon="-0.48844">
        <ele>2529</ele>
        <time>2010-01-01T08:11:01Z</time>
      </trkpt>
      <trkpt lat="42.74024" lon="-0.48843">
        <ele>2532</ele>
        <time>2010-01-01T08:11:04Z</time>
      </trkpt>
      <trkpt lat="42.74018" lon="-0.48858">
        <ele>2525</ele>
        <time>2010-01-01T08:11:09Z</time>
      </trkpt>
      <trkpt lat="42.74012" lon="-0.48866">
        <ele>2521</ele>
        <time>2010-01-01T08:11:12Z</time>
      </trkpt>
      <trkpt lat="42.74016" lon="-0.48872">
        <ele>2519</ele>
        <time>2010-01-01T08:11:14Z</time>
      </trkpt>
      <trkpt lat="42.74026" lon="-0.48862">
        <ele>2526</ele>
        <time>2010-01-01T08:11:19Z</time>
      </trkpt>
      <trkpt lat="42.74036" lon="-0.48863">
        <ele>2523</ele>
        <time>2010-01-01T08:11:23Z</time>
      </trkpt>
      <trkpt lat="42.74044" lon="-0.48862">
        <ele>2520</ele>
        <time>2010-01-01T08:11:27Z</time>
      </trkpt>
      <trkpt lat="42.74044" lon="-0.4887">
        <ele>2516</ele>
        <time>2010-01-01T08:11:29Z</time>
      </trkpt>
      <trkpt lat="42.74067" lon="-0.48859">
        <ele>2512</ele>
        <time>2010-01-01T08:11:39Z</time>
      </trkpt>
      <trkpt lat="42.74111" lon="-0.48854">
        <ele>2494</ele>
        <time>2010-01-01T08:11:56Z</time>
      </trkpt>
      <trkpt lat="42.74127" lon="-0.48854">
        <ele>2487</ele>
        <time>2010-01-01T08:12:03Z</time>
      </trkpt>
      <trkpt lat="42.74132" lon="-0.48851">
        <ele>2486</ele>
        <time>2010-01-01T08:12:05Z</time>
      </trkpt>
      <trkpt lat="42.74147" lon="-0.48849">
        <ele>2481</ele>
        <time>2010-01-01T08:12:11Z</time>
      </trkpt>
      <trkpt lat="42.74166" lon="-0.48844">
        <ele>2475</ele>
        <time>2010-01-01T08:12:19Z</time>
      </trkpt>
      <trkpt lat="42.74211" lon="-0.48837">
        <ele>2461</ele>
        <time>2010-01-01T08:12:37Z</time>
      </trkpt>
      <trkpt lat="42.74241" lon="-0.48829">
        <ele>2453</ele>
        <time>2010-01-01T08:12:49Z</time>
      </trkpt>
      <trkpt lat="42.74253" lon="-0.48829">
        <ele>2450</ele>
        <time>2010-01-01T08:12:54Z</time>
      </trkpt>
      <trkpt lat="42.74265" lon="-0.48832">
        <ele>2448</ele>
        <time>2010-01-01T08:12:59Z</time>
      </trkpt>
      <trkpt lat="42.74282" lon="-0.48832">
        <ele>2445</ele>
        <time>2010-01-01T08:13:05Z</time>
      </trkpt>
      <trkpt lat="42.74304" lon="-0.48837">
        <ele>2440</ele>
        <time>2010-01-01T08:13:14Z</time>
      </trkpt>
      <trkpt lat="42.74327" lon="-0.48833">
        <ele>2441</ele>
        <time>2010-01-01T08:13:23Z</time>
      </trkpt>
      <trkpt lat="42.74333" lon="-0.48835">
        <ele>2441</ele>
        <time>2010-01-01T08:13:26Z</time>
      </trkpt>
      <trkpt lat="42.74334" lon="-0.48828">
        <ele>2442</ele>
        <time>2010-01-01T08:13:28Z</time>
      </trkpt>
      <trkpt lat="42.74342" lon="-0.48809">
        <ele>2443</ele>
        <time>2010-01-01T08:13:35Z</time>
      </trkpt>
      <trkpt lat="42.74342" lon="-0.48802">
        <ele>2441</ele>
        <time>2010-01-01T08:13:37Z</time>
      </trkpt>
      <trkpt lat="42.74351" lon="-0.48778">
        <ele>2430</ele>
        <time>2010-01-01T08:13:45Z</time>
      </trkpt>
      <trkpt lat="42.74356" lon="-0.48772">
        <ele>2429</ele>
        <time>2010-01-01T08:13:47Z</time>
      </trkpt>
      <trkpt lat="42.74359" lon="-0.48764">
        <ele>2425</ele>
        <time>2010-01-01T08:13:50Z</time>
      </trkpt>
      <trkpt lat="42.74365" lon="-0.48753">
        <ele>2423</ele>
        <time>2010-01-01T08:13:54Z</time>
      </trkpt>
      <trkpt lat="42.74372" lon="-0.48726">
        <ele>2416</ele>
        <time>2010-01-01T08:14:02Z</time>
      </trkpt>
      <trkpt lat="42.7438" lon="-0.48707">
        <ele>2412</ele>
        <time>2010-01-01T08:14:09Z</time>
      </trkpt>
      <trkpt lat="42.74388" lon="-0.48674">
        <ele>2400</ele>
        <time>2010-01-01T08:14:19Z</time>
      </trkpt>
      <trkpt lat="42.74386" lon="-0.48666">
        <ele>2396</ele>
        <time>2010-01-01T08:14:22Z</time>
      </trkpt>
      <trkpt lat="42.74386" lon="-0.48657">
        <ele>2390</ele>
        <time>2010-01-01T08:14:24Z</time>
      </trkpt>
      <trkpt lat="42.74362" lon="-0.48666">
        <ele>2385</ele>
        <time>2010-01-01T08:14:34Z</time>
      </trkpt>
      <trkpt lat="42.74353" lon="-0.48664">
        <ele>2383</ele>
        <time>2010-01-01T08:14:38Z</time>
      </trkpt>
      <trkpt lat="42.74348" lon="-0.48658">
        <ele>2380</ele>
        <time>2010-01-01T08:14:40Z</time>
      </trkpt>
      <trkpt lat="42.74342" lon="-0.48656">
        <ele>2379</ele>
        <time>2010-01-01T08:14:43Z</time>
      </trkpt>
      <trkpt lat="42.74338" lon="-0.48652">
        <ele>2377</ele>
        <time>2010-01-01T08:14:45Z</time>
      </trkpt>
      <trkpt lat="42.74336" lon="-0.48645">
        <ele>2374</ele>
        <time>2010-01-01T08:14:47Z</time>
      </trkpt>
      <trkpt lat="42.74325" lon="-0.4863">
        <ele>2369</ele>
        <time>2010-01-01T08:14:53Z</time>
      </trkpt>
      <trkpt lat="42.74315" lon="-0.48601">
        <ele>2355</ele>
        <time>2010-01-01T08:15:03Z</time>
      </trkpt>
      <trkpt lat="42.74315" lon="-0.4859">
        <ele>2349</ele>
        <time>2010-01-01T08:15:06Z</time>
      </trkpt>
      <trkpt lat="42.74309" lon="-0.48577">
        <ele>2342</ele>
        <time>2010-01-01T08:15:10Z</time>
      </trkpt>
      <trkpt lat="42.74315" lon="-0.48571">
        <ele>2339</ele>
        <time>2010-01-01T08:15:13Z</time>
      </trkpt>
      <trkpt lat="42.7431" lon="-0.48563">
        <ele>2335</ele>
        <time>2010-01-01T08:15:16Z</time>
      </trkpt>
      <trkpt lat="42.74307" lon="-0.48542">
        <ele>2325</ele>
        <time>2010-01-01T08:15:23Z</time>
      </trkpt>
      <trkpt lat="42.74312" lon="-0.48531">
        <ele>2321</ele>
        <time>2010-01-01T08:15:27Z</time>
      </trkpt>
      <trkpt lat="42.74314" lon="-0.48517">
        <ele>2317</ele>
        <time>2010-01-01T08:15:31Z</time>
      </trkpt>
      <trkpt lat="42.74311" lon="-0.48502">
        <ele>2313</ele>
        <time>2010-01-01T08:15:35Z</time>
      </trkpt>
      <trkpt lat="42.74311" lon="-0.48489">
        <ele>2311</ele>
        <time>2010-01-01T08:15:39Z</time>
      </trkpt>
      <trkpt lat="42.74312" lon="-0.48466">
        <ele>2308</ele>
        <time>2010-01-01T08:15:46Z</time>
      </trkpt>
      <trkpt lat="42.74316" lon="-0.48455">
        <ele>2306</ele>
        <time>2010-01-01T08:15:49Z</time>
      </trkpt>
      <trkpt lat="42.74307" lon="-0.48427">
        <ele>2302</ele>
        <time>2010-01-01T08:15:58Z</time>
      </trkpt>
      <trkpt lat="42.74306" lon="-0.48399">
        <ele>2292</ele>
        <time>2010-01-01T08:16:07Z</time>
      </trkpt>
      <trkpt lat="42.74307" lon="-0.48386">
        <ele>2287</ele>
        <time>2010-01-01T08:16:10Z</time>
      </trkpt>
      <trkpt lat="42.74291" lon="-0.48354">
        <ele>2275</ele>
        <time>2010-01-01T08:16:22Z</time>
      </trkpt>
      <trkpt lat="42.74284" lon="-0.48317">
        <ele>2269</ele>
        <time>2010-01-01T08:16:33Z</time>
      </trkpt>
      <trkpt lat="42.74276" lon="-0.48303">
        <ele>2268</ele>
        <time>2010-01-01T08:16:38Z</time>
      </trkpt>
      <trkpt lat="42.74262" lon="-0.48301">
        <ele>2270</ele>
        <time>2010-01-01T08:16:44Z</time>
      </trkpt>
      <trkpt lat="42.74256" lon="-0.48302">
        <ele>2271</ele>
        <time>2010-01-01T08:16:46Z</time>
      </trkpt>
      <trkpt lat="42.7425" lon="-0.483">
        <ele>2272</ele>
        <time>2010-01-01T08:16:49Z</time>
      </trkpt>
      <trkpt lat="42.74241" lon="-0.48303">
        <ele>2275</ele>
        <time>2010-01-01T08:16:52Z</time>
      </trkpt>
      <trkpt lat="42.74236" lon="-0.48301">
        <ele>2276</ele>
        <time>2010-01-01T08:16:54Z</time>
      </trkpt>
      <trkpt lat="42.74232" lon="-0.48297">
        <ele>2275</ele>
        <time>2010-01-01T08:16:57Z</time>
      </trkpt>
      <trkpt lat="42.74236" lon="-0.48283">
        <ele>2269</ele>
        <time>2010-01-01T08:17:01Z</time>
      </trkpt>
      <trkpt lat="42.74243" lon="-0.48278">
        <ele>2267</ele>
        <time>2010-01-01T08:17:04Z</time>
      </trkpt>
      <trkpt lat="42.7425" lon="-0.48269">
        <ele>2264</ele>
        <time>2010-01-01T08:17:08Z</time>
      </trkpt>
      <trkpt lat="42.74256" lon="-0.48249">
        <ele>2258</ele>
        <time>2010-01-01T08:17:15Z</time>
      </trkpt>
      <trkpt lat="42.74267" lon="-0.48233">
        <ele>2254</ele>
        <time>2010-01-01T08:17:21Z</time>
      </trkpt>
      <trkpt lat="42.74268" lon="-0.48222">
        <ele>2251</ele>
        <time>2010-01-01T08:17:24Z</time>
      </trkpt>
      <trkpt lat="42.74272" lon="-0.48216">
        <ele>2250</ele>
        <time>2010-01-01T08:17:27Z</time>
      </trkpt>
      <trkpt lat="42.74278" lon="-0.48204">
        <ele>2245</ele>
        <time>2010-01-01T08:17:31Z</time>
      </trkpt>
      <trkpt lat="42.74277" lon="-0.48185">
        <ele>2237</ele>
        <time>2010-01-01T08:17:36Z</time>
      </trkpt>
      <trkpt lat="42.74282" lon="-0.48179">
        <ele>2234</ele>
        <time>2010-01-01T08:17:39Z</time>
      </trkpt>
      <trkpt lat="42.74283" lon="-0.48171">
        <ele>2230</ele>
        <time>2010-01-01T08:17:42Z</time>
      </trkpt>
      <trkpt lat="42.74292" lon="-0.48164">
        <ele>2228</ele>
        <time>2010-01-01T08:17:46Z</time>
      </trkpt>
      <trkpt lat="42.74296" lon="-0.48145">
        <ele>2222</ele>
        <time>2010-01-01T08:17:52Z</time>
      </trkpt>
      <trkpt lat="42.74306" lon="-0.48114">
        <ele>2212</ele>
        <time>2010-01-01T08:18:01Z</time>
      </trkpt>
      <trkpt lat="42.74332" lon="-0.48104">
        <ele>2212</ele>
        <time>2010-01-01T08:18:12Z</time>
      </trkpt>
      <trkpt lat="42.74349" lon="-0.481">
        <ele>2206</ele>
        <time>2010-01-01T08:18:19Z</time>
      </trkpt>
      <trkpt lat="42.74359" lon="-0.481">
        <ele>2203</ele>
        <time>2010-01-01T08:18:23Z</time>
      </trkpt>
      <trkpt lat="42.74363" lon="-0.48096">
        <ele>2201</ele>
        <time>2010-01-01T08:18:25Z</time>
      </trkpt>
      <trkpt lat="42.7437" lon="-0.48084">
        <ele>2198</ele>
        <time>2010-01-01T08:18:30Z</time>
      </trkpt>
      <trkpt lat="42.74374" lon="-0.48062">
        <ele>2189</ele>
        <time>2010-01-01T08:18:36Z</time>
      </trkpt>
      <trkpt lat="42.74383" lon="-0.48039">
        <ele>2182</ele>
        <time>2010-01-01T08:18:44Z</time>
      </trkpt>
      <trkpt lat="42.744" lon="-0.48021">
        <ele>2178</ele>
        <time>2010-01-01T08:18:53Z</time>
      </trkpt>
      <trkpt lat="42.74448" lon="-0.48012">
        <ele>2174</ele>
        <time>2010-01-01T08:19:12Z</time>
      </trkpt>
      <trkpt lat="42.7446" lon="-0.48014">
        <ele>2172</ele>
        <time>2010-01-01T08:19:17Z</time>
      </trkpt>
      <trkpt lat="42.74471" lon="-0.48018">
        <ele>2172</ele>
        <time>2010-01-01T08:19:21Z</time>
      </trkpt>
      <trkpt lat="42.74486" lon="-0.48019">
        <ele>2169</ele>
        <time>2010-01-01T08:19:27Z</time>
      </trkpt>
      <trkpt lat="42.74491" lon="-0.48017">
        <ele>2167</ele>
        <time>2010-01-01T08:19:30Z</time>
      </trkpt>
      <trkpt lat="42.74526" lon="-0.47972">
        <ele>2156</ele>
        <time>2010-01-01T08:19:49Z</time>
      </trkpt>
      <trkpt lat="42.74543" lon="-0.47937">
        <ele>2159</ele>
        <time>2010-01-01T08:20:01Z</time>
      </trkpt>
      <trkpt lat="42.74547" lon="-0.47925">
        <ele>2160</ele>
        <time>2010-01-01T08:20:05Z</time>
      </trkpt>
      <trkpt lat="42.74545" lon="-0.47912">
        <ele>2161</ele>
        <time>2010-01-01T08:20:09Z</time>
      </trkpt>
      <trkpt lat="42.74536" lon="-0.47886">
        <ele>2160</ele>
        <time>2010-01-01T08:20:17Z</time>
      </trkpt>
      <trkpt lat="42.74534" lon="-0.47863">
        <ele>2160</ele>
        <time>2010-01-01T08:20:24Z</time>
      </trkpt>
      <trkpt lat="42.7454" lon="-0.47853">
        <ele>2163</ele>
        <time>2010-01-01T08:20:28Z</time>
      </trkpt>
      <trkpt lat="42.74544" lon="-0.4784">
        <ele>2166</ele>
        <time>2010-01-01T08:20:32Z</time>
      </trkpt>
      <trkpt lat="42.74549" lon="-0.47841">
        <ele>2166</ele>
        <time>2010-01-01T08:20:34Z</time>
      </trkpt>
      <trkpt lat="42.7456" lon="-0.47835">
        <ele>2169</ele>
        <time>2010-01-01T08:20:39Z</time>
      </trkpt>
      <trkpt lat="42.7457" lon="-0.47825">
        <ele>2173</ele>
        <time>2010-01-01T08:20:44Z</time>
      </trkpt>
      <trkpt lat="42.74576" lon="-0.47814">
        <ele>2176</ele>
        <time>2010-01-01T08:20:48Z</time>
      </trkpt>
      <trkpt lat="42.7458" lon="-0.47809">
        <ele>2177</ele>
        <time>2010-01-01T08:20:50Z</time>
      </trkpt>
      <trkpt lat="42.7459" lon="-0.47803">
        <ele>2180</ele>
        <time>2010-01-01T08:20:54Z</time>
      </trkpt>
      <trkpt lat="42.74604" lon="-0.47785">
        <ele>2185</ele>
        <time>2010-01-01T08:21:02Z</time>
      </trkpt>
      <trkpt lat="42.7464" lon="-0.47749">
        <ele>2178</ele>
        <time>2010-01-01T08:21:20Z</time>
      </trkpt>
      <trkpt lat="42.74653" lon="-0.47739">
        <ele>2172</ele>
        <time>2010-01-01T08:21:26Z</time>
      </trkpt>
      <trkpt lat="42.74661" lon="-0.4773">
        <ele>2168</ele>
        <time>2010-01-01T08:21:30Z</time>
      </trkpt>
      <trkpt lat="42.74664" lon="-0.47722">
        <ele>2166</ele>
        <time>2010-01-01T08:21:33Z</time>
      </trkpt>
      <trkpt lat="42.74671" lon="-0.47718">
        <ele>2164</ele>
        <time>2010-01-01T08:21:36Z</time>
      </trkpt>
      <trkpt lat="42.74677" lon="-0.47709">
        <ele>2162</ele>
        <time>2010-01-01T08:21:39Z</time>
      </trkpt>
      <trkpt lat="42.74686" lon="-0.47704">
        <ele>2161</ele>
        <time>2010-01-01T08:21:43Z</time>
      </trkpt>
      <trkpt lat="42.74691" lon="-0.47701">
        <ele>2159</ele>
        <time>2010-01-01T08:21:46Z</time>
      </trkpt>
      <trkpt lat="42.747" lon="-0.47706">
        <ele>2157</ele>
        <time>2010-01-01T08:21:50Z</time>
      </trkpt>
      <trkpt lat="42.74706" lon="-0.47706">
        <ele>2155</ele>
        <time>2010-01-01T08:21:52Z</time>
      </trkpt>
      <trkpt lat="42.74743" lon="-0.4771">
        <ele>2141</ele>
        <time>2010-01-01T08:22:07Z</time>
      </trkpt>
      <trkpt lat="42.74748" lon="-0.47713">
        <ele>2138</ele>
        <time>2010-01-01T08:22:09Z</time>
      </trkpt>
      <trkpt lat="42.74754" lon="-0.47742">
        <ele>2132</ele>
        <time>2010-01-01T08:22:18Z</time>
      </trkpt>
      <trkpt lat="42.74752" lon="-0.47773">
        <ele>2131</ele>
        <time>2010-01-01T08:22:27Z</time>
      </trkpt>
      <trkpt lat="42.74757" lon="-0.47803">
        <ele>2124</ele>
        <time>2010-01-01T08:22:36Z</time>
      </trkpt>
      <trkpt lat="42.74765" lon="-0.47821">
        <ele>2120</ele>
        <time>2010-01-01T08:22:42Z</time>
      </trkpt>
      <trkpt lat="42.74779" lon="-0.4784">
        <ele>2114</ele>
        <time>2010-01-01T08:22:50Z</time>
      </trkpt>
      <trkpt lat="42.74796" lon="-0.47883">
        <ele>2107</ele>
        <time>2010-01-01T08:23:04Z</time>
      </trkpt>
      <trkpt lat="42.74795" lon="-0.47907">
        <ele>2114</ele>
        <time>2010-01-01T08:23:11Z</time>
      </trkpt>
      <trkpt lat="42.74806" lon="-0.4793">
        <ele>2113</ele>
        <time>2010-01-01T08:23:19Z</time>
      </trkpt>
      <trkpt lat="42.74816" lon="-0.47956">
        <ele>2115</ele>
        <time>2010-01-01T08:23:28Z</time>
      </trkpt>
      <trkpt lat="42.7482" lon="-0.47962">
        <ele>2114</ele>
        <time>2010-01-01T08:23:30Z</time>
      </trkpt>
      <trkpt lat="42.74829" lon="-0.47958">
        <ele>2109</ele>
        <time>2010-01-01T08:23:34Z</time>
      </trkpt>
      <trkpt lat="42.7483" lon="-0.47951">
        <ele>2107</ele>
        <time>2010-01-01T08:23:36Z</time>
      </trkpt>
      <trkpt lat="42.74835" lon="-0.47955">
        <ele>2105</ele>
        <time>2010-01-01T08:23:38Z</time>
      </trkpt>
      <trkpt lat="42.74843" lon="-0.47941">
        <ele>2097</ele>
        <time>2010-01-01T08:23:43Z</time>
      </trkpt>
      <trkpt lat="42.74847" lon="-0.47942">
        <ele>2094</ele>
        <time>2010-01-01T08:23:45Z</time>
      </trkpt>
      <trkpt lat="42.74852" lon="-0.47936">
        <ele>2090</ele>
        <time>2010-01-01T08:23:48Z</time>
      </trkpt>
      <trkpt lat="42.74856" lon="-0.47943">
        <ele>2087</ele>
        <time>2010-01-01T08:23:50Z</time>
      </trkpt>
      <trkpt lat="42.74859" lon="-0.47952">
        <ele>2088</ele>
        <time>2010-01-01T08:23:53Z</time>
      </trkpt>
      <trkpt lat="42.74863" lon="-0.47944">
        <ele>2083</ele>
        <time>2010-01-01T08:23:56Z</time>
      </trkpt>
      <trkpt lat="42.74873" lon="-0.47938">
        <ele>2081</ele>
        <time>2010-01-01T08:24:00Z</time>
      </trkpt>
      <trkpt lat="42.74881" lon="-0.47943">
        <ele>2081</ele>
        <time>2010-01-01T08:24:04Z</time>
      </trkpt>
      <trkpt lat="42.74884" lon="-0.47953">
        <ele>2082</ele>
        <time>2010-01-01T08:24:07Z</time>
      </trkpt>
      <trkpt lat="42.74891" lon="-0.47962">
        <ele>2081</ele>
        <time>2010-01-01T08:24:11Z</time>
      </trkpt>
      <trkpt lat="42.74898" lon="-0.47975">
        <ele>2080</ele>
        <time>2010-01-01T08:24:16Z</time>
      </trkpt>
      <trkpt lat="42.7491" lon="-0.47999">
        <ele>2079</ele>
        <time>2010-01-01T08:24:24Z</time>
      </trkpt>
      <trkpt lat="42.74916" lon="-0.48001">
        <ele>2077</ele>
        <time>2010-01-01T08:24:27Z</time>
      </trkpt>
      <trkpt lat="42.74926" lon="-0.48009">
        <ele>2069</ele>
        <time>2010-01-01T08:24:31Z</time>
      </trkpt>
      <trkpt lat="42.74938" lon="-0.48023">
        <ele>2062</ele>
        <time>2010-01-01T08:24:37Z</time>
      </trkpt>
      <trkpt lat="42.74958" lon="-0.4804">
        <ele>2057</ele>
        <time>2010-01-01T08:24:47Z</time>
      </trkpt>
      <trkpt lat="42.74965" lon="-0.4803">
        <ele>2050</ele>
        <time>2010-01-01T08:24:51Z</time>
      </trkpt>
      <trkpt lat="42.74971" lon="-0.48029">
        <ele>2047</ele>
        <time>2010-01-01T08:24:53Z</time>
      </trkpt>
      <trkpt lat="42.74976" lon="-0.48023">
        <ele>2038</ele>
        <time>2010-01-01T08:24:56Z</time>
      </trkpt>
      <trkpt lat="42.74981" lon="-0.48028">
        <ele>2033</ele>
        <time>2010-01-01T08:24:58Z</time>
      </trkpt>
      <trkpt lat="42.74983" lon="-0.4804">
        <ele>2034</ele>
        <time>2010-01-01T08:25:02Z</time>
      </trkpt>
      <trkpt lat="42.75001" lon="-0.48056">
        <ele>2022</ele>
        <time>2010-01-01T08:25:10Z</time>
      </trkpt>
      <trkpt lat="42.75019" lon="-0.48055">
        <ele>1997</ele>
        <time>2010-01-01T08:25:18Z</time>
      </trkpt>
      <trkpt lat="42.7505" lon="-0.4806">
        <ele>1969</ele>
        <time>2010-01-01T08:25:30Z</time>
      </trkpt>
      <trkpt lat="42.7506" lon="-0.48064">
        <ele>1964</ele>
        <time>2010-01-01T08:25:34Z</time>
      </trkpt>
      <trkpt lat="42.7507" lon="-0.48064">
        <ele>1960</ele>
        <time>2010-01-01T08:25:38Z</time>
      </trkpt>
      <trkpt lat="42.75108" lon="-0.48073">
        <ele>1944</ele>
        <time>2010-01-01T08:25:54Z</time>
      </trkpt>
      <trkpt lat="42.7512" lon="-0.48098">
        <ele>1956</ele>
        <time>2010-01-01T08:26:02Z</time>
      </trkpt>
      <trkpt lat="42.75163" lon="-0.48109">
        <ele>1947</ele>
        <time>2010-01-01T08:26:20Z</time>
      </trkpt>
      <trkpt lat="42.75191" lon="-0.48101">
        <ele>1946</ele>
        <time>2010-01-01T08:26:31Z</time>
      </trkpt>
      <trkpt lat="42.75219" lon="-0.48084">
        <ele>1939</ele>
        <time>2010-01-01T08:26:44Z</time>
      </trkpt>
      <trkpt lat="42.75233" lon="-0.48078">
        <ele>1937</ele>
        <time>2010-01-01T08:26:50Z</time>
      </trkpt>
      <trkpt lat="42.75257" lon="-0.4807">
        <ele>1932</ele>
        <time>2010-01-01T08:27:00Z</time>
      </trkpt>
      <trkpt lat="42.7527" lon="-0.48068">
        <ele>1930</ele>
        <time>2010-01-01T08:27:05Z</time>
      </trkpt>
      <trkpt lat="42.75281" lon="-0.48071">
        <ele>1930</ele>
        <time>2010-01-01T08:27:09Z</time>
      </trkpt>
      <trkpt lat="42.75299" lon="-0.4807">
        <ele>1922</ele>
        <time>2010-01-01T08:27:16Z</time>
      </trkpt>
      <trkpt lat="42.75315" lon="-0.48078">
        <ele>1918</ele>
        <time>2010-01-01T08:27:23Z</time>
      </trkpt>
      <trkpt lat="42.75333" lon="-0.48095">
        <ele>1917</ele>
        <time>2010-01-01T08:27:32Z</time>
      </trkpt>
      <trkpt lat="42.75351" lon="-0.48119">
        <ele>1911</ele>
        <time>2010-01-01T08:27:42Z</time>
      </trkpt>
      <trkpt lat="42.75358" lon="-0.48123">
        <ele>1904</ele>
        <time>2010-01-01T08:27:45Z</time>
      </trkpt>
      <trkpt lat="42.75368" lon="-0.48122">
        <ele>1899</ele>
        <time>2010-01-01T08:27:49Z</time>
      </trkpt>
      <trkpt lat="42.75373" lon="-0.4812">
        <ele>1898</ele>
        <time>2010-01-01T08:27:51Z</time>
      </trkpt>
      <trkpt lat="42.75376" lon="-0.48114">
        <ele>1897</ele>
        <time>2010-01-01T08:27:53Z</time>
      </trkpt>
      <trkpt lat="42.75351" lon="-0.48066">
        <ele>1890</ele>
        <time>2010-01-01T08:28:11Z</time>
      </trkpt>
      <trkpt lat="42.75336" lon="-0.48049">
        <ele>1883</ele>
        <time>2010-01-01T08:28:19Z</time>
      </trkpt>
      <trkpt lat="42.75315" lon="-0.48034">
        <ele>1890</ele>
        <time>2010-01-01T08:28:28Z</time>
      </trkpt>
      <trkpt lat="42.75295" lon="-0.48005">
        <ele>1884</ele>
        <time>2010-01-01T08:28:40Z</time>
      </trkpt>
      <trkpt lat="42.75275" lon="-0.48">
        <ele>1887</ele>
        <time>2010-01-01T08:28:48Z</time>
      </trkpt>
      <trkpt lat="42.7524" lon="-0.47985">
        <ele>1869</ele>
        <time>2010-01-01T08:29:02Z</time>
      </trkpt>
      <trkpt lat="42.75208" lon="-0.47992">
        <ele>1875</ele>
        <time>2010-01-01T08:29:15Z</time>
      </trkpt>
      <trkpt lat="42.75199" lon="-0.47999">
        <ele>1878</ele>
        <time>2010-01-01T08:29:20Z</time>
      </trkpt>
      <trkpt lat="42.75184" lon="-0.47998">
        <ele>1878</ele>
        <time>2010-01-01T08:29:26Z</time>
      </trkpt>
      <trkpt lat="42.75169" lon="-0.48005">
        <ele>1884</ele>
        <time>2010-01-01T08:29:32Z</time>
      </trkpt>
      <trkpt lat="42.75158" lon="-0.48003">
        <ele>1886</ele>
        <time>2010-01-01T08:29:36Z</time>
      </trkpt>
      <trkpt lat="42.75114" lon="-0.47984">
        <ele>1885</ele>
        <time>2010-01-01T08:29:55Z</time>
      </trkpt>
      <trkpt lat="42.75109" lon="-0.47983">
        <ele>1886</ele>
        <time>2010-01-01T08:29:57Z</time>
      </trkpt>
      <trkpt lat="42.751" lon="-0.47986">
        <ele>1892</ele>
        <time>2010-01-01T08:30:01Z</time>
      </trkpt>
      <trkpt lat="42.75089" lon="-0.4797">
        <ele>1889</ele>
        <time>2010-01-01T08:30:07Z</time>
      </trkpt>
      <trkpt lat="42.75074" lon="-0.47967">
        <ele>1900</ele>
        <time>2010-01-01T08:30:13Z</time>
      </trkpt>
      <trkpt lat="42.75076" lon="-0.4793">
        <ele>1879</ele>
        <time>2010-01-01T08:30:25Z</time>
      </trkpt>
      <trkpt lat="42.75067" lon="-0.47907">
        <ele>1877</ele>
        <time>2010-01-01T08:30:32Z</time>
      </trkpt>
      <trkpt lat="42.75085" lon="-0.47912">
        <ele>1865</ele>
        <time>2010-01-01T08:30:40Z</time>
      </trkpt>
      <trkpt lat="42.75098" lon="-0.47927">
        <ele>1867</ele>
        <time>2010-01-01T08:30:46Z</time>
      </trkpt>
      <trkpt lat="42.75097" lon="-0.47906">
        <ele>1859</ele>
        <time>2010-01-01T08:30:53Z</time>
      </trkpt>
      <trkpt lat="42.75093" lon="-0.47886">
        <ele>1854</ele>
        <time>2010-01-01T08:30:59Z</time>
      </trkpt>
      <trkpt lat="42.75092" lon="-0.47866">
        <ele>1849</ele>
        <time>2010-01-01T08:31:05Z</time>
      </trkpt>
      <trkpt lat="42.75109" lon="-0.47883">
        <ele>1847</ele>
        <time>2010-01-01T08:31:13Z</time>
      </trkpt>
      <trkpt lat="42.7513" lon="-0.47894">
        <ele>1841</ele>
        <time>2010-01-01T08:31:22Z</time>
      </trkpt>
      <trkpt lat="42.75127" lon="-0.47863">
        <ele>1835</ele>
        <time>2010-01-01T08:31:31Z</time>
      </trkpt>
      <trkpt lat="42.7512" lon="-0.47837">
        <ele>1833</ele>
        <time>2010-01-01T08:31:40Z</time>
      </trkpt>
      <trkpt lat="42.75121" lon="-0.47819">
        <ele>1830</ele>
        <time>2010-01-01T08:31:45Z</time>
      </trkpt>
      <trkpt lat="42.75141" lon="-0.47841">
        <ele>1824</ele>
        <time>2010-01-01T08:31:55Z</time>
      </trkpt>
      <trkpt lat="42.75147" lon="-0.47845">
        <ele>1824</ele>
        <time>2010-01-01T08:31:58Z</time>
      </trkpt>
      <trkpt lat="42.75146" lon="-0.47828">
        <ele>1820</ele>
        <time>2010-01-01T08:32:02Z</time>
      </trkpt>
      <trkpt lat="42.75143" lon="-0.47814">
        <ele>1818</ele>
        <time>2010-01-01T08:32:07Z</time>
      </trkpt>
      <trkpt lat="42.75144" lon="-0.47802">
        <ele>1815</ele>
        <time>2010-01-01T08:32:10Z</time>
      </trkpt>
      <trkpt lat="42.75148" lon="-0.47793">
        <ele>1812</ele>
        <time>2010-01-01T08:32:14Z</time>
      </trkpt>
      <trkpt lat="42.75157" lon="-0.47801">
        <ele>1811</ele>
        <time>2010-01-01T08:32:18Z</time>
      </trkpt>
      <trkpt lat="42.75162" lon="-0.47797">
        <ele>1809</ele>
        <time>2010-01-01T08:32:20Z</time>
      </trkpt>
      <trkpt lat="42.75169" lon="-0.4775">
        <ele>1806</ele>
        <time>2010-01-01T08:32:34Z</time>
      </trkpt>
      <trkpt lat="42.75169" lon="-0.47723">
        <ele>1809</ele>
        <time>2010-01-01T08:32:42Z</time>
      </trkpt>
      <trkpt lat="42.75197" lon="-0.4767">
        <ele>1806</ele>
        <time>2010-01-01T08:33:01Z</time>
      </trkpt>
      <trkpt lat="42.75208" lon="-0.47672">
        <ele>1802</ele>
        <time>2010-01-01T08:33:05Z</time>
      </trkpt>
      <trkpt lat="42.75209" lon="-0.47694">
        <ele>1800</ele>
        <time>2010-01-01T08:33:12Z</time>
      </trkpt>
      <trkpt lat="42.75213" lon="-0.47703">
        <ele>1798</ele>
        <time>2010-01-01T08:33:15Z</time>
      </trkpt>
      <trkpt lat="42.75222" lon="-0.47683">
        <ele>1797</ele>
        <time>2010-01-01T08:33:22Z</time>
      </trkpt>
      <trkpt lat="42.75229" lon="-0.47684">
        <ele>1795</ele>
        <time>2010-01-01T08:33:25Z</time>
      </trkpt>
      <trkpt lat="42.75234" lon="-0.47699">
        <ele>1792</ele>
        <time>2010-01-01T08:33:29Z</time>
      </trkpt>
      <trkpt lat="42.7524" lon="-0.47691">
        <ele>1791</ele>
        <time>2010-01-01T08:33:33Z</time>
      </trkpt>
      <trkpt lat="42.75244" lon="-0.47679">
        <ele>1791</ele>
        <time>2010-01-01T08:33:37Z</time>
      </trkpt>
      <trkpt lat="42.75245" lon="-0.47672">
        <ele>1791</ele>
        <time>2010-01-01T08:33:39Z</time>
      </trkpt>
      <trkpt lat="42.75251" lon="-0.47676">
        <ele>1789</ele>
        <time>2010-01-01T08:33:41Z</time>
      </trkpt>
      <trkpt lat="42.75254" lon="-0.47691">
        <ele>1787</ele>
        <time>2010-01-01T08:33:46Z</time>
      </trkpt>
      <trkpt lat="42.75258" lon="-0.47698">
        <ele>1786</ele>
        <time>2010-01-01T08:33:48Z</time>
      </trkpt>
      <trkpt lat="42.75262" lon="-0.4769">
        <ele>1785</ele>
        <time>2010-01-01T08:33:51Z</time>
      </trkpt>
      <trkpt lat="42.75269" lon="-0.47696">
        <ele>1783</ele>
        <time>2010-01-01T08:33:55Z</time>
      </trkpt>
      <trkpt lat="42.75276" lon="-0.47693">
        <ele>1782</ele>
        <time>2010-01-01T08:33:57Z</time>
      </trkpt>
      <trkpt lat="42.75285" lon="-0.47682">
        <ele>1780</ele>
        <time>2010-01-01T08:34:02Z</time>
      </trkpt>
      <trkpt lat="42.75283" lon="-0.47674">
        <ele>1780</ele>
        <time>2010-01-01T08:34:05Z</time>
      </trkpt>
      <trkpt lat="42.75289" lon="-0.47666">
        <ele>1779</ele>
        <time>2010-01-01T08:34:08Z</time>
      </trkpt>
      <trkpt lat="42.75296" lon="-0.47663">
        <ele>1777</ele>
        <time>2010-01-01T08:34:11Z</time>
      </trkpt>
      <trkpt lat="42.75299" lon="-0.47652">
        <ele>1777</ele>
        <time>2010-01-01T08:34:14Z</time>
      </trkpt>
      <trkpt lat="42.75315" lon="-0.47636">
        <ele>1775</ele>
        <time>2010-01-01T08:34:22Z</time>
      </trkpt>
      <trkpt lat="42.75334" lon="-0.47633">
        <ele>1771</ele>
        <time>2010-01-01T08:34:30Z</time>
      </trkpt>
      <trkpt lat="42.75345" lon="-0.47633">
        <ele>1759</ele>
        <time>2010-01-01T08:34:34Z</time>
      </trkpt>
      <trkpt lat="42.75374" lon="-0.47615">
        <ele>1742</ele>
        <time>2010-01-01T08:34:47Z</time>
      </trkpt>
      <trkpt lat="42.75377" lon="-0.47597">
        <ele>1741</ele>
        <time>2010-01-01T08:34:52Z</time>
      </trkpt>
      <trkpt lat="42.75375" lon="-0.47577">
        <ele>1746</ele>
        <time>2010-01-01T08:34:58Z</time>
      </trkpt>
      <trkpt lat="42.75374" lon="-0.47559">
        <ele>1750</ele>
        <time>2010-01-01T08:35:04Z</time>
      </trkpt>
      <trkpt lat="42.75379" lon="-0.47519">
        <ele>1753</ele>
        <time>2010-01-01T08:35:15Z</time>
      </trkpt>
      <trkpt lat="42.75371" lon="-0.47479">
        <ele>1747</ele>
        <time>2010-01-01T08:35:28Z</time>
      </trkpt>
      <trkpt lat="42.75367" lon="-0.47439">
        <ele>1735</ele>
        <time>2010-01-01T08:35:39Z</time>
      </trkpt>
      <trkpt lat="42.75378" lon="-0.47403">
        <ele>1732</ele>
        <time>2010-01-01T08:35:51Z</time>
      </trkpt>
      <trkpt lat="42.75384" lon="-0.47401">
        <ele>1732</ele>
        <time>2010-01-01T08:35:54Z</time>
      </trkpt>
      <trkpt lat="42.75425" lon="-0.47413">
        <ele>1726</ele>
        <time>2010-01-01T08:36:10Z</time>
      </trkpt>
      <trkpt lat="42.75449" lon="-0.47416">
        <ele>1722</ele>
        <time>2010-01-01T08:36:20Z</time>
      </trkpt>
      <trkpt lat="42.75461" lon="-0.47427">
        <ele>1722</ele>
        <time>2010-01-01T08:36:26Z</time>
      </trkpt>
      <trkpt lat="42.75447" lon="-0.47454">
        <ele>1723</ele>
        <time>2010-01-01T08:36:35Z</time>
      </trkpt>
      <trkpt lat="42.75446" lon="-0.47464">
        <ele>1723</ele>
        <time>2010-01-01T08:36:38Z</time>
      </trkpt>
      <trkpt lat="42.75454" lon="-0.47466">
        <ele>1723</ele>
        <time>2010-01-01T08:36:42Z</time>
      </trkpt>
      <trkpt lat="42.75457" lon="-0.47458">
        <ele>1723</ele>
        <time>2010-01-01T08:36:44Z</time>
      </trkpt>
      <trkpt lat="42.75463" lon="-0.47456">
        <ele>1722</ele>
        <time>2010-01-01T08:36:47Z</time>
      </trkpt>
      <trkpt lat="42.7547" lon="-0.47459">
        <ele>1722</ele>
        <time>2010-01-01T08:36:50Z</time>
      </trkpt>
      <trkpt lat="42.75486" lon="-0.47456">
        <ele>1708</ele>
        <time>2010-01-01T08:36:56Z</time>
      </trkpt>
      <trkpt lat="42.75496" lon="-0.4745">
        <ele>1700</ele>
        <time>2010-01-01T08:37:00Z</time>
      </trkpt>
      <trkpt lat="42.75497" lon="-0.47469">
        <ele>1695</ele>
        <time>2010-01-01T08:37:06Z</time>
      </trkpt>
      <trkpt lat="42.75508" lon="-0.47469">
        <ele>1681</ele>
        <time>2010-01-01T08:37:11Z</time>
      </trkpt>
      <trkpt lat="42.75514" lon="-0.47472">
        <ele>1673</ele>
        <time>2010-01-01T08:37:13Z</time>
      </trkpt>
      <trkpt lat="42.75518" lon="-0.4748">
        <ele>1668</ele>
        <time>2010-01-01T08:37:16Z</time>
      </trkpt>
      <trkpt lat="42.7552" lon="-0.47474">
        <ele>1666</ele>
        <time>2010-01-01T08:37:18Z</time>
      </trkpt>
      <trkpt lat="42.75522" lon="-0.47385">
        <ele>1663</ele>
        <time>2010-01-01T08:37:44Z</time>
      </trkpt>
      <trkpt lat="42.75533" lon="-0.47405">
        <ele>1660</ele>
        <time>2010-01-01T08:37:52Z</time>
      </trkpt>
      <trkpt lat="42.75535" lon="-0.47412">
        <ele>1661</ele>
        <time>2010-01-01T08:37:54Z</time>
      </trkpt>
      <trkpt lat="42.7554" lon="-0.47399">
        <ele>1654</ele>
        <time>2010-01-01T08:37:58Z</time>
      </trkpt>
      <trkpt lat="42.75539" lon="-0.47374">
        <ele>1651</ele>
        <time>2010-01-01T08:38:05Z</time>
      </trkpt>
      <trkpt lat="42.75551" lon="-0.47387">
        <ele>1648</ele>
        <time>2010-01-01T08:38:12Z</time>
      </trkpt>
      <trkpt lat="42.75555" lon="-0.47394">
        <ele>1647</ele>
        <time>2010-01-01T08:38:14Z</time>
      </trkpt>
      <trkpt lat="42.75557" lon="-0.47371">
        <ele>1647</ele>
        <time>2010-01-01T08:38:21Z</time>
      </trkpt>
      <trkpt lat="42.75553" lon="-0.47343">
        <ele>1647</ele>
        <time>2010-01-01T08:38:29Z</time>
      </trkpt>
      <trkpt lat="42.75555" lon="-0.4732">
        <ele>1646</ele>
        <time>2010-01-01T08:38:36Z</time>
      </trkpt>
      <trkpt lat="42.75562" lon="-0.47314">
        <ele>1643</ele>
        <time>2010-01-01T08:38:39Z</time>
      </trkpt>
      <trkpt lat="42.75581" lon="-0.47334">
        <ele>1635</ele>
        <time>2010-01-01T08:38:49Z</time>
      </trkpt>
      <trkpt lat="42.75593" lon="-0.47329">
        <ele>1631</ele>
        <time>2010-01-01T08:38:54Z</time>
      </trkpt>
      <trkpt lat="42.75607" lon="-0.47328">
        <ele>1626</ele>
        <time>2010-01-01T08:38:59Z</time>
      </trkpt>
      <trkpt lat="42.75616" lon="-0.47325">
        <ele>1624</ele>
        <time>2010-01-01T08:39:03Z</time>
      </trkpt>
      <trkpt lat="42.75618" lon="-0.47301">
        <ele>1625</ele>
        <time>2010-01-01T08:39:10Z</time>
      </trkpt>
      <trkpt lat="42.75617" lon="-0.47292">
        <ele>1626</ele>
        <time>2010-01-01T08:39:13Z</time>
      </trkpt>
      <trkpt lat="42.75621" lon="-0.47266">
        <ele>1628</ele>
        <time>2010-01-01T08:39:21Z</time>
      </trkpt>
      <trkpt lat="42.75607" lon="-0.47226">
        <ele>1637</ele>
        <time>2010-01-01T08:39:34Z</time>
      </trkpt>
      <trkpt lat="42.75611" lon="-0.47215">
        <ele>1636</ele>
        <time>2010-01-01T08:39:38Z</time>
      </trkpt>
      <trkpt lat="42.75616" lon="-0.47206">
        <ele>1635</ele>
        <time>2010-01-01T08:39:41Z</time>
      </trkpt>
      <trkpt lat="42.75621" lon="-0.47205">
        <ele>1634</ele>
        <time>2010-01-01T08:39:43Z</time>
      </trkpt>
      <trkpt lat="42.75627" lon="-0.47202">
        <ele>1634</ele>
        <time>2010-01-01T08:39:46Z</time>
      </trkpt>
      <trkpt lat="42.75634" lon="-0.47201">
        <ele>1633</ele>
        <time>2010-01-01T08:39:48Z</time>
      </trkpt>
      <trkpt lat="42.75639" lon="-0.47198">
        <ele>1633</ele>
        <time>2010-01-01T08:39:51Z</time>
      </trkpt>
      <trkpt lat="42.75638" lon="-0.47179">
        <ele>1635</ele>
        <time>2010-01-01T08:39:57Z</time>
      </trkpt>
      <trkpt lat="42.75645" lon="-0.4717">
        <ele>1637</ele>
        <time>2010-01-01T08:40:00Z</time>
      </trkpt>
      <trkpt lat="42.75653" lon="-0.47152">
        <ele>1640</ele>
        <time>2010-01-01T08:40:06Z</time>
      </trkpt>
      <trkpt lat="42.75658" lon="-0.47133">
        <ele>1644</ele>
        <time>2010-01-01T08:40:12Z</time>
      </trkpt>
      <trkpt lat="42.75667" lon="-0.47111">
        <ele>1646</ele>
        <time>2010-01-01T08:40:20Z</time>
      </trkpt>
      <trkpt lat="42.75668" lon="-0.47103">
        <ele>1647</ele>
        <time>2010-01-01T08:40:22Z</time>
      </trkpt>
      <trkpt lat="42.75679" lon="-0.47076">
        <ele>1648</ele>
        <time>2010-01-01T08:40:31Z</time>
      </trkpt>
      <trkpt lat="42.75686" lon="-0.47066">
        <ele>1648</ele>
        <time>2010-01-01T08:40:35Z</time>
      </trkpt>
      <trkpt lat="42.75694" lon="-0.4704">
        <ele>1651</ele>
        <time>2010-01-01T08:40:44Z</time>
      </trkpt>
      <trkpt lat="42.75695" lon="-0.47026">
        <ele>1653</ele>
        <time>2010-01-01T08:40:48Z</time>
      </trkpt>
      <trkpt lat="42.75709" lon="-0.46978">
        <ele>1664</ele>
        <time>2010-01-01T08:41:03Z</time>
      </trkpt>
      <trkpt lat="42.75705" lon="-0.46967">
        <ele>1666</ele>
        <time>2010-01-01T08:41:07Z</time>
      </trkpt>
      <trkpt lat="42.75703" lon="-0.46953">
        <ele>1668</ele>
        <time>2010-01-01T08:41:11Z</time>
      </trkpt>
      <trkpt lat="42.75704" lon="-0.46932">
        <ele>1672</ele>
        <time>2010-01-01T08:41:17Z</time>
      </trkpt>
      <trkpt lat="42.7571" lon="-0.46882">
        <ele>1681</ele>
        <time>2010-01-01T08:41:32Z</time>
      </trkpt>
      <trkpt lat="42.7571" lon="-0.46864">
        <ele>1684</ele>
        <time>2010-01-01T08:41:37Z</time>
      </trkpt>
      <trkpt lat="42.75709" lon="-0.46856">
        <ele>1685</ele>
        <time>2010-01-01T08:41:40Z</time>
      </trkpt>
      <trkpt lat="42.75705" lon="-0.4685">
        <ele>1685</ele>
        <time>2010-01-01T08:41:42Z</time>
      </trkpt>
      <trkpt lat="42.75703" lon="-0.46831">
        <ele>1687</ele>
        <time>2010-01-01T08:41:48Z</time>
      </trkpt>
      <trkpt lat="42.75698" lon="-0.46811">
        <ele>1689</ele>
        <time>2010-01-01T08:41:54Z</time>
      </trkpt>
      <trkpt lat="42.75694" lon="-0.46806">
        <ele>1690</ele>
        <time>2010-01-01T08:41:56Z</time>
      </trkpt>
      <trkpt lat="42.75685" lon="-0.46753">
        <ele>1698</ele>
        <time>2010-01-01T08:42:12Z</time>
      </trkpt>
      <trkpt lat="42.75675" lon="-0.46736">
        <ele>1701</ele>
        <time>2010-01-01T08:42:18Z</time>
      </trkpt>
      <trkpt lat="42.75667" lon="-0.46736">
        <ele>1702</ele>
        <time>2010-01-01T08:42:22Z</time>
      </trkpt>
      <trkpt lat="42.75662" lon="-0.46732">
        <ele>1703</ele>
        <time>2010-01-01T08:42:24Z</time>
      </trkpt>
      <trkpt lat="42.75646" lon="-0.46734">
        <ele>1705</ele>
        <time>2010-01-01T08:42:30Z</time>
      </trkpt>
      <trkpt lat="42.75624" lon="-0.46727">
        <ele>1708</ele>
        <time>2010-01-01T08:42:39Z</time>
      </trkpt>
      <trkpt lat="42.75602" lon="-0.46717">
        <ele>1714</ele>
        <time>2010-01-01T08:42:49Z</time>
      </trkpt>
      <trkpt lat="42.75591" lon="-0.46715">
        <ele>1717</ele>
        <time>2010-01-01T08:42:53Z</time>
      </trkpt>
      <trkpt lat="42.75575" lon="-0.46705">
        <ele>1722</ele>
        <time>2010-01-01T08:43:00Z</time>
      </trkpt>
      <trkpt lat="42.75556" lon="-0.46704">
        <ele>1726</ele>
        <time>2010-01-01T08:43:08Z</time>
      </trkpt>
      <trkpt lat="42.75546" lon="-0.46701">
        <ele>1729</ele>
        <time>2010-01-01T08:43:12Z</time>
      </trkpt>
      <trkpt lat="42.75539" lon="-0.46707">
        <ele>1731</ele>
        <time>2010-01-01T08:43:15Z</time>
      </trkpt>
      <trkpt lat="42.75531" lon="-0.467">
        <ele>1734</ele>
        <time>2010-01-01T08:43:19Z</time>
      </trkpt>
      <trkpt lat="42.75515" lon="-0.46697">
        <ele>1742</ele>
        <time>2010-01-01T08:43:25Z</time>
      </trkpt>
      <trkpt lat="42.75508" lon="-0.46694">
        <ele>1746</ele>
        <time>2010-01-01T08:43:28Z</time>
      </trkpt>
      <trkpt lat="42.75498" lon="-0.46692">
        <ele>1750</ele>
        <time>2010-01-01T08:43:32Z</time>
      </trkpt>
      <trkpt lat="42.75492" lon="-0.46689">
        <ele>1752</ele>
        <time>2010-01-01T08:43:35Z</time>
      </trkpt>
      <trkpt lat="42.75473" lon="-0.46677">
        <ele>1758</ele>
        <time>2010-01-01T08:43:43Z</time>
      </trkpt>
      <trkpt lat="42.75464" lon="-0.46668">
        <ele>1762</ele>
        <time>2010-01-01T08:43:48Z</time>
      </trkpt>
      <trkpt lat="42.75457" lon="-0.46659">
        <ele>1767</ele>
        <time>2010-01-01T08:43:51Z</time>
      </trkpt>
      <trkpt lat="42.75447" lon="-0.46652">
        <ele>1772</ele>
        <time>2010-01-01T08:43:56Z</time>
      </trkpt>
      <trkpt lat="42.75442" lon="-0.46654">
        <ele>1775</ele>
        <time>2010-01-01T08:43:58Z</time>
      </trkpt>
      <trkpt lat="42.7543" lon="-0.46644">
        <ele>1787</ele>
        <time>2010-01-01T08:44:04Z</time>
      </trkpt>
      <trkpt lat="42.75426" lon="-0.46634">
        <ele>1793</ele>
        <time>2010-01-01T08:44:07Z</time>
      </trkpt>
      <trkpt lat="42.7542" lon="-0.46628">
        <ele>1800</ele>
        <time>2010-01-01T08:44:10Z</time>
      </trkpt>
      <trkpt lat="42.75421" lon="-0.46616">
        <ele>1803</ele>
        <time>2010-01-01T08:44:13Z</time>
      </trkpt>
      <trkpt lat="42.75415" lon="-0.46612">
        <ele>1810</ele>
        <time>2010-01-01T08:44:16Z</time>
      </trkpt>
      <trkpt lat="42.75408" lon="-0.46599">
        <ele>1813</ele>
        <time>2010-01-01T08:44:21Z</time>
      </trkpt>
      <trkpt lat="42.75399" lon="-0.46589">
        <ele>1817</ele>
        <time>2010-01-01T08:44:26Z</time>
      </trkpt>
      <trkpt lat="42.7539" lon="-0.46569">
        <ele>1823</ele>
        <time>2010-01-01T08:44:32Z</time>
      </trkpt>
      <trkpt lat="42.75375" lon="-0.46556">
        <ele>1829</ele>
        <time>2010-01-01T08:44:40Z</time>
      </trkpt>
      <trkpt lat="42.7537" lon="-0.46549">
        <ele>1831</ele>
        <time>2010-01-01T08:44:43Z</time>
      </trkpt>
      <trkpt lat="42.75362" lon="-0.46544">
        <ele>1834</ele>
        <time>2010-01-01T08:44:46Z</time>
      </trkpt>
      <trkpt lat="42.75351" lon="-0.46541">
        <ele>1837</ele>
        <time>2010-01-01T08:44:50Z</time>
      </trkpt>
      <trkpt lat="42.75337" lon="-0.46528">
        <ele>1842</ele>
        <time>2010-01-01T08:44:57Z</time>
      </trkpt>
      <trkpt lat="42.75331" lon="-0.46519">
        <ele>1844</ele>
        <time>2010-01-01T08:45:01Z</time>
      </trkpt>
      <trkpt lat="42.75321" lon="-0.46514">
        <ele>1847</ele>
        <time>2010-01-01T08:45:05Z</time>
      </trkpt>
      <trkpt lat="42.75306" lon="-0.46495">
        <ele>1854</ele>
        <time>2010-01-01T08:45:13Z</time>
      </trkpt>
      <trkpt lat="42.75296" lon="-0.4649">
        <ele>1859</ele>
        <time>2010-01-01T08:45:17Z</time>
      </trkpt>
      <trkpt lat="42.75283" lon="-0.46478">
        <ele>1867</ele>
        <time>2010-01-01T08:45:24Z</time>
      </trkpt>
      <trkpt lat="42.75278" lon="-0.46475">
        <ele>1870</ele>
        <time>2010-01-01T08:45:26Z</time>
      </trkpt>
      <trkpt lat="42.75275" lon="-0.46468">
        <ele>1873</ele>
        <time>2010-01-01T08:45:28Z</time>
      </trkpt>
      <trkpt lat="42.75265" lon="-0.46465">
        <ele>1878</ele>
        <time>2010-01-01T08:45:33Z</time>
      </trkpt>
      <trkpt lat="42.75262" lon="-0.46458">
        <ele>1882</ele>
        <time>2010-01-01T08:45:35Z</time>
      </trkpt>
      <trkpt lat="42.75255" lon="-0.46449">
        <ele>1890</ele>
        <time>2010-01-01T08:45:39Z</time>
      </trkpt>
      <trkpt lat="42.75243" lon="-0.46439">
        <ele>1900</ele>
        <time>2010-01-01T08:45:44Z</time>
      </trkpt>
      <trkpt lat="42.75238" lon="-0.4643">
        <ele>1904</ele>
        <time>2010-01-01T08:45:48Z</time>
      </trkpt>
      <trkpt lat="42.75232" lon="-0.46427">
        <ele>1907</ele>
        <time>2010-01-01T08:45:50Z</time>
      </trkpt>
      <trkpt lat="42.7522" lon="-0.46414">
        <ele>1915</ele>
        <time>2010-01-01T08:45:56Z</time>
      </trkpt>
      <trkpt lat="42.75206" lon="-0.46402">
        <ele>1922</ele>
        <time>2010-01-01T08:46:03Z</time>
      </trkpt>
      <trkpt lat="42.75205" lon="-0.46389">
        <ele>1926</ele>
        <time>2010-01-01T08:46:07Z</time>
      </trkpt>
      <trkpt lat="42.75193" lon="-0.46385">
        <ele>1930</ele>
        <time>2010-01-01T08:46:12Z</time>
      </trkpt>
      <trkpt lat="42.75188" lon="-0.46387">
        <ele>1931</ele>
        <time>2010-01-01T08:46:14Z</time>
      </trkpt>
      <trkpt lat="42.75187" lon="-0.46378">
        <ele>1933</ele>
        <time>2010-01-01T08:46:16Z</time>
      </trkpt>
      <trkpt lat="42.75181" lon="-0.46369">
        <ele>1936</ele>
        <time>2010-01-01T08:46:20Z</time>
      </trkpt>
      <trkpt lat="42.75178" lon="-0.46361">
        <ele>1938</ele>
        <time>2010-01-01T08:46:22Z</time>
      </trkpt>
      <trkpt lat="42.75176" lon="-0.46354">
        <ele>1940</ele>
        <time>2010-01-01T08:46:25Z</time>
      </trkpt>
      <trkpt lat="42.75175" lon="-0.46339">
        <ele>1943</ele>
        <time>2010-01-01T08:46:29Z</time>
      </trkpt>
      <trkpt lat="42.75157" lon="-0.46302">
        <ele>1956</ele>
        <time>2010-01-01T08:46:42Z</time>
      </trkpt>
      <trkpt lat="42.75153" lon="-0.46241">
        <ele>1960</ele>
        <time>2010-01-01T08:47:00Z</time>
      </trkpt>
      <trkpt lat="42.75154" lon="-0.46232">
        <ele>1961</ele>
        <time>2010-01-01T08:47:03Z</time>
      </trkpt>
      <trkpt lat="42.75152" lon="-0.46213">
        <ele>1963</ele>
        <time>2010-01-01T08:47:08Z</time>
      </trkpt>
      <trkpt lat="42.75151" lon="-0.46186">
        <ele>1963</ele>
        <time>2010-01-01T08:47:16Z</time>
      </trkpt>
      <trkpt lat="42.75145" lon="-0.46163">
        <ele>1964</ele>
        <time>2010-01-01T08:47:23Z</time>
      </trkpt>
      <trkpt lat="42.75147" lon="-0.46096">
        <ele>1955</ele>
        <time>2010-01-01T08:47:43Z</time>
      </trkpt>
      <trkpt lat="42.75146" lon="-0.46081">
        <ele>1955</ele>
        <time>2010-01-01T08:47:47Z</time>
      </trkpt>
      <trkpt lat="42.75137" lon="-0.46052">
        <ele>1956</ele>
        <time>2010-01-01T08:47:57Z</time>
      </trkpt>
      <trkpt lat="42.75134" lon="-0.46028">
        <ele>1953</ele>
        <time>2010-01-01T08:48:04Z</time>
      </trkpt>
      <trkpt lat="42.75126" lon="-0.46009">
        <ele>1951</ele>
        <time>2010-01-01T08:48:10Z</time>
      </trkpt>
      <trkpt lat="42.75113" lon="-0.45965">
        <ele>1948</ele>
        <time>2010-01-01T08:48:24Z</time>
      </trkpt>
      <trkpt lat="42.75114" lon="-0.45935">
        <ele>1946</ele>
        <time>2010-01-01T08:48:33Z</time>
      </trkpt>
      <trkpt lat="42.75119" lon="-0.45897">
        <ele>1949</ele>
        <time>2010-01-01T08:48:44Z</time>
      </trkpt>
      <trkpt lat="42.7512" lon="-0.45857">
        <ele>1955</ele>
        <time>2010-01-01T08:48:56Z</time>
      </trkpt>
      <trkpt lat="42.75128" lon="-0.45827">
        <ele>1957</ele>
        <time>2010-01-01T08:49:05Z</time>
      </trkpt>
      <trkpt lat="42.75146" lon="-0.45811">
        <ele>1956</ele>
        <time>2010-01-01T08:49:14Z</time>
      </trkpt>
      <trkpt lat="42.75151" lon="-0.45802">
        <ele>1956</ele>
        <time>2010-01-01T08:49:17Z</time>
      </trkpt>
      <trkpt lat="42.75155" lon="-0.4579">
        <ele>1958</ele>
        <time>2010-01-01T08:49:21Z</time>
      </trkpt>
      <trkpt lat="42.75153" lon="-0.45771">
        <ele>1960</ele>
        <time>2010-01-01T08:49:27Z</time>
      </trkpt>
      <trkpt lat="42.75154" lon="-0.45733">
        <ele>1965</ele>
        <time>2010-01-01T08:49:38Z</time>
      </trkpt>
      <trkpt lat="42.75151" lon="-0.45716">
        <ele>1967</ele>
        <time>2010-01-01T08:49:43Z</time>
      </trkpt>
      <trkpt lat="42.75142" lon="-0.45698">
        <ele>1967</ele>
        <time>2010-01-01T08:49:50Z</time>
      </trkpt>
      <trkpt lat="42.75145" lon="-0.45677">
        <ele>1965</ele>
        <time>2010-01-01T08:49:56Z</time>
      </trkpt>
      <trkpt lat="42.75132" lon="-0.45647">
        <ele>1966</ele>
        <time>2010-01-01T08:50:06Z</time>
      </trkpt>
      <trkpt lat="42.75127" lon="-0.45628">
        <ele>1966</ele>
        <time>2010-01-01T08:50:12Z</time>
      </trkpt>
      <trkpt lat="42.75111" lon="-0.45602">
        <ele>1967</ele>
        <time>2010-01-01T08:50:22Z</time>
      </trkpt>
      <trkpt lat="42.75091" lon="-0.45573">
        <ele>1968</ele>
        <time>2010-01-01T08:50:34Z</time>
      </trkpt>
      <trkpt lat="42.75086" lon="-0.45569">
        <ele>1968</ele>
        <time>2010-01-01T08:50:36Z</time>
      </trkpt>
      <trkpt lat="42.75074" lon="-0.45549">
        <ele>1968</ele>
        <time>2010-01-01T08:50:44Z</time>
      </trkpt>
      <trkpt lat="42.75064" lon="-0.45524">
        <ele>1967</ele>
        <time>2010-01-01T08:50:52Z</time>
      </trkpt>
      <trkpt lat="42.75052" lon="-0.45502">
        <ele>1966</ele>
        <time>2010-01-01T08:51:00Z</time>
      </trkpt>
      <trkpt lat="42.7505" lon="-0.45493">
        <ele>1966</ele>
        <time>2010-01-01T08:51:03Z</time>
      </trkpt>
      <trkpt lat="42.75052" lon="-0.45479">
        <ele>1966</ele>
        <time>2010-01-01T08:51:07Z</time>
      </trkpt>
      <trkpt lat="42.75055" lon="-0.45473">
        <ele>1966</ele>
        <time>2010-01-01T08:51:09Z</time>
      </trkpt>
      <trkpt lat="42.75056" lon="-0.45448">
        <ele>1965</ele>
        <time>2010-01-01T08:51:17Z</time>
      </trkpt>
      <trkpt lat="42.75052" lon="-0.45428">
        <ele>1965</ele>
        <time>2010-01-01T08:51:23Z</time>
      </trkpt>
      <trkpt lat="42.75057" lon="-0.45398">
        <ele>1966</ele>
        <time>2010-01-01T08:51:32Z</time>
      </trkpt>
      <trkpt lat="42.75063" lon="-0.45381">
        <ele>1965</ele>
        <time>2010-01-01T08:51:37Z</time>
      </trkpt>
      <trkpt lat="42.75063" lon="-0.45353">
        <ele>1965</ele>
        <time>2010-01-01T08:51:45Z</time>
      </trkpt>
      <trkpt lat="42.75051" lon="-0.453">
        <ele>1971</ele>
        <time>2010-01-01T08:52:02Z</time>
      </trkpt>
      <trkpt lat="42.75051" lon="-0.45287">
        <ele>1971</ele>
        <time>2010-01-01T08:52:06Z</time>
      </trkpt>
      <trkpt lat="42.75049" lon="-0.45276">
        <ele>1973</ele>
        <time>2010-01-01T08:52:09Z</time>
      </trkpt>
      <trkpt lat="42.75049" lon="-0.45263">
        <ele>1974</ele>
        <time>2010-01-01T08:52:13Z</time>
      </trkpt>
      <trkpt lat="42.75045" lon="-0.45253">
        <ele>1976</ele>
        <time>2010-01-01T08:52:16Z</time>
      </trkpt>
      <trkpt lat="42.75045" lon="-0.45235">
        <ele>1977</ele>
        <time>2010-01-01T08:52:21Z</time>
      </trkpt>
      <trkpt lat="42.7505" lon="-0.4522">
        <ele>1976</ele>
        <time>2010-01-01T08:52:26Z</time>
      </trkpt>
      <trkpt lat="42.75053" lon="-0.45204">
        <ele>1976</ele>
        <time>2010-01-01T08:52:31Z</time>
      </trkpt>
      <trkpt lat="42.75049" lon="-0.45197">
        <ele>1979</ele>
        <time>2010-01-01T08:52:34Z</time>
      </trkpt>
      <trkpt lat="42.75049" lon="-0.45182">
        <ele>1980</ele>
        <time>2010-01-01T08:52:38Z</time>
      </trkpt>
      <trkpt lat="42.7504" lon="-0.45153">
        <ele>1984</ele>
        <time>2010-01-01T08:52:47Z</time>
      </trkpt>
      <trkpt lat="42.75044" lon="-0.45134">
        <ele>1984</ele>
        <time>2010-01-01T08:52:53Z</time>
      </trkpt>
      <trkpt lat="42.7504" lon="-0.45119">
        <ele>1985</ele>
        <time>2010-01-01T08:52:58Z</time>
      </trkpt>
      <trkpt lat="42.75034" lon="-0.45103">
        <ele>1987</ele>
        <time>2010-01-01T08:53:03Z</time>
      </trkpt>
      <trkpt lat="42.75027" lon="-0.4509">
        <ele>1990</ele>
        <time>2010-01-01T08:53:08Z</time>
      </trkpt>
      <trkpt lat="42.75026" lon="-0.45082">
        <ele>1991</ele>
        <time>2010-01-01T08:53:10Z</time>
      </trkpt>
      <trkpt lat="42.75013" lon="-0.45067">
        <ele>1995</ele>
        <time>2010-01-01T08:53:17Z</time>
      </trkpt>
      <trkpt lat="42.75005" lon="-0.45065">
        <ele>1997</ele>
        <time>2010-01-01T08:53:20Z</time>
      </trkpt>
      <trkpt lat="42.74997" lon="-0.45056">
        <ele>1999</ele>
        <time>2010-01-01T08:53:25Z</time>
      </trkpt>
      <trkpt lat="42.74983" lon="-0.45034">
        <ele>2003</ele>
        <time>2010-01-01T08:53:33Z</time>
      </trkpt>
      <trkpt lat="42.74966" lon="-0.45015">
        <ele>2009</ele>
        <time>2010-01-01T08:53:42Z</time>
      </trkpt>
      <trkpt lat="42.74961" lon="-0.45003">
        <ele>2012</ele>
        <time>2010-01-01T08:53:46Z</time>
      </trkpt>
      <trkpt lat="42.74948" lon="-0.44985">
        <ele>2017</ele>
        <time>2010-01-01T08:53:53Z</time>
      </trkpt>
      <trkpt lat="42.74938" lon="-0.44981">
        <ele>2019</ele>
        <time>2010-01-01T08:53:58Z</time>
      </trkpt>
      <trkpt lat="42.74929" lon="-0.44962">
        <ele>2020</ele>
        <time>2010-01-01T08:54:04Z</time>
      </trkpt>
      <trkpt lat="42.74922" lon="-0.44926">
        <ele>2022</ele>
        <time>2010-01-01T08:54:15Z</time>
      </trkpt>
      <trkpt lat="42.74906" lon="-0.44917">
        <ele>2023</ele>
        <time>2010-01-01T08:54:22Z</time>
      </trkpt>
      <trkpt lat="42.74885" lon="-0.44889">
        <ele>2027</ele>
        <time>2010-01-01T08:54:34Z</time>
      </trkpt>
      <trkpt lat="42.74879" lon="-0.44871">
        <ele>2032</ele>
        <time>2010-01-01T08:54:39Z</time>
      </trkpt>
      <trkpt lat="42.74851" lon="-0.44852">
        <ele>2039</ele>
        <time>2010-01-01T08:54:52Z</time>
      </trkpt>
      <trkpt lat="42.74804" lon="-0.44839">
        <ele>2050</ele>
        <time>2010-01-01T08:55:11Z</time>
      </trkpt>
      <trkpt lat="42.74764" lon="-0.4482">
        <ele>2058</ele>
        <time>2010-01-01T08:55:28Z</time>
      </trkpt>
      <trkpt lat="42.74757" lon="-0.4481">
        <ele>2061</ele>
        <time>2010-01-01T08:55:33Z</time>
      </trkpt>
      <trkpt lat="42.74748" lon="-0.44802">
        <ele>2063</ele>
        <time>2010-01-01T08:55:37Z</time>
      </trkpt>
      <trkpt lat="42.74759" lon="-0.44789">
        <ele>2064</ele>
        <time>2010-01-01T08:55:43Z</time>
      </trkpt>
      <trkpt lat="42.74758" lon="-0.4478">
        <ele>2066</ele>
        <time>2010-01-01T08:55:45Z</time>
      </trkpt>
      <trkpt lat="42.74752" lon="-0.44766">
        <ele>2067</ele>
        <time>2010-01-01T08:55:50Z</time>
      </trkpt>
      <trkpt lat="42.7475" lon="-0.44751">
        <ele>2068</ele>
        <time>2010-01-01T08:55:54Z</time>
      </trkpt>
      <trkpt lat="42.74757" lon="-0.44733">
        <ele>2069</ele>
        <time>2010-01-01T08:56:00Z</time>
      </trkpt>
      <trkpt lat="42.74766" lon="-0.44705">
        <ele>2070</ele>
        <time>2010-01-01T08:56:09Z</time>
      </trkpt>
      <trkpt lat="42.74776" lon="-0.4468">
        <ele>2071</ele>
        <time>2010-01-01T08:56:18Z</time>
      </trkpt>
      <trkpt lat="42.74779" lon="-0.44659">
        <ele>2072</ele>
        <time>2010-01-01T08:56:24Z</time>
      </trkpt>
      <trkpt lat="42.74785" lon="-0.44635">
        <ele>2072</ele>
        <time>2010-01-01T08:56:31Z</time>
      </trkpt>
      <trkpt lat="42.74786" lon="-0.4461">
        <ele>2074</ele>
        <time>2010-01-01T08:56:39Z</time>
      </trkpt>
      <trkpt lat="42.7478" lon="-0.44593">
        <ele>2076</ele>
        <time>2010-01-01T08:56:44Z</time>
      </trkpt>
      <trkpt lat="42.74764" lon="-0.44577">
        <ele>2079</ele>
        <time>2010-01-01T08:56:52Z</time>
      </trkpt>
      <trkpt lat="42.74749" lon="-0.44551">
        <ele>2083</ele>
        <time>2010-01-01T08:57:02Z</time>
      </trkpt>
      <trkpt lat="42.74737" lon="-0.44545">
        <ele>2084</ele>
        <time>2010-01-01T08:57:07Z</time>
      </trkpt>
      <trkpt lat="42.74722" lon="-0.44533">
        <ele>2084</ele>
        <time>2010-01-01T08:57:14Z</time>
      </trkpt>
      <trkpt lat="42.74711" lon="-0.44531">
        <ele>2083</ele>
        <time>2010-01-01T08:57:19Z</time>
      </trkpt>
      <trkpt lat="42.74689" lon="-0.44529">
        <ele>2081</ele>
        <time>2010-01-01T08:57:28Z</time>
      </trkpt>
      <trkpt lat="42.74675" lon="-0.44513">
        <ele>2080</ele>
        <time>2010-01-01T08:57:35Z</time>
      </trkpt>
      <trkpt lat="42.74641" lon="-0.44462">
        <ele>2082</ele>
        <time>2010-01-01T08:57:55Z</time>
      </trkpt>
      <trkpt lat="42.74628" lon="-0.44448">
        <ele>2084</ele>
        <time>2010-01-01T08:58:02Z</time>
      </trkpt>
      <trkpt lat="42.74612" lon="-0.44439">
        <ele>2086</ele>
        <time>2010-01-01T08:58:09Z</time>
      </trkpt>
      <trkpt lat="42.74591" lon="-0.44424">
        <ele>2090</ele>
        <time>2010-01-01T08:58:18Z</time>
      </trkpt>
      <trkpt lat="42.74559" lon="-0.44409">
        <ele>2101</ele>
        <time>2010-01-01T08:58:32Z</time>
      </trkpt>
      <trkpt lat="42.74542" lon="-0.44397">
        <ele>2101</ele>
        <time>2010-01-01T08:58:39Z</time>
      </trkpt>
      <trkpt lat="42.74527" lon="-0.44391">
        <ele>2101</ele>
        <time>2010-01-01T08:58:46Z</time>
      </trkpt>
      <trkpt lat="42.74489" lon="-0.44346">
        <ele>2094</ele>
        <time>2010-01-01T08:59:06Z</time>
      </trkpt>
      <trkpt lat="42.74471" lon="-0.44339">
        <ele>2097</ele>
        <time>2010-01-01T08:59:13Z</time>
      </trkpt>
      <trkpt lat="42.74463" lon="-0.44333">
        <ele>2097</ele>
        <time>2010-01-01T08:59:17Z</time>
      </trkpt>
      <trkpt lat="42.74445" lon="-0.44322">
        <ele>2099</ele>
        <time>2010-01-01T08:59:25Z</time>
      </trkpt>
      <trkpt lat="42.74415" lon="-0.44302">
        <ele>2100</ele>
        <time>2010-01-01T08:59:38Z</time>
      </trkpt>
      <trkpt lat="42.74389" lon="-0.44294">
        <ele>2100</ele>
        <time>2010-01-01T08:59:49Z</time>
      </trkpt>
      <trkpt lat="42.74382" lon="-0.44282">
        <ele>2102</ele>
        <time>2010-01-01T08:59:53Z</time>
      </trkpt>
      <trkpt lat="42.74363" lon="-0.44264">
        <ele>2109</ele>
        <time>2010-01-01T09:00:03Z</time>
      </trkpt>
      <trkpt lat="42.74367" lon="-0.44239">
        <ele>2109</ele>
        <time>2010-01-01T09:00:10Z</time>
      </trkpt>
      <trkpt lat="42.74391" lon="-0.44218">
        <ele>2107</ele>
        <time>2010-01-01T09:00:22Z</time>
      </trkpt>
      <trkpt lat="42.74398" lon="-0.44199">
        <ele>2108</ele>
        <time>2010-01-01T09:00:28Z</time>
      </trkpt>
      <trkpt lat="42.74406" lon="-0.44196">
        <ele>2107</ele>
        <time>2010-01-01T09:00:31Z</time>
      </trkpt>
      <trkpt lat="42.74401" lon="-0.44188">
        <ele>2107</ele>
        <time>2010-01-01T09:00:35Z</time>
      </trkpt>
      <trkpt lat="42.74377" lon="-0.44176">
        <ele>2109</ele>
        <time>2010-01-01T09:00:45Z</time>
      </trkpt>
      <trkpt lat="42.74367" lon="-0.44167">
        <ele>2110</ele>
        <time>2010-01-01T09:00:50Z</time>
      </trkpt>
      <trkpt lat="42.7436" lon="-0.44164">
        <ele>2111</ele>
        <time>2010-01-01T09:00:53Z</time>
      </trkpt>
      <trkpt lat="42.74349" lon="-0.44163">
        <ele>2113</ele>
        <time>2010-01-01T09:00:57Z</time>
      </trkpt>
      <trkpt lat="42.74342" lon="-0.4415">
        <ele>2114</ele>
        <time>2010-01-01T09:01:02Z</time>
      </trkpt>
      <trkpt lat="42.74338" lon="-0.44105">
        <ele>2114</ele>
        <time>2010-01-01T09:01:15Z</time>
      </trkpt>
      <trkpt lat="42.7432" lon="-0.44081">
        <ele>2117</ele>
        <time>2010-01-01T09:01:25Z</time>
      </trkpt>
      <trkpt lat="42.74298" lon="-0.44075">
        <ele>2119</ele>
        <time>2010-01-01T09:01:34Z</time>
      </trkpt>
      <trkpt lat="42.74289" lon="-0.44062">
        <ele>2118</ele>
        <time>2010-01-01T09:01:39Z</time>
      </trkpt>
      <trkpt lat="42.74276" lon="-0.44056">
        <ele>2118</ele>
        <time>2010-01-01T09:01:45Z</time>
      </trkpt>
      <trkpt lat="42.74255" lon="-0.4404">
        <ele>2121</ele>
        <time>2010-01-01T09:01:55Z</time>
      </trkpt>
      <trkpt lat="42.74245" lon="-0.44028">
        <ele>2120</ele>
        <time>2010-01-01T09:02:00Z</time>
      </trkpt>
      <trkpt lat="42.74216" lon="-0.4401">
        <ele>2120</ele>
        <time>2010-01-01T09:02:13Z</time>
      </trkpt>
      <trkpt lat="42.74205" lon="-0.43992">
        <ele>2120</ele>
        <time>2010-01-01T09:02:19Z</time>
      </trkpt>
      <trkpt lat="42.74191" lon="-0.43975">
        <ele>2122</ele>
        <time>2010-01-01T09:02:27Z</time>
      </trkpt>
      <trkpt lat="42.74183" lon="-0.43938">
        <ele>2126</ele>
        <time>2010-01-01T09:02:38Z</time>
      </trkpt>
      <trkpt lat="42.74184" lon="-0.43928">
        <ele>2126</ele>
        <time>2010-01-01T09:02:41Z</time>
      </trkpt>
      <trkpt lat="42.74176" lon="-0.43904">
        <ele>2124</ele>
        <time>2010-01-01T09:02:49Z</time>
      </trkpt>
      <trkpt lat="42.74165" lon="-0.43884">
        <ele>2123</ele>
        <time>2010-01-01T09:02:57Z</time>
      </trkpt>
      <trkpt lat="42.7414" lon="-0.43874">
        <ele>2123</ele>
        <time>2010-01-01T09:03:07Z</time>
      </trkpt>
      <trkpt lat="42.74136" lon="-0.43861">
        <ele>2124</ele>
        <time>2010-01-01T09:03:11Z</time>
      </trkpt>
      <trkpt lat="42.74136" lon="-0.43849">
        <ele>2125</ele>
        <time>2010-01-01T09:03:15Z</time>
      </trkpt>
      <trkpt lat="42.74131" lon="-0.43845">
        <ele>2125</ele>
        <time>2010-01-01T09:03:17Z</time>
      </trkpt>
      <trkpt lat="42.74134" lon="-0.43836">
        <ele>2126</ele>
        <time>2010-01-01T09:03:20Z</time>
      </trkpt>
      <trkpt lat="42.74107" lon="-0.43795">
        <ele>2129</ele>
        <time>2010-01-01T09:03:36Z</time>
      </trkpt>
      <trkpt lat="42.74093" lon="-0.43761">
        <ele>2128</ele>
        <time>2010-01-01T09:03:48Z</time>
      </trkpt>
      <trkpt lat="42.74082" lon="-0.43743">
        <ele>2128</ele>
        <time>2010-01-01T09:03:55Z</time>
      </trkpt>
      <trkpt lat="42.74083" lon="-0.43737">
        <ele>2128</ele>
        <time>2010-01-01T09:03:57Z</time>
      </trkpt>
      <trkpt lat="42.74075" lon="-0.43712">
        <ele>2130</ele>
        <time>2010-01-01T09:04:04Z</time>
      </trkpt>
      <trkpt lat="42.74068" lon="-0.43713">
        <ele>2131</ele>
        <time>2010-01-01T09:04:07Z</time>
      </trkpt>
      <trkpt lat="42.74063" lon="-0.43712">
        <ele>2132</ele>
        <time>2010-01-01T09:04:09Z</time>
      </trkpt>
      <trkpt lat="42.74045" lon="-0.43696">
        <ele>2138</ele>
        <time>2010-01-01T09:04:18Z</time>
      </trkpt>
      <trkpt lat="42.74042" lon="-0.43689">
        <ele>2139</ele>
        <time>2010-01-01T09:04:20Z</time>
      </trkpt>
      <trkpt lat="42.74021" lon="-0.43669">
        <ele>2146</ele>
        <time>2010-01-01T09:04:31Z</time>
      </trkpt>
      <trkpt lat="42.74016" lon="-0.43666">
        <ele>2147</ele>
        <time>2010-01-01T09:04:33Z</time>
      </trkpt>
      <trkpt lat="42.74005" lon="-0.43655">
        <ele>2150</ele>
        <time>2010-01-01T09:04:38Z</time>
      </trkpt>
      <trkpt lat="42.73991" lon="-0.43644">
        <ele>2152</ele>
        <time>2010-01-01T09:04:45Z</time>
      </trkpt>
      <trkpt lat="42.73976" lon="-0.43642">
        <ele>2154</ele>
        <time>2010-01-01T09:04:51Z</time>
      </trkpt>
      <trkpt lat="42.73966" lon="-0.43637">
        <ele>2155</ele>
        <time>2010-01-01T09:04:55Z</time>
      </trkpt>
      <trkpt lat="42.73952" lon="-0.43621">
        <ele>2157</ele>
        <time>2010-01-01T09:05:02Z</time>
      </trkpt>
      <trkpt lat="42.73945" lon="-0.43617">
        <ele>2158</ele>
        <time>2010-01-01T09:05:05Z</time>
      </trkpt>
      <trkpt lat="42.7394" lon="-0.43611">
        <ele>2159</ele>
        <time>2010-01-01T09:05:08Z</time>
      </trkpt>
      <trkpt lat="42.73934" lon="-0.43574">
        <ele>2158</ele>
        <time>2010-01-01T09:05:19Z</time>
      </trkpt>
      <trkpt lat="42.73926" lon="-0.43563">
        <ele>2157</ele>
        <time>2010-01-01T09:05:24Z</time>
      </trkpt>
      <trkpt lat="42.73905" lon="-0.43523">
        <ele>2153</ele>
        <time>2010-01-01T09:05:38Z</time>
      </trkpt>
      <trkpt lat="42.73893" lon="-0.43516">
        <ele>2154</ele>
        <time>2010-01-01T09:05:43Z</time>
      </trkpt>
      <trkpt lat="42.73887" lon="-0.4351">
        <ele>2153</ele>
        <time>2010-01-01T09:05:46Z</time>
      </trkpt>
      <trkpt lat="42.73882" lon="-0.43511">
        <ele>2154</ele>
        <time>2010-01-01T09:05:48Z</time>
      </trkpt>
      <trkpt lat="42.73865" lon="-0.43524">
        <ele>2160</ele>
        <time>2010-01-01T09:05:56Z</time>
      </trkpt>
      <trkpt lat="42.73854" lon="-0.43515">
        <ele>2159</ele>
        <time>2010-01-01T09:06:01Z</time>
      </trkpt>
      <trkpt lat="42.73844" lon="-0.43502">
        <ele>2157</ele>
        <time>2010-01-01T09:06:07Z</time>
      </trkpt>
      <trkpt lat="42.73833" lon="-0.43498">
        <ele>2158</ele>
        <time>2010-01-01T09:06:12Z</time>
      </trkpt>
      <trkpt lat="42.73833" lon="-0.43491">
        <ele>2157</ele>
        <time>2010-01-01T09:06:14Z</time>
      </trkpt>
      <trkpt lat="42.73823" lon="-0.43479">
        <ele>2159</ele>
        <time>2010-01-01T09:06:19Z</time>
      </trkpt>
      <trkpt lat="42.73816" lon="-0.43464">
        <ele>2161</ele>
        <time>2010-01-01T09:06:24Z</time>
      </trkpt>
      <trkpt lat="42.73811" lon="-0.43446">
        <ele>2163</ele>
        <time>2010-01-01T09:06:30Z</time>
      </trkpt>
      <trkpt lat="42.73806" lon="-0.43435">
        <ele>2166</ele>
        <time>2010-01-01T09:06:34Z</time>
      </trkpt>
      <trkpt lat="42.73803" lon="-0.43425">
        <ele>2168</ele>
        <time>2010-01-01T09:06:37Z</time>
      </trkpt>
      <trkpt lat="42.73798" lon="-0.43422">
        <ele>2171</ele>
        <time>2010-01-01T09:06:39Z</time>
      </trkpt>
      <trkpt lat="42.73789" lon="-0.43414">
        <ele>2175</ele>
        <time>2010-01-01T09:06:43Z</time>
      </trkpt>
      <trkpt lat="42.73789" lon="-0.43396">
        <ele>2175</ele>
        <time>2010-01-01T09:06:49Z</time>
      </trkpt>
      <trkpt lat="42.73785" lon="-0.4338">
        <ele>2177</ele>
        <time>2010-01-01T09:06:53Z</time>
      </trkpt>
      <trkpt lat="42.73772" lon="-0.43365">
        <ele>2183</ele>
        <time>2010-01-01T09:07:00Z</time>
      </trkpt>
      <trkpt lat="42.73766" lon="-0.43359">
        <ele>2186</ele>
        <time>2010-01-01T09:07:03Z</time>
      </trkpt>
      <trkpt lat="42.73766" lon="-0.43351">
        <ele>2186</ele>
        <time>2010-01-01T09:07:06Z</time>
      </trkpt>
      <trkpt lat="42.73757" lon="-0.43338">
        <ele>2190</ele>
        <time>2010-01-01T09:07:11Z</time>
      </trkpt>
      <trkpt lat="42.73753" lon="-0.43336">
        <ele>2191</ele>
        <time>2010-01-01T09:07:13Z</time>
      </trkpt>
      <trkpt lat="42.73748" lon="-0.43337">
        <ele>2194</ele>
        <time>2010-01-01T09:07:15Z</time>
      </trkpt>
      <trkpt lat="42.73739" lon="-0.43331">
        <ele>2199</ele>
        <time>2010-01-01T09:07:19Z</time>
      </trkpt>
      <trkpt lat="42.73738" lon="-0.43324">
        <ele>2201</ele>
        <time>2010-01-01T09:07:21Z</time>
      </trkpt>
      <trkpt lat="42.73726" lon="-0.43307">
        <ele>2214</ele>
        <time>2010-01-01T09:07:27Z</time>
      </trkpt>
      <trkpt lat="42.73725" lon="-0.43298">
        <ele>2216</ele>
        <time>2010-01-01T09:07:30Z</time>
      </trkpt>
      <trkpt lat="42.73722" lon="-0.43292">
        <ele>2218</ele>
        <time>2010-01-01T09:07:32Z</time>
      </trkpt>
      <trkpt lat="42.73718" lon="-0.43288">
        <ele>2222</ele>
        <time>2010-01-01T09:07:34Z</time>
      </trkpt>
      <trkpt lat="42.73717" lon="-0.43279">
        <ele>2223</ele>
        <time>2010-01-01T09:07:37Z</time>
      </trkpt>
      <trkpt lat="42.73711" lon="-0.43273">
        <ele>2228</ele>
        <time>2010-01-01T09:07:40Z</time>
      </trkpt>
      <trkpt lat="42.73707" lon="-0.4328">
        <ele>2230</ele>
        <time>2010-01-01T09:07:42Z</time>
      </trkpt>
      <trkpt lat="42.73704" lon="-0.43274">
        <ele>2233</ele>
        <time>2010-01-01T09:07:45Z</time>
      </trkpt>
      <trkpt lat="42.73695" lon="-0.4327">
        <ele>2241</ele>
        <time>2010-01-01T09:07:48Z</time>
      </trkpt>
      <trkpt lat="42.73683" lon="-0.43256">
        <ele>2244</ele>
        <time>2010-01-01T09:07:55Z</time>
      </trkpt>
      <trkpt lat="42.73674" lon="-0.43232">
        <ele>2241</ele>
        <time>2010-01-01T09:08:03Z</time>
      </trkpt>
      <trkpt lat="42.73671" lon="-0.43208">
        <ele>2239</ele>
        <time>2010-01-01T09:08:10Z</time>
      </trkpt>
      <trkpt lat="42.73671" lon="-0.43173">
        <ele>2238</ele>
        <time>2010-01-01T09:08:20Z</time>
      </trkpt>
      <trkpt lat="42.73677" lon="-0.43139">
        <ele>2236</ele>
        <time>2010-01-01T09:08:30Z</time>
      </trkpt>
      <trkpt lat="42.73676" lon="-0.43106">
        <ele>2235</ele>
        <time>2010-01-01T09:08:40Z</time>
      </trkpt>
      <trkpt lat="42.73678" lon="-0.43089">
        <ele>2236</ele>
        <time>2010-01-01T09:08:45Z</time>
      </trkpt>
      <trkpt lat="42.73691" lon="-0.43058">
        <ele>2240</ele>
        <time>2010-01-01T09:08:56Z</time>
      </trkpt>
      <trkpt lat="42.73698" lon="-0.43037">
        <ele>2242</ele>
        <time>2010-01-01T09:09:03Z</time>
      </trkpt>
      <trkpt lat="42.73699" lon="-0.43015">
        <ele>2242</ele>
        <time>2010-01-01T09:09:09Z</time>
      </trkpt>
      <trkpt lat="42.73711" lon="-0.42992">
        <ele>2242</ele>
        <time>2010-01-01T09:09:17Z</time>
      </trkpt>
      <trkpt lat="42.73709" lon="-0.42986">
        <ele>2243</ele>
        <time>2010-01-01T09:09:19Z</time>
      </trkpt>
      <trkpt lat="42.73715" lon="-0.42963">
        <ele>2246</ele>
        <time>2010-01-01T09:09:26Z</time>
      </trkpt>
      <trkpt lat="42.73719" lon="-0.42953">
        <ele>2249</ele>
        <time>2010-01-01T09:09:30Z</time>
      </trkpt>
      <trkpt lat="42.7374" lon="-0.42928">
        <ele>2252</ele>
        <time>2010-01-01T09:09:41Z</time>
      </trkpt>
      <trkpt lat="42.73745" lon="-0.42925">
        <ele>2253</ele>
        <time>2010-01-01T09:09:43Z</time>
      </trkpt>
      <trkpt lat="42.73759" lon="-0.42912">
        <ele>2252</ele>
        <time>2010-01-01T09:09:50Z</time>
      </trkpt>
      <trkpt lat="42.7378" lon="-0.42876">
        <ele>2255</ele>
        <time>2010-01-01T09:10:03Z</time>
      </trkpt>
      <trkpt lat="42.73813" lon="-0.42839">
        <ele>2252</ele>
        <time>2010-01-01T09:10:20Z</time>
      </trkpt>
      <trkpt lat="42.73824" lon="-0.42818">
        <ele>2255</ele>
        <time>2010-01-01T09:10:28Z</time>
      </trkpt>
      <trkpt lat="42.73835" lon="-0.42811">
        <ele>2255</ele>
        <time>2010-01-01T09:10:33Z</time>
      </trkpt>
      <trkpt lat="42.7384" lon="-0.42804">
        <ele>2257</ele>
        <time>2010-01-01T09:10:36Z</time>
      </trkpt>
      <trkpt lat="42.73846" lon="-0.428">
        <ele>2257</ele>
        <time>2010-01-01T09:10:38Z</time>
      </trkpt>
      <trkpt lat="42.73874" lon="-0.42779">
        <ele>2257</ele>
        <time>2010-01-01T09:10:51Z</time>
      </trkpt>
      <trkpt lat="42.73887" lon="-0.42779">
        <ele>2255</ele>
        <time>2010-01-01T09:10:57Z</time>
      </trkpt>
      <trkpt lat="42.73914" lon="-0.42787">
        <ele>2249</ele>
        <time>2010-01-01T09:11:08Z</time>
      </trkpt>
      <trkpt lat="42.73937" lon="-0.42787">
        <ele>2246</ele>
        <time>2010-01-01T09:11:17Z</time>
      </trkpt>
      <trkpt lat="42.73951" lon="-0.42789">
        <ele>2244</ele>
        <time>2010-01-01T09:11:22Z</time>
      </trkpt>
      <trkpt lat="42.73963" lon="-0.42795">
        <ele>2243</ele>
        <time>2010-01-01T09:11:28Z</time>
      </trkpt>
      <trkpt lat="42.73982" lon="-0.42789">
        <ele>2243</ele>
        <time>2010-01-01T09:11:35Z</time>
      </trkpt>
      <trkpt lat="42.74" lon="-0.42782">
        <ele>2246</ele>
        <time>2010-01-01T09:11:43Z</time>
      </trkpt>
      <trkpt lat="42.74014" lon="-0.42773">
        <ele>2246</ele>
        <time>2010-01-01T09:11:49Z</time>
      </trkpt>
      <trkpt lat="42.74034" lon="-0.42769">
        <ele>2243</ele>
        <time>2010-01-01T09:11:57Z</time>
      </trkpt>
      <trkpt lat="42.74055" lon="-0.4277">
        <ele>2237</ele>
        <time>2010-01-01T09:12:06Z</time>
      </trkpt>
      <trkpt lat="42.74088" lon="-0.42765">
        <ele>2230</ele>
        <time>2010-01-01T09:12:19Z</time>
      </trkpt>
      <trkpt lat="42.74102" lon="-0.42755">
        <ele>2230</ele>
        <time>2010-01-01T09:12:25Z</time>
      </trkpt>
      <trkpt lat="42.74114" lon="-0.42741">
        <ele>2230</ele>
        <time>2010-01-01T09:12:31Z</time>
      </trkpt>
      <trkpt lat="42.74125" lon="-0.42732">
        <ele>2229</ele>
        <time>2010-01-01T09:12:36Z</time>
      </trkpt>
      <trkpt lat="42.74148" lon="-0.42725">
        <ele>2225</ele>
        <time>2010-01-01T09:12:46Z</time>
      </trkpt>
      <trkpt lat="42.74178" lon="-0.42708">
        <ele>2220</ele>
        <time>2010-01-01T09:12:59Z</time>
      </trkpt>
      <trkpt lat="42.74187" lon="-0.42701">
        <ele>2220</ele>
        <time>2010-01-01T09:13:03Z</time>
      </trkpt>
      <trkpt lat="42.7419" lon="-0.42696">
        <ele>2220</ele>
        <time>2010-01-01T09:13:05Z</time>
      </trkpt>
      <trkpt lat="42.74226" lon="-0.42661">
        <ele>2221</ele>
        <time>2010-01-01T09:13:23Z</time>
      </trkpt>
      <trkpt lat="42.743" lon="-0.4265">
        <ele>2225</ele>
        <time>2010-01-01T09:13:52Z</time>
      </trkpt>
      <trkpt lat="42.74322" lon="-0.4265">
        <ele>2227</ele>
        <time>2010-01-01T09:14:01Z</time>
      </trkpt>
      <trkpt lat="42.74341" lon="-0.42644">
        <ele>2230</ele>
        <time>2010-01-01T09:14:09Z</time>
      </trkpt>
      <trkpt lat="42.74335" lon="-0.42643">
        <ele>2230</ele>
        <time>2010-01-01T09:14:11Z</time>
      </trkpt>
      <trkpt lat="42.74341" lon="-0.42643">
        <ele>2231</ele>
        <time>2010-01-01T09:14:14Z</time>
      </trkpt>
      <trkpt lat="42.74362" lon="-0.42636">
        <ele>2234</ele>
        <time>2010-01-01T09:14:23Z</time>
      </trkpt>
      <trkpt lat="42.74383" lon="-0.42624">
        <ele>2237</ele>
        <time>2010-01-01T09:14:31Z</time>
      </trkpt>
      <trkpt lat="42.74404" lon="-0.42604">
        <ele>2240</ele>
        <time>2010-01-01T09:14:42Z</time>
      </trkpt>
      <trkpt lat="42.74443" lon="-0.42583">
        <ele>2247</ele>
        <time>2010-01-01T09:14:59Z</time>
      </trkpt>
      <trkpt lat="42.74448" lon="-0.42582">
        <ele>2248</ele>
        <time>2010-01-01T09:15:00Z</time>
      </trkpt>
      <trkpt lat="42.74466" lon="-0.42572">
        <ele>2253</ele>
        <time>2010-01-01T09:15:08Z</time>
      </trkpt>
      <trkpt lat="42.74515" lon="-0.4254">
        <ele>2269</ele>
        <time>2010-01-01T09:15:30Z</time>
      </trkpt>
      <trkpt lat="42.74534" lon="-0.42544">
        <ele>2275</ele>
        <time>2010-01-01T09:15:38Z</time>
      </trkpt>
      <trkpt lat="42.74551" lon="-0.42544">
        <ele>2278</ele>
        <time>2010-01-01T09:15:44Z</time>
      </trkpt>
      <trkpt lat="42.74561" lon="-0.42538">
        <ele>2280</ele>
        <time>2010-01-01T09:15:49Z</time>
      </trkpt>
      <trkpt lat="42.74576" lon="-0.42527">
        <ele>2284</ele>
        <time>2010-01-01T09:15:56Z</time>
      </trkpt>
      <trkpt lat="42.74592" lon="-0.42519">
        <ele>2287</ele>
        <time>2010-01-01T09:16:02Z</time>
      </trkpt>
      <trkpt lat="42.74597" lon="-0.42521">
        <ele>2287</ele>
        <time>2010-01-01T09:16:05Z</time>
      </trkpt>
      <trkpt lat="42.74602" lon="-0.42527">
        <ele>2287</ele>
        <time>2010-01-01T09:16:07Z</time>
      </trkpt>
      <trkpt lat="42.7461" lon="-0.42525">
        <ele>2288</ele>
        <time>2010-01-01T09:16:11Z</time>
      </trkpt>
      <trkpt lat="42.7462" lon="-0.42519">
        <ele>2288</ele>
        <time>2010-01-01T09:16:15Z</time>
      </trkpt>
      <trkpt lat="42.74639" lon="-0.42493">
        <ele>2288</ele>
        <time>2010-01-01T09:16:26Z</time>
      </trkpt>
      <trkpt lat="42.74645" lon="-0.42473">
        <ele>2283</ele>
        <time>2010-01-01T09:16:32Z</time>
      </trkpt>
      <trkpt lat="42.7465" lon="-0.42448">
        <ele>2271</ele>
        <time>2010-01-01T09:16:40Z</time>
      </trkpt>
      <trkpt lat="42.74658" lon="-0.42428">
        <ele>2266</ele>
        <time>2010-01-01T09:16:47Z</time>
      </trkpt>
      <trkpt lat="42.74668" lon="-0.42396">
        <ele>2269</ele>
        <time>2010-01-01T09:16:57Z</time>
      </trkpt>
      <trkpt lat="42.7468" lon="-0.42348">
        <ele>2273</ele>
        <time>2010-01-01T09:17:12Z</time>
      </trkpt>
      <trkpt lat="42.74686" lon="-0.42336">
        <ele>2275</ele>
        <time>2010-01-01T09:17:16Z</time>
      </trkpt>
      <trkpt lat="42.74695" lon="-0.42333">
        <ele>2277</ele>
        <time>2010-01-01T09:17:20Z</time>
      </trkpt>
      <trkpt lat="42.74698" lon="-0.42319">
        <ele>2277</ele>
        <time>2010-01-01T09:17:24Z</time>
      </trkpt>
      <trkpt lat="42.74713" lon="-0.42296">
        <ele>2276</ele>
        <time>2010-01-01T09:17:33Z</time>
      </trkpt>
      <trkpt lat="42.74742" lon="-0.4227">
        <ele>2274</ele>
        <time>2010-01-01T09:17:47Z</time>
      </trkpt>
      <trkpt lat="42.74768" lon="-0.42253">
        <ele>2272</ele>
        <time>2010-01-01T09:17:59Z</time>
      </trkpt>
      <trkpt lat="42.74796" lon="-0.42253">
        <ele>2268</ele>
        <time>2010-01-01T09:18:10Z</time>
      </trkpt>
      <trkpt lat="42.74826" lon="-0.42267">
        <ele>2265</ele>
        <time>2010-01-01T09:18:23Z</time>
      </trkpt>
      <trkpt lat="42.7485" lon="-0.42273">
        <ele>2266</ele>
        <time>2010-01-01T09:18:32Z</time>
      </trkpt>
      <trkpt lat="42.74868" lon="-0.42266">
        <ele>2267</ele>
        <time>2010-01-01T09:18:40Z</time>
      </trkpt>
      <trkpt lat="42.74916" lon="-0.42219">
        <ele>2273</ele>
        <time>2010-01-01T09:19:04Z</time>
      </trkpt>
      <trkpt lat="42.74936" lon="-0.42197">
        <ele>2278</ele>
        <time>2010-01-01T09:19:14Z</time>
      </trkpt>
      <trkpt lat="42.74962" lon="-0.42181">
        <ele>2275</ele>
        <time>2010-01-01T09:19:26Z</time>
      </trkpt>
      <trkpt lat="42.74968" lon="-0.42179">
        <ele>2274</ele>
        <time>2010-01-01T09:19:28Z</time>
      </trkpt>
      <trkpt lat="42.74977" lon="-0.42174">
        <ele>2272</ele>
        <time>2010-01-01T09:19:32Z</time>
      </trkpt>
      <trkpt lat="42.74991" lon="-0.42131">
        <ele>2270</ele>
        <time>2010-01-01T09:19:45Z</time>
      </trkpt>
      <trkpt lat="42.75033" lon="-0.42091">
        <ele>2279</ele>
        <time>2010-01-01T09:20:06Z</time>
      </trkpt>
      <trkpt lat="42.75048" lon="-0.42071">
        <ele>2282</ele>
        <time>2010-01-01T09:20:14Z</time>
      </trkpt>
      <trkpt lat="42.75069" lon="-0.42057">
        <ele>2285</ele>
        <time>2010-01-01T09:20:24Z</time>
      </trkpt>
      <trkpt lat="42.75084" lon="-0.42049">
        <ele>2287</ele>
        <time>2010-01-01T09:20:30Z</time>
      </trkpt>
      <trkpt lat="42.75091" lon="-0.42042">
        <ele>2289</ele>
        <time>2010-01-01T09:20:34Z</time>
      </trkpt>
      <trkpt lat="42.75098" lon="-0.42038">
        <ele>2291</ele>
        <time>2010-01-01T09:20:37Z</time>
      </trkpt>
      <trkpt lat="42.75101" lon="-0.42034">
        <ele>2292</ele>
        <time>2010-01-01T09:20:39Z</time>
      </trkpt>
      <trkpt lat="42.75111" lon="-0.42015">
        <ele>2292</ele>
        <time>2010-01-01T09:20:45Z</time>
      </trkpt>
      <trkpt lat="42.75109" lon="-0.41977">
        <ele>2280</ele>
        <time>2010-01-01T09:20:57Z</time>
      </trkpt>
      <trkpt lat="42.75104" lon="-0.41964">
        <ele>2277</ele>
        <time>2010-01-01T09:21:01Z</time>
      </trkpt>
      <trkpt lat="42.75098" lon="-0.41929">
        <ele>2269</ele>
        <time>2010-01-01T09:21:11Z</time>
      </trkpt>
      <trkpt lat="42.75089" lon="-0.41896">
        <ele>2265</ele>
        <time>2010-01-01T09:21:22Z</time>
      </trkpt>
      <trkpt lat="42.75085" lon="-0.41845">
        <ele>2259</ele>
        <time>2010-01-01T09:21:37Z</time>
      </trkpt>
      <trkpt lat="42.75087" lon="-0.41829">
        <ele>2256</ele>
        <time>2010-01-01T09:21:41Z</time>
      </trkpt>
      <trkpt lat="42.75093" lon="-0.41817">
        <ele>2253</ele>
        <time>2010-01-01T09:21:46Z</time>
      </trkpt>
      <trkpt lat="42.75097" lon="-0.41792">
        <ele>2248</ele>
        <time>2010-01-01T09:21:54Z</time>
      </trkpt>
      <trkpt lat="42.75103" lon="-0.41769">
        <ele>2245</ele>
        <time>2010-01-01T09:22:01Z</time>
      </trkpt>
      <trkpt lat="42.75102" lon="-0.41761">
        <ele>2244</ele>
        <time>2010-01-01T09:22:03Z</time>
      </trkpt>
      <trkpt lat="42.75106" lon="-0.41753">
        <ele>2244</ele>
        <time>2010-01-01T09:22:06Z</time>
      </trkpt>
      <trkpt lat="42.75106" lon="-0.41742">
        <ele>2242</ele>
        <time>2010-01-01T09:22:09Z</time>
      </trkpt>
      <trkpt lat="42.75103" lon="-0.41735">
        <ele>2240</ele>
        <time>2010-01-01T09:22:11Z</time>
      </trkpt>
      <trkpt lat="42.75105" lon="-0.41725">
        <ele>2237</ele>
        <time>2010-01-01T09:22:14Z</time>
      </trkpt>
      <trkpt lat="42.75109" lon="-0.41719">
        <ele>2237</ele>
        <time>2010-01-01T09:22:17Z</time>
      </trkpt>
      <trkpt lat="42.75107" lon="-0.41714">
        <ele>2235</ele>
        <time>2010-01-01T09:22:19Z</time>
      </trkpt>
      <trkpt lat="42.75109" lon="-0.41698">
        <ele>2232</ele>
        <time>2010-01-01T09:22:23Z</time>
      </trkpt>
      <trkpt lat="42.75115" lon="-0.41699">
        <ele>2233</ele>
        <time>2010-01-01T09:22:26Z</time>
      </trkpt>
      <trkpt lat="42.75123" lon="-0.41693">
        <ele>2231</ele>
        <time>2010-01-01T09:22:29Z</time>
      </trkpt>
      <trkpt lat="42.751" lon="-0.41618">
        <ele>2212</ele>
        <time>2010-01-01T09:22:53Z</time>
      </trkpt>
      <trkpt lat="42.751" lon="-0.41601">
        <ele>2208</ele>
        <time>2010-01-01T09:22:58Z</time>
      </trkpt>
      <trkpt lat="42.75105" lon="-0.41553">
        <ele>2197</ele>
        <time>2010-01-01T09:23:13Z</time>
      </trkpt>
      <trkpt lat="42.75103" lon="-0.41541">
        <ele>2194</ele>
        <time>2010-01-01T09:23:16Z</time>
      </trkpt>
      <trkpt lat="42.75111" lon="-0.41495">
        <ele>2188</ele>
        <time>2010-01-01T09:23:30Z</time>
      </trkpt>
      <trkpt lat="42.75113" lon="-0.41462">
        <ele>2183</ele>
        <time>2010-01-01T09:23:40Z</time>
      </trkpt>
      <trkpt lat="42.7511" lon="-0.41426">
        <ele>2179</ele>
        <time>2010-01-01T09:23:50Z</time>
      </trkpt>
      <trkpt lat="42.75114" lon="-0.41413">
        <ele>2177</ele>
        <time>2010-01-01T09:23:54Z</time>
      </trkpt>
      <trkpt lat="42.75124" lon="-0.41392">
        <ele>2174</ele>
        <time>2010-01-01T09:24:02Z</time>
      </trkpt>
      <trkpt lat="42.75129" lon="-0.41395">
        <ele>2173</ele>
        <time>2010-01-01T09:24:04Z</time>
      </trkpt>
      <trkpt lat="42.75133" lon="-0.41379">
        <ele>2171</ele>
        <time>2010-01-01T09:24:09Z</time>
      </trkpt>
      <trkpt lat="42.75143" lon="-0.41365">
        <ele>2167</ele>
        <time>2010-01-01T09:24:15Z</time>
      </trkpt>
      <trkpt lat="42.75147" lon="-0.4135">
        <ele>2162</ele>
        <time>2010-01-01T09:24:19Z</time>
      </trkpt>
      <trkpt lat="42.75173" lon="-0.41313">
        <ele>2145</ele>
        <time>2010-01-01T09:24:34Z</time>
      </trkpt>
      <trkpt lat="42.75175" lon="-0.41296">
        <ele>2141</ele>
        <time>2010-01-01T09:24:39Z</time>
      </trkpt>
      <trkpt lat="42.7518" lon="-0.41279">
        <ele>2138</ele>
        <time>2010-01-01T09:24:45Z</time>
      </trkpt>
      <trkpt lat="42.75194" lon="-0.41268">
        <ele>2134</ele>
        <time>2010-01-01T09:24:51Z</time>
      </trkpt>
      <trkpt lat="42.75201" lon="-0.4126">
        <ele>2133</ele>
        <time>2010-01-01T09:24:55Z</time>
      </trkpt>
      <trkpt lat="42.75203" lon="-0.41237">
        <ele>2130</ele>
        <time>2010-01-01T09:25:02Z</time>
      </trkpt>
      <trkpt lat="42.75207" lon="-0.41225">
        <ele>2127</ele>
        <time>2010-01-01T09:25:05Z</time>
      </trkpt>
      <trkpt lat="42.75216" lon="-0.41205">
        <ele>2123</ele>
        <time>2010-01-01T09:25:12Z</time>
      </trkpt>
      <trkpt lat="42.7522" lon="-0.41189">
        <ele>2119</ele>
        <time>2010-01-01T09:25:17Z</time>
      </trkpt>
      <trkpt lat="42.75238" lon="-0.41135">
        <ele>2104</ele>
        <time>2010-01-01T09:25:35Z</time>
      </trkpt>
      <trkpt lat="42.75251" lon="-0.41114">
        <ele>2095</ele>
        <time>2010-01-01T09:25:43Z</time>
      </trkpt>
      <trkpt lat="42.75274" lon="-0.41098">
        <ele>2086</ele>
        <time>2010-01-01T09:25:53Z</time>
      </trkpt>
      <trkpt lat="42.75287" lon="-0.41063">
        <ele>2079</ele>
        <time>2010-01-01T09:26:05Z</time>
      </trkpt>
      <trkpt lat="42.75294" lon="-0.41052">
        <ele>2077</ele>
        <time>2010-01-01T09:26:09Z</time>
      </trkpt>
      <trkpt lat="42.75302" lon="-0.41054">
        <ele>2075</ele>
        <time>2010-01-01T09:26:12Z</time>
      </trkpt>
      <trkpt lat="42.75349" lon="-0.41015">
        <ele>2052</ele>
        <time>2010-01-01T09:26:34Z</time>
      </trkpt>
      <trkpt lat="42.75369" lon="-0.41004">
        <ele>2042</ele>
        <time>2010-01-01T09:26:43Z</time>
      </trkpt>
      <trkpt lat="42.7542" lon="-0.40965">
        <ele>2025</ele>
        <time>2010-01-01T09:27:06Z</time>
      </trkpt>
      <trkpt lat="42.75433" lon="-0.40958">
        <ele>2018</ele>
        <time>2010-01-01T09:27:12Z</time>
      </trkpt>
      <trkpt lat="42.75439" lon="-0.40953">
        <ele>2015</ele>
        <time>2010-01-01T09:27:15Z</time>
      </trkpt>
      <trkpt lat="42.75443" lon="-0.40946">
        <ele>2012</ele>
        <time>2010-01-01T09:27:17Z</time>
      </trkpt>
      <trkpt lat="42.75454" lon="-0.40937">
        <ele>2007</ele>
        <time>2010-01-01T09:27:22Z</time>
      </trkpt>
      <trkpt lat="42.75462" lon="-0.40934">
        <ele>2003</ele>
        <time>2010-01-01T09:27:26Z</time>
      </trkpt>
      <trkpt lat="42.75479" lon="-0.40931">
        <ele>1996</ele>
        <time>2010-01-01T09:27:33Z</time>
      </trkpt>
      <trkpt lat="42.75484" lon="-0.40928">
        <ele>1993</ele>
        <time>2010-01-01T09:27:35Z</time>
      </trkpt>
      <trkpt lat="42.75501" lon="-0.40933">
        <ele>1986</ele>
        <time>2010-01-01T09:27:42Z</time>
      </trkpt>
      <trkpt lat="42.75509" lon="-0.4093">
        <ele>1985</ele>
        <time>2010-01-01T09:27:45Z</time>
      </trkpt>
      <trkpt lat="42.75523" lon="-0.40928">
        <ele>1982</ele>
        <time>2010-01-01T09:27:51Z</time>
      </trkpt>
      <trkpt lat="42.7556" lon="-0.40929">
        <ele>1983</ele>
        <time>2010-01-01T09:28:06Z</time>
      </trkpt>
      <trkpt lat="42.75567" lon="-0.4093">
        <ele>1983</ele>
        <time>2010-01-01T09:28:09Z</time>
      </trkpt>
      <trkpt lat="42.75577" lon="-0.40943">
        <ele>1984</ele>
        <time>2010-01-01T09:28:14Z</time>
      </trkpt>
      <trkpt lat="42.75582" lon="-0.40946">
        <ele>1984</ele>
        <time>2010-01-01T09:28:16Z</time>
      </trkpt>
      <trkpt lat="42.756" lon="-0.40951">
        <ele>1987</ele>
        <time>2010-01-01T09:28:24Z</time>
      </trkpt>
      <trkpt lat="42.75625" lon="-0.40928">
        <ele>1988</ele>
        <time>2010-01-01T09:28:36Z</time>
      </trkpt>
      <trkpt lat="42.75658" lon="-0.40908">
        <ele>1992</ele>
        <time>2010-01-01T09:28:50Z</time>
      </trkpt>
      <trkpt lat="42.75679" lon="-0.40902">
        <ele>1994</ele>
        <time>2010-01-01T09:28:59Z</time>
      </trkpt>
      <trkpt lat="42.75697" lon="-0.40901">
        <ele>1996</ele>
        <time>2010-01-01T09:29:06Z</time>
      </trkpt>
      <trkpt lat="42.75707" lon="-0.40902">
        <ele>1996</ele>
        <time>2010-01-01T09:29:10Z</time>
      </trkpt>
      <trkpt lat="42.75752" lon="-0.40921">
        <ele>1996</ele>
        <time>2010-01-01T09:29:29Z</time>
      </trkpt>
      <trkpt lat="42.75768" lon="-0.40921">
        <ele>1995</ele>
        <time>2010-01-01T09:29:35Z</time>
      </trkpt>
      <trkpt lat="42.75783" lon="-0.40925">
        <ele>1996</ele>
        <time>2010-01-01T09:29:41Z</time>
      </trkpt>
      <trkpt lat="42.75802" lon="-0.40939">
        <ele>1999</ele>
        <time>2010-01-01T09:29:50Z</time>
      </trkpt>
      <trkpt lat="42.75837" lon="-0.40954">
        <ele>2003</ele>
        <time>2010-01-01T09:30:05Z</time>
      </trkpt>
      <trkpt lat="42.75853" lon="-0.40951">
        <ele>2008</ele>
        <time>2010-01-01T09:30:11Z</time>
      </trkpt>
      <trkpt lat="42.75857" lon="-0.40949">
        <ele>2009</ele>
        <time>2010-01-01T09:30:13Z</time>
      </trkpt>
      <trkpt lat="42.75892" lon="-0.40924">
        <ele>2018</ele>
        <time>2010-01-01T09:30:28Z</time>
      </trkpt>
      <trkpt lat="42.75909" lon="-0.40915">
        <ele>2024</ele>
        <time>2010-01-01T09:30:36Z</time>
      </trkpt>
      <trkpt lat="42.75937" lon="-0.40912">
        <ele>2039</ele>
        <time>2010-01-01T09:30:47Z</time>
      </trkpt>
      <trkpt lat="42.75953" lon="-0.40895">
        <ele>2042</ele>
        <time>2010-01-01T09:30:55Z</time>
      </trkpt>
      <trkpt lat="42.75962" lon="-0.40878">
        <ele>2040</ele>
        <time>2010-01-01T09:31:01Z</time>
      </trkpt>
      <trkpt lat="42.75976" lon="-0.40862">
        <ele>2041</ele>
        <time>2010-01-01T09:31:09Z</time>
      </trkpt>
      <trkpt lat="42.75987" lon="-0.40845">
        <ele>2042</ele>
        <time>2010-01-01T09:31:16Z</time>
      </trkpt>
      <trkpt lat="42.75992" lon="-0.40839">
        <ele>2044</ele>
        <time>2010-01-01T09:31:18Z</time>
      </trkpt>
      <trkpt lat="42.76006" lon="-0.40812">
        <ele>2046</ele>
        <time>2010-01-01T09:31:28Z</time>
      </trkpt>
      <trkpt lat="42.76032" lon="-0.4075">
        <ele>2049</ele>
        <time>2010-01-01T09:31:49Z</time>
      </trkpt>
      <trkpt lat="42.7605" lon="-0.40713">
        <ele>2054</ele>
        <time>2010-01-01T09:32:02Z</time>
      </trkpt>
      <trkpt lat="42.76078" lon="-0.40669">
        <ele>2055</ele>
        <time>2010-01-01T09:32:19Z</time>
      </trkpt>
      <trkpt lat="42.76088" lon="-0.40656">
        <ele>2053</ele>
        <time>2010-01-01T09:32:25Z</time>
      </trkpt>
      <trkpt lat="42.76101" lon="-0.40645">
        <ele>2051</ele>
        <time>2010-01-01T09:32:31Z</time>
      </trkpt>
      <trkpt lat="42.76106" lon="-0.40643">
        <ele>2052</ele>
        <time>2010-01-01T09:32:33Z</time>
      </trkpt>
      <trkpt lat="42.76115" lon="-0.40636">
        <ele>2054</ele>
        <time>2010-01-01T09:32:37Z</time>
      </trkpt>
      <trkpt lat="42.7614" lon="-0.40626">
        <ele>2067</ele>
        <time>2010-01-01T09:32:47Z</time>
      </trkpt>
      <trkpt lat="42.7615" lon="-0.40624">
        <ele>2070</ele>
        <time>2010-01-01T09:32:51Z</time>
      </trkpt>
      <trkpt lat="42.76164" lon="-0.40637">
        <ele>2076</ele>
        <time>2010-01-01T09:32:58Z</time>
      </trkpt>
      <trkpt lat="42.7617" lon="-0.40649">
        <ele>2079</ele>
        <time>2010-01-01T09:33:03Z</time>
      </trkpt>
      <trkpt lat="42.76162" lon="-0.40667">
        <ele>2078</ele>
        <time>2010-01-01T09:33:09Z</time>
      </trkpt>
      <trkpt lat="42.76162" lon="-0.40678">
        <ele>2081</ele>
        <time>2010-01-01T09:33:12Z</time>
      </trkpt>
      <trkpt lat="42.76158" lon="-0.40692">
        <ele>2084</ele>
        <time>2010-01-01T09:33:16Z</time>
      </trkpt>
      <trkpt lat="42.76166" lon="-0.40711">
        <ele>2089</ele>
        <time>2010-01-01T09:33:23Z</time>
      </trkpt>
      <trkpt lat="42.76163" lon="-0.40722">
        <ele>2090</ele>
        <time>2010-01-01T09:33:27Z</time>
      </trkpt>
      <trkpt lat="42.76152" lon="-0.40733">
        <ele>2092</ele>
        <time>2010-01-01T09:33:32Z</time>
      </trkpt>
      <trkpt lat="42.76145" lon="-0.40743">
        <ele>2094</ele>
        <time>2010-01-01T09:33:36Z</time>
      </trkpt>
      <trkpt lat="42.76145" lon="-0.40756">
        <ele>2099</ele>
        <time>2010-01-01T09:33:40Z</time>
      </trkpt>
      <trkpt lat="42.7615" lon="-0.40781">
        <ele>2109</ele>
        <time>2010-01-01T09:33:47Z</time>
      </trkpt>
      <trkpt lat="42.76156" lon="-0.40797">
        <ele>2111</ele>
        <time>2010-01-01T09:33:53Z</time>
      </trkpt>
      <trkpt lat="42.76177" lon="-0.40825">
        <ele>2114</ele>
        <time>2010-01-01T09:34:04Z</time>
      </trkpt>
      <trkpt lat="42.76196" lon="-0.40816">
        <ele>2114</ele>
        <time>2010-01-01T09:34:12Z</time>
      </trkpt>
      <trkpt lat="42.76215" lon="-0.40798">
        <ele>2112</ele>
        <time>2010-01-01T09:34:21Z</time>
      </trkpt>
      <trkpt lat="42.76248" lon="-0.4075">
        <ele>2113</ele>
        <time>2010-01-01T09:34:41Z</time>
      </trkpt>
      <trkpt lat="42.76262" lon="-0.40731">
        <ele>2115</ele>
        <time>2010-01-01T09:34:49Z</time>
      </trkpt>
      <trkpt lat="42.76293" lon="-0.40699">
        <ele>2123</ele>
        <time>2010-01-01T09:35:04Z</time>
      </trkpt>
      <trkpt lat="42.76303" lon="-0.40682">
        <ele>2127</ele>
        <time>2010-01-01T09:35:11Z</time>
      </trkpt>
      <trkpt lat="42.7631" lon="-0.40679">
        <ele>2129</ele>
        <time>2010-01-01T09:35:14Z</time>
      </trkpt>
      <trkpt lat="42.76341" lon="-0.40707">
        <ele>2128</ele>
        <time>2010-01-01T09:35:29Z</time>
      </trkpt>
      <trkpt lat="42.76345" lon="-0.40722">
        <ele>2125</ele>
        <time>2010-01-01T09:35:33Z</time>
      </trkpt>
      <trkpt lat="42.76358" lon="-0.40733">
        <ele>2123</ele>
        <time>2010-01-01T09:35:40Z</time>
      </trkpt>
      <trkpt lat="42.76365" lon="-0.40737">
        <ele>2122</ele>
        <time>2010-01-01T09:35:43Z</time>
      </trkpt>
      <trkpt lat="42.76374" lon="-0.40736">
        <ele>2120</ele>
        <time>2010-01-01T09:35:46Z</time>
      </trkpt>
      <trkpt lat="42.76393" lon="-0.40745">
        <ele>2117</ele>
        <time>2010-01-01T09:35:54Z</time>
      </trkpt>
      <trkpt lat="42.76459" lon="-0.40729">
        <ele>2103</ele>
        <time>2010-01-01T09:36:21Z</time>
      </trkpt>
      <trkpt lat="42.76491" lon="-0.4073">
        <ele>2096</ele>
        <time>2010-01-01T09:36:34Z</time>
      </trkpt>
      <trkpt lat="42.76506" lon="-0.40733">
        <ele>2093</ele>
        <time>2010-01-01T09:36:40Z</time>
      </trkpt>
      <trkpt lat="42.76527" lon="-0.40743">
        <ele>2087</ele>
        <time>2010-01-01T09:36:49Z</time>
      </trkpt>
      <trkpt lat="42.76539" lon="-0.40751">
        <ele>2084</ele>
        <time>2010-01-01T09:36:54Z</time>
      </trkpt>
      <trkpt lat="42.76554" lon="-0.40766">
        <ele>2082</ele>
        <time>2010-01-01T09:37:02Z</time>
      </trkpt>
      <trkpt lat="42.76566" lon="-0.40788">
        <ele>2080</ele>
        <time>2010-01-01T09:37:10Z</time>
      </trkpt>
      <trkpt lat="42.76567" lon="-0.40799">
        <ele>2079</ele>
        <time>2010-01-01T09:37:13Z</time>
      </trkpt>
      <trkpt lat="42.76585" lon="-0.4082">
        <ele>2076</ele>
        <time>2010-01-01T09:37:22Z</time>
      </trkpt>
      <trkpt lat="42.76607" lon="-0.40836">
        <ele>2074</ele>
        <time>2010-01-01T09:37:32Z</time>
      </trkpt>
      <trkpt lat="42.76614" lon="-0.40847">
        <ele>2073</ele>
        <time>2010-01-01T09:37:37Z</time>
      </trkpt>
      <trkpt lat="42.76626" lon="-0.4087">
        <ele>2072</ele>
        <time>2010-01-01T09:37:45Z</time>
      </trkpt>
      <trkpt lat="42.76638" lon="-0.40914">
        <ele>2066</ele>
        <time>2010-01-01T09:37:59Z</time>
      </trkpt>
      <trkpt lat="42.76642" lon="-0.4094">
        <ele>2063</ele>
        <time>2010-01-01T09:38:07Z</time>
      </trkpt>
      <trkpt lat="42.76649" lon="-0.40968">
        <ele>2060</ele>
        <time>2010-01-01T09:38:15Z</time>
      </trkpt>
      <trkpt lat="42.76655" lon="-0.41022">
        <ele>2061</ele>
        <time>2010-01-01T09:38:31Z</time>
      </trkpt>
      <trkpt lat="42.76665" lon="-0.4106">
        <ele>2058</ele>
        <time>2010-01-01T09:38:43Z</time>
      </trkpt>
      <trkpt lat="42.76675" lon="-0.41087">
        <ele>2054</ele>
        <time>2010-01-01T09:38:52Z</time>
      </trkpt>
      <trkpt lat="42.76726" lon="-0.41185">
        <ele>2038</ele>
        <time>2010-01-01T09:39:27Z</time>
      </trkpt>
      <trkpt lat="42.76743" lon="-0.41205">
        <ele>2034</ele>
        <time>2010-01-01T09:39:36Z</time>
      </trkpt>
      <trkpt lat="42.76754" lon="-0.41212">
        <ele>2031</ele>
        <time>2010-01-01T09:39:41Z</time>
      </trkpt>
      <trkpt lat="42.76777" lon="-0.41219">
        <ele>2024</ele>
        <time>2010-01-01T09:39:50Z</time>
      </trkpt>
      <trkpt lat="42.76784" lon="-0.41226">
        <ele>2021</ele>
        <time>2010-01-01T09:39:54Z</time>
      </trkpt>
      <trkpt lat="42.76792" lon="-0.41245">
        <ele>2017</ele>
        <time>2010-01-01T09:40:00Z</time>
      </trkpt>
      <trkpt lat="42.76778" lon="-0.41264">
        <ele>2018</ele>
        <time>2010-01-01T09:40:08Z</time>
      </trkpt>
      <trkpt lat="42.76783" lon="-0.41288">
        <ele>2016</ele>
        <time>2010-01-01T09:40:16Z</time>
      </trkpt>
      <trkpt lat="42.76784" lon="-0.41306">
        <ele>2014</ele>
        <time>2010-01-01T09:40:21Z</time>
      </trkpt>
      <trkpt lat="42.76797" lon="-0.41346">
        <ele>2008</ele>
        <time>2010-01-01T09:40:34Z</time>
      </trkpt>
      <trkpt lat="42.76808" lon="-0.41351">
        <ele>2007</ele>
        <time>2010-01-01T09:40:38Z</time>
      </trkpt>
      <trkpt lat="42.76819" lon="-0.41352">
        <ele>2005</ele>
        <time>2010-01-01T09:40:43Z</time>
      </trkpt>
      <trkpt lat="42.76833" lon="-0.41361">
        <ele>2003</ele>
        <time>2010-01-01T09:40:49Z</time>
      </trkpt>
      <trkpt lat="42.76848" lon="-0.41361">
        <ele>1999</ele>
        <time>2010-01-01T09:40:55Z</time>
      </trkpt>
      <trkpt lat="42.76862" lon="-0.41352">
        <ele>1996</ele>
        <time>2010-01-01T09:41:01Z</time>
      </trkpt>
      <trkpt lat="42.76875" lon="-0.41353">
        <ele>1992</ele>
        <time>2010-01-01T09:41:06Z</time>
      </trkpt>
      <trkpt lat="42.76886" lon="-0.41352">
        <ele>1988</ele>
        <time>2010-01-01T09:41:11Z</time>
      </trkpt>
      <trkpt lat="42.76892" lon="-0.41353">
        <ele>1985</ele>
        <time>2010-01-01T09:41:13Z</time>
      </trkpt>
      <trkpt lat="42.7691" lon="-0.41371">
        <ele>1976</ele>
        <time>2010-01-01T09:41:22Z</time>
      </trkpt>
      <trkpt lat="42.76927" lon="-0.41382">
        <ele>1971</ele>
        <time>2010-01-01T09:41:30Z</time>
      </trkpt>
      <trkpt lat="42.76935" lon="-0.41383">
        <ele>1971</ele>
        <time>2010-01-01T09:41:33Z</time>
      </trkpt>
      <trkpt lat="42.76943" lon="-0.41388">
        <ele>1970</ele>
        <time>2010-01-01T09:41:37Z</time>
      </trkpt>
      <trkpt lat="42.76954" lon="-0.41397">
        <ele>1968</ele>
        <time>2010-01-01T09:41:41Z</time>
      </trkpt>
      <trkpt lat="42.76968" lon="-0.41416">
        <ele>1965</ele>
        <time>2010-01-01T09:41:49Z</time>
      </trkpt>
      <trkpt lat="42.76986" lon="-0.41432">
        <ele>1960</ele>
        <time>2010-01-01T09:41:58Z</time>
      </trkpt>
      <trkpt lat="42.77004" lon="-0.41439">
        <ele>1955</ele>
        <time>2010-01-01T09:42:06Z</time>
      </trkpt>
      <trkpt lat="42.77006" lon="-0.41446">
        <ele>1954</ele>
        <time>2010-01-01T09:42:08Z</time>
      </trkpt>
      <trkpt lat="42.77018" lon="-0.41444">
        <ele>1952</ele>
        <time>2010-01-01T09:42:13Z</time>
      </trkpt>
      <trkpt lat="42.77022" lon="-0.41453">
        <ele>1951</ele>
        <time>2010-01-01T09:42:16Z</time>
      </trkpt>
      <trkpt lat="42.77023" lon="-0.4149">
        <ele>1949</ele>
        <time>2010-01-01T09:42:26Z</time>
      </trkpt>
      <trkpt lat="42.77029" lon="-0.4149">
        <ele>1948</ele>
        <time>2010-01-01T09:42:29Z</time>
      </trkpt>
      <trkpt lat="42.7704" lon="-0.41489">
        <ele>1945</ele>
        <time>2010-01-01T09:42:33Z</time>
      </trkpt>
      <trkpt lat="42.77051" lon="-0.41478">
        <ele>1942</ele>
        <time>2010-01-01T09:42:39Z</time>
      </trkpt>
      <trkpt lat="42.77059" lon="-0.41473">
        <ele>1940</ele>
        <time>2010-01-01T09:42:42Z</time>
      </trkpt>
      <trkpt lat="42.77072" lon="-0.41482">
        <ele>1936</ele>
        <time>2010-01-01T09:42:48Z</time>
      </trkpt>
      <trkpt lat="42.77079" lon="-0.41489">
        <ele>1933</ele>
        <time>2010-01-01T09:42:52Z</time>
      </trkpt>
      <trkpt lat="42.77085" lon="-0.41491">
        <ele>1931</ele>
        <time>2010-01-01T09:42:54Z</time>
      </trkpt>
      <trkpt lat="42.77095" lon="-0.41498">
        <ele>1926</ele>
        <time>2010-01-01T09:42:59Z</time>
      </trkpt>
      <trkpt lat="42.77098" lon="-0.41515">
        <ele>1921</ele>
        <time>2010-01-01T09:43:04Z</time>
      </trkpt>
      <trkpt lat="42.77099" lon="-0.41529">
        <ele>1919</ele>
        <time>2010-01-01T09:43:08Z</time>
      </trkpt>
      <trkpt lat="42.77108" lon="-0.41546">
        <ele>1912</ele>
        <time>2010-01-01T09:43:14Z</time>
      </trkpt>
      <trkpt lat="42.77118" lon="-0.41585">
        <ele>1901</ele>
        <time>2010-01-01T09:43:26Z</time>
      </trkpt>
      <trkpt lat="42.77119" lon="-0.41597">
        <ele>1898</ele>
        <time>2010-01-01T09:43:30Z</time>
      </trkpt>
      <trkpt lat="42.77124" lon="-0.41606">
        <ele>1895</ele>
        <time>2010-01-01T09:43:33Z</time>
      </trkpt>
      <trkpt lat="42.77132" lon="-0.41634">
        <ele>1888</ele>
        <time>2010-01-01T09:43:42Z</time>
      </trkpt>
      <trkpt lat="42.7714" lon="-0.41673">
        <ele>1881</ele>
        <time>2010-01-01T09:43:54Z</time>
      </trkpt>
      <trkpt lat="42.7714" lon="-0.4168">
        <ele>1880</ele>
        <time>2010-01-01T09:43:56Z</time>
      </trkpt>
      <trkpt lat="42.77146" lon="-0.41684">
        <ele>1878</ele>
        <time>2010-01-01T09:43:59Z</time>
      </trkpt>
      <trkpt lat="42.77166" lon="-0.41685">
        <ele>1873</ele>
        <time>2010-01-01T09:44:07Z</time>
      </trkpt>
      <trkpt lat="42.77183" lon="-0.41691">
        <ele>1868</ele>
        <time>2010-01-01T09:44:14Z</time>
      </trkpt>
      <trkpt lat="42.77189" lon="-0.41697">
        <ele>1865</ele>
        <time>2010-01-01T09:44:17Z</time>
      </trkpt>
      <trkpt lat="42.77192" lon="-0.41703">
        <ele>1863</ele>
        <time>2010-01-01T09:44:19Z</time>
      </trkpt>
      <trkpt lat="42.77195" lon="-0.41727">
        <ele>1858</ele>
        <time>2010-01-01T09:44:26Z</time>
      </trkpt>
      <trkpt lat="42.772" lon="-0.41739">
        <ele>1855</ele>
        <time>2010-01-01T09:44:30Z</time>
      </trkpt>
      <trkpt lat="42.77197" lon="-0.41746">
        <ele>1854</ele>
        <time>2010-01-01T09:44:32Z</time>
      </trkpt>
      <trkpt lat="42.77198" lon="-0.41752">
        <ele>1853</ele>
        <time>2010-01-01T09:44:34Z</time>
      </trkpt>
      <trkpt lat="42.77204" lon="-0.4176">
        <ele>1851</ele>
        <time>2010-01-01T09:44:38Z</time>
      </trkpt>
      <trkpt lat="42.77209" lon="-0.4177">
        <ele>1849</ele>
        <time>2010-01-01T09:44:41Z</time>
      </trkpt>
      <trkpt lat="42.77216" lon="-0.41779">
        <ele>1847</ele>
        <time>2010-01-01T09:44:45Z</time>
      </trkpt>
      <trkpt lat="42.77222" lon="-0.41785">
        <ele>1845</ele>
        <time>2010-01-01T09:44:48Z</time>
      </trkpt>
      <trkpt lat="42.77226" lon="-0.41797">
        <ele>1843</ele>
        <time>2010-01-01T09:44:52Z</time>
      </trkpt>
      <trkpt lat="42.77226" lon="-0.41812">
        <ele>1842</ele>
        <time>2010-01-01T09:44:56Z</time>
      </trkpt>
      <trkpt lat="42.77229" lon="-0.41838">
        <ele>1839</ele>
        <time>2010-01-01T09:45:04Z</time>
      </trkpt>
      <trkpt lat="42.7724" lon="-0.41865">
        <ele>1833</ele>
        <time>2010-01-01T09:45:13Z</time>
      </trkpt>
      <trkpt lat="42.77242" lon="-0.41875">
        <ele>1832</ele>
        <time>2010-01-01T09:45:16Z</time>
      </trkpt>
      <trkpt lat="42.77238" lon="-0.41878">
        <ele>1834</ele>
        <time>2010-01-01T09:45:18Z</time>
      </trkpt>
      <trkpt lat="42.77239" lon="-0.41889">
        <ele>1833</ele>
        <time>2010-01-01T09:45:21Z</time>
      </trkpt>
      <trkpt lat="42.77242" lon="-0.41899">
        <ele>1834</ele>
        <time>2010-01-01T09:45:24Z</time>
      </trkpt>
      <trkpt lat="42.77266" lon="-0.41942">
        <ele>1834</ele>
        <time>2010-01-01T09:45:40Z</time>
      </trkpt>
      <trkpt lat="42.77275" lon="-0.41954">
        <ele>1832</ele>
        <time>2010-01-01T09:45:45Z</time>
      </trkpt>
      <trkpt lat="42.77287" lon="-0.41977">
        <ele>1833</ele>
        <time>2010-01-01T09:45:54Z</time>
      </trkpt>
      <trkpt lat="42.77292" lon="-0.4198">
        <ele>1833</ele>
        <time>2010-01-01T09:45:56Z</time>
      </trkpt>
      <trkpt lat="42.77298" lon="-0.41991">
        <ele>1836</ele>
        <time>2010-01-01T09:46:00Z</time>
      </trkpt>
      <trkpt lat="42.77309" lon="-0.42002">
        <ele>1838</ele>
        <time>2010-01-01T09:46:05Z</time>
      </trkpt>
      <trkpt lat="42.77312" lon="-0.42007">
        <ele>1840</ele>
        <time>2010-01-01T09:46:07Z</time>
      </trkpt>
      <trkpt lat="42.77324" lon="-0.42018">
        <ele>1845</ele>
        <time>2010-01-01T09:46:13Z</time>
      </trkpt>
      <trkpt lat="42.77326" lon="-0.42034">
        <ele>1848</ele>
        <time>2010-01-01T09:46:18Z</time>
      </trkpt>
      <trkpt lat="42.77331" lon="-0.42112">
        <ele>1860</ele>
        <time>2010-01-01T09:46:41Z</time>
      </trkpt>
      <trkpt lat="42.77341" lon="-0.42149">
        <ele>1870</ele>
        <time>2010-01-01T09:46:53Z</time>
      </trkpt>
      <trkpt lat="42.77348" lon="-0.42167">
        <ele>1878</ele>
        <time>2010-01-01T09:46:59Z</time>
      </trkpt>
      <trkpt lat="42.77362" lon="-0.42194">
        <ele>1889</ele>
        <time>2010-01-01T09:47:08Z</time>
      </trkpt>
      <trkpt lat="42.77364" lon="-0.42215">
        <ele>1895</ele>
        <time>2010-01-01T09:47:14Z</time>
      </trkpt>
      <trkpt lat="42.77363" lon="-0.42241">
        <ele>1900</ele>
        <time>2010-01-01T09:47:22Z</time>
      </trkpt>
      <trkpt lat="42.77359" lon="-0.42261">
        <ele>1899</ele>
        <time>2010-01-01T09:47:28Z</time>
      </trkpt>
      <trkpt lat="42.77359" lon="-0.4227">
        <ele>1898</ele>
        <time>2010-01-01T09:47:31Z</time>
      </trkpt>
      <trkpt lat="42.77349" lon="-0.42309">
        <ele>1897</ele>
        <time>2010-01-01T09:47:43Z</time>
      </trkpt>
      <trkpt lat="42.77349" lon="-0.42349">
        <ele>1896</ele>
        <time>2010-01-01T09:47:55Z</time>
      </trkpt>
      <trkpt lat="42.77355" lon="-0.42396">
        <ele>1897</ele>
        <time>2010-01-01T09:48:09Z</time>
      </trkpt>
      <trkpt lat="42.77348" lon="-0.42407">
        <ele>1898</ele>
        <time>2010-01-01T09:48:13Z</time>
      </trkpt>
      <trkpt lat="42.77337" lon="-0.42416">
        <ele>1898</ele>
        <time>2010-01-01T09:48:18Z</time>
      </trkpt>
      <trkpt lat="42.77332" lon="-0.42426">
        <ele>1899</ele>
        <time>2010-01-01T09:48:22Z</time>
      </trkpt>
      <trkpt lat="42.77335" lon="-0.4245">
        <ele>1899</ele>
        <time>2010-01-01T09:48:29Z</time>
      </trkpt>
      <trkpt lat="42.77347" lon="-0.42477">
        <ele>1900</ele>
        <time>2010-01-01T09:48:38Z</time>
      </trkpt>
      <trkpt lat="42.77357" lon="-0.42489">
        <ele>1900</ele>
        <time>2010-01-01T09:48:44Z</time>
      </trkpt>
      <trkpt lat="42.77371" lon="-0.42558">
        <ele>1903</ele>
        <time>2010-01-01T09:49:05Z</time>
      </trkpt>
      <trkpt lat="42.77368" lon="-0.42594">
        <ele>1908</ele>
        <time>2010-01-01T09:49:15Z</time>
      </trkpt>
      <trkpt lat="42.77369" lon="-0.42647">
        <ele>1916</ele>
        <time>2010-01-01T09:49:31Z</time>
      </trkpt>
      <trkpt lat="42.77374" lon="-0.42667">
        <ele>1922</ele>
        <time>2010-01-01T09:49:37Z</time>
      </trkpt>
      <trkpt lat="42.77374" lon="-0.42684">
        <ele>1925</ele>
        <time>2010-01-01T09:49:42Z</time>
      </trkpt>
      <trkpt lat="42.77377" lon="-0.42693">
        <ele>1927</ele>
        <time>2010-01-01T09:49:45Z</time>
      </trkpt>
      <trkpt lat="42.77383" lon="-0.42699">
        <ele>1930</ele>
        <time>2010-01-01T09:49:48Z</time>
      </trkpt>
      <trkpt lat="42.77388" lon="-0.42724">
        <ele>1932</ele>
        <time>2010-01-01T09:49:55Z</time>
      </trkpt>
      <trkpt lat="42.77388" lon="-0.42742">
        <ele>1932</ele>
        <time>2010-01-01T09:50:01Z</time>
      </trkpt>
      <trkpt lat="42.77395" lon="-0.42753">
        <ele>1936</ele>
        <time>2010-01-01T09:50:05Z</time>
      </trkpt>
      <trkpt lat="42.77401" lon="-0.42786">
        <ele>1942</ele>
        <time>2010-01-01T09:50:15Z</time>
      </trkpt>
      <trkpt lat="42.77409" lon="-0.42811">
        <ele>1950</ele>
        <time>2010-01-01T09:50:23Z</time>
      </trkpt>
      <trkpt lat="42.7742" lon="-0.42824">
        <ele>1959</ele>
        <time>2010-01-01T09:50:29Z</time>
      </trkpt>
      <trkpt lat="42.77431" lon="-0.42863">
        <ele>1965</ele>
        <time>2010-01-01T09:50:41Z</time>
      </trkpt>
      <trkpt lat="42.77435" lon="-0.42871">
        <ele>1968</ele>
        <time>2010-01-01T09:50:44Z</time>
      </trkpt>
      <trkpt lat="42.77446" lon="-0.42884">
        <ele>1973</ele>
        <time>2010-01-01T09:50:50Z</time>
      </trkpt>
      <trkpt lat="42.77457" lon="-0.42915">
        <ele>1977</ele>
        <time>2010-01-01T09:51:00Z</time>
      </trkpt>
      <trkpt lat="42.77468" lon="-0.42985">
        <ele>1979</ele>
        <time>2010-01-01T09:51:21Z</time>
      </trkpt>
      <trkpt lat="42.77468" lon="-0.43012">
        <ele>1984</ele>
        <time>2010-01-01T09:51:29Z</time>
      </trkpt>
      <trkpt lat="42.7747" lon="-0.43027">
        <ele>1987</ele>
        <time>2010-01-01T09:51:33Z</time>
      </trkpt>
      <trkpt lat="42.77478" lon="-0.43055">
        <ele>1991</ele>
        <time>2010-01-01T09:51:42Z</time>
      </trkpt>
      <trkpt lat="42.77485" lon="-0.43067">
        <ele>1994</ele>
        <time>2010-01-01T09:51:47Z</time>
      </trkpt>
      <trkpt lat="42.77486" lon="-0.43074">
        <ele>1995</ele>
        <time>2010-01-01T09:51:49Z</time>
      </trkpt>
      <trkpt lat="42.77491" lon="-0.43079">
        <ele>1996</ele>
        <time>2010-01-01T09:51:51Z</time>
      </trkpt>
      <trkpt lat="42.77503" lon="-0.43094">
        <ele>1997</ele>
        <time>2010-01-01T09:51:58Z</time>
      </trkpt>
      <trkpt lat="42.77501" lon="-0.43117">
        <ele>1997</ele>
        <time>2010-01-01T09:52:05Z</time>
      </trkpt>
      <trkpt lat="42.77498" lon="-0.43127">
        <ele>1997</ele>
        <time>2010-01-01T09:52:08Z</time>
      </trkpt>
      <trkpt lat="42.775" lon="-0.4316">
        <ele>1999</ele>
        <time>2010-01-01T09:52:17Z</time>
      </trkpt>
      <trkpt lat="42.77504" lon="-0.4317">
        <ele>2000</ele>
        <time>2010-01-01T09:52:21Z</time>
      </trkpt>
      <trkpt lat="42.77502" lon="-0.43179">
        <ele>2001</ele>
        <time>2010-01-01T09:52:24Z</time>
      </trkpt>
      <trkpt lat="42.77501" lon="-0.43213">
        <ele>2006</ele>
        <time>2010-01-01T09:52:34Z</time>
      </trkpt>
      <trkpt lat="42.77493" lon="-0.43245">
        <ele>2015</ele>
        <time>2010-01-01T09:52:44Z</time>
      </trkpt>
      <trkpt lat="42.77494" lon="-0.43264">
        <ele>2022</ele>
        <time>2010-01-01T09:52:49Z</time>
      </trkpt>
      <trkpt lat="42.77488" lon="-0.43296">
        <ele>2031</ele>
        <time>2010-01-01T09:52:59Z</time>
      </trkpt>
      <trkpt lat="42.77482" lon="-0.43305">
        <ele>2033</ele>
        <time>2010-01-01T09:53:03Z</time>
      </trkpt>
      <trkpt lat="42.77479" lon="-0.43315">
        <ele>2035</ele>
        <time>2010-01-01T09:53:06Z</time>
      </trkpt>
      <trkpt lat="42.77474" lon="-0.43336">
        <ele>2040</ele>
        <time>2010-01-01T09:53:12Z</time>
      </trkpt>
      <trkpt lat="42.77473" lon="-0.4335">
        <ele>2042</ele>
        <time>2010-01-01T09:53:16Z</time>
      </trkpt>
      <trkpt lat="42.77479" lon="-0.43387">
        <ele>2045</ele>
        <time>2010-01-01T09:53:27Z</time>
      </trkpt>
      <trkpt lat="42.77479" lon="-0.43403">
        <ele>2046</ele>
        <time>2010-01-01T09:53:32Z</time>
      </trkpt>
      <trkpt lat="42.77474" lon="-0.43412">
        <ele>2048</ele>
        <time>2010-01-01T09:53:35Z</time>
      </trkpt>
      <trkpt lat="42.77472" lon="-0.43434">
        <ele>2049</ele>
        <time>2010-01-01T09:53:42Z</time>
      </trkpt>
      <trkpt lat="42.77465" lon="-0.43474">
        <ele>2055</ele>
        <time>2010-01-01T09:53:54Z</time>
      </trkpt>
      <trkpt lat="42.77474" lon="-0.43486">
        <ele>2055</ele>
        <time>2010-01-01T09:53:59Z</time>
      </trkpt>
      <trkpt lat="42.77474" lon="-0.43493">
        <ele>2056</ele>
        <time>2010-01-01T09:54:01Z</time>
      </trkpt>
      <trkpt lat="42.77481" lon="-0.435">
        <ele>2057</ele>
        <time>2010-01-01T09:54:04Z</time>
      </trkpt>
      <trkpt lat="42.7748" lon="-0.43511">
        <ele>2061</ele>
        <time>2010-01-01T09:54:08Z</time>
      </trkpt>
      <trkpt lat="42.77476" lon="-0.43531">
        <ele>2068</ele>
        <time>2010-01-01T09:54:14Z</time>
      </trkpt>
      <trkpt lat="42.77479" lon="-0.43548">
        <ele>2074</ele>
        <time>2010-01-01T09:54:19Z</time>
      </trkpt>
      <trkpt lat="42.77484" lon="-0.43557">
        <ele>2078</ele>
        <time>2010-01-01T09:54:22Z</time>
      </trkpt>
      <trkpt lat="42.77471" lon="-0.43587">
        <ele>2084</ele>
        <time>2010-01-01T09:54:33Z</time>
      </trkpt>
      <trkpt lat="42.77463" lon="-0.43617">
        <ele>2091</ele>
        <time>2010-01-01T09:54:42Z</time>
      </trkpt>
      <trkpt lat="42.77463" lon="-0.4364">
        <ele>2096</ele>
        <time>2010-01-01T09:54:49Z</time>
      </trkpt>
      <trkpt lat="42.77464" lon="-0.4365">
        <ele>2099</ele>
        <time>2010-01-01T09:54:52Z</time>
      </trkpt>
      <trkpt lat="42.77467" lon="-0.4366">
        <ele>2102</ele>
        <time>2010-01-01T09:54:55Z</time>
      </trkpt>
      <trkpt lat="42.77465" lon="-0.43671">
        <ele>2105</ele>
        <time>2010-01-01T09:54:58Z</time>
      </trkpt>
      <trkpt lat="42.77475" lon="-0.43687">
        <ele>2113</ele>
        <time>2010-01-01T09:55:04Z</time>
      </trkpt>
      <trkpt lat="42.77473" lon="-0.43713">
        <ele>2119</ele>
        <time>2010-01-01T09:55:12Z</time>
      </trkpt>
      <trkpt lat="42.77474" lon="-0.4374">
        <ele>2123</ele>
        <time>2010-01-01T09:55:20Z</time>
      </trkpt>
      <trkpt lat="42.77476" lon="-0.4375">
        <ele>2124</ele>
        <time>2010-01-01T09:55:23Z</time>
      </trkpt>
      <trkpt lat="42.77481" lon="-0.43757">
        <ele>2126</ele>
        <time>2010-01-01T09:55:26Z</time>
      </trkpt>
      <trkpt lat="42.7749" lon="-0.43764">
        <ele>2128</ele>
        <time>2010-01-01T09:55:30Z</time>
      </trkpt>
      <trkpt lat="42.77494" lon="-0.43782">
        <ele>2130</ele>
        <time>2010-01-01T09:55:36Z</time>
      </trkpt>
      <trkpt lat="42.77499" lon="-0.43795">
        <ele>2132</ele>
        <time>2010-01-01T09:55:40Z</time>
      </trkpt>
      <trkpt lat="42.7751" lon="-0.43795">
        <ele>2136</ele>
        <time>2010-01-01T09:55:44Z</time>
      </trkpt>
      <trkpt lat="42.77518" lon="-0.43799">
        <ele>2140</ele>
        <time>2010-01-01T09:55:48Z</time>
      </trkpt>
      <trkpt lat="42.77526" lon="-0.43799">
        <ele>2143</ele>
        <time>2010-01-01T09:55:51Z</time>
      </trkpt>
      <trkpt lat="42.77541" lon="-0.43814">
        <ele>2151</ele>
        <time>2010-01-01T09:55:58Z</time>
      </trkpt>
      <trkpt lat="42.7755" lon="-0.43866">
        <ele>2162</ele>
        <time>2010-01-01T09:56:14Z</time>
      </trkpt>
      <trkpt lat="42.77556" lon="-0.4388">
        <ele>2166</ele>
        <time>2010-01-01T09:56:19Z</time>
      </trkpt>
      <trkpt lat="42.77569" lon="-0.43904">
        <ele>2180</ele>
        <time>2010-01-01T09:56:28Z</time>
      </trkpt>
      <trkpt lat="42.77575" lon="-0.43905">
        <ele>2184</ele>
        <time>2010-01-01T09:56:30Z</time>
      </trkpt>
      <trkpt lat="42.77581" lon="-0.43911">
        <ele>2188</ele>
        <time>2010-01-01T09:56:33Z</time>
      </trkpt>
      <trkpt lat="42.77582" lon="-0.43926">
        <ele>2190</ele>
        <time>2010-01-01T09:56:37Z</time>
      </trkpt>
      <trkpt lat="42.77591" lon="-0.43938">
        <ele>2198</ele>
        <time>2010-01-01T09:56:43Z</time>
      </trkpt>
      <trkpt lat="42.77591" lon="-0.43954">
        <ele>2200</ele>
        <time>2010-01-01T09:56:48Z</time>
      </trkpt>
      <trkpt lat="42.77593" lon="-0.43961">
        <ele>2202</ele>
        <time>2010-01-01T09:56:50Z</time>
      </trkpt>
      <trkpt lat="42.7759" lon="-0.43971">
        <ele>2202</ele>
        <time>2010-01-01T09:56:53Z</time>
      </trkpt>
      <trkpt lat="42.77591" lon="-0.43977">
        <ele>2204</ele>
        <time>2010-01-01T09:56:55Z</time>
      </trkpt>
      <trkpt lat="42.77598" lon="-0.43985">
        <ele>2208</ele>
        <time>2010-01-01T09:56:58Z</time>
      </trkpt>
      <trkpt lat="42.77595" lon="-0.43997">
        <ele>2210</ele>
        <time>2010-01-01T09:57:02Z</time>
      </trkpt>
      <trkpt lat="42.77587" lon="-0.44004">
        <ele>2208</ele>
        <time>2010-01-01T09:57:06Z</time>
      </trkpt>
      <trkpt lat="42.77584" lon="-0.44014">
        <ele>2209</ele>
        <time>2010-01-01T09:57:09Z</time>
      </trkpt>
      <trkpt lat="42.77577" lon="-0.44024">
        <ele>2209</ele>
        <time>2010-01-01T09:57:13Z</time>
      </trkpt>
      <trkpt lat="42.77571" lon="-0.44041">
        <ele>2212</ele>
        <time>2010-01-01T09:57:19Z</time>
      </trkpt>
      <trkpt lat="42.77568" lon="-0.44062">
        <ele>2216</ele>
        <time>2010-01-01T09:57:25Z</time>
      </trkpt>
      <trkpt lat="42.77568" lon="-0.44103">
        <ele>2221</ele>
        <time>2010-01-01T09:57:37Z</time>
      </trkpt>
      <trkpt lat="42.77573" lon="-0.44121">
        <ele>2223</ele>
        <time>2010-01-01T09:57:43Z</time>
      </trkpt>
      <trkpt lat="42.77577" lon="-0.4413">
        <ele>2225</ele>
        <time>2010-01-01T09:57:46Z</time>
      </trkpt>
      <trkpt lat="42.77594" lon="-0.44145">
        <ele>2227</ele>
        <time>2010-01-01T09:57:54Z</time>
      </trkpt>
      <trkpt lat="42.77612" lon="-0.4417">
        <ele>2230</ele>
        <time>2010-01-01T09:58:04Z</time>
      </trkpt>
      <trkpt lat="42.77623" lon="-0.44189">
        <ele>2232</ele>
        <time>2010-01-01T09:58:11Z</time>
      </trkpt>
      <trkpt lat="42.77632" lon="-0.44221">
        <ele>2234</ele>
        <time>2010-01-01T09:58:22Z</time>
      </trkpt>
      <trkpt lat="42.77635" lon="-0.44239">
        <ele>2234</ele>
        <time>2010-01-01T09:58:27Z</time>
      </trkpt>
      <trkpt lat="42.77636" lon="-0.44285">
        <ele>2232</ele>
        <time>2010-01-01T09:58:40Z</time>
      </trkpt>
      <trkpt lat="42.77638" lon="-0.44295">
        <ele>2231</ele>
        <time>2010-01-01T09:58:44Z</time>
      </trkpt>
      <trkpt lat="42.77647" lon="-0.44322">
        <ele>2229</ele>
        <time>2010-01-01T09:58:52Z</time>
      </trkpt>
      <trkpt lat="42.77654" lon="-0.44332">
        <ele>2228</ele>
        <time>2010-01-01T09:58:56Z</time>
      </trkpt>
      <trkpt lat="42.77663" lon="-0.4436">
        <ele>2230</ele>
        <time>2010-01-01T09:59:05Z</time>
      </trkpt>
      <trkpt lat="42.77667" lon="-0.44388">
        <ele>2230</ele>
        <time>2010-01-01T09:59:14Z</time>
      </trkpt>
      <trkpt lat="42.77672" lon="-0.44401">
        <ele>2231</ele>
        <time>2010-01-01T09:59:18Z</time>
      </trkpt>
      <trkpt lat="42.77672" lon="-0.44416">
        <ele>2231</ele>
        <time>2010-01-01T09:59:22Z</time>
      </trkpt>
      <trkpt lat="42.7767" lon="-0.44427">
        <ele>2232</ele>
        <time>2010-01-01T09:59:26Z</time>
      </trkpt>
      <trkpt lat="42.77666" lon="-0.44481">
        <ele>2233</ele>
        <time>2010-01-01T09:59:42Z</time>
      </trkpt>
      <trkpt lat="42.77666" lon="-0.44498">
        <ele>2233</ele>
        <time>2010-01-01T09:59:47Z</time>
      </trkpt>
      <trkpt lat="42.7766" lon="-0.44533">
        <ele>2233</ele>
        <time>2010-01-01T09:59:57Z</time>
      </trkpt>
      <trkpt lat="42.7767" lon="-0.44554">
        <ele>2232</ele>
        <time>2010-01-01T10:00:05Z</time>
      </trkpt>
      <trkpt lat="42.77669" lon="-0.44574">
        <ele>2234</ele>
        <time>2010-01-01T10:00:10Z</time>
      </trkpt>
      <trkpt lat="42.77672" lon="-0.44583">
        <ele>2234</ele>
        <time>2010-01-01T10:00:13Z</time>
      </trkpt>
      <trkpt lat="42.77667" lon="-0.44616">
        <ele>2237</ele>
        <time>2010-01-01T10:00:23Z</time>
      </trkpt>
      <trkpt lat="42.77669" lon="-0.44627">
        <ele>2237</ele>
        <time>2010-01-01T10:00:27Z</time>
      </trkpt>
      <trkpt lat="42.77664" lon="-0.44638">
        <ele>2238</ele>
        <time>2010-01-01T10:00:30Z</time>
      </trkpt>
      <trkpt lat="42.77665" lon="-0.44672">
        <ele>2239</ele>
        <time>2010-01-01T10:00:40Z</time>
      </trkpt>
      <trkpt lat="42.77669" lon="-0.44681">
        <ele>2238</ele>
        <time>2010-01-01T10:00:43Z</time>
      </trkpt>
      <trkpt lat="42.77679" lon="-0.4474">
        <ele>2240</ele>
        <time>2010-01-01T10:01:01Z</time>
      </trkpt>
      <trkpt lat="42.77683" lon="-0.44778">
        <ele>2242</ele>
        <time>2010-01-01T10:01:12Z</time>
      </trkpt>
      <trkpt lat="42.77688" lon="-0.44789">
        <ele>2243</ele>
        <time>2010-01-01T10:01:16Z</time>
      </trkpt>
      <trkpt lat="42.77692" lon="-0.44827">
        <ele>2245</ele>
        <time>2010-01-01T10:01:27Z</time>
      </trkpt>
      <trkpt lat="42.77688" lon="-0.44851">
        <ele>2247</ele>
        <time>2010-01-01T10:01:35Z</time>
      </trkpt>
      <trkpt lat="42.77676" lon="-0.44901">
        <ele>2251</ele>
        <time>2010-01-01T10:01:50Z</time>
      </trkpt>
      <trkpt lat="42.77699" lon="-0.44957">
        <ele>2257</ele>
        <time>2010-01-01T10:02:09Z</time>
      </trkpt>
      <trkpt lat="42.77702" lon="-0.44974">
        <ele>2259</ele>
        <time>2010-01-01T10:02:14Z</time>
      </trkpt>
      <trkpt lat="42.77716" lon="-0.45014">
        <ele>2266</ele>
        <time>2010-01-01T10:02:27Z</time>
      </trkpt>
      <trkpt lat="42.77716" lon="-0.45025">
        <ele>2266</ele>
        <time>2010-01-01T10:02:30Z</time>
      </trkpt>
      <trkpt lat="42.77726" lon="-0.45038">
        <ele>2270</ele>
        <time>2010-01-01T10:02:36Z</time>
      </trkpt>
      <trkpt lat="42.7773" lon="-0.45086">
        <ele>2279</ele>
        <time>2010-01-01T10:02:50Z</time>
      </trkpt>
      <trkpt lat="42.7773" lon="-0.45095">
        <ele>2280</ele>
        <time>2010-01-01T10:02:52Z</time>
      </trkpt>
      <trkpt lat="42.77732" lon="-0.45123">
        <ele>2285</ele>
        <time>2010-01-01T10:03:01Z</time>
      </trkpt>
      <trkpt lat="42.77735" lon="-0.45128">
        <ele>2286</ele>
        <time>2010-01-01T10:03:03Z</time>
      </trkpt>
      <trkpt lat="42.7774" lon="-0.45131">
        <ele>2286</ele>
        <time>2010-01-01T10:03:05Z</time>
      </trkpt>
      <trkpt lat="42.77752" lon="-0.45135">
        <ele>2286</ele>
        <time>2010-01-01T10:03:10Z</time>
      </trkpt>
      <trkpt lat="42.77767" lon="-0.45143">
        <ele>2287</ele>
        <time>2010-01-01T10:03:16Z</time>
      </trkpt>
      <trkpt lat="42.77773" lon="-0.45154">
        <ele>2288</ele>
        <time>2010-01-01T10:03:20Z</time>
      </trkpt>
      <trkpt lat="42.77772" lon="-0.45165">
        <ele>2289</ele>
        <time>2010-01-01T10:03:24Z</time>
      </trkpt>
      <trkpt lat="42.77774" lon="-0.45191">
        <ele>2292</ele>
        <time>2010-01-01T10:03:31Z</time>
      </trkpt>
      <trkpt lat="42.7777" lon="-0.45208">
        <ele>2293</ele>
        <time>2010-01-01T10:03:36Z</time>
      </trkpt>
      <trkpt lat="42.77772" lon="-0.45229">
        <ele>2295</ele>
        <time>2010-01-01T10:03:43Z</time>
      </trkpt>
      <trkpt lat="42.77771" lon="-0.45242">
        <ele>2295</ele>
        <time>2010-01-01T10:03:46Z</time>
      </trkpt>
      <trkpt lat="42.77774" lon="-0.45272">
        <ele>2297</ele>
        <time>2010-01-01T10:03:55Z</time>
      </trkpt>
      <trkpt lat="42.77779" lon="-0.45298">
        <ele>2298</ele>
        <time>2010-01-01T10:04:03Z</time>
      </trkpt>
      <trkpt lat="42.77776" lon="-0.45326">
        <ele>2303</ele>
        <time>2010-01-01T10:04:12Z</time>
      </trkpt>
      <trkpt lat="42.77779" lon="-0.45347">
        <ele>2307</ele>
        <time>2010-01-01T10:04:18Z</time>
      </trkpt>
      <trkpt lat="42.77793" lon="-0.45364">
        <ele>2307</ele>
        <time>2010-01-01T10:04:25Z</time>
      </trkpt>
      <trkpt lat="42.77803" lon="-0.45381">
        <ele>2306</ele>
        <time>2010-01-01T10:04:32Z</time>
      </trkpt>
      <trkpt lat="42.77812" lon="-0.45386">
        <ele>2305</ele>
        <time>2010-01-01T10:04:36Z</time>
      </trkpt>
      <trkpt lat="42.77826" lon="-0.45404">
        <ele>2305</ele>
        <time>2010-01-01T10:04:43Z</time>
      </trkpt>
      <trkpt lat="42.77847" lon="-0.45473">
        <ele>2319</ele>
        <time>2010-01-01T10:05:05Z</time>
      </trkpt>
      <trkpt lat="42.77848" lon="-0.45481">
        <ele>2319</ele>
        <time>2010-01-01T10:05:08Z</time>
      </trkpt>
      <trkpt lat="42.77846" lon="-0.45519">
        <ele>2323</ele>
        <time>2010-01-01T10:05:19Z</time>
      </trkpt>
      <trkpt lat="42.77839" lon="-0.45535">
        <ele>2326</ele>
        <time>2010-01-01T10:05:24Z</time>
      </trkpt>
      <trkpt lat="42.77839" lon="-0.45557">
        <ele>2328</ele>
        <time>2010-01-01T10:05:31Z</time>
      </trkpt>
      <trkpt lat="42.77841" lon="-0.45586">
        <ele>2332</ele>
        <time>2010-01-01T10:05:39Z</time>
      </trkpt>
      <trkpt lat="42.7783" lon="-0.45605">
        <ele>2336</ele>
        <time>2010-01-01T10:05:46Z</time>
      </trkpt>
      <trkpt lat="42.77823" lon="-0.45615">
        <ele>2339</ele>
        <time>2010-01-01T10:05:51Z</time>
      </trkpt>
      <trkpt lat="42.77817" lon="-0.4565">
        <ele>2343</ele>
        <time>2010-01-01T10:06:01Z</time>
      </trkpt>
      <trkpt lat="42.77825" lon="-0.45676">
        <ele>2347</ele>
        <time>2010-01-01T10:06:09Z</time>
      </trkpt>
      <trkpt lat="42.77841" lon="-0.45698">
        <ele>2357</ele>
        <time>2010-01-01T10:06:18Z</time>
      </trkpt>
      <trkpt lat="42.77847" lon="-0.45704">
        <ele>2360</ele>
        <time>2010-01-01T10:06:21Z</time>
      </trkpt>
      <trkpt lat="42.77859" lon="-0.45703">
        <ele>2364</ele>
        <time>2010-01-01T10:06:26Z</time>
      </trkpt>
      <trkpt lat="42.7787" lon="-0.45714">
        <ele>2372</ele>
        <time>2010-01-01T10:06:32Z</time>
      </trkpt>
      <trkpt lat="42.77879" lon="-0.45717">
        <ele>2379</ele>
        <time>2010-01-01T10:06:36Z</time>
      </trkpt>
      <trkpt lat="42.77892" lon="-0.45715">
        <ele>2384</ele>
        <time>2010-01-01T10:06:41Z</time>
      </trkpt>
      <trkpt lat="42.77899" lon="-0.45724">
        <ele>2392</ele>
        <time>2010-01-01T10:06:45Z</time>
      </trkpt>
      <trkpt lat="42.77899" lon="-0.45732">
        <ele>2397</ele>
        <time>2010-01-01T10:06:47Z</time>
      </trkpt>
      <trkpt lat="42.77914" lon="-0.45733">
        <ele>2402</ele>
        <time>2010-01-01T10:06:53Z</time>
      </trkpt>
      <trkpt lat="42.77913" lon="-0.45739">
        <ele>2404</ele>
        <time>2010-01-01T10:06:55Z</time>
      </trkpt>
      <trkpt lat="42.77907" lon="-0.45747">
        <ele>2406</ele>
        <time>2010-01-01T10:06:58Z</time>
      </trkpt>
      <trkpt lat="42.77904" lon="-0.45764">
        <ele>2410</ele>
        <time>2010-01-01T10:07:03Z</time>
      </trkpt>
      <trkpt lat="42.77908" lon="-0.45768">
        <ele>2411</ele>
        <time>2010-01-01T10:07:05Z</time>
      </trkpt>
      <trkpt lat="42.77909" lon="-0.45774">
        <ele>2412</ele>
        <time>2010-01-01T10:07:07Z</time>
      </trkpt>
      <trkpt lat="42.77917" lon="-0.45774">
        <ele>2413</ele>
        <time>2010-01-01T10:07:10Z</time>
      </trkpt>
      <trkpt lat="42.77916" lon="-0.45786">
        <ele>2413</ele>
        <time>2010-01-01T10:07:14Z</time>
      </trkpt>
      <trkpt lat="42.77921" lon="-0.45784">
        <ele>2412</ele>
        <time>2010-01-01T10:07:16Z</time>
      </trkpt>
      <trkpt lat="42.77927" lon="-0.45789">
        <ele>2411</ele>
        <time>2010-01-01T10:07:19Z</time>
      </trkpt>
      <trkpt lat="42.77929" lon="-0.45794">
        <ele>2410</ele>
        <time>2010-01-01T10:07:20Z</time>
      </trkpt>
      <trkpt lat="42.7792" lon="-0.45803">
        <ele>2412</ele>
        <time>2010-01-01T10:07:25Z</time>
      </trkpt>
      <trkpt lat="42.77909" lon="-0.45818">
        <ele>2411</ele>
        <time>2010-01-01T10:07:31Z</time>
      </trkpt>
      <trkpt lat="42.77904" lon="-0.45822">
        <ele>2411</ele>
        <time>2010-01-01T10:07:33Z</time>
      </trkpt>
      <trkpt lat="42.77896" lon="-0.45822">
        <ele>2411</ele>
        <time>2010-01-01T10:07:36Z</time>
      </trkpt>
      <trkpt lat="42.77885" lon="-0.45815">
        <ele>2410</ele>
        <time>2010-01-01T10:07:41Z</time>
      </trkpt>
      <trkpt lat="42.77851" lon="-0.45815">
        <ele>2406</ele>
        <time>2010-01-01T10:07:55Z</time>
      </trkpt>
      <trkpt lat="42.77836" lon="-0.45818">
        <ele>2405</ele>
        <time>2010-01-01T10:08:01Z</time>
      </trkpt>
      <trkpt lat="42.77819" lon="-0.45819">
        <ele>2408</ele>
        <time>2010-01-01T10:08:08Z</time>
      </trkpt>
      <trkpt lat="42.77803" lon="-0.45822">
        <ele>2412</ele>
        <time>2010-01-01T10:08:14Z</time>
      </trkpt>
      <trkpt lat="42.77786" lon="-0.45827">
        <ele>2417</ele>
        <time>2010-01-01T10:08:21Z</time>
      </trkpt>
      <trkpt lat="42.77774" lon="-0.45833">
        <ele>2421</ele>
        <time>2010-01-01T10:08:26Z</time>
      </trkpt>
      <trkpt lat="42.77758" lon="-0.45851">
        <ele>2427</ele>
        <time>2010-01-01T10:08:34Z</time>
      </trkpt>
      <trkpt lat="42.77733" lon="-0.45872">
        <ele>2435</ele>
        <time>2010-01-01T10:08:47Z</time>
      </trkpt>
      <trkpt lat="42.77717" lon="-0.4589">
        <ele>2440</ele>
        <time>2010-01-01T10:08:55Z</time>
      </trkpt>
      <trkpt lat="42.77703" lon="-0.45902">
        <ele>2442</ele>
        <time>2010-01-01T10:09:01Z</time>
      </trkpt>
      <trkpt lat="42.77696" lon="-0.45911">
        <ele>2443</ele>
        <time>2010-01-01T10:09:05Z</time>
      </trkpt>
      <trkpt lat="42.7769" lon="-0.45915">
        <ele>2445</ele>
        <time>2010-01-01T10:09:08Z</time>
      </trkpt>
      <trkpt lat="42.77686" lon="-0.45908">
        <ele>2446</ele>
        <time>2010-01-01T10:09:11Z</time>
      </trkpt>
      <trkpt lat="42.77682" lon="-0.45911">
        <ele>2447</ele>
        <time>2010-01-01T10:09:13Z</time>
      </trkpt>
      <trkpt lat="42.77667" lon="-0.45933">
        <ele>2455</ele>
        <time>2010-01-01T10:09:21Z</time>
      </trkpt>
      <trkpt lat="42.77653" lon="-0.45952">
        <ele>2459</ele>
        <time>2010-01-01T10:09:29Z</time>
      </trkpt>
      <trkpt lat="42.77647" lon="-0.45958">
        <ele>2461</ele>
        <time>2010-01-01T10:09:32Z</time>
      </trkpt>
      <trkpt lat="42.77644" lon="-0.45965">
        <ele>2462</ele>
        <time>2010-01-01T10:09:35Z</time>
      </trkpt>
      <trkpt lat="42.77638" lon="-0.45972">
        <ele>2465</ele>
        <time>2010-01-01T10:09:38Z</time>
      </trkpt>
      <trkpt lat="42.77635" lon="-0.45966">
        <ele>2466</ele>
        <time>2010-01-01T10:09:40Z</time>
      </trkpt>
      <trkpt lat="42.7763" lon="-0.45963">
        <ele>2466</ele>
        <time>2010-01-01T10:09:42Z</time>
      </trkpt>
      <trkpt lat="42.77606" lon="-0.45979">
        <ele>2475</ele>
        <time>2010-01-01T10:09:53Z</time>
      </trkpt>
      <trkpt lat="42.77594" lon="-0.45994">
        <ele>2482</ele>
        <time>2010-01-01T10:09:59Z</time>
      </trkpt>
      <trkpt lat="42.77588" lon="-0.46005">
        <ele>2487</ele>
        <time>2010-01-01T10:10:03Z</time>
      </trkpt>
      <trkpt lat="42.77562" lon="-0.46034">
        <ele>2514</ele>
        <time>2010-01-01T10:10:17Z</time>
      </trkpt>
      <trkpt lat="42.7755" lon="-0.46043">
        <ele>2523</ele>
        <time>2010-01-01T10:10:22Z</time>
      </trkpt>
      <trkpt lat="42.77545" lon="-0.46049">
        <ele>2526</ele>
        <time>2010-01-01T10:10:25Z</time>
      </trkpt>
      <trkpt lat="42.7754" lon="-0.46049">
        <ele>2528</ele>
        <time>2010-01-01T10:10:27Z</time>
      </trkpt>
      <trkpt lat="42.77539" lon="-0.46042">
        <ele>2526</ele>
        <time>2010-01-01T10:10:29Z</time>
      </trkpt>
      <trkpt lat="42.77514" lon="-0.4606">
        <ele>2532</ele>
        <time>2010-01-01T10:10:40Z</time>
      </trkpt>
      <trkpt lat="42.77508" lon="-0.46066">
        <ele>2532</ele>
        <time>2010-01-01T10:10:43Z</time>
      </trkpt>
      <trkpt lat="42.77497" lon="-0.46085">
        <ele>2536</ele>
        <time>2010-01-01T10:10:50Z</time>
      </trkpt>
      <trkpt lat="42.77486" lon="-0.46131">
        <ele>2529</ele>
        <time>2010-01-01T10:11:04Z</time>
      </trkpt>
      <trkpt lat="42.77482" lon="-0.46135">
        <ele>2529</ele>
        <time>2010-01-01T10:11:06Z</time>
      </trkpt>
      <trkpt lat="42.77482" lon="-0.46144">
        <ele>2527</ele>
        <time>2010-01-01T10:11:09Z</time>
      </trkpt>
      <trkpt lat="42.77486" lon="-0.46149">
        <ele>2526</ele>
        <time>2010-01-01T10:11:11Z</time>
      </trkpt>
      <trkpt lat="42.77486" lon="-0.46155">
        <ele>2524</ele>
        <time>2010-01-01T10:11:13Z</time>
      </trkpt>
      <trkpt lat="42.77483" lon="-0.46165">
        <ele>2522</ele>
        <time>2010-01-01T10:11:16Z</time>
      </trkpt>
      <trkpt lat="42.77486" lon="-0.46178">
        <ele>2521</ele>
        <time>2010-01-01T10:11:20Z</time>
      </trkpt>
      <trkpt lat="42.77483" lon="-0.46189">
        <ele>2520</ele>
        <time>2010-01-01T10:11:24Z</time>
      </trkpt>
      <trkpt lat="42.77482" lon="-0.46217">
        <ele>2507</ele>
        <time>2010-01-01T10:11:32Z</time>
      </trkpt>
      <trkpt lat="42.77477" lon="-0.46238">
        <ele>2503</ele>
        <time>2010-01-01T10:11:38Z</time>
      </trkpt>
      <trkpt lat="42.77466" lon="-0.46266">
        <ele>2494</ele>
        <time>2010-01-01T10:11:48Z</time>
      </trkpt>
      <trkpt lat="42.7746" lon="-0.46295">
        <ele>2485</ele>
        <time>2010-01-01T10:11:56Z</time>
      </trkpt>
      <trkpt lat="42.77453" lon="-0.46304">
        <ele>2484</ele>
        <time>2010-01-01T10:12:00Z</time>
      </trkpt>
      <trkpt lat="42.77442" lon="-0.46312">
        <ele>2483</ele>
        <time>2010-01-01T10:12:05Z</time>
      </trkpt>
      <trkpt lat="42.7743" lon="-0.46317">
        <ele>2482</ele>
        <time>2010-01-01T10:12:10Z</time>
      </trkpt>
      <trkpt lat="42.77427" lon="-0.46322">
        <ele>2481</ele>
        <time>2010-01-01T10:12:12Z</time>
      </trkpt>
      <trkpt lat="42.77433" lon="-0.46346">
        <ele>2476</ele>
        <time>2010-01-01T10:12:20Z</time>
      </trkpt>
      <trkpt lat="42.77437" lon="-0.46356">
        <ele>2473</ele>
        <time>2010-01-01T10:12:23Z</time>
      </trkpt>
      <trkpt lat="42.77436" lon="-0.46364">
        <ele>2471</ele>
        <time>2010-01-01T10:12:25Z</time>
      </trkpt>
      <trkpt lat="42.77426" lon="-0.46372">
        <ele>2469</ele>
        <time>2010-01-01T10:12:30Z</time>
      </trkpt>
      <trkpt lat="42.77421" lon="-0.46384">
        <ele>2464</ele>
        <time>2010-01-01T10:12:34Z</time>
      </trkpt>
      <trkpt lat="42.77409" lon="-0.46414">
        <ele>2450</ele>
        <time>2010-01-01T10:12:44Z</time>
      </trkpt>
      <trkpt lat="42.77402" lon="-0.46443">
        <ele>2438</ele>
        <time>2010-01-01T10:12:53Z</time>
      </trkpt>
      <trkpt lat="42.77395" lon="-0.46455">
        <ele>2435</ele>
        <time>2010-01-01T10:12:57Z</time>
      </trkpt>
      <trkpt lat="42.77388" lon="-0.46456">
        <ele>2435</ele>
        <time>2010-01-01T10:13:00Z</time>
      </trkpt>
      <trkpt lat="42.77384" lon="-0.46461">
        <ele>2433</ele>
        <time>2010-01-01T10:13:03Z</time>
      </trkpt>
      <trkpt lat="42.77384" lon="-0.46469">
        <ele>2430</ele>
        <time>2010-01-01T10:13:05Z</time>
      </trkpt>
      <trkpt lat="42.7738" lon="-0.46476">
        <ele>2428</ele>
        <time>2010-01-01T10:13:08Z</time>
      </trkpt>
      <trkpt lat="42.77375" lon="-0.4648">
        <ele>2427</ele>
        <time>2010-01-01T10:13:10Z</time>
      </trkpt>
      <trkpt lat="42.77376" lon="-0.46487">
        <ele>2426</ele>
        <time>2010-01-01T10:13:12Z</time>
      </trkpt>
      <trkpt lat="42.77385" lon="-0.46512">
        <ele>2422</ele>
        <time>2010-01-01T10:13:20Z</time>
      </trkpt>
      <trkpt lat="42.77388" lon="-0.46531">
        <ele>2420</ele>
        <time>2010-01-01T10:13:26Z</time>
      </trkpt>
      <trkpt lat="42.77394" lon="-0.46551">
        <ele>2416</ele>
        <time>2010-01-01T10:13:32Z</time>
      </trkpt>
      <trkpt lat="42.77387" lon="-0.46579">
        <ele>2412</ele>
        <time>2010-01-01T10:13:41Z</time>
      </trkpt>
      <trkpt lat="42.77391" lon="-0.46598">
        <ele>2406</ele>
        <time>2010-01-01T10:13:47Z</time>
      </trkpt>
      <trkpt lat="42.77391" lon="-0.46607">
        <ele>2403</ele>
        <time>2010-01-01T10:13:49Z</time>
      </trkpt>
      <trkpt lat="42.77394" lon="-0.46622">
        <ele>2399</ele>
        <time>2010-01-01T10:13:54Z</time>
      </trkpt>
      <trkpt lat="42.77403" lon="-0.46638">
        <ele>2395</ele>
        <time>2010-01-01T10:14:00Z</time>
      </trkpt>
      <trkpt lat="42.77402" lon="-0.46657">
        <ele>2388</ele>
        <time>2010-01-01T10:14:05Z</time>
      </trkpt>
      <trkpt lat="42.77404" lon="-0.46668">
        <ele>2384</ele>
        <time>2010-01-01T10:14:09Z</time>
      </trkpt>
      <trkpt lat="42.77404" lon="-0.46681">
        <ele>2380</ele>
        <time>2010-01-01T10:14:12Z</time>
      </trkpt>
      <trkpt lat="42.77401" lon="-0.4669">
        <ele>2378</ele>
        <time>2010-01-01T10:14:15Z</time>
      </trkpt>
      <trkpt lat="42.77394" lon="-0.46725">
        <ele>2371</ele>
        <time>2010-01-01T10:14:26Z</time>
      </trkpt>
      <trkpt lat="42.77384" lon="-0.46766">
        <ele>2369</ele>
        <time>2010-01-01T10:14:39Z</time>
      </trkpt>
      <trkpt lat="42.77381" lon="-0.46803">
        <ele>2375</ele>
        <time>2010-01-01T10:14:50Z</time>
      </trkpt>
      <trkpt lat="42.77379" lon="-0.46809">
        <ele>2376</ele>
        <time>2010-01-01T10:14:52Z</time>
      </trkpt>
      <trkpt lat="42.77375" lon="-0.46849">
        <ele>2377</ele>
        <time>2010-01-01T10:15:03Z</time>
      </trkpt>
      <trkpt lat="42.77377" lon="-0.46858">
        <ele>2377</ele>
        <time>2010-01-01T10:15:06Z</time>
      </trkpt>
      <trkpt lat="42.77378" lon="-0.46883">
        <ele>2377</ele>
        <time>2010-01-01T10:15:14Z</time>
      </trkpt>
      <trkpt lat="42.77373" lon="-0.46898">
        <ele>2378</ele>
        <time>2010-01-01T10:15:19Z</time>
      </trkpt>
      <trkpt lat="42.77373" lon="-0.46906">
        <ele>2378</ele>
        <time>2010-01-01T10:15:21Z</time>
      </trkpt>
      <trkpt lat="42.77378" lon="-0.46918">
        <ele>2379</ele>
        <time>2010-01-01T10:15:25Z</time>
      </trkpt>
      <trkpt lat="42.77387" lon="-0.4692">
        <ele>2379</ele>
        <time>2010-01-01T10:15:28Z</time>
      </trkpt>
      <trkpt lat="42.77392" lon="-0.46923">
        <ele>2378</ele>
        <time>2010-01-01T10:15:31Z</time>
      </trkpt>
      <trkpt lat="42.77395" lon="-0.46929">
        <ele>2378</ele>
        <time>2010-01-01T10:15:33Z</time>
      </trkpt>
      <trkpt lat="42.77404" lon="-0.46933">
        <ele>2375</ele>
        <time>2010-01-01T10:15:37Z</time>
      </trkpt>
      <trkpt lat="42.77409" lon="-0.46929">
        <ele>2372</ele>
        <time>2010-01-01T10:15:39Z</time>
      </trkpt>
      <trkpt lat="42.77412" lon="-0.46924">
        <ele>2370</ele>
        <time>2010-01-01T10:15:41Z</time>
      </trkpt>
      <trkpt lat="42.77438" lon="-0.4691">
        <ele>2345</ele>
        <time>2010-01-01T10:15:52Z</time>
      </trkpt>
      <trkpt lat="42.77464" lon="-0.4691">
        <ele>2333</ele>
        <time>2010-01-01T10:16:02Z</time>
      </trkpt>
      <trkpt lat="42.77475" lon="-0.46903">
        <ele>2329</ele>
        <time>2010-01-01T10:16:07Z</time>
      </trkpt>
      <trkpt lat="42.77474" lon="-0.46895">
        <ele>2329</ele>
        <time>2010-01-01T10:16:10Z</time>
      </trkpt>
      <trkpt lat="42.77484" lon="-0.46897">
        <ele>2325</ele>
        <time>2010-01-01T10:16:14Z</time>
      </trkpt>
      <trkpt lat="42.77493" lon="-0.46884">
        <ele>2321</ele>
        <time>2010-01-01T10:16:19Z</time>
      </trkpt>
      <trkpt lat="42.77508" lon="-0.46878">
        <ele>2312</ele>
        <time>2010-01-01T10:16:25Z</time>
      </trkpt>
      <trkpt lat="42.77514" lon="-0.46877">
        <ele>2308</ele>
        <time>2010-01-01T10:16:27Z</time>
      </trkpt>
      <trkpt lat="42.77532" lon="-0.4689">
        <ele>2298</ele>
        <time>2010-01-01T10:16:36Z</time>
      </trkpt>
      <trkpt lat="42.77552" lon="-0.469">
        <ele>2293</ele>
        <time>2010-01-01T10:16:44Z</time>
      </trkpt>
      <trkpt lat="42.77557" lon="-0.469">
        <ele>2292</ele>
        <time>2010-01-01T10:16:46Z</time>
      </trkpt>
      <trkpt lat="42.77562" lon="-0.46897">
        <ele>2290</ele>
        <time>2010-01-01T10:16:48Z</time>
      </trkpt>
      <trkpt lat="42.7757" lon="-0.46899">
        <ele>2288</ele>
        <time>2010-01-01T10:16:52Z</time>
      </trkpt>
      <trkpt lat="42.77582" lon="-0.46897">
        <ele>2284</ele>
        <time>2010-01-01T10:16:56Z</time>
      </trkpt>
      <trkpt lat="42.77584" lon="-0.46887">
        <ele>2281</ele>
        <time>2010-01-01T10:16:59Z</time>
      </trkpt>
      <trkpt lat="42.77586" lon="-0.46881">
        <ele>2279</ele>
        <time>2010-01-01T10:17:01Z</time>
      </trkpt>
      <trkpt lat="42.77593" lon="-0.46877">
        <ele>2277</ele>
        <time>2010-01-01T10:17:04Z</time>
      </trkpt>
      <trkpt lat="42.77602" lon="-0.46875">
        <ele>2275</ele>
        <time>2010-01-01T10:17:08Z</time>
      </trkpt>
      <trkpt lat="42.77606" lon="-0.46879">
        <ele>2275</ele>
        <time>2010-01-01T10:17:10Z</time>
      </trkpt>
      <trkpt lat="42.77615" lon="-0.46884">
        <ele>2274</ele>
        <time>2010-01-01T10:17:14Z</time>
      </trkpt>
      <trkpt lat="42.77648" lon="-0.46885">
        <ele>2266</ele>
        <time>2010-01-01T10:17:27Z</time>
      </trkpt>
      <trkpt lat="42.7767" lon="-0.46896">
        <ele>2264</ele>
        <time>2010-01-01T10:17:37Z</time>
      </trkpt>
      <trkpt lat="42.77695" lon="-0.46897">
        <ele>2254</ele>
        <time>2010-01-01T10:17:46Z</time>
      </trkpt>
      <trkpt lat="42.77702" lon="-0.46903">
        <ele>2252</ele>
        <time>2010-01-01T10:17:50Z</time>
      </trkpt>
      <trkpt lat="42.77716" lon="-0.4693">
        <ele>2250</ele>
        <time>2010-01-01T10:17:59Z</time>
      </trkpt>
      <trkpt lat="42.77737" lon="-0.46953">
        <ele>2240</ele>
        <time>2010-01-01T10:18:10Z</time>
      </trkpt>
      <trkpt lat="42.77747" lon="-0.46952">
        <ele>2233</ele>
        <time>2010-01-01T10:18:14Z</time>
      </trkpt>
      <trkpt lat="42.77752" lon="-0.46959">
        <ele>2230</ele>
        <time>2010-01-01T10:18:17Z</time>
      </trkpt>
      <trkpt lat="42.77762" lon="-0.46964">
        <ele>2227</ele>
        <time>2010-01-01T10:18:21Z</time>
      </trkpt>
      <trkpt lat="42.77771" lon="-0.46966">
        <ele>2224</ele>
        <time>2010-01-01T10:18:25Z</time>
      </trkpt>
      <trkpt lat="42.77783" lon="-0.46972">
        <ele>2220</ele>
        <time>2010-01-01T10:18:30Z</time>
      </trkpt>
      <trkpt lat="42.77787" lon="-0.46979">
        <ele>2220</ele>
        <time>2010-01-01T10:18:32Z</time>
      </trkpt>
      <trkpt lat="42.77792" lon="-0.47012">
        <ele>2221</ele>
        <time>2010-01-01T10:18:42Z</time>
      </trkpt>
      <trkpt lat="42.77802" lon="-0.47029">
        <ele>2219</ele>
        <time>2010-01-01T10:18:49Z</time>
      </trkpt>
      <trkpt lat="42.77821" lon="-0.47073">
        <ele>2213</ele>
        <time>2010-01-01T10:19:04Z</time>
      </trkpt>
      <trkpt lat="42.77824" lon="-0.47109">
        <ele>2206</ele>
        <time>2010-01-01T10:19:14Z</time>
      </trkpt>
      <trkpt lat="42.77827" lon="-0.47124">
        <ele>2205</ele>
        <time>2010-01-01T10:19:19Z</time>
      </trkpt>
      <trkpt lat="42.77826" lon="-0.47152">
        <ele>2204</ele>
        <time>2010-01-01T10:19:27Z</time>
      </trkpt>
      <trkpt lat="42.77832" lon="-0.47173">
        <ele>2198</ele>
        <time>2010-01-01T10:19:34Z</time>
      </trkpt>
      <trkpt lat="42.77835" lon="-0.47197">
        <ele>2193</ele>
        <time>2010-01-01T10:19:41Z</time>
      </trkpt>
      <trkpt lat="42.77833" lon="-0.47214">
        <ele>2192</ele>
        <time>2010-01-01T10:19:46Z</time>
      </trkpt>
      <trkpt lat="42.77839" lon="-0.47228">
        <ele>2189</ele>
        <time>2010-01-01T10:19:51Z</time>
      </trkpt>
      <trkpt lat="42.77841" lon="-0.47277">
        <ele>2184</ele>
        <time>2010-01-01T10:20:05Z</time>
      </trkpt>
      <trkpt lat="42.77837" lon="-0.47317">
        <ele>2179</ele>
        <time>2010-01-01T10:20:17Z</time>
      </trkpt>
      <trkpt lat="42.77835" lon="-0.4733">
        <ele>2177</ele>
        <time>2010-01-01T10:20:21Z</time>
      </trkpt>
      <trkpt lat="42.77822" lon="-0.47375">
        <ele>2171</ele>
        <time>2010-01-01T10:20:35Z</time>
      </trkpt>
      <trkpt lat="42.77819" lon="-0.47389">
        <ele>2169</ele>
        <time>2010-01-01T10:20:40Z</time>
      </trkpt>
      <trkpt lat="42.7782" lon="-0.47402">
        <ele>2166</ele>
        <time>2010-01-01T10:20:43Z</time>
      </trkpt>
      <trkpt lat="42.7782" lon="-0.47415">
        <ele>2163</ele>
        <time>2010-01-01T10:20:47Z</time>
      </trkpt>
      <trkpt lat="42.77822" lon="-0.47446">
        <ele>2158</ele>
        <time>2010-01-01T10:20:57Z</time>
      </trkpt>
      <trkpt lat="42.77821" lon="-0.47459">
        <ele>2157</ele>
        <time>2010-01-01T10:21:00Z</time>
      </trkpt>
      <trkpt lat="42.77819" lon="-0.4747">
        <ele>2156</ele>
        <time>2010-01-01T10:21:04Z</time>
      </trkpt>
      <trkpt lat="42.77819" lon="-0.47522">
        <ele>2150</ele>
        <time>2010-01-01T10:21:19Z</time>
      </trkpt>
      <trkpt lat="42.77816" lon="-0.47547">
        <ele>2149</ele>
        <time>2010-01-01T10:21:26Z</time>
      </trkpt>
      <trkpt lat="42.77815" lon="-0.47604">
        <ele>2148</ele>
        <time>2010-01-01T10:21:43Z</time>
      </trkpt>
      <trkpt lat="42.77821" lon="-0.47623">
        <ele>2143</ele>
        <time>2010-01-01T10:21:49Z</time>
      </trkpt>
      <trkpt lat="42.77826" lon="-0.47631">
        <ele>2139</ele>
        <time>2010-01-01T10:21:52Z</time>
      </trkpt>
      <trkpt lat="42.77826" lon="-0.4764">
        <ele>2138</ele>
        <time>2010-01-01T10:21:55Z</time>
      </trkpt>
      <trkpt lat="42.77836" lon="-0.47659">
        <ele>2133</ele>
        <time>2010-01-01T10:22:02Z</time>
      </trkpt>
      <trkpt lat="42.77846" lon="-0.47687">
        <ele>2130</ele>
        <time>2010-01-01T10:22:11Z</time>
      </trkpt>
      <trkpt lat="42.77843" lon="-0.47698">
        <ele>2131</ele>
        <time>2010-01-01T10:22:14Z</time>
      </trkpt>
      <trkpt lat="42.77844" lon="-0.47706">
        <ele>2132</ele>
        <time>2010-01-01T10:22:17Z</time>
      </trkpt>
      <trkpt lat="42.77846" lon="-0.47712">
        <ele>2132</ele>
        <time>2010-01-01T10:22:19Z</time>
      </trkpt>
      <trkpt lat="42.77853" lon="-0.47721">
        <ele>2130</ele>
        <time>2010-01-01T10:22:23Z</time>
      </trkpt>
      <trkpt lat="42.77856" lon="-0.47731">
        <ele>2129</ele>
        <time>2010-01-01T10:22:26Z</time>
      </trkpt>
      <trkpt lat="42.77859" lon="-0.47758">
        <ele>2127</ele>
        <time>2010-01-01T10:22:34Z</time>
      </trkpt>
      <trkpt lat="42.77866" lon="-0.47777">
        <ele>2125</ele>
        <time>2010-01-01T10:22:40Z</time>
      </trkpt>
      <trkpt lat="42.77869" lon="-0.47788">
        <ele>2121</ele>
        <time>2010-01-01T10:22:44Z</time>
      </trkpt>
      <trkpt lat="42.77864" lon="-0.478">
        <ele>2120</ele>
        <time>2010-01-01T10:22:47Z</time>
      </trkpt>
      <trkpt lat="42.77866" lon="-0.4782">
        <ele>2114</ele>
        <time>2010-01-01T10:22:53Z</time>
      </trkpt>
      <trkpt lat="42.77861" lon="-0.47833">
        <ele>2112</ele>
        <time>2010-01-01T10:22:58Z</time>
      </trkpt>
      <trkpt lat="42.77861" lon="-0.47844">
        <ele>2110</ele>
        <time>2010-01-01T10:23:01Z</time>
      </trkpt>
      <trkpt lat="42.77865" lon="-0.47856">
        <ele>2106</ele>
        <time>2010-01-01T10:23:05Z</time>
      </trkpt>
      <trkpt lat="42.77864" lon="-0.47874">
        <ele>2103</ele>
        <time>2010-01-01T10:23:10Z</time>
      </trkpt>
      <trkpt lat="42.77865" lon="-0.47882">
        <ele>2101</ele>
        <time>2010-01-01T10:23:13Z</time>
      </trkpt>
      <trkpt lat="42.77875" lon="-0.47904">
        <ele>2093</ele>
        <time>2010-01-01T10:23:20Z</time>
      </trkpt>
      <trkpt lat="42.77874" lon="-0.47942">
        <ele>2087</ele>
        <time>2010-01-01T10:23:31Z</time>
      </trkpt>
      <trkpt lat="42.7788" lon="-0.47965">
        <ele>2082</ele>
        <time>2010-01-01T10:23:39Z</time>
      </trkpt>
      <trkpt lat="42.77882" lon="-0.47991">
        <ele>2078</ele>
        <time>2010-01-01T10:23:46Z</time>
      </trkpt>
      <trkpt lat="42.77886" lon="-0.48">
        <ele>2075</ele>
        <time>2010-01-01T10:23:49Z</time>
      </trkpt>
      <trkpt lat="42.77891" lon="-0.4802">
        <ele>2069</ele>
        <time>2010-01-01T10:23:55Z</time>
      </trkpt>
      <trkpt lat="42.77892" lon="-0.48031">
        <ele>2066</ele>
        <time>2010-01-01T10:23:59Z</time>
      </trkpt>
      <trkpt lat="42.77893" lon="-0.48063">
        <ele>2059</ele>
        <time>2010-01-01T10:24:08Z</time>
      </trkpt>
      <trkpt lat="42.77887" lon="-0.48083">
        <ele>2060</ele>
        <time>2010-01-01T10:24:14Z</time>
      </trkpt>
      <trkpt lat="42.77885" lon="-0.48099">
        <ele>2059</ele>
        <time>2010-01-01T10:24:19Z</time>
      </trkpt>
      <trkpt lat="42.7788" lon="-0.48125">
        <ele>2061</ele>
        <time>2010-01-01T10:24:27Z</time>
      </trkpt>
      <trkpt lat="42.77883" lon="-0.48152">
        <ele>2061</ele>
        <time>2010-01-01T10:24:35Z</time>
      </trkpt>
      <trkpt lat="42.77886" lon="-0.48166">
        <ele>2062</ele>
        <time>2010-01-01T10:24:39Z</time>
      </trkpt>
      <trkpt lat="42.77886" lon="-0.48182">
        <ele>2062</ele>
        <time>2010-01-01T10:24:44Z</time>
      </trkpt>
      <trkpt lat="42.77897" lon="-0.48206">
        <ele>2056</ele>
        <time>2010-01-01T10:24:52Z</time>
      </trkpt>
      <trkpt lat="42.77902" lon="-0.4821">
        <ele>2054</ele>
        <time>2010-01-01T10:24:54Z</time>
      </trkpt>
      <trkpt lat="42.77925" lon="-0.48243">
        <ele>2046</ele>
        <time>2010-01-01T10:25:08Z</time>
      </trkpt>
      <trkpt lat="42.77931" lon="-0.48246">
        <ele>2044</ele>
        <time>2010-01-01T10:25:10Z</time>
      </trkpt>
      <trkpt lat="42.77937" lon="-0.48255">
        <ele>2043</ele>
        <time>2010-01-01T10:25:14Z</time>
      </trkpt>
      <trkpt lat="42.77952" lon="-0.48269">
        <ele>2039</ele>
        <time>2010-01-01T10:25:21Z</time>
      </trkpt>
      <trkpt lat="42.77963" lon="-0.48288">
        <ele>2034</ele>
        <time>2010-01-01T10:25:29Z</time>
      </trkpt>
      <trkpt lat="42.7797" lon="-0.48328">
        <ele>2029</ele>
        <time>2010-01-01T10:25:41Z</time>
      </trkpt>
      <trkpt lat="42.77973" lon="-0.48339">
        <ele>2027</ele>
        <time>2010-01-01T10:25:44Z</time>
      </trkpt>
      <trkpt lat="42.77981" lon="-0.48348">
        <ele>2025</ele>
        <time>2010-01-01T10:25:48Z</time>
      </trkpt>
      <trkpt lat="42.77993" lon="-0.48349">
        <ele>2022</ele>
        <time>2010-01-01T10:25:53Z</time>
      </trkpt>
      <trkpt lat="42.78003" lon="-0.48357">
        <ele>2020</ele>
        <time>2010-01-01T10:25:58Z</time>
      </trkpt>
      <trkpt lat="42.78017" lon="-0.48379">
        <ele>2014</ele>
        <time>2010-01-01T10:26:06Z</time>
      </trkpt>
      <trkpt lat="42.78049" lon="-0.48414">
        <ele>2003</ele>
        <time>2010-01-01T10:26:23Z</time>
      </trkpt>
      <trkpt lat="42.78053" lon="-0.48425">
        <ele>2001</ele>
        <time>2010-01-01T10:26:26Z</time>
      </trkpt>
      <trkpt lat="42.78067" lon="-0.4844">
        <ele>1997</ele>
        <time>2010-01-01T10:26:33Z</time>
      </trkpt>
      <trkpt lat="42.78079" lon="-0.48457">
        <ele>1992</ele>
        <time>2010-01-01T10:26:40Z</time>
      </trkpt>
      <trkpt lat="42.78084" lon="-0.48458">
        <ele>1991</ele>
        <time>2010-01-01T10:26:42Z</time>
      </trkpt>
      <trkpt lat="42.78087" lon="-0.48465">
        <ele>1988</ele>
        <time>2010-01-01T10:26:44Z</time>
      </trkpt>
      <trkpt lat="42.78084" lon="-0.48474">
        <ele>1987</ele>
        <time>2010-01-01T10:26:47Z</time>
      </trkpt>
      <trkpt lat="42.78084" lon="-0.48486">
        <ele>1986</ele>
        <time>2010-01-01T10:26:51Z</time>
      </trkpt>
      <trkpt lat="42.78088" lon="-0.48489">
        <ele>1982</ele>
        <time>2010-01-01T10:26:53Z</time>
      </trkpt>
      <trkpt lat="42.78092" lon="-0.4848">
        <ele>1981</ele>
        <time>2010-01-01T10:26:56Z</time>
      </trkpt>
      <trkpt lat="42.78129" lon="-0.48457">
        <ele>1972</ele>
        <time>2010-01-01T10:27:12Z</time>
      </trkpt>
      <trkpt lat="42.78144" lon="-0.48456">
        <ele>1967</ele>
        <time>2010-01-01T10:27:18Z</time>
      </trkpt>
      <trkpt lat="42.78158" lon="-0.48451">
        <ele>1961</ele>
        <time>2010-01-01T10:27:24Z</time>
      </trkpt>
      <trkpt lat="42.78182" lon="-0.48426">
        <ele>1952</ele>
        <time>2010-01-01T10:27:36Z</time>
      </trkpt>
      <trkpt lat="42.78185" lon="-0.48411">
        <ele>1950</ele>
        <time>2010-01-01T10:27:41Z</time>
      </trkpt>
      <trkpt lat="42.78188" lon="-0.48359">
        <ele>1943</ele>
        <time>2010-01-01T10:27:56Z</time>
      </trkpt>
      <trkpt lat="42.78187" lon="-0.48336">
        <ele>1944</ele>
        <time>2010-01-01T10:28:03Z</time>
      </trkpt>
      <trkpt lat="42.78198" lon="-0.48328">
        <ele>1937</ele>
        <time>2010-01-01T10:28:08Z</time>
      </trkpt>
      <trkpt lat="42.7821" lon="-0.48324">
        <ele>1934</ele>
        <time>2010-01-01T10:28:13Z</time>
      </trkpt>
      <trkpt lat="42.78229" lon="-0.48323">
        <ele>1929</ele>
        <time>2010-01-01T10:28:21Z</time>
      </trkpt>
      <trkpt lat="42.78238" lon="-0.48331">
        <ele>1924</ele>
        <time>2010-01-01T10:28:25Z</time>
      </trkpt>
      <trkpt lat="42.78245" lon="-0.48334">
        <ele>1921</ele>
        <time>2010-01-01T10:28:28Z</time>
      </trkpt>
      <trkpt lat="42.78251" lon="-0.48341">
        <ele>1919</ele>
        <time>2010-01-01T10:28:31Z</time>
      </trkpt>
      <trkpt lat="42.78263" lon="-0.48369">
        <ele>1913</ele>
        <time>2010-01-01T10:28:40Z</time>
      </trkpt>
      <trkpt lat="42.78271" lon="-0.48379">
        <ele>1908</ele>
        <time>2010-01-01T10:28:45Z</time>
      </trkpt>
      <trkpt lat="42.78282" lon="-0.4842">
        <ele>1894</ele>
        <time>2010-01-01T10:28:58Z</time>
      </trkpt>
      <trkpt lat="42.78301" lon="-0.48422">
        <ele>1886</ele>
        <time>2010-01-01T10:29:05Z</time>
      </trkpt>
      <trkpt lat="42.78317" lon="-0.48427">
        <ele>1880</ele>
        <time>2010-01-01T10:29:12Z</time>
      </trkpt>
      <trkpt lat="42.78326" lon="-0.48445">
        <ele>1871</ele>
        <time>2010-01-01T10:29:18Z</time>
      </trkpt>
      <trkpt lat="42.78333" lon="-0.48446">
        <ele>1868</ele>
        <time>2010-01-01T10:29:21Z</time>
      </trkpt>
      <trkpt lat="42.78338" lon="-0.48438">
        <ele>1869</ele>
        <time>2010-01-01T10:29:24Z</time>
      </trkpt>
      <trkpt lat="42.78347" lon="-0.4844">
        <ele>1867</ele>
        <time>2010-01-01T10:29:28Z</time>
      </trkpt>
      <trkpt lat="42.78351" lon="-0.48446">
        <ele>1865</ele>
        <time>2010-01-01T10:29:30Z</time>
      </trkpt>
      <trkpt lat="42.78354" lon="-0.48476">
        <ele>1850</ele>
        <time>2010-01-01T10:29:39Z</time>
      </trkpt>
      <trkpt lat="42.78345" lon="-0.48503">
        <ele>1845</ele>
        <time>2010-01-01T10:29:48Z</time>
      </trkpt>
      <trkpt lat="42.78327" lon="-0.48534">
        <ele>1843</ele>
        <time>2010-01-01T10:29:59Z</time>
      </trkpt>
      <trkpt lat="42.78326" lon="-0.48545">
        <ele>1838</ele>
        <time>2010-01-01T10:30:03Z</time>
      </trkpt>
      <trkpt lat="42.78328" lon="-0.48556">
        <ele>1832</ele>
        <time>2010-01-01T10:30:06Z</time>
      </trkpt>
      <trkpt lat="42.78334" lon="-0.48561">
        <ele>1828</ele>
        <time>2010-01-01T10:30:09Z</time>
      </trkpt>
      <trkpt lat="42.78333" lon="-0.48569">
        <ele>1827</ele>
        <time>2010-01-01T10:30:11Z</time>
      </trkpt>
      <trkpt lat="42.78326" lon="-0.4858">
        <ele>1827</ele>
        <time>2010-01-01T10:30:16Z</time>
      </trkpt>
      <trkpt lat="42.78323" lon="-0.4859">
        <ele>1826</ele>
        <time>2010-01-01T10:30:19Z</time>
      </trkpt>
      <trkpt lat="42.78325" lon="-0.48598">
        <ele>1823</ele>
        <time>2010-01-01T10:30:21Z</time>
      </trkpt>
      <trkpt lat="42.78332" lon="-0.48596">
        <ele>1821</ele>
        <time>2010-01-01T10:30:24Z</time>
      </trkpt>
      <trkpt lat="42.78337" lon="-0.48619">
        <ele>1814</ele>
        <time>2010-01-01T10:30:31Z</time>
      </trkpt>
      <trkpt lat="42.78346" lon="-0.48624">
        <ele>1810</ele>
        <time>2010-01-01T10:30:35Z</time>
      </trkpt>
      <trkpt lat="42.78351" lon="-0.48622">
        <ele>1808</ele>
        <time>2010-01-01T10:30:37Z</time>
      </trkpt>
      <trkpt lat="42.78357" lon="-0.48624">
        <ele>1805</ele>
        <time>2010-01-01T10:30:39Z</time>
      </trkpt>
      <trkpt lat="42.78359" lon="-0.48632">
        <ele>1803</ele>
        <time>2010-01-01T10:30:42Z</time>
      </trkpt>
      <trkpt lat="42.78363" lon="-0.48639">
        <ele>1800</ele>
        <time>2010-01-01T10:30:44Z</time>
      </trkpt>
      <trkpt lat="42.78378" lon="-0.48654">
        <ele>1791</ele>
        <time>2010-01-01T10:30:52Z</time>
      </trkpt>
      <trkpt lat="42.78382" lon="-0.48663">
        <ele>1786</ele>
        <time>2010-01-01T10:30:55Z</time>
      </trkpt>
      <trkpt lat="42.78383" lon="-0.48671">
        <ele>1783</ele>
        <time>2010-01-01T10:30:57Z</time>
      </trkpt>
      <trkpt lat="42.78402" lon="-0.48687">
        <ele>1773</ele>
        <time>2010-01-01T10:31:06Z</time>
      </trkpt>
      <trkpt lat="42.78403" lon="-0.48696">
        <ele>1770</ele>
        <time>2010-01-01T10:31:09Z</time>
      </trkpt>
      <trkpt lat="42.78414" lon="-0.48707">
        <ele>1764</ele>
        <time>2010-01-01T10:31:14Z</time>
      </trkpt>
      <trkpt lat="42.78401" lon="-0.48722">
        <ele>1764</ele>
        <time>2010-01-01T10:31:21Z</time>
      </trkpt>
      <trkpt lat="42.78399" lon="-0.4873">
        <ele>1763</ele>
        <time>2010-01-01T10:31:24Z</time>
      </trkpt>
      <trkpt lat="42.78406" lon="-0.48742">
        <ele>1759</ele>
        <time>2010-01-01T10:31:28Z</time>
      </trkpt>
      <trkpt lat="42.78411" lon="-0.48745">
        <ele>1758</ele>
        <time>2010-01-01T10:31:30Z</time>
      </trkpt>
      <trkpt lat="42.78419" lon="-0.48745">
        <ele>1755</ele>
        <time>2010-01-01T10:31:34Z</time>
      </trkpt>
      <trkpt lat="42.78441" lon="-0.48756">
        <ele>1742</ele>
        <time>2010-01-01T10:31:43Z</time>
      </trkpt>
      <trkpt lat="42.78447" lon="-0.48756">
        <ele>1739</ele>
        <time>2010-01-01T10:31:45Z</time>
      </trkpt>
      <trkpt lat="42.78459" lon="-0.48744">
        <ele>1736</ele>
        <time>2010-01-01T10:31:51Z</time>
      </trkpt>
      <trkpt lat="42.78469" lon="-0.48745">
        <ele>1731</ele>
        <time>2010-01-01T10:31:55Z</time>
      </trkpt>
      <trkpt lat="42.7848" lon="-0.48737">
        <ele>1728</ele>
        <time>2010-01-01T10:32:00Z</time>
      </trkpt>
      <trkpt lat="42.78488" lon="-0.48741">
        <ele>1725</ele>
        <time>2010-01-01T10:32:03Z</time>
      </trkpt>
      <trkpt lat="42.78498" lon="-0.48735">
        <ele>1721</ele>
        <time>2010-01-01T10:32:08Z</time>
      </trkpt>
      <trkpt lat="42.78517" lon="-0.4873">
        <ele>1713</ele>
        <time>2010-01-01T10:32:16Z</time>
      </trkpt>
      <trkpt lat="42.78527" lon="-0.48732">
        <ele>1708</ele>
        <time>2010-01-01T10:32:20Z</time>
      </trkpt>
      <trkpt lat="42.78541" lon="-0.48723">
        <ele>1705</ele>
        <time>2010-01-01T10:32:26Z</time>
      </trkpt>
      <trkpt lat="42.78547" lon="-0.48715">
        <ele>1704</ele>
        <time>2010-01-01T10:32:29Z</time>
      </trkpt>
      <trkpt lat="42.78553" lon="-0.48708">
        <ele>1703</ele>
        <time>2010-01-01T10:32:32Z</time>
      </trkpt>
      <trkpt lat="42.78557" lon="-0.48702">
        <ele>1702</ele>
        <time>2010-01-01T10:32:35Z</time>
      </trkpt>
      <trkpt lat="42.78569" lon="-0.48661">
        <ele>1704</ele>
        <time>2010-01-01T10:32:48Z</time>
      </trkpt>
      <trkpt lat="42.78579" lon="-0.48632">
        <ele>1706</ele>
        <time>2010-01-01T10:32:57Z</time>
      </trkpt>
      <trkpt lat="42.7859" lon="-0.48615">
        <ele>1707</ele>
        <time>2010-01-01T10:33:04Z</time>
      </trkpt>
      <trkpt lat="42.78596" lon="-0.4858">
        <ele>1707</ele>
        <time>2010-01-01T10:33:14Z</time>
      </trkpt>
      <trkpt lat="42.786" lon="-0.48561">
        <ele>1707</ele>
        <time>2010-01-01T10:33:20Z</time>
      </trkpt>
      <trkpt lat="42.78615" lon="-0.48538">
        <ele>1708</ele>
        <time>2010-01-01T10:33:29Z</time>
      </trkpt>
      <trkpt lat="42.78624" lon="-0.48538">
        <ele>1708</ele>
        <time>2010-01-01T10:33:33Z</time>
      </trkpt>
      <trkpt lat="42.7864" lon="-0.48555">
        <ele>1706</ele>
        <time>2010-01-01T10:33:41Z</time>
      </trkpt>
      <trkpt lat="42.78645" lon="-0.48571">
        <ele>1705</ele>
        <time>2010-01-01T10:33:46Z</time>
      </trkpt>
      <trkpt lat="42.78652" lon="-0.48585">
        <ele>1701</ele>
        <time>2010-01-01T10:33:51Z</time>
      </trkpt>
      <trkpt lat="42.78659" lon="-0.48594">
        <ele>1696</ele>
        <time>2010-01-01T10:33:55Z</time>
      </trkpt>
      <trkpt lat="42.78675" lon="-0.48606">
        <ele>1686</ele>
        <time>2010-01-01T10:34:02Z</time>
      </trkpt>
      <trkpt lat="42.7868" lon="-0.48596">
        <ele>1685</ele>
        <time>2010-01-01T10:34:06Z</time>
      </trkpt>
      <trkpt lat="42.7868" lon="-0.48588">
        <ele>1686</ele>
        <time>2010-01-01T10:34:08Z</time>
      </trkpt>
      <trkpt lat="42.78686" lon="-0.48579">
        <ele>1684</ele>
        <time>2010-01-01T10:34:12Z</time>
      </trkpt>
      <trkpt lat="42.78691" lon="-0.48579">
        <ele>1680</ele>
        <time>2010-01-01T10:34:14Z</time>
      </trkpt>
      <trkpt lat="42.78709" lon="-0.48583">
        <ele>1666</ele>
        <time>2010-01-01T10:34:21Z</time>
      </trkpt>
      <trkpt lat="42.78713" lon="-0.48587">
        <ele>1663</ele>
        <time>2010-01-01T10:34:23Z</time>
      </trkpt>
      <trkpt lat="42.78743" lon="-0.486">
        <ele>1649</ele>
        <time>2010-01-01T10:34:35Z</time>
      </trkpt>
      <trkpt lat="42.78751" lon="-0.48596">
        <ele>1644</ele>
        <time>2010-01-01T10:34:39Z</time>
      </trkpt>
      <trkpt lat="42.78753" lon="-0.48586">
        <ele>1642</ele>
        <time>2010-01-01T10:34:42Z</time>
      </trkpt>
      <trkpt lat="42.78748" lon="-0.48575">
        <ele>1643</ele>
        <time>2010-01-01T10:34:46Z</time>
      </trkpt>
      <trkpt lat="42.78743" lon="-0.48553">
        <ele>1643</ele>
        <time>2010-01-01T10:34:53Z</time>
      </trkpt>
      <trkpt lat="42.78742" lon="-0.48547">
        <ele>1643</ele>
        <time>2010-01-01T10:34:55Z</time>
      </trkpt>
      <trkpt lat="42.78743" lon="-0.48535">
        <ele>1641</ele>
        <time>2010-01-01T10:34:58Z</time>
      </trkpt>
      <trkpt lat="42.78755" lon="-0.48518">
        <ele>1635</ele>
        <time>2010-01-01T10:35:05Z</time>
      </trkpt>
      <trkpt lat="42.78766" lon="-0.48476">
        <ele>1628</ele>
        <time>2010-01-01T10:35:18Z</time>
      </trkpt>
      <trkpt lat="42.78776" lon="-0.48466">
        <ele>1623</ele>
        <time>2010-01-01T10:35:23Z</time>
      </trkpt>
      <trkpt lat="42.78788" lon="-0.48467">
        <ele>1614</ele>
        <time>2010-01-01T10:35:28Z</time>
      </trkpt>
      <trkpt lat="42.78795" lon="-0.48458">
        <ele>1611</ele>
        <time>2010-01-01T10:35:32Z</time>
      </trkpt>
      <trkpt lat="42.78798" lon="-0.4845">
        <ele>1610</ele>
        <time>2010-01-01T10:35:34Z</time>
      </trkpt>
      <trkpt lat="42.78808" lon="-0.4843">
        <ele>1608</ele>
        <time>2010-01-01T10:35:41Z</time>
      </trkpt>
      <trkpt lat="42.78821" lon="-0.48425">
        <ele>1602</ele>
        <time>2010-01-01T10:35:46Z</time>
      </trkpt>
      <trkpt lat="42.78826" lon="-0.48419">
        <ele>1600</ele>
        <time>2010-01-01T10:35:49Z</time>
      </trkpt>
      <trkpt lat="42.78836" lon="-0.4842">
        <ele>1594</ele>
        <time>2010-01-01T10:35:53Z</time>
      </trkpt>
      <trkpt lat="42.78856" lon="-0.48416">
        <ele>1589</ele>
        <time>2010-01-01T10:36:01Z</time>
      </trkpt>
      <trkpt lat="42.78878" lon="-0.48379">
        <ele>1580</ele>
        <time>2010-01-01T10:36:15Z</time>
      </trkpt>
      <trkpt lat="42.78885" lon="-0.48372">
        <ele>1576</ele>
        <time>2010-01-01T10:36:19Z</time>
      </trkpt>
      <trkpt lat="42.78887" lon="-0.48362">
        <ele>1576</ele>
        <time>2010-01-01T10:36:22Z</time>
      </trkpt>
      <trkpt lat="42.78903" lon="-0.48361">
        <ele>1568</ele>
        <time>2010-01-01T10:36:28Z</time>
      </trkpt>
      <trkpt lat="42.78908" lon="-0.48367">
        <ele>1565</ele>
        <time>2010-01-01T10:36:31Z</time>
      </trkpt>
      <trkpt lat="42.78913" lon="-0.48362">
        <ele>1563</ele>
        <time>2010-01-01T10:36:33Z</time>
      </trkpt>
      <trkpt lat="42.78913" lon="-0.48347">
        <ele>1565</ele>
        <time>2010-01-01T10:36:38Z</time>
      </trkpt>
      <trkpt lat="42.78932" lon="-0.48341">
        <ele>1560</ele>
        <time>2010-01-01T10:36:45Z</time>
      </trkpt>
      <trkpt lat="42.7894" lon="-0.48341">
        <ele>1557</ele>
        <time>2010-01-01T10:36:48Z</time>
      </trkpt>
      <trkpt lat="42.78951" lon="-0.48336">
        <ele>1555</ele>
        <time>2010-01-01T10:36:53Z</time>
      </trkpt>
      <trkpt lat="42.78955" lon="-0.48347">
        <ele>1553</ele>
        <time>2010-01-01T10:36:57Z</time>
      </trkpt>
      <trkpt lat="42.78968" lon="-0.48347">
        <ele>1550</ele>
        <time>2010-01-01T10:37:02Z</time>
      </trkpt>
      <trkpt lat="42.78973" lon="-0.48356">
        <ele>1548</ele>
        <time>2010-01-01T10:37:06Z</time>
      </trkpt>
      <trkpt lat="42.78972" lon="-0.48369">
        <ele>1547</ele>
        <time>2010-01-01T10:37:09Z</time>
      </trkpt>
      <trkpt lat="42.78957" lon="-0.48401">
        <ele>1547</ele>
        <time>2010-01-01T10:37:20Z</time>
      </trkpt>
      <trkpt lat="42.7895" lon="-0.4841">
        <ele>1549</ele>
        <time>2010-01-01T10:37:24Z</time>
      </trkpt>
      <trkpt lat="42.78937" lon="-0.48474">
        <ele>1547</ele>
        <time>2010-01-01T10:37:44Z</time>
      </trkpt>
      <trkpt lat="42.78926" lon="-0.48502">
        <ele>1550</ele>
        <time>2010-01-01T10:37:53Z</time>
      </trkpt>
      <trkpt lat="42.78932" lon="-0.48544">
        <ele>1538</ele>
        <time>2010-01-01T10:38:06Z</time>
      </trkpt>
      <trkpt lat="42.78932" lon="-0.48556">
        <ele>1536</ele>
        <time>2010-01-01T10:38:09Z</time>
      </trkpt>
      <trkpt lat="42.78928" lon="-0.4857">
        <ele>1535</ele>
        <time>2010-01-01T10:38:14Z</time>
      </trkpt>
      <trkpt lat="42.78898" lon="-0.48622">
        <ele>1545</ele>
        <time>2010-01-01T10:38:33Z</time>
      </trkpt>
      <trkpt lat="42.78891" lon="-0.48655">
        <ele>1542</ele>
        <time>2010-01-01T10:38:43Z</time>
      </trkpt>
      <trkpt lat="42.78889" lon="-0.48674">
        <ele>1541</ele>
        <time>2010-01-01T10:38:49Z</time>
      </trkpt>
      <trkpt lat="42.78888" lon="-0.48708">
        <ele>1538</ele>
        <time>2010-01-01T10:38:59Z</time>
      </trkpt>
      <trkpt lat="42.78893" lon="-0.48738">
        <ele>1534</ele>
        <time>2010-01-01T10:39:08Z</time>
      </trkpt>
      <trkpt lat="42.78892" lon="-0.48753">
        <ele>1536</ele>
        <time>2010-01-01T10:39:13Z</time>
      </trkpt>
      <trkpt lat="42.78894" lon="-0.48766">
        <ele>1531</ele>
        <time>2010-01-01T10:39:16Z</time>
      </trkpt>
      <trkpt lat="42.78894" lon="-0.48785">
        <ele>1528</ele>
        <time>2010-01-01T10:39:22Z</time>
      </trkpt>
      <trkpt lat="42.78897" lon="-0.48811">
        <ele>1525</ele>
        <time>2010-01-01T10:39:30Z</time>
      </trkpt>
      <trkpt lat="42.789" lon="-0.48826">
        <ele>1522</ele>
        <time>2010-01-01T10:39:34Z</time>
      </trkpt>
      <trkpt lat="42.78885" lon="-0.48919">
        <ele>1518</ele>
        <time>2010-01-01T10:40:02Z</time>
      </trkpt>
      <trkpt lat="42.78869" lon="-0.48951">
        <ele>1520</ele>
        <time>2010-01-01T10:40:13Z</time>
      </trkpt>
      <trkpt lat="42.78868" lon="-0.48989">
        <ele>1516</ele>
        <time>2010-01-01T10:40:25Z</time>
      </trkpt>
      <trkpt lat="42.78863" lon="-0.49032">
        <ele>1513</ele>
        <time>2010-01-01T10:40:37Z</time>
      </trkpt>
      <trkpt lat="42.78848" lon="-0.49059">
        <ele>1509</ele>
        <time>2010-01-01T10:40:47Z</time>
      </trkpt>
      <trkpt lat="42.78827" lon="-0.49087">
        <ele>1508</ele>
        <time>2010-01-01T10:40:59Z</time>
      </trkpt>
      <trkpt lat="42.78813" lon="-0.49102">
        <ele>1510</ele>
        <time>2010-01-01T10:41:06Z</time>
      </trkpt>
      <trkpt lat="42.78801" lon="-0.49112">
        <ele>1509</ele>
        <time>2010-01-01T10:41:12Z</time>
      </trkpt>
      <trkpt lat="42.78775" lon="-0.49141">
        <ele>1509</ele>
        <time>2010-01-01T10:41:26Z</time>
      </trkpt>
      <trkpt lat="42.78757" lon="-0.49151">
        <ele>1512</ele>
        <time>2010-01-01T10:41:33Z</time>
      </trkpt>
      <trkpt lat="42.7875" lon="-0.49171">
        <ele>1511</ele>
        <time>2010-01-01T10:41:40Z</time>
      </trkpt>
      <trkpt lat="42.7875" lon="-0.49187">
        <ele>1507</ele>
        <time>2010-01-01T10:41:44Z</time>
      </trkpt>
      <trkpt lat="42.78737" lon="-0.49219">
        <ele>1502</ele>
        <time>2010-01-01T10:41:55Z</time>
      </trkpt>
      <trkpt lat="42.78711" lon="-0.49252">
        <ele>1499</ele>
        <time>2010-01-01T10:42:09Z</time>
      </trkpt>
      <trkpt lat="42.78676" lon="-0.49285">
        <ele>1503</ele>
        <time>2010-01-01T10:42:26Z</time>
      </trkpt>
      <trkpt lat="42.7867" lon="-0.49294">
        <ele>1502</ele>
        <time>2010-01-01T10:42:30Z</time>
      </trkpt>
      <trkpt lat="42.78642" lon="-0.49373">
        <ele>1493</ele>
        <time>2010-01-01T10:42:56Z</time>
      </trkpt>
      <trkpt lat="42.78633" lon="-0.49379">
        <ele>1492</ele>
        <time>2010-01-01T10:43:00Z</time>
      </trkpt>
      <trkpt lat="42.78604" lon="-0.49391">
        <ele>1491</ele>
        <time>2010-01-01T10:43:12Z</time>
      </trkpt>
      <trkpt lat="42.78598" lon="-0.49407">
        <ele>1489</ele>
        <time>2010-01-01T10:43:17Z</time>
      </trkpt>
      <trkpt lat="42.78581" lon="-0.49433">
        <ele>1488</ele>
        <time>2010-01-01T10:43:28Z</time>
      </trkpt>
      <trkpt lat="42.7856" lon="-0.4944">
        <ele>1486</ele>
        <time>2010-01-01T10:43:36Z</time>
      </trkpt>
      <trkpt lat="42.78555" lon="-0.49438">
        <ele>1486</ele>
        <time>2010-01-01T10:43:38Z</time>
      </trkpt>
      <trkpt lat="42.78542" lon="-0.49438">
        <ele>1486</ele>
        <time>2010-01-01T10:43:44Z</time>
      </trkpt>
      <trkpt lat="42.78519" lon="-0.49452">
        <ele>1486</ele>
        <time>2010-01-01T10:43:53Z</time>
      </trkpt>
      <trkpt lat="42.78499" lon="-0.49486">
        <ele>1486</ele>
        <time>2010-01-01T10:44:06Z</time>
      </trkpt>
      <trkpt lat="42.7849" lon="-0.49487">
        <ele>1488</ele>
        <time>2010-01-01T10:44:10Z</time>
      </trkpt>
      <trkpt lat="42.78489" lon="-0.49499">
        <ele>1486</ele>
        <time>2010-01-01T10:44:13Z</time>
      </trkpt>
      <trkpt lat="42.7847" lon="-0.49526">
        <ele>1482</ele>
        <time>2010-01-01T10:44:24Z</time>
      </trkpt>
      <trkpt lat="42.78461" lon="-0.49534">
        <ele>1483</ele>
        <time>2010-01-01T10:44:29Z</time>
      </trkpt>
      <trkpt lat="42.78454" lon="-0.49545">
        <ele>1482</ele>
        <time>2010-01-01T10:44:33Z</time>
      </trkpt>
      <trkpt lat="42.78438" lon="-0.49581">
        <ele>1476</ele>
        <time>2010-01-01T10:44:45Z</time>
      </trkpt>
      <trkpt lat="42.78437" lon="-0.49595">
        <ele>1473</ele>
        <time>2010-01-01T10:44:49Z</time>
      </trkpt>
      <trkpt lat="42.78423" lon="-0.49638">
        <ele>1472</ele>
        <time>2010-01-01T10:45:03Z</time>
      </trkpt>
      <trkpt lat="42.78449" lon="-0.49606">
        <ele>1469</ele>
        <time>2010-01-01T10:45:17Z</time>
      </trkpt>
      <trkpt lat="42.78444" lon="-0.49635">
        <ele>1469</ele>
        <time>2010-01-01T10:45:26Z</time>
      </trkpt>
      <trkpt lat="42.78448" lon="-0.49651">
        <ele>1470</ele>
        <time>2010-01-01T10:45:31Z</time>
      </trkpt>
      <trkpt lat="42.78449" lon="-0.49663">
        <ele>1471</ele>
        <time>2010-01-01T10:45:34Z</time>
      </trkpt>
      <trkpt lat="42.78455" lon="-0.49688">
        <ele>1475</ele>
        <time>2010-01-01T10:45:42Z</time>
      </trkpt>
      <trkpt lat="42.78453" lon="-0.49733">
        <ele>1477</ele>
        <time>2010-01-01T10:45:55Z</time>
      </trkpt>
      <trkpt lat="42.78438" lon="-0.49773">
        <ele>1479</ele>
        <time>2010-01-01T10:46:08Z</time>
      </trkpt>
      <trkpt lat="42.78428" lon="-0.49794">
        <ele>1479</ele>
        <time>2010-01-01T10:46:16Z</time>
      </trkpt>
      <trkpt lat="42.78398" lon="-0.49848">
        <ele>1474</ele>
        <time>2010-01-01T10:46:36Z</time>
      </trkpt>
      <trkpt lat="42.78387" lon="-0.49859">
        <ele>1472</ele>
        <time>2010-01-01T10:46:41Z</time>
      </trkpt>
      <trkpt lat="42.7836" lon="-0.49868">
        <ele>1467</ele>
        <time>2010-01-01T10:46:52Z</time>
      </trkpt>
      <trkpt lat="42.78348" lon="-0.49888">
        <ele>1471</ele>
        <time>2010-01-01T10:47:00Z</time>
      </trkpt>
      <trkpt lat="42.78328" lon="-0.49911">
        <ele>1466</ele>
        <time>2010-01-01T10:47:10Z</time>
      </trkpt>
      <trkpt lat="42.78309" lon="-0.49926">
        <ele>1460</ele>
        <time>2010-01-01T10:47:19Z</time>
      </trkpt>
      <trkpt lat="42.78293" lon="-0.49963">
        <ele>1460</ele>
        <time>2010-01-01T10:47:32Z</time>
      </trkpt>
      <trkpt lat="42.78271" lon="-0.49991">
        <ele>1456</ele>
        <time>2010-01-01T10:47:44Z</time>
      </trkpt>
      <trkpt lat="42.78248" lon="-0.49997">
        <ele>1452</ele>
        <time>2010-01-01T10:47:53Z</time>
      </trkpt>
      <trkpt lat="42.78228" lon="-0.5002">
        <ele>1450</ele>
        <time>2010-01-01T10:48:04Z</time>
      </trkpt>
      <trkpt lat="42.78213" lon="-0.50034">
        <ele>1447</ele>
        <time>2010-01-01T10:48:11Z</time>
      </trkpt>
      <trkpt lat="42.78212" lon="-0.50042">
        <ele>1449</ele>
        <time>2010-01-01T10:48:13Z</time>
      </trkpt>
      <trkpt lat="42.78215" lon="-0.50062">
        <ele>1455</ele>
        <time>2010-01-01T10:48:19Z</time>
      </trkpt>
      <trkpt lat="42.78201" lon="-0.50082">
        <ele>1453</ele>
        <time>2010-01-01T10:48:27Z</time>
      </trkpt>
      <trkpt lat="42.78189" lon="-0.50116">
        <ele>1458</ele>
        <time>2010-01-01T10:48:39Z</time>
      </trkpt>
      <trkpt lat="42.78183" lon="-0.50118">
        <ele>1456</ele>
        <time>2010-01-01T10:48:41Z</time>
      </trkpt>
      <trkpt lat="42.78163" lon="-0.50134">
        <ele>1453</ele>
        <time>2010-01-01T10:48:50Z</time>
      </trkpt>
      <trkpt lat="42.78156" lon="-0.50143">
        <ele>1452</ele>
        <time>2010-01-01T10:48:54Z</time>
      </trkpt>
      <trkpt lat="42.7813" lon="-0.50157">
        <ele>1449</ele>
        <time>2010-01-01T10:49:05Z</time>
      </trkpt>
      <trkpt lat="42.78095" lon="-0.50168">
        <ele>1444</ele>
        <time>2010-01-01T10:49:20Z</time>
      </trkpt>
      <trkpt lat="42.78073" lon="-0.5017">
        <ele>1436</ele>
        <time>2010-01-01T10:49:29Z</time>
      </trkpt>
      <trkpt lat="42.78064" lon="-0.50176">
        <ele>1434</ele>
        <time>2010-01-01T10:49:32Z</time>
      </trkpt>
      <trkpt lat="42.78044" lon="-0.50176">
        <ele>1426</ele>
        <time>2010-01-01T10:49:40Z</time>
      </trkpt>
      <trkpt lat="42.7803" lon="-0.50186">
        <ele>1424</ele>
        <time>2010-01-01T10:49:47Z</time>
      </trkpt>
      <trkpt lat="42.78018" lon="-0.50197">
        <ele>1422</ele>
        <time>2010-01-01T10:49:53Z</time>
      </trkpt>
      <trkpt lat="42.78001" lon="-0.5022">
        <ele>1422</ele>
        <time>2010-01-01T10:50:02Z</time>
      </trkpt>
      <trkpt lat="42.77982" lon="-0.50241">
        <ele>1425</ele>
        <time>2010-01-01T10:50:12Z</time>
      </trkpt>
      <trkpt lat="42.77958" lon="-0.50259">
        <ele>1424</ele>
        <time>2010-01-01T10:50:23Z</time>
      </trkpt>
      <trkpt lat="42.77933" lon="-0.50287">
        <ele>1420</ele>
        <time>2010-01-01T10:50:36Z</time>
      </trkpt>
      <trkpt lat="42.77919" lon="-0.50301">
        <ele>1417</ele>
        <time>2010-01-01T10:50:43Z</time>
      </trkpt>
      <trkpt lat="42.77904" lon="-0.50326">
        <ele>1413</ele>
        <time>2010-01-01T10:50:52Z</time>
      </trkpt>
      <trkpt lat="42.77898" lon="-0.50362">
        <ele>1415</ele>
        <time>2010-01-01T10:51:03Z</time>
      </trkpt>
      <trkpt lat="42.77888" lon="-0.50384">
        <ele>1415</ele>
        <time>2010-01-01T10:51:11Z</time>
      </trkpt>
      <trkpt lat="42.77881" lon="-0.50387">
        <ele>1413</ele>
        <time>2010-01-01T10:51:14Z</time>
      </trkpt>
      <trkpt lat="42.77843" lon="-0.50377">
        <ele>1400</ele>
        <time>2010-01-01T10:51:29Z</time>
      </trkpt>
      <trkpt lat="42.77809" lon="-0.50378">
        <ele>1393</ele>
        <time>2010-01-01T10:51:43Z</time>
      </trkpt>
      <trkpt lat="42.778" lon="-0.50382">
        <ele>1392</ele>
        <time>2010-01-01T10:51:47Z</time>
      </trkpt>
      <trkpt lat="42.77767" lon="-0.50405">
        <ele>1389</ele>
        <time>2010-01-01T10:52:02Z</time>
      </trkpt>
      <trkpt lat="42.77756" lon="-0.50418">
        <ele>1388</ele>
        <time>2010-01-01T10:52:07Z</time>
      </trkpt>
      <trkpt lat="42.77747" lon="-0.50432">
        <ele>1388</ele>
        <time>2010-01-01T10:52:13Z</time>
      </trkpt>
      <trkpt lat="42.77738" lon="-0.50474">
        <ele>1388</ele>
        <time>2010-01-01T10:52:26Z</time>
      </trkpt>
      <trkpt lat="42.77742" lon="-0.50508">
        <ele>1392</ele>
        <time>2010-01-01T10:52:36Z</time>
      </trkpt>
      <trkpt lat="42.77739" lon="-0.50524">
        <ele>1393</ele>
        <time>2010-01-01T10:52:41Z</time>
      </trkpt>
      <trkpt lat="42.77725" lon="-0.5055">
        <ele>1394</ele>
        <time>2010-01-01T10:52:50Z</time>
      </trkpt>
      <trkpt lat="42.7772" lon="-0.50551">
        <ele>1391</ele>
        <time>2010-01-01T10:52:53Z</time>
      </trkpt>
      <trkpt lat="42.77702" lon="-0.50559">
        <ele>1385</ele>
        <time>2010-01-01T10:53:00Z</time>
      </trkpt>
      <trkpt lat="42.77682" lon="-0.50577">
        <ele>1382</ele>
        <time>2010-01-01T10:53:10Z</time>
      </trkpt>
      <trkpt lat="42.77662" lon="-0.50605">
        <ele>1380</ele>
        <time>2010-01-01T10:53:21Z</time>
      </trkpt>
      <trkpt lat="42.77661" lon="-0.50621">
        <ele>1382</ele>
        <time>2010-01-01T10:53:26Z</time>
      </trkpt>
      <trkpt lat="42.77653" lon="-0.50647">
        <ele>1381</ele>
        <time>2010-01-01T10:53:34Z</time>
      </trkpt>
      <trkpt lat="42.7762" lon="-0.50731">
        <ele>1382</ele>
        <time>2010-01-01T10:54:02Z</time>
      </trkpt>
      <trkpt lat="42.77617" lon="-0.50737">
        <ele>1382</ele>
        <time>2010-01-01T10:54:04Z</time>
      </trkpt>
      <trkpt lat="42.7759" lon="-0.50766">
        <ele>1377</ele>
        <time>2010-01-01T10:54:18Z</time>
      </trkpt>
      <trkpt lat="42.77599" lon="-0.50855">
        <ele>1379</ele>
        <time>2010-01-01T10:54:44Z</time>
      </trkpt>
      <trkpt lat="42.776" lon="-0.50846">
        <ele>1380</ele>
        <time>2010-01-01T10:54:47Z</time>
      </trkpt>
      <trkpt lat="42.77598" lon="-0.50831">
        <ele>1380</ele>
        <time>2010-01-01T10:54:51Z</time>
      </trkpt>
      <trkpt lat="42.77608" lon="-0.50782">
        <ele>1386</ele>
        <time>2010-01-01T10:55:06Z</time>
      </trkpt>
      <trkpt lat="42.77616" lon="-0.50788">
        <ele>1390</ele>
        <time>2010-01-01T10:55:10Z</time>
      </trkpt>
      <trkpt lat="42.7762" lon="-0.50781">
        <ele>1392</ele>
        <time>2010-01-01T10:55:12Z</time>
      </trkpt>
      <trkpt lat="42.77631" lon="-0.50768">
        <ele>1396</ele>
        <time>2010-01-01T10:55:18Z</time>
      </trkpt>
      <trkpt lat="42.77639" lon="-0.50761">
        <ele>1399</ele>
        <time>2010-01-01T10:55:22Z</time>
      </trkpt>
      <trkpt lat="42.77648" lon="-0.5076">
        <ele>1403</ele>
        <time>2010-01-01T10:55:26Z</time>
      </trkpt>
      <trkpt lat="42.77664" lon="-0.50739">
        <ele>1406</ele>
        <time>2010-01-01T10:55:35Z</time>
      </trkpt>
      <trkpt lat="42.77668" lon="-0.50735">
        <ele>1407</ele>
        <time>2010-01-01T10:55:37Z</time>
      </trkpt>
      <trkpt lat="42.77677" lon="-0.5073">
        <ele>1410</ele>
        <time>2010-01-01T10:55:40Z</time>
      </trkpt>
      <trkpt lat="42.77684" lon="-0.50722">
        <ele>1411</ele>
        <time>2010-01-01T10:55:44Z</time>
      </trkpt>
      <trkpt lat="42.77692" lon="-0.50716">
        <ele>1413</ele>
        <time>2010-01-01T10:55:48Z</time>
      </trkpt>
      <trkpt lat="42.77697" lon="-0.50711">
        <ele>1414</ele>
        <time>2010-01-01T10:55:50Z</time>
      </trkpt>
      <trkpt lat="42.77707" lon="-0.50711">
        <ele>1418</ele>
        <time>2010-01-01T10:55:54Z</time>
      </trkpt>
      <trkpt lat="42.77709" lon="-0.50717">
        <ele>1420</ele>
        <time>2010-01-01T10:55:56Z</time>
      </trkpt>
      <trkpt lat="42.7772" lon="-0.50722">
        <ele>1425</ele>
        <time>2010-01-01T10:56:01Z</time>
      </trkpt>
      <trkpt lat="42.77745" lon="-0.50669">
        <ele>1421</ele>
        <time>2010-01-01T10:56:19Z</time>
      </trkpt>
      <trkpt lat="42.77753" lon="-0.5066">
        <ele>1422</ele>
        <time>2010-01-01T10:56:23Z</time>
      </trkpt>
      <trkpt lat="42.77762" lon="-0.50668">
        <ele>1428</ele>
        <time>2010-01-01T10:56:28Z</time>
      </trkpt>
      <trkpt lat="42.77766" lon="-0.50685">
        <ele>1435</ele>
        <time>2010-01-01T10:56:33Z</time>
      </trkpt>
      <trkpt lat="42.77765" lon="-0.50698">
        <ele>1438</ele>
        <time>2010-01-01T10:56:37Z</time>
      </trkpt>
      <trkpt lat="42.77774" lon="-0.50683">
        <ele>1437</ele>
        <time>2010-01-01T10:56:42Z</time>
      </trkpt>
      <trkpt lat="42.77795" lon="-0.50669">
        <ele>1442</ele>
        <time>2010-01-01T10:56:52Z</time>
      </trkpt>
      <trkpt lat="42.77812" lon="-0.50653">
        <ele>1444</ele>
        <time>2010-01-01T10:57:00Z</time>
      </trkpt>
      <trkpt lat="42.77822" lon="-0.50636">
        <ele>1442</ele>
        <time>2010-01-01T10:57:06Z</time>
      </trkpt>
      <trkpt lat="42.77829" lon="-0.50613">
        <ele>1439</ele>
        <time>2010-01-01T10:57:14Z</time>
      </trkpt>
      <trkpt lat="42.77832" lon="-0.50606">
        <ele>1439</ele>
        <time>2010-01-01T10:57:16Z</time>
      </trkpt>
      <trkpt lat="42.7784" lon="-0.50646">
        <ele>1451</ele>
        <time>2010-01-01T10:57:28Z</time>
      </trkpt>
      <trkpt lat="42.77838" lon="-0.50659">
        <ele>1454</ele>
        <time>2010-01-01T10:57:32Z</time>
      </trkpt>
      <trkpt lat="42.77832" lon="-0.5067">
        <ele>1457</ele>
        <time>2010-01-01T10:57:36Z</time>
      </trkpt>
      <trkpt lat="42.77825" lon="-0.50695">
        <ele>1466</ele>
        <time>2010-01-01T10:57:44Z</time>
      </trkpt>
      <trkpt lat="42.77834" lon="-0.50678">
        <ele>1461</ele>
        <time>2010-01-01T10:57:50Z</time>
      </trkpt>
      <trkpt lat="42.77843" lon="-0.50671">
        <ele>1460</ele>
        <time>2010-01-01T10:57:54Z</time>
      </trkpt>
      <trkpt lat="42.7785" lon="-0.5066">
        <ele>1458</ele>
        <time>2010-01-01T10:57:59Z</time>
      </trkpt>
      <trkpt lat="42.77859" lon="-0.50653">
        <ele>1458</ele>
        <time>2010-01-01T10:58:03Z</time>
      </trkpt>
      <trkpt lat="42.77872" lon="-0.50649">
        <ele>1459</ele>
        <time>2010-01-01T10:58:08Z</time>
      </trkpt>
      <trkpt lat="42.77882" lon="-0.5065">
        <ele>1460</ele>
        <time>2010-01-01T10:58:12Z</time>
      </trkpt>
      <trkpt lat="42.77888" lon="-0.50648">
        <ele>1460</ele>
        <time>2010-01-01T10:58:14Z</time>
      </trkpt>
      <trkpt lat="42.77893" lon="-0.50648">
        <ele>1461</ele>
        <time>2010-01-01T10:58:16Z</time>
      </trkpt>
      <trkpt lat="42.77916" lon="-0.50649">
        <ele>1465</ele>
        <time>2010-01-01T10:58:26Z</time>
      </trkpt>
      <trkpt lat="42.77923" lon="-0.50657">
        <ele>1470</ele>
        <time>2010-01-01T10:58:29Z</time>
      </trkpt>
      <trkpt lat="42.77927" lon="-0.50671">
        <ele>1476</ele>
        <time>2010-01-01T10:58:34Z</time>
      </trkpt>
      <trkpt lat="42.7793" lon="-0.50676">
        <ele>1478</ele>
        <time>2010-01-01T10:58:36Z</time>
      </trkpt>
      <trkpt lat="42.7794" lon="-0.50679">
        <ele>1482</ele>
        <time>2010-01-01T10:58:40Z</time>
      </trkpt>
      <trkpt lat="42.77941" lon="-0.50687">
        <ele>1484</ele>
        <time>2010-01-01T10:58:42Z</time>
      </trkpt>
      <trkpt lat="42.77945" lon="-0.50691">
        <ele>1485</ele>
        <time>2010-01-01T10:58:44Z</time>
      </trkpt>
      <trkpt lat="42.77951" lon="-0.50693">
        <ele>1486</ele>
        <time>2010-01-01T10:58:47Z</time>
      </trkpt>
      <trkpt lat="42.77956" lon="-0.50693">
        <ele>1487</ele>
        <time>2010-01-01T10:58:49Z</time>
      </trkpt>
      <trkpt lat="42.77963" lon="-0.50698">
        <ele>1489</ele>
        <time>2010-01-01T10:58:52Z</time>
      </trkpt>
      <trkpt lat="42.77968" lon="-0.50698">
        <ele>1490</ele>
        <time>2010-01-01T10:58:54Z</time>
      </trkpt>
      <trkpt lat="42.77973" lon="-0.50709">
        <ele>1492</ele>
        <time>2010-01-01T10:58:57Z</time>
      </trkpt>
      <trkpt lat="42.77969" lon="-0.50724">
        <ele>1492</ele>
        <time>2010-01-01T10:59:02Z</time>
      </trkpt>
      <trkpt lat="42.77959" lon="-0.50733">
        <ele>1493</ele>
        <time>2010-01-01T10:59:07Z</time>
      </trkpt>
      <trkpt lat="42.77959" lon="-0.50742">
        <ele>1496</ele>
        <time>2010-01-01T10:59:10Z</time>
      </trkpt>
      <trkpt lat="42.77957" lon="-0.50757">
        <ele>1503</ele>
        <time>2010-01-01T10:59:14Z</time>
      </trkpt>
      <trkpt lat="42.7796" lon="-0.50762">
        <ele>1505</ele>
        <time>2010-01-01T10:59:16Z</time>
      </trkpt>
      <trkpt lat="42.77954" lon="-0.5077">
        <ele>1508</ele>
        <time>2010-01-01T10:59:20Z</time>
      </trkpt>
      <trkpt lat="42.77932" lon="-0.50783">
        <ele>1515</ele>
        <time>2010-01-01T10:59:29Z</time>
      </trkpt>
      <trkpt lat="42.7793" lon="-0.50794">
        <ele>1518</ele>
        <time>2010-01-01T10:59:33Z</time>
      </trkpt>
      <trkpt lat="42.77942" lon="-0.50788">
        <ele>1516</ele>
        <time>2010-01-01T10:59:38Z</time>
      </trkpt>
      <trkpt lat="42.77948" lon="-0.50793">
        <ele>1517</ele>
        <time>2010-01-01T10:59:40Z</time>
      </trkpt>
      <trkpt lat="42.77959" lon="-0.50793">
        <ele>1517</ele>
        <time>2010-01-01T10:59:45Z</time>
      </trkpt>
      <trkpt lat="42.77964" lon="-0.50795">
        <ele>1518</ele>
        <time>2010-01-01T10:59:47Z</time>
      </trkpt>
      <trkpt lat="42.77976" lon="-0.50802">
        <ele>1521</ele>
        <time>2010-01-01T10:59:52Z</time>
      </trkpt>
      <trkpt lat="42.7798" lon="-0.50802">
        <ele>1523</ele>
        <time>2010-01-01T10:59:54Z</time>
      </trkpt>
      <trkpt lat="42.77984" lon="-0.50799">
        <ele>1523</ele>
        <time>2010-01-01T10:59:56Z</time>
      </trkpt>
      <trkpt lat="42.77994" lon="-0.50796">
        <ele>1525</ele>
        <time>2010-01-01T11:00:00Z</time>
      </trkpt>
      <trkpt lat="42.78021" lon="-0.50802">
        <ele>1538</ele>
        <time>2010-01-01T11:00:11Z</time>
      </trkpt>
      <trkpt lat="42.78027" lon="-0.50801">
        <ele>1540</ele>
        <time>2010-01-01T11:00:13Z</time>
      </trkpt>
      <trkpt lat="42.78036" lon="-0.50789">
        <ele>1539</ele>
        <time>2010-01-01T11:00:18Z</time>
      </trkpt>
      <trkpt lat="42.78039" lon="-0.50784">
        <ele>1538</ele>
        <time>2010-01-01T11:00:20Z</time>
      </trkpt>
      <trkpt lat="42.7804" lon="-0.5079">
        <ele>1540</ele>
        <time>2010-01-01T11:00:22Z</time>
      </trkpt>
      <trkpt lat="42.78048" lon="-0.50802">
        <ele>1547</ele>
        <time>2010-01-01T11:00:26Z</time>
      </trkpt>
      <trkpt lat="42.78041" lon="-0.50825">
        <ele>1557</ele>
        <time>2010-01-01T11:00:34Z</time>
      </trkpt>
      <trkpt lat="42.78047" lon="-0.50837">
        <ele>1567</ele>
        <time>2010-01-01T11:00:38Z</time>
      </trkpt>
      <trkpt lat="42.78049" lon="-0.50843">
        <ele>1571</ele>
        <time>2010-01-01T11:00:40Z</time>
      </trkpt>
      <trkpt lat="42.78045" lon="-0.5085">
        <ele>1574</ele>
        <time>2010-01-01T11:00:42Z</time>
      </trkpt>
      <trkpt lat="42.78038" lon="-0.50858">
        <ele>1573</ele>
        <time>2010-01-01T11:00:46Z</time>
      </trkpt>
      <trkpt lat="42.78033" lon="-0.50869">
        <ele>1574</ele>
        <time>2010-01-01T11:00:50Z</time>
      </trkpt>
      <trkpt lat="42.78028" lon="-0.50888">
        <ele>1580</ele>
        <time>2010-01-01T11:00:56Z</time>
      </trkpt>
      <trkpt lat="42.78024" lon="-0.50891">
        <ele>1580</ele>
        <time>2010-01-01T11:00:58Z</time>
      </trkpt>
      <trkpt lat="42.78015" lon="-0.50893">
        <ele>1577</ele>
        <time>2010-01-01T11:01:01Z</time>
      </trkpt>
      <trkpt lat="42.78004" lon="-0.50891">
        <ele>1572</ele>
        <time>2010-01-01T11:01:06Z</time>
      </trkpt>
      <trkpt lat="42.77996" lon="-0.50895">
        <ele>1569</ele>
        <time>2010-01-01T11:01:09Z</time>
      </trkpt>
      <trkpt lat="42.7799" lon="-0.50904">
        <ele>1569</ele>
        <time>2010-01-01T11:01:13Z</time>
      </trkpt>
      <trkpt lat="42.77974" lon="-0.50912">
        <ele>1564</ele>
        <time>2010-01-01T11:01:20Z</time>
      </trkpt>
      <trkpt lat="42.7798" lon="-0.50918">
        <ele>1568</ele>
        <time>2010-01-01T11:01:23Z</time>
      </trkpt>
      <trkpt lat="42.77986" lon="-0.50921">
        <ele>1571</ele>
        <time>2010-01-01T11:01:26Z</time>
      </trkpt>
      <trkpt lat="42.77992" lon="-0.50958">
        <ele>1579</ele>
        <time>2010-01-01T11:01:37Z</time>
      </trkpt>
      <trkpt lat="42.77995" lon="-0.5097">
        <ele>1583</ele>
        <time>2010-01-01T11:01:41Z</time>
      </trkpt>
      <trkpt lat="42.77999" lon="-0.5098">
        <ele>1586</ele>
        <time>2010-01-01T11:01:44Z</time>
      </trkpt>
      <trkpt lat="42.77999" lon="-0.50988">
        <ele>1587</ele>
        <time>2010-01-01T11:01:46Z</time>
      </trkpt>
      <trkpt lat="42.78004" lon="-0.51011">
        <ele>1592</ele>
        <time>2010-01-01T11:01:53Z</time>
      </trkpt>
      <trkpt lat="42.78011" lon="-0.5103">
        <ele>1597</ele>
        <time>2010-01-01T11:02:00Z</time>
      </trkpt>
      <trkpt lat="42.78012" lon="-0.51045">
        <ele>1600</ele>
        <time>2010-01-01T11:02:04Z</time>
      </trkpt>
      <trkpt lat="42.78015" lon="-0.51053">
        <ele>1604</ele>
        <time>2010-01-01T11:02:07Z</time>
      </trkpt>
      <trkpt lat="42.78015" lon="-0.51062">
        <ele>1607</ele>
        <time>2010-01-01T11:02:09Z</time>
      </trkpt>
      <trkpt lat="42.78022" lon="-0.51092">
        <ele>1621</ele>
        <time>2010-01-01T11:02:19Z</time>
      </trkpt>
      <trkpt lat="42.78024" lon="-0.51097">
        <ele>1624</ele>
        <time>2010-01-01T11:02:20Z</time>
      </trkpt>
      <trkpt lat="42.78024" lon="-0.51111">
        <ele>1627</ele>
        <time>2010-01-01T11:02:24Z</time>
      </trkpt>
      <trkpt lat="42.78021" lon="-0.51118">
        <ele>1627</ele>
        <time>2010-01-01T11:02:27Z</time>
      </trkpt>
      <trkpt lat="42.78017" lon="-0.51123">
        <ele>1626</ele>
        <time>2010-01-01T11:02:29Z</time>
      </trkpt>
      <trkpt lat="42.78008" lon="-0.51138">
        <ele>1628</ele>
        <time>2010-01-01T11:02:35Z</time>
      </trkpt>
      <trkpt lat="42.78013" lon="-0.51137">
        <ele>1629</ele>
        <time>2010-01-01T11:02:37Z</time>
      </trkpt>
      <trkpt lat="42.7801" lon="-0.51147">
        <ele>1629</ele>
        <time>2010-01-01T11:02:40Z</time>
      </trkpt>
      <trkpt lat="42.78006" lon="-0.5115">
        <ele>1628</ele>
        <time>2010-01-01T11:02:42Z</time>
      </trkpt>
      <trkpt lat="42.78014" lon="-0.5115">
        <ele>1630</ele>
        <time>2010-01-01T11:02:45Z</time>
      </trkpt>
      <trkpt lat="42.78024" lon="-0.5114">
        <ele>1633</ele>
        <time>2010-01-01T11:02:50Z</time>
      </trkpt>
      <trkpt lat="42.78034" lon="-0.51129">
        <ele>1635</ele>
        <time>2010-01-01T11:02:55Z</time>
      </trkpt>
      <trkpt lat="42.78037" lon="-0.51131">
        <ele>1636</ele>
        <time>2010-01-01T11:02:56Z</time>
      </trkpt>
      <trkpt lat="42.7803" lon="-0.51155">
        <ele>1635</ele>
        <time>2010-01-01T11:03:04Z</time>
      </trkpt>
      <trkpt lat="42.78027" lon="-0.51161">
        <ele>1634</ele>
        <time>2010-01-01T11:03:06Z</time>
      </trkpt>
      <trkpt lat="42.78026" lon="-0.51168">
        <ele>1634</ele>
        <time>2010-01-01T11:03:08Z</time>
      </trkpt>
      <trkpt lat="42.78023" lon="-0.51175">
        <ele>1632</ele>
        <time>2010-01-01T11:03:11Z</time>
      </trkpt>
      <trkpt lat="42.78005" lon="-0.51187">
        <ele>1625</ele>
        <time>2010-01-01T11:03:19Z</time>
      </trkpt>
      <trkpt lat="42.77995" lon="-0.51191">
        <ele>1623</ele>
        <time>2010-01-01T11:03:23Z</time>
      </trkpt>
      <trkpt lat="42.7799" lon="-0.51195">
        <ele>1622</ele>
        <time>2010-01-01T11:03:25Z</time>
      </trkpt>
      <trkpt lat="42.77986" lon="-0.51201">
        <ele>1621</ele>
        <time>2010-01-01T11:03:27Z</time>
      </trkpt>
      <trkpt lat="42.77991" lon="-0.51209">
        <ele>1622</ele>
        <time>2010-01-01T11:03:30Z</time>
      </trkpt>
      <trkpt lat="42.77996" lon="-0.51212">
        <ele>1622</ele>
        <time>2010-01-01T11:03:33Z</time>
      </trkpt>
      <trkpt lat="42.78002" lon="-0.51214">
        <ele>1624</ele>
        <time>2010-01-01T11:03:35Z</time>
      </trkpt>
      <trkpt lat="42.78012" lon="-0.51215">
        <ele>1627</ele>
        <time>2010-01-01T11:03:39Z</time>
      </trkpt>
      <trkpt lat="42.78024" lon="-0.51223">
        <ele>1631</ele>
        <time>2010-01-01T11:03:44Z</time>
      </trkpt>
      <trkpt lat="42.78038" lon="-0.51249">
        <ele>1638</ele>
        <time>2010-01-01T11:03:54Z</time>
      </trkpt>
      <trkpt lat="42.78045" lon="-0.51278">
        <ele>1641</ele>
        <time>2010-01-01T11:04:03Z</time>
      </trkpt>
      <trkpt lat="42.7805" lon="-0.5127">
        <ele>1643</ele>
        <time>2010-01-01T11:04:06Z</time>
      </trkpt>
      <trkpt lat="42.7806" lon="-0.5125">
        <ele>1647</ele>
        <time>2010-01-01T11:04:13Z</time>
      </trkpt>
      <trkpt lat="42.7807" lon="-0.51215">
        <ele>1647</ele>
        <time>2010-01-01T11:04:24Z</time>
      </trkpt>
      <trkpt lat="42.78078" lon="-0.51205">
        <ele>1650</ele>
        <time>2010-01-01T11:04:29Z</time>
      </trkpt>
      <trkpt lat="42.78081" lon="-0.51212">
        <ele>1652</ele>
        <time>2010-01-01T11:04:31Z</time>
      </trkpt>
      <trkpt lat="42.78082" lon="-0.5122">
        <ele>1653</ele>
        <time>2010-01-01T11:04:33Z</time>
      </trkpt>
      <trkpt lat="42.78085" lon="-0.51225">
        <ele>1656</ele>
        <time>2010-01-01T11:04:35Z</time>
      </trkpt>
      <trkpt lat="42.78088" lon="-0.5124">
        <ele>1660</ele>
        <time>2010-01-01T11:04:40Z</time>
      </trkpt>
      <trkpt lat="42.78096" lon="-0.51255">
        <ele>1667</ele>
        <time>2010-01-01T11:04:45Z</time>
      </trkpt>
      <trkpt lat="42.78101" lon="-0.51248">
        <ele>1670</ele>
        <time>2010-01-01T11:04:48Z</time>
      </trkpt>
      <trkpt lat="42.78105" lon="-0.51234">
        <ele>1672</ele>
        <time>2010-01-01T11:04:52Z</time>
      </trkpt>
      <trkpt lat="42.78108" lon="-0.51218">
        <ele>1674</ele>
        <time>2010-01-01T11:04:58Z</time>
      </trkpt>
      <trkpt lat="42.78113" lon="-0.51222">
        <ele>1678</ele>
        <time>2010-01-01T11:05:00Z</time>
      </trkpt>
      <trkpt lat="42.78118" lon="-0.51234">
        <ele>1680</ele>
        <time>2010-01-01T11:05:04Z</time>
      </trkpt>
      <trkpt lat="42.7812" lon="-0.51243">
        <ele>1681</ele>
        <time>2010-01-01T11:05:06Z</time>
      </trkpt>
      <trkpt lat="42.78123" lon="-0.51232">
        <ele>1682</ele>
        <time>2010-01-01T11:05:10Z</time>
      </trkpt>
      <trkpt lat="42.78124" lon="-0.51209">
        <ele>1683</ele>
        <time>2010-01-01T11:05:17Z</time>
      </trkpt>
      <trkpt lat="42.7812" lon="-0.51136">
        <ele>1689</ele>
        <time>2010-01-01T11:05:38Z</time>
      </trkpt>
      <trkpt lat="42.78121" lon="-0.51121">
        <ele>1691</ele>
        <time>2010-01-01T11:05:43Z</time>
      </trkpt>
      <trkpt lat="42.7812" lon="-0.51106">
        <ele>1691</ele>
        <time>2010-01-01T11:05:47Z</time>
      </trkpt>
      <trkpt lat="42.78125" lon="-0.5111">
        <ele>1694</ele>
        <time>2010-01-01T11:05:49Z</time>
      </trkpt>
      <trkpt lat="42.7813" lon="-0.5112">
        <ele>1697</ele>
        <time>2010-01-01T11:05:53Z</time>
      </trkpt>
      <trkpt lat="42.78132" lon="-0.51133">
        <ele>1696</ele>
        <time>2010-01-01T11:05:57Z</time>
      </trkpt>
      <trkpt lat="42.7814" lon="-0.51151">
        <ele>1698</ele>
        <time>2010-01-01T11:06:03Z</time>
      </trkpt>
      <trkpt lat="42.78152" lon="-0.51188">
        <ele>1699</ele>
        <time>2010-01-01T11:06:15Z</time>
      </trkpt>
      <trkpt lat="42.78154" lon="-0.51178">
        <ele>1701</ele>
        <time>2010-01-01T11:06:18Z</time>
      </trkpt>
      <trkpt lat="42.78152" lon="-0.51165">
        <ele>1701</ele>
        <time>2010-01-01T11:06:22Z</time>
      </trkpt>
      <trkpt lat="42.78142" lon="-0.51129">
        <ele>1703</ele>
        <time>2010-01-01T11:06:33Z</time>
      </trkpt>
      <trkpt lat="42.78144" lon="-0.51113">
        <ele>1705</ele>
        <time>2010-01-01T11:06:38Z</time>
      </trkpt>
      <trkpt lat="42.78153" lon="-0.5108">
        <ele>1712</ele>
        <time>2010-01-01T11:06:48Z</time>
      </trkpt>
      <trkpt lat="42.78157" lon="-0.51081">
        <ele>1715</ele>
        <time>2010-01-01T11:06:50Z</time>
      </trkpt>
      <trkpt lat="42.78164" lon="-0.51093">
        <ele>1717</ele>
        <time>2010-01-01T11:06:55Z</time>
      </trkpt>
      <trkpt lat="42.78167" lon="-0.51069">
        <ele>1720</ele>
        <time>2010-01-01T11:07:02Z</time>
      </trkpt>
      <trkpt lat="42.78172" lon="-0.51046">
        <ele>1722</ele>
        <time>2010-01-01T11:07:09Z</time>
      </trkpt>
      <trkpt lat="42.78175" lon="-0.51042">
        <ele>1723</ele>
        <time>2010-01-01T11:07:11Z</time>
      </trkpt>
      <trkpt lat="42.7818" lon="-0.51041">
        <ele>1725</ele>
        <time>2010-01-01T11:07:13Z</time>
      </trkpt>
      <trkpt lat="42.78191" lon="-0.51048">
        <ele>1729</ele>
        <time>2010-01-01T11:07:18Z</time>
      </trkpt>
      <trkpt lat="42.78201" lon="-0.5106">
        <ele>1732</ele>
        <time>2010-01-01T11:07:23Z</time>
      </trkpt>
      <trkpt lat="42.78206" lon="-0.51063">
        <ele>1734</ele>
        <time>2010-01-01T11:07:25Z</time>
      </trkpt>
      <trkpt lat="42.78223" lon="-0.51062">
        <ele>1740</ele>
        <time>2010-01-01T11:07:32Z</time>
      </trkpt>
      <trkpt lat="42.78235" lon="-0.51066">
        <ele>1743</ele>
        <time>2010-01-01T11:07:37Z</time>
      </trkpt>
      <trkpt lat="42.78239" lon="-0.51063">
        <ele>1745</ele>
        <time>2010-01-01T11:07:39Z</time>
      </trkpt>
      <trkpt lat="42.78242" lon="-0.51057">
        <ele>1746</ele>
        <time>2010-01-01T11:07:41Z</time>
      </trkpt>
      <trkpt lat="42.78242" lon="-0.51035">
        <ele>1747</ele>
        <time>2010-01-01T11:07:47Z</time>
      </trkpt>
      <trkpt lat="42.78247" lon="-0.51014">
        <ele>1751</ele>
        <time>2010-01-01T11:07:54Z</time>
      </trkpt>
      <trkpt lat="42.78248" lon="-0.51001">
        <ele>1752</ele>
        <time>2010-01-01T11:07:58Z</time>
      </trkpt>
      <trkpt lat="42.78258" lon="-0.50974">
        <ele>1759</ele>
        <time>2010-01-01T11:08:06Z</time>
      </trkpt>
      <trkpt lat="42.7826" lon="-0.50964">
        <ele>1760</ele>
        <time>2010-01-01T11:08:09Z</time>
      </trkpt>
      <trkpt lat="42.78266" lon="-0.5097">
        <ele>1766</ele>
        <time>2010-01-01T11:08:13Z</time>
      </trkpt>
      <trkpt lat="42.78271" lon="-0.50983">
        <ele>1769</ele>
        <time>2010-01-01T11:08:17Z</time>
      </trkpt>
      <trkpt lat="42.78274" lon="-0.50998">
        <ele>1770</ele>
        <time>2010-01-01T11:08:21Z</time>
      </trkpt>
      <trkpt lat="42.78278" lon="-0.51006">
        <ele>1771</ele>
        <time>2010-01-01T11:08:24Z</time>
      </trkpt>
      <trkpt lat="42.78288" lon="-0.51019">
        <ele>1775</ele>
        <time>2010-01-01T11:08:30Z</time>
      </trkpt>
      <trkpt lat="42.78291" lon="-0.51014">
        <ele>1777</ele>
        <time>2010-01-01T11:08:32Z</time>
      </trkpt>
      <trkpt lat="42.78291" lon="-0.51001">
        <ele>1779</ele>
        <time>2010-01-01T11:08:36Z</time>
      </trkpt>
      <trkpt lat="42.78298" lon="-0.51002">
        <ele>1782</ele>
        <time>2010-01-01T11:08:38Z</time>
      </trkpt>
      <trkpt lat="42.78295" lon="-0.50986">
        <ele>1783</ele>
        <time>2010-01-01T11:08:43Z</time>
      </trkpt>
      <trkpt lat="42.78294" lon="-0.50964">
        <ele>1785</ele>
        <time>2010-01-01T11:08:50Z</time>
      </trkpt>
      <trkpt lat="42.783" lon="-0.50956">
        <ele>1789</ele>
        <time>2010-01-01T11:08:53Z</time>
      </trkpt>
      <trkpt lat="42.78299" lon="-0.50924">
        <ele>1788</ele>
        <time>2010-01-01T11:09:02Z</time>
      </trkpt>
      <trkpt lat="42.78307" lon="-0.5093">
        <ele>1793</ele>
        <time>2010-01-01T11:09:06Z</time>
      </trkpt>
      <trkpt lat="42.78314" lon="-0.50952">
        <ele>1796</ele>
        <time>2010-01-01T11:09:13Z</time>
      </trkpt>
      <trkpt lat="42.78316" lon="-0.50943">
        <ele>1797</ele>
        <time>2010-01-01T11:09:16Z</time>
      </trkpt>
      <trkpt lat="42.78312" lon="-0.50929">
        <ele>1795</ele>
        <time>2010-01-01T11:09:20Z</time>
      </trkpt>
      <trkpt lat="42.78312" lon="-0.50922">
        <ele>1795</ele>
        <time>2010-01-01T11:09:22Z</time>
      </trkpt>
      <trkpt lat="42.78317" lon="-0.50925">
        <ele>1797</ele>
        <time>2010-01-01T11:09:24Z</time>
      </trkpt>
      <trkpt lat="42.78319" lon="-0.50931">
        <ele>1798</ele>
        <time>2010-01-01T11:09:26Z</time>
      </trkpt>
      <trkpt lat="42.78322" lon="-0.5092">
        <ele>1799</ele>
        <time>2010-01-01T11:09:30Z</time>
      </trkpt>
      <trkpt lat="42.78328" lon="-0.50917">
        <ele>1801</ele>
        <time>2010-01-01T11:09:32Z</time>
      </trkpt>
      <trkpt lat="42.78328" lon="-0.5091">
        <ele>1802</ele>
        <time>2010-01-01T11:09:34Z</time>
      </trkpt>
      <trkpt lat="42.78335" lon="-0.50915">
        <ele>1804</ele>
        <time>2010-01-01T11:09:37Z</time>
      </trkpt>
      <trkpt lat="42.78337" lon="-0.50891">
        <ele>1807</ele>
        <time>2010-01-01T11:09:44Z</time>
      </trkpt>
      <trkpt lat="42.78355" lon="-0.50866">
        <ele>1817</ele>
        <time>2010-01-01T11:09:55Z</time>
      </trkpt>
      <trkpt lat="42.7836" lon="-0.50866">
        <ele>1820</ele>
        <time>2010-01-01T11:09:57Z</time>
      </trkpt>
      <trkpt lat="42.78363" lon="-0.50879">
        <ele>1820</ele>
        <time>2010-01-01T11:10:01Z</time>
      </trkpt>
      <trkpt lat="42.78373" lon="-0.50901">
        <ele>1823</ele>
        <time>2010-01-01T11:10:08Z</time>
      </trkpt>
      <trkpt lat="42.7838" lon="-0.50927">
        <ele>1824</ele>
        <time>2010-01-01T11:10:16Z</time>
      </trkpt>
      <trkpt lat="42.78384" lon="-0.50932">
        <ele>1826</ele>
        <time>2010-01-01T11:10:19Z</time>
      </trkpt>
      <trkpt lat="42.78394" lon="-0.50915">
        <ele>1832</ele>
        <time>2010-01-01T11:10:25Z</time>
      </trkpt>
      <trkpt lat="42.78406" lon="-0.50875">
        <ele>1843</ele>
        <time>2010-01-01T11:10:38Z</time>
      </trkpt>
      <trkpt lat="42.7841" lon="-0.50878">
        <ele>1845</ele>
        <time>2010-01-01T11:10:40Z</time>
      </trkpt>
      <trkpt lat="42.78425" lon="-0.50911">
        <ele>1848</ele>
        <time>2010-01-01T11:10:51Z</time>
      </trkpt>
      <trkpt lat="42.78431" lon="-0.50921">
        <ele>1850</ele>
        <time>2010-01-01T11:10:55Z</time>
      </trkpt>
      <trkpt lat="42.78439" lon="-0.50915">
        <ele>1855</ele>
        <time>2010-01-01T11:10:58Z</time>
      </trkpt>
      <trkpt lat="42.78442" lon="-0.50923">
        <ele>1855</ele>
        <time>2010-01-01T11:11:01Z</time>
      </trkpt>
      <trkpt lat="42.78454" lon="-0.50939">
        <ele>1856</ele>
        <time>2010-01-01T11:11:08Z</time>
      </trkpt>
      <trkpt lat="42.78453" lon="-0.50927">
        <ele>1859</ele>
        <time>2010-01-01T11:11:11Z</time>
      </trkpt>
      <trkpt lat="42.78448" lon="-0.50908">
        <ele>1860</ele>
        <time>2010-01-01T11:11:17Z</time>
      </trkpt>
      <trkpt lat="42.78455" lon="-0.50915">
        <ele>1863</ele>
        <time>2010-01-01T11:11:21Z</time>
      </trkpt>
      <trkpt lat="42.78459" lon="-0.50926">
        <ele>1863</ele>
        <time>2010-01-01T11:11:24Z</time>
      </trkpt>
      <trkpt lat="42.78472" lon="-0.50944">
        <ele>1865</ele>
        <time>2010-01-01T11:11:32Z</time>
      </trkpt>
      <trkpt lat="42.78477" lon="-0.50949">
        <ele>1866</ele>
        <time>2010-01-01T11:11:34Z</time>
      </trkpt>
      <trkpt lat="42.78494" lon="-0.50972">
        <ele>1866</ele>
        <time>2010-01-01T11:11:44Z</time>
      </trkpt>
      <trkpt lat="42.78499" lon="-0.50983">
        <ele>1867</ele>
        <time>2010-01-01T11:11:47Z</time>
      </trkpt>
      <trkpt lat="42.78511" lon="-0.51019">
        <ele>1867</ele>
        <time>2010-01-01T11:11:59Z</time>
      </trkpt>
      <trkpt lat="42.78519" lon="-0.51037">
        <ele>1866</ele>
        <time>2010-01-01T11:12:05Z</time>
      </trkpt>
      <trkpt lat="42.78539" lon="-0.51065">
        <ele>1862</ele>
        <time>2010-01-01T11:12:16Z</time>
      </trkpt>
      <trkpt lat="42.78556" lon="-0.51081">
        <ele>1861</ele>
        <time>2010-01-01T11:12:25Z</time>
      </trkpt>
      <trkpt lat="42.78548" lon="-0.51049">
        <ele>1869</ele>
        <time>2010-01-01T11:12:35Z</time>
      </trkpt>
      <trkpt lat="42.78537" lon="-0.5103">
        <ele>1872</ele>
        <time>2010-01-01T11:12:42Z</time>
      </trkpt>
      <trkpt lat="42.7853" lon="-0.51001">
        <ele>1877</ele>
        <time>2010-01-01T11:12:51Z</time>
      </trkpt>
      <trkpt lat="42.78524" lon="-0.50986">
        <ele>1878</ele>
        <time>2010-01-01T11:12:56Z</time>
      </trkpt>
      <trkpt lat="42.78519" lon="-0.50962">
        <ele>1881</ele>
        <time>2010-01-01T11:13:03Z</time>
      </trkpt>
      <trkpt lat="42.78489" lon="-0.50899">
        <ele>1883</ele>
        <time>2010-01-01T11:13:25Z</time>
      </trkpt>
      <trkpt lat="42.78494" lon="-0.50894">
        <ele>1886</ele>
        <time>2010-01-01T11:13:27Z</time>
      </trkpt>
      <trkpt lat="42.78501" lon="-0.50869">
        <ele>1893</ele>
        <time>2010-01-01T11:13:35Z</time>
      </trkpt>
      <trkpt lat="42.78508" lon="-0.50858">
        <ele>1896</ele>
        <time>2010-01-01T11:13:39Z</time>
      </trkpt>
      <trkpt lat="42.7851" lon="-0.50851">
        <ele>1897</ele>
        <time>2010-01-01T11:13:42Z</time>
      </trkpt>
      <trkpt lat="42.78513" lon="-0.50825">
        <ele>1900</ele>
        <time>2010-01-01T11:13:49Z</time>
      </trkpt>
      <trkpt lat="42.78515" lon="-0.5082">
        <ele>1901</ele>
        <time>2010-01-01T11:13:51Z</time>
      </trkpt>
      <trkpt lat="42.7852" lon="-0.50814">
        <ele>1902</ele>
        <time>2010-01-01T11:13:53Z</time>
      </trkpt>
      <trkpt lat="42.78529" lon="-0.50806">
        <ele>1905</ele>
        <time>2010-01-01T11:13:58Z</time>
      </trkpt>
      <trkpt lat="42.78531" lon="-0.5082">
        <ele>1906</ele>
        <time>2010-01-01T11:14:02Z</time>
      </trkpt>
      <trkpt lat="42.78536" lon="-0.5082">
        <ele>1907</ele>
        <time>2010-01-01T11:14:04Z</time>
      </trkpt>
      <trkpt lat="42.78546" lon="-0.50814">
        <ele>1910</ele>
        <time>2010-01-01T11:14:09Z</time>
      </trkpt>
      <trkpt lat="42.78565" lon="-0.50795">
        <ele>1916</ele>
        <time>2010-01-01T11:14:18Z</time>
      </trkpt>
      <trkpt lat="42.78575" lon="-0.5077">
        <ele>1921</ele>
        <time>2010-01-01T11:14:26Z</time>
      </trkpt>
      <trkpt lat="42.78583" lon="-0.50756">
        <ele>1923</ele>
        <time>2010-01-01T11:14:31Z</time>
      </trkpt>
      <trkpt lat="42.78584" lon="-0.50764">
        <ele>1923</ele>
        <time>2010-01-01T11:14:34Z</time>
      </trkpt>
      <trkpt lat="42.78588" lon="-0.50778">
        <ele>1924</ele>
        <time>2010-01-01T11:14:38Z</time>
      </trkpt>
      <trkpt lat="42.78594" lon="-0.50793">
        <ele>1924</ele>
        <time>2010-01-01T11:14:43Z</time>
      </trkpt>
      <trkpt lat="42.78599" lon="-0.50788">
        <ele>1926</ele>
        <time>2010-01-01T11:14:45Z</time>
      </trkpt>
      <trkpt lat="42.78602" lon="-0.50775">
        <ele>1928</ele>
        <time>2010-01-01T11:14:49Z</time>
      </trkpt>
      <trkpt lat="42.78607" lon="-0.50786">
        <ele>1929</ele>
        <time>2010-01-01T11:14:53Z</time>
      </trkpt>
      <trkpt lat="42.78615" lon="-0.50807">
        <ele>1931</ele>
        <time>2010-01-01T11:15:00Z</time>
      </trkpt>
      <trkpt lat="42.78624" lon="-0.50825">
        <ele>1933</ele>
        <time>2010-01-01T11:15:07Z</time>
      </trkpt>
      <trkpt lat="42.78628" lon="-0.50822">
        <ele>1935</ele>
        <time>2010-01-01T11:15:08Z</time>
      </trkpt>
      <trkpt lat="42.78629" lon="-0.5079">
        <ele>1938</ele>
        <time>2010-01-01T11:15:18Z</time>
      </trkpt>
      <trkpt lat="42.78632" lon="-0.50796">
        <ele>1939</ele>
        <time>2010-01-01T11:15:20Z</time>
      </trkpt>
      <trkpt lat="42.78643" lon="-0.50831">
        <ele>1939</ele>
        <time>2010-01-01T11:15:31Z</time>
      </trkpt>
      <trkpt lat="42.78652" lon="-0.50838">
        <ele>1942</ele>
        <time>2010-01-01T11:15:35Z</time>
      </trkpt>
      <trkpt lat="42.7865" lon="-0.50823">
        <ele>1943</ele>
        <time>2010-01-01T11:15:39Z</time>
      </trkpt>
      <trkpt lat="42.7866" lon="-0.50832">
        <ele>1945</ele>
        <time>2010-01-01T11:15:44Z</time>
      </trkpt>
      <trkpt lat="42.78665" lon="-0.50832">
        <ele>1947</ele>
        <time>2010-01-01T11:15:46Z</time>
      </trkpt>
      <trkpt lat="42.7866" lon="-0.50821">
        <ele>1947</ele>
        <time>2010-01-01T11:15:50Z</time>
      </trkpt>
      <trkpt lat="42.78667" lon="-0.50826">
        <ele>1949</ele>
        <time>2010-01-01T11:15:53Z</time>
      </trkpt>
      <trkpt lat="42.78676" lon="-0.5084">
        <ele>1951</ele>
        <time>2010-01-01T11:15:59Z</time>
      </trkpt>
      <trkpt lat="42.78676" lon="-0.50827">
        <ele>1954</ele>
        <time>2010-01-01T11:16:02Z</time>
      </trkpt>
      <trkpt lat="42.78671" lon="-0.50811">
        <ele>1954</ele>
        <time>2010-01-01T11:16:07Z</time>
      </trkpt>
      <trkpt lat="42.78672" lon="-0.50803">
        <ele>1957</ele>
        <time>2010-01-01T11:16:10Z</time>
      </trkpt>
      <trkpt lat="42.78677" lon="-0.50806">
        <ele>1958</ele>
        <time>2010-01-01T11:16:12Z</time>
      </trkpt>
      <trkpt lat="42.78692" lon="-0.50825">
        <ele>1963</ele>
        <time>2010-01-01T11:16:20Z</time>
      </trkpt>
      <trkpt lat="42.78704" lon="-0.50828">
        <ele>1967</ele>
        <time>2010-01-01T11:16:25Z</time>
      </trkpt>
      <trkpt lat="42.78718" lon="-0.50839">
        <ele>1970</ele>
        <time>2010-01-01T11:16:31Z</time>
      </trkpt>
      <trkpt lat="42.78722" lon="-0.50845">
        <ele>1970</ele>
        <time>2010-01-01T11:16:34Z</time>
      </trkpt>
      <trkpt lat="42.78729" lon="-0.50868">
        <ele>1970</ele>
        <time>2010-01-01T11:16:41Z</time>
      </trkpt>
      <trkpt lat="42.78736" lon="-0.50881">
        <ele>1971</ele>
        <time>2010-01-01T11:16:46Z</time>
      </trkpt>
      <trkpt lat="42.78739" lon="-0.50879">
        <ele>1973</ele>
        <time>2010-01-01T11:16:47Z</time>
      </trkpt>
      <trkpt lat="42.78738" lon="-0.50864">
        <ele>1974</ele>
        <time>2010-01-01T11:16:52Z</time>
      </trkpt>
      <trkpt lat="42.78743" lon="-0.50866">
        <ele>1976</ele>
        <time>2010-01-01T11:16:54Z</time>
      </trkpt>
      <trkpt lat="42.78749" lon="-0.50878">
        <ele>1978</ele>
        <time>2010-01-01T11:16:58Z</time>
      </trkpt>
      <trkpt lat="42.78749" lon="-0.50855">
        <ele>1978</ele>
        <time>2010-01-01T11:17:05Z</time>
      </trkpt>
      <trkpt lat="42.78747" lon="-0.50847">
        <ele>1978</ele>
        <time>2010-01-01T11:17:07Z</time>
      </trkpt>
      <trkpt lat="42.78746" lon="-0.50816">
        <ele>1979</ele>
        <time>2010-01-01T11:17:16Z</time>
      </trkpt>
      <trkpt lat="42.78744" lon="-0.50795">
        <ele>1982</ele>
        <time>2010-01-01T11:17:23Z</time>
      </trkpt>
      <trkpt lat="42.7874" lon="-0.50779">
        <ele>1984</ele>
        <time>2010-01-01T11:17:27Z</time>
      </trkpt>
      <trkpt lat="42.78738" lon="-0.50765">
        <ele>1984</ele>
        <time>2010-01-01T11:17:32Z</time>
      </trkpt>
      <trkpt lat="42.7873" lon="-0.5075">
        <ele>1982</ele>
        <time>2010-01-01T11:17:37Z</time>
      </trkpt>
      <trkpt lat="42.78728" lon="-0.50742">
        <ele>1981</ele>
        <time>2010-01-01T11:17:39Z</time>
      </trkpt>
      <trkpt lat="42.78735" lon="-0.50745">
        <ele>1984</ele>
        <time>2010-01-01T11:17:42Z</time>
      </trkpt>
      <trkpt lat="42.78745" lon="-0.50753">
        <ele>1988</ele>
        <time>2010-01-01T11:17:47Z</time>
      </trkpt>
      <trkpt lat="42.7874" lon="-0.50739">
        <ele>1986</ele>
        <time>2010-01-01T11:17:51Z</time>
      </trkpt>
      <trkpt lat="42.78747" lon="-0.50741">
        <ele>1990</ele>
        <time>2010-01-01T11:17:54Z</time>
      </trkpt>
      <trkpt lat="42.78753" lon="-0.50746">
        <ele>1992</ele>
        <time>2010-01-01T11:17:57Z</time>
      </trkpt>
      <trkpt lat="42.78754" lon="-0.50738">
        <ele>1994</ele>
        <time>2010-01-01T11:17:59Z</time>
      </trkpt>
      <trkpt lat="42.78759" lon="-0.50742">
        <ele>1996</ele>
        <time>2010-01-01T11:18:01Z</time>
      </trkpt>
      <trkpt lat="42.78765" lon="-0.50743">
        <ele>1999</ele>
        <time>2010-01-01T11:18:04Z</time>
      </trkpt>
      <trkpt lat="42.78766" lon="-0.50735">
        <ele>2000</ele>
        <time>2010-01-01T11:18:06Z</time>
      </trkpt>
      <trkpt lat="42.78763" lon="-0.5073">
        <ele>1999</ele>
        <time>2010-01-01T11:18:08Z</time>
      </trkpt>
      <trkpt lat="42.78771" lon="-0.50732">
        <ele>2003</ele>
        <time>2010-01-01T11:18:11Z</time>
      </trkpt>
      <trkpt lat="42.7878" lon="-0.50741">
        <ele>2007</ele>
        <time>2010-01-01T11:18:16Z</time>
      </trkpt>
      <trkpt lat="42.78774" lon="-0.50727">
        <ele>2006</ele>
        <time>2010-01-01T11:18:21Z</time>
      </trkpt>
      <trkpt lat="42.78779" lon="-0.50727">
        <ele>2008</ele>
        <time>2010-01-01T11:18:23Z</time>
      </trkpt>
      <trkpt lat="42.78789" lon="-0.50732">
        <ele>2012</ele>
        <time>2010-01-01T11:18:27Z</time>
      </trkpt>
      <trkpt lat="42.78784" lon="-0.5072">
        <ele>2011</ele>
        <time>2010-01-01T11:18:31Z</time>
      </trkpt>
      <trkpt lat="42.78792" lon="-0.50724">
        <ele>2015</ele>
        <time>2010-01-01T11:18:35Z</time>
      </trkpt>
      <trkpt lat="42.78791" lon="-0.50712">
        <ele>2015</ele>
        <time>2010-01-01T11:18:38Z</time>
      </trkpt>
      <trkpt lat="42.78802" lon="-0.50721">
        <ele>2020</ele>
        <time>2010-01-01T11:18:43Z</time>
      </trkpt>
      <trkpt lat="42.78801" lon="-0.50711">
        <ele>2020</ele>
        <time>2010-01-01T11:18:46Z</time>
      </trkpt>
      <trkpt lat="42.78801" lon="-0.50705">
        <ele>2022</ele>
        <time>2010-01-01T11:18:48Z</time>
      </trkpt>
      <trkpt lat="42.7881" lon="-0.50715">
        <ele>2024</ele>
        <time>2010-01-01T11:18:52Z</time>
      </trkpt>
      <trkpt lat="42.78808" lon="-0.50699">
        <ele>2026</ele>
        <time>2010-01-01T11:18:57Z</time>
      </trkpt>
      <trkpt lat="42.78818" lon="-0.50711">
        <ele>2028</ele>
        <time>2010-01-01T11:19:03Z</time>
      </trkpt>
      <trkpt lat="42.78819" lon="-0.50705">
        <ele>2030</ele>
        <time>2010-01-01T11:19:05Z</time>
      </trkpt>
      <trkpt lat="42.78816" lon="-0.50696">
        <ele>2030</ele>
        <time>2010-01-01T11:19:07Z</time>
      </trkpt>
      <trkpt lat="42.78824" lon="-0.50699">
        <ele>2033</ele>
        <time>2010-01-01T11:19:11Z</time>
      </trkpt>
      <trkpt lat="42.78841" lon="-0.50711">
        <ele>2037</ele>
        <time>2010-01-01T11:19:18Z</time>
      </trkpt>
      <trkpt lat="42.78859" lon="-0.50715">
        <ele>2044</ele>
        <time>2010-01-01T11:19:26Z</time>
      </trkpt>
      <trkpt lat="42.78864" lon="-0.50715">
        <ele>2045</ele>
        <time>2010-01-01T11:19:28Z</time>
      </trkpt>
      <trkpt lat="42.78869" lon="-0.50713">
        <ele>2048</ele>
        <time>2010-01-01T11:19:30Z</time>
      </trkpt>
      <trkpt lat="42.78848" lon="-0.50702">
        <ele>2043</ele>
        <time>2010-01-01T11:19:39Z</time>
      </trkpt>
      <trkpt lat="42.78851" lon="-0.50697">
        <ele>2046</ele>
        <time>2010-01-01T11:19:41Z</time>
      </trkpt>
      <trkpt lat="42.78856" lon="-0.50696">
        <ele>2048</ele>
        <time>2010-01-01T11:19:43Z</time>
      </trkpt>
      <trkpt lat="42.78868" lon="-0.50695">
        <ele>2052</ele>
        <time>2010-01-01T11:19:48Z</time>
      </trkpt>
      <trkpt lat="42.78887" lon="-0.507">
        <ele>2056</ele>
        <time>2010-01-01T11:19:55Z</time>
      </trkpt>
      <trkpt lat="42.78908" lon="-0.50701">
        <ele>2064</ele>
        <time>2010-01-01T11:20:04Z</time>
      </trkpt>
      <trkpt lat="42.78914" lon="-0.50702">
        <ele>2067</ele>
        <time>2010-01-01T11:20:06Z</time>
      </trkpt>
      <trkpt lat="42.78911" lon="-0.50696">
        <ele>2067</ele>
        <time>2010-01-01T11:20:08Z</time>
      </trkpt>
      <trkpt lat="42.78899" lon="-0.50687">
        <ele>2062</ele>
        <time>2010-01-01T11:20:14Z</time>
      </trkpt>
      <trkpt lat="42.78904" lon="-0.50684">
        <ele>2065</ele>
        <time>2010-01-01T11:20:16Z</time>
      </trkpt>
      <trkpt lat="42.78924" lon="-0.50684">
        <ele>2074</ele>
        <time>2010-01-01T11:20:24Z</time>
      </trkpt>
      <trkpt lat="42.78929" lon="-0.50684">
        <ele>2077</ele>
        <time>2010-01-01T11:20:26Z</time>
      </trkpt>
      <trkpt lat="42.78933" lon="-0.50687">
        <ele>2079</ele>
        <time>2010-01-01T11:20:28Z</time>
      </trkpt>
      <trkpt lat="42.78939" lon="-0.50692">
        <ele>2082</ele>
        <time>2010-01-01T11:20:30Z</time>
      </trkpt>
      <trkpt lat="42.78947" lon="-0.50703">
        <ele>2086</ele>
        <time>2010-01-01T11:20:35Z</time>
      </trkpt>
      <trkpt lat="42.78958" lon="-0.50725">
        <ele>2092</ele>
        <time>2010-01-01T11:20:43Z</time>
      </trkpt>
      <trkpt lat="42.78962" lon="-0.50717">
        <ele>2095</ele>
        <time>2010-01-01T11:20:46Z</time>
      </trkpt>
      <trkpt lat="42.78961" lon="-0.50709">
        <ele>2094</ele>
        <time>2010-01-01T11:20:48Z</time>
      </trkpt>
      <trkpt lat="42.78962" lon="-0.50702">
        <ele>2095</ele>
        <time>2010-01-01T11:20:50Z</time>
      </trkpt>
      <trkpt lat="42.78973" lon="-0.50728">
        <ele>2102</ele>
        <time>2010-01-01T11:20:59Z</time>
      </trkpt>
      <trkpt lat="42.78974" lon="-0.50714">
        <ele>2102</ele>
        <time>2010-01-01T11:21:03Z</time>
      </trkpt>
      <trkpt lat="42.78971" lon="-0.50691">
        <ele>2099</ele>
        <time>2010-01-01T11:21:10Z</time>
      </trkpt>
      <trkpt lat="42.78976" lon="-0.50691">
        <ele>2102</ele>
        <time>2010-01-01T11:21:12Z</time>
      </trkpt>
      <trkpt lat="42.78988" lon="-0.50712">
        <ele>2109</ele>
        <time>2010-01-01T11:21:20Z</time>
      </trkpt>
      <trkpt lat="42.78993" lon="-0.50727">
        <ele>2114</ele>
        <time>2010-01-01T11:21:25Z</time>
      </trkpt>
      <trkpt lat="42.78983" lon="-0.50767">
        <ele>2106</ele>
        <time>2010-01-01T11:21:37Z</time>
      </trkpt>
      <trkpt lat="42.78983" lon="-0.50776">
        <ele>2106</ele>
        <time>2010-01-01T11:21:40Z</time>
      </trkpt>
      <trkpt lat="42.78986" lon="-0.50784">
        <ele>2105</ele>
        <time>2010-01-01T11:21:43Z</time>
      </trkpt>
      <trkpt lat="42.78996" lon="-0.50796">
        <ele>2106</ele>
        <time>2010-01-01T11:21:48Z</time>
      </trkpt>
      <trkpt lat="42.78997" lon="-0.5079">
        <ele>2108</ele>
        <time>2010-01-01T11:21:50Z</time>
      </trkpt>
      <trkpt lat="42.78997" lon="-0.50784">
        <ele>2109</ele>
        <time>2010-01-01T11:21:52Z</time>
      </trkpt>
      <trkpt lat="42.79" lon="-0.50769">
        <ele>2113</ele>
        <time>2010-01-01T11:21:56Z</time>
      </trkpt>
      <trkpt lat="42.79007" lon="-0.50749">
        <ele>2120</ele>
        <time>2010-01-01T11:22:03Z</time>
      </trkpt>
      <trkpt lat="42.79014" lon="-0.50726">
        <ele>2123</ele>
        <time>2010-01-01T11:22:10Z</time>
      </trkpt>
      <trkpt lat="42.79018" lon="-0.50732">
        <ele>2125</ele>
        <time>2010-01-01T11:22:12Z</time>
      </trkpt>
      <trkpt lat="42.7902" lon="-0.50762">
        <ele>2124</ele>
        <time>2010-01-01T11:22:21Z</time>
      </trkpt>
      <trkpt lat="42.79019" lon="-0.50779">
        <ele>2120</ele>
        <time>2010-01-01T11:22:26Z</time>
      </trkpt>
      <trkpt lat="42.79022" lon="-0.50794">
        <ele>2119</ele>
        <time>2010-01-01T11:22:31Z</time>
      </trkpt>
      <trkpt lat="42.79034" lon="-0.50817">
        <ele>2124</ele>
        <time>2010-01-01T11:22:39Z</time>
      </trkpt>
      <trkpt lat="42.7904" lon="-0.50831">
        <ele>2129</ele>
        <time>2010-01-01T11:22:44Z</time>
      </trkpt>
      <trkpt lat="42.79043" lon="-0.50838">
        <ele>2132</ele>
        <time>2010-01-01T11:22:46Z</time>
      </trkpt>
      <trkpt lat="42.79047" lon="-0.50828">
        <ele>2135</ele>
        <time>2010-01-01T11:22:50Z</time>
      </trkpt>
      <trkpt lat="42.79047" lon="-0.50819">
        <ele>2135</ele>
        <time>2010-01-01T11:22:52Z</time>
      </trkpt>
      <trkpt lat="42.79047" lon="-0.50796">
        <ele>2135</ele>
        <time>2010-01-01T11:22:59Z</time>
      </trkpt>
      <trkpt lat="42.79052" lon="-0.50807">
        <ele>2138</ele>
        <time>2010-01-01T11:23:03Z</time>
      </trkpt>
      <trkpt lat="42.79055" lon="-0.50814">
        <ele>2141</ele>
        <time>2010-01-01T11:23:05Z</time>
      </trkpt>
      <trkpt lat="42.79059" lon="-0.50839">
        <ele>2144</ele>
        <time>2010-01-01T11:23:13Z</time>
      </trkpt>
      <trkpt lat="42.7906" lon="-0.50857">
        <ele>2143</ele>
        <time>2010-01-01T11:23:18Z</time>
      </trkpt>
      <trkpt lat="42.79063" lon="-0.50865">
        <ele>2143</ele>
        <time>2010-01-01T11:23:21Z</time>
      </trkpt>
      <trkpt lat="42.79064" lon="-0.50872">
        <ele>2142</ele>
        <time>2010-01-01T11:23:23Z</time>
      </trkpt>
      <trkpt lat="42.79063" lon="-0.50879">
        <ele>2141</ele>
        <time>2010-01-01T11:23:25Z</time>
      </trkpt>
      <trkpt lat="42.79068" lon="-0.50882">
        <ele>2141</ele>
        <time>2010-01-01T11:23:27Z</time>
      </trkpt>
      <trkpt lat="42.79086" lon="-0.50863">
        <ele>2147</ele>
        <time>2010-01-01T11:23:36Z</time>
      </trkpt>
      <trkpt lat="42.79102" lon="-0.50839">
        <ele>2154</ele>
        <time>2010-01-01T11:23:46Z</time>
      </trkpt>
      <trkpt lat="42.79118" lon="-0.50805">
        <ele>2169</ele>
        <time>2010-01-01T11:23:58Z</time>
      </trkpt>
      <trkpt lat="42.79125" lon="-0.50778">
        <ele>2173</ele>
        <time>2010-01-01T11:24:06Z</time>
      </trkpt>
      <trkpt lat="42.79129" lon="-0.50768">
        <ele>2175</ele>
        <time>2010-01-01T11:24:09Z</time>
      </trkpt>
      <trkpt lat="42.79135" lon="-0.50747">
        <ele>2179</ele>
        <time>2010-01-01T11:24:16Z</time>
      </trkpt>
      <trkpt lat="42.79139" lon="-0.50742">
        <ele>2181</ele>
        <time>2010-01-01T11:24:18Z</time>
      </trkpt>
      <trkpt lat="42.79148" lon="-0.50722">
        <ele>2191</ele>
        <time>2010-01-01T11:24:25Z</time>
      </trkpt>
      <trkpt lat="42.79154" lon="-0.50715">
        <ele>2196</ele>
        <time>2010-01-01T11:24:28Z</time>
      </trkpt>
      <trkpt lat="42.79163" lon="-0.50701">
        <ele>2203</ele>
        <time>2010-01-01T11:24:34Z</time>
      </trkpt>
      <trkpt lat="42.79169" lon="-0.50698">
        <ele>2207</ele>
        <time>2010-01-01T11:24:36Z</time>
      </trkpt>
      <trkpt lat="42.79178" lon="-0.50688">
        <ele>2212</ele>
        <time>2010-01-01T11:24:41Z</time>
      </trkpt>
      <trkpt lat="42.7918" lon="-0.50682">
        <ele>2215</ele>
        <time>2010-01-01T11:24:43Z</time>
      </trkpt>
      <trkpt lat="42.79189" lon="-0.50674">
        <ele>2220</ele>
        <time>2010-01-01T11:24:47Z</time>
      </trkpt>
      <trkpt lat="42.79201" lon="-0.50656">
        <ele>2227</ele>
        <time>2010-01-01T11:24:54Z</time>
      </trkpt>
      <trkpt lat="42.79204" lon="-0.50646">
        <ele>2230</ele>
        <time>2010-01-01T11:24:57Z</time>
      </trkpt>
      <trkpt lat="42.79211" lon="-0.50628">
        <ele>2235</ele>
        <time>2010-01-01T11:25:03Z</time>
      </trkpt>
      <trkpt lat="42.79225" lon="-0.50618">
        <ele>2244</ele>
        <time>2010-01-01T11:25:10Z</time>
      </trkpt>
      <trkpt lat="42.79231" lon="-0.5061">
        <ele>2247</ele>
        <time>2010-01-01T11:25:13Z</time>
      </trkpt>
      <trkpt lat="42.79233" lon="-0.50593">
        <ele>2252</ele>
        <time>2010-01-01T11:25:18Z</time>
      </trkpt>
      <trkpt lat="42.79235" lon="-0.50587">
        <ele>2254</ele>
        <time>2010-01-01T11:25:20Z</time>
      </trkpt>
      <trkpt lat="42.79238" lon="-0.50582">
        <ele>2255</ele>
        <time>2010-01-01T11:25:22Z</time>
      </trkpt>
      <trkpt lat="42.79244" lon="-0.50578">
        <ele>2258</ele>
        <time>2010-01-01T11:25:25Z</time>
      </trkpt>
      <trkpt lat="42.79268" lon="-0.50572">
        <ele>2262</ele>
        <time>2010-01-01T11:25:34Z</time>
      </trkpt>
      <trkpt lat="42.79306" lon="-0.50557">
        <ele>2264</ele>
        <time>2010-01-01T11:25:50Z</time>
      </trkpt>
      <trkpt lat="42.79332" lon="-0.50534">
        <ele>2269</ele>
        <time>2010-01-01T11:26:03Z</time>
      </trkpt>
      <trkpt lat="42.79337" lon="-0.50532">
        <ele>2269</ele>
        <time>2010-01-01T11:26:05Z</time>
      </trkpt>
      <trkpt lat="42.79355" lon="-0.5052">
        <ele>2268</ele>
        <time>2010-01-01T11:26:12Z</time>
      </trkpt>
      <trkpt lat="42.79372" lon="-0.5049">
        <ele>2271</ele>
        <time>2010-01-01T11:26:24Z</time>
      </trkpt>
      <trkpt lat="42.79377" lon="-0.50484">
        <ele>2271</ele>
        <time>2010-01-01T11:26:26Z</time>
      </trkpt>
      <trkpt lat="42.79397" lon="-0.50471">
        <ele>2272</ele>
        <time>2010-01-01T11:26:35Z</time>
      </trkpt>
      <trkpt lat="42.79406" lon="-0.5046">
        <ele>2271</ele>
        <time>2010-01-01T11:26:40Z</time>
      </trkpt>
      <trkpt lat="42.79411" lon="-0.50457">
        <ele>2271</ele>
        <time>2010-01-01T11:26:42Z</time>
      </trkpt>
      <trkpt lat="42.79417" lon="-0.50455">
        <ele>2270</ele>
        <time>2010-01-01T11:26:45Z</time>
      </trkpt>
      <trkpt lat="42.79423" lon="-0.50452">
        <ele>2268</ele>
        <time>2010-01-01T11:26:48Z</time>
      </trkpt>
      <trkpt lat="42.79431" lon="-0.50443">
        <ele>2266</ele>
        <time>2010-01-01T11:26:51Z</time>
      </trkpt>
      <trkpt lat="42.79434" lon="-0.50435">
        <ele>2264</ele>
        <time>2010-01-01T11:26:54Z</time>
      </trkpt>
      <trkpt lat="42.79433" lon="-0.50427">
        <ele>2263</ele>
        <time>2010-01-01T11:26:56Z</time>
      </trkpt>
      <trkpt lat="42.7943" lon="-0.50413">
        <ele>2261</ele>
        <time>2010-01-01T11:27:01Z</time>
      </trkpt>
      <trkpt lat="42.79429" lon="-0.504">
        <ele>2257</ele>
        <time>2010-01-01T11:27:05Z</time>
      </trkpt>
      <trkpt lat="42.79427" lon="-0.50392">
        <ele>2255</ele>
        <time>2010-01-01T11:27:07Z</time>
      </trkpt>
      <trkpt lat="42.79426" lon="-0.50383">
        <ele>2253</ele>
        <time>2010-01-01T11:27:10Z</time>
      </trkpt>
      <trkpt lat="42.79432" lon="-0.50354">
        <ele>2248</ele>
        <time>2010-01-01T11:27:18Z</time>
      </trkpt>
      <trkpt lat="42.79437" lon="-0.50344">
        <ele>2248</ele>
        <time>2010-01-01T11:27:22Z</time>
      </trkpt>
      <trkpt lat="42.79436" lon="-0.50322">
        <ele>2247</ele>
        <time>2010-01-01T11:27:29Z</time>
      </trkpt>
      <trkpt lat="42.79443" lon="-0.50293">
        <ele>2253</ele>
        <time>2010-01-01T11:27:37Z</time>
      </trkpt>
      <trkpt lat="42.79444" lon="-0.50271">
        <ele>2255</ele>
        <time>2010-01-01T11:27:44Z</time>
      </trkpt>
      <trkpt lat="42.7945" lon="-0.50252">
        <ele>2252</ele>
        <time>2010-01-01T11:27:50Z</time>
      </trkpt>
      <trkpt lat="42.79467" lon="-0.50233">
        <ele>2250</ele>
        <time>2010-01-01T11:27:59Z</time>
      </trkpt>
      <trkpt lat="42.79483" lon="-0.50176">
        <ele>2241</ele>
        <time>2010-01-01T11:28:17Z</time>
      </trkpt>
      <trkpt lat="42.79486" lon="-0.50171">
        <ele>2240</ele>
        <time>2010-01-01T11:28:18Z</time>
      </trkpt>
      <trkpt lat="42.79491" lon="-0.50168">
        <ele>2239</ele>
        <time>2010-01-01T11:28:21Z</time>
      </trkpt>
      <trkpt lat="42.79495" lon="-0.50152">
        <ele>2236</ele>
        <time>2010-01-01T11:28:26Z</time>
      </trkpt>
      <trkpt lat="42.79494" lon="-0.50131">
        <ele>2231</ele>
        <time>2010-01-01T11:28:32Z</time>
      </trkpt>
      <trkpt lat="42.79496" lon="-0.50123">
        <ele>2231</ele>
        <time>2010-01-01T11:28:34Z</time>
      </trkpt>
      <trkpt lat="42.79494" lon="-0.50113">
        <ele>2228</ele>
        <time>2010-01-01T11:28:38Z</time>
      </trkpt>
      <trkpt lat="42.79497" lon="-0.50098">
        <ele>2226</ele>
        <time>2010-01-01T11:28:42Z</time>
      </trkpt>
      <trkpt lat="42.795" lon="-0.5007">
        <ele>2225</ele>
        <time>2010-01-01T11:28:50Z</time>
      </trkpt>
      <trkpt lat="42.79506" lon="-0.50026">
        <ele>2213</ele>
        <time>2010-01-01T11:29:04Z</time>
      </trkpt>
      <trkpt lat="42.79519" lon="-0.49997">
        <ele>2207</ele>
        <time>2010-01-01T11:29:13Z</time>
      </trkpt>
      <trkpt lat="42.79525" lon="-0.49977">
        <ele>2206</ele>
        <time>2010-01-01T11:29:20Z</time>
      </trkpt>
      <trkpt lat="42.79531" lon="-0.49946">
        <ele>2206</ele>
        <time>2010-01-01T11:29:29Z</time>
      </trkpt>
      <trkpt lat="42.79541" lon="-0.49926">
        <ele>2202</ele>
        <time>2010-01-01T11:29:36Z</time>
      </trkpt>
      <trkpt lat="42.79547" lon="-0.4989">
        <ele>2203</ele>
        <time>2010-01-01T11:29:47Z</time>
      </trkpt>
      <trkpt lat="42.79553" lon="-0.49878">
        <ele>2204</ele>
        <time>2010-01-01T11:29:51Z</time>
      </trkpt>
      <trkpt lat="42.79558" lon="-0.49875">
        <ele>2204</ele>
        <time>2010-01-01T11:29:53Z</time>
      </trkpt>
      <trkpt lat="42.79563" lon="-0.49855">
        <ele>2201</ele>
        <time>2010-01-01T11:30:00Z</time>
      </trkpt>
      <trkpt lat="42.79568" lon="-0.49853">
        <ele>2199</ele>
        <time>2010-01-01T11:30:02Z</time>
      </trkpt>
      <trkpt lat="42.79572" lon="-0.49848">
        <ele>2198</ele>
        <time>2010-01-01T11:30:04Z</time>
      </trkpt>
      <trkpt lat="42.79595" lon="-0.49795">
        <ele>2193</ele>
        <time>2010-01-01T11:30:22Z</time>
      </trkpt>
      <trkpt lat="42.79611" lon="-0.49763">
        <ele>2192</ele>
        <time>2010-01-01T11:30:34Z</time>
      </trkpt>
      <trkpt lat="42.79629" lon="-0.49748">
        <ele>2191</ele>
        <time>2010-01-01T11:30:42Z</time>
      </trkpt>
      <trkpt lat="42.79638" lon="-0.49737">
        <ele>2192</ele>
        <time>2010-01-01T11:30:47Z</time>
      </trkpt>
      <trkpt lat="42.79645" lon="-0.49709">
        <ele>2193</ele>
        <time>2010-01-01T11:30:55Z</time>
      </trkpt>
      <trkpt lat="42.79653" lon="-0.497">
        <ele>2192</ele>
        <time>2010-01-01T11:30:59Z</time>
      </trkpt>
      <trkpt lat="42.79656" lon="-0.49684">
        <ele>2193</ele>
        <time>2010-01-01T11:31:04Z</time>
      </trkpt>
      <trkpt lat="42.79657" lon="-0.49669">
        <ele>2194</ele>
        <time>2010-01-01T11:31:09Z</time>
      </trkpt>
      <trkpt lat="42.79665" lon="-0.4965">
        <ele>2197</ele>
        <time>2010-01-01T11:31:15Z</time>
      </trkpt>
      <trkpt lat="42.7967" lon="-0.4963">
        <ele>2199</ele>
        <time>2010-01-01T11:31:21Z</time>
      </trkpt>
      <trkpt lat="42.79671" lon="-0.49614">
        <ele>2201</ele>
        <time>2010-01-01T11:31:26Z</time>
      </trkpt>
      <trkpt lat="42.79675" lon="-0.49601">
        <ele>2203</ele>
        <time>2010-01-01T11:31:30Z</time>
      </trkpt>
      <trkpt lat="42.7968" lon="-0.49589">
        <ele>2204</ele>
        <time>2010-01-01T11:31:34Z</time>
      </trkpt>
      <trkpt lat="42.79688" lon="-0.49559">
        <ele>2205</ele>
        <time>2010-01-01T11:31:44Z</time>
      </trkpt>
      <trkpt lat="42.79705" lon="-0.49535">
        <ele>2205</ele>
        <time>2010-01-01T11:31:53Z</time>
      </trkpt>
      <trkpt lat="42.7972" lon="-0.49521">
        <ele>2205</ele>
        <time>2010-01-01T11:32:01Z</time>
      </trkpt>
      <trkpt lat="42.79736" lon="-0.49503">
        <ele>2208</ele>
        <time>2010-01-01T11:32:09Z</time>
      </trkpt>
      <trkpt lat="42.7974" lon="-0.49498">
        <ele>2209</ele>
        <time>2010-01-01T11:32:11Z</time>
      </trkpt>
      <trkpt lat="42.79739" lon="-0.49446">
        <ele>2220</ele>
        <time>2010-01-01T11:32:26Z</time>
      </trkpt>
      <trkpt lat="42.79737" lon="-0.4943">
        <ele>2216</ele>
        <time>2010-01-01T11:32:31Z</time>
      </trkpt>
      <trkpt lat="42.79729" lon="-0.49404">
        <ele>2210</ele>
        <time>2010-01-01T11:32:40Z</time>
      </trkpt>
      <trkpt lat="42.79728" lon="-0.49395">
        <ele>2207</ele>
        <time>2010-01-01T11:32:42Z</time>
      </trkpt>
      <trkpt lat="42.79728" lon="-0.49382">
        <ele>2203</ele>
        <time>2010-01-01T11:32:46Z</time>
      </trkpt>
      <trkpt lat="42.79735" lon="-0.49352">
        <ele>2196</ele>
        <time>2010-01-01T11:32:55Z</time>
      </trkpt>
      <trkpt lat="42.79742" lon="-0.4933">
        <ele>2192</ele>
        <time>2010-01-01T11:33:02Z</time>
      </trkpt>
      <trkpt lat="42.79743" lon="-0.49322">
        <ele>2187</ele>
        <time>2010-01-01T11:33:05Z</time>
      </trkpt>
      <trkpt lat="42.79742" lon="-0.49305">
        <ele>2179</ele>
        <time>2010-01-01T11:33:10Z</time>
      </trkpt>
      <trkpt lat="42.7974" lon="-0.49297">
        <ele>2178</ele>
        <time>2010-01-01T11:33:12Z</time>
      </trkpt>
      <trkpt lat="42.79746" lon="-0.49277">
        <ele>2174</ele>
        <time>2010-01-01T11:33:19Z</time>
      </trkpt>
      <trkpt lat="42.79752" lon="-0.49277">
        <ele>2173</ele>
        <time>2010-01-01T11:33:21Z</time>
      </trkpt>
      <trkpt lat="42.79754" lon="-0.49262">
        <ele>2173</ele>
        <time>2010-01-01T11:33:25Z</time>
      </trkpt>
      <trkpt lat="42.79753" lon="-0.49256">
        <ele>2173</ele>
        <time>2010-01-01T11:33:27Z</time>
      </trkpt>
      <trkpt lat="42.79756" lon="-0.49243">
        <ele>2172</ele>
        <time>2010-01-01T11:33:31Z</time>
      </trkpt>
      <trkpt lat="42.79766" lon="-0.49224">
        <ele>2167</ele>
        <time>2010-01-01T11:33:38Z</time>
      </trkpt>
      <trkpt lat="42.79793" lon="-0.49151">
        <ele>2153</ele>
        <time>2010-01-01T11:34:02Z</time>
      </trkpt>
      <trkpt lat="42.79804" lon="-0.49126">
        <ele>2149</ele>
        <time>2010-01-01T11:34:11Z</time>
      </trkpt>
      <trkpt lat="42.79818" lon="-0.49112">
        <ele>2147</ele>
        <time>2010-01-01T11:34:18Z</time>
      </trkpt>
      <trkpt lat="42.79826" lon="-0.49095">
        <ele>2145</ele>
        <time>2010-01-01T11:34:23Z</time>
      </trkpt>
      <trkpt lat="42.79834" lon="-0.49084">
        <ele>2143</ele>
        <time>2010-01-01T11:34:28Z</time>
      </trkpt>
      <trkpt lat="42.79842" lon="-0.49077">
        <ele>2142</ele>
        <time>2010-01-01T11:34:32Z</time>
      </trkpt>
      <trkpt lat="42.79852" lon="-0.49063">
        <ele>2140</ele>
        <time>2010-01-01T11:34:38Z</time>
      </trkpt>
      <trkpt lat="42.79868" lon="-0.49053">
        <ele>2138</ele>
        <time>2010-01-01T11:34:45Z</time>
      </trkpt>
      <trkpt lat="42.7988" lon="-0.49032">
        <ele>2133</ele>
        <time>2010-01-01T11:34:52Z</time>
      </trkpt>
      <trkpt lat="42.79896" lon="-0.49017">
        <ele>2128</ele>
        <time>2010-01-01T11:35:00Z</time>
      </trkpt>
      <trkpt lat="42.799" lon="-0.4901">
        <ele>2126</ele>
        <time>2010-01-01T11:35:03Z</time>
      </trkpt>
      <trkpt lat="42.79904" lon="-0.49006">
        <ele>2125</ele>
        <time>2010-01-01T11:35:05Z</time>
      </trkpt>
      <trkpt lat="42.7991" lon="-0.49011">
        <ele>2123</ele>
        <time>2010-01-01T11:35:07Z</time>
      </trkpt>
      <trkpt lat="42.79915" lon="-0.49008">
        <ele>2122</ele>
        <time>2010-01-01T11:35:09Z</time>
      </trkpt>
      <trkpt lat="42.79918" lon="-0.48993">
        <ele>2120</ele>
        <time>2010-01-01T11:35:14Z</time>
      </trkpt>
      <trkpt lat="42.79918" lon="-0.48985">
        <ele>2120</ele>
        <time>2010-01-01T11:35:16Z</time>
      </trkpt>
      <trkpt lat="42.7992" lon="-0.48978">
        <ele>2119</ele>
        <time>2010-01-01T11:35:18Z</time>
      </trkpt>
      <trkpt lat="42.79925" lon="-0.48973">
        <ele>2117</ele>
        <time>2010-01-01T11:35:21Z</time>
      </trkpt>
      <trkpt lat="42.79935" lon="-0.48967">
        <ele>2112</ele>
        <time>2010-01-01T11:35:25Z</time>
      </trkpt>
      <trkpt lat="42.79944" lon="-0.4896">
        <ele>2109</ele>
        <time>2010-01-01T11:35:29Z</time>
      </trkpt>
      <trkpt lat="42.79978" lon="-0.48928">
        <ele>2101</ele>
        <time>2010-01-01T11:35:46Z</time>
      </trkpt>
      <trkpt lat="42.79993" lon="-0.48918">
        <ele>2100</ele>
        <time>2010-01-01T11:35:53Z</time>
      </trkpt>
      <trkpt lat="42.8" lon="-0.4891">
        <ele>2100</ele>
        <time>2010-01-01T11:35:57Z</time>
      </trkpt>
      <trkpt lat="42.80014" lon="-0.48899">
        <ele>2103</ele>
        <time>2010-01-01T11:36:03Z</time>
      </trkpt>
      <trkpt lat="42.80023" lon="-0.48888">
        <ele>2106</ele>
        <time>2010-01-01T11:36:08Z</time>
      </trkpt>
      <trkpt lat="42.80032" lon="-0.48882">
        <ele>2109</ele>
        <time>2010-01-01T11:36:12Z</time>
      </trkpt>
      <trkpt lat="42.80037" lon="-0.48877">
        <ele>2110</ele>
        <time>2010-01-01T11:36:14Z</time>
      </trkpt>
      <trkpt lat="42.80046" lon="-0.48862">
        <ele>2114</ele>
        <time>2010-01-01T11:36:20Z</time>
      </trkpt>
      <trkpt lat="42.80051" lon="-0.48857">
        <ele>2116</ele>
        <time>2010-01-01T11:36:22Z</time>
      </trkpt>
      <trkpt lat="42.80057" lon="-0.48855">
        <ele>2117</ele>
        <time>2010-01-01T11:36:25Z</time>
      </trkpt>
      <trkpt lat="42.80069" lon="-0.48841">
        <ele>2117</ele>
        <time>2010-01-01T11:36:31Z</time>
      </trkpt>
      <trkpt lat="42.80086" lon="-0.48827">
        <ele>2121</ele>
        <time>2010-01-01T11:36:39Z</time>
      </trkpt>
      <trkpt lat="42.80092" lon="-0.48814">
        <ele>2125</ele>
        <time>2010-01-01T11:36:44Z</time>
      </trkpt>
      <trkpt lat="42.80096" lon="-0.48798">
        <ele>2127</ele>
        <time>2010-01-01T11:36:48Z</time>
      </trkpt>
      <trkpt lat="42.80099" lon="-0.48794">
        <ele>2128</ele>
        <time>2010-01-01T11:36:50Z</time>
      </trkpt>
      <trkpt lat="42.80106" lon="-0.4877">
        <ele>2128</ele>
        <time>2010-01-01T11:36:58Z</time>
      </trkpt>
      <trkpt lat="42.80107" lon="-0.48756">
        <ele>2125</ele>
        <time>2010-01-01T11:37:02Z</time>
      </trkpt>
      <trkpt lat="42.80115" lon="-0.48736">
        <ele>2122</ele>
        <time>2010-01-01T11:37:09Z</time>
      </trkpt>
      <trkpt lat="42.8013" lon="-0.48717">
        <ele>2119</ele>
        <time>2010-01-01T11:37:17Z</time>
      </trkpt>
      <trkpt lat="42.80156" lon="-0.48697">
        <ele>2116</ele>
        <time>2010-01-01T11:37:29Z</time>
      </trkpt>
      <trkpt lat="42.80165" lon="-0.48688">
        <ele>2115</ele>
        <time>2010-01-01T11:37:33Z</time>
      </trkpt>
      <trkpt lat="42.80189" lon="-0.48652">
        <ele>2108</ele>
        <time>2010-01-01T11:37:48Z</time>
      </trkpt>
      <trkpt lat="42.80196" lon="-0.48642">
        <ele>2107</ele>
        <time>2010-01-01T11:37:52Z</time>
      </trkpt>
      <trkpt lat="42.80205" lon="-0.48635">
        <ele>2106</ele>
        <time>2010-01-01T11:37:56Z</time>
      </trkpt>
      <trkpt lat="42.80224" lon="-0.48611">
        <ele>2103</ele>
        <time>2010-01-01T11:38:06Z</time>
      </trkpt>
      <trkpt lat="42.80229" lon="-0.48593">
        <ele>2102</ele>
        <time>2010-01-01T11:38:12Z</time>
      </trkpt>
      <trkpt lat="42.80233" lon="-0.48568">
        <ele>2104</ele>
        <time>2010-01-01T11:38:19Z</time>
      </trkpt>
      <trkpt lat="42.80238" lon="-0.48552">
        <ele>2107</ele>
        <time>2010-01-01T11:38:24Z</time>
      </trkpt>
      <trkpt lat="42.80252" lon="-0.4852">
        <ele>2114</ele>
        <time>2010-01-01T11:38:35Z</time>
      </trkpt>
      <trkpt lat="42.80271" lon="-0.48492">
        <ele>2116</ele>
        <time>2010-01-01T11:38:47Z</time>
      </trkpt>
      <trkpt lat="42.80278" lon="-0.48479">
        <ele>2117</ele>
        <time>2010-01-01T11:38:51Z</time>
      </trkpt>
      <trkpt lat="42.80293" lon="-0.48443">
        <ele>2117</ele>
        <time>2010-01-01T11:39:03Z</time>
      </trkpt>
      <trkpt lat="42.80299" lon="-0.4842">
        <ele>2119</ele>
        <time>2010-01-01T11:39:10Z</time>
      </trkpt>
      <trkpt lat="42.80304" lon="-0.48417">
        <ele>2119</ele>
        <time>2010-01-01T11:39:12Z</time>
      </trkpt>
      <trkpt lat="42.80308" lon="-0.48389">
        <ele>2121</ele>
        <time>2010-01-01T11:39:21Z</time>
      </trkpt>
      <trkpt lat="42.80324" lon="-0.48344">
        <ele>2122</ele>
        <time>2010-01-01T11:39:35Z</time>
      </trkpt>
      <trkpt lat="42.80327" lon="-0.48337">
        <ele>2124</ele>
        <time>2010-01-01T11:39:38Z</time>
      </trkpt>
      <trkpt lat="42.80344" lon="-0.48311">
        <ele>2128</ele>
        <time>2010-01-01T11:39:48Z</time>
      </trkpt>
      <trkpt lat="42.80355" lon="-0.48304">
        <ele>2132</ele>
        <time>2010-01-01T11:39:53Z</time>
      </trkpt>
      <trkpt lat="42.80361" lon="-0.48304">
        <ele>2134</ele>
        <time>2010-01-01T11:39:55Z</time>
      </trkpt>
      <trkpt lat="42.8037" lon="-0.483">
        <ele>2137</ele>
        <time>2010-01-01T11:39:59Z</time>
      </trkpt>
      <trkpt lat="42.80383" lon="-0.48299">
        <ele>2142</ele>
        <time>2010-01-01T11:40:04Z</time>
      </trkpt>
      <trkpt lat="42.80399" lon="-0.48295">
        <ele>2149</ele>
        <time>2010-01-01T11:40:11Z</time>
      </trkpt>
      <trkpt lat="42.80412" lon="-0.48296">
        <ele>2153</ele>
        <time>2010-01-01T11:40:16Z</time>
      </trkpt>
      <trkpt lat="42.80424" lon="-0.48292">
        <ele>2157</ele>
        <time>2010-01-01T11:40:21Z</time>
      </trkpt>
      <trkpt lat="42.80435" lon="-0.48291">
        <ele>2159</ele>
        <time>2010-01-01T11:40:25Z</time>
      </trkpt>
      <trkpt lat="42.80446" lon="-0.48288">
        <ele>2163</ele>
        <time>2010-01-01T11:40:30Z</time>
      </trkpt>
      <trkpt lat="42.80452" lon="-0.48288">
        <ele>2164</ele>
        <time>2010-01-01T11:40:32Z</time>
      </trkpt>
      <trkpt lat="42.80459" lon="-0.48285">
        <ele>2167</ele>
        <time>2010-01-01T11:40:35Z</time>
      </trkpt>
      <trkpt lat="42.80464" lon="-0.48285">
        <ele>2168</ele>
        <time>2010-01-01T11:40:37Z</time>
      </trkpt>
      <trkpt lat="42.8047" lon="-0.48282">
        <ele>2170</ele>
        <time>2010-01-01T11:40:40Z</time>
      </trkpt>
      <trkpt lat="42.80482" lon="-0.48286">
        <ele>2173</ele>
        <time>2010-01-01T11:40:45Z</time>
      </trkpt>
      <trkpt lat="42.80495" lon="-0.48293">
        <ele>2176</ele>
        <time>2010-01-01T11:40:50Z</time>
      </trkpt>
      <trkpt lat="42.80524" lon="-0.48292">
        <ele>2182</ele>
        <time>2010-01-01T11:41:02Z</time>
      </trkpt>
      <trkpt lat="42.80535" lon="-0.48294">
        <ele>2181</ele>
        <time>2010-01-01T11:41:07Z</time>
      </trkpt>
      <trkpt lat="42.80541" lon="-0.48296">
        <ele>2180</ele>
        <time>2010-01-01T11:41:09Z</time>
      </trkpt>
      <trkpt lat="42.80552" lon="-0.48303">
        <ele>2177</ele>
        <time>2010-01-01T11:41:14Z</time>
      </trkpt>
      <trkpt lat="42.80557" lon="-0.483">
        <ele>2177</ele>
        <time>2010-01-01T11:41:16Z</time>
      </trkpt>
      <trkpt lat="42.80567" lon="-0.48297">
        <ele>2176</ele>
        <time>2010-01-01T11:41:20Z</time>
      </trkpt>
      <trkpt lat="42.80574" lon="-0.48297">
        <ele>2175</ele>
        <time>2010-01-01T11:41:23Z</time>
      </trkpt>
      <trkpt lat="42.80585" lon="-0.483">
        <ele>2173</ele>
        <time>2010-01-01T11:41:27Z</time>
      </trkpt>
      <trkpt lat="42.80598" lon="-0.48299">
        <ele>2172</ele>
        <time>2010-01-01T11:41:32Z</time>
      </trkpt>
      <trkpt lat="42.80608" lon="-0.48295">
        <ele>2174</ele>
        <time>2010-01-01T11:41:37Z</time>
      </trkpt>
      <trkpt lat="42.80622" lon="-0.48279">
        <ele>2184</ele>
        <time>2010-01-01T11:41:44Z</time>
      </trkpt>
      <trkpt lat="42.80638" lon="-0.48249">
        <ele>2197</ele>
        <time>2010-01-01T11:41:55Z</time>
      </trkpt>
      <trkpt lat="42.80653" lon="-0.48235">
        <ele>2195</ele>
        <time>2010-01-01T11:42:02Z</time>
      </trkpt>
      <trkpt lat="42.80665" lon="-0.48219">
        <ele>2197</ele>
        <time>2010-01-01T11:42:09Z</time>
      </trkpt>
      <trkpt lat="42.80676" lon="-0.48196">
        <ele>2205</ele>
        <time>2010-01-01T11:42:17Z</time>
      </trkpt>
      <trkpt lat="42.8068" lon="-0.48184">
        <ele>2207</ele>
        <time>2010-01-01T11:42:21Z</time>
      </trkpt>
      <trkpt lat="42.80683" lon="-0.48178">
        <ele>2209</ele>
        <time>2010-01-01T11:42:23Z</time>
      </trkpt>
      <trkpt lat="42.80697" lon="-0.48144">
        <ele>2212</ele>
        <time>2010-01-01T11:42:35Z</time>
      </trkpt>
      <trkpt lat="42.80704" lon="-0.48133">
        <ele>2212</ele>
        <time>2010-01-01T11:42:39Z</time>
      </trkpt>
      <trkpt lat="42.80714" lon="-0.48122">
        <ele>2212</ele>
        <time>2010-01-01T11:42:44Z</time>
      </trkpt>
      <trkpt lat="42.80724" lon="-0.48093">
        <ele>2211</ele>
        <time>2010-01-01T11:42:53Z</time>
      </trkpt>
      <trkpt lat="42.80729" lon="-0.48085">
        <ele>2210</ele>
        <time>2010-01-01T11:42:56Z</time>
      </trkpt>
      <trkpt lat="42.80753" lon="-0.48065">
        <ele>2203</ele>
        <time>2010-01-01T11:43:07Z</time>
      </trkpt>
      <trkpt lat="42.80772" lon="-0.48038">
        <ele>2198</ele>
        <time>2010-01-01T11:43:19Z</time>
      </trkpt>
      <trkpt lat="42.80778" lon="-0.48034">
        <ele>2198</ele>
        <time>2010-01-01T11:43:21Z</time>
      </trkpt>
      <trkpt lat="42.80797" lon="-0.48026">
        <ele>2201</ele>
        <time>2010-01-01T11:43:29Z</time>
      </trkpt>
      <trkpt lat="42.80819" lon="-0.48001">
        <ele>2210</ele>
        <time>2010-01-01T11:43:41Z</time>
      </trkpt>
      <trkpt lat="42.80847" lon="-0.47987">
        <ele>2221</ele>
        <time>2010-01-01T11:43:53Z</time>
      </trkpt>
      <trkpt lat="42.80857" lon="-0.47985">
        <ele>2224</ele>
        <time>2010-01-01T11:43:57Z</time>
      </trkpt>
      <trkpt lat="42.80862" lon="-0.47982">
        <ele>2227</ele>
        <time>2010-01-01T11:43:59Z</time>
      </trkpt>
      <trkpt lat="42.80868" lon="-0.4798">
        <ele>2228</ele>
        <time>2010-01-01T11:44:01Z</time>
      </trkpt>
      <trkpt lat="42.80872" lon="-0.47975">
        <ele>2230</ele>
        <time>2010-01-01T11:44:04Z</time>
      </trkpt>
      <trkpt lat="42.80878" lon="-0.47972">
        <ele>2232</ele>
        <time>2010-01-01T11:44:06Z</time>
      </trkpt>
      <trkpt lat="42.80883" lon="-0.47966">
        <ele>2234</ele>
        <time>2010-01-01T11:44:09Z</time>
      </trkpt>
      <trkpt lat="42.80893" lon="-0.4796">
        <ele>2236</ele>
        <time>2010-01-01T11:44:13Z</time>
      </trkpt>
      <trkpt lat="42.80898" lon="-0.47956">
        <ele>2237</ele>
        <time>2010-01-01T11:44:16Z</time>
      </trkpt>
      <trkpt lat="42.80895" lon="-0.47951">
        <ele>2239</ele>
        <time>2010-01-01T11:44:18Z</time>
      </trkpt>
      <trkpt lat="42.80897" lon="-0.47936">
        <ele>2241</ele>
        <time>2010-01-01T11:44:22Z</time>
      </trkpt>
      <trkpt lat="42.80897" lon="-0.4792">
        <ele>2241</ele>
        <time>2010-01-01T11:44:27Z</time>
      </trkpt>
      <trkpt lat="42.80899" lon="-0.47904">
        <ele>2240</ele>
        <time>2010-01-01T11:44:31Z</time>
      </trkpt>
      <trkpt lat="42.80903" lon="-0.47884">
        <ele>2240</ele>
        <time>2010-01-01T11:44:37Z</time>
      </trkpt>
      <trkpt lat="42.80928" lon="-0.47834">
        <ele>2246</ele>
        <time>2010-01-01T11:44:55Z</time>
      </trkpt>
      <trkpt lat="42.80939" lon="-0.47818">
        <ele>2248</ele>
        <time>2010-01-01T11:45:01Z</time>
      </trkpt>
      <trkpt lat="42.80944" lon="-0.47814">
        <ele>2249</ele>
        <time>2010-01-01T11:45:04Z</time>
      </trkpt>
      <trkpt lat="42.8095" lon="-0.47813">
        <ele>2248</ele>
        <time>2010-01-01T11:45:06Z</time>
      </trkpt>
      <trkpt lat="42.80965" lon="-0.47816">
        <ele>2243</ele>
        <time>2010-01-01T11:45:13Z</time>
      </trkpt>
      <trkpt lat="42.80992" lon="-0.47824">
        <ele>2238</ele>
        <time>2010-01-01T11:45:23Z</time>
      </trkpt>
      <trkpt lat="42.81007" lon="-0.47824">
        <ele>2234</ele>
        <time>2010-01-01T11:45:30Z</time>
      </trkpt>
      <trkpt lat="42.81011" lon="-0.47841">
        <ele>2229</ele>
        <time>2010-01-01T11:45:35Z</time>
      </trkpt>
      <trkpt lat="42.81017" lon="-0.4784">
        <ele>2226</ele>
        <time>2010-01-01T11:45:37Z</time>
      </trkpt>
      <trkpt lat="42.81022" lon="-0.47837">
        <ele>2224</ele>
        <time>2010-01-01T11:45:40Z</time>
      </trkpt>
      <trkpt lat="42.81027" lon="-0.47837">
        <ele>2221</ele>
        <time>2010-01-01T11:45:42Z</time>
      </trkpt>
      <trkpt lat="42.81034" lon="-0.47847">
        <ele>2218</ele>
        <time>2010-01-01T11:45:46Z</time>
      </trkpt>
      <trkpt lat="42.8104" lon="-0.47844">
        <ele>2216</ele>
        <time>2010-01-01T11:45:48Z</time>
      </trkpt>
      <trkpt lat="42.81048" lon="-0.47852">
        <ele>2213</ele>
        <time>2010-01-01T11:45:52Z</time>
      </trkpt>
      <trkpt lat="42.81061" lon="-0.47852">
        <ele>2211</ele>
        <time>2010-01-01T11:45:57Z</time>
      </trkpt>
      <trkpt lat="42.81077" lon="-0.47861">
        <ele>2209</ele>
        <time>2010-01-01T11:46:04Z</time>
      </trkpt>
      <trkpt lat="42.81087" lon="-0.47865">
        <ele>2208</ele>
        <time>2010-01-01T11:46:08Z</time>
      </trkpt>
      <trkpt lat="42.81097" lon="-0.47867">
        <ele>2207</ele>
        <time>2010-01-01T11:46:12Z</time>
      </trkpt>
      <trkpt lat="42.81101" lon="-0.47871">
        <ele>2205</ele>
        <time>2010-01-01T11:46:14Z</time>
      </trkpt>
      <trkpt lat="42.81108" lon="-0.47871">
        <ele>2205</ele>
        <time>2010-01-01T11:46:17Z</time>
      </trkpt>
      <trkpt lat="42.81112" lon="-0.47872">
        <ele>2204</ele>
        <time>2010-01-01T11:46:19Z</time>
      </trkpt>
      <trkpt lat="42.81116" lon="-0.47876">
        <ele>2202</ele>
        <time>2010-01-01T11:46:21Z</time>
      </trkpt>
      <trkpt lat="42.81123" lon="-0.47878">
        <ele>2200</ele>
        <time>2010-01-01T11:46:23Z</time>
      </trkpt>
      <trkpt lat="42.81147" lon="-0.4788">
        <ele>2197</ele>
        <time>2010-01-01T11:46:33Z</time>
      </trkpt>
      <trkpt lat="42.81161" lon="-0.47885">
        <ele>2197</ele>
        <time>2010-01-01T11:46:39Z</time>
      </trkpt>
      <trkpt lat="42.81182" lon="-0.47896">
        <ele>2193</ele>
        <time>2010-01-01T11:46:48Z</time>
      </trkpt>
      <trkpt lat="42.81188" lon="-0.47898">
        <ele>2192</ele>
        <time>2010-01-01T11:46:50Z</time>
      </trkpt>
      <trkpt lat="42.81195" lon="-0.47898">
        <ele>2191</ele>
        <time>2010-01-01T11:46:53Z</time>
      </trkpt>
      <trkpt lat="42.81203" lon="-0.47907">
        <ele>2191</ele>
        <time>2010-01-01T11:46:57Z</time>
      </trkpt>
      <trkpt lat="42.81204" lon="-0.47914">
        <ele>2191</ele>
        <time>2010-01-01T11:46:59Z</time>
      </trkpt>
      <trkpt lat="42.81208" lon="-0.47916">
        <ele>2191</ele>
        <time>2010-01-01T11:47:01Z</time>
      </trkpt>
      <trkpt lat="42.81214" lon="-0.47913">
        <ele>2190</ele>
        <time>2010-01-01T11:47:04Z</time>
      </trkpt>
      <trkpt lat="42.81218" lon="-0.47907">
        <ele>2189</ele>
        <time>2010-01-01T11:47:06Z</time>
      </trkpt>
      <trkpt lat="42.81224" lon="-0.47907">
        <ele>2188</ele>
        <time>2010-01-01T11:47:08Z</time>
      </trkpt>
      <trkpt lat="42.81228" lon="-0.47911">
        <ele>2189</ele>
        <time>2010-01-01T11:47:10Z</time>
      </trkpt>
      <trkpt lat="42.81234" lon="-0.47913">
        <ele>2189</ele>
        <time>2010-01-01T11:47:13Z</time>
      </trkpt>
      <trkpt lat="42.81234" lon="-0.47952">
        <ele>2192</ele>
        <time>2010-01-01T11:47:25Z</time>
      </trkpt>
      <trkpt lat="42.81236" lon="-0.47965">
        <ele>2191</ele>
        <time>2010-01-01T11:47:28Z</time>
      </trkpt>
      <trkpt lat="42.81239" lon="-0.47972">
        <ele>2192</ele>
        <time>2010-01-01T11:47:31Z</time>
      </trkpt>
      <trkpt lat="42.81247" lon="-0.48007">
        <ele>2182</ele>
        <time>2010-01-01T11:47:42Z</time>
      </trkpt>
      <trkpt lat="42.81252" lon="-0.48038">
        <ele>2169</ele>
        <time>2010-01-01T11:47:51Z</time>
      </trkpt>
      <trkpt lat="42.81259" lon="-0.48052">
        <ele>2165</ele>
        <time>2010-01-01T11:47:56Z</time>
      </trkpt>
      <trkpt lat="42.81263" lon="-0.48066">
        <ele>2163</ele>
        <time>2010-01-01T11:48:00Z</time>
      </trkpt>
      <trkpt lat="42.81277" lon="-0.48089">
        <ele>2163</ele>
        <time>2010-01-01T11:48:09Z</time>
      </trkpt>
      <trkpt lat="42.81286" lon="-0.48101">
        <ele>2165</ele>
        <time>2010-01-01T11:48:14Z</time>
      </trkpt>
      <trkpt lat="42.81292" lon="-0.48115">
        <ele>2164</ele>
        <time>2010-01-01T11:48:19Z</time>
      </trkpt>
      <trkpt lat="42.81296" lon="-0.48121">
        <ele>2164</ele>
        <time>2010-01-01T11:48:21Z</time>
      </trkpt>
      <trkpt lat="42.81309" lon="-0.4815">
        <ele>2164</ele>
        <time>2010-01-01T11:48:31Z</time>
      </trkpt>
      <trkpt lat="42.81322" lon="-0.48185">
        <ele>2162</ele>
        <time>2010-01-01T11:48:43Z</time>
      </trkpt>
      <trkpt lat="42.81329" lon="-0.48195">
        <ele>2164</ele>
        <time>2010-01-01T11:48:47Z</time>
      </trkpt>
      <trkpt lat="42.81334" lon="-0.48214">
        <ele>2164</ele>
        <time>2010-01-01T11:48:53Z</time>
      </trkpt>
      <trkpt lat="42.81333" lon="-0.48228">
        <ele>2162</ele>
        <time>2010-01-01T11:48:57Z</time>
      </trkpt>
      <trkpt lat="42.81337" lon="-0.48245">
        <ele>2162</ele>
        <time>2010-01-01T11:49:02Z</time>
      </trkpt>
      <trkpt lat="42.81354" lon="-0.48291">
        <ele>2157</ele>
        <time>2010-01-01T11:49:17Z</time>
      </trkpt>
      <trkpt lat="42.81362" lon="-0.48318">
        <ele>2155</ele>
        <time>2010-01-01T11:49:26Z</time>
      </trkpt>
      <trkpt lat="42.81369" lon="-0.48352">
        <ele>2151</ele>
        <time>2010-01-01T11:49:36Z</time>
      </trkpt>
      <trkpt lat="42.81387" lon="-0.48374">
        <ele>2153</ele>
        <time>2010-01-01T11:49:46Z</time>
      </trkpt>
      <trkpt lat="42.81395" lon="-0.48387">
        <ele>2153</ele>
        <time>2010-01-01T11:49:51Z</time>
      </trkpt>
      <trkpt lat="42.81408" lon="-0.48419">
        <ele>2147</ele>
        <time>2010-01-01T11:50:01Z</time>
      </trkpt>
      <trkpt lat="42.81415" lon="-0.48451">
        <ele>2144</ele>
        <time>2010-01-01T11:50:11Z</time>
      </trkpt>
      <trkpt lat="42.81418" lon="-0.48479">
        <ele>2142</ele>
        <time>2010-01-01T11:50:20Z</time>
      </trkpt>
      <trkpt lat="42.8142" lon="-0.48513">
        <ele>2138</ele>
        <time>2010-01-01T11:50:30Z</time>
      </trkpt>
      <trkpt lat="42.81415" lon="-0.48585">
        <ele>2128</ele>
        <time>2010-01-01T11:50:51Z</time>
      </trkpt>
      <trkpt lat="42.81418" lon="-0.48615">
        <ele>2124</ele>
        <time>2010-01-01T11:51:00Z</time>
      </trkpt>
      <trkpt lat="42.8142" lon="-0.48623">
        <ele>2123</ele>
        <time>2010-01-01T11:51:02Z</time>
      </trkpt>
      <trkpt lat="42.81426" lon="-0.48634">
        <ele>2121</ele>
        <time>2010-01-01T11:51:06Z</time>
      </trkpt>
      <trkpt lat="42.81425" lon="-0.4865">
        <ele>2119</ele>
        <time>2010-01-01T11:51:11Z</time>
      </trkpt>
      <trkpt lat="42.81431" lon="-0.48666">
        <ele>2118</ele>
        <time>2010-01-01T11:51:16Z</time>
      </trkpt>
      <trkpt lat="42.81432" lon="-0.48675">
        <ele>2117</ele>
        <time>2010-01-01T11:51:19Z</time>
      </trkpt>
      <trkpt lat="42.81431" lon="-0.48681">
        <ele>2116</ele>
        <time>2010-01-01T11:51:21Z</time>
      </trkpt>
      <trkpt lat="42.81427" lon="-0.48693">
        <ele>2114</ele>
        <time>2010-01-01T11:51:25Z</time>
      </trkpt>
      <trkpt lat="42.81415" lon="-0.48706">
        <ele>2113</ele>
        <time>2010-01-01T11:51:31Z</time>
      </trkpt>
      <trkpt lat="42.81412" lon="-0.48711">
        <ele>2113</ele>
        <time>2010-01-01T11:51:33Z</time>
      </trkpt>
      <trkpt lat="42.81411" lon="-0.4872">
        <ele>2113</ele>
        <time>2010-01-01T11:51:35Z</time>
      </trkpt>
      <trkpt lat="42.81406" lon="-0.48742">
        <ele>2114</ele>
        <time>2010-01-01T11:51:42Z</time>
      </trkpt>
      <trkpt lat="42.81408" lon="-0.48759">
        <ele>2114</ele>
        <time>2010-01-01T11:51:47Z</time>
      </trkpt>
      <trkpt lat="42.81413" lon="-0.48781">
        <ele>2115</ele>
        <time>2010-01-01T11:51:54Z</time>
      </trkpt>
      <trkpt lat="42.81415" lon="-0.48798">
        <ele>2115</ele>
        <time>2010-01-01T11:51:59Z</time>
      </trkpt>
      <trkpt lat="42.81412" lon="-0.48816">
        <ele>2114</ele>
        <time>2010-01-01T11:52:04Z</time>
      </trkpt>
      <trkpt lat="42.81407" lon="-0.48835">
        <ele>2112</ele>
        <time>2010-01-01T11:52:10Z</time>
      </trkpt>
      <trkpt lat="42.81406" lon="-0.48847">
        <ele>2112</ele>
        <time>2010-01-01T11:52:14Z</time>
      </trkpt>
      <trkpt lat="42.8141" lon="-0.48873">
        <ele>2113</ele>
        <time>2010-01-01T11:52:22Z</time>
      </trkpt>
      <trkpt lat="42.81408" lon="-0.48886">
        <ele>2115</ele>
        <time>2010-01-01T11:52:25Z</time>
      </trkpt>
      <trkpt lat="42.81404" lon="-0.48895">
        <ele>2116</ele>
        <time>2010-01-01T11:52:29Z</time>
      </trkpt>
      <trkpt lat="42.81404" lon="-0.48903">
        <ele>2118</ele>
        <time>2010-01-01T11:52:31Z</time>
      </trkpt>
      <trkpt lat="42.81424" lon="-0.48933">
        <ele>2121</ele>
        <time>2010-01-01T11:52:43Z</time>
      </trkpt>
      <trkpt lat="42.81427" lon="-0.48945">
        <ele>2122</ele>
        <time>2010-01-01T11:52:47Z</time>
      </trkpt>
      <trkpt lat="42.8143" lon="-0.48963">
        <ele>2125</ele>
        <time>2010-01-01T11:52:52Z</time>
      </trkpt>
      <trkpt lat="42.81427" lon="-0.48975">
        <ele>2128</ele>
        <time>2010-01-01T11:52:56Z</time>
      </trkpt>
      <trkpt lat="42.81427" lon="-0.48999">
        <ele>2132</ele>
        <time>2010-01-01T11:53:03Z</time>
      </trkpt>
      <trkpt lat="42.81421" lon="-0.4901">
        <ele>2134</ele>
        <time>2010-01-01T11:53:07Z</time>
      </trkpt>
      <trkpt lat="42.81406" lon="-0.49017">
        <ele>2132</ele>
        <time>2010-01-01T11:53:13Z</time>
      </trkpt>
      <trkpt lat="42.81401" lon="-0.4902">
        <ele>2131</ele>
        <time>2010-01-01T11:53:15Z</time>
      </trkpt>
      <trkpt lat="42.81398" lon="-0.49025">
        <ele>2131</ele>
        <time>2010-01-01T11:53:17Z</time>
      </trkpt>
      <trkpt lat="42.81396" lon="-0.49032">
        <ele>2130</ele>
        <time>2010-01-01T11:53:19Z</time>
      </trkpt>
      <trkpt lat="42.81397" lon="-0.4905">
        <ele>2131</ele>
        <time>2010-01-01T11:53:25Z</time>
      </trkpt>
      <trkpt lat="42.81402" lon="-0.49067">
        <ele>2133</ele>
        <time>2010-01-01T11:53:30Z</time>
      </trkpt>
      <trkpt lat="42.81404" lon="-0.49083">
        <ele>2134</ele>
        <time>2010-01-01T11:53:35Z</time>
      </trkpt>
      <trkpt lat="42.81407" lon="-0.49091">
        <ele>2135</ele>
        <time>2010-01-01T11:53:37Z</time>
      </trkpt>
      <trkpt lat="42.8142" lon="-0.49115">
        <ele>2138</ele>
        <time>2010-01-01T11:53:46Z</time>
      </trkpt>
      <trkpt lat="42.81425" lon="-0.49127">
        <ele>2138</ele>
        <time>2010-01-01T11:53:50Z</time>
      </trkpt>
      <trkpt lat="42.81437" lon="-0.4915">
        <ele>2138</ele>
        <time>2010-01-01T11:53:58Z</time>
      </trkpt>
      <trkpt lat="42.8145" lon="-0.49164">
        <ele>2141</ele>
        <time>2010-01-01T11:54:05Z</time>
      </trkpt>
      <trkpt lat="42.81464" lon="-0.49175">
        <ele>2145</ele>
        <time>2010-01-01T11:54:12Z</time>
      </trkpt>
      <trkpt lat="42.81471" lon="-0.49183">
        <ele>2145</ele>
        <time>2010-01-01T11:54:15Z</time>
      </trkpt>
      <trkpt lat="42.81477" lon="-0.49195">
        <ele>2144</ele>
        <time>2010-01-01T11:54:19Z</time>
      </trkpt>
      <trkpt lat="42.81479" lon="-0.49212">
        <ele>2141</ele>
        <time>2010-01-01T11:54:25Z</time>
      </trkpt>
      <trkpt lat="42.81477" lon="-0.49234">
        <ele>2137</ele>
        <time>2010-01-01T11:54:31Z</time>
      </trkpt>
      <trkpt lat="42.81478" lon="-0.49248">
        <ele>2136</ele>
        <time>2010-01-01T11:54:35Z</time>
      </trkpt>
      <trkpt lat="42.81482" lon="-0.49269">
        <ele>2135</ele>
        <time>2010-01-01T11:54:42Z</time>
      </trkpt>
      <trkpt lat="42.81494" lon="-0.493">
        <ele>2133</ele>
        <time>2010-01-01T11:54:52Z</time>
      </trkpt>
      <trkpt lat="42.81497" lon="-0.4935">
        <ele>2129</ele>
        <time>2010-01-01T11:55:06Z</time>
      </trkpt>
      <trkpt lat="42.81501" lon="-0.49363">
        <ele>2130</ele>
        <time>2010-01-01T11:55:11Z</time>
      </trkpt>
      <trkpt lat="42.81505" lon="-0.49387">
        <ele>2129</ele>
        <time>2010-01-01T11:55:18Z</time>
      </trkpt>
      <trkpt lat="42.81504" lon="-0.49414">
        <ele>2125</ele>
        <time>2010-01-01T11:55:26Z</time>
      </trkpt>
      <trkpt lat="42.81506" lon="-0.49424">
        <ele>2123</ele>
        <time>2010-01-01T11:55:29Z</time>
      </trkpt>
      <trkpt lat="42.81515" lon="-0.49443">
        <ele>2121</ele>
        <time>2010-01-01T11:55:35Z</time>
      </trkpt>
      <trkpt lat="42.81524" lon="-0.49458">
        <ele>2118</ele>
        <time>2010-01-01T11:55:41Z</time>
      </trkpt>
      <trkpt lat="42.81542" lon="-0.49499">
        <ele>2117</ele>
        <time>2010-01-01T11:55:55Z</time>
      </trkpt>
      <trkpt lat="42.81552" lon="-0.49514">
        <ele>2120</ele>
        <time>2010-01-01T11:56:01Z</time>
      </trkpt>
      <trkpt lat="42.81572" lon="-0.49536">
        <ele>2124</ele>
        <time>2010-01-01T11:56:11Z</time>
      </trkpt>
      <trkpt lat="42.81593" lon="-0.49554">
        <ele>2127</ele>
        <time>2010-01-01T11:56:21Z</time>
      </trkpt>
      <trkpt lat="42.81609" lon="-0.49581">
        <ele>2125</ele>
        <time>2010-01-01T11:56:32Z</time>
      </trkpt>
      <trkpt lat="42.81616" lon="-0.4959">
        <ele>2124</ele>
        <time>2010-01-01T11:56:36Z</time>
      </trkpt>
      <trkpt lat="42.81649" lon="-0.4962">
        <ele>2123</ele>
        <time>2010-01-01T11:56:51Z</time>
      </trkpt>
      <trkpt lat="42.81658" lon="-0.49626">
        <ele>2123</ele>
        <time>2010-01-01T11:56:55Z</time>
      </trkpt>
      <trkpt lat="42.81674" lon="-0.49642">
        <ele>2123</ele>
        <time>2010-01-01T11:57:03Z</time>
      </trkpt>
      <trkpt lat="42.81697" lon="-0.49672">
        <ele>2124</ele>
        <time>2010-01-01T11:57:16Z</time>
      </trkpt>
      <trkpt lat="42.8171" lon="-0.49695">
        <ele>2126</ele>
        <time>2010-01-01T11:57:25Z</time>
      </trkpt>
      <trkpt lat="42.81715" lon="-0.49707">
        <ele>2126</ele>
        <time>2010-01-01T11:57:29Z</time>
      </trkpt>
      <trkpt lat="42.81718" lon="-0.49725">
        <ele>2125</ele>
        <time>2010-01-01T11:57:34Z</time>
      </trkpt>
      <trkpt lat="42.8172" lon="-0.49745">
        <ele>2122</ele>
        <time>2010-01-01T11:57:40Z</time>
      </trkpt>
      <trkpt lat="42.81723" lon="-0.49753">
        <ele>2121</ele>
        <time>2010-01-01T11:57:43Z</time>
      </trkpt>
      <trkpt lat="42.81731" lon="-0.4976">
        <ele>2122</ele>
        <time>2010-01-01T11:57:47Z</time>
      </trkpt>
      <trkpt lat="42.81756" lon="-0.49773">
        <ele>2123</ele>
        <time>2010-01-01T11:57:57Z</time>
      </trkpt>
      <trkpt lat="42.81789" lon="-0.49803">
        <ele>2118</ele>
        <time>2010-01-01T11:58:13Z</time>
      </trkpt>
      <trkpt lat="42.81812" lon="-0.49818">
        <ele>2120</ele>
        <time>2010-01-01T11:58:23Z</time>
      </trkpt>
      <trkpt lat="42.81825" lon="-0.4983">
        <ele>2121</ele>
        <time>2010-01-01T11:58:29Z</time>
      </trkpt>
      <trkpt lat="42.81841" lon="-0.49865">
        <ele>2121</ele>
        <time>2010-01-01T11:58:42Z</time>
      </trkpt>
      <trkpt lat="42.81864" lon="-0.49904">
        <ele>2123</ele>
        <time>2010-01-01T11:58:56Z</time>
      </trkpt>
      <trkpt lat="42.8187" lon="-0.49915">
        <ele>2125</ele>
        <time>2010-01-01T11:59:00Z</time>
      </trkpt>
      <trkpt lat="42.81873" lon="-0.49935">
        <ele>2121</ele>
        <time>2010-01-01T11:59:06Z</time>
      </trkpt>
      <trkpt lat="42.81877" lon="-0.49947">
        <ele>2120</ele>
        <time>2010-01-01T11:59:10Z</time>
      </trkpt>
      <trkpt lat="42.81892" lon="-0.49984">
        <ele>2116</ele>
        <time>2010-01-01T11:59:23Z</time>
      </trkpt>
      <trkpt lat="42.81907" lon="-0.50001">
        <ele>2115</ele>
        <time>2010-01-01T11:59:30Z</time>
      </trkpt>
      <trkpt lat="42.81949" lon="-0.50036">
        <ele>2120</ele>
        <time>2010-01-01T11:59:50Z</time>
      </trkpt>
      <trkpt lat="42.82" lon="-0.50085">
        <ele>2121</ele>
        <time>2010-01-01T12:00:15Z</time>
      </trkpt>
      <trkpt lat="42.82021" lon="-0.50103">
        <ele>2125</ele>
        <time>2010-01-01T12:00:25Z</time>
      </trkpt>
      <trkpt lat="42.82028" lon="-0.50113">
        <ele>2124</ele>
        <time>2010-01-01T12:00:29Z</time>
      </trkpt>
      <trkpt lat="42.82036" lon="-0.5013">
        <ele>2123</ele>
        <time>2010-01-01T12:00:35Z</time>
      </trkpt>
      <trkpt lat="42.82043" lon="-0.50149">
        <ele>2120</ele>
        <time>2010-01-01T12:00:41Z</time>
      </trkpt>
      <trkpt lat="42.82065" lon="-0.50198">
        <ele>2112</ele>
        <time>2010-01-01T12:00:58Z</time>
      </trkpt>
      <trkpt lat="42.82076" lon="-0.50211">
        <ele>2112</ele>
        <time>2010-01-01T12:01:04Z</time>
      </trkpt>
      <trkpt lat="42.82085" lon="-0.50216">
        <ele>2112</ele>
        <time>2010-01-01T12:01:08Z</time>
      </trkpt>
      <trkpt lat="42.821" lon="-0.50219">
        <ele>2112</ele>
        <time>2010-01-01T12:01:14Z</time>
      </trkpt>
      <trkpt lat="42.82105" lon="-0.50223">
        <ele>2111</ele>
        <time>2010-01-01T12:01:16Z</time>
      </trkpt>
      <trkpt lat="42.8211" lon="-0.50224">
        <ele>2111</ele>
        <time>2010-01-01T12:01:18Z</time>
      </trkpt>
      <trkpt lat="42.82117" lon="-0.50223">
        <ele>2111</ele>
        <time>2010-01-01T12:01:21Z</time>
      </trkpt>
      <trkpt lat="42.82136" lon="-0.50232">
        <ele>2105</ele>
        <time>2010-01-01T12:01:29Z</time>
      </trkpt>
      <trkpt lat="42.8215" lon="-0.50235">
        <ele>2102</ele>
        <time>2010-01-01T12:01:35Z</time>
      </trkpt>
      <trkpt lat="42.82189" lon="-0.50228">
        <ele>2099</ele>
        <time>2010-01-01T12:01:50Z</time>
      </trkpt>
      <trkpt lat="42.82199" lon="-0.50231">
        <ele>2096</ele>
        <time>2010-01-01T12:01:54Z</time>
      </trkpt>
      <trkpt lat="42.82215" lon="-0.50233">
        <ele>2095</ele>
        <time>2010-01-01T12:02:01Z</time>
      </trkpt>
      <trkpt lat="42.82238" lon="-0.50232">
        <ele>2096</ele>
        <time>2010-01-01T12:02:10Z</time>
      </trkpt>
      <trkpt lat="42.8225" lon="-0.50235">
        <ele>2096</ele>
        <time>2010-01-01T12:02:15Z</time>
      </trkpt>
      <trkpt lat="42.82266" lon="-0.50242">
        <ele>2096</ele>
        <time>2010-01-01T12:02:22Z</time>
      </trkpt>
      <trkpt lat="42.82294" lon="-0.50248">
        <ele>2096</ele>
        <time>2010-01-01T12:02:33Z</time>
      </trkpt>
      <trkpt lat="42.82305" lon="-0.50252">
        <ele>2095</ele>
        <time>2010-01-01T12:02:38Z</time>
      </trkpt>
      <trkpt lat="42.82315" lon="-0.50253">
        <ele>2095</ele>
        <time>2010-01-01T12:02:42Z</time>
      </trkpt>
      <trkpt lat="42.82319" lon="-0.50257">
        <ele>2095</ele>
        <time>2010-01-01T12:02:44Z</time>
      </trkpt>
      <trkpt lat="42.82325" lon="-0.50267">
        <ele>2092</ele>
        <time>2010-01-01T12:02:48Z</time>
      </trkpt>
      <trkpt lat="42.8233" lon="-0.5027">
        <ele>2092</ele>
        <time>2010-01-01T12:02:50Z</time>
      </trkpt>
      <trkpt lat="42.82354" lon="-0.50266">
        <ele>2096</ele>
        <time>2010-01-01T12:02:59Z</time>
      </trkpt>
      <trkpt lat="42.82365" lon="-0.50268">
        <ele>2097</ele>
        <time>2010-01-01T12:03:04Z</time>
      </trkpt>
      <trkpt lat="42.82393" lon="-0.50268">
        <ele>2104</ele>
        <time>2010-01-01T12:03:15Z</time>
      </trkpt>
      <trkpt lat="42.82414" lon="-0.50278">
        <ele>2105</ele>
        <time>2010-01-01T12:03:24Z</time>
      </trkpt>
      <trkpt lat="42.82419" lon="-0.50278">
        <ele>2106</ele>
        <time>2010-01-01T12:03:26Z</time>
      </trkpt>
      <trkpt lat="42.82426" lon="-0.50276">
        <ele>2107</ele>
        <time>2010-01-01T12:03:29Z</time>
      </trkpt>
      <trkpt lat="42.8246" lon="-0.50291">
        <ele>2108</ele>
        <time>2010-01-01T12:03:43Z</time>
      </trkpt>
      <trkpt lat="42.82466" lon="-0.5029">
        <ele>2109</ele>
        <time>2010-01-01T12:03:45Z</time>
      </trkpt>
      <trkpt lat="42.82471" lon="-0.50285">
        <ele>2110</ele>
        <time>2010-01-01T12:03:48Z</time>
      </trkpt>
      <trkpt lat="42.82479" lon="-0.50273">
        <ele>2113</ele>
        <time>2010-01-01T12:03:53Z</time>
      </trkpt>
      <trkpt lat="42.82483" lon="-0.50258">
        <ele>2118</ele>
        <time>2010-01-01T12:03:57Z</time>
      </trkpt>
      <trkpt lat="42.82477" lon="-0.50241">
        <ele>2120</ele>
        <time>2010-01-01T12:04:03Z</time>
      </trkpt>
      <trkpt lat="42.82477" lon="-0.50225">
        <ele>2127</ele>
        <time>2010-01-01T12:04:08Z</time>
      </trkpt>
      <trkpt lat="42.82476" lon="-0.50217">
        <ele>2128</ele>
        <time>2010-01-01T12:04:10Z</time>
      </trkpt>
      <trkpt lat="42.82473" lon="-0.50211">
        <ele>2128</ele>
        <time>2010-01-01T12:04:12Z</time>
      </trkpt>
      <trkpt lat="42.82473" lon="-0.50203">
        <ele>2130</ele>
        <time>2010-01-01T12:04:15Z</time>
      </trkpt>
      <trkpt lat="42.82466" lon="-0.50183">
        <ele>2134</ele>
        <time>2010-01-01T12:04:21Z</time>
      </trkpt>
      <trkpt lat="42.82465" lon="-0.50165">
        <ele>2140</ele>
        <time>2010-01-01T12:04:26Z</time>
      </trkpt>
      <trkpt lat="42.82464" lon="-0.50158">
        <ele>2141</ele>
        <time>2010-01-01T12:04:28Z</time>
      </trkpt>
      <trkpt lat="42.82463" lon="-0.5015">
        <ele>2143</ele>
        <time>2010-01-01T12:04:31Z</time>
      </trkpt>
      <trkpt lat="42.82466" lon="-0.50142">
        <ele>2146</ele>
        <time>2010-01-01T12:04:33Z</time>
      </trkpt>
      <trkpt lat="42.82465" lon="-0.50111">
        <ele>2153</ele>
        <time>2010-01-01T12:04:42Z</time>
      </trkpt>
      <trkpt lat="42.82461" lon="-0.50095">
        <ele>2154</ele>
        <time>2010-01-01T12:04:48Z</time>
      </trkpt>
      <trkpt lat="42.8246" lon="-0.50081">
        <ele>2155</ele>
        <time>2010-01-01T12:04:52Z</time>
      </trkpt>
      <trkpt lat="42.82457" lon="-0.50073">
        <ele>2155</ele>
        <time>2010-01-01T12:04:54Z</time>
      </trkpt>
      <trkpt lat="42.82456" lon="-0.50064">
        <ele>2155</ele>
        <time>2010-01-01T12:04:57Z</time>
      </trkpt>
      <trkpt lat="42.8246" lon="-0.50051">
        <ele>2158</ele>
        <time>2010-01-01T12:05:01Z</time>
      </trkpt>
      <trkpt lat="42.82458" lon="-0.50036">
        <ele>2160</ele>
        <time>2010-01-01T12:05:06Z</time>
      </trkpt>
      <trkpt lat="42.8246" lon="-0.50028">
        <ele>2161</ele>
        <time>2010-01-01T12:05:08Z</time>
      </trkpt>
      <trkpt lat="42.82459" lon="-0.50015">
        <ele>2163</ele>
        <time>2010-01-01T12:05:12Z</time>
      </trkpt>
      <trkpt lat="42.82458" lon="-0.50002">
        <ele>2164</ele>
        <time>2010-01-01T12:05:16Z</time>
      </trkpt>
      <trkpt lat="42.82453" lon="-0.4999">
        <ele>2165</ele>
        <time>2010-01-01T12:05:20Z</time>
      </trkpt>
      <trkpt lat="42.82451" lon="-0.49975">
        <ele>2166</ele>
        <time>2010-01-01T12:05:24Z</time>
      </trkpt>
      <trkpt lat="42.82447" lon="-0.49968">
        <ele>2167</ele>
        <time>2010-01-01T12:05:27Z</time>
      </trkpt>
      <trkpt lat="42.82445" lon="-0.49959">
        <ele>2168</ele>
        <time>2010-01-01T12:05:29Z</time>
      </trkpt>
      <trkpt lat="42.82448" lon="-0.49952">
        <ele>2169</ele>
        <time>2010-01-01T12:05:32Z</time>
      </trkpt>
      <trkpt lat="42.82448" lon="-0.49938">
        <ele>2170</ele>
        <time>2010-01-01T12:05:36Z</time>
      </trkpt>
      <trkpt lat="42.82446" lon="-0.49923">
        <ele>2170</ele>
        <time>2010-01-01T12:05:40Z</time>
      </trkpt>
      <trkpt lat="42.82447" lon="-0.49915">
        <ele>2170</ele>
        <time>2010-01-01T12:05:43Z</time>
      </trkpt>
      <trkpt lat="42.82453" lon="-0.49913">
        <ele>2171</ele>
        <time>2010-01-01T12:05:45Z</time>
      </trkpt>
      <trkpt lat="42.82458" lon="-0.49917">
        <ele>2171</ele>
        <time>2010-01-01T12:05:47Z</time>
      </trkpt>
      <trkpt lat="42.82463" lon="-0.49913">
        <ele>2172</ele>
        <time>2010-01-01T12:05:49Z</time>
      </trkpt>
      <trkpt lat="42.8247" lon="-0.49914">
        <ele>2173</ele>
        <time>2010-01-01T12:05:52Z</time>
      </trkpt>
      <trkpt lat="42.8248" lon="-0.49919">
        <ele>2177</ele>
        <time>2010-01-01T12:05:57Z</time>
      </trkpt>
      <trkpt lat="42.8249" lon="-0.4992">
        <ele>2181</ele>
        <time>2010-01-01T12:06:01Z</time>
      </trkpt>
      <trkpt lat="42.82496" lon="-0.49923">
        <ele>2184</ele>
        <time>2010-01-01T12:06:03Z</time>
      </trkpt>
      <trkpt lat="42.82512" lon="-0.49925">
        <ele>2190</ele>
        <time>2010-01-01T12:06:10Z</time>
      </trkpt>
      <trkpt lat="42.82516" lon="-0.49931">
        <ele>2192</ele>
        <time>2010-01-01T12:06:12Z</time>
      </trkpt>
      <trkpt lat="42.82534" lon="-0.49945">
        <ele>2199</ele>
        <time>2010-01-01T12:06:20Z</time>
      </trkpt>
      <trkpt lat="42.82541" lon="-0.49955">
        <ele>2201</ele>
        <time>2010-01-01T12:06:24Z</time>
      </trkpt>
      <trkpt lat="42.82546" lon="-0.49959">
        <ele>2202</ele>
        <time>2010-01-01T12:06:27Z</time>
      </trkpt>
      <trkpt lat="42.82553" lon="-0.4996">
        <ele>2204</ele>
        <time>2010-01-01T12:06:29Z</time>
      </trkpt>
      <trkpt lat="42.82563" lon="-0.49969">
        <ele>2208</ele>
        <time>2010-01-01T12:06:34Z</time>
      </trkpt>
      <trkpt lat="42.8257" lon="-0.4997">
        <ele>2210</ele>
        <time>2010-01-01T12:06:37Z</time>
      </trkpt>
      <trkpt lat="42.82577" lon="-0.49963">
        <ele>2212</ele>
        <time>2010-01-01T12:06:40Z</time>
      </trkpt>
      <trkpt lat="42.82582" lon="-0.49961">
        <ele>2213</ele>
        <time>2010-01-01T12:06:42Z</time>
      </trkpt>
      <trkpt lat="42.82593" lon="-0.49968">
        <ele>2217</ele>
        <time>2010-01-01T12:06:47Z</time>
      </trkpt>
      <trkpt lat="42.82604" lon="-0.49971">
        <ele>2221</ele>
        <time>2010-01-01T12:06:52Z</time>
      </trkpt>
      <trkpt lat="42.8261" lon="-0.49975">
        <ele>2223</ele>
        <time>2010-01-01T12:06:54Z</time>
      </trkpt>
      <trkpt lat="42.82616" lon="-0.49976">
        <ele>2224</ele>
        <time>2010-01-01T12:06:57Z</time>
      </trkpt>
      <trkpt lat="42.82628" lon="-0.49983">
        <ele>2227</ele>
        <time>2010-01-01T12:07:02Z</time>
      </trkpt>
      <trkpt lat="42.82654" lon="-0.50018">
        <ele>2235</ele>
        <time>2010-01-01T12:07:17Z</time>
      </trkpt>
      <trkpt lat="42.82663" lon="-0.50026">
        <ele>2240</ele>
        <time>2010-01-01T12:07:21Z</time>
      </trkpt>
      <trkpt lat="42.82675" lon="-0.50031">
        <ele>2243</ele>
        <time>2010-01-01T12:07:26Z</time>
      </trkpt>
      <trkpt lat="42.82683" lon="-0.50044">
        <ele>2246</ele>
        <time>2010-01-01T12:07:31Z</time>
      </trkpt>
      <trkpt lat="42.82688" lon="-0.50047">
        <ele>2248</ele>
        <time>2010-01-01T12:07:33Z</time>
      </trkpt>
      <trkpt lat="42.82692" lon="-0.50051">
        <ele>2251</ele>
        <time>2010-01-01T12:07:35Z</time>
      </trkpt>
      <trkpt lat="42.82697" lon="-0.50051">
        <ele>2252</ele>
        <time>2010-01-01T12:07:37Z</time>
      </trkpt>
      <trkpt lat="42.82706" lon="-0.5006">
        <ele>2255</ele>
        <time>2010-01-01T12:07:42Z</time>
      </trkpt>
      <trkpt lat="42.82719" lon="-0.50084">
        <ele>2260</ele>
        <time>2010-01-01T12:07:50Z</time>
      </trkpt>
      <trkpt lat="42.82722" lon="-0.50098">
        <ele>2262</ele>
        <time>2010-01-01T12:07:55Z</time>
      </trkpt>
      <trkpt lat="42.82746" lon="-0.50132">
        <ele>2269</ele>
        <time>2010-01-01T12:08:09Z</time>
      </trkpt>
      <trkpt lat="42.82752" lon="-0.50143">
        <ele>2269</ele>
        <time>2010-01-01T12:08:13Z</time>
      </trkpt>
      <trkpt lat="42.82773" lon="-0.50171">
        <ele>2263</ele>
        <time>2010-01-01T12:08:24Z</time>
      </trkpt>
      <trkpt lat="42.82769" lon="-0.50184">
        <ele>2260</ele>
        <time>2010-01-01T12:08:29Z</time>
      </trkpt>
      <trkpt lat="42.82766" lon="-0.5019">
        <ele>2258</ele>
        <time>2010-01-01T12:08:31Z</time>
      </trkpt>
      <trkpt lat="42.82762" lon="-0.50212">
        <ele>2253</ele>
        <time>2010-01-01T12:08:38Z</time>
      </trkpt>
      <trkpt lat="42.82757" lon="-0.50225">
        <ele>2251</ele>
        <time>2010-01-01T12:08:42Z</time>
      </trkpt>
      <trkpt lat="42.82756" lon="-0.50232">
        <ele>2250</ele>
        <time>2010-01-01T12:08:44Z</time>
      </trkpt>
      <trkpt lat="42.82757" lon="-0.50246">
        <ele>2248</ele>
        <time>2010-01-01T12:08:48Z</time>
      </trkpt>
      <trkpt lat="42.82754" lon="-0.50266">
        <ele>2248</ele>
        <time>2010-01-01T12:08:54Z</time>
      </trkpt>
      <trkpt lat="42.82755" lon="-0.50281">
        <ele>2249</ele>
        <time>2010-01-01T12:08:58Z</time>
      </trkpt>
      <trkpt lat="42.82753" lon="-0.503">
        <ele>2248</ele>
        <time>2010-01-01T12:09:04Z</time>
      </trkpt>
      <trkpt lat="42.82755" lon="-0.50322">
        <ele>2248</ele>
        <time>2010-01-01T12:09:11Z</time>
      </trkpt>
      <trkpt lat="42.82758" lon="-0.50336">
        <ele>2246</ele>
        <time>2010-01-01T12:09:15Z</time>
      </trkpt>
      <trkpt lat="42.82758" lon="-0.50355">
        <ele>2247</ele>
        <time>2010-01-01T12:09:20Z</time>
      </trkpt>
      <trkpt lat="42.82761" lon="-0.50372">
        <ele>2247</ele>
        <time>2010-01-01T12:09:26Z</time>
      </trkpt>
      <trkpt lat="42.8276" lon="-0.5038">
        <ele>2248</ele>
        <time>2010-01-01T12:09:28Z</time>
      </trkpt>
      <trkpt lat="42.82755" lon="-0.50386">
        <ele>2250</ele>
        <time>2010-01-01T12:09:30Z</time>
      </trkpt>
      <trkpt lat="42.82753" lon="-0.50398">
        <ele>2253</ele>
        <time>2010-01-01T12:09:34Z</time>
      </trkpt>
      <trkpt lat="42.82752" lon="-0.50411">
        <ele>2256</ele>
        <time>2010-01-01T12:09:38Z</time>
      </trkpt>
      <trkpt lat="42.82754" lon="-0.50426">
        <ele>2257</ele>
        <time>2010-01-01T12:09:42Z</time>
      </trkpt>
      <trkpt lat="42.82749" lon="-0.50437">
        <ele>2261</ele>
        <time>2010-01-01T12:09:46Z</time>
      </trkpt>
      <trkpt lat="42.82747" lon="-0.50474">
        <ele>2264</ele>
        <time>2010-01-01T12:09:57Z</time>
      </trkpt>
      <trkpt lat="42.82748" lon="-0.50481">
        <ele>2264</ele>
        <time>2010-01-01T12:09:59Z</time>
      </trkpt>
      <trkpt lat="42.82746" lon="-0.50488">
        <ele>2265</ele>
        <time>2010-01-01T12:10:01Z</time>
      </trkpt>
      <trkpt lat="42.82742" lon="-0.50491">
        <ele>2265</ele>
        <time>2010-01-01T12:10:03Z</time>
      </trkpt>
      <trkpt lat="42.82736" lon="-0.50501">
        <ele>2267</ele>
        <time>2010-01-01T12:10:07Z</time>
      </trkpt>
      <trkpt lat="42.82721" lon="-0.50538">
        <ele>2270</ele>
        <time>2010-01-01T12:10:19Z</time>
      </trkpt>
      <trkpt lat="42.82714" lon="-0.50547">
        <ele>2267</ele>
        <time>2010-01-01T12:10:23Z</time>
      </trkpt>
      <trkpt lat="42.82711" lon="-0.50562">
        <ele>2265</ele>
        <time>2010-01-01T12:10:28Z</time>
      </trkpt>
      <trkpt lat="42.82705" lon="-0.50573">
        <ele>2264</ele>
        <time>2010-01-01T12:10:32Z</time>
      </trkpt>
      <trkpt lat="42.82686" lon="-0.50598">
        <ele>2259</ele>
        <time>2010-01-01T12:10:42Z</time>
      </trkpt>
      <trkpt lat="42.82683" lon="-0.50611">
        <ele>2257</ele>
        <time>2010-01-01T12:10:46Z</time>
      </trkpt>
      <trkpt lat="42.82679" lon="-0.50618">
        <ele>2253</ele>
        <time>2010-01-01T12:10:49Z</time>
      </trkpt>
      <trkpt lat="42.82678" lon="-0.50625">
        <ele>2250</ele>
        <time>2010-01-01T12:10:51Z</time>
      </trkpt>
      <trkpt lat="42.8267" lon="-0.50639">
        <ele>2243</ele>
        <time>2010-01-01T12:10:56Z</time>
      </trkpt>
      <trkpt lat="42.82662" lon="-0.5064">
        <ele>2240</ele>
        <time>2010-01-01T12:11:00Z</time>
      </trkpt>
      <trkpt lat="42.82658" lon="-0.50636">
        <ele>2241</ele>
        <time>2010-01-01T12:11:02Z</time>
      </trkpt>
      <trkpt lat="42.82654" lon="-0.5066">
        <ele>2232</ele>
        <time>2010-01-01T12:11:09Z</time>
      </trkpt>
      <trkpt lat="42.82651" lon="-0.50696">
        <ele>2222</ele>
        <time>2010-01-01T12:11:20Z</time>
      </trkpt>
      <trkpt lat="42.82642" lon="-0.507">
        <ele>2222</ele>
        <time>2010-01-01T12:11:23Z</time>
      </trkpt>
      <trkpt lat="42.82634" lon="-0.50716">
        <ele>2220</ele>
        <time>2010-01-01T12:11:29Z</time>
      </trkpt>
      <trkpt lat="42.82629" lon="-0.50721">
        <ele>2220</ele>
        <time>2010-01-01T12:11:32Z</time>
      </trkpt>
      <trkpt lat="42.82628" lon="-0.50738">
        <ele>2217</ele>
        <time>2010-01-01T12:11:37Z</time>
      </trkpt>
      <trkpt lat="42.82622" lon="-0.50748">
        <ele>2216</ele>
        <time>2010-01-01T12:11:41Z</time>
      </trkpt>
      <trkpt lat="42.82616" lon="-0.50751">
        <ele>2216</ele>
        <time>2010-01-01T12:11:43Z</time>
      </trkpt>
      <trkpt lat="42.82615" lon="-0.50757">
        <ele>2216</ele>
        <time>2010-01-01T12:11:45Z</time>
      </trkpt>
      <trkpt lat="42.82615" lon="-0.50774">
        <ele>2214</ele>
        <time>2010-01-01T12:11:50Z</time>
      </trkpt>
      <trkpt lat="42.82602" lon="-0.5079">
        <ele>2213</ele>
        <time>2010-01-01T12:11:57Z</time>
      </trkpt>
      <trkpt lat="42.826" lon="-0.50798">
        <ele>2213</ele>
        <time>2010-01-01T12:11:59Z</time>
      </trkpt>
      <trkpt lat="42.82602" lon="-0.50804">
        <ele>2212</ele>
        <time>2010-01-01T12:12:01Z</time>
      </trkpt>
      <trkpt lat="42.826" lon="-0.50811">
        <ele>2213</ele>
        <time>2010-01-01T12:12:03Z</time>
      </trkpt>
      <trkpt lat="42.82597" lon="-0.50816">
        <ele>2214</ele>
        <time>2010-01-01T12:12:05Z</time>
      </trkpt>
      <trkpt lat="42.82588" lon="-0.50824">
        <ele>2217</ele>
        <time>2010-01-01T12:12:09Z</time>
      </trkpt>
      <trkpt lat="42.82573" lon="-0.50847">
        <ele>2220</ele>
        <time>2010-01-01T12:12:19Z</time>
      </trkpt>
      <trkpt lat="42.82568" lon="-0.50852">
        <ele>2219</ele>
        <time>2010-01-01T12:12:21Z</time>
      </trkpt>
      <trkpt lat="42.82558" lon="-0.50871">
        <ele>2217</ele>
        <time>2010-01-01T12:12:28Z</time>
      </trkpt>
      <trkpt lat="42.82548" lon="-0.50886">
        <ele>2214</ele>
        <time>2010-01-01T12:12:34Z</time>
      </trkpt>
      <trkpt lat="42.82542" lon="-0.50899">
        <ele>2213</ele>
        <time>2010-01-01T12:12:38Z</time>
      </trkpt>
      <trkpt lat="42.82537" lon="-0.50923">
        <ele>2215</ele>
        <time>2010-01-01T12:12:46Z</time>
      </trkpt>
      <trkpt lat="42.8254" lon="-0.5096">
        <ele>2221</ele>
        <time>2010-01-01T12:12:57Z</time>
      </trkpt>
      <trkpt lat="42.82543" lon="-0.50984">
        <ele>2221</ele>
        <time>2010-01-01T12:13:04Z</time>
      </trkpt>
      <trkpt lat="42.82541" lon="-0.51007">
        <ele>2221</ele>
        <time>2010-01-01T12:13:10Z</time>
      </trkpt>
      <trkpt lat="42.82538" lon="-0.51014">
        <ele>2220</ele>
        <time>2010-01-01T12:13:13Z</time>
      </trkpt>
      <trkpt lat="42.82538" lon="-0.51023">
        <ele>2219</ele>
        <time>2010-01-01T12:13:15Z</time>
      </trkpt>
      <trkpt lat="42.82534" lon="-0.51034">
        <ele>2218</ele>
        <time>2010-01-01T12:13:19Z</time>
      </trkpt>
      <trkpt lat="42.82522" lon="-0.5101">
        <ele>2222</ele>
        <time>2010-01-01T12:13:28Z</time>
      </trkpt>
      <trkpt lat="42.8252" lon="-0.51002">
        <ele>2223</ele>
        <time>2010-01-01T12:13:30Z</time>
      </trkpt>
      <trkpt lat="42.82513" lon="-0.51008">
        <ele>2222</ele>
        <time>2010-01-01T12:13:33Z</time>
      </trkpt>
      <trkpt lat="42.82511" lon="-0.51016">
        <ele>2220</ele>
        <time>2010-01-01T12:13:36Z</time>
      </trkpt>
      <trkpt lat="42.8251" lon="-0.51038">
        <ele>2216</ele>
        <time>2010-01-01T12:13:42Z</time>
      </trkpt>
      <trkpt lat="42.82501" lon="-0.51051">
        <ele>2215</ele>
        <time>2010-01-01T12:13:48Z</time>
      </trkpt>
      <trkpt lat="42.82496" lon="-0.51064">
        <ele>2215</ele>
        <time>2010-01-01T12:13:52Z</time>
      </trkpt>
      <trkpt lat="42.82491" lon="-0.51067">
        <ele>2217</ele>
        <time>2010-01-01T12:13:54Z</time>
      </trkpt>
      <trkpt lat="42.82485" lon="-0.51068">
        <ele>2219</ele>
        <time>2010-01-01T12:13:56Z</time>
      </trkpt>
      <trkpt lat="42.8248" lon="-0.51063">
        <ele>2221</ele>
        <time>2010-01-01T12:13:59Z</time>
      </trkpt>
      <trkpt lat="42.82475" lon="-0.5107">
        <ele>2222</ele>
        <time>2010-01-01T12:14:02Z</time>
      </trkpt>
      <trkpt lat="42.82456" lon="-0.5108">
        <ele>2221</ele>
        <time>2010-01-01T12:14:10Z</time>
      </trkpt>
      <trkpt lat="42.82452" lon="-0.51087">
        <ele>2219</ele>
        <time>2010-01-01T12:14:12Z</time>
      </trkpt>
      <trkpt lat="42.82449" lon="-0.51104">
        <ele>2213</ele>
        <time>2010-01-01T12:14:17Z</time>
      </trkpt>
      <trkpt lat="42.82444" lon="-0.51106">
        <ele>2212</ele>
        <time>2010-01-01T12:14:20Z</time>
      </trkpt>
      <trkpt lat="42.82436" lon="-0.51115">
        <ele>2208</ele>
        <time>2010-01-01T12:14:24Z</time>
      </trkpt>
      <trkpt lat="42.8242" lon="-0.51122">
        <ele>2204</ele>
        <time>2010-01-01T12:14:30Z</time>
      </trkpt>
      <trkpt lat="42.82416" lon="-0.51118">
        <ele>2204</ele>
        <time>2010-01-01T12:14:32Z</time>
      </trkpt>
      <trkpt lat="42.82408" lon="-0.51126">
        <ele>2201</ele>
        <time>2010-01-01T12:14:36Z</time>
      </trkpt>
      <trkpt lat="42.82401" lon="-0.51129">
        <ele>2200</ele>
        <time>2010-01-01T12:14:39Z</time>
      </trkpt>
      <trkpt lat="42.82397" lon="-0.51127">
        <ele>2200</ele>
        <time>2010-01-01T12:14:41Z</time>
      </trkpt>
      <trkpt lat="42.82387" lon="-0.51127">
        <ele>2199</ele>
        <time>2010-01-01T12:14:45Z</time>
      </trkpt>
      <trkpt lat="42.82383" lon="-0.51131">
        <ele>2199</ele>
        <time>2010-01-01T12:14:47Z</time>
      </trkpt>
      <trkpt lat="42.82376" lon="-0.51132">
        <ele>2199</ele>
        <time>2010-01-01T12:14:49Z</time>
      </trkpt>
      <trkpt lat="42.82371" lon="-0.51131">
        <ele>2199</ele>
        <time>2010-01-01T12:14:51Z</time>
      </trkpt>
      <trkpt lat="42.82366" lon="-0.51127">
        <ele>2198</ele>
        <time>2010-01-01T12:14:54Z</time>
      </trkpt>
      <trkpt lat="42.8236" lon="-0.51129">
        <ele>2198</ele>
        <time>2010-01-01T12:14:56Z</time>
      </trkpt>
      <trkpt lat="42.82355" lon="-0.51133">
        <ele>2199</ele>
        <time>2010-01-01T12:14:58Z</time>
      </trkpt>
      <trkpt lat="42.8235" lon="-0.51141">
        <ele>2200</ele>
        <time>2010-01-01T12:15:02Z</time>
      </trkpt>
      <trkpt lat="42.82347" lon="-0.51149">
        <ele>2201</ele>
        <time>2010-01-01T12:15:04Z</time>
      </trkpt>
      <trkpt lat="42.82344" lon="-0.51163">
        <ele>2203</ele>
        <time>2010-01-01T12:15:09Z</time>
      </trkpt>
      <trkpt lat="42.82341" lon="-0.51168">
        <ele>2204</ele>
        <time>2010-01-01T12:15:10Z</time>
      </trkpt>
      <trkpt lat="42.82335" lon="-0.51171">
        <ele>2205</ele>
        <time>2010-01-01T12:15:13Z</time>
      </trkpt>
      <trkpt lat="42.82332" lon="-0.51179">
        <ele>2207</ele>
        <time>2010-01-01T12:15:15Z</time>
      </trkpt>
      <trkpt lat="42.8233" lon="-0.51189">
        <ele>2208</ele>
        <time>2010-01-01T12:15:19Z</time>
      </trkpt>
      <trkpt lat="42.82307" lon="-0.51221">
        <ele>2224</ele>
        <time>2010-01-01T12:15:32Z</time>
      </trkpt>
      <trkpt lat="42.82286" lon="-0.51256">
        <ele>2239</ele>
        <time>2010-01-01T12:15:45Z</time>
      </trkpt>
      <trkpt lat="42.82266" lon="-0.5128">
        <ele>2250</ele>
        <time>2010-01-01T12:15:56Z</time>
      </trkpt>
      <trkpt lat="42.82256" lon="-0.51289">
        <ele>2257</ele>
        <time>2010-01-01T12:16:01Z</time>
      </trkpt>
      <trkpt lat="42.82246" lon="-0.51304">
        <ele>2265</ele>
        <time>2010-01-01T12:16:07Z</time>
      </trkpt>
      <trkpt lat="42.82238" lon="-0.51307">
        <ele>2267</ele>
        <time>2010-01-01T12:16:10Z</time>
      </trkpt>
      <trkpt lat="42.82217" lon="-0.51321">
        <ele>2269</ele>
        <time>2010-01-01T12:16:19Z</time>
      </trkpt>
      <trkpt lat="42.82199" lon="-0.51321">
        <ele>2272</ele>
        <time>2010-01-01T12:16:26Z</time>
      </trkpt>
      <trkpt lat="42.82186" lon="-0.51317">
        <ele>2274</ele>
        <time>2010-01-01T12:16:32Z</time>
      </trkpt>
      <trkpt lat="42.8218" lon="-0.51317">
        <ele>2274</ele>
        <time>2010-01-01T12:16:34Z</time>
      </trkpt>
      <trkpt lat="42.82161" lon="-0.51312">
        <ele>2276</ele>
        <time>2010-01-01T12:16:42Z</time>
      </trkpt>
      <trkpt lat="42.82137" lon="-0.5131">
        <ele>2275</ele>
        <time>2010-01-01T12:16:52Z</time>
      </trkpt>
      <trkpt lat="42.82125" lon="-0.51311">
        <ele>2272</ele>
        <time>2010-01-01T12:16:56Z</time>
      </trkpt>
      <trkpt lat="42.82113" lon="-0.51315">
        <ele>2268</ele>
        <time>2010-01-01T12:17:01Z</time>
      </trkpt>
      <trkpt lat="42.82101" lon="-0.51317">
        <ele>2265</ele>
        <time>2010-01-01T12:17:06Z</time>
      </trkpt>
      <trkpt lat="42.82091" lon="-0.51317">
        <ele>2263</ele>
        <time>2010-01-01T12:17:10Z</time>
      </trkpt>
      <trkpt lat="42.82077" lon="-0.51314">
        <ele>2260</ele>
        <time>2010-01-01T12:17:16Z</time>
      </trkpt>
      <trkpt lat="42.82072" lon="-0.51316">
        <ele>2259</ele>
        <time>2010-01-01T12:17:18Z</time>
      </trkpt>
      <trkpt lat="42.82061" lon="-0.51325">
        <ele>2254</ele>
        <time>2010-01-01T12:17:23Z</time>
      </trkpt>
      <trkpt lat="42.82046" lon="-0.51328">
        <ele>2248</ele>
        <time>2010-01-01T12:17:29Z</time>
      </trkpt>
      <trkpt lat="42.8204" lon="-0.5133">
        <ele>2246</ele>
        <time>2010-01-01T12:17:31Z</time>
      </trkpt>
      <trkpt lat="42.82028" lon="-0.51329">
        <ele>2242</ele>
        <time>2010-01-01T12:17:36Z</time>
      </trkpt>
      <trkpt lat="42.82023" lon="-0.51331">
        <ele>2241</ele>
        <time>2010-01-01T12:17:38Z</time>
      </trkpt>
      <trkpt lat="42.82019" lon="-0.51327">
        <ele>2242</ele>
        <time>2010-01-01T12:17:40Z</time>
      </trkpt>
      <trkpt lat="42.82002" lon="-0.51331">
        <ele>2242</ele>
        <time>2010-01-01T12:17:47Z</time>
      </trkpt>
      <trkpt lat="42.81994" lon="-0.51335">
        <ele>2242</ele>
        <time>2010-01-01T12:17:51Z</time>
      </trkpt>
      <trkpt lat="42.8199" lon="-0.51338">
        <ele>2241</ele>
        <time>2010-01-01T12:17:53Z</time>
      </trkpt>
      <trkpt lat="42.81979" lon="-0.51341">
        <ele>2241</ele>
        <time>2010-01-01T12:17:57Z</time>
      </trkpt>
      <trkpt lat="42.81963" lon="-0.51349">
        <ele>2240</ele>
        <time>2010-01-01T12:18:04Z</time>
      </trkpt>
      <trkpt lat="42.81943" lon="-0.51353">
        <ele>2238</ele>
        <time>2010-01-01T12:18:12Z</time>
      </trkpt>
      <trkpt lat="42.81931" lon="-0.51354">
        <ele>2239</ele>
        <time>2010-01-01T12:18:17Z</time>
      </trkpt>
      <trkpt lat="42.81915" lon="-0.51362">
        <ele>2240</ele>
        <time>2010-01-01T12:18:24Z</time>
      </trkpt>
      <trkpt lat="42.81903" lon="-0.51363">
        <ele>2241</ele>
        <time>2010-01-01T12:18:28Z</time>
      </trkpt>
      <trkpt lat="42.81898" lon="-0.51365">
        <ele>2242</ele>
        <time>2010-01-01T12:18:31Z</time>
      </trkpt>
      <trkpt lat="42.81888" lon="-0.51374">
        <ele>2243</ele>
        <time>2010-01-01T12:18:36Z</time>
      </trkpt>
      <trkpt lat="42.81881" lon="-0.51374">
        <ele>2243</ele>
        <time>2010-01-01T12:18:38Z</time>
      </trkpt>
      <trkpt lat="42.81877" lon="-0.51377">
        <ele>2243</ele>
        <time>2010-01-01T12:18:40Z</time>
      </trkpt>
      <trkpt lat="42.81874" lon="-0.51382">
        <ele>2244</ele>
        <time>2010-01-01T12:18:42Z</time>
      </trkpt>
      <trkpt lat="42.81875" lon="-0.51391">
        <ele>2244</ele>
        <time>2010-01-01T12:18:44Z</time>
      </trkpt>
      <trkpt lat="42.8187" lon="-0.51424">
        <ele>2239</ele>
        <time>2010-01-01T12:18:54Z</time>
      </trkpt>
      <trkpt lat="42.81865" lon="-0.51432">
        <ele>2239</ele>
        <time>2010-01-01T12:18:57Z</time>
      </trkpt>
      <trkpt lat="42.81862" lon="-0.5144">
        <ele>2237</ele>
        <time>2010-01-01T12:19:00Z</time>
      </trkpt>
      <trkpt lat="42.81857" lon="-0.51447">
        <ele>2235</ele>
        <time>2010-01-01T12:19:03Z</time>
      </trkpt>
      <trkpt lat="42.81853" lon="-0.51463">
        <ele>2229</ele>
        <time>2010-01-01T12:19:08Z</time>
      </trkpt>
      <trkpt lat="42.81847" lon="-0.51475">
        <ele>2225</ele>
        <time>2010-01-01T12:19:12Z</time>
      </trkpt>
      <trkpt lat="42.81847" lon="-0.51481">
        <ele>2223</ele>
        <time>2010-01-01T12:19:14Z</time>
      </trkpt>
      <trkpt lat="42.81836" lon="-0.51505">
        <ele>2220</ele>
        <time>2010-01-01T12:19:22Z</time>
      </trkpt>
      <trkpt lat="42.81832" lon="-0.51518">
        <ele>2218</ele>
        <time>2010-01-01T12:19:27Z</time>
      </trkpt>
      <trkpt lat="42.81828" lon="-0.51533">
        <ele>2216</ele>
        <time>2010-01-01T12:19:31Z</time>
      </trkpt>
      <trkpt lat="42.81828" lon="-0.5154">
        <ele>2215</ele>
        <time>2010-01-01T12:19:33Z</time>
      </trkpt>
      <trkpt lat="42.81826" lon="-0.51556">
        <ele>2214</ele>
        <time>2010-01-01T12:19:38Z</time>
      </trkpt>
      <trkpt lat="42.8182" lon="-0.51578">
        <ele>2208</ele>
        <time>2010-01-01T12:19:45Z</time>
      </trkpt>
      <trkpt lat="42.81821" lon="-0.51593">
        <ele>2204</ele>
        <time>2010-01-01T12:19:49Z</time>
      </trkpt>
      <trkpt lat="42.81816" lon="-0.51613">
        <ele>2201</ele>
        <time>2010-01-01T12:19:56Z</time>
      </trkpt>
      <trkpt lat="42.81816" lon="-0.51621">
        <ele>2200</ele>
        <time>2010-01-01T12:19:58Z</time>
      </trkpt>
      <trkpt lat="42.81812" lon="-0.51627">
        <ele>2201</ele>
        <time>2010-01-01T12:20:00Z</time>
      </trkpt>
      <trkpt lat="42.81806" lon="-0.51649">
        <ele>2202</ele>
        <time>2010-01-01T12:20:07Z</time>
      </trkpt>
      <trkpt lat="42.81784" lon="-0.5169">
        <ele>2206</ele>
        <time>2010-01-01T12:20:22Z</time>
      </trkpt>
      <trkpt lat="42.8178" lon="-0.51702">
        <ele>2208</ele>
        <time>2010-01-01T12:20:26Z</time>
      </trkpt>
      <trkpt lat="42.81759" lon="-0.51729">
        <ele>2213</ele>
        <time>2010-01-01T12:20:37Z</time>
      </trkpt>
      <trkpt lat="42.8175" lon="-0.51749">
        <ele>2218</ele>
        <time>2010-01-01T12:20:44Z</time>
      </trkpt>
      <trkpt lat="42.81736" lon="-0.51762">
        <ele>2219</ele>
        <time>2010-01-01T12:20:51Z</time>
      </trkpt>
      <trkpt lat="42.81714" lon="-0.51779">
        <ele>2218</ele>
        <time>2010-01-01T12:21:02Z</time>
      </trkpt>
      <trkpt lat="42.81679" lon="-0.51794">
        <ele>2213</ele>
        <time>2010-01-01T12:21:16Z</time>
      </trkpt>
      <trkpt lat="42.8167" lon="-0.51801">
        <ele>2211</ele>
        <time>2010-01-01T12:21:20Z</time>
      </trkpt>
      <trkpt lat="42.81643" lon="-0.51812">
        <ele>2214</ele>
        <time>2010-01-01T12:21:32Z</time>
      </trkpt>
      <trkpt lat="42.81627" lon="-0.51811">
        <ele>2215</ele>
        <time>2010-01-01T12:21:38Z</time>
      </trkpt>
      <trkpt lat="42.81615" lon="-0.51813">
        <ele>2218</ele>
        <time>2010-01-01T12:21:43Z</time>
      </trkpt>
      <trkpt lat="42.81597" lon="-0.51822">
        <ele>2223</ele>
        <time>2010-01-01T12:21:51Z</time>
      </trkpt>
      <trkpt lat="42.81586" lon="-0.51823">
        <ele>2224</ele>
        <time>2010-01-01T12:21:55Z</time>
      </trkpt>
      <trkpt lat="42.81566" lon="-0.51827">
        <ele>2223</ele>
        <time>2010-01-01T12:22:03Z</time>
      </trkpt>
      <trkpt lat="42.81568" lon="-0.51849">
        <ele>2227</ele>
        <time>2010-01-01T12:22:09Z</time>
      </trkpt>
      <trkpt lat="42.81563" lon="-0.51869">
        <ele>2227</ele>
        <time>2010-01-01T12:22:16Z</time>
      </trkpt>
      <trkpt lat="42.81565" lon="-0.51883">
        <ele>2229</ele>
        <time>2010-01-01T12:22:20Z</time>
      </trkpt>
      <trkpt lat="42.8156" lon="-0.51899">
        <ele>2226</ele>
        <time>2010-01-01T12:22:25Z</time>
      </trkpt>
      <trkpt lat="42.81556" lon="-0.51923">
        <ele>2225</ele>
        <time>2010-01-01T12:22:32Z</time>
      </trkpt>
      <trkpt lat="42.81558" lon="-0.51954">
        <ele>2228</ele>
        <time>2010-01-01T12:22:41Z</time>
      </trkpt>
      <trkpt lat="42.81549" lon="-0.52028">
        <ele>2206</ele>
        <time>2010-01-01T12:23:03Z</time>
      </trkpt>
      <trkpt lat="42.81539" lon="-0.52045">
        <ele>2198</ele>
        <time>2010-01-01T12:23:10Z</time>
      </trkpt>
      <trkpt lat="42.81538" lon="-0.52052">
        <ele>2196</ele>
        <time>2010-01-01T12:23:11Z</time>
      </trkpt>
      <trkpt lat="42.81531" lon="-0.52063">
        <ele>2192</ele>
        <time>2010-01-01T12:23:16Z</time>
      </trkpt>
      <trkpt lat="42.81522" lon="-0.52071">
        <ele>2188</ele>
        <time>2010-01-01T12:23:20Z</time>
      </trkpt>
      <trkpt lat="42.81513" lon="-0.52076">
        <ele>2184</ele>
        <time>2010-01-01T12:23:24Z</time>
      </trkpt>
      <trkpt lat="42.8151" lon="-0.52081">
        <ele>2183</ele>
        <time>2010-01-01T12:23:26Z</time>
      </trkpt>
      <trkpt lat="42.81508" lon="-0.52089">
        <ele>2180</ele>
        <time>2010-01-01T12:23:28Z</time>
      </trkpt>
      <trkpt lat="42.81509" lon="-0.52098">
        <ele>2178</ele>
        <time>2010-01-01T12:23:31Z</time>
      </trkpt>
      <trkpt lat="42.81499" lon="-0.52108">
        <ele>2174</ele>
        <time>2010-01-01T12:23:36Z</time>
      </trkpt>
      <trkpt lat="42.81494" lon="-0.52109">
        <ele>2172</ele>
        <time>2010-01-01T12:23:38Z</time>
      </trkpt>
      <trkpt lat="42.8149" lon="-0.52114">
        <ele>2170</ele>
        <time>2010-01-01T12:23:40Z</time>
      </trkpt>
      <trkpt lat="42.81489" lon="-0.52121">
        <ele>2168</ele>
        <time>2010-01-01T12:23:42Z</time>
      </trkpt>
      <trkpt lat="42.81482" lon="-0.52133">
        <ele>2163</ele>
        <time>2010-01-01T12:23:47Z</time>
      </trkpt>
      <trkpt lat="42.81479" lon="-0.52148">
        <ele>2160</ele>
        <time>2010-01-01T12:23:51Z</time>
      </trkpt>
      <trkpt lat="42.81473" lon="-0.5216">
        <ele>2158</ele>
        <time>2010-01-01T12:23:56Z</time>
      </trkpt>
      <trkpt lat="42.81469" lon="-0.5218">
        <ele>2155</ele>
        <time>2010-01-01T12:24:02Z</time>
      </trkpt>
      <trkpt lat="42.81465" lon="-0.52186">
        <ele>2154</ele>
        <time>2010-01-01T12:24:04Z</time>
      </trkpt>
      <trkpt lat="42.81455" lon="-0.52188">
        <ele>2153</ele>
        <time>2010-01-01T12:24:08Z</time>
      </trkpt>
      <trkpt lat="42.81455" lon="-0.52196">
        <ele>2152</ele>
        <time>2010-01-01T12:24:10Z</time>
      </trkpt>
      <trkpt lat="42.81441" lon="-0.52195">
        <ele>2150</ele>
        <time>2010-01-01T12:24:16Z</time>
      </trkpt>
      <trkpt lat="42.81436" lon="-0.52193">
        <ele>2148</ele>
        <time>2010-01-01T12:24:18Z</time>
      </trkpt>
      <trkpt lat="42.81425" lon="-0.52201">
        <ele>2141</ele>
        <time>2010-01-01T12:24:23Z</time>
      </trkpt>
      <trkpt lat="42.81419" lon="-0.52201">
        <ele>2138</ele>
        <time>2010-01-01T12:24:26Z</time>
      </trkpt>
      <trkpt lat="42.81408" lon="-0.52206">
        <ele>2131</ele>
        <time>2010-01-01T12:24:30Z</time>
      </trkpt>
      <trkpt lat="42.81402" lon="-0.52205">
        <ele>2128</ele>
        <time>2010-01-01T12:24:33Z</time>
      </trkpt>
      <trkpt lat="42.81396" lon="-0.52201">
        <ele>2124</ele>
        <time>2010-01-01T12:24:35Z</time>
      </trkpt>
      <trkpt lat="42.81391" lon="-0.52202">
        <ele>2121</ele>
        <time>2010-01-01T12:24:37Z</time>
      </trkpt>
      <trkpt lat="42.81382" lon="-0.522">
        <ele>2117</ele>
        <time>2010-01-01T12:24:41Z</time>
      </trkpt>
      <trkpt lat="42.81377" lon="-0.52197">
        <ele>2115</ele>
        <time>2010-01-01T12:24:43Z</time>
      </trkpt>
      <trkpt lat="42.81362" lon="-0.52196">
        <ele>2108</ele>
        <time>2010-01-01T12:24:49Z</time>
      </trkpt>
      <trkpt lat="42.81357" lon="-0.52192">
        <ele>2107</ele>
        <time>2010-01-01T12:24:51Z</time>
      </trkpt>
      <trkpt lat="42.81352" lon="-0.52191">
        <ele>2106</ele>
        <time>2010-01-01T12:24:53Z</time>
      </trkpt>
      <trkpt lat="42.81337" lon="-0.52197">
        <ele>2103</ele>
        <time>2010-01-01T12:25:00Z</time>
      </trkpt>
      <trkpt lat="42.81319" lon="-0.52218">
        <ele>2101</ele>
        <time>2010-01-01T12:25:09Z</time>
      </trkpt>
      <trkpt lat="42.8132" lon="-0.52256">
        <ele>2097</ele>
        <time>2010-01-01T12:25:20Z</time>
      </trkpt>
      <trkpt lat="42.81315" lon="-0.5226">
        <ele>2096</ele>
        <time>2010-01-01T12:25:23Z</time>
      </trkpt>
      <trkpt lat="42.81312" lon="-0.52266">
        <ele>2096</ele>
        <time>2010-01-01T12:25:25Z</time>
      </trkpt>
      <trkpt lat="42.81308" lon="-0.52288">
        <ele>2093</ele>
        <time>2010-01-01T12:25:32Z</time>
      </trkpt>
      <trkpt lat="42.81282" lon="-0.5233">
        <ele>2084</ele>
        <time>2010-01-01T12:25:48Z</time>
      </trkpt>
      <trkpt lat="42.81262" lon="-0.52371">
        <ele>2078</ele>
        <time>2010-01-01T12:26:02Z</time>
      </trkpt>
      <trkpt lat="42.81249" lon="-0.52407">
        <ele>2076</ele>
        <time>2010-01-01T12:26:14Z</time>
      </trkpt>
      <trkpt lat="42.8124" lon="-0.52415">
        <ele>2077</ele>
        <time>2010-01-01T12:26:18Z</time>
      </trkpt>
      <trkpt lat="42.81235" lon="-0.52418">
        <ele>2077</ele>
        <time>2010-01-01T12:26:21Z</time>
      </trkpt>
      <trkpt lat="42.81211" lon="-0.52407">
        <ele>2078</ele>
        <time>2010-01-01T12:26:31Z</time>
      </trkpt>
      <trkpt lat="42.81177" lon="-0.524">
        <ele>2077</ele>
        <time>2010-01-01T12:26:44Z</time>
      </trkpt>
      <trkpt lat="42.81158" lon="-0.52388">
        <ele>2070</ele>
        <time>2010-01-01T12:26:53Z</time>
      </trkpt>
      <trkpt lat="42.81141" lon="-0.52371">
        <ele>2065</ele>
        <time>2010-01-01T12:27:01Z</time>
      </trkpt>
      <trkpt lat="42.81122" lon="-0.52363">
        <ele>2064</ele>
        <time>2010-01-01T12:27:09Z</time>
      </trkpt>
      <trkpt lat="42.81118" lon="-0.52359">
        <ele>2064</ele>
        <time>2010-01-01T12:27:11Z</time>
      </trkpt>
      <trkpt lat="42.81106" lon="-0.52359">
        <ele>2064</ele>
        <time>2010-01-01T12:27:16Z</time>
      </trkpt>
      <trkpt lat="42.81101" lon="-0.52361">
        <ele>2064</ele>
        <time>2010-01-01T12:27:18Z</time>
      </trkpt>
      <trkpt lat="42.81089" lon="-0.52355">
        <ele>2063</ele>
        <time>2010-01-01T12:27:23Z</time>
      </trkpt>
      <trkpt lat="42.81085" lon="-0.52348">
        <ele>2063</ele>
        <time>2010-01-01T12:27:26Z</time>
      </trkpt>
      <trkpt lat="42.81081" lon="-0.52345">
        <ele>2063</ele>
        <time>2010-01-01T12:27:27Z</time>
      </trkpt>
      <trkpt lat="42.81075" lon="-0.52343">
        <ele>2063</ele>
        <time>2010-01-01T12:27:30Z</time>
      </trkpt>
      <trkpt lat="42.81064" lon="-0.5233">
        <ele>2061</ele>
        <time>2010-01-01T12:27:36Z</time>
      </trkpt>
      <trkpt lat="42.81055" lon="-0.52323">
        <ele>2059</ele>
        <time>2010-01-01T12:27:40Z</time>
      </trkpt>
      <trkpt lat="42.8104" lon="-0.52316">
        <ele>2058</ele>
        <time>2010-01-01T12:27:46Z</time>
      </trkpt>
      <trkpt lat="42.81024" lon="-0.52319">
        <ele>2057</ele>
        <time>2010-01-01T12:27:53Z</time>
      </trkpt>
      <trkpt lat="42.81019" lon="-0.52322">
        <ele>2056</ele>
        <time>2010-01-01T12:27:55Z</time>
      </trkpt>
      <trkpt lat="42.8099" lon="-0.52319">
        <ele>2051</ele>
        <time>2010-01-01T12:28:06Z</time>
      </trkpt>
      <trkpt lat="42.80976" lon="-0.52325">
        <ele>2048</ele>
        <time>2010-01-01T12:28:12Z</time>
      </trkpt>
      <trkpt lat="42.80973" lon="-0.52333">
        <ele>2048</ele>
        <time>2010-01-01T12:28:15Z</time>
      </trkpt>
      <trkpt lat="42.80964" lon="-0.52335">
        <ele>2046</ele>
        <time>2010-01-01T12:28:19Z</time>
      </trkpt>
      <trkpt lat="42.80959" lon="-0.52325">
        <ele>2045</ele>
        <time>2010-01-01T12:28:22Z</time>
      </trkpt>
      <trkpt lat="42.80957" lon="-0.52308">
        <ele>2044</ele>
        <time>2010-01-01T12:28:27Z</time>
      </trkpt>
      <trkpt lat="42.80954" lon="-0.52301">
        <ele>2043</ele>
        <time>2010-01-01T12:28:30Z</time>
      </trkpt>
      <trkpt lat="42.80947" lon="-0.52304">
        <ele>2042</ele>
        <time>2010-01-01T12:28:32Z</time>
      </trkpt>
      <trkpt lat="42.80945" lon="-0.5231">
        <ele>2042</ele>
        <time>2010-01-01T12:28:34Z</time>
      </trkpt>
      <trkpt lat="42.80941" lon="-0.52311">
        <ele>2041</ele>
        <time>2010-01-01T12:28:36Z</time>
      </trkpt>
      <trkpt lat="42.80922" lon="-0.52297">
        <ele>2035</ele>
        <time>2010-01-01T12:28:45Z</time>
      </trkpt>
      <trkpt lat="42.80907" lon="-0.52289">
        <ele>2032</ele>
        <time>2010-01-01T12:28:51Z</time>
      </trkpt>
      <trkpt lat="42.80898" lon="-0.5228">
        <ele>2029</ele>
        <time>2010-01-01T12:28:55Z</time>
      </trkpt>
      <trkpt lat="42.80881" lon="-0.5228">
        <ele>2028</ele>
        <time>2010-01-01T12:29:02Z</time>
      </trkpt>
      <trkpt lat="42.80859" lon="-0.52266">
        <ele>2026</ele>
        <time>2010-01-01T12:29:12Z</time>
      </trkpt>
      <trkpt lat="42.80856" lon="-0.52262">
        <ele>2026</ele>
        <time>2010-01-01T12:29:14Z</time>
      </trkpt>
      <trkpt lat="42.80845" lon="-0.52256">
        <ele>2025</ele>
        <time>2010-01-01T12:29:19Z</time>
      </trkpt>
      <trkpt lat="42.80841" lon="-0.52244">
        <ele>2023</ele>
        <time>2010-01-01T12:29:22Z</time>
      </trkpt>
      <trkpt lat="42.80825" lon="-0.52241">
        <ele>2023</ele>
        <time>2010-01-01T12:29:29Z</time>
      </trkpt>
      <trkpt lat="42.80814" lon="-0.52237">
        <ele>2022</ele>
        <time>2010-01-01T12:29:34Z</time>
      </trkpt>
      <trkpt lat="42.80809" lon="-0.5223">
        <ele>2019</ele>
        <time>2010-01-01T12:29:36Z</time>
      </trkpt>
      <trkpt lat="42.80808" lon="-0.52205">
        <ele>2011</ele>
        <time>2010-01-01T12:29:44Z</time>
      </trkpt>
      <trkpt lat="42.80805" lon="-0.5219">
        <ele>2007</ele>
        <time>2010-01-01T12:29:48Z</time>
      </trkpt>
      <trkpt lat="42.80802" lon="-0.52182">
        <ele>2006</ele>
        <time>2010-01-01T12:29:51Z</time>
      </trkpt>
      <trkpt lat="42.80802" lon="-0.52175">
        <ele>2005</ele>
        <time>2010-01-01T12:29:53Z</time>
      </trkpt>
      <trkpt lat="42.80803" lon="-0.52168">
        <ele>2004</ele>
        <time>2010-01-01T12:29:55Z</time>
      </trkpt>
      <trkpt lat="42.80808" lon="-0.52163">
        <ele>2003</ele>
        <time>2010-01-01T12:29:58Z</time>
      </trkpt>
      <trkpt lat="42.80812" lon="-0.52149">
        <ele>1998</ele>
        <time>2010-01-01T12:30:02Z</time>
      </trkpt>
      <trkpt lat="42.80815" lon="-0.52143">
        <ele>1996</ele>
        <time>2010-01-01T12:30:04Z</time>
      </trkpt>
      <trkpt lat="42.80815" lon="-0.52133">
        <ele>1992</ele>
        <time>2010-01-01T12:30:07Z</time>
      </trkpt>
      <trkpt lat="42.80819" lon="-0.52117">
        <ele>1985</ele>
        <time>2010-01-01T12:30:12Z</time>
      </trkpt>
      <trkpt lat="42.80827" lon="-0.52098">
        <ele>1979</ele>
        <time>2010-01-01T12:30:18Z</time>
      </trkpt>
      <trkpt lat="42.80831" lon="-0.52092">
        <ele>1977</ele>
        <time>2010-01-01T12:30:21Z</time>
      </trkpt>
      <trkpt lat="42.80833" lon="-0.52083">
        <ele>1974</ele>
        <time>2010-01-01T12:30:24Z</time>
      </trkpt>
      <trkpt lat="42.80835" lon="-0.52068">
        <ele>1972</ele>
        <time>2010-01-01T12:30:28Z</time>
      </trkpt>
      <trkpt lat="42.80833" lon="-0.52055">
        <ele>1969</ele>
        <time>2010-01-01T12:30:32Z</time>
      </trkpt>
      <trkpt lat="42.80837" lon="-0.52049">
        <ele>1967</ele>
        <time>2010-01-01T12:30:34Z</time>
      </trkpt>
      <trkpt lat="42.80839" lon="-0.52041">
        <ele>1965</ele>
        <time>2010-01-01T12:30:37Z</time>
      </trkpt>
      <trkpt lat="42.80844" lon="-0.52039">
        <ele>1964</ele>
        <time>2010-01-01T12:30:39Z</time>
      </trkpt>
      <trkpt lat="42.8085" lon="-0.5203">
        <ele>1962</ele>
        <time>2010-01-01T12:30:42Z</time>
      </trkpt>
      <trkpt lat="42.80862" lon="-0.52004">
        <ele>1957</ele>
        <time>2010-01-01T12:30:52Z</time>
      </trkpt>
      <trkpt lat="42.80864" lon="-0.51997">
        <ele>1955</ele>
        <time>2010-01-01T12:30:54Z</time>
      </trkpt>
      <trkpt lat="42.80871" lon="-0.51985">
        <ele>1951</ele>
        <time>2010-01-01T12:30:58Z</time>
      </trkpt>
      <trkpt lat="42.80877" lon="-0.51969">
        <ele>1946</ele>
        <time>2010-01-01T12:31:03Z</time>
      </trkpt>
      <trkpt lat="42.80877" lon="-0.51963">
        <ele>1944</ele>
        <time>2010-01-01T12:31:05Z</time>
      </trkpt>
      <trkpt lat="42.80884" lon="-0.51952">
        <ele>1940</ele>
        <time>2010-01-01T12:31:09Z</time>
      </trkpt>
      <trkpt lat="42.80884" lon="-0.51943">
        <ele>1937</ele>
        <time>2010-01-01T12:31:12Z</time>
      </trkpt>
      <trkpt lat="42.80891" lon="-0.51929">
        <ele>1926</ele>
        <time>2010-01-01T12:31:17Z</time>
      </trkpt>
      <trkpt lat="42.8089" lon="-0.51922">
        <ele>1921</ele>
        <time>2010-01-01T12:31:19Z</time>
      </trkpt>
      <trkpt lat="42.80896" lon="-0.51908">
        <ele>1914</ele>
        <time>2010-01-01T12:31:24Z</time>
      </trkpt>
      <trkpt lat="42.80909" lon="-0.51898">
        <ele>1913</ele>
        <time>2010-01-01T12:31:30Z</time>
      </trkpt>
      <trkpt lat="42.80912" lon="-0.51893">
        <ele>1913</ele>
        <time>2010-01-01T12:31:32Z</time>
      </trkpt>
      <trkpt lat="42.80913" lon="-0.51885">
        <ele>1904</ele>
        <time>2010-01-01T12:31:34Z</time>
      </trkpt>
      <trkpt lat="42.80912" lon="-0.51879">
        <ele>1892</ele>
        <time>2010-01-01T12:31:36Z</time>
      </trkpt>
      <trkpt lat="42.80914" lon="-0.51866">
        <ele>1870</ele>
        <time>2010-01-01T12:31:40Z</time>
      </trkpt>
      <trkpt lat="42.8092" lon="-0.51857">
        <ele>1860</ele>
        <time>2010-01-01T12:31:43Z</time>
      </trkpt>
      <trkpt lat="42.80923" lon="-0.51843">
        <ele>1855</ele>
        <time>2010-01-01T12:31:48Z</time>
      </trkpt>
      <trkpt lat="42.80919" lon="-0.51841">
        <ele>1854</ele>
        <time>2010-01-01T12:31:49Z</time>
      </trkpt>
      <trkpt lat="42.80918" lon="-0.51833">
        <ele>1851</ele>
        <time>2010-01-01T12:31:52Z</time>
      </trkpt>
      <trkpt lat="42.80919" lon="-0.51826">
        <ele>1851</ele>
        <time>2010-01-01T12:31:54Z</time>
      </trkpt>
      <trkpt lat="42.80917" lon="-0.51803">
        <ele>1853</ele>
        <time>2010-01-01T12:32:01Z</time>
      </trkpt>
      <trkpt lat="42.80925" lon="-0.51793">
        <ele>1848</ele>
        <time>2010-01-01T12:32:05Z</time>
      </trkpt>
      <trkpt lat="42.80926" lon="-0.51785">
        <ele>1846</ele>
        <time>2010-01-01T12:32:07Z</time>
      </trkpt>
      <trkpt lat="42.80923" lon="-0.51777">
        <ele>1844</ele>
        <time>2010-01-01T12:32:10Z</time>
      </trkpt>
      <trkpt lat="42.80931" lon="-0.5177">
        <ele>1839</ele>
        <time>2010-01-01T12:32:13Z</time>
      </trkpt>
      <trkpt lat="42.80934" lon="-0.51754">
        <ele>1829</ele>
        <time>2010-01-01T12:32:18Z</time>
      </trkpt>
      <trkpt lat="42.80941" lon="-0.51745">
        <ele>1823</ele>
        <time>2010-01-01T12:32:22Z</time>
      </trkpt>
      <trkpt lat="42.8094" lon="-0.51738">
        <ele>1824</ele>
        <time>2010-01-01T12:32:24Z</time>
      </trkpt>
      <trkpt lat="42.80918" lon="-0.51727">
        <ele>1825</ele>
        <time>2010-01-01T12:32:34Z</time>
      </trkpt>
      <trkpt lat="42.80911" lon="-0.51716">
        <ele>1822</ele>
        <time>2010-01-01T12:32:38Z</time>
      </trkpt>
      <trkpt lat="42.80905" lon="-0.51712">
        <ele>1821</ele>
        <time>2010-01-01T12:32:41Z</time>
      </trkpt>
      <trkpt lat="42.80899" lon="-0.51711">
        <ele>1820</ele>
        <time>2010-01-01T12:32:43Z</time>
      </trkpt>
      <trkpt lat="42.80894" lon="-0.51712">
        <ele>1820</ele>
        <time>2010-01-01T12:32:45Z</time>
      </trkpt>
      <trkpt lat="42.8089" lon="-0.51715">
        <ele>1820</ele>
        <time>2010-01-01T12:32:47Z</time>
      </trkpt>
      <trkpt lat="42.80879" lon="-0.51731">
        <ele>1824</ele>
        <time>2010-01-01T12:32:54Z</time>
      </trkpt>
      <trkpt lat="42.80859" lon="-0.51749">
        <ele>1829</ele>
        <time>2010-01-01T12:33:03Z</time>
      </trkpt>
      <trkpt lat="42.80848" lon="-0.51756">
        <ele>1827</ele>
        <time>2010-01-01T12:33:08Z</time>
      </trkpt>
      <trkpt lat="42.80842" lon="-0.51757">
        <ele>1825</ele>
        <time>2010-01-01T12:33:10Z</time>
      </trkpt>
      <trkpt lat="42.80827" lon="-0.51765">
        <ele>1822</ele>
        <time>2010-01-01T12:33:17Z</time>
      </trkpt>
      <trkpt lat="42.80806" lon="-0.51778">
        <ele>1816</ele>
        <time>2010-01-01T12:33:26Z</time>
      </trkpt>
      <trkpt lat="42.80793" lon="-0.51794">
        <ele>1819</ele>
        <time>2010-01-01T12:33:33Z</time>
      </trkpt>
      <trkpt lat="42.80773" lon="-0.51811">
        <ele>1819</ele>
        <time>2010-01-01T12:33:43Z</time>
      </trkpt>
      <trkpt lat="42.80765" lon="-0.51823">
        <ele>1822</ele>
        <time>2010-01-01T12:33:47Z</time>
      </trkpt>
      <trkpt lat="42.8075" lon="-0.51829">
        <ele>1816</ele>
        <time>2010-01-01T12:33:54Z</time>
      </trkpt>
      <trkpt lat="42.80739" lon="-0.51831">
        <ele>1818</ele>
        <time>2010-01-01T12:33:58Z</time>
      </trkpt>
      <trkpt lat="42.80695" lon="-0.51831">
        <ele>1812</ele>
        <time>2010-01-01T12:34:16Z</time>
      </trkpt>
      <trkpt lat="42.80672" lon="-0.51843">
        <ele>1808</ele>
        <time>2010-01-01T12:34:25Z</time>
      </trkpt>
      <trkpt lat="42.80663" lon="-0.5185">
        <ele>1807</ele>
        <time>2010-01-01T12:34:30Z</time>
      </trkpt>
      <trkpt lat="42.8065" lon="-0.51864">
        <ele>1806</ele>
        <time>2010-01-01T12:34:36Z</time>
      </trkpt>
      <trkpt lat="42.80638" lon="-0.51888">
        <ele>1808</ele>
        <time>2010-01-01T12:34:45Z</time>
      </trkpt>
      <trkpt lat="42.80633" lon="-0.51893">
        <ele>1809</ele>
        <time>2010-01-01T12:34:47Z</time>
      </trkpt>
      <trkpt lat="42.80619" lon="-0.51905">
        <ele>1809</ele>
        <time>2010-01-01T12:34:54Z</time>
      </trkpt>
      <trkpt lat="42.80609" lon="-0.51911">
        <ele>1807</ele>
        <time>2010-01-01T12:34:58Z</time>
      </trkpt>
      <trkpt lat="42.80595" lon="-0.51921">
        <ele>1802</ele>
        <time>2010-01-01T12:35:05Z</time>
      </trkpt>
      <trkpt lat="42.80567" lon="-0.51954">
        <ele>1789</ele>
        <time>2010-01-01T12:35:19Z</time>
      </trkpt>
      <trkpt lat="42.80561" lon="-0.51957">
        <ele>1786</ele>
        <time>2010-01-01T12:35:22Z</time>
      </trkpt>
      <trkpt lat="42.80545" lon="-0.51963">
        <ele>1780</ele>
        <time>2010-01-01T12:35:28Z</time>
      </trkpt>
      <trkpt lat="42.8053" lon="-0.51989">
        <ele>1782</ele>
        <time>2010-01-01T12:35:38Z</time>
      </trkpt>
      <trkpt lat="42.80497" lon="-0.52031">
        <ele>1781</ele>
        <time>2010-01-01T12:35:56Z</time>
      </trkpt>
      <trkpt lat="42.80486" lon="-0.52051">
        <ele>1777</ele>
        <time>2010-01-01T12:36:04Z</time>
      </trkpt>
      <trkpt lat="42.80485" lon="-0.52058">
        <ele>1779</ele>
        <time>2010-01-01T12:36:06Z</time>
      </trkpt>
      <trkpt lat="42.80473" lon="-0.52075">
        <ele>1773</ele>
        <time>2010-01-01T12:36:12Z</time>
      </trkpt>
      <trkpt lat="42.8047" lon="-0.52091">
        <ele>1777</ele>
        <time>2010-01-01T12:36:17Z</time>
      </trkpt>
      <trkpt lat="42.80467" lon="-0.52096">
        <ele>1778</ele>
        <time>2010-01-01T12:36:19Z</time>
      </trkpt>
      <trkpt lat="42.8046" lon="-0.52097">
        <ele>1776</ele>
        <time>2010-01-01T12:36:22Z</time>
      </trkpt>
      <trkpt lat="42.8045" lon="-0.52094">
        <ele>1772</ele>
        <time>2010-01-01T12:36:26Z</time>
      </trkpt>
      <trkpt lat="42.8044" lon="-0.52086">
        <ele>1767</ele>
        <time>2010-01-01T12:36:31Z</time>
      </trkpt>
      <trkpt lat="42.80428" lon="-0.52084">
        <ele>1768</ele>
        <time>2010-01-01T12:36:36Z</time>
      </trkpt>
      <trkpt lat="42.80416" lon="-0.52109">
        <ele>1773</ele>
        <time>2010-01-01T12:36:44Z</time>
      </trkpt>
      <trkpt lat="42.80411" lon="-0.52113">
        <ele>1773</ele>
        <time>2010-01-01T12:36:47Z</time>
      </trkpt>
      <trkpt lat="42.80406" lon="-0.52114">
        <ele>1772</ele>
        <time>2010-01-01T12:36:49Z</time>
      </trkpt>
      <trkpt lat="42.80401" lon="-0.52118">
        <ele>1772</ele>
        <time>2010-01-01T12:36:51Z</time>
      </trkpt>
      <trkpt lat="42.80397" lon="-0.52123">
        <ele>1773</ele>
        <time>2010-01-01T12:36:53Z</time>
      </trkpt>
      <trkpt lat="42.80382" lon="-0.52126">
        <ele>1771</ele>
        <time>2010-01-01T12:36:59Z</time>
      </trkpt>
      <trkpt lat="42.80376" lon="-0.52123">
        <ele>1769</ele>
        <time>2010-01-01T12:37:02Z</time>
      </trkpt>
      <trkpt lat="42.80369" lon="-0.52123">
        <ele>1767</ele>
        <time>2010-01-01T12:37:04Z</time>
      </trkpt>
      <trkpt lat="42.80358" lon="-0.52127">
        <ele>1766</ele>
        <time>2010-01-01T12:37:09Z</time>
      </trkpt>
      <trkpt lat="42.80351" lon="-0.52125">
        <ele>1764</ele>
        <time>2010-01-01T12:37:12Z</time>
      </trkpt>
      <trkpt lat="42.80337" lon="-0.52128">
        <ele>1764</ele>
        <time>2010-01-01T12:37:17Z</time>
      </trkpt>
      <trkpt lat="42.80328" lon="-0.52133">
        <ele>1765</ele>
        <time>2010-01-01T12:37:22Z</time>
      </trkpt>
      <trkpt lat="42.80314" lon="-0.52144">
        <ele>1767</ele>
        <time>2010-01-01T12:37:28Z</time>
      </trkpt>
      <trkpt lat="42.80302" lon="-0.52157">
        <ele>1769</ele>
        <time>2010-01-01T12:37:34Z</time>
      </trkpt>
      <trkpt lat="42.80288" lon="-0.52165">
        <ele>1767</ele>
        <time>2010-01-01T12:37:40Z</time>
      </trkpt>
      <trkpt lat="42.80272" lon="-0.52169">
        <ele>1764</ele>
        <time>2010-01-01T12:37:47Z</time>
      </trkpt>
      <trkpt lat="42.80245" lon="-0.52173">
        <ele>1761</ele>
        <time>2010-01-01T12:37:57Z</time>
      </trkpt>
      <trkpt lat="42.8023" lon="-0.52172">
        <ele>1754</ele>
        <time>2010-01-01T12:38:03Z</time>
      </trkpt>
      <trkpt lat="42.80219" lon="-0.52169">
        <ele>1748</ele>
        <time>2010-01-01T12:38:08Z</time>
      </trkpt>
      <trkpt lat="42.80212" lon="-0.52172">
        <ele>1748</ele>
        <time>2010-01-01T12:38:11Z</time>
      </trkpt>
      <trkpt lat="42.80197" lon="-0.52184">
        <ele>1752</ele>
        <time>2010-01-01T12:38:18Z</time>
      </trkpt>
      <trkpt lat="42.80174" lon="-0.52196">
        <ele>1752</ele>
        <time>2010-01-01T12:38:28Z</time>
      </trkpt>
      <trkpt lat="42.80163" lon="-0.52199">
        <ele>1750</ele>
        <time>2010-01-01T12:38:32Z</time>
      </trkpt>
      <trkpt lat="42.80128" lon="-0.52224">
        <ele>1743</ele>
        <time>2010-01-01T12:38:48Z</time>
      </trkpt>
      <trkpt lat="42.80112" lon="-0.5223">
        <ele>1735</ele>
        <time>2010-01-01T12:38:55Z</time>
      </trkpt>
      <trkpt lat="42.80099" lon="-0.52238">
        <ele>1732</ele>
        <time>2010-01-01T12:39:00Z</time>
      </trkpt>
      <trkpt lat="42.80087" lon="-0.52242">
        <ele>1727</ele>
        <time>2010-01-01T12:39:05Z</time>
      </trkpt>
      <trkpt lat="42.80065" lon="-0.52243">
        <ele>1719</ele>
        <time>2010-01-01T12:39:14Z</time>
      </trkpt>
      <trkpt lat="42.80059" lon="-0.52255">
        <ele>1720</ele>
        <time>2010-01-01T12:39:18Z</time>
      </trkpt>
      <trkpt lat="42.80046" lon="-0.52266">
        <ele>1718</ele>
        <time>2010-01-01T12:39:24Z</time>
      </trkpt>
      <trkpt lat="42.80038" lon="-0.52269">
        <ele>1715</ele>
        <time>2010-01-01T12:39:28Z</time>
      </trkpt>
      <trkpt lat="42.80022" lon="-0.52271">
        <ele>1711</ele>
        <time>2010-01-01T12:39:34Z</time>
      </trkpt>
      <trkpt lat="42.80018" lon="-0.52273">
        <ele>1710</ele>
        <time>2010-01-01T12:39:36Z</time>
      </trkpt>
      <trkpt lat="42.8" lon="-0.52288">
        <ele>1709</ele>
        <time>2010-01-01T12:39:45Z</time>
      </trkpt>
      <trkpt lat="42.79994" lon="-0.52293">
        <ele>1707</ele>
        <time>2010-01-01T12:39:47Z</time>
      </trkpt>
      <trkpt lat="42.79989" lon="-0.52294">
        <ele>1704</ele>
        <time>2010-01-01T12:39:49Z</time>
      </trkpt>
      <trkpt lat="42.79972" lon="-0.52292">
        <ele>1697</ele>
        <time>2010-01-01T12:39:56Z</time>
      </trkpt>
      <trkpt lat="42.79955" lon="-0.52296">
        <ele>1688</ele>
        <time>2010-01-01T12:40:03Z</time>
      </trkpt>
      <trkpt lat="42.79943" lon="-0.52295">
        <ele>1683</ele>
        <time>2010-01-01T12:40:08Z</time>
      </trkpt>
      <trkpt lat="42.79939" lon="-0.52292">
        <ele>1682</ele>
        <time>2010-01-01T12:40:10Z</time>
      </trkpt>
      <trkpt lat="42.79936" lon="-0.52286">
        <ele>1683</ele>
        <time>2010-01-01T12:40:12Z</time>
      </trkpt>
      <trkpt lat="42.79924" lon="-0.52269">
        <ele>1682</ele>
        <time>2010-01-01T12:40:19Z</time>
      </trkpt>
      <trkpt lat="42.79919" lon="-0.52271">
        <ele>1680</ele>
        <time>2010-01-01T12:40:21Z</time>
      </trkpt>
      <trkpt lat="42.79906" lon="-0.52285">
        <ele>1678</ele>
        <time>2010-01-01T12:40:28Z</time>
      </trkpt>
      <trkpt lat="42.79901" lon="-0.52286">
        <ele>1677</ele>
        <time>2010-01-01T12:40:29Z</time>
      </trkpt>
      <trkpt lat="42.79876" lon="-0.52313">
        <ele>1674</ele>
        <time>2010-01-01T12:40:42Z</time>
      </trkpt>
      <trkpt lat="42.79869" lon="-0.52313">
        <ele>1673</ele>
        <time>2010-01-01T12:40:45Z</time>
      </trkpt>
      <trkpt lat="42.79853" lon="-0.52322">
        <ele>1674</ele>
        <time>2010-01-01T12:40:52Z</time>
      </trkpt>
      <trkpt lat="42.79848" lon="-0.52323">
        <ele>1675</ele>
        <time>2010-01-01T12:40:54Z</time>
      </trkpt>
      <trkpt lat="42.79839" lon="-0.52329">
        <ele>1677</ele>
        <time>2010-01-01T12:40:58Z</time>
      </trkpt>
      <trkpt lat="42.79833" lon="-0.52327">
        <ele>1677</ele>
        <time>2010-01-01T12:41:00Z</time>
      </trkpt>
      <trkpt lat="42.79817" lon="-0.52318">
        <ele>1678</ele>
        <time>2010-01-01T12:41:08Z</time>
      </trkpt>
      <trkpt lat="42.79811" lon="-0.52322">
        <ele>1679</ele>
        <time>2010-01-01T12:41:10Z</time>
      </trkpt>
      <trkpt lat="42.79807" lon="-0.52327">
        <ele>1679</ele>
        <time>2010-01-01T12:41:12Z</time>
      </trkpt>
      <trkpt lat="42.79794" lon="-0.52352">
        <ele>1675</ele>
        <time>2010-01-01T12:41:21Z</time>
      </trkpt>
      <trkpt lat="42.79788" lon="-0.52355">
        <ele>1674</ele>
        <time>2010-01-01T12:41:24Z</time>
      </trkpt>
      <trkpt lat="42.79782" lon="-0.5236">
        <ele>1673</ele>
        <time>2010-01-01T12:41:27Z</time>
      </trkpt>
      <trkpt lat="42.79779" lon="-0.52365">
        <ele>1673</ele>
        <time>2010-01-01T12:41:28Z</time>
      </trkpt>
      <trkpt lat="42.79776" lon="-0.52378">
        <ele>1673</ele>
        <time>2010-01-01T12:41:32Z</time>
      </trkpt>
      <trkpt lat="42.79772" lon="-0.52383">
        <ele>1672</ele>
        <time>2010-01-01T12:41:35Z</time>
      </trkpt>
      <trkpt lat="42.79766" lon="-0.52382">
        <ele>1672</ele>
        <time>2010-01-01T12:41:37Z</time>
      </trkpt>
      <trkpt lat="42.79761" lon="-0.52388">
        <ele>1671</ele>
        <time>2010-01-01T12:41:40Z</time>
      </trkpt>
      <trkpt lat="42.79752" lon="-0.5239">
        <ele>1670</ele>
        <time>2010-01-01T12:41:43Z</time>
      </trkpt>
      <trkpt lat="42.79729" lon="-0.52391">
        <ele>1665</ele>
        <time>2010-01-01T12:41:53Z</time>
      </trkpt>
      <trkpt lat="42.79724" lon="-0.52395">
        <ele>1664</ele>
        <time>2010-01-01T12:41:55Z</time>
      </trkpt>
      <trkpt lat="42.79721" lon="-0.52402">
        <ele>1663</ele>
        <time>2010-01-01T12:41:57Z</time>
      </trkpt>
      <trkpt lat="42.79718" lon="-0.52416">
        <ele>1662</ele>
        <time>2010-01-01T12:42:01Z</time>
      </trkpt>
      <trkpt lat="42.79711" lon="-0.52441">
        <ele>1660</ele>
        <time>2010-01-01T12:42:09Z</time>
      </trkpt>
      <trkpt lat="42.79708" lon="-0.52446">
        <ele>1659</ele>
        <time>2010-01-01T12:42:11Z</time>
      </trkpt>
      <trkpt lat="42.7971" lon="-0.52458">
        <ele>1660</ele>
        <time>2010-01-01T12:42:15Z</time>
      </trkpt>
      <trkpt lat="42.79717" lon="-0.52481">
        <ele>1661</ele>
        <time>2010-01-01T12:42:22Z</time>
      </trkpt>
      <trkpt lat="42.79717" lon="-0.52488">
        <ele>1660</ele>
        <time>2010-01-01T12:42:24Z</time>
      </trkpt>
      <trkpt lat="42.7971" lon="-0.52491">
        <ele>1660</ele>
        <time>2010-01-01T12:42:27Z</time>
      </trkpt>
      <trkpt lat="42.79705" lon="-0.52487">
        <ele>1659</ele>
        <time>2010-01-01T12:42:29Z</time>
      </trkpt>
      <trkpt lat="42.79694" lon="-0.52471">
        <ele>1658</ele>
        <time>2010-01-01T12:42:36Z</time>
      </trkpt>
      <trkpt lat="42.79686" lon="-0.52462">
        <ele>1656</ele>
        <time>2010-01-01T12:42:40Z</time>
      </trkpt>
      <trkpt lat="42.79676" lon="-0.52445">
        <ele>1652</ele>
        <time>2010-01-01T12:42:46Z</time>
      </trkpt>
      <trkpt lat="42.79668" lon="-0.52439">
        <ele>1650</ele>
        <time>2010-01-01T12:42:50Z</time>
      </trkpt>
      <trkpt lat="42.79657" lon="-0.52446">
        <ele>1645</ele>
        <time>2010-01-01T12:42:55Z</time>
      </trkpt>
      <trkpt lat="42.79652" lon="-0.52446">
        <ele>1643</ele>
        <time>2010-01-01T12:42:57Z</time>
      </trkpt>
      <trkpt lat="42.79639" lon="-0.52455">
        <ele>1638</ele>
        <time>2010-01-01T12:43:03Z</time>
      </trkpt>
      <trkpt lat="42.79627" lon="-0.52458">
        <ele>1635</ele>
        <time>2010-01-01T12:43:07Z</time>
      </trkpt>
      <trkpt lat="42.79614" lon="-0.52476">
        <ele>1633</ele>
        <time>2010-01-01T12:43:15Z</time>
      </trkpt>
      <trkpt lat="42.79613" lon="-0.52483">
        <ele>1633</ele>
        <time>2010-01-01T12:43:17Z</time>
      </trkpt>
      <trkpt lat="42.79609" lon="-0.52489">
        <ele>1633</ele>
        <time>2010-01-01T12:43:19Z</time>
      </trkpt>
      <trkpt lat="42.79604" lon="-0.52488">
        <ele>1632</ele>
        <time>2010-01-01T12:43:21Z</time>
      </trkpt>
      <trkpt lat="42.796" lon="-0.52483">
        <ele>1632</ele>
        <time>2010-01-01T12:43:23Z</time>
      </trkpt>
      <trkpt lat="42.79595" lon="-0.52482">
        <ele>1631</ele>
        <time>2010-01-01T12:43:26Z</time>
      </trkpt>
      <trkpt lat="42.79584" lon="-0.52483">
        <ele>1631</ele>
        <time>2010-01-01T12:43:30Z</time>
      </trkpt>
      <trkpt lat="42.79574" lon="-0.52486">
        <ele>1630</ele>
        <time>2010-01-01T12:43:34Z</time>
      </trkpt>
      <trkpt lat="42.79568" lon="-0.52493">
        <ele>1631</ele>
        <time>2010-01-01T12:43:37Z</time>
      </trkpt>
      <trkpt lat="42.79563" lon="-0.52504">
        <ele>1632</ele>
        <time>2010-01-01T12:43:41Z</time>
      </trkpt>
      <trkpt lat="42.7956" lon="-0.52515">
        <ele>1633</ele>
        <time>2010-01-01T12:43:45Z</time>
      </trkpt>
      <trkpt lat="42.79559" lon="-0.52529">
        <ele>1635</ele>
        <time>2010-01-01T12:43:49Z</time>
      </trkpt>
      <trkpt lat="42.79555" lon="-0.52536">
        <ele>1635</ele>
        <time>2010-01-01T12:43:51Z</time>
      </trkpt>
      <trkpt lat="42.79544" lon="-0.52538">
        <ele>1634</ele>
        <time>2010-01-01T12:43:56Z</time>
      </trkpt>
      <trkpt lat="42.79543" lon="-0.52546">
        <ele>1635</ele>
        <time>2010-01-01T12:43:58Z</time>
      </trkpt>
      <trkpt lat="42.79538" lon="-0.52549">
        <ele>1634</ele>
        <time>2010-01-01T12:44:00Z</time>
      </trkpt>
      <trkpt lat="42.79533" lon="-0.52549">
        <ele>1634</ele>
        <time>2010-01-01T12:44:02Z</time>
      </trkpt>
      <trkpt lat="42.79529" lon="-0.52553">
        <ele>1634</ele>
        <time>2010-01-01T12:44:04Z</time>
      </trkpt>
      <trkpt lat="42.79527" lon="-0.52558">
        <ele>1634</ele>
        <time>2010-01-01T12:44:06Z</time>
      </trkpt>
      <trkpt lat="42.79527" lon="-0.52565">
        <ele>1634</ele>
        <time>2010-01-01T12:44:08Z</time>
      </trkpt>
      <trkpt lat="42.79524" lon="-0.52572">
        <ele>1634</ele>
        <time>2010-01-01T12:44:10Z</time>
      </trkpt>
      <trkpt lat="42.79522" lon="-0.52586">
        <ele>1634</ele>
        <time>2010-01-01T12:44:14Z</time>
      </trkpt>
      <trkpt lat="42.79519" lon="-0.52592">
        <ele>1634</ele>
        <time>2010-01-01T12:44:16Z</time>
      </trkpt>
      <trkpt lat="42.79509" lon="-0.52598">
        <ele>1634</ele>
        <time>2010-01-01T12:44:21Z</time>
      </trkpt>
      <trkpt lat="42.79503" lon="-0.52596">
        <ele>1634</ele>
        <time>2010-01-01T12:44:23Z</time>
      </trkpt>
      <trkpt lat="42.79492" lon="-0.52596">
        <ele>1634</ele>
        <time>2010-01-01T12:44:27Z</time>
      </trkpt>
      <trkpt lat="42.79488" lon="-0.52599">
        <ele>1634</ele>
        <time>2010-01-01T12:44:29Z</time>
      </trkpt>
      <trkpt lat="42.79475" lon="-0.5262">
        <ele>1637</ele>
        <time>2010-01-01T12:44:38Z</time>
      </trkpt>
      <trkpt lat="42.79466" lon="-0.52631">
        <ele>1639</ele>
        <time>2010-01-01T12:44:42Z</time>
      </trkpt>
      <trkpt lat="42.79461" lon="-0.52635">
        <ele>1639</ele>
        <time>2010-01-01T12:44:45Z</time>
      </trkpt>
      <trkpt lat="42.79445" lon="-0.52642">
        <ele>1640</ele>
        <time>2010-01-01T12:44:51Z</time>
      </trkpt>
      <trkpt lat="42.79439" lon="-0.52642">
        <ele>1640</ele>
        <time>2010-01-01T12:44:54Z</time>
      </trkpt>
      <trkpt lat="42.79429" lon="-0.5264">
        <ele>1640</ele>
        <time>2010-01-01T12:44:58Z</time>
      </trkpt>
      <trkpt lat="42.7942" lon="-0.52644">
        <ele>1641</ele>
        <time>2010-01-01T12:45:02Z</time>
      </trkpt>
      <trkpt lat="42.79415" lon="-0.5265">
        <ele>1641</ele>
        <time>2010-01-01T12:45:04Z</time>
      </trkpt>
      <trkpt lat="42.79412" lon="-0.52664">
        <ele>1643</ele>
        <time>2010-01-01T12:45:09Z</time>
      </trkpt>
      <trkpt lat="42.79415" lon="-0.52711">
        <ele>1649</ele>
        <time>2010-01-01T12:45:23Z</time>
      </trkpt>
      <trkpt lat="42.79412" lon="-0.5274">
        <ele>1652</ele>
        <time>2010-01-01T12:45:31Z</time>
      </trkpt>
      <trkpt lat="42.79406" lon="-0.52753">
        <ele>1655</ele>
        <time>2010-01-01T12:45:35Z</time>
      </trkpt>
      <trkpt lat="42.79396" lon="-0.52765">
        <ele>1659</ele>
        <time>2010-01-01T12:45:41Z</time>
      </trkpt>
      <trkpt lat="42.79393" lon="-0.52781">
        <ele>1660</ele>
        <time>2010-01-01T12:45:46Z</time>
      </trkpt>
      <trkpt lat="42.79393" lon="-0.52794">
        <ele>1660</ele>
        <time>2010-01-01T12:45:50Z</time>
      </trkpt>
      <trkpt lat="42.79389" lon="-0.52797">
        <ele>1661</ele>
        <time>2010-01-01T12:45:51Z</time>
      </trkpt>
      <trkpt lat="42.79386" lon="-0.52802">
        <ele>1662</ele>
        <time>2010-01-01T12:45:53Z</time>
      </trkpt>
      <trkpt lat="42.79377" lon="-0.52804">
        <ele>1666</ele>
        <time>2010-01-01T12:45:57Z</time>
      </trkpt>
      <trkpt lat="42.79373" lon="-0.5281">
        <ele>1667</ele>
        <time>2010-01-01T12:46:00Z</time>
      </trkpt>
      <trkpt lat="42.79364" lon="-0.52816">
        <ele>1670</ele>
        <time>2010-01-01T12:46:04Z</time>
      </trkpt>
      <trkpt lat="42.79359" lon="-0.52821">
        <ele>1671</ele>
        <time>2010-01-01T12:46:06Z</time>
      </trkpt>
      <trkpt lat="42.79355" lon="-0.52835">
        <ele>1671</ele>
        <time>2010-01-01T12:46:10Z</time>
      </trkpt>
      <trkpt lat="42.79344" lon="-0.52853">
        <ele>1672</ele>
        <time>2010-01-01T12:46:17Z</time>
      </trkpt>
      <trkpt lat="42.79341" lon="-0.52859">
        <ele>1672</ele>
        <time>2010-01-01T12:46:19Z</time>
      </trkpt>
      <trkpt lat="42.79337" lon="-0.52894">
        <ele>1670</ele>
        <time>2010-01-01T12:46:30Z</time>
      </trkpt>
      <trkpt lat="42.79335" lon="-0.529">
        <ele>1670</ele>
        <time>2010-01-01T12:46:32Z</time>
      </trkpt>
      <trkpt lat="42.79331" lon="-0.52904">
        <ele>1670</ele>
        <time>2010-01-01T12:46:34Z</time>
      </trkpt>
      <trkpt lat="42.79321" lon="-0.52905">
        <ele>1672</ele>
        <time>2010-01-01T12:46:38Z</time>
      </trkpt>
      <trkpt lat="42.79309" lon="-0.52904">
        <ele>1674</ele>
        <time>2010-01-01T12:46:42Z</time>
      </trkpt>
      <trkpt lat="42.79292" lon="-0.52904">
        <ele>1676</ele>
        <time>2010-01-01T12:46:49Z</time>
      </trkpt>
      <trkpt lat="42.79281" lon="-0.52911">
        <ele>1677</ele>
        <time>2010-01-01T12:46:54Z</time>
      </trkpt>
      <trkpt lat="42.79256" lon="-0.52939">
        <ele>1678</ele>
        <time>2010-01-01T12:47:07Z</time>
      </trkpt>
      <trkpt lat="42.79251" lon="-0.52941">
        <ele>1678</ele>
        <time>2010-01-01T12:47:09Z</time>
      </trkpt>
      <trkpt lat="42.7924" lon="-0.52943">
        <ele>1680</ele>
        <time>2010-01-01T12:47:14Z</time>
      </trkpt>
      <trkpt lat="42.79229" lon="-0.52941">
        <ele>1681</ele>
        <time>2010-01-01T12:47:18Z</time>
      </trkpt>
      <trkpt lat="42.79223" lon="-0.52942">
        <ele>1682</ele>
        <time>2010-01-01T12:47:20Z</time>
      </trkpt>
      <trkpt lat="42.79213" lon="-0.52943">
        <ele>1683</ele>
        <time>2010-01-01T12:47:25Z</time>
      </trkpt>
      <trkpt lat="42.79203" lon="-0.52946">
        <ele>1685</ele>
        <time>2010-01-01T12:47:29Z</time>
      </trkpt>
      <trkpt lat="42.79191" lon="-0.52957">
        <ele>1687</ele>
        <time>2010-01-01T12:47:34Z</time>
      </trkpt>
      <trkpt lat="42.79166" lon="-0.52966">
        <ele>1689</ele>
        <time>2010-01-01T12:47:45Z</time>
      </trkpt>
      <trkpt lat="42.79161" lon="-0.52971">
        <ele>1689</ele>
        <time>2010-01-01T12:47:47Z</time>
      </trkpt>
      <trkpt lat="42.79159" lon="-0.52977">
        <ele>1689</ele>
        <time>2010-01-01T12:47:49Z</time>
      </trkpt>
      <trkpt lat="42.79148" lon="-0.53035">
        <ele>1690</ele>
        <time>2010-01-01T12:48:07Z</time>
      </trkpt>
      <trkpt lat="42.79144" lon="-0.53081">
        <ele>1691</ele>
        <time>2010-01-01T12:48:20Z</time>
      </trkpt>
      <trkpt lat="42.79139" lon="-0.53102">
        <ele>1690</ele>
        <time>2010-01-01T12:48:27Z</time>
      </trkpt>
      <trkpt lat="42.79136" lon="-0.53124">
        <ele>1690</ele>
        <time>2010-01-01T12:48:33Z</time>
      </trkpt>
      <trkpt lat="42.7913" lon="-0.53145">
        <ele>1688</ele>
        <time>2010-01-01T12:48:40Z</time>
      </trkpt>
      <trkpt lat="42.79127" lon="-0.5316">
        <ele>1687</ele>
        <time>2010-01-01T12:48:45Z</time>
      </trkpt>
      <trkpt lat="42.79126" lon="-0.53168">
        <ele>1686</ele>
        <time>2010-01-01T12:48:47Z</time>
      </trkpt>
      <trkpt lat="42.79128" lon="-0.53175">
        <ele>1687</ele>
        <time>2010-01-01T12:48:49Z</time>
      </trkpt>
      <trkpt lat="42.79137" lon="-0.53194">
        <ele>1689</ele>
        <time>2010-01-01T12:48:56Z</time>
      </trkpt>
      <trkpt lat="42.79137" lon="-0.53203">
        <ele>1688</ele>
        <time>2010-01-01T12:48:58Z</time>
      </trkpt>
      <trkpt lat="42.79124" lon="-0.53239">
        <ele>1680</ele>
        <time>2010-01-01T12:49:10Z</time>
      </trkpt>
      <trkpt lat="42.7912" lon="-0.53244">
        <ele>1677</ele>
        <time>2010-01-01T12:49:12Z</time>
      </trkpt>
      <trkpt lat="42.79115" lon="-0.53257">
        <ele>1674</ele>
        <time>2010-01-01T12:49:17Z</time>
      </trkpt>
      <trkpt lat="42.79111" lon="-0.53262">
        <ele>1672</ele>
        <time>2010-01-01T12:49:19Z</time>
      </trkpt>
      <trkpt lat="42.79107" lon="-0.53298">
        <ele>1669</ele>
        <time>2010-01-01T12:49:30Z</time>
      </trkpt>
      <trkpt lat="42.79097" lon="-0.53347">
        <ele>1662</ele>
        <time>2010-01-01T12:49:44Z</time>
      </trkpt>
      <trkpt lat="42.79095" lon="-0.53385">
        <ele>1661</ele>
        <time>2010-01-01T12:49:56Z</time>
      </trkpt>
      <trkpt lat="42.79079" lon="-0.53447">
        <ele>1655</ele>
        <time>2010-01-01T12:50:15Z</time>
      </trkpt>
      <trkpt lat="42.79079" lon="-0.53465">
        <ele>1654</ele>
        <time>2010-01-01T12:50:20Z</time>
      </trkpt>
      <trkpt lat="42.79076" lon="-0.53487">
        <ele>1651</ele>
        <time>2010-01-01T12:50:27Z</time>
      </trkpt>
      <trkpt lat="42.79078" lon="-0.5352">
        <ele>1650</ele>
        <time>2010-01-01T12:50:37Z</time>
      </trkpt>
      <trkpt lat="42.79083" lon="-0.53569">
        <ele>1649</ele>
        <time>2010-01-01T12:50:51Z</time>
      </trkpt>
      <trkpt lat="42.79083" lon="-0.53593">
        <ele>1649</ele>
        <time>2010-01-01T12:50:58Z</time>
      </trkpt>
      <trkpt lat="42.79078" lon="-0.53607">
        <ele>1647</ele>
        <time>2010-01-01T12:51:03Z</time>
      </trkpt>
      <trkpt lat="42.79064" lon="-0.53635">
        <ele>1642</ele>
        <time>2010-01-01T12:51:13Z</time>
      </trkpt>
      <trkpt lat="42.79047" lon="-0.53641">
        <ele>1636</ele>
        <time>2010-01-01T12:51:20Z</time>
      </trkpt>
      <trkpt lat="42.79029" lon="-0.53639">
        <ele>1631</ele>
        <time>2010-01-01T12:51:27Z</time>
      </trkpt>
      <trkpt lat="42.79026" lon="-0.53625">
        <ele>1631</ele>
        <time>2010-01-01T12:51:31Z</time>
      </trkpt>
      <trkpt lat="42.79016" lon="-0.53604">
        <ele>1631</ele>
        <time>2010-01-01T12:51:39Z</time>
      </trkpt>
      <trkpt lat="42.79013" lon="-0.53597">
        <ele>1630</ele>
        <time>2010-01-01T12:51:41Z</time>
      </trkpt>
      <trkpt lat="42.79011" lon="-0.5358">
        <ele>1629</ele>
        <time>2010-01-01T12:51:46Z</time>
      </trkpt>
      <trkpt lat="42.79005" lon="-0.53558">
        <ele>1628</ele>
        <time>2010-01-01T12:51:53Z</time>
      </trkpt>
      <trkpt lat="42.79002" lon="-0.53538">
        <ele>1628</ele>
        <time>2010-01-01T12:51:59Z</time>
      </trkpt>
      <trkpt lat="42.78986" lon="-0.53484">
        <ele>1624</ele>
        <time>2010-01-01T12:52:16Z</time>
      </trkpt>
      <trkpt lat="42.78977" lon="-0.53442">
        <ele>1623</ele>
        <time>2010-01-01T12:52:29Z</time>
      </trkpt>
      <trkpt lat="42.78967" lon="-0.5342">
        <ele>1620</ele>
        <time>2010-01-01T12:52:37Z</time>
      </trkpt>
      <trkpt lat="42.78961" lon="-0.53398">
        <ele>1618</ele>
        <time>2010-01-01T12:52:44Z</time>
      </trkpt>
      <trkpt lat="42.78956" lon="-0.53394">
        <ele>1617</ele>
        <time>2010-01-01T12:52:46Z</time>
      </trkpt>
      <trkpt lat="42.78951" lon="-0.53392">
        <ele>1615</ele>
        <time>2010-01-01T12:52:48Z</time>
      </trkpt>
      <trkpt lat="42.78934" lon="-0.53392">
        <ele>1610</ele>
        <time>2010-01-01T12:52:55Z</time>
      </trkpt>
      <trkpt lat="42.78923" lon="-0.53397">
        <ele>1607</ele>
        <time>2010-01-01T12:52:59Z</time>
      </trkpt>
      <trkpt lat="42.78908" lon="-0.53408">
        <ele>1604</ele>
        <time>2010-01-01T12:53:06Z</time>
      </trkpt>
      <trkpt lat="42.78888" lon="-0.53415">
        <ele>1600</ele>
        <time>2010-01-01T12:53:14Z</time>
      </trkpt>
      <trkpt lat="42.78864" lon="-0.53417">
        <ele>1592</ele>
        <time>2010-01-01T12:53:24Z</time>
      </trkpt>
      <trkpt lat="42.78857" lon="-0.53428">
        <ele>1591</ele>
        <time>2010-01-01T12:53:28Z</time>
      </trkpt>
      <trkpt lat="42.78846" lon="-0.53456">
        <ele>1590</ele>
        <time>2010-01-01T12:53:38Z</time>
      </trkpt>
      <trkpt lat="42.78839" lon="-0.53496">
        <ele>1593</ele>
        <time>2010-01-01T12:53:50Z</time>
      </trkpt>
      <trkpt lat="42.78819" lon="-0.53535">
        <ele>1593</ele>
        <time>2010-01-01T12:54:04Z</time>
      </trkpt>
      <trkpt lat="42.78811" lon="-0.53547">
        <ele>1591</ele>
        <time>2010-01-01T12:54:09Z</time>
      </trkpt>
      <trkpt lat="42.78806" lon="-0.53551">
        <ele>1590</ele>
        <time>2010-01-01T12:54:11Z</time>
      </trkpt>
      <trkpt lat="42.78801" lon="-0.53553">
        <ele>1589</ele>
        <time>2010-01-01T12:54:13Z</time>
      </trkpt>
      <trkpt lat="42.78796" lon="-0.53551">
        <ele>1588</ele>
        <time>2010-01-01T12:54:15Z</time>
      </trkpt>
      <trkpt lat="42.78795" lon="-0.53544">
        <ele>1587</ele>
        <time>2010-01-01T12:54:17Z</time>
      </trkpt>
      <trkpt lat="42.78795" lon="-0.53536">
        <ele>1586</ele>
        <time>2010-01-01T12:54:19Z</time>
      </trkpt>
      <trkpt lat="42.78803" lon="-0.53497">
        <ele>1585</ele>
        <time>2010-01-01T12:54:31Z</time>
      </trkpt>
      <trkpt lat="42.78804" lon="-0.53489">
        <ele>1584</ele>
        <time>2010-01-01T12:54:34Z</time>
      </trkpt>
      <trkpt lat="42.78801" lon="-0.53475">
        <ele>1582</ele>
        <time>2010-01-01T12:54:38Z</time>
      </trkpt>
      <trkpt lat="42.78801" lon="-0.5346">
        <ele>1580</ele>
        <time>2010-01-01T12:54:42Z</time>
      </trkpt>
      <trkpt lat="42.78797" lon="-0.53455">
        <ele>1579</ele>
        <time>2010-01-01T12:54:44Z</time>
      </trkpt>
      <trkpt lat="42.78791" lon="-0.53454">
        <ele>1578</ele>
        <time>2010-01-01T12:54:47Z</time>
      </trkpt>
      <trkpt lat="42.78773" lon="-0.53455">
        <ele>1575</ele>
        <time>2010-01-01T12:54:54Z</time>
      </trkpt>
      <trkpt lat="42.7876" lon="-0.53466">
        <ele>1575</ele>
        <time>2010-01-01T12:55:00Z</time>
      </trkpt>
      <trkpt lat="42.78757" lon="-0.53472">
        <ele>1575</ele>
        <time>2010-01-01T12:55:02Z</time>
      </trkpt>
      <trkpt lat="42.78746" lon="-0.53535">
        <ele>1577</ele>
        <time>2010-01-01T12:55:22Z</time>
      </trkpt>
      <trkpt lat="42.78745" lon="-0.53575">
        <ele>1579</ele>
        <time>2010-01-01T12:55:33Z</time>
      </trkpt>
      <trkpt lat="42.7873" lon="-0.53672">
        <ele>1579</ele>
        <time>2010-01-01T12:56:02Z</time>
      </trkpt>
      <trkpt lat="42.78726" lon="-0.53688">
        <ele>1580</ele>
        <time>2010-01-01T12:56:07Z</time>
      </trkpt>
      <trkpt lat="42.78721" lon="-0.53703">
        <ele>1580</ele>
        <time>2010-01-01T12:56:12Z</time>
      </trkpt>
      <trkpt lat="42.78696" lon="-0.53752">
        <ele>1583</ele>
        <time>2010-01-01T12:56:30Z</time>
      </trkpt>
      <trkpt lat="42.78692" lon="-0.53766">
        <ele>1585</ele>
        <time>2010-01-01T12:56:34Z</time>
      </trkpt>
      <trkpt lat="42.78687" lon="-0.53806">
        <ele>1590</ele>
        <time>2010-01-01T12:56:46Z</time>
      </trkpt>
      <trkpt lat="42.78666" lon="-0.53871">
        <ele>1593</ele>
        <time>2010-01-01T12:57:07Z</time>
      </trkpt>
      <trkpt lat="42.78644" lon="-0.53905">
        <ele>1593</ele>
        <time>2010-01-01T12:57:20Z</time>
      </trkpt>
      <trkpt lat="42.78635" lon="-0.53926">
        <ele>1593</ele>
        <time>2010-01-01T12:57:27Z</time>
      </trkpt>
      <trkpt lat="42.7863" lon="-0.53945">
        <ele>1593</ele>
        <time>2010-01-01T12:57:33Z</time>
      </trkpt>
      <trkpt lat="42.78621" lon="-0.54081">
        <ele>1604</ele>
        <time>2010-01-01T12:58:14Z</time>
      </trkpt>
      <trkpt lat="42.78612" lon="-0.54112">
        <ele>1606</ele>
        <time>2010-01-01T12:58:23Z</time>
      </trkpt>
      <trkpt lat="42.78593" lon="-0.54191">
        <ele>1611</ele>
        <time>2010-01-01T12:58:48Z</time>
      </trkpt>
      <trkpt lat="42.78575" lon="-0.54275">
        <ele>1614</ele>
        <time>2010-01-01T12:59:13Z</time>
      </trkpt>
      <trkpt lat="42.7856" lon="-0.54329">
        <ele>1615</ele>
        <time>2010-01-01T12:59:30Z</time>
      </trkpt>
      <trkpt lat="42.78548" lon="-0.54355">
        <ele>1614</ele>
        <time>2010-01-01T12:59:39Z</time>
      </trkpt>
      <trkpt lat="42.7853" lon="-0.54389">
        <ele>1612</ele>
        <time>2010-01-01T12:59:52Z</time>
      </trkpt>
      <trkpt lat="42.78497" lon="-0.54484">
        <ele>1623</ele>
        <time>2010-01-01T13:00:23Z</time>
      </trkpt>
      <trkpt lat="42.78495" lon="-0.54525">
        <ele>1623</ele>
        <time>2010-01-01T13:00:35Z</time>
      </trkpt>
      <trkpt lat="42.78495" lon="-0.54552">
        <ele>1623</ele>
        <time>2010-01-01T13:00:43Z</time>
      </trkpt>
      <trkpt lat="42.7849" lon="-0.5458">
        <ele>1623</ele>
        <time>2010-01-01T13:00:51Z</time>
      </trkpt>
      <trkpt lat="42.78478" lon="-0.54625">
        <ele>1623</ele>
        <time>2010-01-01T13:01:05Z</time>
      </trkpt>
      <trkpt lat="42.78469" lon="-0.54651">
        <ele>1621</ele>
        <time>2010-01-01T13:01:13Z</time>
      </trkpt>
      <trkpt lat="42.78459" lon="-0.54688">
        <ele>1620</ele>
        <time>2010-01-01T13:01:25Z</time>
      </trkpt>
      <trkpt lat="42.78445" lon="-0.54725">
        <ele>1626</ele>
        <time>2010-01-01T13:01:37Z</time>
      </trkpt>
      <trkpt lat="42.78436" lon="-0.54753">
        <ele>1630</ele>
        <time>2010-01-01T13:01:46Z</time>
      </trkpt>
      <trkpt lat="42.78435" lon="-0.54777">
        <ele>1632</ele>
        <time>2010-01-01T13:01:53Z</time>
      </trkpt>
      <trkpt lat="42.78438" lon="-0.5479">
        <ele>1633</ele>
        <time>2010-01-01T13:01:57Z</time>
      </trkpt>
      <trkpt lat="42.78439" lon="-0.54805">
        <ele>1635</ele>
        <time>2010-01-01T13:02:02Z</time>
      </trkpt>
      <trkpt lat="42.78439" lon="-0.54813">
        <ele>1637</ele>
        <time>2010-01-01T13:02:04Z</time>
      </trkpt>
      <trkpt lat="42.78438" lon="-0.5482">
        <ele>1638</ele>
        <time>2010-01-01T13:02:06Z</time>
      </trkpt>
      <trkpt lat="42.78434" lon="-0.54827">
        <ele>1640</ele>
        <time>2010-01-01T13:02:09Z</time>
      </trkpt>
      <trkpt lat="42.78426" lon="-0.54837">
        <ele>1643</ele>
        <time>2010-01-01T13:02:13Z</time>
      </trkpt>
      <trkpt lat="42.7842" lon="-0.54842">
        <ele>1644</ele>
        <time>2010-01-01T13:02:16Z</time>
      </trkpt>
      <trkpt lat="42.78415" lon="-0.54842">
        <ele>1645</ele>
        <time>2010-01-01T13:02:18Z</time>
      </trkpt>
      <trkpt lat="42.78407" lon="-0.54866">
        <ele>1649</ele>
        <time>2010-01-01T13:02:26Z</time>
      </trkpt>
      <trkpt lat="42.78408" lon="-0.5489">
        <ele>1651</ele>
        <time>2010-01-01T13:02:33Z</time>
      </trkpt>
      <trkpt lat="42.78412" lon="-0.54897">
        <ele>1651</ele>
        <time>2010-01-01T13:02:35Z</time>
      </trkpt>
      <trkpt lat="42.78411" lon="-0.54908">
        <ele>1653</ele>
        <time>2010-01-01T13:02:39Z</time>
      </trkpt>
      <trkpt lat="42.78407" lon="-0.54932">
        <ele>1656</ele>
        <time>2010-01-01T13:02:46Z</time>
      </trkpt>
      <trkpt lat="42.78412" lon="-0.54957">
        <ele>1656</ele>
        <time>2010-01-01T13:02:53Z</time>
      </trkpt>
      <trkpt lat="42.78402" lon="-0.54983">
        <ele>1659</ele>
        <time>2010-01-01T13:03:02Z</time>
      </trkpt>
      <trkpt lat="42.7839" lon="-0.54985">
        <ele>1662</ele>
        <time>2010-01-01T13:03:07Z</time>
      </trkpt>
      <trkpt lat="42.78377" lon="-0.54992">
        <ele>1667</ele>
        <time>2010-01-01T13:03:13Z</time>
      </trkpt>
      <trkpt lat="42.7837" lon="-0.54992">
        <ele>1670</ele>
        <time>2010-01-01T13:03:15Z</time>
      </trkpt>
      <trkpt lat="42.78366" lon="-0.54995">
        <ele>1672</ele>
        <time>2010-01-01T13:03:17Z</time>
      </trkpt>
      <trkpt lat="42.78358" lon="-0.54999">
        <ele>1674</ele>
        <time>2010-01-01T13:03:21Z</time>
      </trkpt>
      <trkpt lat="42.78338" lon="-0.55005">
        <ele>1676</ele>
        <time>2010-01-01T13:03:29Z</time>
      </trkpt>
      <trkpt lat="42.78331" lon="-0.5501">
        <ele>1676</ele>
        <time>2010-01-01T13:03:32Z</time>
      </trkpt>
      <trkpt lat="42.78316" lon="-0.5501">
        <ele>1679</ele>
        <time>2010-01-01T13:03:38Z</time>
      </trkpt>
      <trkpt lat="42.78308" lon="-0.55016">
        <ele>1680</ele>
        <time>2010-01-01T13:03:42Z</time>
      </trkpt>
      <trkpt lat="42.783" lon="-0.55027">
        <ele>1679</ele>
        <time>2010-01-01T13:03:46Z</time>
      </trkpt>
      <trkpt lat="42.78272" lon="-0.55038">
        <ele>1681</ele>
        <time>2010-01-01T13:03:58Z</time>
      </trkpt>
      <trkpt lat="42.78261" lon="-0.55045">
        <ele>1683</ele>
        <time>2010-01-01T13:04:03Z</time>
      </trkpt>
      <trkpt lat="42.78237" lon="-0.55056">
        <ele>1689</ele>
        <time>2010-01-01T13:04:13Z</time>
      </trkpt>
      <trkpt lat="42.78234" lon="-0.55064">
        <ele>1689</ele>
        <time>2010-01-01T13:04:16Z</time>
      </trkpt>
      <trkpt lat="42.78235" lon="-0.5508">
        <ele>1687</ele>
        <time>2010-01-01T13:04:21Z</time>
      </trkpt>
      <trkpt lat="42.78217" lon="-0.55098">
        <ele>1690</ele>
        <time>2010-01-01T13:04:30Z</time>
      </trkpt>
      <trkpt lat="42.78199" lon="-0.55109">
        <ele>1692</ele>
        <time>2010-01-01T13:04:37Z</time>
      </trkpt>
      <trkpt lat="42.78186" lon="-0.55125">
        <ele>1693</ele>
        <time>2010-01-01T13:04:44Z</time>
      </trkpt>
      <trkpt lat="42.78173" lon="-0.55148">
        <ele>1695</ele>
        <time>2010-01-01T13:04:53Z</time>
      </trkpt>
      <trkpt lat="42.78173" lon="-0.55155">
        <ele>1695</ele>
        <time>2010-01-01T13:04:55Z</time>
      </trkpt>
      <trkpt lat="42.78175" lon="-0.55176">
        <ele>1694</ele>
        <time>2010-01-01T13:05:01Z</time>
      </trkpt>
      <trkpt lat="42.78174" lon="-0.552">
        <ele>1699</ele>
        <time>2010-01-01T13:05:08Z</time>
      </trkpt>
      <trkpt lat="42.78165" lon="-0.5522">
        <ele>1707</ele>
        <time>2010-01-01T13:05:15Z</time>
      </trkpt>
      <trkpt lat="42.78156" lon="-0.55231">
        <ele>1710</ele>
        <time>2010-01-01T13:05:20Z</time>
      </trkpt>
      <trkpt lat="42.78149" lon="-0.55246">
        <ele>1712</ele>
        <time>2010-01-01T13:05:25Z</time>
      </trkpt>
      <trkpt lat="42.78133" lon="-0.55267">
        <ele>1717</ele>
        <time>2010-01-01T13:05:34Z</time>
      </trkpt>
      <trkpt lat="42.78121" lon="-0.55278">
        <ele>1722</ele>
        <time>2010-01-01T13:05:40Z</time>
      </trkpt>
      <trkpt lat="42.78115" lon="-0.55287">
        <ele>1724</ele>
        <time>2010-01-01T13:05:44Z</time>
      </trkpt>
      <trkpt lat="42.78113" lon="-0.55304">
        <ele>1725</ele>
        <time>2010-01-01T13:05:49Z</time>
      </trkpt>
      <trkpt lat="42.78106" lon="-0.55332">
        <ele>1729</ele>
        <time>2010-01-01T13:05:57Z</time>
      </trkpt>
      <trkpt lat="42.78106" lon="-0.55346">
        <ele>1729</ele>
        <time>2010-01-01T13:06:01Z</time>
      </trkpt>
      <trkpt lat="42.78103" lon="-0.55352">
        <ele>1731</ele>
        <time>2010-01-01T13:06:04Z</time>
      </trkpt>
      <trkpt lat="42.78101" lon="-0.55366">
        <ele>1733</ele>
        <time>2010-01-01T13:06:08Z</time>
      </trkpt>
      <trkpt lat="42.78099" lon="-0.55427">
        <ele>1751</ele>
        <time>2010-01-01T13:06:26Z</time>
      </trkpt>
      <trkpt lat="42.78101" lon="-0.55456">
        <ele>1764</ele>
        <time>2010-01-01T13:06:34Z</time>
      </trkpt>
      <trkpt lat="42.78105" lon="-0.55467">
        <ele>1766</ele>
        <time>2010-01-01T13:06:38Z</time>
      </trkpt>
      <trkpt lat="42.78105" lon="-0.55481">
        <ele>1772</ele>
        <time>2010-01-01T13:06:42Z</time>
      </trkpt>
      <trkpt lat="42.78101" lon="-0.55499">
        <ele>1784</ele>
        <time>2010-01-01T13:06:47Z</time>
      </trkpt>
      <trkpt lat="42.78102" lon="-0.55508">
        <ele>1788</ele>
        <time>2010-01-01T13:06:50Z</time>
      </trkpt>
      <trkpt lat="42.7811" lon="-0.55523">
        <ele>1785</ele>
        <time>2010-01-01T13:06:56Z</time>
      </trkpt>
      <trkpt lat="42.78111" lon="-0.55551">
        <ele>1797</ele>
        <time>2010-01-01T13:07:04Z</time>
      </trkpt>
      <trkpt lat="42.78119" lon="-0.55559">
        <ele>1795</ele>
        <time>2010-01-01T13:07:08Z</time>
      </trkpt>
      <trkpt lat="42.78125" lon="-0.55563">
        <ele>1793</ele>
        <time>2010-01-01T13:07:10Z</time>
      </trkpt>
      <trkpt lat="42.7813" lon="-0.55573">
        <ele>1796</ele>
        <time>2010-01-01T13:07:14Z</time>
      </trkpt>
      <trkpt lat="42.78142" lon="-0.55584">
        <ele>1795</ele>
        <time>2010-01-01T13:07:19Z</time>
      </trkpt>
      <trkpt lat="42.78146" lon="-0.5559">
        <ele>1797</ele>
        <time>2010-01-01T13:07:22Z</time>
      </trkpt>
      <trkpt lat="42.78155" lon="-0.556">
        <ele>1798</ele>
        <time>2010-01-01T13:07:27Z</time>
      </trkpt>
      <trkpt lat="42.78161" lon="-0.55611">
        <ele>1800</ele>
        <time>2010-01-01T13:07:30Z</time>
      </trkpt>
      <trkpt lat="42.78176" lon="-0.55614">
        <ele>1795</ele>
        <time>2010-01-01T13:07:37Z</time>
      </trkpt>
      <trkpt lat="42.78182" lon="-0.55626">
        <ele>1798</ele>
        <time>2010-01-01T13:07:41Z</time>
      </trkpt>
      <trkpt lat="42.78192" lon="-0.55629">
        <ele>1797</ele>
        <time>2010-01-01T13:07:45Z</time>
      </trkpt>
      <trkpt lat="42.78208" lon="-0.55651">
        <ele>1811</ele>
        <time>2010-01-01T13:07:54Z</time>
      </trkpt>
      <trkpt lat="42.78217" lon="-0.55654">
        <ele>1814</ele>
        <time>2010-01-01T13:07:58Z</time>
      </trkpt>
      <trkpt lat="42.78229" lon="-0.55663">
        <ele>1817</ele>
        <time>2010-01-01T13:08:03Z</time>
      </trkpt>
      <trkpt lat="42.78236" lon="-0.5567">
        <ele>1819</ele>
        <time>2010-01-01T13:08:07Z</time>
      </trkpt>
      <trkpt lat="42.78234" lon="-0.55679">
        <ele>1825</ele>
        <time>2010-01-01T13:08:09Z</time>
      </trkpt>
      <trkpt lat="42.78219" lon="-0.55682">
        <ele>1828</ele>
        <time>2010-01-01T13:08:16Z</time>
      </trkpt>
      <trkpt lat="42.78211" lon="-0.55689">
        <ele>1829</ele>
        <time>2010-01-01T13:08:19Z</time>
      </trkpt>
      <trkpt lat="42.78206" lon="-0.55689">
        <ele>1829</ele>
        <time>2010-01-01T13:08:21Z</time>
      </trkpt>
      <trkpt lat="42.78188" lon="-0.5568">
        <ele>1824</ele>
        <time>2010-01-01T13:08:29Z</time>
      </trkpt>
      <trkpt lat="42.78178" lon="-0.55685">
        <ele>1826</ele>
        <time>2010-01-01T13:08:33Z</time>
      </trkpt>
      <trkpt lat="42.78169" lon="-0.55685">
        <ele>1825</ele>
        <time>2010-01-01T13:08:37Z</time>
      </trkpt>
      <trkpt lat="42.78156" lon="-0.55693">
        <ele>1831</ele>
        <time>2010-01-01T13:08:42Z</time>
      </trkpt>
      <trkpt lat="42.78148" lon="-0.55713">
        <ele>1841</ele>
        <time>2010-01-01T13:08:49Z</time>
      </trkpt>
      <trkpt lat="42.78149" lon="-0.55733">
        <ele>1846</ele>
        <time>2010-01-01T13:08:55Z</time>
      </trkpt>
      <trkpt lat="42.78156" lon="-0.55748">
        <ele>1847</ele>
        <time>2010-01-01T13:09:01Z</time>
      </trkpt>
      <trkpt lat="42.78159" lon="-0.55767">
        <ele>1850</ele>
        <time>2010-01-01T13:09:06Z</time>
      </trkpt>
      <trkpt lat="42.78166" lon="-0.55799">
        <ele>1856</ele>
        <time>2010-01-01T13:09:16Z</time>
      </trkpt>
      <trkpt lat="42.78167" lon="-0.55809">
        <ele>1856</ele>
        <time>2010-01-01T13:09:19Z</time>
      </trkpt>
      <trkpt lat="42.78154" lon="-0.55839">
        <ele>1853</ele>
        <time>2010-01-01T13:09:29Z</time>
      </trkpt>
      <trkpt lat="42.78153" lon="-0.55848">
        <ele>1853</ele>
        <time>2010-01-01T13:09:32Z</time>
      </trkpt>
      <trkpt lat="42.78159" lon="-0.55879">
        <ele>1852</ele>
        <time>2010-01-01T13:09:41Z</time>
      </trkpt>
      <trkpt lat="42.7816" lon="-0.55914">
        <ele>1851</ele>
        <time>2010-01-01T13:09:52Z</time>
      </trkpt>
      <trkpt lat="42.78157" lon="-0.55923">
        <ele>1851</ele>
        <time>2010-01-01T13:09:54Z</time>
      </trkpt>
      <trkpt lat="42.78149" lon="-0.55925">
        <ele>1852</ele>
        <time>2010-01-01T13:09:58Z</time>
      </trkpt>
      <trkpt lat="42.78142" lon="-0.55917">
        <ele>1851</ele>
        <time>2010-01-01T13:10:01Z</time>
      </trkpt>
      <trkpt lat="42.78138" lon="-0.55909">
        <ele>1852</ele>
        <time>2010-01-01T13:10:04Z</time>
      </trkpt>
      <trkpt lat="42.78118" lon="-0.55888">
        <ele>1852</ele>
        <time>2010-01-01T13:10:14Z</time>
      </trkpt>
      <trkpt lat="42.78109" lon="-0.55882">
        <ele>1854</ele>
        <time>2010-01-01T13:10:18Z</time>
      </trkpt>
      <trkpt lat="42.7808" lon="-0.55843">
        <ele>1864</ele>
        <time>2010-01-01T13:10:35Z</time>
      </trkpt>
      <trkpt lat="42.78075" lon="-0.55833">
        <ele>1868</ele>
        <time>2010-01-01T13:10:38Z</time>
      </trkpt>
      <trkpt lat="42.78058" lon="-0.55811">
        <ele>1878</ele>
        <time>2010-01-01T13:10:48Z</time>
      </trkpt>
      <trkpt lat="42.7805" lon="-0.55796">
        <ele>1877</ele>
        <time>2010-01-01T13:10:53Z</time>
      </trkpt>
      <trkpt lat="42.78045" lon="-0.55797">
        <ele>1881</ele>
        <time>2010-01-01T13:10:55Z</time>
      </trkpt>
      <trkpt lat="42.78038" lon="-0.55793">
        <ele>1885</ele>
        <time>2010-01-01T13:10:58Z</time>
      </trkpt>
      <trkpt lat="42.78031" lon="-0.55796">
        <ele>1891</ele>
        <time>2010-01-01T13:11:01Z</time>
      </trkpt>
      <trkpt lat="42.78031" lon="-0.55802">
        <ele>1895</ele>
        <time>2010-01-01T13:11:03Z</time>
      </trkpt>
      <trkpt lat="42.78025" lon="-0.55806">
        <ele>1901</ele>
        <time>2010-01-01T13:11:05Z</time>
      </trkpt>
      <trkpt lat="42.78022" lon="-0.55817">
        <ele>1905</ele>
        <time>2010-01-01T13:11:09Z</time>
      </trkpt>
      <trkpt lat="42.78014" lon="-0.55814">
        <ele>1907</ele>
        <time>2010-01-01T13:11:12Z</time>
      </trkpt>
      <trkpt lat="42.78011" lon="-0.5582">
        <ele>1910</ele>
        <time>2010-01-01T13:11:14Z</time>
      </trkpt>
      <trkpt lat="42.7801" lon="-0.55851">
        <ele>1917</ele>
        <time>2010-01-01T13:11:23Z</time>
      </trkpt>
      <trkpt lat="42.78006" lon="-0.55856">
        <ele>1919</ele>
        <time>2010-01-01T13:11:25Z</time>
      </trkpt>
      <trkpt lat="42.78" lon="-0.55882">
        <ele>1925</ele>
        <time>2010-01-01T13:11:33Z</time>
      </trkpt>
      <trkpt lat="42.77999" lon="-0.55889">
        <ele>1927</ele>
        <time>2010-01-01T13:11:35Z</time>
      </trkpt>
      <trkpt lat="42.78" lon="-0.55893">
        <ele>1927</ele>
        <time>2010-01-01T13:11:37Z</time>
      </trkpt>
      <trkpt lat="42.77997" lon="-0.55903">
        <ele>1930</ele>
        <time>2010-01-01T13:11:40Z</time>
      </trkpt>
      <trkpt lat="42.77997" lon="-0.55912">
        <ele>1932</ele>
        <time>2010-01-01T13:11:43Z</time>
      </trkpt>
      <trkpt lat="42.78013" lon="-0.55957">
        <ele>1935</ele>
        <time>2010-01-01T13:11:57Z</time>
      </trkpt>
      <trkpt lat="42.78014" lon="-0.55963">
        <ele>1936</ele>
        <time>2010-01-01T13:11:59Z</time>
      </trkpt>
      <trkpt lat="42.78013" lon="-0.5598">
        <ele>1940</ele>
        <time>2010-01-01T13:12:04Z</time>
      </trkpt>
      <trkpt lat="42.78021" lon="-0.55997">
        <ele>1940</ele>
        <time>2010-01-01T13:12:10Z</time>
      </trkpt>
      <trkpt lat="42.78023" lon="-0.56006">
        <ele>1942</ele>
        <time>2010-01-01T13:12:13Z</time>
      </trkpt>
      <trkpt lat="42.78022" lon="-0.56046">
        <ele>1953</ele>
        <time>2010-01-01T13:12:25Z</time>
      </trkpt>
      <trkpt lat="42.78024" lon="-0.56071">
        <ele>1957</ele>
        <time>2010-01-01T13:12:32Z</time>
      </trkpt>
      <trkpt lat="42.78021" lon="-0.56086">
        <ele>1960</ele>
        <time>2010-01-01T13:12:37Z</time>
      </trkpt>
      <trkpt lat="42.78014" lon="-0.561">
        <ele>1966</ele>
        <time>2010-01-01T13:12:41Z</time>
      </trkpt>
      <trkpt lat="42.7801" lon="-0.56122">
        <ele>1970</ele>
        <time>2010-01-01T13:12:48Z</time>
      </trkpt>
      <trkpt lat="42.7799" lon="-0.56167">
        <ele>1981</ele>
        <time>2010-01-01T13:13:04Z</time>
      </trkpt>
      <trkpt lat="42.77986" lon="-0.56173">
        <ele>1983</ele>
        <time>2010-01-01T13:13:06Z</time>
      </trkpt>
      <trkpt lat="42.7798" lon="-0.56171">
        <ele>1986</ele>
        <time>2010-01-01T13:13:08Z</time>
      </trkpt>
      <trkpt lat="42.77953" lon="-0.562">
        <ele>1995</ele>
        <time>2010-01-01T13:13:22Z</time>
      </trkpt>
      <trkpt lat="42.77949" lon="-0.56209">
        <ele>1996</ele>
        <time>2010-01-01T13:13:25Z</time>
      </trkpt>
      <trkpt lat="42.77942" lon="-0.56217">
        <ele>1999</ele>
        <time>2010-01-01T13:13:29Z</time>
      </trkpt>
      <trkpt lat="42.77934" lon="-0.5623">
        <ele>2001</ele>
        <time>2010-01-01T13:13:34Z</time>
      </trkpt>
      <trkpt lat="42.77924" lon="-0.56253">
        <ele>2004</ele>
        <time>2010-01-01T13:13:42Z</time>
      </trkpt>
      <trkpt lat="42.77917" lon="-0.56264">
        <ele>2009</ele>
        <time>2010-01-01T13:13:46Z</time>
      </trkpt>
      <trkpt lat="42.77911" lon="-0.56276">
        <ele>2015</ele>
        <time>2010-01-01T13:13:50Z</time>
      </trkpt>
      <trkpt lat="42.77914" lon="-0.56285">
        <ele>2014</ele>
        <time>2010-01-01T13:13:53Z</time>
      </trkpt>
      <trkpt lat="42.7791" lon="-0.56294">
        <ele>2019</ele>
        <time>2010-01-01T13:13:56Z</time>
      </trkpt>
      <trkpt lat="42.77911" lon="-0.56304">
        <ele>2021</ele>
        <time>2010-01-01T13:13:59Z</time>
      </trkpt>
      <trkpt lat="42.77908" lon="-0.56319">
        <ele>2027</ele>
        <time>2010-01-01T13:14:04Z</time>
      </trkpt>
      <trkpt lat="42.77905" lon="-0.56324">
        <ele>2031</ele>
        <time>2010-01-01T13:14:06Z</time>
      </trkpt>
      <trkpt lat="42.779" lon="-0.56343">
        <ele>2037</ele>
        <time>2010-01-01T13:14:12Z</time>
      </trkpt>
      <trkpt lat="42.779" lon="-0.56351">
        <ele>2038</ele>
        <time>2010-01-01T13:14:14Z</time>
      </trkpt>
      <trkpt lat="42.77902" lon="-0.56357">
        <ele>2038</ele>
        <time>2010-01-01T13:14:16Z</time>
      </trkpt>
      <trkpt lat="42.77898" lon="-0.56369">
        <ele>2041</ele>
        <time>2010-01-01T13:14:20Z</time>
      </trkpt>
      <trkpt lat="42.77885" lon="-0.5638">
        <ele>2046</ele>
        <time>2010-01-01T13:14:26Z</time>
      </trkpt>
      <trkpt lat="42.77883" lon="-0.56388">
        <ele>2046</ele>
        <time>2010-01-01T13:14:28Z</time>
      </trkpt>
      <trkpt lat="42.77883" lon="-0.56399">
        <ele>2045</ele>
        <time>2010-01-01T13:14:32Z</time>
      </trkpt>
      <trkpt lat="42.77862" lon="-0.56442">
        <ele>2041</ele>
        <time>2010-01-01T13:14:47Z</time>
      </trkpt>
      <trkpt lat="42.77858" lon="-0.56456">
        <ele>2034</ele>
        <time>2010-01-01T13:14:51Z</time>
      </trkpt>
      <trkpt lat="42.7785" lon="-0.56474">
        <ele>2025</ele>
        <time>2010-01-01T13:14:57Z</time>
      </trkpt>
      <trkpt lat="42.77839" lon="-0.56487">
        <ele>2019</ele>
        <time>2010-01-01T13:15:03Z</time>
      </trkpt>
      <trkpt lat="42.7782" lon="-0.56493">
        <ele>2018</ele>
        <time>2010-01-01T13:15:11Z</time>
      </trkpt>
      <trkpt lat="42.77811" lon="-0.565">
        <ele>2016</ele>
        <time>2010-01-01T13:15:15Z</time>
      </trkpt>
      <trkpt lat="42.77788" lon="-0.56512">
        <ele>2011</ele>
        <time>2010-01-01T13:15:25Z</time>
      </trkpt>
      <trkpt lat="42.77777" lon="-0.56507">
        <ele>2012</ele>
        <time>2010-01-01T13:15:30Z</time>
      </trkpt>
      <trkpt lat="42.77769" lon="-0.56512">
        <ele>2009</ele>
        <time>2010-01-01T13:15:33Z</time>
      </trkpt>
      <trkpt lat="42.77761" lon="-0.56507">
        <ele>2009</ele>
        <time>2010-01-01T13:15:37Z</time>
      </trkpt>
      <trkpt lat="42.7775" lon="-0.5651">
        <ele>2007</ele>
        <time>2010-01-01T13:15:41Z</time>
      </trkpt>
      <trkpt lat="42.77747" lon="-0.56502">
        <ele>2010</ele>
        <time>2010-01-01T13:15:44Z</time>
      </trkpt>
      <trkpt lat="42.77739" lon="-0.56491">
        <ele>2016</ele>
        <time>2010-01-01T13:15:49Z</time>
      </trkpt>
      <trkpt lat="42.77736" lon="-0.56496">
        <ele>2014</ele>
        <time>2010-01-01T13:15:51Z</time>
      </trkpt>
      <trkpt lat="42.77728" lon="-0.56492">
        <ele>2017</ele>
        <time>2010-01-01T13:15:54Z</time>
      </trkpt>
      <trkpt lat="42.77723" lon="-0.56483">
        <ele>2021</ele>
        <time>2010-01-01T13:15:57Z</time>
      </trkpt>
      <trkpt lat="42.77715" lon="-0.5648">
        <ele>2023</ele>
        <time>2010-01-01T13:16:01Z</time>
      </trkpt>
      <trkpt lat="42.77708" lon="-0.56491">
        <ele>2020</ele>
        <time>2010-01-01T13:16:05Z</time>
      </trkpt>
      <trkpt lat="42.77702" lon="-0.56483">
        <ele>2023</ele>
        <time>2010-01-01T13:16:08Z</time>
      </trkpt>
      <trkpt lat="42.7768" lon="-0.56494">
        <ele>2023</ele>
        <time>2010-01-01T13:16:18Z</time>
      </trkpt>
      <trkpt lat="42.77672" lon="-0.56493">
        <ele>2024</ele>
        <time>2010-01-01T13:16:21Z</time>
      </trkpt>
      <trkpt lat="42.77663" lon="-0.56483">
        <ele>2028</ele>
        <time>2010-01-01T13:16:26Z</time>
      </trkpt>
      <trkpt lat="42.77657" lon="-0.56481">
        <ele>2030</ele>
        <time>2010-01-01T13:16:28Z</time>
      </trkpt>
      <trkpt lat="42.77642" lon="-0.56482">
        <ele>2034</ele>
        <time>2010-01-01T13:16:34Z</time>
      </trkpt>
      <trkpt lat="42.77631" lon="-0.5651">
        <ele>2037</ele>
        <time>2010-01-01T13:16:43Z</time>
      </trkpt>
      <trkpt lat="42.7762" lon="-0.5652">
        <ele>2041</ele>
        <time>2010-01-01T13:16:49Z</time>
      </trkpt>
      <trkpt lat="42.77613" lon="-0.56529">
        <ele>2042</ele>
        <time>2010-01-01T13:16:52Z</time>
      </trkpt>
      <trkpt lat="42.7761" lon="-0.56537">
        <ele>2044</ele>
        <time>2010-01-01T13:16:55Z</time>
      </trkpt>
      <trkpt lat="42.77611" lon="-0.56555">
        <ele>2042</ele>
        <time>2010-01-01T13:17:00Z</time>
      </trkpt>
      <trkpt lat="42.7761" lon="-0.56565">
        <ele>2042</ele>
        <time>2010-01-01T13:17:03Z</time>
      </trkpt>
      <trkpt lat="42.77601" lon="-0.56567">
        <ele>2049</ele>
        <time>2010-01-01T13:17:07Z</time>
      </trkpt>
      <trkpt lat="42.77596" lon="-0.56584">
        <ele>2052</ele>
        <time>2010-01-01T13:17:12Z</time>
      </trkpt>
      <trkpt lat="42.7759" lon="-0.56628">
        <ele>2058</ele>
        <time>2010-01-01T13:17:25Z</time>
      </trkpt>
      <trkpt lat="42.77583" lon="-0.56648">
        <ele>2062</ele>
        <time>2010-01-01T13:17:32Z</time>
      </trkpt>
      <trkpt lat="42.77563" lon="-0.56681">
        <ele>2067</ele>
        <time>2010-01-01T13:17:44Z</time>
      </trkpt>
      <trkpt lat="42.77563" lon="-0.56696">
        <ele>2065</ele>
        <time>2010-01-01T13:17:49Z</time>
      </trkpt>
      <trkpt lat="42.77559" lon="-0.56709">
        <ele>2063</ele>
        <time>2010-01-01T13:17:53Z</time>
      </trkpt>
      <trkpt lat="42.7755" lon="-0.56714">
        <ele>2067</ele>
        <time>2010-01-01T13:17:57Z</time>
      </trkpt>
      <trkpt lat="42.77534" lon="-0.56733">
        <ele>2069</ele>
        <time>2010-01-01T13:18:05Z</time>
      </trkpt>
      <trkpt lat="42.77508" lon="-0.56746">
        <ele>2076</ele>
        <time>2010-01-01T13:18:16Z</time>
      </trkpt>
      <trkpt lat="42.775" lon="-0.56752">
        <ele>2078</ele>
        <time>2010-01-01T13:18:20Z</time>
      </trkpt>
      <trkpt lat="42.77476" lon="-0.56749">
        <ele>2087</ele>
        <time>2010-01-01T13:18:30Z</time>
      </trkpt>
      <trkpt lat="42.77469" lon="-0.56745">
        <ele>2090</ele>
        <time>2010-01-01T13:18:33Z</time>
      </trkpt>
      <trkpt lat="42.77458" lon="-0.5675">
        <ele>2091</ele>
        <time>2010-01-01T13:18:37Z</time>
      </trkpt>
      <trkpt lat="42.77451" lon="-0.56749">
        <ele>2093</ele>
        <time>2010-01-01T13:18:40Z</time>
      </trkpt>
      <trkpt lat="42.77443" lon="-0.56753">
        <ele>2092</ele>
        <time>2010-01-01T13:18:44Z</time>
      </trkpt>
      <trkpt lat="42.77418" lon="-0.56752">
        <ele>2091</ele>
        <time>2010-01-01T13:18:54Z</time>
      </trkpt>
      <trkpt lat="42.77409" lon="-0.56744">
        <ele>2094</ele>
        <time>2010-01-01T13:18:58Z</time>
      </trkpt>
      <trkpt lat="42.77393" lon="-0.56744">
        <ele>2093</ele>
        <time>2010-01-01T13:19:04Z</time>
      </trkpt>
      <trkpt lat="42.77373" lon="-0.56746">
        <ele>2093</ele>
        <time>2010-01-01T13:19:12Z</time>
      </trkpt>
      <trkpt lat="42.77368" lon="-0.56747">
        <ele>2092</ele>
        <time>2010-01-01T13:19:14Z</time>
      </trkpt>
      <trkpt lat="42.77353" lon="-0.56744">
        <ele>2098</ele>
        <time>2010-01-01T13:19:20Z</time>
      </trkpt>
      <trkpt lat="42.77335" lon="-0.56749">
        <ele>2100</ele>
        <time>2010-01-01T13:19:28Z</time>
      </trkpt>
      <trkpt lat="42.7733" lon="-0.56756">
        <ele>2097</ele>
        <time>2010-01-01T13:19:30Z</time>
      </trkpt>
      <trkpt lat="42.77308" lon="-0.56757">
        <ele>2103</ele>
        <time>2010-01-01T13:19:39Z</time>
      </trkpt>
      <trkpt lat="42.77262" lon="-0.56772">
        <ele>2110</ele>
        <time>2010-01-01T13:19:58Z</time>
      </trkpt>
      <trkpt lat="42.77244" lon="-0.56787">
        <ele>2106</ele>
        <time>2010-01-01T13:20:07Z</time>
      </trkpt>
      <trkpt lat="42.77238" lon="-0.56787">
        <ele>2108</ele>
        <time>2010-01-01T13:20:09Z</time>
      </trkpt>
      <trkpt lat="42.77218" lon="-0.56801">
        <ele>2113</ele>
        <time>2010-01-01T13:20:18Z</time>
      </trkpt>
      <trkpt lat="42.77201" lon="-0.56805">
        <ele>2120</ele>
        <time>2010-01-01T13:20:25Z</time>
      </trkpt>
      <trkpt lat="42.77182" lon="-0.56817">
        <ele>2119</ele>
        <time>2010-01-01T13:20:33Z</time>
      </trkpt>
      <trkpt lat="42.77179" lon="-0.56822">
        <ele>2115</ele>
        <time>2010-01-01T13:20:35Z</time>
      </trkpt>
      <trkpt lat="42.77166" lon="-0.56823">
        <ele>2117</ele>
        <time>2010-01-01T13:20:40Z</time>
      </trkpt>
      <trkpt lat="42.77152" lon="-0.56831">
        <ele>2111</ele>
        <time>2010-01-01T13:20:46Z</time>
      </trkpt>
      <trkpt lat="42.7713" lon="-0.56834">
        <ele>2116</ele>
        <time>2010-01-01T13:20:56Z</time>
      </trkpt>
      <trkpt lat="42.77117" lon="-0.56839">
        <ele>2118</ele>
        <time>2010-01-01T13:21:01Z</time>
      </trkpt>
      <trkpt lat="42.77101" lon="-0.56853">
        <ele>2113</ele>
        <time>2010-01-01T13:21:09Z</time>
      </trkpt>
      <trkpt lat="42.77084" lon="-0.56859">
        <ele>2110</ele>
        <time>2010-01-01T13:21:15Z</time>
      </trkpt>
      <trkpt lat="42.7707" lon="-0.56856">
        <ele>2112</ele>
        <time>2010-01-01T13:21:21Z</time>
      </trkpt>
      <trkpt lat="42.77049" lon="-0.56855">
        <ele>2114</ele>
        <time>2010-01-01T13:21:30Z</time>
      </trkpt>
      <trkpt lat="42.77037" lon="-0.56857">
        <ele>2116</ele>
        <time>2010-01-01T13:21:35Z</time>
      </trkpt>
      <trkpt lat="42.77028" lon="-0.56855">
        <ele>2120</ele>
        <time>2010-01-01T13:21:38Z</time>
      </trkpt>
      <trkpt lat="42.77007" lon="-0.56858">
        <ele>2123</ele>
        <time>2010-01-01T13:21:47Z</time>
      </trkpt>
      <trkpt lat="42.76993" lon="-0.56865">
        <ele>2123</ele>
        <time>2010-01-01T13:21:52Z</time>
      </trkpt>
      <trkpt lat="42.76986" lon="-0.56874">
        <ele>2118</ele>
        <time>2010-01-01T13:21:56Z</time>
      </trkpt>
      <trkpt lat="42.76959" lon="-0.56885">
        <ele>2112</ele>
        <time>2010-01-01T13:22:08Z</time>
      </trkpt>
      <trkpt lat="42.76945" lon="-0.56902">
        <ele>2108</ele>
        <time>2010-01-01T13:22:15Z</time>
      </trkpt>
      <trkpt lat="42.76935" lon="-0.56902">
        <ele>2111</ele>
        <time>2010-01-01T13:22:19Z</time>
      </trkpt>
      <trkpt lat="42.76917" lon="-0.56912">
        <ele>2118</ele>
        <time>2010-01-01T13:22:27Z</time>
      </trkpt>
      <trkpt lat="42.76908" lon="-0.56909">
        <ele>2118</ele>
        <time>2010-01-01T13:22:31Z</time>
      </trkpt>
      <trkpt lat="42.76903" lon="-0.56909">
        <ele>2118</ele>
        <time>2010-01-01T13:22:33Z</time>
      </trkpt>
      <trkpt lat="42.76888" lon="-0.5692">
        <ele>2118</ele>
        <time>2010-01-01T13:22:39Z</time>
      </trkpt>
      <trkpt lat="42.76868" lon="-0.5693">
        <ele>2125</ele>
        <time>2010-01-01T13:22:48Z</time>
      </trkpt>
      <trkpt lat="42.76863" lon="-0.56941">
        <ele>2127</ele>
        <time>2010-01-01T13:22:52Z</time>
      </trkpt>
      <trkpt lat="42.76851" lon="-0.5694">
        <ele>2127</ele>
        <time>2010-01-01T13:22:56Z</time>
      </trkpt>
      <trkpt lat="42.76844" lon="-0.56945">
        <ele>2127</ele>
        <time>2010-01-01T13:23:00Z</time>
      </trkpt>
      <trkpt lat="42.76828" lon="-0.56945">
        <ele>2128</ele>
        <time>2010-01-01T13:23:06Z</time>
      </trkpt>
      <trkpt lat="42.76824" lon="-0.56949">
        <ele>2129</ele>
        <time>2010-01-01T13:23:08Z</time>
      </trkpt>
      <trkpt lat="42.76811" lon="-0.56945">
        <ele>2132</ele>
        <time>2010-01-01T13:23:13Z</time>
      </trkpt>
      <trkpt lat="42.76804" lon="-0.56944">
        <ele>2134</ele>
        <time>2010-01-01T13:23:16Z</time>
      </trkpt>
      <trkpt lat="42.76794" lon="-0.56949">
        <ele>2140</ele>
        <time>2010-01-01T13:23:20Z</time>
      </trkpt>
      <trkpt lat="42.76787" lon="-0.56961">
        <ele>2143</ele>
        <time>2010-01-01T13:23:25Z</time>
      </trkpt>
      <trkpt lat="42.76778" lon="-0.5697">
        <ele>2147</ele>
        <time>2010-01-01T13:23:29Z</time>
      </trkpt>
      <trkpt lat="42.76773" lon="-0.56969">
        <ele>2151</ele>
        <time>2010-01-01T13:23:31Z</time>
      </trkpt>
      <trkpt lat="42.76768" lon="-0.56978">
        <ele>2154</ele>
        <time>2010-01-01T13:23:35Z</time>
      </trkpt>
      <trkpt lat="42.76763" lon="-0.56982">
        <ele>2158</ele>
        <time>2010-01-01T13:23:37Z</time>
      </trkpt>
      <trkpt lat="42.76756" lon="-0.56993">
        <ele>2164</ele>
        <time>2010-01-01T13:23:41Z</time>
      </trkpt>
      <trkpt lat="42.76751" lon="-0.56995">
        <ele>2169</ele>
        <time>2010-01-01T13:23:43Z</time>
      </trkpt>
      <trkpt lat="42.76748" lon="-0.57001">
        <ele>2173</ele>
        <time>2010-01-01T13:23:46Z</time>
      </trkpt>
      <trkpt lat="42.76735" lon="-0.57003">
        <ele>2179</ele>
        <time>2010-01-01T13:23:51Z</time>
      </trkpt>
      <trkpt lat="42.7673" lon="-0.57">
        <ele>2181</ele>
        <time>2010-01-01T13:23:53Z</time>
      </trkpt>
      <trkpt lat="42.76725" lon="-0.57007">
        <ele>2183</ele>
        <time>2010-01-01T13:23:56Z</time>
      </trkpt>
      <trkpt lat="42.76728" lon="-0.57015">
        <ele>2182</ele>
        <time>2010-01-01T13:23:59Z</time>
      </trkpt>
      <trkpt lat="42.76724" lon="-0.57023">
        <ele>2183</ele>
        <time>2010-01-01T13:24:01Z</time>
      </trkpt>
      <trkpt lat="42.76706" lon="-0.57023">
        <ele>2193</ele>
        <time>2010-01-01T13:24:09Z</time>
      </trkpt>
      <trkpt lat="42.76697" lon="-0.57029">
        <ele>2198</ele>
        <time>2010-01-01T13:24:12Z</time>
      </trkpt>
      <trkpt lat="42.76689" lon="-0.57044">
        <ele>2201</ele>
        <time>2010-01-01T13:24:18Z</time>
      </trkpt>
      <trkpt lat="42.76676" lon="-0.5705">
        <ele>2203</ele>
        <time>2010-01-01T13:24:24Z</time>
      </trkpt>
      <trkpt lat="42.76666" lon="-0.57047">
        <ele>2205</ele>
        <time>2010-01-01T13:24:27Z</time>
      </trkpt>
      <trkpt lat="42.76654" lon="-0.57051">
        <ele>2208</ele>
        <time>2010-01-01T13:24:33Z</time>
      </trkpt>
      <trkpt lat="42.76649" lon="-0.5705">
        <ele>2209</ele>
        <time>2010-01-01T13:24:35Z</time>
      </trkpt>
      <trkpt lat="42.76622" lon="-0.57031">
        <ele>2217</ele>
        <time>2010-01-01T13:24:47Z</time>
      </trkpt>
      <trkpt lat="42.76604" lon="-0.57052">
        <ele>2223</ele>
        <time>2010-01-01T13:24:56Z</time>
      </trkpt>
      <trkpt lat="42.76587" lon="-0.57043">
        <ele>2237</ele>
        <time>2010-01-01T13:25:03Z</time>
      </trkpt>
      <trkpt lat="42.76575" lon="-0.57042">
        <ele>2237</ele>
        <time>2010-01-01T13:25:08Z</time>
      </trkpt>
      <trkpt lat="42.76564" lon="-0.57054">
        <ele>2234</ele>
        <time>2010-01-01T13:25:14Z</time>
      </trkpt>
      <trkpt lat="42.76558" lon="-0.57047">
        <ele>2232</ele>
        <time>2010-01-01T13:25:17Z</time>
      </trkpt>
      <trkpt lat="42.76549" lon="-0.5705">
        <ele>2239</ele>
        <time>2010-01-01T13:25:21Z</time>
      </trkpt>
      <trkpt lat="42.76539" lon="-0.5705">
        <ele>2251</ele>
        <time>2010-01-01T13:25:25Z</time>
      </trkpt>
      <trkpt lat="42.76532" lon="-0.5706">
        <ele>2265</ele>
        <time>2010-01-01T13:25:29Z</time>
      </trkpt>
      <trkpt lat="42.76529" lon="-0.57067">
        <ele>2270</ele>
        <time>2010-01-01T13:25:31Z</time>
      </trkpt>
      <trkpt lat="42.76521" lon="-0.57063">
        <ele>2277</ele>
        <time>2010-01-01T13:25:34Z</time>
      </trkpt>
      <trkpt lat="42.76513" lon="-0.57067">
        <ele>2287</ele>
        <time>2010-01-01T13:25:38Z</time>
      </trkpt>
      <trkpt lat="42.76505" lon="-0.57074">
        <ele>2297</ele>
        <time>2010-01-01T13:25:42Z</time>
      </trkpt>
      <trkpt lat="42.76493" lon="-0.57073">
        <ele>2312</ele>
        <time>2010-01-01T13:25:46Z</time>
      </trkpt>
      <trkpt lat="42.76487" lon="-0.57075">
        <ele>2322</ele>
        <time>2010-01-01T13:25:49Z</time>
      </trkpt>
      <trkpt lat="42.76483" lon="-0.57079">
        <ele>2329</ele>
        <time>2010-01-01T13:25:51Z</time>
      </trkpt>
      <trkpt lat="42.76475" lon="-0.5708">
        <ele>2341</ele>
        <time>2010-01-01T13:25:54Z</time>
      </trkpt>
      <trkpt lat="42.7647" lon="-0.57086">
        <ele>2343</ele>
        <time>2010-01-01T13:25:57Z</time>
      </trkpt>
      <trkpt lat="42.7647" lon="-0.57094">
        <ele>2334</ele>
        <time>2010-01-01T13:25:59Z</time>
      </trkpt>
      <trkpt lat="42.76461" lon="-0.57094">
        <ele>2340</ele>
        <time>2010-01-01T13:26:03Z</time>
      </trkpt>
      <trkpt lat="42.76435" lon="-0.57105">
        <ele>2355</ele>
        <time>2010-01-01T13:26:13Z</time>
      </trkpt>
      <trkpt lat="42.76422" lon="-0.57112">
        <ele>2362</ele>
        <time>2010-01-01T13:26:19Z</time>
      </trkpt>
      <trkpt lat="42.76431" lon="-0.57121">
        <ele>2354</ele>
        <time>2010-01-01T13:26:23Z</time>
      </trkpt>
      <trkpt lat="42.76443" lon="-0.57127">
        <ele>2348</ele>
        <time>2010-01-01T13:26:28Z</time>
      </trkpt>
      <trkpt lat="42.76447" lon="-0.57131">
        <ele>2344</ele>
        <time>2010-01-01T13:26:30Z</time>
      </trkpt>
      <trkpt lat="42.7644" lon="-0.57139">
        <ele>2347</ele>
        <time>2010-01-01T13:26:34Z</time>
      </trkpt>
      <trkpt lat="42.76435" lon="-0.5714">
        <ele>2349</ele>
        <time>2010-01-01T13:26:36Z</time>
      </trkpt>
      <trkpt lat="42.76431" lon="-0.57148">
        <ele>2353</ele>
        <time>2010-01-01T13:26:39Z</time>
      </trkpt>
      <trkpt lat="42.7642" lon="-0.57153">
        <ele>2356</ele>
        <time>2010-01-01T13:26:43Z</time>
      </trkpt>
      <trkpt lat="42.76405" lon="-0.57153">
        <ele>2367</ele>
        <time>2010-01-01T13:26:49Z</time>
      </trkpt>
      <trkpt lat="42.76395" lon="-0.57165">
        <ele>2376</ele>
        <time>2010-01-01T13:26:55Z</time>
      </trkpt>
      <trkpt lat="42.76387" lon="-0.57168">
        <ele>2382</ele>
        <time>2010-01-01T13:26:58Z</time>
      </trkpt>
      <trkpt lat="42.76381" lon="-0.57162">
        <ele>2384</ele>
        <time>2010-01-01T13:27:01Z</time>
      </trkpt>
      <trkpt lat="42.76376" lon="-0.57165">
        <ele>2386</ele>
        <time>2010-01-01T13:27:03Z</time>
      </trkpt>
      <trkpt lat="42.76371" lon="-0.57164">
        <ele>2388</ele>
        <time>2010-01-01T13:27:06Z</time>
      </trkpt>
      <trkpt lat="42.76366" lon="-0.57169">
        <ele>2391</ele>
        <time>2010-01-01T13:27:08Z</time>
      </trkpt>
      <trkpt lat="42.7636" lon="-0.57169">
        <ele>2393</ele>
        <time>2010-01-01T13:27:10Z</time>
      </trkpt>
      <trkpt lat="42.76354" lon="-0.57175">
        <ele>2397</ele>
        <time>2010-01-01T13:27:14Z</time>
      </trkpt>
      <trkpt lat="42.76344" lon="-0.57181">
        <ele>2401</ele>
        <time>2010-01-01T13:27:18Z</time>
      </trkpt>
      <trkpt lat="42.7634" lon="-0.57195">
        <ele>2404</ele>
        <time>2010-01-01T13:27:22Z</time>
      </trkpt>
      <trkpt lat="42.76332" lon="-0.57194">
        <ele>2407</ele>
        <time>2010-01-01T13:27:25Z</time>
      </trkpt>
      <trkpt lat="42.76329" lon="-0.57201">
        <ele>2409</ele>
        <time>2010-01-01T13:27:28Z</time>
      </trkpt>
      <trkpt lat="42.76325" lon="-0.57198">
        <ele>2409</ele>
        <time>2010-01-01T13:27:30Z</time>
      </trkpt>
      <trkpt lat="42.76317" lon="-0.57196">
        <ele>2411</ele>
        <time>2010-01-01T13:27:33Z</time>
      </trkpt>
      <trkpt lat="42.76314" lon="-0.57205">
        <ele>2414</ele>
        <time>2010-01-01T13:27:36Z</time>
      </trkpt>
      <trkpt lat="42.76309" lon="-0.57205">
        <ele>2415</ele>
        <time>2010-01-01T13:27:38Z</time>
      </trkpt>
      <trkpt lat="42.76296" lon="-0.57211">
        <ele>2421</ele>
        <time>2010-01-01T13:27:43Z</time>
      </trkpt>
      <trkpt lat="42.76293" lon="-0.57217">
        <ele>2423</ele>
        <time>2010-01-01T13:27:45Z</time>
      </trkpt>
      <trkpt lat="42.76288" lon="-0.5722">
        <ele>2425</ele>
        <time>2010-01-01T13:27:48Z</time>
      </trkpt>
      <trkpt lat="42.76275" lon="-0.57218">
        <ele>2427</ele>
        <time>2010-01-01T13:27:53Z</time>
      </trkpt>
      <trkpt lat="42.76267" lon="-0.57212">
        <ele>2424</ele>
        <time>2010-01-01T13:27:56Z</time>
      </trkpt>
      <trkpt lat="42.7627" lon="-0.57203">
        <ele>2424</ele>
        <time>2010-01-01T13:27:59Z</time>
      </trkpt>
      <trkpt lat="42.7627" lon="-0.57188">
        <ele>2424</ele>
        <time>2010-01-01T13:28:04Z</time>
      </trkpt>
      <trkpt lat="42.76273" lon="-0.57166">
        <ele>2424</ele>
        <time>2010-01-01T13:28:11Z</time>
      </trkpt>
      <trkpt lat="42.7627" lon="-0.57123">
        <ele>2431</ele>
        <time>2010-01-01T13:28:23Z</time>
      </trkpt>
      <trkpt lat="42.76272" lon="-0.57111">
        <ele>2434</ele>
        <time>2010-01-01T13:28:27Z</time>
      </trkpt>
      <trkpt lat="42.76271" lon="-0.57096">
        <ele>2438</ele>
        <time>2010-01-01T13:28:31Z</time>
      </trkpt>
      <trkpt lat="42.76272" lon="-0.57089">
        <ele>2441</ele>
        <time>2010-01-01T13:28:33Z</time>
      </trkpt>
      <trkpt lat="42.76273" lon="-0.57049">
        <ele>2455</ele>
        <time>2010-01-01T13:28:45Z</time>
      </trkpt>
      <trkpt lat="42.7628" lon="-0.57042">
        <ele>2460</ele>
        <time>2010-01-01T13:28:49Z</time>
      </trkpt>
      <trkpt lat="42.76287" lon="-0.57037">
        <ele>2462</ele>
        <time>2010-01-01T13:28:52Z</time>
      </trkpt>
      <trkpt lat="42.76302" lon="-0.57037">
        <ele>2464</ele>
        <time>2010-01-01T13:28:58Z</time>
      </trkpt>
      <trkpt lat="42.76313" lon="-0.57027">
        <ele>2465</ele>
        <time>2010-01-01T13:29:03Z</time>
      </trkpt>
      <trkpt lat="42.76317" lon="-0.5702">
        <ele>2466</ele>
        <time>2010-01-01T13:29:06Z</time>
      </trkpt>
      <trkpt lat="42.76313" lon="-0.57012">
        <ele>2471</ele>
        <time>2010-01-01T13:29:08Z</time>
      </trkpt>
      <trkpt lat="42.76311" lon="-0.56991">
        <ele>2482</ele>
        <time>2010-01-01T13:29:15Z</time>
      </trkpt>
      <trkpt lat="42.76318" lon="-0.56981">
        <ele>2487</ele>
        <time>2010-01-01T13:29:19Z</time>
      </trkpt>
      <trkpt lat="42.76316" lon="-0.56973">
        <ele>2491</ele>
        <time>2010-01-01T13:29:21Z</time>
      </trkpt>
      <trkpt lat="42.76319" lon="-0.56968">
        <ele>2494</ele>
        <time>2010-01-01T13:29:23Z</time>
      </trkpt>
      <trkpt lat="42.7632" lon="-0.56947">
        <ele>2509</ele>
        <time>2010-01-01T13:29:29Z</time>
      </trkpt>
      <trkpt lat="42.76318" lon="-0.56938">
        <ele>2512</ele>
        <time>2010-01-01T13:29:32Z</time>
      </trkpt>
      <trkpt lat="42.7632" lon="-0.5692">
        <ele>2520</ele>
        <time>2010-01-01T13:29:37Z</time>
      </trkpt>
      <trkpt lat="42.76313" lon="-0.56876">
        <ele>2531</ele>
        <time>2010-01-01T13:29:51Z</time>
      </trkpt>
      <trkpt lat="42.76316" lon="-0.56866">
        <ele>2534</ele>
        <time>2010-01-01T13:29:54Z</time>
      </trkpt>
      <trkpt lat="42.76325" lon="-0.56864">
        <ele>2539</ele>
        <time>2010-01-01T13:29:57Z</time>
      </trkpt>
      <trkpt lat="42.76319" lon="-0.56849">
        <ele>2539</ele>
        <time>2010-01-01T13:30:02Z</time>
      </trkpt>
      <trkpt lat="42.76329" lon="-0.56853">
        <ele>2543</ele>
        <time>2010-01-01T13:30:06Z</time>
      </trkpt>
      <trkpt lat="42.76341" lon="-0.56849">
        <ele>2548</ele>
        <time>2010-01-01T13:30:11Z</time>
      </trkpt>
      <trkpt lat="42.76341" lon="-0.56842">
        <ele>2550</ele>
        <time>2010-01-01T13:30:13Z</time>
      </trkpt>
      <trkpt lat="42.76339" lon="-0.56831">
        <ele>2553</ele>
        <time>2010-01-01T13:30:17Z</time>
      </trkpt>
      <trkpt lat="42.76345" lon="-0.56825">
        <ele>2557</ele>
        <time>2010-01-01T13:30:20Z</time>
      </trkpt>
      <trkpt lat="42.76351" lon="-0.56825">
        <ele>2560</ele>
        <time>2010-01-01T13:30:22Z</time>
      </trkpt>
      <trkpt lat="42.76351" lon="-0.56813">
        <ele>2565</ele>
        <time>2010-01-01T13:30:26Z</time>
      </trkpt>
      <trkpt lat="42.76358" lon="-0.56797">
        <ele>2573</ele>
        <time>2010-01-01T13:30:31Z</time>
      </trkpt>
      <trkpt lat="42.76357" lon="-0.56759">
        <ele>2572</ele>
        <time>2010-01-01T13:30:42Z</time>
      </trkpt>
      <trkpt lat="42.76353" lon="-0.56733">
        <ele>2563</ele>
        <time>2010-01-01T13:30:50Z</time>
      </trkpt>
      <trkpt lat="42.76353" lon="-0.56719">
        <ele>2559</ele>
        <time>2010-01-01T13:30:54Z</time>
      </trkpt>
      <trkpt lat="42.76329" lon="-0.56672">
        <ele>2588</ele>
        <time>2010-01-01T13:31:11Z</time>
      </trkpt>
      <trkpt lat="42.76328" lon="-0.56664">
        <ele>2593</ele>
        <time>2010-01-01T13:31:14Z</time>
      </trkpt>
      <trkpt lat="42.76324" lon="-0.56658">
        <ele>2595</ele>
        <time>2010-01-01T13:31:16Z</time>
      </trkpt>
      <trkpt lat="42.76319" lon="-0.5665">
        <ele>2596</ele>
        <time>2010-01-01T13:31:19Z</time>
      </trkpt>
      <trkpt lat="42.76319" lon="-0.56621">
        <ele>2605</ele>
        <time>2010-01-01T13:31:28Z</time>
      </trkpt>
      <trkpt lat="42.76327" lon="-0.566">
        <ele>2605</ele>
        <time>2010-01-01T13:31:35Z</time>
      </trkpt>
      <trkpt lat="42.76333" lon="-0.56587">
        <ele>2601</ele>
        <time>2010-01-01T13:31:39Z</time>
      </trkpt>
      <trkpt lat="42.7634" lon="-0.56576">
        <ele>2596</ele>
        <time>2010-01-01T13:31:44Z</time>
      </trkpt>
      <trkpt lat="42.76346" lon="-0.56577">
        <ele>2594</ele>
        <time>2010-01-01T13:31:46Z</time>
      </trkpt>
      <trkpt lat="42.76336" lon="-0.56594">
        <ele>2601</ele>
        <time>2010-01-01T13:31:52Z</time>
      </trkpt>
      <trkpt lat="42.76333" lon="-0.56603">
        <ele>2605</ele>
        <time>2010-01-01T13:31:55Z</time>
      </trkpt>
      <trkpt lat="42.76329" lon="-0.56609">
        <ele>2606</ele>
        <time>2010-01-01T13:31:57Z</time>
      </trkpt>
      <trkpt lat="42.76323" lon="-0.56623">
        <ele>2605</ele>
        <time>2010-01-01T13:32:02Z</time>
      </trkpt>
      <trkpt lat="42.76324" lon="-0.56645">
        <ele>2600</ele>
        <time>2010-01-01T13:32:09Z</time>
      </trkpt>
      <trkpt lat="42.7633" lon="-0.56653">
        <ele>2598</ele>
        <time>2010-01-01T13:32:12Z</time>
      </trkpt>
      <trkpt lat="42.76335" lon="-0.56666">
        <ele>2593</ele>
        <time>2010-01-01T13:32:17Z</time>
      </trkpt>
      <trkpt lat="42.76337" lon="-0.56679">
        <ele>2581</ele>
        <time>2010-01-01T13:32:20Z</time>
      </trkpt>
      <trkpt lat="42.76347" lon="-0.56693">
        <ele>2564</ele>
        <time>2010-01-01T13:32:26Z</time>
      </trkpt>
      <trkpt lat="42.76353" lon="-0.56709">
        <ele>2559</ele>
        <time>2010-01-01T13:32:31Z</time>
      </trkpt>
      <trkpt lat="42.76359" lon="-0.56714">
        <ele>2557</ele>
        <time>2010-01-01T13:32:34Z</time>
      </trkpt>
      <trkpt lat="42.76369" lon="-0.56703">
        <ele>2553</ele>
        <time>2010-01-01T13:32:39Z</time>
      </trkpt>
      <trkpt lat="42.76376" lon="-0.56689">
        <ele>2550</ele>
        <time>2010-01-01T13:32:44Z</time>
      </trkpt>
      <trkpt lat="42.7639" lon="-0.56695">
        <ele>2538</ele>
        <time>2010-01-01T13:32:50Z</time>
      </trkpt>
      <trkpt lat="42.76395" lon="-0.56691">
        <ele>2540</ele>
        <time>2010-01-01T13:32:53Z</time>
      </trkpt>
      <trkpt lat="42.764" lon="-0.56691">
        <ele>2540</ele>
        <time>2010-01-01T13:32:55Z</time>
      </trkpt>
      <trkpt lat="42.76406" lon="-0.56683">
        <ele>2540</ele>
        <time>2010-01-01T13:32:58Z</time>
      </trkpt>
      <trkpt lat="42.76415" lon="-0.56691">
        <ele>2541</ele>
        <time>2010-01-01T13:33:03Z</time>
      </trkpt>
      <trkpt lat="42.76425" lon="-0.56676">
        <ele>2517</ele>
        <time>2010-01-01T13:33:09Z</time>
      </trkpt>
      <trkpt lat="42.76429" lon="-0.56673">
        <ele>2509</ele>
        <time>2010-01-01T13:33:10Z</time>
      </trkpt>
      <trkpt lat="42.76438" lon="-0.56665">
        <ele>2495</ele>
        <time>2010-01-01T13:33:15Z</time>
      </trkpt>
      <trkpt lat="42.76448" lon="-0.56659">
        <ele>2484</ele>
        <time>2010-01-01T13:33:19Z</time>
      </trkpt>
      <trkpt lat="42.76453" lon="-0.56653">
        <ele>2481</ele>
        <time>2010-01-01T13:33:22Z</time>
      </trkpt>
      <trkpt lat="42.76462" lon="-0.5665">
        <ele>2473</ele>
        <time>2010-01-01T13:33:25Z</time>
      </trkpt>
      <trkpt lat="42.76471" lon="-0.56641">
        <ele>2468</ele>
        <time>2010-01-01T13:33:30Z</time>
      </trkpt>
      <trkpt lat="42.76472" lon="-0.56633">
        <ele>2471</ele>
        <time>2010-01-01T13:33:32Z</time>
      </trkpt>
      <trkpt lat="42.76484" lon="-0.56629">
        <ele>2452</ele>
        <time>2010-01-01T13:33:37Z</time>
      </trkpt>
      <trkpt lat="42.76484" lon="-0.56609">
        <ele>2469</ele>
        <time>2010-01-01T13:33:43Z</time>
      </trkpt>
      <trkpt lat="42.76487" lon="-0.56598">
        <ele>2470</ele>
        <time>2010-01-01T13:33:47Z</time>
      </trkpt>
      <trkpt lat="42.76509" lon="-0.56565">
        <ele>2455</ele>
        <time>2010-01-01T13:34:00Z</time>
      </trkpt>
      <trkpt lat="42.76515" lon="-0.56562">
        <ele>2453</ele>
        <time>2010-01-01T13:34:02Z</time>
      </trkpt>
      <trkpt lat="42.76521" lon="-0.56553">
        <ele>2452</ele>
        <time>2010-01-01T13:34:06Z</time>
      </trkpt>
      <trkpt lat="42.76522" lon="-0.56546">
        <ele>2449</ele>
        <time>2010-01-01T13:34:08Z</time>
      </trkpt>
      <trkpt lat="42.76527" lon="-0.56549">
        <ele>2448</ele>
        <time>2010-01-01T13:34:10Z</time>
      </trkpt>
      <trkpt lat="42.76529" lon="-0.56557">
        <ele>2449</ele>
        <time>2010-01-01T13:34:12Z</time>
      </trkpt>
      <trkpt lat="42.76535" lon="-0.56559">
        <ele>2444</ele>
        <time>2010-01-01T13:34:15Z</time>
      </trkpt>
      <trkpt lat="42.76549" lon="-0.5656">
        <ele>2434</ele>
        <time>2010-01-01T13:34:21Z</time>
      </trkpt>
      <trkpt lat="42.76566" lon="-0.56552">
        <ele>2433</ele>
        <time>2010-01-01T13:34:28Z</time>
      </trkpt>
      <trkpt lat="42.76576" lon="-0.56554">
        <ele>2432</ele>
        <time>2010-01-01T13:34:32Z</time>
      </trkpt>
      <trkpt lat="42.76572" lon="-0.5658">
        <ele>2420</ele>
        <time>2010-01-01T13:34:40Z</time>
      </trkpt>
      <trkpt lat="42.76573" lon="-0.56597">
        <ele>2412</ele>
        <time>2010-01-01T13:34:45Z</time>
      </trkpt>
      <trkpt lat="42.76567" lon="-0.56602">
        <ele>2412</ele>
        <time>2010-01-01T13:34:48Z</time>
      </trkpt>
      <trkpt lat="42.76565" lon="-0.56609">
        <ele>2410</ele>
        <time>2010-01-01T13:34:50Z</time>
      </trkpt>
      <trkpt lat="42.76577" lon="-0.56613">
        <ele>2403</ele>
        <time>2010-01-01T13:34:55Z</time>
      </trkpt>
      <trkpt lat="42.76604" lon="-0.56595">
        <ele>2403</ele>
        <time>2010-01-01T13:35:07Z</time>
      </trkpt>
      <trkpt lat="42.76615" lon="-0.56589">
        <ele>2400</ele>
        <time>2010-01-01T13:35:12Z</time>
      </trkpt>
      <trkpt lat="42.76623" lon="-0.56587">
        <ele>2397</ele>
        <time>2010-01-01T13:35:15Z</time>
      </trkpt>
      <trkpt lat="42.76633" lon="-0.56587">
        <ele>2392</ele>
        <time>2010-01-01T13:35:19Z</time>
      </trkpt>
      <trkpt lat="42.76637" lon="-0.56582">
        <ele>2391</ele>
        <time>2010-01-01T13:35:21Z</time>
      </trkpt>
      <trkpt lat="42.76643" lon="-0.56579">
        <ele>2389</ele>
        <time>2010-01-01T13:35:24Z</time>
      </trkpt>
      <trkpt lat="42.76646" lon="-0.56572">
        <ele>2389</ele>
        <time>2010-01-01T13:35:26Z</time>
      </trkpt>
      <trkpt lat="42.76655" lon="-0.56567">
        <ele>2385</ele>
        <time>2010-01-01T13:35:30Z</time>
      </trkpt>
      <trkpt lat="42.76661" lon="-0.56567">
        <ele>2382</ele>
        <time>2010-01-01T13:35:32Z</time>
      </trkpt>
      <trkpt lat="42.76667" lon="-0.56565">
        <ele>2379</ele>
        <time>2010-01-01T13:35:35Z</time>
      </trkpt>
      <trkpt lat="42.76673" lon="-0.56566">
        <ele>2377</ele>
        <time>2010-01-01T13:35:37Z</time>
      </trkpt>
      <trkpt lat="42.76683" lon="-0.56572">
        <ele>2376</ele>
        <time>2010-01-01T13:35:42Z</time>
      </trkpt>
      <trkpt lat="42.7669" lon="-0.56571">
        <ele>2374</ele>
        <time>2010-01-01T13:35:45Z</time>
      </trkpt>
      <trkpt lat="42.76698" lon="-0.56565">
        <ele>2369</ele>
        <time>2010-01-01T13:35:48Z</time>
      </trkpt>
      <trkpt lat="42.76706" lon="-0.56546">
        <ele>2368</ele>
        <time>2010-01-01T13:35:54Z</time>
      </trkpt>
      <trkpt lat="42.7673" lon="-0.56523">
        <ele>2367</ele>
        <time>2010-01-01T13:36:06Z</time>
      </trkpt>
      <trkpt lat="42.76757" lon="-0.56514">
        <ele>2355</ele>
        <time>2010-01-01T13:36:18Z</time>
      </trkpt>
      <trkpt lat="42.76762" lon="-0.56517">
        <ele>2355</ele>
        <time>2010-01-01T13:36:20Z</time>
      </trkpt>
      <trkpt lat="42.76764" lon="-0.56511">
        <ele>2351</ele>
        <time>2010-01-01T13:36:22Z</time>
      </trkpt>
      <trkpt lat="42.76768" lon="-0.56516">
        <ele>2353</ele>
        <time>2010-01-01T13:36:24Z</time>
      </trkpt>
      <trkpt lat="42.76775" lon="-0.56514">
        <ele>2350</ele>
        <time>2010-01-01T13:36:27Z</time>
      </trkpt>
      <trkpt lat="42.7678" lon="-0.56501">
        <ele>2340</ele>
        <time>2010-01-01T13:36:31Z</time>
      </trkpt>
      <trkpt lat="42.76785" lon="-0.56498">
        <ele>2338</ele>
        <time>2010-01-01T13:36:33Z</time>
      </trkpt>
      <trkpt lat="42.76781" lon="-0.56487">
        <ele>2334</ele>
        <time>2010-01-01T13:36:36Z</time>
      </trkpt>
      <trkpt lat="42.76799" lon="-0.56471">
        <ele>2325</ele>
        <time>2010-01-01T13:36:45Z</time>
      </trkpt>
      <trkpt lat="42.76806" lon="-0.56459">
        <ele>2319</ele>
        <time>2010-01-01T13:36:50Z</time>
      </trkpt>
      <trkpt lat="42.76806" lon="-0.56446">
        <ele>2313</ele>
        <time>2010-01-01T13:36:54Z</time>
      </trkpt>
      <trkpt lat="42.76798" lon="-0.56435">
        <ele>2312</ele>
        <time>2010-01-01T13:36:58Z</time>
      </trkpt>
      <trkpt lat="42.76798" lon="-0.56427">
        <ele>2309</ele>
        <time>2010-01-01T13:37:00Z</time>
      </trkpt>
      <trkpt lat="42.76794" lon="-0.56422">
        <ele>2308</ele>
        <time>2010-01-01T13:37:02Z</time>
      </trkpt>
      <trkpt lat="42.76807" lon="-0.56386">
        <ele>2298</ele>
        <time>2010-01-01T13:37:14Z</time>
      </trkpt>
      <trkpt lat="42.76815" lon="-0.56376">
        <ele>2289</ele>
        <time>2010-01-01T13:37:19Z</time>
      </trkpt>
      <trkpt lat="42.76826" lon="-0.56374">
        <ele>2289</ele>
        <time>2010-01-01T13:37:23Z</time>
      </trkpt>
      <trkpt lat="42.7683" lon="-0.56358">
        <ele>2279</ele>
        <time>2010-01-01T13:37:28Z</time>
      </trkpt>
      <trkpt lat="42.76833" lon="-0.56334">
        <ele>2249</ele>
        <time>2010-01-01T13:37:35Z</time>
      </trkpt>
      <trkpt lat="42.76837" lon="-0.56327">
        <ele>2248</ele>
        <time>2010-01-01T13:37:38Z</time>
      </trkpt>
      <trkpt lat="42.76836" lon="-0.56317">
        <ele>2244</ele>
        <time>2010-01-01T13:37:41Z</time>
      </trkpt>
      <trkpt lat="42.76843" lon="-0.56311">
        <ele>2248</ele>
        <time>2010-01-01T13:37:44Z</time>
      </trkpt>
      <trkpt lat="42.76841" lon="-0.56286">
        <ele>2244</ele>
        <time>2010-01-01T13:37:51Z</time>
      </trkpt>
      <trkpt lat="42.76843" lon="-0.56276">
        <ele>2245</ele>
        <time>2010-01-01T13:37:54Z</time>
      </trkpt>
      <trkpt lat="42.76846" lon="-0.56258">
        <ele>2241</ele>
        <time>2010-01-01T13:38:00Z</time>
      </trkpt>
      <trkpt lat="42.7685" lon="-0.56247">
        <ele>2239</ele>
        <time>2010-01-01T13:38:03Z</time>
      </trkpt>
      <trkpt lat="42.76862" lon="-0.5623">
        <ele>2235</ele>
        <time>2010-01-01T13:38:10Z</time>
      </trkpt>
      <trkpt lat="42.76865" lon="-0.56222">
        <ele>2233</ele>
        <time>2010-01-01T13:38:13Z</time>
      </trkpt>
      <trkpt lat="42.76871" lon="-0.56194">
        <ele>2229</ele>
        <time>2010-01-01T13:38:22Z</time>
      </trkpt>
      <trkpt lat="42.76869" lon="-0.56172">
        <ele>2212</ele>
        <time>2010-01-01T13:38:28Z</time>
      </trkpt>
      <trkpt lat="42.76882" lon="-0.56162">
        <ele>2213</ele>
        <time>2010-01-01T13:38:34Z</time>
      </trkpt>
      <trkpt lat="42.76884" lon="-0.56154">
        <ele>2212</ele>
        <time>2010-01-01T13:38:36Z</time>
      </trkpt>
      <trkpt lat="42.7688" lon="-0.56143">
        <ele>2207</ele>
        <time>2010-01-01T13:38:40Z</time>
      </trkpt>
      <trkpt lat="42.76881" lon="-0.56131">
        <ele>2207</ele>
        <time>2010-01-01T13:38:44Z</time>
      </trkpt>
      <trkpt lat="42.7688" lon="-0.56123">
        <ele>2206</ele>
        <time>2010-01-01T13:38:46Z</time>
      </trkpt>
      <trkpt lat="42.76872" lon="-0.56116">
        <ele>2204</ele>
        <time>2010-01-01T13:38:50Z</time>
      </trkpt>
      <trkpt lat="42.76873" lon="-0.56108">
        <ele>2204</ele>
        <time>2010-01-01T13:38:52Z</time>
      </trkpt>
      <trkpt lat="42.76867" lon="-0.56109">
        <ele>2203</ele>
        <time>2010-01-01T13:38:55Z</time>
      </trkpt>
      <trkpt lat="42.76861" lon="-0.56107">
        <ele>2202</ele>
        <time>2010-01-01T13:38:57Z</time>
      </trkpt>
      <trkpt lat="42.76855" lon="-0.56095">
        <ele>2193</ele>
        <time>2010-01-01T13:39:01Z</time>
      </trkpt>
      <trkpt lat="42.76851" lon="-0.56083">
        <ele>2185</ele>
        <time>2010-01-01T13:39:05Z</time>
      </trkpt>
      <trkpt lat="42.76848" lon="-0.56078">
        <ele>2179</ele>
        <time>2010-01-01T13:39:07Z</time>
      </trkpt>
      <trkpt lat="42.76843" lon="-0.56078">
        <ele>2172</ele>
        <time>2010-01-01T13:39:09Z</time>
      </trkpt>
      <trkpt lat="42.76842" lon="-0.56068">
        <ele>2167</ele>
        <time>2010-01-01T13:39:12Z</time>
      </trkpt>
      <trkpt lat="42.76846" lon="-0.56057">
        <ele>2167</ele>
        <time>2010-01-01T13:39:16Z</time>
      </trkpt>
      <trkpt lat="42.76831" lon="-0.56023">
        <ele>2133</ele>
        <time>2010-01-01T13:39:28Z</time>
      </trkpt>
      <trkpt lat="42.7683" lon="-0.56015">
        <ele>2133</ele>
        <time>2010-01-01T13:39:30Z</time>
      </trkpt>
      <trkpt lat="42.76819" lon="-0.55981">
        <ele>2128</ele>
        <time>2010-01-01T13:39:41Z</time>
      </trkpt>
      <trkpt lat="42.7682" lon="-0.55962">
        <ele>2131</ele>
        <time>2010-01-01T13:39:46Z</time>
      </trkpt>
      <trkpt lat="42.7682" lon="-0.55946">
        <ele>2134</ele>
        <time>2010-01-01T13:39:51Z</time>
      </trkpt>
      <trkpt lat="42.76816" lon="-0.55929">
        <ele>2132</ele>
        <time>2010-01-01T13:39:56Z</time>
      </trkpt>
      <trkpt lat="42.76815" lon="-0.55917">
        <ele>2132</ele>
        <time>2010-01-01T13:40:00Z</time>
      </trkpt>
      <trkpt lat="42.76812" lon="-0.5591">
        <ele>2130</ele>
        <time>2010-01-01T13:40:02Z</time>
      </trkpt>
      <trkpt lat="42.76807" lon="-0.55906">
        <ele>2124</ele>
        <time>2010-01-01T13:40:05Z</time>
      </trkpt>
      <trkpt lat="42.76805" lon="-0.55892">
        <ele>2123</ele>
        <time>2010-01-01T13:40:09Z</time>
      </trkpt>
      <trkpt lat="42.76799" lon="-0.5588">
        <ele>2118</ele>
        <time>2010-01-01T13:40:13Z</time>
      </trkpt>
      <trkpt lat="42.7679" lon="-0.55864">
        <ele>2108</ele>
        <time>2010-01-01T13:40:19Z</time>
      </trkpt>
      <trkpt lat="42.76784" lon="-0.5584">
        <ele>2111</ele>
        <time>2010-01-01T13:40:26Z</time>
      </trkpt>
      <trkpt lat="42.76783" lon="-0.55821">
        <ele>2116</ele>
        <time>2010-01-01T13:40:32Z</time>
      </trkpt>
      <trkpt lat="42.76781" lon="-0.55814">
        <ele>2117</ele>
        <time>2010-01-01T13:40:34Z</time>
      </trkpt>
      <trkpt lat="42.76781" lon="-0.55807">
        <ele>2119</ele>
        <time>2010-01-01T13:40:36Z</time>
      </trkpt>
      <trkpt lat="42.76776" lon="-0.55795">
        <ele>2112</ele>
        <time>2010-01-01T13:40:41Z</time>
      </trkpt>
      <trkpt lat="42.76778" lon="-0.55775">
        <ele>2105</ele>
        <time>2010-01-01T13:40:46Z</time>
      </trkpt>
      <trkpt lat="42.76785" lon="-0.55744">
        <ele>2115</ele>
        <time>2010-01-01T13:40:56Z</time>
      </trkpt>
      <trkpt lat="42.76783" lon="-0.55725">
        <ele>2109</ele>
        <time>2010-01-01T13:41:01Z</time>
      </trkpt>
      <trkpt lat="42.76786" lon="-0.55698">
        <ele>2107</ele>
        <time>2010-01-01T13:41:09Z</time>
      </trkpt>
      <trkpt lat="42.7679" lon="-0.55693">
        <ele>2107</ele>
        <time>2010-01-01T13:41:12Z</time>
      </trkpt>
      <trkpt lat="42.76805" lon="-0.55682">
        <ele>2107</ele>
        <time>2010-01-01T13:41:18Z</time>
      </trkpt>
      <trkpt lat="42.76811" lon="-0.5566">
        <ele>2097</ele>
        <time>2010-01-01T13:41:25Z</time>
      </trkpt>
      <trkpt lat="42.76815" lon="-0.55652">
        <ele>2095</ele>
        <time>2010-01-01T13:41:28Z</time>
      </trkpt>
      <trkpt lat="42.76821" lon="-0.55628">
        <ele>2093</ele>
        <time>2010-01-01T13:41:36Z</time>
      </trkpt>
      <trkpt lat="42.76825" lon="-0.55602">
        <ele>2093</ele>
        <time>2010-01-01T13:41:43Z</time>
      </trkpt>
      <trkpt lat="42.76823" lon="-0.55548">
        <ele>2106</ele>
        <time>2010-01-01T13:41:59Z</time>
      </trkpt>
      <trkpt lat="42.76827" lon="-0.55511">
        <ele>2115</ele>
        <time>2010-01-01T13:42:10Z</time>
      </trkpt>
      <trkpt lat="42.76825" lon="-0.55479">
        <ele>2119</ele>
        <time>2010-01-01T13:42:20Z</time>
      </trkpt>
      <trkpt lat="42.76823" lon="-0.5547">
        <ele>2119</ele>
        <time>2010-01-01T13:42:23Z</time>
      </trkpt>
      <trkpt lat="42.76823" lon="-0.55458">
        <ele>2120</ele>
        <time>2010-01-01T13:42:26Z</time>
      </trkpt>
      <trkpt lat="42.76819" lon="-0.55438">
        <ele>2119</ele>
        <time>2010-01-01T13:42:32Z</time>
      </trkpt>
      <trkpt lat="42.76813" lon="-0.5543">
        <ele>2117</ele>
        <time>2010-01-01T13:42:35Z</time>
      </trkpt>
      <trkpt lat="42.76809" lon="-0.55413">
        <ele>2116</ele>
        <time>2010-01-01T13:42:41Z</time>
      </trkpt>
      <trkpt lat="42.76805" lon="-0.55406">
        <ele>2115</ele>
        <time>2010-01-01T13:42:43Z</time>
      </trkpt>
      <trkpt lat="42.76802" lon="-0.55391">
        <ele>2114</ele>
        <time>2010-01-01T13:42:48Z</time>
      </trkpt>
      <trkpt lat="42.76804" lon="-0.55385">
        <ele>2114</ele>
        <time>2010-01-01T13:42:50Z</time>
      </trkpt>
      <trkpt lat="42.76804" lon="-0.55375">
        <ele>2114</ele>
        <time>2010-01-01T13:42:52Z</time>
      </trkpt>
      <trkpt lat="42.7681" lon="-0.55328">
        <ele>2114</ele>
        <time>2010-01-01T13:43:07Z</time>
      </trkpt>
      <trkpt lat="42.76814" lon="-0.55336">
        <ele>2117</ele>
        <time>2010-01-01T13:43:09Z</time>
      </trkpt>
      <trkpt lat="42.76816" lon="-0.55346">
        <ele>2117</ele>
        <time>2010-01-01T13:43:12Z</time>
      </trkpt>
      <trkpt lat="42.7682" lon="-0.55343">
        <ele>2118</ele>
        <time>2010-01-01T13:43:14Z</time>
      </trkpt>
      <trkpt lat="42.76823" lon="-0.55324">
        <ele>2114</ele>
        <time>2010-01-01T13:43:20Z</time>
      </trkpt>
      <trkpt lat="42.76827" lon="-0.55318">
        <ele>2112</ele>
        <time>2010-01-01T13:43:22Z</time>
      </trkpt>
      <trkpt lat="42.7684" lon="-0.553">
        <ele>2107</ele>
        <time>2010-01-01T13:43:30Z</time>
      </trkpt>
      <trkpt lat="42.76867" lon="-0.55275">
        <ele>2098</ele>
        <time>2010-01-01T13:43:43Z</time>
      </trkpt>
      <trkpt lat="42.76872" lon="-0.55257">
        <ele>2091</ele>
        <time>2010-01-01T13:43:48Z</time>
      </trkpt>
      <trkpt lat="42.76865" lon="-0.55245">
        <ele>2085</ele>
        <time>2010-01-01T13:43:53Z</time>
      </trkpt>
      <trkpt lat="42.76865" lon="-0.55237">
        <ele>2077</ele>
        <time>2010-01-01T13:43:55Z</time>
      </trkpt>
      <trkpt lat="42.76855" lon="-0.55223">
        <ele>2059</ele>
        <time>2010-01-01T13:44:01Z</time>
      </trkpt>
      <trkpt lat="42.76853" lon="-0.55209">
        <ele>2052</ele>
        <time>2010-01-01T13:44:05Z</time>
      </trkpt>
      <trkpt lat="42.76856" lon="-0.55201">
        <ele>2050</ele>
        <time>2010-01-01T13:44:08Z</time>
      </trkpt>
      <trkpt lat="42.7686" lon="-0.55198">
        <ele>2051</ele>
        <time>2010-01-01T13:44:09Z</time>
      </trkpt>
      <trkpt lat="42.76862" lon="-0.55192">
        <ele>2050</ele>
        <time>2010-01-01T13:44:12Z</time>
      </trkpt>
      <trkpt lat="42.76869" lon="-0.55141">
        <ele>2035</ele>
        <time>2010-01-01T13:44:27Z</time>
      </trkpt>
      <trkpt lat="42.76859" lon="-0.55126">
        <ele>2024</ele>
        <time>2010-01-01T13:44:33Z</time>
      </trkpt>
      <trkpt lat="42.76863" lon="-0.55104">
        <ele>2018</ele>
        <time>2010-01-01T13:44:39Z</time>
      </trkpt>
      <trkpt lat="42.76878" lon="-0.55067">
        <ele>2023</ele>
        <time>2010-01-01T13:44:52Z</time>
      </trkpt>
      <trkpt lat="42.76891" lon="-0.55061">
        <ele>2029</ele>
        <time>2010-01-01T13:44:57Z</time>
      </trkpt>
      <trkpt lat="42.76899" lon="-0.55051">
        <ele>2034</ele>
        <time>2010-01-01T13:45:02Z</time>
      </trkpt>
      <trkpt lat="42.76907" lon="-0.55023">
        <ele>2041</ele>
        <time>2010-01-01T13:45:11Z</time>
      </trkpt>
      <trkpt lat="42.76913" lon="-0.54998">
        <ele>2044</ele>
        <time>2010-01-01T13:45:18Z</time>
      </trkpt>
      <trkpt lat="42.76917" lon="-0.54967">
        <ele>2045</ele>
        <time>2010-01-01T13:45:27Z</time>
      </trkpt>
      <trkpt lat="42.76934" lon="-0.54945">
        <ele>2043</ele>
        <time>2010-01-01T13:45:37Z</time>
      </trkpt>
      <trkpt lat="42.76908" lon="-0.54771">
        <ele>2023</ele>
        <time>2010-01-01T13:46:29Z</time>
      </trkpt>
      <trkpt lat="42.76909" lon="-0.5475">
        <ele>2024</ele>
        <time>2010-01-01T13:46:35Z</time>
      </trkpt>
      <trkpt lat="42.76906" lon="-0.54737">
        <ele>2024</ele>
        <time>2010-01-01T13:46:39Z</time>
      </trkpt>
      <trkpt lat="42.76895" lon="-0.54712">
        <ele>2023</ele>
        <time>2010-01-01T13:46:48Z</time>
      </trkpt>
      <trkpt lat="42.76896" lon="-0.54693">
        <ele>2022</ele>
        <time>2010-01-01T13:46:53Z</time>
      </trkpt>
      <trkpt lat="42.76891" lon="-0.54672">
        <ele>2018</ele>
        <time>2010-01-01T13:47:00Z</time>
      </trkpt>
      <trkpt lat="42.76886" lon="-0.5464">
        <ele>2011</ele>
        <time>2010-01-01T13:47:09Z</time>
      </trkpt>
      <trkpt lat="42.76887" lon="-0.5461">
        <ele>2006</ele>
        <time>2010-01-01T13:47:18Z</time>
      </trkpt>
      <trkpt lat="42.76896" lon="-0.54589">
        <ele>1999</ele>
        <time>2010-01-01T13:47:25Z</time>
      </trkpt>
      <trkpt lat="42.76896" lon="-0.54572">
        <ele>1993</ele>
        <time>2010-01-01T13:47:30Z</time>
      </trkpt>
      <trkpt lat="42.76903" lon="-0.54565">
        <ele>1987</ele>
        <time>2010-01-01T13:47:34Z</time>
      </trkpt>
      <trkpt lat="42.7691" lon="-0.54551">
        <ele>1976</ele>
        <time>2010-01-01T13:47:39Z</time>
      </trkpt>
      <trkpt lat="42.76915" lon="-0.54547">
        <ele>1971</ele>
        <time>2010-01-01T13:47:41Z</time>
      </trkpt>
      <trkpt lat="42.76936" lon="-0.54524">
        <ele>1952</ele>
        <time>2010-01-01T13:47:52Z</time>
      </trkpt>
      <trkpt lat="42.76934" lon="-0.545">
        <ele>1947</ele>
        <time>2010-01-01T13:47:59Z</time>
      </trkpt>
      <trkpt lat="42.76952" lon="-0.54492">
        <ele>1938</ele>
        <time>2010-01-01T13:48:06Z</time>
      </trkpt>
      <trkpt lat="42.76949" lon="-0.54481">
        <ele>1939</ele>
        <time>2010-01-01T13:48:10Z</time>
      </trkpt>
      <trkpt lat="42.76949" lon="-0.54471">
        <ele>1939</ele>
        <time>2010-01-01T13:48:13Z</time>
      </trkpt>
      <trkpt lat="42.76956" lon="-0.5446">
        <ele>1937</ele>
        <time>2010-01-01T13:48:17Z</time>
      </trkpt>
      <trkpt lat="42.76971" lon="-0.5445">
        <ele>1932</ele>
        <time>2010-01-01T13:48:24Z</time>
      </trkpt>
      <trkpt lat="42.76986" lon="-0.54447">
        <ele>1927</ele>
        <time>2010-01-01T13:48:30Z</time>
      </trkpt>
      <trkpt lat="42.76994" lon="-0.5444">
        <ele>1924</ele>
        <time>2010-01-01T13:48:34Z</time>
      </trkpt>
      <trkpt lat="42.77007" lon="-0.54437">
        <ele>1920</ele>
        <time>2010-01-01T13:48:39Z</time>
      </trkpt>
      <trkpt lat="42.77027" lon="-0.54429">
        <ele>1915</ele>
        <time>2010-01-01T13:48:47Z</time>
      </trkpt>
      <trkpt lat="42.77032" lon="-0.54404">
        <ele>1912</ele>
        <time>2010-01-01T13:48:55Z</time>
      </trkpt>
      <trkpt lat="42.77024" lon="-0.54358">
        <ele>1909</ele>
        <time>2010-01-01T13:49:09Z</time>
      </trkpt>
      <trkpt lat="42.77019" lon="-0.54343">
        <ele>1909</ele>
        <time>2010-01-01T13:49:14Z</time>
      </trkpt>
      <trkpt lat="42.77016" lon="-0.54315">
        <ele>1910</ele>
        <time>2010-01-01T13:49:22Z</time>
      </trkpt>
      <trkpt lat="42.77015" lon="-0.54301">
        <ele>1911</ele>
        <time>2010-01-01T13:49:26Z</time>
      </trkpt>
      <trkpt lat="42.77017" lon="-0.54278">
        <ele>1911</ele>
        <time>2010-01-01T13:49:33Z</time>
      </trkpt>
      <trkpt lat="42.77008" lon="-0.54258">
        <ele>1912</ele>
        <time>2010-01-01T13:49:40Z</time>
      </trkpt>
      <trkpt lat="42.77003" lon="-0.54255">
        <ele>1911</ele>
        <time>2010-01-01T13:49:42Z</time>
      </trkpt>
      <trkpt lat="42.76996" lon="-0.54241">
        <ele>1910</ele>
        <time>2010-01-01T13:49:47Z</time>
      </trkpt>
      <trkpt lat="42.7698" lon="-0.5422">
        <ele>1907</ele>
        <time>2010-01-01T13:49:56Z</time>
      </trkpt>
      <trkpt lat="42.76969" lon="-0.54212">
        <ele>1906</ele>
        <time>2010-01-01T13:50:01Z</time>
      </trkpt>
      <trkpt lat="42.76952" lon="-0.54204">
        <ele>1904</ele>
        <time>2010-01-01T13:50:08Z</time>
      </trkpt>
      <trkpt lat="42.76926" lon="-0.54196">
        <ele>1904</ele>
        <time>2010-01-01T13:50:19Z</time>
      </trkpt>
      <trkpt lat="42.76902" lon="-0.54184">
        <ele>1909</ele>
        <time>2010-01-01T13:50:29Z</time>
      </trkpt>
      <trkpt lat="42.7688" lon="-0.54177">
        <ele>1913</ele>
        <time>2010-01-01T13:50:38Z</time>
      </trkpt>
      <trkpt lat="42.76865" lon="-0.54153">
        <ele>1913</ele>
        <time>2010-01-01T13:50:47Z</time>
      </trkpt>
      <trkpt lat="42.76852" lon="-0.54119">
        <ele>1910</ele>
        <time>2010-01-01T13:50:59Z</time>
      </trkpt>
      <trkpt lat="42.76837" lon="-0.54092">
        <ele>1908</ele>
        <time>2010-01-01T13:51:08Z</time>
      </trkpt>
      <trkpt lat="42.7682" lon="-0.54066">
        <ele>1902</ele>
        <time>2010-01-01T13:51:19Z</time>
      </trkpt>
      <trkpt lat="42.768" lon="-0.54053">
        <ele>1894</ele>
        <time>2010-01-01T13:51:27Z</time>
      </trkpt>
      <trkpt lat="42.76758" lon="-0.54017">
        <ele>1888</ele>
        <time>2010-01-01T13:51:47Z</time>
      </trkpt>
      <trkpt lat="42.76739" lon="-0.54023">
        <ele>1884</ele>
        <time>2010-01-01T13:51:55Z</time>
      </trkpt>
      <trkpt lat="42.76721" lon="-0.54044">
        <ele>1886</ele>
        <time>2010-01-01T13:52:05Z</time>
      </trkpt>
      <trkpt lat="42.76706" lon="-0.54045">
        <ele>1884</ele>
        <time>2010-01-01T13:52:11Z</time>
      </trkpt>
      <trkpt lat="42.76701" lon="-0.54041">
        <ele>1881</ele>
        <time>2010-01-01T13:52:13Z</time>
      </trkpt>
      <trkpt lat="42.76697" lon="-0.54032">
        <ele>1878</ele>
        <time>2010-01-01T13:52:16Z</time>
      </trkpt>
      <trkpt lat="42.76703" lon="-0.54012">
        <ele>1874</ele>
        <time>2010-01-01T13:52:23Z</time>
      </trkpt>
      <trkpt lat="42.76701" lon="-0.53993">
        <ele>1868</ele>
        <time>2010-01-01T13:52:28Z</time>
      </trkpt>
      <trkpt lat="42.76703" lon="-0.53955">
        <ele>1855</ele>
        <time>2010-01-01T13:52:39Z</time>
      </trkpt>
      <trkpt lat="42.76699" lon="-0.53952">
        <ele>1854</ele>
        <time>2010-01-01T13:52:41Z</time>
      </trkpt>
      <trkpt lat="42.76696" lon="-0.53946">
        <ele>1853</ele>
        <time>2010-01-01T13:52:43Z</time>
      </trkpt>
      <trkpt lat="42.76694" lon="-0.53922">
        <ele>1848</ele>
        <time>2010-01-01T13:52:50Z</time>
      </trkpt>
      <trkpt lat="42.76689" lon="-0.53905">
        <ele>1845</ele>
        <time>2010-01-01T13:52:56Z</time>
      </trkpt>
      <trkpt lat="42.76678" lon="-0.53906">
        <ele>1844</ele>
        <time>2010-01-01T13:53:00Z</time>
      </trkpt>
      <trkpt lat="42.7667" lon="-0.5391">
        <ele>1844</ele>
        <time>2010-01-01T13:53:04Z</time>
      </trkpt>
      <trkpt lat="42.76661" lon="-0.5391">
        <ele>1841</ele>
        <time>2010-01-01T13:53:08Z</time>
      </trkpt>
      <trkpt lat="42.76656" lon="-0.53912">
        <ele>1841</ele>
        <time>2010-01-01T13:53:10Z</time>
      </trkpt>
      <trkpt lat="42.76651" lon="-0.5391">
        <ele>1839</ele>
        <time>2010-01-01T13:53:12Z</time>
      </trkpt>
      <trkpt lat="42.76629" lon="-0.53942">
        <ele>1833</ele>
        <time>2010-01-01T13:53:25Z</time>
      </trkpt>
      <trkpt lat="42.76605" lon="-0.5399">
        <ele>1823</ele>
        <time>2010-01-01T13:53:42Z</time>
      </trkpt>
      <trkpt lat="42.76595" lon="-0.54004">
        <ele>1820</ele>
        <time>2010-01-01T13:53:47Z</time>
      </trkpt>
      <trkpt lat="42.76589" lon="-0.53999">
        <ele>1816</ele>
        <time>2010-01-01T13:53:50Z</time>
      </trkpt>
      <trkpt lat="42.76576" lon="-0.53981">
        <ele>1809</ele>
        <time>2010-01-01T13:53:58Z</time>
      </trkpt>
      <trkpt lat="42.76571" lon="-0.53978">
        <ele>1807</ele>
        <time>2010-01-01T13:54:00Z</time>
      </trkpt>
      <trkpt lat="42.76566" lon="-0.53979">
        <ele>1806</ele>
        <time>2010-01-01T13:54:02Z</time>
      </trkpt>
      <trkpt lat="42.76561" lon="-0.53983">
        <ele>1804</ele>
        <time>2010-01-01T13:54:04Z</time>
      </trkpt>
      <trkpt lat="42.76557" lon="-0.53979">
        <ele>1802</ele>
        <time>2010-01-01T13:54:06Z</time>
      </trkpt>
      <trkpt lat="42.76542" lon="-0.53972">
        <ele>1795</ele>
        <time>2010-01-01T13:54:13Z</time>
      </trkpt>
      <trkpt lat="42.7653" lon="-0.53962">
        <ele>1790</ele>
        <time>2010-01-01T13:54:18Z</time>
      </trkpt>
      <trkpt lat="42.7652" lon="-0.53959">
        <ele>1787</ele>
        <time>2010-01-01T13:54:23Z</time>
      </trkpt>
      <trkpt lat="42.76515" lon="-0.53956">
        <ele>1786</ele>
        <time>2010-01-01T13:54:25Z</time>
      </trkpt>
      <trkpt lat="42.76501" lon="-0.53955">
        <ele>1782</ele>
        <time>2010-01-01T13:54:30Z</time>
      </trkpt>
      <trkpt lat="42.76488" lon="-0.5397">
        <ele>1778</ele>
        <time>2010-01-01T13:54:37Z</time>
      </trkpt>
      <trkpt lat="42.76476" lon="-0.53967">
        <ele>1775</ele>
        <time>2010-01-01T13:54:42Z</time>
      </trkpt>
      <trkpt lat="42.76472" lon="-0.53947">
        <ele>1774</ele>
        <time>2010-01-01T13:54:48Z</time>
      </trkpt>
      <trkpt lat="42.76466" lon="-0.53943">
        <ele>1772</ele>
        <time>2010-01-01T13:54:51Z</time>
      </trkpt>
      <trkpt lat="42.76461" lon="-0.53946">
        <ele>1770</ele>
        <time>2010-01-01T13:54:53Z</time>
      </trkpt>
      <trkpt lat="42.76457" lon="-0.53952">
        <ele>1769</ele>
        <time>2010-01-01T13:54:55Z</time>
      </trkpt>
      <trkpt lat="42.76452" lon="-0.53952">
        <ele>1768</ele>
        <time>2010-01-01T13:54:57Z</time>
      </trkpt>
      <trkpt lat="42.76438" lon="-0.53954">
        <ele>1764</ele>
        <time>2010-01-01T13:55:03Z</time>
      </trkpt>
      <trkpt lat="42.76418" lon="-0.53961">
        <ele>1760</ele>
        <time>2010-01-01T13:55:11Z</time>
      </trkpt>
      <trkpt lat="42.7641" lon="-0.5396">
        <ele>1759</ele>
        <time>2010-01-01T13:55:14Z</time>
      </trkpt>
      <trkpt lat="42.76391" lon="-0.53929">
        <ele>1755</ele>
        <time>2010-01-01T13:55:26Z</time>
      </trkpt>
      <trkpt lat="42.76384" lon="-0.53932">
        <ele>1753</ele>
        <time>2010-01-01T13:55:29Z</time>
      </trkpt>
      <trkpt lat="42.76359" lon="-0.53909">
        <ele>1743</ele>
        <time>2010-01-01T13:55:41Z</time>
      </trkpt>
      <trkpt lat="42.76348" lon="-0.53911">
        <ele>1743</ele>
        <time>2010-01-01T13:55:46Z</time>
      </trkpt>
      <trkpt lat="42.76328" lon="-0.5391">
        <ele>1742</ele>
        <time>2010-01-01T13:55:54Z</time>
      </trkpt>
      <trkpt lat="42.76318" lon="-0.53896">
        <ele>1741</ele>
        <time>2010-01-01T13:55:59Z</time>
      </trkpt>
      <trkpt lat="42.76315" lon="-0.53861">
        <ele>1736</ele>
        <time>2010-01-01T13:56:10Z</time>
      </trkpt>
      <trkpt lat="42.76288" lon="-0.53862">
        <ele>1735</ele>
        <time>2010-01-01T13:56:21Z</time>
      </trkpt>
      <trkpt lat="42.76282" lon="-0.53851">
        <ele>1732</ele>
        <time>2010-01-01T13:56:25Z</time>
      </trkpt>
      <trkpt lat="42.7628" lon="-0.53826">
        <ele>1727</ele>
        <time>2010-01-01T13:56:32Z</time>
      </trkpt>
      <trkpt lat="42.76265" lon="-0.53797">
        <ele>1725</ele>
        <time>2010-01-01T13:56:42Z</time>
      </trkpt>
      <trkpt lat="42.76255" lon="-0.53781">
        <ele>1724</ele>
        <time>2010-01-01T13:56:49Z</time>
      </trkpt>
      <trkpt lat="42.7624" lon="-0.53766">
        <ele>1722</ele>
        <time>2010-01-01T13:56:56Z</time>
      </trkpt>
      <trkpt lat="42.76214" lon="-0.53745">
        <ele>1721</ele>
        <time>2010-01-01T13:57:08Z</time>
      </trkpt>
      <trkpt lat="42.76208" lon="-0.5372">
        <ele>1721</ele>
        <time>2010-01-01T13:57:16Z</time>
      </trkpt>
      <trkpt lat="42.76218" lon="-0.53682">
        <ele>1725</ele>
        <time>2010-01-01T13:57:28Z</time>
      </trkpt>
      <trkpt lat="42.76215" lon="-0.53675">
        <ele>1730</ele>
        <time>2010-01-01T13:57:30Z</time>
      </trkpt>
      <trkpt lat="42.76199" lon="-0.53658">
        <ele>1744</ele>
        <time>2010-01-01T13:57:38Z</time>
      </trkpt>
      <trkpt lat="42.76189" lon="-0.53653">
        <ele>1749</ele>
        <time>2010-01-01T13:57:42Z</time>
      </trkpt>
      <trkpt lat="42.76182" lon="-0.53643">
        <ele>1753</ele>
        <time>2010-01-01T13:57:47Z</time>
      </trkpt>
      <trkpt lat="42.76179" lon="-0.53632">
        <ele>1755</ele>
        <time>2010-01-01T13:57:50Z</time>
      </trkpt>
      <trkpt lat="42.76181" lon="-0.53625">
        <ele>1756</ele>
        <time>2010-01-01T13:57:52Z</time>
      </trkpt>
      <trkpt lat="42.76177" lon="-0.53603">
        <ele>1759</ele>
        <time>2010-01-01T13:57:58Z</time>
      </trkpt>
      <trkpt lat="42.76166" lon="-0.53574">
        <ele>1762</ele>
        <time>2010-01-01T13:58:08Z</time>
      </trkpt>
      <trkpt lat="42.7616" lon="-0.53549">
        <ele>1767</ele>
        <time>2010-01-01T13:58:16Z</time>
      </trkpt>
      <trkpt lat="42.76152" lon="-0.5354">
        <ele>1771</ele>
        <time>2010-01-01T13:58:20Z</time>
      </trkpt>
      <trkpt lat="42.76139" lon="-0.53541">
        <ele>1770</ele>
        <time>2010-01-01T13:58:25Z</time>
      </trkpt>
      <trkpt lat="42.76136" lon="-0.53533">
        <ele>1775</ele>
        <time>2010-01-01T13:58:28Z</time>
      </trkpt>
      <trkpt lat="42.76125" lon="-0.53535">
        <ele>1777</ele>
        <time>2010-01-01T13:58:32Z</time>
      </trkpt>
      <trkpt lat="42.76118" lon="-0.53543">
        <ele>1776</ele>
        <time>2010-01-01T13:58:36Z</time>
      </trkpt>
      <trkpt lat="42.76115" lon="-0.53526">
        <ele>1785</ele>
        <time>2010-01-01T13:58:41Z</time>
      </trkpt>
      <trkpt lat="42.76108" lon="-0.53507">
        <ele>1802</ele>
        <time>2010-01-01T13:58:47Z</time>
      </trkpt>
      <trkpt lat="42.761" lon="-0.53508">
        <ele>1806</ele>
        <time>2010-01-01T13:58:50Z</time>
      </trkpt>
      <trkpt lat="42.76096" lon="-0.53496">
        <ele>1814</ele>
        <time>2010-01-01T13:58:54Z</time>
      </trkpt>
      <trkpt lat="42.76087" lon="-0.53497">
        <ele>1819</ele>
        <time>2010-01-01T13:58:58Z</time>
      </trkpt>
      <trkpt lat="42.76086" lon="-0.53476">
        <ele>1821</ele>
        <time>2010-01-01T13:59:04Z</time>
      </trkpt>
      <trkpt lat="42.76081" lon="-0.5347">
        <ele>1823</ele>
        <time>2010-01-01T13:59:07Z</time>
      </trkpt>
      <trkpt lat="42.76075" lon="-0.53467">
        <ele>1825</ele>
        <time>2010-01-01T13:59:09Z</time>
      </trkpt>
      <trkpt lat="42.76069" lon="-0.53469">
        <ele>1827</ele>
        <time>2010-01-01T13:59:12Z</time>
      </trkpt>
      <trkpt lat="42.76061" lon="-0.5347">
        <ele>1830</ele>
        <time>2010-01-01T13:59:15Z</time>
      </trkpt>
      <trkpt lat="42.76045" lon="-0.53454">
        <ele>1843</ele>
        <time>2010-01-01T13:59:23Z</time>
      </trkpt>
      <trkpt lat="42.76044" lon="-0.53444">
        <ele>1848</ele>
        <time>2010-01-01T13:59:26Z</time>
      </trkpt>
      <trkpt lat="42.76029" lon="-0.53444">
        <ele>1857</ele>
        <time>2010-01-01T13:59:32Z</time>
      </trkpt>
      <trkpt lat="42.76025" lon="-0.53448">
        <ele>1857</ele>
        <time>2010-01-01T13:59:34Z</time>
      </trkpt>
      <trkpt lat="42.76021" lon="-0.53433">
        <ele>1864</ele>
        <time>2010-01-01T13:59:38Z</time>
      </trkpt>
      <trkpt lat="42.76015" lon="-0.53431">
        <ele>1867</ele>
        <time>2010-01-01T13:59:41Z</time>
      </trkpt>
      <trkpt lat="42.75983" lon="-0.53447">
        <ele>1878</ele>
        <time>2010-01-01T13:59:55Z</time>
      </trkpt>
      <trkpt lat="42.75977" lon="-0.53453">
        <ele>1881</ele>
        <time>2010-01-01T13:59:57Z</time>
      </trkpt>
      <trkpt lat="42.75975" lon="-0.53449">
        <ele>1884</ele>
        <time>2010-01-01T13:59:59Z</time>
      </trkpt>
      <trkpt lat="42.75969" lon="-0.53449">
        <ele>1888</ele>
        <time>2010-01-01T14:00:01Z</time>
      </trkpt>
      <trkpt lat="42.75964" lon="-0.53445">
        <ele>1893</ele>
        <time>2010-01-01T14:00:04Z</time>
      </trkpt>
      <trkpt lat="42.75957" lon="-0.53453">
        <ele>1898</ele>
        <time>2010-01-01T14:00:07Z</time>
      </trkpt>
      <trkpt lat="42.75957" lon="-0.53462">
        <ele>1898</ele>
        <time>2010-01-01T14:00:10Z</time>
      </trkpt>
      <trkpt lat="42.75952" lon="-0.53483">
        <ele>1900</ele>
        <time>2010-01-01T14:00:17Z</time>
      </trkpt>
      <trkpt lat="42.75954" lon="-0.53504">
        <ele>1897</ele>
        <time>2010-01-01T14:00:22Z</time>
      </trkpt>
      <trkpt lat="42.75927" lon="-0.53522">
        <ele>1908</ele>
        <time>2010-01-01T14:00:34Z</time>
      </trkpt>
      <trkpt lat="42.75915" lon="-0.53525">
        <ele>1913</ele>
        <time>2010-01-01T14:00:40Z</time>
      </trkpt>
      <trkpt lat="42.75905" lon="-0.53521">
        <ele>1917</ele>
        <time>2010-01-01T14:00:43Z</time>
      </trkpt>
      <trkpt lat="42.75893" lon="-0.53524">
        <ele>1922</ele>
        <time>2010-01-01T14:00:49Z</time>
      </trkpt>
      <trkpt lat="42.75878" lon="-0.53535">
        <ele>1927</ele>
        <time>2010-01-01T14:00:55Z</time>
      </trkpt>
      <trkpt lat="42.75869" lon="-0.53536">
        <ele>1930</ele>
        <time>2010-01-01T14:00:59Z</time>
      </trkpt>
      <trkpt lat="42.75857" lon="-0.53545">
        <ele>1934</ele>
        <time>2010-01-01T14:01:04Z</time>
      </trkpt>
      <trkpt lat="42.75853" lon="-0.53552">
        <ele>1934</ele>
        <time>2010-01-01T14:01:07Z</time>
      </trkpt>
      <trkpt lat="42.75846" lon="-0.53557">
        <ele>1937</ele>
        <time>2010-01-01T14:01:10Z</time>
      </trkpt>
      <trkpt lat="42.75834" lon="-0.5356">
        <ele>1942</ele>
        <time>2010-01-01T14:01:15Z</time>
      </trkpt>
      <trkpt lat="42.75827" lon="-0.53564">
        <ele>1944</ele>
        <time>2010-01-01T14:01:18Z</time>
      </trkpt>
      <trkpt lat="42.75808" lon="-0.53578">
        <ele>1949</ele>
        <time>2010-01-01T14:01:27Z</time>
      </trkpt>
      <trkpt lat="42.75803" lon="-0.53589">
        <ele>1950</ele>
        <time>2010-01-01T14:01:31Z</time>
      </trkpt>
      <trkpt lat="42.75796" lon="-0.53596">
        <ele>1954</ele>
        <time>2010-01-01T14:01:34Z</time>
      </trkpt>
      <trkpt lat="42.7579" lon="-0.536">
        <ele>1961</ele>
        <time>2010-01-01T14:01:37Z</time>
      </trkpt>
      <trkpt lat="42.75785" lon="-0.53613">
        <ele>1961</ele>
        <time>2010-01-01T14:01:41Z</time>
      </trkpt>
      <trkpt lat="42.75768" lon="-0.5363">
        <ele>1969</ele>
        <time>2010-01-01T14:01:50Z</time>
      </trkpt>
      <trkpt lat="42.7575" lon="-0.53658">
        <ele>1972</ele>
        <time>2010-01-01T14:02:01Z</time>
      </trkpt>
      <trkpt lat="42.7574" lon="-0.53686">
        <ele>1969</ele>
        <time>2010-01-01T14:02:10Z</time>
      </trkpt>
      <trkpt lat="42.75732" lon="-0.53694">
        <ele>1974</ele>
        <time>2010-01-01T14:02:13Z</time>
      </trkpt>
      <trkpt lat="42.75718" lon="-0.53702">
        <ele>1981</ele>
        <time>2010-01-01T14:02:20Z</time>
      </trkpt>
      <trkpt lat="42.75714" lon="-0.53702">
        <ele>1984</ele>
        <time>2010-01-01T14:02:21Z</time>
      </trkpt>
      <trkpt lat="42.75705" lon="-0.53694">
        <ele>1992</ele>
        <time>2010-01-01T14:02:26Z</time>
      </trkpt>
      <trkpt lat="42.75696" lon="-0.53685">
        <ele>2000</ele>
        <time>2010-01-01T14:02:30Z</time>
      </trkpt>
      <trkpt lat="42.75692" lon="-0.53677">
        <ele>2005</ele>
        <time>2010-01-01T14:02:33Z</time>
      </trkpt>
      <trkpt lat="42.75691" lon="-0.53669">
        <ele>2009</ele>
        <time>2010-01-01T14:02:35Z</time>
      </trkpt>
      <trkpt lat="42.75697" lon="-0.53659">
        <ele>2010</ele>
        <time>2010-01-01T14:02:39Z</time>
      </trkpt>
      <trkpt lat="42.75708" lon="-0.53645">
        <ele>2010</ele>
        <time>2010-01-01T14:02:45Z</time>
      </trkpt>
      <trkpt lat="42.75705" lon="-0.53639">
        <ele>2014</ele>
        <time>2010-01-01T14:02:47Z</time>
      </trkpt>
      <trkpt lat="42.75706" lon="-0.53623">
        <ele>2021</ele>
        <time>2010-01-01T14:02:51Z</time>
      </trkpt>
      <trkpt lat="42.75715" lon="-0.5361">
        <ele>2023</ele>
        <time>2010-01-01T14:02:57Z</time>
      </trkpt>
      <trkpt lat="42.7571" lon="-0.53608">
        <ele>2026</ele>
        <time>2010-01-01T14:02:59Z</time>
      </trkpt>
      <trkpt lat="42.75716" lon="-0.53593">
        <ele>2029</ele>
        <time>2010-01-01T14:03:04Z</time>
      </trkpt>
      <trkpt lat="42.75719" lon="-0.53573">
        <ele>2036</ele>
        <time>2010-01-01T14:03:10Z</time>
      </trkpt>
      <trkpt lat="42.75725" lon="-0.5356">
        <ele>2038</ele>
        <time>2010-01-01T14:03:14Z</time>
      </trkpt>
      <trkpt lat="42.75716" lon="-0.53561">
        <ele>2043</ele>
        <time>2010-01-01T14:03:18Z</time>
      </trkpt>
      <trkpt lat="42.75718" lon="-0.53543">
        <ele>2049</ele>
        <time>2010-01-01T14:03:23Z</time>
      </trkpt>
      <trkpt lat="42.7572" lon="-0.53538">
        <ele>2050</ele>
        <time>2010-01-01T14:03:25Z</time>
      </trkpt>
      <trkpt lat="42.75698" lon="-0.53546">
        <ele>2058</ele>
        <time>2010-01-01T14:03:34Z</time>
      </trkpt>
      <trkpt lat="42.757" lon="-0.53538">
        <ele>2060</ele>
        <time>2010-01-01T14:03:37Z</time>
      </trkpt>
      <trkpt lat="42.75707" lon="-0.53529">
        <ele>2059</ele>
        <time>2010-01-01T14:03:40Z</time>
      </trkpt>
      <trkpt lat="42.75709" lon="-0.53512">
        <ele>2063</ele>
        <time>2010-01-01T14:03:46Z</time>
      </trkpt>
      <trkpt lat="42.7573" lon="-0.5347">
        <ele>2061</ele>
        <time>2010-01-01T14:04:00Z</time>
      </trkpt>
      <trkpt lat="42.75742" lon="-0.53453">
        <ele>2056</ele>
        <time>2010-01-01T14:04:07Z</time>
      </trkpt>
      <trkpt lat="42.75746" lon="-0.53441">
        <ele>2056</ele>
        <time>2010-01-01T14:04:11Z</time>
      </trkpt>
      <trkpt lat="42.75753" lon="-0.5343">
        <ele>2055</ele>
        <time>2010-01-01T14:04:16Z</time>
      </trkpt>
      <trkpt lat="42.75765" lon="-0.53414">
        <ele>2052</ele>
        <time>2010-01-01T14:04:22Z</time>
      </trkpt>
      <trkpt lat="42.75783" lon="-0.53396">
        <ele>2049</ele>
        <time>2010-01-01T14:04:31Z</time>
      </trkpt>
      <trkpt lat="42.75811" lon="-0.53351">
        <ele>2050</ele>
        <time>2010-01-01T14:04:49Z</time>
      </trkpt>
      <trkpt lat="42.75852" lon="-0.53312">
        <ele>2046</ele>
        <time>2010-01-01T14:05:09Z</time>
      </trkpt>
      <trkpt lat="42.75879" lon="-0.53243">
        <ele>2055</ele>
        <time>2010-01-01T14:05:32Z</time>
      </trkpt>
      <trkpt lat="42.75885" lon="-0.5323">
        <ele>2056</ele>
        <time>2010-01-01T14:05:36Z</time>
      </trkpt>
      <trkpt lat="42.75891" lon="-0.53181">
        <ele>2055</ele>
        <time>2010-01-01T14:05:51Z</time>
      </trkpt>
      <trkpt lat="42.75905" lon="-0.53123">
        <ele>2050</ele>
        <time>2010-01-01T14:06:09Z</time>
      </trkpt>
      <trkpt lat="42.75908" lon="-0.53091">
        <ele>2043</ele>
        <time>2010-01-01T14:06:18Z</time>
      </trkpt>
      <trkpt lat="42.75905" lon="-0.53044">
        <ele>2035</ele>
        <time>2010-01-01T14:06:32Z</time>
      </trkpt>
      <trkpt lat="42.75901" lon="-0.53082">
        <ele>2035</ele>
        <time>2010-01-01T14:06:43Z</time>
      </trkpt>
      <trkpt lat="42.75894" lon="-0.53113">
        <ele>2036</ele>
        <time>2010-01-01T14:06:53Z</time>
      </trkpt>
      <trkpt lat="42.75887" lon="-0.53132">
        <ele>2039</ele>
        <time>2010-01-01T14:06:59Z</time>
      </trkpt>
      <trkpt lat="42.75884" lon="-0.5312">
        <ele>2032</ele>
        <time>2010-01-01T14:07:03Z</time>
      </trkpt>
      <trkpt lat="42.75889" lon="-0.53075">
        <ele>2028</ele>
        <time>2010-01-01T14:07:16Z</time>
      </trkpt>
      <trkpt lat="42.75891" lon="-0.53047">
        <ele>2027</ele>
        <time>2010-01-01T14:07:25Z</time>
      </trkpt>
      <trkpt lat="42.75897" lon="-0.53022">
        <ele>2027</ele>
        <time>2010-01-01T14:07:33Z</time>
      </trkpt>
      <trkpt lat="42.75893" lon="-0.52988">
        <ele>2018</ele>
        <time>2010-01-01T14:07:43Z</time>
      </trkpt>
      <trkpt lat="42.75893" lon="-0.52969">
        <ele>2015</ele>
        <time>2010-01-01T14:07:48Z</time>
      </trkpt>
      <trkpt lat="42.75882" lon="-0.52959">
        <ele>2008</ele>
        <time>2010-01-01T14:07:54Z</time>
      </trkpt>
      <trkpt lat="42.75873" lon="-0.52959">
        <ele>2004</ele>
        <time>2010-01-01T14:07:57Z</time>
      </trkpt>
      <trkpt lat="42.75872" lon="-0.52952">
        <ele>2002</ele>
        <time>2010-01-01T14:07:59Z</time>
      </trkpt>
      <trkpt lat="42.75868" lon="-0.52947">
        <ele>1999</ele>
        <time>2010-01-01T14:08:01Z</time>
      </trkpt>
      <trkpt lat="42.75868" lon="-0.5296">
        <ele>2002</ele>
        <time>2010-01-01T14:08:05Z</time>
      </trkpt>
      <trkpt lat="42.75863" lon="-0.52946">
        <ele>1997</ele>
        <time>2010-01-01T14:08:10Z</time>
      </trkpt>
      <trkpt lat="42.75865" lon="-0.52969">
        <ele>2003</ele>
        <time>2010-01-01T14:08:17Z</time>
      </trkpt>
      <trkpt lat="42.75855" lon="-0.52954">
        <ele>1996</ele>
        <time>2010-01-01T14:08:23Z</time>
      </trkpt>
      <trkpt lat="42.75852" lon="-0.5294">
        <ele>1991</ele>
        <time>2010-01-01T14:08:27Z</time>
      </trkpt>
      <trkpt lat="42.75852" lon="-0.52902">
        <ele>1976</ele>
        <time>2010-01-01T14:08:38Z</time>
      </trkpt>
      <trkpt lat="42.75849" lon="-0.52924">
        <ele>1982</ele>
        <time>2010-01-01T14:08:45Z</time>
      </trkpt>
      <trkpt lat="42.75845" lon="-0.52906">
        <ele>1978</ele>
        <time>2010-01-01T14:08:50Z</time>
      </trkpt>
      <trkpt lat="42.75846" lon="-0.52878">
        <ele>1972</ele>
        <time>2010-01-01T14:08:59Z</time>
      </trkpt>
      <trkpt lat="42.75849" lon="-0.52872">
        <ele>1970</ele>
        <time>2010-01-01T14:09:01Z</time>
      </trkpt>
      <trkpt lat="42.75843" lon="-0.52875">
        <ele>1970</ele>
        <time>2010-01-01T14:09:04Z</time>
      </trkpt>
      <trkpt lat="42.7584" lon="-0.52881">
        <ele>1972</ele>
        <time>2010-01-01T14:09:06Z</time>
      </trkpt>
      <trkpt lat="42.75834" lon="-0.52871">
        <ele>1967</ele>
        <time>2010-01-01T14:09:09Z</time>
      </trkpt>
      <trkpt lat="42.75847" lon="-0.52844">
        <ele>1959</ele>
        <time>2010-01-01T14:09:19Z</time>
      </trkpt>
      <trkpt lat="42.75858" lon="-0.52847">
        <ele>1964</ele>
        <time>2010-01-01T14:09:23Z</time>
      </trkpt>
      <trkpt lat="42.75856" lon="-0.52838">
        <ele>1960</ele>
        <time>2010-01-01T14:09:26Z</time>
      </trkpt>
      <trkpt lat="42.75849" lon="-0.5283">
        <ele>1955</ele>
        <time>2010-01-01T14:09:30Z</time>
      </trkpt>
      <trkpt lat="42.75839" lon="-0.5284">
        <ele>1956</ele>
        <time>2010-01-01T14:09:35Z</time>
      </trkpt>
      <trkpt lat="42.75827" lon="-0.52864">
        <ele>1960</ele>
        <time>2010-01-01T14:09:43Z</time>
      </trkpt>
      <trkpt lat="42.7582" lon="-0.52874">
        <ele>1960</ele>
        <time>2010-01-01T14:09:47Z</time>
      </trkpt>
      <trkpt lat="42.75814" lon="-0.5289">
        <ele>1961</ele>
        <time>2010-01-01T14:09:53Z</time>
      </trkpt>
      <trkpt lat="42.7581" lon="-0.52883">
        <ele>1956</ele>
        <time>2010-01-01T14:09:55Z</time>
      </trkpt>
      <trkpt lat="42.75809" lon="-0.52892">
        <ele>1958</ele>
        <time>2010-01-01T14:09:58Z</time>
      </trkpt>
      <trkpt lat="42.75811" lon="-0.52951">
        <ele>1976</ele>
        <time>2010-01-01T14:10:15Z</time>
      </trkpt>
      <trkpt lat="42.75801" lon="-0.52994">
        <ele>1965</ele>
        <time>2010-01-01T14:10:28Z</time>
      </trkpt>
      <trkpt lat="42.75787" lon="-0.5303">
        <ele>1943</ele>
        <time>2010-01-01T14:10:40Z</time>
      </trkpt>
      <trkpt lat="42.75779" lon="-0.53">
        <ele>1938</ele>
        <time>2010-01-01T14:10:50Z</time>
      </trkpt>
      <trkpt lat="42.75774" lon="-0.5298">
        <ele>1940</ele>
        <time>2010-01-01T14:10:56Z</time>
      </trkpt>
      <trkpt lat="42.75764" lon="-0.52945">
        <ele>1925</ele>
        <time>2010-01-01T14:11:07Z</time>
      </trkpt>
      <trkpt lat="42.75761" lon="-0.52928">
        <ele>1920</ele>
        <time>2010-01-01T14:11:12Z</time>
      </trkpt>
      <trkpt lat="42.75762" lon="-0.52976">
        <ele>1922</ele>
        <time>2010-01-01T14:11:26Z</time>
      </trkpt>
      <trkpt lat="42.75748" lon="-0.53034">
        <ele>1904</ele>
        <time>2010-01-01T14:11:44Z</time>
      </trkpt>
      <trkpt lat="42.75747" lon="-0.53025">
        <ele>1903</ele>
        <time>2010-01-01T14:11:47Z</time>
      </trkpt>
      <trkpt lat="42.75747" lon="-0.52979">
        <ele>1905</ele>
        <time>2010-01-01T14:12:01Z</time>
      </trkpt>
      <trkpt lat="42.75738" lon="-0.52947">
        <ele>1900</ele>
        <time>2010-01-01T14:12:11Z</time>
      </trkpt>
      <trkpt lat="42.75746" lon="-0.52873">
        <ele>1899</ele>
        <time>2010-01-01T14:12:33Z</time>
      </trkpt>
      <trkpt lat="42.75737" lon="-0.52897">
        <ele>1897</ele>
        <time>2010-01-01T14:12:40Z</time>
      </trkpt>
      <trkpt lat="42.7574" lon="-0.52868">
        <ele>1892</ele>
        <time>2010-01-01T14:12:49Z</time>
      </trkpt>
      <trkpt lat="42.75735" lon="-0.52886">
        <ele>1894</ele>
        <time>2010-01-01T14:12:54Z</time>
      </trkpt>
      <trkpt lat="42.75737" lon="-0.52857">
        <ele>1887</ele>
        <time>2010-01-01T14:13:03Z</time>
      </trkpt>
      <trkpt lat="42.75729" lon="-0.52889">
        <ele>1890</ele>
        <time>2010-01-01T14:13:13Z</time>
      </trkpt>
      <trkpt lat="42.75725" lon="-0.5287">
        <ele>1880</ele>
        <time>2010-01-01T14:13:19Z</time>
      </trkpt>
      <trkpt lat="42.75727" lon="-0.52852">
        <ele>1876</ele>
        <time>2010-01-01T14:13:24Z</time>
      </trkpt>
      <trkpt lat="42.75729" lon="-0.52842">
        <ele>1876</ele>
        <time>2010-01-01T14:13:27Z</time>
      </trkpt>
      <trkpt lat="42.75726" lon="-0.52848">
        <ele>1874</ele>
        <time>2010-01-01T14:13:29Z</time>
      </trkpt>
      <trkpt lat="42.75717" lon="-0.52876">
        <ele>1877</ele>
        <time>2010-01-01T14:13:39Z</time>
      </trkpt>
      <trkpt lat="42.75714" lon="-0.52895">
        <ele>1880</ele>
        <time>2010-01-01T14:13:44Z</time>
      </trkpt>
      <trkpt lat="42.75711" lon="-0.52904">
        <ele>1878</ele>
        <time>2010-01-01T14:13:47Z</time>
      </trkpt>
      <trkpt lat="42.75707" lon="-0.5292">
        <ele>1877</ele>
        <time>2010-01-01T14:13:52Z</time>
      </trkpt>
      <trkpt lat="42.7569" lon="-0.52972">
        <ele>1865</ele>
        <time>2010-01-01T14:14:09Z</time>
      </trkpt>
      <trkpt lat="42.75692" lon="-0.5286">
        <ele>1858</ele>
        <time>2010-01-01T14:14:42Z</time>
      </trkpt>
      <trkpt lat="42.75694" lon="-0.52849">
        <ele>1855</ele>
        <time>2010-01-01T14:14:45Z</time>
      </trkpt>
      <trkpt lat="42.75698" lon="-0.52817">
        <ele>1849</ele>
        <time>2010-01-01T14:14:55Z</time>
      </trkpt>
      <trkpt lat="42.75691" lon="-0.52836">
        <ele>1850</ele>
        <time>2010-01-01T14:15:01Z</time>
      </trkpt>
      <trkpt lat="42.7568" lon="-0.52879">
        <ele>1851</ele>
        <time>2010-01-01T14:15:14Z</time>
      </trkpt>
      <trkpt lat="42.75677" lon="-0.52872">
        <ele>1849</ele>
        <time>2010-01-01T14:15:17Z</time>
      </trkpt>
      <trkpt lat="42.75676" lon="-0.52838">
        <ele>1845</ele>
        <time>2010-01-01T14:15:27Z</time>
      </trkpt>
      <trkpt lat="42.75677" lon="-0.52824">
        <ele>1843</ele>
        <time>2010-01-01T14:15:31Z</time>
      </trkpt>
      <trkpt lat="42.75682" lon="-0.52804">
        <ele>1841</ele>
        <time>2010-01-01T14:15:37Z</time>
      </trkpt>
      <trkpt lat="42.75675" lon="-0.5282">
        <ele>1842</ele>
        <time>2010-01-01T14:15:43Z</time>
      </trkpt>
      <trkpt lat="42.75667" lon="-0.5285">
        <ele>1842</ele>
        <time>2010-01-01T14:15:52Z</time>
      </trkpt>
      <trkpt lat="42.75668" lon="-0.52809">
        <ele>1837</ele>
        <time>2010-01-01T14:16:05Z</time>
      </trkpt>
      <trkpt lat="42.75671" lon="-0.52789">
        <ele>1835</ele>
        <time>2010-01-01T14:16:11Z</time>
      </trkpt>
      <trkpt lat="42.75655" lon="-0.52805">
        <ele>1832</ele>
        <time>2010-01-01T14:16:18Z</time>
      </trkpt>
      <trkpt lat="42.75651" lon="-0.52817">
        <ele>1832</ele>
        <time>2010-01-01T14:16:22Z</time>
      </trkpt>
      <trkpt lat="42.7564" lon="-0.52855">
        <ele>1827</ele>
        <time>2010-01-01T14:16:34Z</time>
      </trkpt>
      <trkpt lat="42.7563" lon="-0.52898">
        <ele>1825</ele>
        <time>2010-01-01T14:16:47Z</time>
      </trkpt>
      <trkpt lat="42.75621" lon="-0.52953">
        <ele>1829</ele>
        <time>2010-01-01T14:17:04Z</time>
      </trkpt>
      <trkpt lat="42.75614" lon="-0.52971">
        <ele>1825</ele>
        <time>2010-01-01T14:17:10Z</time>
      </trkpt>
      <trkpt lat="42.75609" lon="-0.52943">
        <ele>1820</ele>
        <time>2010-01-01T14:17:19Z</time>
      </trkpt>
      <trkpt lat="42.75607" lon="-0.52898">
        <ele>1815</ele>
        <time>2010-01-01T14:17:32Z</time>
      </trkpt>
      <trkpt lat="42.75608" lon="-0.52887">
        <ele>1814</ele>
        <time>2010-01-01T14:17:35Z</time>
      </trkpt>
      <trkpt lat="42.75602" lon="-0.52857">
        <ele>1809</ele>
        <time>2010-01-01T14:17:44Z</time>
      </trkpt>
      <trkpt lat="42.75597" lon="-0.52905">
        <ele>1810</ele>
        <time>2010-01-01T14:17:58Z</time>
      </trkpt>
      <trkpt lat="42.75583" lon="-0.52958">
        <ele>1805</ele>
        <time>2010-01-01T14:18:15Z</time>
      </trkpt>
      <trkpt lat="42.75574" lon="-0.52949">
        <ele>1799</ele>
        <time>2010-01-01T14:18:20Z</time>
      </trkpt>
      <trkpt lat="42.75569" lon="-0.52903">
        <ele>1794</ele>
        <time>2010-01-01T14:18:33Z</time>
      </trkpt>
      <trkpt lat="42.75562" lon="-0.52935">
        <ele>1791</ele>
        <time>2010-01-01T14:18:43Z</time>
      </trkpt>
      <trkpt lat="42.75554" lon="-0.5296">
        <ele>1790</ele>
        <time>2010-01-01T14:18:51Z</time>
      </trkpt>
      <trkpt lat="42.7555" lon="-0.52933">
        <ele>1784</ele>
        <time>2010-01-01T14:18:59Z</time>
      </trkpt>
      <trkpt lat="42.75549" lon="-0.5289">
        <ele>1781</ele>
        <time>2010-01-01T14:19:12Z</time>
      </trkpt>
      <trkpt lat="42.75554" lon="-0.52858">
        <ele>1780</ele>
        <time>2010-01-01T14:19:21Z</time>
      </trkpt>
      <trkpt lat="42.75549" lon="-0.52876">
        <ele>1779</ele>
        <time>2010-01-01T14:19:27Z</time>
      </trkpt>
      <trkpt lat="42.75544" lon="-0.52904">
        <ele>1780</ele>
        <time>2010-01-01T14:19:35Z</time>
      </trkpt>
      <trkpt lat="42.75535" lon="-0.52929">
        <ele>1775</ele>
        <time>2010-01-01T14:19:44Z</time>
      </trkpt>
      <trkpt lat="42.75526" lon="-0.52974">
        <ele>1777</ele>
        <time>2010-01-01T14:19:57Z</time>
      </trkpt>
      <trkpt lat="42.75526" lon="-0.52984">
        <ele>1780</ele>
        <time>2010-01-01T14:20:00Z</time>
      </trkpt>
      <trkpt lat="42.75524" lon="-0.5299">
        <ele>1780</ele>
        <time>2010-01-01T14:20:02Z</time>
      </trkpt>
      <trkpt lat="42.75518" lon="-0.52995">
        <ele>1778</ele>
        <time>2010-01-01T14:20:05Z</time>
      </trkpt>
      <trkpt lat="42.75513" lon="-0.53012">
        <ele>1780</ele>
        <time>2010-01-01T14:20:10Z</time>
      </trkpt>
      <trkpt lat="42.75498" lon="-0.53022">
        <ele>1774</ele>
        <time>2010-01-01T14:20:17Z</time>
      </trkpt>
      <trkpt lat="42.75488" lon="-0.53035">
        <ele>1771</ele>
        <time>2010-01-01T14:20:23Z</time>
      </trkpt>
      <trkpt lat="42.75476" lon="-0.53045">
        <ele>1767</ele>
        <time>2010-01-01T14:20:28Z</time>
      </trkpt>
      <trkpt lat="42.75466" lon="-0.53046">
        <ele>1764</ele>
        <time>2010-01-01T14:20:32Z</time>
      </trkpt>
      <trkpt lat="42.75469" lon="-0.53038">
        <ele>1762</ele>
        <time>2010-01-01T14:20:35Z</time>
      </trkpt>
      <trkpt lat="42.75479" lon="-0.53023">
        <ele>1763</ele>
        <time>2010-01-01T14:20:41Z</time>
      </trkpt>
      <trkpt lat="42.75492" lon="-0.52996">
        <ele>1763</ele>
        <time>2010-01-01T14:20:50Z</time>
      </trkpt>
      <trkpt lat="42.75494" lon="-0.52984">
        <ele>1761</ele>
        <time>2010-01-01T14:20:54Z</time>
      </trkpt>
      <trkpt lat="42.75489" lon="-0.52995">
        <ele>1761</ele>
        <time>2010-01-01T14:20:58Z</time>
      </trkpt>
      <trkpt lat="42.75474" lon="-0.53017">
        <ele>1759</ele>
        <time>2010-01-01T14:21:07Z</time>
      </trkpt>
      <trkpt lat="42.75465" lon="-0.53022">
        <ele>1756</ele>
        <time>2010-01-01T14:21:11Z</time>
      </trkpt>
      <trkpt lat="42.75464" lon="-0.53012">
        <ele>1753</ele>
        <time>2010-01-01T14:21:14Z</time>
      </trkpt>
      <trkpt lat="42.75468" lon="-0.53001">
        <ele>1752</ele>
        <time>2010-01-01T14:21:17Z</time>
      </trkpt>
      <trkpt lat="42.75488" lon="-0.52969">
        <ele>1754</ele>
        <time>2010-01-01T14:21:29Z</time>
      </trkpt>
      <trkpt lat="42.75478" lon="-0.52974">
        <ele>1750</ele>
        <time>2010-01-01T14:21:34Z</time>
      </trkpt>
      <trkpt lat="42.75465" lon="-0.52969">
        <ele>1742</ele>
        <time>2010-01-01T14:21:39Z</time>
      </trkpt>
      <trkpt lat="42.75474" lon="-0.52955">
        <ele>1743</ele>
        <time>2010-01-01T14:21:44Z</time>
      </trkpt>
      <trkpt lat="42.75458" lon="-0.52965">
        <ele>1738</ele>
        <time>2010-01-01T14:21:52Z</time>
      </trkpt>
      <trkpt lat="42.7547" lon="-0.52946">
        <ele>1738</ele>
        <time>2010-01-01T14:21:59Z</time>
      </trkpt>
      <trkpt lat="42.75448" lon="-0.52962">
        <ele>1733</ele>
        <time>2010-01-01T14:22:09Z</time>
      </trkpt>
      <trkpt lat="42.75446" lon="-0.52954">
        <ele>1729</ele>
        <time>2010-01-01T14:22:11Z</time>
      </trkpt>
      <trkpt lat="42.75456" lon="-0.52926">
        <ele>1725</ele>
        <time>2010-01-01T14:22:20Z</time>
      </trkpt>
      <trkpt lat="42.7545" lon="-0.52923">
        <ele>1721</ele>
        <time>2010-01-01T14:22:23Z</time>
      </trkpt>
      <trkpt lat="42.75437" lon="-0.52934">
        <ele>1721</ele>
        <time>2010-01-01T14:22:29Z</time>
      </trkpt>
      <trkpt lat="42.75453" lon="-0.52904">
        <ele>1715</ele>
        <time>2010-01-01T14:22:40Z</time>
      </trkpt>
      <trkpt lat="42.75462" lon="-0.52899">
        <ele>1717</ele>
        <time>2010-01-01T14:22:44Z</time>
      </trkpt>
      <trkpt lat="42.75476" lon="-0.52855">
        <ele>1711</ele>
        <time>2010-01-01T14:22:58Z</time>
      </trkpt>
      <trkpt lat="42.75494" lon="-0.52831">
        <ele>1720</ele>
        <time>2010-01-01T14:23:08Z</time>
      </trkpt>
      <trkpt lat="42.7551" lon="-0.52803">
        <ele>1722</ele>
        <time>2010-01-01T14:23:18Z</time>
      </trkpt>
      <trkpt lat="42.75493" lon="-0.52822">
        <ele>1715</ele>
        <time>2010-01-01T14:23:27Z</time>
      </trkpt>
      <trkpt lat="42.75494" lon="-0.52813">
        <ele>1712</ele>
        <time>2010-01-01T14:23:30Z</time>
      </trkpt>
      <trkpt lat="42.75511" lon="-0.52764">
        <ele>1698</ele>
        <time>2010-01-01T14:23:46Z</time>
      </trkpt>
      <trkpt lat="42.75527" lon="-0.52724">
        <ele>1682</ele>
        <time>2010-01-01T14:23:59Z</time>
      </trkpt>
      <trkpt lat="42.75514" lon="-0.52735">
        <ele>1680</ele>
        <time>2010-01-01T14:24:05Z</time>
      </trkpt>
      <trkpt lat="42.75516" lon="-0.52717">
        <ele>1668</ele>
        <time>2010-01-01T14:24:10Z</time>
      </trkpt>
      <trkpt lat="42.7551" lon="-0.52726">
        <ele>1670</ele>
        <time>2010-01-01T14:24:14Z</time>
      </trkpt>
      <trkpt lat="42.75508" lon="-0.5272">
        <ele>1663</ele>
        <time>2010-01-01T14:24:16Z</time>
      </trkpt>
      <trkpt lat="42.7553" lon="-0.52657">
        <ele>1647</ele>
        <time>2010-01-01T14:24:36Z</time>
      </trkpt>
      <trkpt lat="42.75567" lon="-0.52627">
        <ele>1658</ele>
        <time>2010-01-01T14:24:54Z</time>
      </trkpt>
      <trkpt lat="42.75575" lon="-0.52594">
        <ele>1650</ele>
        <time>2010-01-01T14:25:04Z</time>
      </trkpt>
      <trkpt lat="42.75558" lon="-0.52626">
        <ele>1652</ele>
        <time>2010-01-01T14:25:16Z</time>
      </trkpt>
      <trkpt lat="42.75566" lon="-0.52601">
        <ele>1647</ele>
        <time>2010-01-01T14:25:23Z</time>
      </trkpt>
      <trkpt lat="42.75562" lon="-0.52605">
        <ele>1646</ele>
        <time>2010-01-01T14:25:26Z</time>
      </trkpt>
      <trkpt lat="42.75557" lon="-0.52587">
        <ele>1638</ele>
        <time>2010-01-01T14:25:31Z</time>
      </trkpt>
      <trkpt lat="42.75551" lon="-0.5262">
        <ele>1645</ele>
        <time>2010-01-01T14:25:41Z</time>
      </trkpt>
      <trkpt lat="42.7555" lon="-0.52609">
        <ele>1640</ele>
        <time>2010-01-01T14:25:44Z</time>
      </trkpt>
      <trkpt lat="42.75547" lon="-0.52619">
        <ele>1642</ele>
        <time>2010-01-01T14:25:48Z</time>
      </trkpt>
      <trkpt lat="42.7554" lon="-0.52624">
        <ele>1639</ele>
        <time>2010-01-01T14:25:51Z</time>
      </trkpt>
      <trkpt lat="42.75539" lon="-0.52614">
        <ele>1635</ele>
        <time>2010-01-01T14:25:54Z</time>
      </trkpt>
      <trkpt lat="42.75541" lon="-0.52597">
        <ele>1631</ele>
        <time>2010-01-01T14:25:59Z</time>
      </trkpt>
      <trkpt lat="42.75531" lon="-0.52612">
        <ele>1628</ele>
        <time>2010-01-01T14:26:05Z</time>
      </trkpt>
      <trkpt lat="42.75524" lon="-0.52618">
        <ele>1625</ele>
        <time>2010-01-01T14:26:08Z</time>
      </trkpt>
      <trkpt lat="42.75529" lon="-0.52572">
        <ele>1615</ele>
        <time>2010-01-01T14:26:22Z</time>
      </trkpt>
      <trkpt lat="42.75526" lon="-0.52578">
        <ele>1615</ele>
        <time>2010-01-01T14:26:24Z</time>
      </trkpt>
      <trkpt lat="42.75485" lon="-0.52631">
        <ele>1600</ele>
        <time>2010-01-01T14:26:46Z</time>
      </trkpt>
      <trkpt lat="42.75491" lon="-0.52614">
        <ele>1599</ele>
        <time>2010-01-01T14:26:52Z</time>
      </trkpt>
      <trkpt lat="42.75486" lon="-0.52616">
        <ele>1596</ele>
        <time>2010-01-01T14:26:54Z</time>
      </trkpt>
      <trkpt lat="42.75461" lon="-0.52681">
        <ele>1605</ele>
        <time>2010-01-01T14:27:15Z</time>
      </trkpt>
      <trkpt lat="42.7546" lon="-0.5267">
        <ele>1598</ele>
        <time>2010-01-01T14:27:18Z</time>
      </trkpt>
      <trkpt lat="42.75462" lon="-0.52644">
        <ele>1589</ele>
        <time>2010-01-01T14:27:26Z</time>
      </trkpt>
      <trkpt lat="42.75456" lon="-0.5267">
        <ele>1595</ele>
        <time>2010-01-01T14:27:34Z</time>
      </trkpt>
      <trkpt lat="42.75461" lon="-0.52631">
        <ele>1585</ele>
        <time>2010-01-01T14:27:46Z</time>
      </trkpt>
      <trkpt lat="42.75448" lon="-0.52669">
        <ele>1589</ele>
        <time>2010-01-01T14:27:59Z</time>
      </trkpt>
      <trkpt lat="42.75439" lon="-0.52701">
        <ele>1598</ele>
        <time>2010-01-01T14:28:09Z</time>
      </trkpt>
      <trkpt lat="42.7543" lon="-0.52721">
        <ele>1601</ele>
        <time>2010-01-01T14:28:16Z</time>
      </trkpt>
      <trkpt lat="42.75429" lon="-0.52712">
        <ele>1596</ele>
        <time>2010-01-01T14:28:19Z</time>
      </trkpt>
      <trkpt lat="42.75432" lon="-0.52674">
        <ele>1580</ele>
        <time>2010-01-01T14:28:30Z</time>
      </trkpt>
      <trkpt lat="42.75435" lon="-0.52651">
        <ele>1574</ele>
        <time>2010-01-01T14:28:37Z</time>
      </trkpt>
      <trkpt lat="42.7543" lon="-0.52663">
        <ele>1574</ele>
        <time>2010-01-01T14:28:41Z</time>
      </trkpt>
      <trkpt lat="42.75432" lon="-0.52634">
        <ele>1568</ele>
        <time>2010-01-01T14:28:50Z</time>
      </trkpt>
      <trkpt lat="42.75421" lon="-0.52667">
        <ele>1569</ele>
        <time>2010-01-01T14:29:00Z</time>
      </trkpt>
      <trkpt lat="42.7542" lon="-0.52641">
        <ele>1562</ele>
        <time>2010-01-01T14:29:08Z</time>
      </trkpt>
      <trkpt lat="42.75432" lon="-0.52597">
        <ele>1556</ele>
        <time>2010-01-01T14:29:22Z</time>
      </trkpt>
      <trkpt lat="42.75447" lon="-0.52547">
        <ele>1549</ele>
        <time>2010-01-01T14:29:38Z</time>
      </trkpt>
      <trkpt lat="42.7543" lon="-0.52579">
        <ele>1549</ele>
        <time>2010-01-01T14:29:49Z</time>
      </trkpt>
      <trkpt lat="42.75409" lon="-0.52611">
        <ele>1547</ele>
        <time>2010-01-01T14:30:02Z</time>
      </trkpt>
      <trkpt lat="42.75411" lon="-0.52597">
        <ele>1543</ele>
        <time>2010-01-01T14:30:06Z</time>
      </trkpt>
      <trkpt lat="42.75433" lon="-0.52528">
        <ele>1534</ele>
        <time>2010-01-01T14:30:28Z</time>
      </trkpt>
      <trkpt lat="42.75434" lon="-0.52513">
        <ele>1528</ele>
        <time>2010-01-01T14:30:33Z</time>
      </trkpt>
      <trkpt lat="42.75431" lon="-0.52486">
        <ele>1517</ele>
        <time>2010-01-01T14:30:41Z</time>
      </trkpt>
      <trkpt lat="42.75435" lon="-0.52462">
        <ele>1509</ele>
        <time>2010-01-01T14:30:48Z</time>
      </trkpt>
      <trkpt lat="42.75459" lon="-0.52445">
        <ele>1517</ele>
        <time>2010-01-01T14:30:59Z</time>
      </trkpt>
      <trkpt lat="42.75485" lon="-0.52437">
        <ele>1527</ele>
        <time>2010-01-01T14:31:10Z</time>
      </trkpt>
      <trkpt lat="42.75493" lon="-0.52394">
        <ele>1510</ele>
        <time>2010-01-01T14:31:23Z</time>
      </trkpt>
      <trkpt lat="42.75502" lon="-0.52377">
        <ele>1507</ele>
        <time>2010-01-01T14:31:29Z</time>
      </trkpt>
      <trkpt lat="42.75509" lon="-0.52368">
        <ele>1506</ele>
        <time>2010-01-01T14:31:33Z</time>
      </trkpt>
      <trkpt lat="42.75493" lon="-0.52377">
        <ele>1504</ele>
        <time>2010-01-01T14:31:39Z</time>
      </trkpt>
      <trkpt lat="42.75481" lon="-0.52398">
        <ele>1506</ele>
        <time>2010-01-01T14:31:47Z</time>
      </trkpt>
      <trkpt lat="42.75472" lon="-0.52406">
        <ele>1506</ele>
        <time>2010-01-01T14:31:52Z</time>
      </trkpt>
      <trkpt lat="42.75477" lon="-0.52383">
        <ele>1499</ele>
        <time>2010-01-01T14:31:59Z</time>
      </trkpt>
      <trkpt lat="42.75487" lon="-0.5235">
        <ele>1493</ele>
        <time>2010-01-01T14:32:09Z</time>
      </trkpt>
      <trkpt lat="42.75476" lon="-0.52364">
        <ele>1494</ele>
        <time>2010-01-01T14:32:15Z</time>
      </trkpt>
      <trkpt lat="42.75471" lon="-0.52366">
        <ele>1493</ele>
        <time>2010-01-01T14:32:18Z</time>
      </trkpt>
      <trkpt lat="42.75486" lon="-0.52342">
        <ele>1491</ele>
        <time>2010-01-01T14:32:27Z</time>
      </trkpt>
      <trkpt lat="42.75483" lon="-0.52336">
        <ele>1488</ele>
        <time>2010-01-01T14:32:29Z</time>
      </trkpt>
      <trkpt lat="42.75461" lon="-0.52358">
        <ele>1487</ele>
        <time>2010-01-01T14:32:40Z</time>
      </trkpt>
      <trkpt lat="42.75467" lon="-0.52345">
        <ele>1487</ele>
        <time>2010-01-01T14:32:45Z</time>
      </trkpt>
      <trkpt lat="42.75452" lon="-0.52349">
        <ele>1483</ele>
        <time>2010-01-01T14:32:51Z</time>
      </trkpt>
      <trkpt lat="42.75438" lon="-0.52334">
        <ele>1476</ele>
        <time>2010-01-01T14:32:58Z</time>
      </trkpt>
      <trkpt lat="42.75415" lon="-0.52346">
        <ele>1468</ele>
        <time>2010-01-01T14:33:08Z</time>
      </trkpt>
      <trkpt lat="42.75406" lon="-0.52362">
        <ele>1464</ele>
        <time>2010-01-01T14:33:14Z</time>
      </trkpt>
      <trkpt lat="42.75399" lon="-0.52363">
        <ele>1461</ele>
        <time>2010-01-01T14:33:17Z</time>
      </trkpt>
      <trkpt lat="42.754" lon="-0.52337">
        <ele>1460</ele>
        <time>2010-01-01T14:33:25Z</time>
      </trkpt>
      <trkpt lat="42.75411" lon="-0.52306">
        <ele>1461</ele>
        <time>2010-01-01T14:33:35Z</time>
      </trkpt>
      <trkpt lat="42.75427" lon="-0.52292">
        <ele>1465</ele>
        <time>2010-01-01T14:33:42Z</time>
      </trkpt>
      <trkpt lat="42.75444" lon="-0.52267">
        <ele>1467</ele>
        <time>2010-01-01T14:33:52Z</time>
      </trkpt>
      <trkpt lat="42.7546" lon="-0.52247">
        <ele>1464</ele>
        <time>2010-01-01T14:34:01Z</time>
      </trkpt>
      <trkpt lat="42.75481" lon="-0.52244">
        <ele>1464</ele>
        <time>2010-01-01T14:34:09Z</time>
      </trkpt>
      <trkpt lat="42.7547" lon="-0.52236">
        <ele>1460</ele>
        <time>2010-01-01T14:34:15Z</time>
      </trkpt>
      <trkpt lat="42.75453" lon="-0.52232">
        <ele>1456</ele>
        <time>2010-01-01T14:34:22Z</time>
      </trkpt>
      <trkpt lat="42.75437" lon="-0.52244">
        <ele>1459</ele>
        <time>2010-01-01T14:34:29Z</time>
      </trkpt>
      <trkpt lat="42.75422" lon="-0.52246">
        <ele>1456</ele>
        <time>2010-01-01T14:34:35Z</time>
      </trkpt>
      <trkpt lat="42.7541" lon="-0.52255">
        <ele>1453</ele>
        <time>2010-01-01T14:34:40Z</time>
      </trkpt>
      <trkpt lat="42.75371" lon="-0.52255">
        <ele>1434</ele>
        <time>2010-01-01T14:34:56Z</time>
      </trkpt>
      <trkpt lat="42.75354" lon="-0.52264">
        <ele>1426</ele>
        <time>2010-01-01T14:35:03Z</time>
      </trkpt>
      <trkpt lat="42.75363" lon="-0.52249">
        <ele>1428</ele>
        <time>2010-01-01T14:35:09Z</time>
      </trkpt>
      <trkpt lat="42.75375" lon="-0.52239">
        <ele>1433</ele>
        <time>2010-01-01T14:35:14Z</time>
      </trkpt>
      <trkpt lat="42.75407" lon="-0.52223">
        <ele>1443</ele>
        <time>2010-01-01T14:35:28Z</time>
      </trkpt>
      <trkpt lat="42.75425" lon="-0.5221">
        <ele>1440</ele>
        <time>2010-01-01T14:35:36Z</time>
      </trkpt>
      <trkpt lat="42.75443" lon="-0.52183">
        <ele>1432</ele>
        <time>2010-01-01T14:35:47Z</time>
      </trkpt>
      <trkpt lat="42.75472" lon="-0.5215">
        <ele>1423</ele>
        <time>2010-01-01T14:36:02Z</time>
      </trkpt>
      <trkpt lat="42.75431" lon="-0.52177">
        <ele>1426</ele>
        <time>2010-01-01T14:36:20Z</time>
      </trkpt>
      <trkpt lat="42.754" lon="-0.52187">
        <ele>1422</ele>
        <time>2010-01-01T14:36:33Z</time>
      </trkpt>
      <trkpt lat="42.75376" lon="-0.52177">
        <ele>1411</ele>
        <time>2010-01-01T14:36:42Z</time>
      </trkpt>
      <trkpt lat="42.75355" lon="-0.52158">
        <ele>1399</ele>
        <time>2010-01-01T14:36:52Z</time>
      </trkpt>
      <trkpt lat="42.75321" lon="-0.52149">
        <ele>1382</ele>
        <time>2010-01-01T14:37:06Z</time>
      </trkpt>
      <trkpt lat="42.75354" lon="-0.52122">
        <ele>1391</ele>
        <time>2010-01-01T14:37:22Z</time>
      </trkpt>
      <trkpt lat="42.754" lon="-0.52127">
        <ele>1399</ele>
        <time>2010-01-01T14:37:40Z</time>
      </trkpt>
      <trkpt lat="42.7542" lon="-0.5211">
        <ele>1395</ele>
        <time>2010-01-01T14:37:50Z</time>
      </trkpt>
      <trkpt lat="42.75433" lon="-0.52093">
        <ele>1390</ele>
        <time>2010-01-01T14:37:57Z</time>
      </trkpt>
      <trkpt lat="42.75441" lon="-0.52057">
        <ele>1376</ele>
        <time>2010-01-01T14:38:08Z</time>
      </trkpt>
      <trkpt lat="42.75462" lon="-0.52042">
        <ele>1372</ele>
        <time>2010-01-01T14:38:18Z</time>
      </trkpt>
      <trkpt lat="42.75489" lon="-0.5205">
        <ele>1376</ele>
        <time>2010-01-01T14:38:29Z</time>
      </trkpt>
      <trkpt lat="42.7551" lon="-0.52049">
        <ele>1374</ele>
        <time>2010-01-01T14:38:37Z</time>
      </trkpt>
      <trkpt lat="42.7554" lon="-0.52023">
        <ele>1369</ele>
        <time>2010-01-01T14:38:51Z</time>
      </trkpt>
      <trkpt lat="42.75565" lon="-0.51966">
        <ele>1355</ele>
        <time>2010-01-01T14:39:11Z</time>
      </trkpt>
      <trkpt lat="42.75573" lon="-0.51957">
        <ele>1354</ele>
        <time>2010-01-01T14:39:15Z</time>
      </trkpt>
      <trkpt lat="42.75582" lon="-0.51953">
        <ele>1356</ele>
        <time>2010-01-01T14:39:19Z</time>
      </trkpt>
      <trkpt lat="42.756" lon="-0.51942">
        <ele>1354</ele>
        <time>2010-01-01T14:39:27Z</time>
      </trkpt>
      <trkpt lat="42.75607" lon="-0.51932">
        <ele>1351</ele>
        <time>2010-01-01T14:39:31Z</time>
      </trkpt>
      <trkpt lat="42.75616" lon="-0.51925">
        <ele>1351</ele>
        <time>2010-01-01T14:39:35Z</time>
      </trkpt>
      <trkpt lat="42.75624" lon="-0.51915">
        <ele>1349</ele>
        <time>2010-01-01T14:39:39Z</time>
      </trkpt>
      <trkpt lat="42.75634" lon="-0.51911">
        <ele>1351</ele>
        <time>2010-01-01T14:39:44Z</time>
      </trkpt>
      <trkpt lat="42.75651" lon="-0.51901">
        <ele>1355</ele>
        <time>2010-01-01T14:39:51Z</time>
      </trkpt>
      <trkpt lat="42.75641" lon="-0.51897">
        <ele>1346</ele>
        <time>2010-01-01T14:39:55Z</time>
      </trkpt>
      <trkpt lat="42.75605" lon="-0.51912">
        <ele>1342</ele>
        <time>2010-01-01T14:40:10Z</time>
      </trkpt>
      <trkpt lat="42.75598" lon="-0.51903">
        <ele>1337</ele>
        <time>2010-01-01T14:40:14Z</time>
      </trkpt>
      <trkpt lat="42.75604" lon="-0.51892">
        <ele>1333</ele>
        <time>2010-01-01T14:40:18Z</time>
      </trkpt>
      <trkpt lat="42.75612" lon="-0.51883">
        <ele>1329</ele>
        <time>2010-01-01T14:40:22Z</time>
      </trkpt>
      <trkpt lat="42.75622" lon="-0.51878">
        <ele>1329</ele>
        <time>2010-01-01T14:40:26Z</time>
      </trkpt>
      <trkpt lat="42.75632" lon="-0.51875">
        <ele>1330</ele>
        <time>2010-01-01T14:40:31Z</time>
      </trkpt>
      <trkpt lat="42.7564" lon="-0.51868">
        <ele>1328</ele>
        <time>2010-01-01T14:40:34Z</time>
      </trkpt>
      <trkpt lat="42.75647" lon="-0.51859">
        <ele>1328</ele>
        <time>2010-01-01T14:40:38Z</time>
      </trkpt>
      <trkpt lat="42.75638" lon="-0.51863">
        <ele>1324</ele>
        <time>2010-01-01T14:40:42Z</time>
      </trkpt>
      <trkpt lat="42.7563" lon="-0.51868">
        <ele>1326</ele>
        <time>2010-01-01T14:40:46Z</time>
      </trkpt>
      <trkpt lat="42.7562" lon="-0.51867">
        <ele>1324</ele>
        <time>2010-01-01T14:40:50Z</time>
      </trkpt>
      <trkpt lat="42.75599" lon="-0.51875">
        <ele>1325</ele>
        <time>2010-01-01T14:40:58Z</time>
      </trkpt>
      <trkpt lat="42.7559" lon="-0.51872">
        <ele>1323</ele>
        <time>2010-01-01T14:41:02Z</time>
      </trkpt>
      <trkpt lat="42.75595" lon="-0.5186">
        <ele>1318</ele>
        <time>2010-01-01T14:41:06Z</time>
      </trkpt>
      <trkpt lat="42.75607" lon="-0.51839">
        <ele>1315</ele>
        <time>2010-01-01T14:41:14Z</time>
      </trkpt>
      <trkpt lat="42.75616" lon="-0.51832">
        <ele>1315</ele>
        <time>2010-01-01T14:41:18Z</time>
      </trkpt>
      <trkpt lat="42.75642" lon="-0.51793">
        <ele>1311</ele>
        <time>2010-01-01T14:41:34Z</time>
      </trkpt>
      <trkpt lat="42.75634" lon="-0.51798">
        <ele>1310</ele>
        <time>2010-01-01T14:41:37Z</time>
      </trkpt>
      <trkpt lat="42.75624" lon="-0.51801">
        <ele>1309</ele>
        <time>2010-01-01T14:41:41Z</time>
      </trkpt>
      <trkpt lat="42.75614" lon="-0.518">
        <ele>1306</ele>
        <time>2010-01-01T14:41:45Z</time>
      </trkpt>
      <trkpt lat="42.75606" lon="-0.51806">
        <ele>1306</ele>
        <time>2010-01-01T14:41:49Z</time>
      </trkpt>
      <trkpt lat="42.75608" lon="-0.51791">
        <ele>1302</ele>
        <time>2010-01-01T14:41:54Z</time>
      </trkpt>
      <trkpt lat="42.75613" lon="-0.51781">
        <ele>1300</ele>
        <time>2010-01-01T14:41:57Z</time>
      </trkpt>
      <trkpt lat="42.75605" lon="-0.51773">
        <ele>1297</ele>
        <time>2010-01-01T14:42:01Z</time>
      </trkpt>
      <trkpt lat="42.75611" lon="-0.51761">
        <ele>1296</ele>
        <time>2010-01-01T14:42:05Z</time>
      </trkpt>
      <trkpt lat="42.75617" lon="-0.51752">
        <ele>1295</ele>
        <time>2010-01-01T14:42:09Z</time>
      </trkpt>
      <trkpt lat="42.75616" lon="-0.5174">
        <ele>1290</ele>
        <time>2010-01-01T14:42:13Z</time>
      </trkpt>
      <trkpt lat="42.75608" lon="-0.51732">
        <ele>1285</ele>
        <time>2010-01-01T14:42:17Z</time>
      </trkpt>
      <trkpt lat="42.75598" lon="-0.51734">
        <ele>1282</ele>
        <time>2010-01-01T14:42:20Z</time>
      </trkpt>
      <trkpt lat="42.75593" lon="-0.51722">
        <ele>1276</ele>
        <time>2010-01-01T14:42:24Z</time>
      </trkpt>
      <trkpt lat="42.75598" lon="-0.51712">
        <ele>1274</ele>
        <time>2010-01-01T14:42:28Z</time>
      </trkpt>
      <trkpt lat="42.75615" lon="-0.51692">
        <ele>1272</ele>
        <time>2010-01-01T14:42:37Z</time>
      </trkpt>
      <trkpt lat="42.75615" lon="-0.51678">
        <ele>1266</ele>
        <time>2010-01-01T14:42:41Z</time>
      </trkpt>
      <trkpt lat="42.75622" lon="-0.5167">
        <ele>1266</ele>
        <time>2010-01-01T14:42:45Z</time>
      </trkpt>
      <trkpt lat="42.75611" lon="-0.51671">
        <ele>1261</ele>
        <time>2010-01-01T14:42:49Z</time>
      </trkpt>
      <trkpt lat="42.75601" lon="-0.5167">
        <ele>1258</ele>
        <time>2010-01-01T14:42:53Z</time>
      </trkpt>
      <trkpt lat="42.7557" lon="-0.5167">
        <ele>1254</ele>
        <time>2010-01-01T14:43:06Z</time>
      </trkpt>
      <trkpt lat="42.75571" lon="-0.51655">
        <ele>1249</ele>
        <time>2010-01-01T14:43:10Z</time>
      </trkpt>
      <trkpt lat="42.75578" lon="-0.51645">
        <ele>1245</ele>
        <time>2010-01-01T14:43:14Z</time>
      </trkpt>
      <trkpt lat="42.75572" lon="-0.51635">
        <ele>1243</ele>
        <time>2010-01-01T14:43:18Z</time>
      </trkpt>
      <trkpt lat="42.75576" lon="-0.51622">
        <ele>1239</ele>
        <time>2010-01-01T14:43:22Z</time>
      </trkpt>
      <trkpt lat="42.75585" lon="-0.51612">
        <ele>1237</ele>
        <time>2010-01-01T14:43:27Z</time>
      </trkpt>
      <trkpt lat="42.7559" lon="-0.51602">
        <ele>1238</ele>
        <time>2010-01-01T14:43:30Z</time>
      </trkpt>
      <trkpt lat="42.75581" lon="-0.51603">
        <ele>1236</ele>
        <time>2010-01-01T14:43:34Z</time>
      </trkpt>
      <trkpt lat="42.75587" lon="-0.5159">
        <ele>1236</ele>
        <time>2010-01-01T14:43:39Z</time>
      </trkpt>
      <trkpt lat="42.75577" lon="-0.51585">
        <ele>1233</ele>
        <time>2010-01-01T14:43:43Z</time>
      </trkpt>
      <trkpt lat="42.75575" lon="-0.51571">
        <ele>1230</ele>
        <time>2010-01-01T14:43:47Z</time>
      </trkpt>
      <trkpt lat="42.75579" lon="-0.51557">
        <ele>1229</ele>
        <time>2010-01-01T14:43:52Z</time>
      </trkpt>
      <trkpt lat="42.75587" lon="-0.51547">
        <ele>1231</ele>
        <time>2010-01-01T14:43:56Z</time>
      </trkpt>
      <trkpt lat="42.75596" lon="-0.51523">
        <ele>1235</ele>
        <time>2010-01-01T14:44:04Z</time>
      </trkpt>
      <trkpt lat="42.75592" lon="-0.51495">
        <ele>1230</ele>
        <time>2010-01-01T14:44:12Z</time>
      </trkpt>
      <trkpt lat="42.75581" lon="-0.51455">
        <ele>1216</ele>
        <time>2010-01-01T14:44:25Z</time>
      </trkpt>
      <trkpt lat="42.75571" lon="-0.51448">
        <ele>1211</ele>
        <time>2010-01-01T14:44:30Z</time>
      </trkpt>
      <trkpt lat="42.75562" lon="-0.51451">
        <ele>1207</ele>
        <time>2010-01-01T14:44:33Z</time>
      </trkpt>
      <trkpt lat="42.75547" lon="-0.51471">
        <ele>1206</ele>
        <time>2010-01-01T14:44:42Z</time>
      </trkpt>
      <trkpt lat="42.75537" lon="-0.51477">
        <ele>1205</ele>
        <time>2010-01-01T14:44:46Z</time>
      </trkpt>
      <trkpt lat="42.75526" lon="-0.51477">
        <ele>1203</ele>
        <time>2010-01-01T14:44:50Z</time>
      </trkpt>
      <trkpt lat="42.75504" lon="-0.51475">
        <ele>1199</ele>
        <time>2010-01-01T14:44:59Z</time>
      </trkpt>
      <trkpt lat="42.75496" lon="-0.51475">
        <ele>1199</ele>
        <time>2010-01-01T14:45:02Z</time>
      </trkpt>
      <trkpt lat="42.75486" lon="-0.51473">
        <ele>1198</ele>
        <time>2010-01-01T14:45:06Z</time>
      </trkpt>
      <trkpt lat="42.75454" lon="-0.51476">
        <ele>1196</ele>
        <time>2010-01-01T14:45:19Z</time>
      </trkpt>
      <trkpt lat="42.7538" lon="-0.51478">
        <ele>1196</ele>
        <time>2010-01-01T14:45:49Z</time>
      </trkpt>
      <trkpt lat="42.75373" lon="-0.51468">
        <ele>1196</ele>
        <time>2010-01-01T14:45:53Z</time>
      </trkpt>
      <trkpt lat="42.75348" lon="-0.51469">
        <ele>1196</ele>
        <time>2010-01-01T14:46:03Z</time>
      </trkpt>
      <trkpt lat="42.75269" lon="-0.51476">
        <ele>1200</ele>
        <time>2010-01-01T14:46:35Z</time>
      </trkpt>
      <trkpt lat="42.75246" lon="-0.5148">
        <ele>1201</ele>
        <time>2010-01-01T14:46:44Z</time>
      </trkpt>
      <trkpt lat="42.75193" lon="-0.51492">
        <ele>1199</ele>
        <time>2010-01-01T14:47:05Z</time>
      </trkpt>
      <trkpt lat="42.75186" lon="-0.51495">
        <ele>1198</ele>
        <time>2010-01-01T14:47:08Z</time>
      </trkpt>
      <trkpt lat="42.75177" lon="-0.515">
        <ele>1198</ele>
        <time>2010-01-01T14:47:12Z</time>
      </trkpt>
      <trkpt lat="42.75155" lon="-0.51509">
        <ele>1198</ele>
        <time>2010-01-01T14:47:21Z</time>
      </trkpt>
      <trkpt lat="42.75147" lon="-0.51504">
        <ele>1196</ele>
        <time>2010-01-01T14:47:25Z</time>
      </trkpt>
      <trkpt lat="42.75145" lon="-0.51497">
        <ele>1195</ele>
        <time>2010-01-01T14:47:27Z</time>
      </trkpt>
    </trkseg>
  </trk>
</gpx>